﻿<?xml version="1.0" encoding="utf-8"?><gpx creator="Garmin Desktop App" version="1.1" xsi:schemaLocation="http://www.topografix.com/GPX/1/1 http://www.topografix.com/GPX/1/1/gpx.xsd http://www.garmin.com/xmlschemas/WaypointExtension/v1 http://www8.garmin.com/xmlschemas/WaypointExtensionv1.xsd http://www.garmin.com/xmlschemas/TrackPointExtension/v1 http://www.garmin.com/xmlschemas/TrackPointExtensionv1.xsd http://www.garmin.com/xmlschemas/GpxExtensions/v3 http://www8.garmin.com/xmlschemas/GpxExtensionsv3.xsd http://www.garmin.com/xmlschemas/ActivityExtension/v1 http://www8.garmin.com/xmlschemas/ActivityExtensionv1.xsd http://www.garmin.com/xmlschemas/AdventuresExtensions/v1 http://www8.garmin.com/xmlschemas/AdventuresExtensionv1.xsd http://www.garmin.com/xmlschemas/PressureExtension/v1 http://www.garmin.com/xmlschemas/PressureExtensionv1.xsd http://www.garmin.com/xmlschemas/TripExtensions/v1 http://www.garmin.com/xmlschemas/TripExtensionsv1.xsd http://www.garmin.com/xmlschemas/TripMetaDataExtensions/v1 http://www.garmin.com/xmlschemas/TripMetaDataExtensionsv1.xsd http://www.garmin.com/xmlschemas/ViaPointTransportationModeExtensions/v1 http://www.garmin.com/xmlschemas/ViaPointTransportationModeExtensionsv1.xsd http://www.garmin.com/xmlschemas/CreationTimeExtension/v1 http://www.garmin.com/xmlschemas/CreationTimeExtensionsv1.xsd http://www.garmin.com/xmlschemas/AccelerationExtension/v1 http://www.garmin.com/xmlschemas/AccelerationExtensionv1.xsd http://www.garmin.com/xmlschemas/PowerExtension/v1 http://www.garmin.com/xmlschemas/PowerExtensionv1.xsd http://www.garmin.com/xmlschemas/VideoExtension/v1 http://www.garmin.com/xmlschemas/VideoExtensionv1.xsd" xmlns="http://www.topografix.com/GPX/1/1" xmlns:xsi="http://www.w3.org/2001/XMLSchema-instance" xmlns:wptx1="http://www.garmin.com/xmlschemas/WaypointExtension/v1" xmlns:gpxtrx="http://www.garmin.com/xmlschemas/GpxExtensions/v3" xmlns:gpxtpx="http://www.garmin.com/xmlschemas/TrackPointExtension/v1" xmlns:gpxx="http://www.garmin.com/xmlschemas/GpxExtensions/v3" xmlns:trp="http://www.garmin.com/xmlschemas/TripExtensions/v1" xmlns:adv="http://www.garmin.com/xmlschemas/AdventuresExtensions/v1" xmlns:prs="http://www.garmin.com/xmlschemas/PressureExtension/v1" xmlns:tmd="http://www.garmin.com/xmlschemas/TripMetaDataExtensions/v1" xmlns:vptm="http://www.garmin.com/xmlschemas/ViaPointTransportationModeExtensions/v1" xmlns:ctx="http://www.garmin.com/xmlschemas/CreationTimeExtension/v1" xmlns:gpxacc="http://www.garmin.com/xmlschemas/AccelerationExtension/v1" xmlns:gpxpx="http://www.garmin.com/xmlschemas/PowerExtension/v1" xmlns:vidx1="http://www.garmin.com/xmlschemas/VideoExtension/v1">

  <metadata>
    <link href="http://www.garmin.com">
      <text>Garmin International</text>
    </link>
    <time>2024-09-19T19:57:08Z</time>
    <bounds maxlat="51.050541009753942" maxlon="13.971562972292304" minlat="50.412162020802498" minlon="12.198664974421263" />
  </metadata>

  <trk>
    <name>Track 240919</name>
    <extensions>
      <gpxx:TrackExtension>
        <gpxx:DisplayColor>DarkGray</gpxx:DisplayColor>
      </gpxx:TrackExtension>
    </extensions>
    <trkseg>
      <trkpt lat="51.050541009753942" lon="13.731558993458748">
        <ele>214.03</ele>
        <time>2024-09-19T08:27:24Z</time>
      </trkpt>
      <trkpt lat="51.050521982833743" lon="13.731566034257412">
        <ele>213.06999999999999</ele>
        <time>2024-09-19T08:28:16Z</time>
      </trkpt>
      <trkpt lat="51.050512008368969" lon="13.731572991237044">
        <ele>213.06999999999999</ele>
        <time>2024-09-19T08:28:29Z</time>
      </trkpt>
      <trkpt lat="51.050334982573986" lon="13.731608027592301">
        <ele>208.74000000000001</ele>
        <time>2024-09-19T08:28:33Z</time>
      </trkpt>
      <trkpt lat="51.050200033932924" lon="13.732387963682413">
        <ele>205.38</ele>
        <time>2024-09-19T08:28:36Z</time>
      </trkpt>
      <trkpt lat="51.050036000087857" lon="13.732447978109121">
        <ele>202.49000000000001</ele>
        <time>2024-09-19T08:28:39Z</time>
      </trkpt>
      <trkpt lat="51.049781022593379" lon="13.732556020841002">
        <ele>198.65000000000001</ele>
        <time>2024-09-19T08:28:43Z</time>
      </trkpt>
      <trkpt lat="51.049712039530277" lon="13.732584016397595">
        <ele>198.16999999999999</ele>
        <time>2024-09-19T08:28:44Z</time>
      </trkpt>
      <trkpt lat="51.049619000405073" lon="13.732620980590582">
        <ele>195.77000000000001</ele>
        <time>2024-09-19T08:28:46Z</time>
      </trkpt>
      <trkpt lat="51.049562003463507" lon="13.732644030824304">
        <ele>194.80000000000001</ele>
        <time>2024-09-19T08:28:47Z</time>
      </trkpt>
      <trkpt lat="51.049582036212087" lon="13.73263699002564">
        <ele>192.88</ele>
        <time>2024-09-19T08:28:48Z</time>
      </trkpt>
      <trkpt lat="51.049648001790047" lon="13.732610000297427">
        <ele>185.66999999999999</ele>
        <time>2024-09-19T08:28:53Z</time>
      </trkpt>
      <trkpt lat="51.04969603009522" lon="13.732590973377228">
        <ele>185.19</ele>
        <time>2024-09-19T08:28:54Z</time>
      </trkpt>
      <trkpt lat="51.050145970657468" lon="13.732403973117471">
        <ele>178.46000000000001</ele>
        <time>2024-09-19T08:29:02Z</time>
      </trkpt>
      <trkpt lat="51.050485018640757" lon="13.732310011982918">
        <ele>170.77000000000001</ele>
        <time>2024-09-19T08:29:09Z</time>
      </trkpt>
      <trkpt lat="51.050440007820725" lon="13.732004994526505">
        <ele>168.37</ele>
        <time>2024-09-19T08:29:11Z</time>
      </trkpt>
      <trkpt lat="51.050414023920894" lon="13.731832997873425">
        <ele>168.37</ele>
        <time>2024-09-19T08:29:12Z</time>
      </trkpt>
      <trkpt lat="51.05032098479569" lon="13.731492022052407">
        <ele>164.52000000000001</ele>
        <time>2024-09-19T08:29:16Z</time>
      </trkpt>
      <trkpt lat="51.050287038087845" lon="13.731385990977287">
        <ele>163.08000000000001</ele>
        <time>2024-09-19T08:29:17Z</time>
      </trkpt>
      <trkpt lat="51.04987196624279" lon="13.730114037171006">
        <ele>151.06</ele>
        <time>2024-09-19T08:29:28Z</time>
      </trkpt>
      <trkpt lat="51.04974296875298" lon="13.729730984196067">
        <ele>150.58000000000001</ele>
        <time>2024-09-19T08:29:31Z</time>
      </trkpt>
      <trkpt lat="51.049684965983033" lon="13.729614978656173">
        <ele>150.58000000000001</ele>
        <time>2024-09-19T08:29:32Z</time>
      </trkpt>
      <trkpt lat="51.049625035375357" lon="13.729496039450169">
        <ele>151.06</ele>
        <time>2024-09-19T08:29:33Z</time>
      </trkpt>
      <trkpt lat="51.04956703260541" lon="13.729380033910275">
        <ele>151.53999999999999</ele>
        <time>2024-09-19T08:29:34Z</time>
      </trkpt>
      <trkpt lat="51.049511041492224" lon="13.729267967864871">
        <ele>152.03</ele>
        <time>2024-09-19T08:29:35Z</time>
      </trkpt>
      <trkpt lat="51.048999996855855" lon="13.728116964921355">
        <ele>155.38999999999999</ele>
        <time>2024-09-19T08:29:47Z</time>
      </trkpt>
      <trkpt lat="51.048724986612797" lon="13.727739024907351">
        <ele>155.38999999999999</ele>
        <time>2024-09-19T08:29:51Z</time>
      </trkpt>
      <trkpt lat="51.048662038519979" lon="13.727675992995501">
        <ele>155.87</ele>
        <time>2024-09-19T08:29:52Z</time>
      </trkpt>
      <trkpt lat="51.048461962491274" lon="13.727476000785828">
        <ele>157.31</ele>
        <time>2024-09-19T08:29:55Z</time>
      </trkpt>
      <trkpt lat="51.048424998298287" lon="13.727439036592841">
        <ele>157.31</ele>
        <time>2024-09-19T08:29:56Z</time>
      </trkpt>
      <trkpt lat="51.048351991921663" lon="13.727393019944429">
        <ele>157.31</ele>
        <time>2024-09-19T08:29:57Z</time>
      </trkpt>
      <trkpt lat="51.048285020515323" lon="13.727350020781159">
        <ele>157.31</ele>
        <time>2024-09-19T08:29:58Z</time>
      </trkpt>
      <trkpt lat="51.04821402579546" lon="13.727306015789509">
        <ele>157.31</ele>
        <time>2024-09-19T08:29:59Z</time>
      </trkpt>
      <trkpt lat="51.048142025247216" lon="13.727259999141097">
        <ele>157.31</ele>
        <time>2024-09-19T08:30:00Z</time>
      </trkpt>
      <trkpt lat="51.048068013042212" lon="13.727212976664305">
        <ele>156.83000000000001</ele>
        <time>2024-09-19T08:30:01Z</time>
      </trkpt>
      <trkpt lat="51.048011016100645" lon="13.727180035784841">
        <ele>155.87</ele>
        <time>2024-09-19T08:30:02Z</time>
      </trkpt>
      <trkpt lat="51.047844970598817" lon="13.727137958630919">
        <ele>152.99000000000001</ele>
        <time>2024-09-19T08:30:05Z</time>
      </trkpt>
      <trkpt lat="51.047683032229543" lon="13.727035028859973">
        <ele>152.99000000000001</ele>
        <time>2024-09-19T08:30:06Z</time>
      </trkpt>
      <trkpt lat="51.047429982572794" lon="13.726773010566831">
        <ele>151.53999999999999</ele>
        <time>2024-09-19T08:30:10Z</time>
      </trkpt>
      <trkpt lat="51.047371979802847" lon="13.726703021675348">
        <ele>151.53999999999999</ele>
        <time>2024-09-19T08:30:11Z</time>
      </trkpt>
      <trkpt lat="51.047051958739758" lon="13.726344024762511">
        <ele>151.06</ele>
        <time>2024-09-19T08:30:18Z</time>
      </trkpt>
      <trkpt lat="51.047051958739758" lon="13.726344024762511">
        <ele>151.06</ele>
        <time>2024-09-19T08:30:19Z</time>
      </trkpt>
      <trkpt lat="51.047029998153448" lon="13.726404039189219">
        <ele>150.58000000000001</ele>
        <time>2024-09-19T08:30:20Z</time>
      </trkpt>
      <trkpt lat="51.046998985111713" lon="13.726488025858998">
        <ele>150.09999999999999</ele>
        <time>2024-09-19T08:30:21Z</time>
      </trkpt>
      <trkpt lat="51.046964032575488" lon="13.726582992821932">
        <ele>150.09999999999999</ele>
        <time>2024-09-19T08:30:22Z</time>
      </trkpt>
      <trkpt lat="51.04692799039185" lon="13.726680977270007">
        <ele>150.09999999999999</ele>
        <time>2024-09-19T08:30:23Z</time>
      </trkpt>
      <trkpt lat="51.046891026198864" lon="13.726782985031605">
        <ele>150.09999999999999</ele>
        <time>2024-09-19T08:30:24Z</time>
      </trkpt>
      <trkpt lat="51.046849032863975" lon="13.726895973086357">
        <ele>150.58000000000001</ele>
        <time>2024-09-19T08:30:25Z</time>
      </trkpt>
      <trkpt lat="51.046812990680337" lon="13.726995969191194">
        <ele>150.58000000000001</ele>
        <time>2024-09-19T08:30:26Z</time>
      </trkpt>
      <trkpt lat="51.046778038144112" lon="13.727099988609552">
        <ele>150.58000000000001</ele>
        <time>2024-09-19T08:30:27Z</time>
      </trkpt>
      <trkpt lat="51.046661026775837" lon="13.727453034371138">
        <ele>149.62</ele>
        <time>2024-09-19T08:30:30Z</time>
      </trkpt>
      <trkpt lat="51.046618027612567" lon="13.727581026032567">
        <ele>148.66</ele>
        <time>2024-09-19T08:30:31Z</time>
      </trkpt>
      <trkpt lat="51.046536974608898" lon="13.727825023233891">
        <ele>148.18000000000001</ele>
        <time>2024-09-19T08:30:32Z</time>
      </trkpt>
      <trkpt lat="51.046278979629278" lon="13.72857604175806">
        <ele>144.34</ele>
        <time>2024-09-19T08:30:39Z</time>
      </trkpt>
      <trkpt lat="51.046264981850982" lon="13.728604959324002">
        <ele>142.88999999999999</ele>
        <time>2024-09-19T08:30:40Z</time>
      </trkpt>
      <trkpt lat="51.046215025708079" lon="13.728714007884264">
        <ele>141.44999999999999</ele>
        <time>2024-09-19T08:30:41Z</time>
      </trkpt>
      <trkpt lat="51.046170014888048" lon="13.728811992332339">
        <ele>140.49000000000001</ele>
        <time>2024-09-19T08:30:42Z</time>
      </trkpt>
      <trkpt lat="51.046126009896398" lon="13.728883992880583">
        <ele>139.53</ele>
        <time>2024-09-19T08:30:43Z</time>
      </trkpt>
      <trkpt lat="51.046078987419605" lon="13.728939983993769">
        <ele>138.09</ele>
        <time>2024-09-19T08:30:44Z</time>
      </trkpt>
      <trkpt lat="51.045929035171866" lon="13.729182975366712">
        <ele>131.84</ele>
        <time>2024-09-19T08:30:52Z</time>
      </trkpt>
      <trkpt lat="51.045929035171866" lon="13.729182975366712">
        <ele>129.91999999999999</ele>
        <time>2024-09-19T08:31:32Z</time>
      </trkpt>
      <trkpt lat="51.045871032401919" lon="13.729283977299929">
        <ele>127.98999999999999</ele>
        <time>2024-09-19T08:31:56Z</time>
      </trkpt>
      <trkpt lat="51.045848987996578" lon="13.729234021157026">
        <ele>127.03</ele>
        <time>2024-09-19T08:31:57Z</time>
      </trkpt>
      <trkpt lat="51.045825015753508" lon="13.72917803004384">
        <ele>127.03</ele>
        <time>2024-09-19T08:31:58Z</time>
      </trkpt>
      <trkpt lat="51.045790985226631" lon="13.729101000353694">
        <ele>126.06999999999999</ele>
        <time>2024-09-19T08:31:59Z</time>
      </trkpt>
      <trkpt lat="51.045747986063361" lon="13.729003015905619">
        <ele>125.59</ele>
        <time>2024-09-19T08:32:00Z</time>
      </trkpt>
      <trkpt lat="51.045698029920459" lon="13.728890027850866">
        <ele>125.59</ele>
        <time>2024-09-19T08:32:01Z</time>
      </trkpt>
      <trkpt lat="51.045181034132838" lon="13.727723015472293">
        <ele>126.06999999999999</ele>
        <time>2024-09-19T08:32:12Z</time>
      </trkpt>
      <trkpt lat="51.045077014714479" lon="13.727483041584492">
        <ele>126.55</ele>
        <time>2024-09-19T08:32:15Z</time>
      </trkpt>
      <trkpt lat="51.044942988082767" lon="13.727440964430571">
        <ele>127.03</ele>
        <time>2024-09-19T08:32:17Z</time>
      </trkpt>
      <trkpt lat="51.044897977262735" lon="13.727458985522389">
        <ele>127.03</ele>
        <time>2024-09-19T08:32:18Z</time>
      </trkpt>
      <trkpt lat="51.044834023341537" lon="13.727493016049266">
        <ele>127.03</ele>
        <time>2024-09-19T08:32:19Z</time>
      </trkpt>
      <trkpt lat="51.044218959286809" lon="13.728221990168095">
        <ele>126.55</ele>
        <time>2024-09-19T08:32:27Z</time>
      </trkpt>
      <trkpt lat="51.044127009809017" lon="13.728268006816506">
        <ele>126.55</ele>
        <time>2024-09-19T08:32:28Z</time>
      </trkpt>
      <trkpt lat="51.044034976512194" lon="13.728288961574435">
        <ele>127.03</ele>
        <time>2024-09-19T08:32:29Z</time>
      </trkpt>
      <trkpt lat="51.043891981244087" lon="13.728258032351732">
        <ele>126.55</ele>
        <time>2024-09-19T08:32:31Z</time>
      </trkpt>
      <trkpt lat="51.043843030929565" lon="13.728178991004825">
        <ele>126.55</ele>
        <time>2024-09-19T08:32:32Z</time>
      </trkpt>
      <trkpt lat="51.043809000402689" lon="13.728103972971439">
        <ele>126.06999999999999</ele>
        <time>2024-09-19T08:32:33Z</time>
      </trkpt>
      <trkpt lat="51.04378997348249" lon="13.728060973808169">
        <ele>126.06999999999999</ele>
        <time>2024-09-19T08:32:34Z</time>
      </trkpt>
      <trkpt lat="51.043775975704193" lon="13.727940022945404">
        <ele>126.06999999999999</ele>
        <time>2024-09-19T08:32:35Z</time>
      </trkpt>
      <trkpt lat="51.043762983754277" lon="13.727833991870284">
        <ele>126.06999999999999</ele>
        <time>2024-09-19T08:32:36Z</time>
      </trkpt>
      <trkpt lat="51.04374697431922" lon="13.727696025744081">
        <ele>126.06999999999999</ele>
        <time>2024-09-19T08:32:37Z</time>
      </trkpt>
      <trkpt lat="51.043783016502857" lon="13.727578008547425">
        <ele>126.06999999999999</ele>
        <time>2024-09-19T08:32:38Z</time>
      </trkpt>
      <trkpt lat="51.04381101205945" lon="13.727482035756111">
        <ele>125.59</ele>
        <time>2024-09-19T08:32:39Z</time>
      </trkpt>
      <trkpt lat="51.043869014829397" lon="13.727356977760792">
        <ele>125.59</ele>
        <time>2024-09-19T08:32:40Z</time>
      </trkpt>
      <trkpt lat="51.043906984850764" lon="13.727275002747774">
        <ele>125.59</ele>
        <time>2024-09-19T08:32:41Z</time>
      </trkpt>
      <trkpt lat="51.043931962922215" lon="13.727220017462969">
        <ele>125.59</ele>
        <time>2024-09-19T08:32:42Z</time>
      </trkpt>
      <trkpt lat="51.043949984014034" lon="13.727169977501035">
        <ele>125.59</ele>
        <time>2024-09-19T08:32:43Z</time>
      </trkpt>
      <trkpt lat="51.043894998729229" lon="13.727166038006544">
        <ele>125.11</ele>
        <time>2024-09-19T08:32:44Z</time>
      </trkpt>
      <trkpt lat="51.043872032314539" lon="13.727148016914725">
        <ele>124.63</ele>
        <time>2024-09-19T08:32:45Z</time>
      </trkpt>
      <trkpt lat="51.04383297264576" lon="13.727117003872991">
        <ele>124.15000000000001</ele>
        <time>2024-09-19T08:32:46Z</time>
      </trkpt>
      <trkpt lat="51.043802965432405" lon="13.727190010249615">
        <ele>124.15000000000001</ele>
        <time>2024-09-19T08:32:47Z</time>
      </trkpt>
      <trkpt lat="51.043753009289503" lon="13.727315990254283">
        <ele>123.67</ele>
        <time>2024-09-19T08:32:48Z</time>
      </trkpt>
      <trkpt lat="51.043696012347937" lon="13.727462003007531">
        <ele>123.67</ele>
        <time>2024-09-19T08:32:49Z</time>
      </trkpt>
      <trkpt lat="51.043000984936953" lon="13.729210970923305">
        <ele>120.3</ele>
        <time>2024-09-19T08:32:59Z</time>
      </trkpt>
      <trkpt lat="51.042331019416451" lon="13.730872012674809">
        <ele>114.53</ele>
        <time>2024-09-19T08:33:09Z</time>
      </trkpt>
      <trkpt lat="51.039948966354132" lon="13.736257972195745">
        <ele>113.09</ele>
        <time>2024-09-19T08:33:43Z</time>
      </trkpt>
      <trkpt lat="51.039428031072021" lon="13.737780964002013">
        <ele>120.3</ele>
        <time>2024-09-19T08:33:53Z</time>
      </trkpt>
      <trkpt lat="51.039369022473693" lon="13.737997971475124">
        <ele>121.26000000000001</ele>
        <time>2024-09-19T08:33:55Z</time>
      </trkpt>
      <trkpt lat="51.039335997775197" lon="13.738076006993651">
        <ele>122.22</ele>
        <time>2024-09-19T08:33:56Z</time>
      </trkpt>
      <trkpt lat="51.039261985570192" lon="13.738253032788634">
        <ele>123.19</ele>
        <time>2024-09-19T08:33:57Z</time>
      </trkpt>
      <trkpt lat="51.039226027205586" lon="13.738225037232041">
        <ele>123.19</ele>
        <time>2024-09-19T08:33:58Z</time>
      </trkpt>
      <trkpt lat="51.039069034159184" lon="13.738102996721864">
        <ele>123.67</ele>
        <time>2024-09-19T08:33:59Z</time>
      </trkpt>
      <trkpt lat="51.039069034159184" lon="13.738102996721864">
        <ele>122.70999999999999</ele>
        <time>2024-09-19T08:34:00Z</time>
      </trkpt>
      <trkpt lat="51.039032991975546" lon="13.738076006993651">
        <ele>122.22</ele>
        <time>2024-09-19T08:34:01Z</time>
      </trkpt>
      <trkpt lat="51.038806010037661" lon="13.73790099285543">
        <ele>123.19</ele>
        <time>2024-09-19T08:34:04Z</time>
      </trkpt>
      <trkpt lat="51.038263030350208" lon="13.737474018707871">
        <ele>128.47</ele>
        <time>2024-09-19T08:34:12Z</time>
      </trkpt>
      <trkpt lat="51.038032025098801" lon="13.737267991527915">
        <ele>129.43000000000001</ele>
        <time>2024-09-19T08:34:14Z</time>
      </trkpt>
      <trkpt lat="51.037969999015331" lon="13.73721401207149">
        <ele>128.94999999999999</ele>
        <time>2024-09-19T08:34:15Z</time>
      </trkpt>
      <trkpt lat="51.037918031215668" lon="13.737167995423079">
        <ele>128.47</ele>
        <time>2024-09-19T08:34:16Z</time>
      </trkpt>
      <trkpt lat="51.037875032052398" lon="13.737131031230092">
        <ele>128.47</ele>
        <time>2024-09-19T08:34:17Z</time>
      </trkpt>
      <trkpt lat="51.037836978211999" lon="13.737097000703216">
        <ele>127.98999999999999</ele>
        <time>2024-09-19T08:34:18Z</time>
      </trkpt>
      <trkpt lat="51.037823986262083" lon="13.736834982410073">
        <ele>127.03</ele>
        <time>2024-09-19T08:34:20Z</time>
      </trkpt>
      <trkpt lat="51.037849970161915" lon="13.736756024882197">
        <ele>126.06999999999999</ele>
        <time>2024-09-19T08:34:21Z</time>
      </trkpt>
      <trkpt lat="51.038261018693447" lon="13.735487004742026">
        <ele>122.22</ele>
        <time>2024-09-19T08:34:30Z</time>
      </trkpt>
      <trkpt lat="51.038707019761205" lon="13.734085969626904">
        <ele>119.81999999999999</ele>
        <time>2024-09-19T08:34:40Z</time>
      </trkpt>
      <trkpt lat="51.038768040016294" lon="13.733891006559134">
        <ele>118.38</ele>
        <time>2024-09-19T08:34:46Z</time>
      </trkpt>
      <trkpt lat="51.038768040016294" lon="13.733891006559134">
        <ele>114.05</ele>
        <time>2024-09-19T08:35:24Z</time>
      </trkpt>
      <trkpt lat="51.038768040016294" lon="13.733891006559134">
        <ele>114.05</ele>
        <time>2024-09-19T08:35:55Z</time>
      </trkpt>
      <trkpt lat="51.038777008652687" lon="13.733857981860638">
        <ele>114.05</ele>
        <time>2024-09-19T08:35:56Z</time>
      </trkpt>
      <trkpt lat="51.038918998092413" lon="13.733437964692712">
        <ele>113.56999999999999</ele>
        <time>2024-09-19T08:36:01Z</time>
      </trkpt>
      <trkpt lat="51.038945987820625" lon="13.733363030478358">
        <ele>113.56999999999999</ele>
        <time>2024-09-19T08:36:02Z</time>
      </trkpt>
      <trkpt lat="51.038884967565536" lon="13.733186004683375">
        <ele>113.56999999999999</ele>
        <time>2024-09-19T08:36:03Z</time>
      </trkpt>
      <trkpt lat="51.038838028907776" lon="13.733164966106415">
        <ele>113.56999999999999</ele>
        <time>2024-09-19T08:36:04Z</time>
      </trkpt>
      <trkpt lat="51.038779020309448" lon="13.733136970549822">
        <ele>113.09</ele>
        <time>2024-09-19T08:36:05Z</time>
      </trkpt>
      <trkpt lat="51.038700984790921" lon="13.733101012185216">
        <ele>112.61</ele>
        <time>2024-09-19T08:36:06Z</time>
      </trkpt>
      <trkpt lat="51.038604006171227" lon="13.733054995536804">
        <ele>112.61</ele>
        <time>2024-09-19T08:36:07Z</time>
      </trkpt>
      <trkpt lat="51.037574037909508" lon="13.73257395811379">
        <ele>110.20999999999999</ele>
        <time>2024-09-19T08:36:16Z</time>
      </trkpt>
      <trkpt lat="51.037465995177627" lon="13.732524001970887">
        <ele>110.20999999999999</ele>
        <time>2024-09-19T08:36:17Z</time>
      </trkpt>
      <trkpt lat="51.036459999158978" lon="13.732053022831678">
        <ele>107.81</ele>
        <time>2024-09-19T08:36:26Z</time>
      </trkpt>
      <trkpt lat="51.035483004525304" lon="13.731592018157244">
        <ele>106.84</ele>
        <time>2024-09-19T08:36:35Z</time>
      </trkpt>
      <trkpt lat="51.035216962918639" lon="13.731465032324195">
        <ele>106.84</ele>
        <time>2024-09-19T08:36:39Z</time>
      </trkpt>
      <trkpt lat="51.035170024260879" lon="13.731442987918854">
        <ele>106.84</ele>
        <time>2024-09-19T08:36:40Z</time>
      </trkpt>
      <trkpt lat="51.035119984298944" lon="13.731419015675783">
        <ele>107.31999999999999</ele>
        <time>2024-09-19T08:36:41Z</time>
      </trkpt>
      <trkpt lat="51.035071033984423" lon="13.731394959613681">
        <ele>107.31999999999999</ele>
        <time>2024-09-19T08:36:42Z</time>
      </trkpt>
      <trkpt lat="51.035020994022489" lon="13.73137098737061">
        <ele>107.31999999999999</ele>
        <time>2024-09-19T08:36:43Z</time>
      </trkpt>
      <trkpt lat="51.034973971545696" lon="13.73134802095592">
        <ele>107.81</ele>
        <time>2024-09-19T08:36:44Z</time>
      </trkpt>
      <trkpt lat="51.034931978210807" lon="13.73132698237896">
        <ele>107.81</ele>
        <time>2024-09-19T08:36:45Z</time>
      </trkpt>
      <trkpt lat="51.03476601652801" lon="13.731247019022703">
        <ele>109.25</ele>
        <time>2024-09-19T08:36:55Z</time>
      </trkpt>
      <trkpt lat="51.034708013758063" lon="13.73121902346611">
        <ele>109.25</ele>
        <time>2024-09-19T08:37:00Z</time>
      </trkpt>
      <trkpt lat="51.03405799716711" lon="13.730882992967963">
        <ele>112.13</ele>
        <time>2024-09-19T08:37:08Z</time>
      </trkpt>
      <trkpt lat="51.032975977286696" lon="13.730243034660816">
        <ele>120.78</ele>
        <time>2024-09-19T08:37:18Z</time>
      </trkpt>
      <trkpt lat="51.032866006717086" lon="13.730170028284192">
        <ele>121.26000000000001</ele>
        <time>2024-09-19T08:37:19Z</time>
      </trkpt>
      <trkpt lat="51.032760981470346" lon="13.73010003939271">
        <ele>122.22</ele>
        <time>2024-09-19T08:37:20Z</time>
      </trkpt>
      <trkpt lat="51.032652016729116" lon="13.730112025514245">
        <ele>122.70999999999999</ele>
        <time>2024-09-19T08:37:21Z</time>
      </trkpt>
      <trkpt lat="51.032547997310758" lon="13.73012401163578">
        <ele>123.67</ele>
        <time>2024-09-19T08:37:22Z</time>
      </trkpt>
      <trkpt lat="51.03244598954916" lon="13.730135997757316">
        <ele>124.63</ele>
        <time>2024-09-19T08:37:24Z</time>
      </trkpt>
      <trkpt lat="51.031606961041689" lon="13.730342024937272">
        <ele>129.43000000000001</ele>
        <time>2024-09-19T08:37:33Z</time>
      </trkpt>
      <trkpt lat="51.031442005187273" lon="13.730384018272161">
        <ele>130.88</ele>
        <time>2024-09-19T08:37:36Z</time>
      </trkpt>
      <trkpt lat="51.031390959396958" lon="13.730397010222077">
        <ele>130.88</ele>
        <time>2024-09-19T08:37:37Z</time>
      </trkpt>
      <trkpt lat="51.031216029077768" lon="13.730442021042109">
        <ele>131.36000000000001</ele>
        <time>2024-09-19T08:37:41Z</time>
      </trkpt>
      <trkpt lat="51.030679000541568" lon="13.730529025197029">
        <ele>134.24000000000001</ele>
        <time>2024-09-19T08:37:53Z</time>
      </trkpt>
      <trkpt lat="51.030679000541568" lon="13.730529025197029">
        <ele>134.72</ele>
        <time>2024-09-19T08:38:05Z</time>
      </trkpt>
      <trkpt lat="51.030663996934891" lon="13.73053003102541">
        <ele>134.24000000000001</ele>
        <time>2024-09-19T08:38:53Z</time>
      </trkpt>
      <trkpt lat="51.030293013900518" lon="13.730575041845441">
        <ele>137.61000000000001</ele>
        <time>2024-09-19T08:38:59Z</time>
      </trkpt>
      <trkpt lat="51.029333034530282" lon="13.730819961056113">
        <ele>139.05000000000001</ele>
        <time>2024-09-19T08:39:08Z</time>
      </trkpt>
      <trkpt lat="51.029224991798401" lon="13.730848040431738">
        <ele>139.05000000000001</ele>
        <time>2024-09-19T08:39:09Z</time>
      </trkpt>
      <trkpt lat="51.028490988537669" lon="13.731043003499508">
        <ele>139.53</ele>
        <time>2024-09-19T08:39:16Z</time>
      </trkpt>
      <trkpt lat="51.028373977169394" lon="13.731076028198004">
        <ele>139.53</ele>
        <time>2024-09-19T08:39:17Z</time>
      </trkpt>
      <trkpt lat="51.028066026046872" lon="13.731163032352924">
        <ele>140.49000000000001</ele>
        <time>2024-09-19T08:39:20Z</time>
      </trkpt>
      <trkpt lat="51.026973025873303" lon="13.731511970981956">
        <ele>150.58000000000001</ele>
        <time>2024-09-19T08:39:30Z</time>
      </trkpt>
      <trkpt lat="51.025515999644995" lon="13.731853030622005">
        <ele>159.24000000000001</ele>
        <time>2024-09-19T08:39:43Z</time>
      </trkpt>
      <trkpt lat="51.025408962741494" lon="13.731797961518168">
        <ele>159.72</ele>
        <time>2024-09-19T08:39:44Z</time>
      </trkpt>
      <trkpt lat="51.025307960808277" lon="13.731720009818673">
        <ele>160.19999999999999</ele>
        <time>2024-09-19T08:39:45Z</time>
      </trkpt>
      <trkpt lat="51.025224979966879" lon="13.731612972915173">
        <ele>161.63999999999999</ele>
        <time>2024-09-19T08:39:47Z</time>
      </trkpt>
      <trkpt lat="51.024563983082771" lon="13.730787020176649">
        <ele>167.88999999999999</ele>
        <time>2024-09-19T08:39:53Z</time>
      </trkpt>
      <trkpt lat="51.024443032220006" lon="13.730729017406702">
        <ele>168.84999999999999</ele>
        <time>2024-09-19T08:39:54Z</time>
      </trkpt>
      <trkpt lat="51.024329038336873" lon="13.730688029900193">
        <ele>170.28999999999999</ele>
        <time>2024-09-19T08:39:55Z</time>
      </trkpt>
      <trkpt lat="51.02421403862536" lon="13.730646036565304">
        <ele>171.25</ele>
        <time>2024-09-19T08:39:56Z</time>
      </trkpt>
      <trkpt lat="51.024100966751575" lon="13.730604965239763">
        <ele>172.69</ele>
        <time>2024-09-19T08:39:57Z</time>
      </trkpt>
      <trkpt lat="51.022932026535273" lon="13.730383012443781">
        <ele>185.66999999999999</ele>
        <time>2024-09-19T08:40:07Z</time>
      </trkpt>
      <trkpt lat="51.02153099142015" lon="13.729988979175687">
        <ele>196.25</ele>
        <time>2024-09-19T08:40:19Z</time>
      </trkpt>
      <trkpt lat="51.02019801735878" lon="13.729351032525301">
        <ele>198.16999999999999</ele>
        <time>2024-09-19T08:40:29Z</time>
      </trkpt>
      <trkpt lat="51.019869027659297" lon="13.729237038642168">
        <ele>198.65000000000001</ele>
        <time>2024-09-19T08:40:31Z</time>
      </trkpt>
      <trkpt lat="51.019699964672327" lon="13.729179035872221">
        <ele>198.65000000000001</ele>
        <time>2024-09-19T08:40:32Z</time>
      </trkpt>
      <trkpt lat="51.019520005211234" lon="13.729154979810119">
        <ele>199.61000000000001</ele>
        <time>2024-09-19T08:40:33Z</time>
      </trkpt>
      <trkpt lat="51.019341973587871" lon="13.72913503088057">
        <ele>199.61000000000001</ele>
        <time>2024-09-19T08:40:34Z</time>
      </trkpt>
      <trkpt lat="51.019164025783539" lon="13.729154979810119">
        <ele>200.09</ele>
        <time>2024-09-19T08:40:35Z</time>
      </trkpt>
      <trkpt lat="51.018988005816936" lon="13.729175012558699">
        <ele>200.56999999999999</ele>
        <time>2024-09-19T08:40:36Z</time>
      </trkpt>
      <trkpt lat="51.017755027860403" lon="13.72928598895669">
        <ele>199.13</ele>
        <time>2024-09-19T08:40:43Z</time>
      </trkpt>
      <trkpt lat="51.017411034554243" lon="13.729182975366712">
        <ele>198.16999999999999</ele>
        <time>2024-09-19T08:40:45Z</time>
      </trkpt>
      <trkpt lat="51.01658801548183" lon="13.728499012067914">
        <ele>195.28</ele>
        <time>2024-09-19T08:40:50Z</time>
      </trkpt>
      <trkpt lat="51.01643999107182" lon="13.72831704095006">
        <ele>194.80000000000001</ele>
        <time>2024-09-19T08:40:51Z</time>
      </trkpt>
      <trkpt lat="51.01630998775363" lon="13.728103972971439">
        <ele>194.31999999999999</ele>
        <time>2024-09-19T08:40:52Z</time>
      </trkpt>
      <trkpt lat="51.016191970556974" lon="13.727876991033554">
        <ele>193.84</ele>
        <time>2024-09-19T08:40:53Z</time>
      </trkpt>
      <trkpt lat="51.016089962795377" lon="13.727636011317372">
        <ele>192.88</ele>
        <time>2024-09-19T08:40:54Z</time>
      </trkpt>
      <trkpt lat="51.01600899361074" lon="13.72739402577281">
        <ele>192.40000000000001</ele>
        <time>2024-09-19T08:40:55Z</time>
      </trkpt>
      <trkpt lat="51.015930036082864" lon="13.727156985551119">
        <ele>191.91999999999999</ele>
        <time>2024-09-19T08:40:56Z</time>
      </trkpt>
      <trkpt lat="51.015870021656156" lon="13.726899996399879">
        <ele>191.44</ele>
        <time>2024-09-19T08:40:57Z</time>
      </trkpt>
      <trkpt lat="51.015826016664505" lon="13.726639989763498">
        <ele>190.47999999999999</ele>
        <time>2024-09-19T08:40:58Z</time>
      </trkpt>
      <trkpt lat="51.015552012249827" lon="13.724305965006351">
        <ele>186.15000000000001</ele>
        <time>2024-09-19T08:41:07Z</time>
      </trkpt>
      <trkpt lat="51.015458973124623" lon="13.724034978076816">
        <ele>185.19</ele>
        <time>2024-09-19T08:41:08Z</time>
      </trkpt>
      <trkpt lat="51.015378003939986" lon="13.723798021674156">
        <ele>184.71000000000001</ele>
        <time>2024-09-19T08:41:09Z</time>
      </trkpt>
      <trkpt lat="51.015294017270207" lon="13.723555030301213">
        <ele>184.22999999999999</ele>
        <time>2024-09-19T08:41:10Z</time>
      </trkpt>
      <trkpt lat="51.015197960659862" lon="13.723360989242792">
        <ele>183.75</ele>
        <time>2024-09-19T08:41:11Z</time>
      </trkpt>
      <trkpt lat="51.015073992311954" lon="13.723201984539628">
        <ele>183.27000000000001</ele>
        <time>2024-09-19T08:41:12Z</time>
      </trkpt>
      <trkpt lat="51.014943988993764" lon="13.723042979836464">
        <ele>182.78999999999999</ele>
        <time>2024-09-19T08:41:13Z</time>
      </trkpt>
      <trkpt lat="51.014800993725657" lon="13.722867965698242">
        <ele>182.31</ele>
        <time>2024-09-19T08:41:14Z</time>
      </trkpt>
      <trkpt lat="51.014668978750706" lon="13.722780039533973">
        <ele>181.83000000000001</ele>
        <time>2024-09-19T08:41:15Z</time>
      </trkpt>
      <trkpt lat="51.014516009017825" lon="13.722678031772375">
        <ele>181.34999999999999</ele>
        <time>2024-09-19T08:41:16Z</time>
      </trkpt>
      <trkpt lat="51.014348035678267" lon="13.722612988203764">
        <ele>180.87</ele>
        <time>2024-09-19T08:41:17Z</time>
      </trkpt>
      <trkpt lat="51.014170004054904" lon="13.722565965726972">
        <ele>180.38</ele>
        <time>2024-09-19T08:41:18Z</time>
      </trkpt>
      <trkpt lat="51.01399197243154" lon="13.722552973777056">
        <ele>180.38</ele>
        <time>2024-09-19T08:41:19Z</time>
      </trkpt>
      <trkpt lat="51.013808995485306" lon="13.722575018182397">
        <ele>180.38</ele>
        <time>2024-09-19T08:41:20Z</time>
      </trkpt>
      <trkpt lat="51.013634987175465" lon="13.722630003467202">
        <ele>179.90000000000001</ele>
        <time>2024-09-19T08:41:21Z</time>
      </trkpt>
      <trkpt lat="51.013460978865623" lon="13.722694041207433">
        <ele>179.90000000000001</ele>
        <time>2024-09-19T08:41:22Z</time>
      </trkpt>
      <trkpt lat="51.013301974162459" lon="13.722795965149999">
        <ele>180.38</ele>
        <time>2024-09-19T08:41:23Z</time>
      </trkpt>
      <trkpt lat="51.013152021914721" lon="13.722938960418105">
        <ele>180.38</ele>
        <time>2024-09-19T08:41:24Z</time>
      </trkpt>
      <trkpt lat="51.013011960312724" lon="13.723093019798398">
        <ele>180.38</ele>
        <time>2024-09-19T08:41:25Z</time>
      </trkpt>
      <trkpt lat="51.012871982529759" lon="13.723246995359659">
        <ele>180.38</ele>
        <time>2024-09-19T08:41:26Z</time>
      </trkpt>
      <trkpt lat="51.011673035100102" lon="13.724293978884816">
        <ele>183.75</ele>
        <time>2024-09-19T08:41:34Z</time>
      </trkpt>
      <trkpt lat="51.011414034292102" lon="13.724596984684467">
        <ele>185.19</ele>
        <time>2024-09-19T08:41:36Z</time>
      </trkpt>
      <trkpt lat="51.011305991560221" lon="13.72477401047945">
        <ele>185.66999999999999</ele>
        <time>2024-09-19T08:41:37Z</time>
      </trkpt>
      <trkpt lat="51.011212030425668" lon="13.724970985203981">
        <ele>186.63</ele>
        <time>2024-09-19T08:41:38Z</time>
      </trkpt>
      <trkpt lat="51.011115973815322" lon="13.725169971585274">
        <ele>187.59</ele>
        <time>2024-09-19T08:41:39Z</time>
      </trkpt>
      <trkpt lat="51.011041039600968" lon="13.725387984886765">
        <ele>188.08000000000001</ele>
        <time>2024-09-19T08:41:40Z</time>
      </trkpt>
      <trkpt lat="51.010971972718835" lon="13.725619995966554">
        <ele>189.03999999999999</ele>
        <time>2024-09-19T08:41:41Z</time>
      </trkpt>
      <trkpt lat="51.010903995484114" lon="13.725849995389581">
        <ele>189.52000000000001</ele>
        <time>2024-09-19T08:41:42Z</time>
      </trkpt>
      <trkpt lat="51.010844986885786" lon="13.726081000640988">
        <ele>190.47999999999999</ele>
        <time>2024-09-19T08:41:43Z</time>
      </trkpt>
      <trkpt lat="51.010813973844051" lon="13.726318040862679">
        <ele>190.96000000000001</ele>
        <time>2024-09-19T08:41:44Z</time>
      </trkpt>
      <trkpt lat="51.010783966630697" lon="13.726549968123436">
        <ele>191.91999999999999</ele>
        <time>2024-09-19T08:41:45Z</time>
      </trkpt>
      <trkpt lat="51.010762006044388" lon="13.726765969768167">
        <ele>192.88</ele>
        <time>2024-09-19T08:41:46Z</time>
      </trkpt>
      <trkpt lat="51.010714983567595" lon="13.727608015760779">
        <ele>196.72999999999999</ele>
        <time>2024-09-19T08:41:52Z</time>
      </trkpt>
      <trkpt lat="51.010648012161255" lon="13.728116964921355">
        <ele>200.56999999999999</ele>
        <time>2024-09-19T08:42:02Z</time>
      </trkpt>
      <trkpt lat="51.0106370318681" lon="13.728177985176444">
        <ele>202.00999999999999</ele>
        <time>2024-09-19T08:42:16Z</time>
      </trkpt>
      <trkpt lat="51.010505016893148" lon="13.728757007047534">
        <ele>203.94</ele>
        <time>2024-09-19T08:42:23Z</time>
      </trkpt>
      <trkpt lat="51.010325979441404" lon="13.72913402505219">
        <ele>205.38</ele>
        <time>2024-09-19T08:42:36Z</time>
      </trkpt>
      <trkpt lat="51.010202011093497" lon="13.729353966191411">
        <ele>207.30000000000001</ele>
        <time>2024-09-19T08:43:03Z</time>
      </trkpt>
      <trkpt lat="51.010047029703856" lon="13.729581031948328">
        <ele>207.78</ele>
        <time>2024-09-19T08:43:06Z</time>
      </trkpt>
      <trkpt lat="51.00986497476697" lon="13.729755962267518">
        <ele>208.25999999999999</ele>
        <time>2024-09-19T08:43:09Z</time>
      </trkpt>
      <trkpt lat="51.009781993925571" lon="13.729806002229452">
        <ele>208.74000000000001</ele>
        <time>2024-09-19T08:43:10Z</time>
      </trkpt>
      <trkpt lat="51.009707981720567" lon="13.729850007221103">
        <ele>209.22</ele>
        <time>2024-09-19T08:43:11Z</time>
      </trkpt>
      <trkpt lat="51.009267009794712" lon="13.730022003874183">
        <ele>210.19</ele>
        <time>2024-09-19T08:43:16Z</time>
      </trkpt>
      <trkpt lat="51.009145975112915" lon="13.730042958632112">
        <ele>210.66999999999999</ele>
        <time>2024-09-19T08:43:17Z</time>
      </trkpt>
      <trkpt lat="51.007858011871576" lon="13.729886971414089">
        <ele>216.91</ele>
        <time>2024-09-19T08:43:27Z</time>
      </trkpt>
      <trkpt lat="51.007232973352075" lon="13.729797033593059">
        <ele>220.75999999999999</ele>
        <time>2024-09-19T08:43:35Z</time>
      </trkpt>
      <trkpt lat="51.007067011669278" lon="13.729771971702576">
        <ele>222.19999999999999</ele>
        <time>2024-09-19T08:43:37Z</time>
      </trkpt>
      <trkpt lat="51.007001968100667" lon="13.72965001501143">
        <ele>222.68000000000001</ele>
        <time>2024-09-19T08:43:38Z</time>
      </trkpt>
      <trkpt lat="51.006946982815862" lon="13.729557981714606">
        <ele>223.63999999999999</ele>
        <time>2024-09-19T08:43:39Z</time>
      </trkpt>
      <trkpt lat="51.006895015016198" lon="13.729443987831473">
        <ele>224.12</ele>
        <time>2024-09-19T08:43:40Z</time>
      </trkpt>
      <trkpt lat="51.006870958954096" lon="13.729251036420465">
        <ele>224.61000000000001</ele>
        <time>2024-09-19T08:43:41Z</time>
      </trkpt>
      <trkpt lat="51.006885962560773" lon="13.72905196622014">
        <ele>225.09</ele>
        <time>2024-09-19T08:43:43Z</time>
      </trkpt>
      <trkpt lat="51.006958968937397" lon="13.7284030392766">
        <ele>224.61000000000001</ele>
        <time>2024-09-19T08:43:45Z</time>
      </trkpt>
      <trkpt lat="51.007001968100667" lon="13.72821100987494">
        <ele>223.63999999999999</ele>
        <time>2024-09-19T08:43:47Z</time>
      </trkpt>
      <trkpt lat="51.007103975862265" lon="13.727908004075289">
        <ele>222.68000000000001</ele>
        <time>2024-09-19T08:43:49Z</time>
      </trkpt>
      <trkpt lat="51.007276978343725" lon="13.727725027129054">
        <ele>221.72</ele>
        <time>2024-09-19T08:43:51Z</time>
      </trkpt>
      <trkpt lat="51.007481999695301" lon="13.727661995217204">
        <ele>220.75999999999999</ele>
        <time>2024-09-19T08:43:52Z</time>
      </trkpt>
      <trkpt lat="51.007593981921673" lon="13.727655038237572">
        <ele>220.28</ele>
        <time>2024-09-19T08:43:53Z</time>
      </trkpt>
      <trkpt lat="51.00769598968327" lon="13.727704994380474">
        <ele>219.80000000000001</ele>
        <time>2024-09-19T08:43:54Z</time>
      </trkpt>
      <trkpt lat="51.00778198800981" lon="13.727818988263607">
        <ele>218.84</ele>
        <time>2024-09-19T08:43:55Z</time>
      </trkpt>
      <trkpt lat="51.007854994386435" lon="13.727937005460262">
        <ele>217.88</ele>
        <time>2024-09-19T08:43:56Z</time>
      </trkpt>
      <trkpt lat="51.007911991328001" lon="13.728068014606833">
        <ele>217.40000000000001</ele>
        <time>2024-09-19T08:43:57Z</time>
      </trkpt>
      <trkpt lat="51.007955996319652" lon="13.728216961026192">
        <ele>216.43000000000001</ele>
        <time>2024-09-19T08:43:58Z</time>
      </trkpt>
      <trkpt lat="51.007997989654541" lon="13.728359034284949">
        <ele>215.94999999999999</ele>
        <time>2024-09-19T08:43:59Z</time>
      </trkpt>
      <trkpt lat="51.007987009361386" lon="13.728509992361069">
        <ele>214.99000000000001</ele>
        <time>2024-09-19T08:44:00Z</time>
      </trkpt>
      <trkpt lat="51.007975023239851" lon="13.72866497375071">
        <ele>214.50999999999999</ele>
        <time>2024-09-19T08:44:01Z</time>
      </trkpt>
      <trkpt lat="51.007963037118316" lon="13.728822972625494">
        <ele>214.03</ele>
        <time>2024-09-19T08:44:02Z</time>
      </trkpt>
      <trkpt lat="51.007950967177749" lon="13.7289849948138">
        <ele>213.55000000000001</ele>
        <time>2024-09-19T08:44:03Z</time>
      </trkpt>
      <trkpt lat="51.007706969976425" lon="13.73055400326848">
        <ele>211.15000000000001</ele>
        <time>2024-09-19T08:44:10Z</time>
      </trkpt>
      <trkpt lat="51.007318971678615" lon="13.732503969222307">
        <ele>210.19</ele>
        <time>2024-09-19T08:44:16Z</time>
      </trkpt>
      <trkpt lat="51.006522020325065" lon="13.736006012186408">
        <ele>208.74000000000001</ele>
        <time>2024-09-19T08:44:25Z</time>
      </trkpt>
      <trkpt lat="51.005253000184894" lon="13.739503026008606">
        <ele>204.41999999999999</ele>
        <time>2024-09-19T08:44:34Z</time>
      </trkpt>
      <trkpt lat="51.003564968705177" lon="13.742659986019135">
        <ele>198.16999999999999</ele>
        <time>2024-09-19T08:44:43Z</time>
      </trkpt>
      <trkpt lat="51.000893991440535" lon="13.747277995571494">
        <ele>191.91999999999999</ele>
        <time>2024-09-19T08:44:57Z</time>
      </trkpt>
      <trkpt lat="50.999654978513718" lon="13.750225994735956">
        <ele>191.44</ele>
        <time>2024-09-19T08:45:06Z</time>
      </trkpt>
      <trkpt lat="50.998583016917109" lon="13.753614965826273">
        <ele>193.84</ele>
        <time>2024-09-19T08:45:16Z</time>
      </trkpt>
      <trkpt lat="50.99731701426208" lon="13.757928963750601">
        <ele>198.16999999999999</ele>
        <time>2024-09-19T08:45:29Z</time>
      </trkpt>
      <trkpt lat="50.996043970808387" lon="13.76142798922956">
        <ele>202.00999999999999</ele>
        <time>2024-09-19T08:45:40Z</time>
      </trkpt>
      <trkpt lat="50.99458702839911" lon="13.764549996703863">
        <ele>204.90000000000001</ele>
        <time>2024-09-19T08:45:51Z</time>
      </trkpt>
      <trkpt lat="50.992717025801539" lon="13.767720032483339">
        <ele>208.25999999999999</ele>
        <time>2024-09-19T08:46:02Z</time>
      </trkpt>
      <trkpt lat="50.990620963275433" lon="13.770839022472501">
        <ele>211.63</ele>
        <time>2024-09-19T08:46:13Z</time>
      </trkpt>
      <trkpt lat="50.988856991752982" lon="13.773708986118436">
        <ele>213.06999999999999</ele>
        <time>2024-09-19T08:46:23Z</time>
      </trkpt>
      <trkpt lat="50.987211037427187" lon="13.7771110329777">
        <ele>212.59</ele>
        <time>2024-09-19T08:46:32Z</time>
      </trkpt>
      <trkpt lat="50.985684022307396" lon="13.780911974608898">
        <ele>211.15000000000001</ele>
        <time>2024-09-19T08:46:41Z</time>
      </trkpt>
      <trkpt lat="50.984240993857384" lon="13.784380992874503">
        <ele>207.30000000000001</ele>
        <time>2024-09-19T08:46:50Z</time>
      </trkpt>
      <trkpt lat="50.982139986008406" lon="13.788600023835897">
        <ele>206.81999999999999</ele>
        <time>2024-09-19T08:47:03Z</time>
      </trkpt>
      <trkpt lat="50.980226984247565" lon="13.792356038466096">
        <ele>210.19</ele>
        <time>2024-09-19T08:47:13Z</time>
      </trkpt>
      <trkpt lat="50.97858102992177" lon="13.79666400142014">
        <ele>213.06999999999999</ele>
        <time>2024-09-19T08:47:24Z</time>
      </trkpt>
      <trkpt lat="50.977299017831683" lon="13.801144966855645">
        <ele>212.59</ele>
        <time>2024-09-19T08:47:35Z</time>
      </trkpt>
      <trkpt lat="50.976431993767619" lon="13.805444967001677">
        <ele>208.25999999999999</ele>
        <time>2024-09-19T08:47:45Z</time>
      </trkpt>
      <trkpt lat="50.975371012464166" lon="13.810351984575391">
        <ele>203.46000000000001</ele>
        <time>2024-09-19T08:47:56Z</time>
      </trkpt>
      <trkpt lat="50.974062010645866" lon="13.81443103775382">
        <ele>202.97999999999999</ele>
        <time>2024-09-19T08:48:06Z</time>
      </trkpt>
      <trkpt lat="50.972323017194867" lon="13.818682003766298">
        <ele>205.86000000000001</ele>
        <time>2024-09-19T08:48:17Z</time>
      </trkpt>
      <trkpt lat="50.97091200761497" lon="13.822637004777789">
        <ele>204.90000000000001</ele>
        <time>2024-09-19T08:48:27Z</time>
      </trkpt>
      <trkpt lat="50.969890002161264" lon="13.826839020475745">
        <ele>198.65000000000001</ele>
        <time>2024-09-19T08:48:37Z</time>
      </trkpt>
      <trkpt lat="50.96944903023541" lon="13.829937977716327">
        <ele>190</ele>
        <time>2024-09-19T08:48:44Z</time>
      </trkpt>
      <trkpt lat="50.9690420050174" lon="13.834483986720443">
        <ele>174.62</ele>
        <time>2024-09-19T08:48:54Z</time>
      </trkpt>
      <trkpt lat="50.968670016154647" lon="13.83896897546947">
        <ele>157.31</ele>
        <time>2024-09-19T08:49:04Z</time>
      </trkpt>
      <trkpt lat="50.967958979308605" lon="13.843160010874271">
        <ele>146.74000000000001</ele>
        <time>2024-09-19T08:49:14Z</time>
      </trkpt>
      <trkpt lat="50.967061026021838" lon="13.846388971433043">
        <ele>142.88999999999999</ele>
        <time>2024-09-19T08:49:23Z</time>
      </trkpt>
      <trkpt lat="50.965531999245286" lon="13.850367022678256">
        <ele>141.93000000000001</ele>
        <time>2024-09-19T08:49:34Z</time>
      </trkpt>
      <trkpt lat="50.963532999157906" lon="13.854531990364194">
        <ele>144.34</ele>
        <time>2024-09-19T08:49:46Z</time>
      </trkpt>
      <trkpt lat="50.960962017998099" lon="13.859755005687475">
        <ele>154.91</ele>
        <time>2024-09-19T08:50:01Z</time>
      </trkpt>
      <trkpt lat="50.959608005359769" lon="13.86247300542891">
        <ele>162.12</ele>
        <time>2024-09-19T08:50:08Z</time>
      </trkpt>
      <trkpt lat="50.95802097581327" lon="13.865541033446789">
        <ele>172.21000000000001</ele>
        <time>2024-09-19T08:50:16Z</time>
      </trkpt>
      <trkpt lat="50.95608601346612" lon="13.868198012933135">
        <ele>181.83000000000001</ele>
        <time>2024-09-19T08:50:25Z</time>
      </trkpt>
      <trkpt lat="50.953632965683937" lon="13.870349982753396">
        <ele>191.44</ele>
        <time>2024-09-19T08:50:35Z</time>
      </trkpt>
      <trkpt lat="50.951158963143826" lon="13.871610034257174">
        <ele>197.21000000000001</ele>
        <time>2024-09-19T08:50:44Z</time>
      </trkpt>
      <trkpt lat="50.948301991447806" lon="13.872281005606055">
        <ele>202.97999999999999</ele>
        <time>2024-09-19T08:50:54Z</time>
      </trkpt>
      <trkpt lat="50.946660982444882" lon="13.872819961979985">
        <ele>205.38</ele>
        <time>2024-09-19T08:51:00Z</time>
      </trkpt>
      <trkpt lat="50.9444859623909" lon="13.874070961028337">
        <ele>206.81999999999999</ele>
        <time>2024-09-19T08:51:08Z</time>
      </trkpt>
      <trkpt lat="50.942701958119869" lon="13.875703001394868">
        <ele>205.86000000000001</ele>
        <time>2024-09-19T08:51:15Z</time>
      </trkpt>
      <trkpt lat="50.940696001052856" lon="13.878283035010099">
        <ele>201.05000000000001</ele>
        <time>2024-09-19T08:51:24Z</time>
      </trkpt>
      <trkpt lat="50.938003985211253" lon="13.882243987172842">
        <ele>194.31999999999999</ele>
        <time>2024-09-19T08:51:37Z</time>
      </trkpt>
      <trkpt lat="50.935767022892833" lon="13.884942959994078">
        <ele>193.36000000000001</ele>
        <time>2024-09-19T08:51:47Z</time>
      </trkpt>
      <trkpt lat="50.932940980419517" lon="13.887368012219667">
        <ele>199.13</ele>
        <time>2024-09-19T08:51:58Z</time>
      </trkpt>
      <trkpt lat="50.930375028401613" lon="13.888911036774516">
        <ele>204.90000000000001</ele>
        <time>2024-09-19T08:52:08Z</time>
      </trkpt>
      <trkpt lat="50.928119961172342" lon="13.88977998867631">
        <ele>211.63</ele>
        <time>2024-09-19T08:52:16Z</time>
      </trkpt>
      <trkpt lat="50.925543028861284" lon="13.890376025810838">
        <ele>223.16</ele>
        <time>2024-09-19T08:52:25Z</time>
      </trkpt>
      <trkpt lat="50.921662962064147" lon="13.891067029908299">
        <ele>241.91</ele>
        <time>2024-09-19T08:52:39Z</time>
      </trkpt>
      <trkpt lat="50.919183008372784" lon="13.891505990177393">
        <ele>252.96000000000001</ele>
        <time>2024-09-19T08:52:48Z</time>
      </trkpt>
      <trkpt lat="50.915987994521856" lon="13.892085012048483">
        <ele>266.42000000000002</ele>
        <time>2024-09-19T08:52:59Z</time>
      </trkpt>
      <trkpt lat="50.911583974957466" lon="13.892880035564303">
        <ele>278.92000000000002</ele>
        <time>2024-09-19T08:53:14Z</time>
      </trkpt>
      <trkpt lat="50.907606007531285" lon="13.893587971106172">
        <ele>285.64999999999998</ele>
        <time>2024-09-19T08:53:28Z</time>
      </trkpt>
      <trkpt lat="50.904720034450293" lon="13.89366801828146">
        <ele>288.52999999999997</ele>
        <time>2024-09-19T08:53:38Z</time>
      </trkpt>
      <trkpt lat="50.901893991976976" lon="13.893163008615375">
        <ele>293.81999999999999</ele>
        <time>2024-09-19T08:53:48Z</time>
      </trkpt>
      <trkpt lat="50.899864984676242" lon="13.892427999526262">
        <ele>298.63</ele>
        <time>2024-09-19T08:53:56Z</time>
      </trkpt>
      <trkpt lat="50.898483982309699" lon="13.891759961843491">
        <ele>303.43000000000001</ele>
        <time>2024-09-19T08:54:03Z</time>
      </trkpt>
      <trkpt lat="50.897654006257653" lon="13.891250006854534">
        <ele>307.75999999999999</ele>
        <time>2024-09-19T08:54:09Z</time>
      </trkpt>
      <trkpt lat="50.897573037073016" lon="13.891037022694945">
        <ele>309.19999999999999</ele>
        <time>2024-09-19T08:54:11Z</time>
      </trkpt>
      <trkpt lat="50.897444961592555" lon="13.890675008296967">
        <ele>310.16000000000003</ele>
        <time>2024-09-19T08:54:12Z</time>
      </trkpt>
      <trkpt lat="50.897427024319768" lon="13.890466969460249">
        <ele>311.12</ele>
        <time>2024-09-19T08:54:14Z</time>
      </trkpt>
      <trkpt lat="50.89749701321125" lon="13.89008198864758">
        <ele>311.60000000000002</ele>
        <time>2024-09-19T08:54:15Z</time>
      </trkpt>
      <trkpt lat="50.897578988224268" lon="13.889850983396173">
        <ele>311.60000000000002</ele>
        <time>2024-09-19T08:54:16Z</time>
      </trkpt>
      <trkpt lat="50.897695999592543" lon="13.889782000333071">
        <ele>312.08999999999997</ele>
        <time>2024-09-19T08:54:17Z</time>
      </trkpt>
      <trkpt lat="50.897814016789198" lon="13.889713017269969">
        <ele>311.60000000000002</ele>
        <time>2024-09-19T08:54:18Z</time>
      </trkpt>
      <trkpt lat="50.897950977087021" lon="13.889728020876646">
        <ele>310.63999999999999</ele>
        <time>2024-09-19T08:54:19Z</time>
      </trkpt>
      <trkpt lat="50.898070000112057" lon="13.889756016433239">
        <ele>310.16000000000003</ele>
        <time>2024-09-19T08:54:20Z</time>
      </trkpt>
      <trkpt lat="50.898187011480331" lon="13.889783006161451">
        <ele>309.19999999999999</ele>
        <time>2024-09-19T08:54:21Z</time>
      </trkpt>
      <trkpt lat="50.898296982049942" lon="13.889807984232903">
        <ele>308.24000000000001</ele>
        <time>2024-09-19T08:54:22Z</time>
      </trkpt>
      <trkpt lat="50.898575009778142" lon="13.889890965074301">
        <ele>303.43000000000001</ele>
        <time>2024-09-19T08:54:27Z</time>
      </trkpt>
      <trkpt lat="50.898615997284651" lon="13.890090035274625">
        <ele>302.94999999999999</ele>
        <time>2024-09-19T08:54:28Z</time>
      </trkpt>
      <trkpt lat="50.898585990071297" lon="13.890237975865602">
        <ele>301.99000000000001</ele>
        <time>2024-09-19T08:54:29Z</time>
      </trkpt>
      <trkpt lat="50.898567968979478" lon="13.890345012769103">
        <ele>301.50999999999999</ele>
        <time>2024-09-19T08:54:30Z</time>
      </trkpt>
      <trkpt lat="50.898538967594504" lon="13.890518015250564">
        <ele>301.02999999999997</ele>
        <time>2024-09-19T08:54:31Z</time>
      </trkpt>
      <trkpt lat="50.898337969556451" lon="13.891626019030809">
        <ele>299.11000000000001</ele>
        <time>2024-09-19T08:54:36Z</time>
      </trkpt>
      <trkpt lat="50.898307040333748" lon="13.891846965998411">
        <ele>298.63</ele>
        <time>2024-09-19T08:54:37Z</time>
      </trkpt>
      <trkpt lat="50.898289019241929" lon="13.892181990668178">
        <ele>298.14999999999998</ele>
        <time>2024-09-19T08:54:38Z</time>
      </trkpt>
      <trkpt lat="50.898340987041593" lon="13.894554991275072">
        <ele>294.77999999999997</ele>
        <time>2024-09-19T08:54:46Z</time>
      </trkpt>
      <trkpt lat="50.898779025301337" lon="13.896567989140749">
        <ele>291.42000000000002</ele>
        <time>2024-09-19T08:54:53Z</time>
      </trkpt>
      <trkpt lat="50.89985903352499" lon="13.899564016610384">
        <ele>285.17000000000002</ele>
        <time>2024-09-19T08:55:03Z</time>
      </trkpt>
      <trkpt lat="50.901217991486192" lon="13.903222968801856">
        <ele>277.48000000000002</ele>
        <time>2024-09-19T08:55:14Z</time>
      </trkpt>
      <trkpt lat="50.901720989495516" lon="13.905618013814092">
        <ele>271.70999999999998</ele>
        <time>2024-09-19T08:55:20Z</time>
      </trkpt>
      <trkpt lat="50.901761977002025" lon="13.907908033579588">
        <ele>268.35000000000002</ele>
        <time>2024-09-19T08:55:26Z</time>
      </trkpt>
      <trkpt lat="50.901288986206055" lon="13.910803981125355">
        <ele>265.94</ele>
        <time>2024-09-19T08:55:34Z</time>
      </trkpt>
      <trkpt lat="50.900546014308929" lon="13.91412103548646">
        <ele>264.5</ele>
        <time>2024-09-19T08:55:44Z</time>
      </trkpt>
      <trkpt lat="50.899737998843193" lon="13.917749980464578">
        <ele>262.57999999999998</ele>
        <time>2024-09-19T08:55:54Z</time>
      </trkpt>
      <trkpt lat="50.899553010240197" lon="13.919889964163303">
        <ele>263.54000000000002</ele>
        <time>2024-09-19T08:55:59Z</time>
      </trkpt>
      <trkpt lat="50.899586034938693" lon="13.920325990766287">
        <ele>263.54000000000002</ele>
        <time>2024-09-19T08:56:00Z</time>
      </trkpt>
      <trkpt lat="50.899627022445202" lon="13.92076101154089">
        <ele>264.01999999999998</ele>
        <time>2024-09-19T08:56:01Z</time>
      </trkpt>
      <trkpt lat="50.899770017713308" lon="13.923310032114387">
        <ele>265.45999999999998</ele>
        <time>2024-09-19T08:56:07Z</time>
      </trkpt>
      <trkpt lat="50.899484027177095" lon="13.927571978420019">
        <ele>269.79000000000002</ele>
        <time>2024-09-19T08:56:18Z</time>
      </trkpt>
      <trkpt lat="50.899124024435878" lon="13.932917034253478">
        <ele>280.36000000000001</ele>
        <time>2024-09-19T08:56:32Z</time>
      </trkpt>
      <trkpt lat="50.898884972557425" lon="13.936507003381848">
        <ele>289.49000000000001</ele>
        <time>2024-09-19T08:56:42Z</time>
      </trkpt>
      <trkpt lat="50.898983040824533" lon="13.938971031457186">
        <ele>290.45999999999998</ele>
        <time>2024-09-19T08:56:50Z</time>
      </trkpt>
      <trkpt lat="50.899400040507317" lon="13.941954988986254">
        <ele>286.13</ele>
        <time>2024-09-19T08:56:59Z</time>
      </trkpt>
      <trkpt lat="50.899374978616834" lon="13.943832032382488">
        <ele>282.27999999999997</ele>
        <time>2024-09-19T08:57:05Z</time>
      </trkpt>
      <trkpt lat="50.899370033293962" lon="13.945049000903964">
        <ele>279.88</ele>
        <time>2024-09-19T08:57:11Z</time>
      </trkpt>
      <trkpt lat="50.89938797056675" lon="13.945313030853868">
        <ele>278.44</ele>
        <time>2024-09-19T08:57:17Z</time>
      </trkpt>
      <trkpt lat="50.899399034678936" lon="13.945457031950355">
        <ele>277.95999999999998</ele>
        <time>2024-09-19T08:57:21Z</time>
      </trkpt>
      <trkpt lat="50.899314964190125" lon="13.94555602222681">
        <ele>277.95999999999998</ele>
        <time>2024-09-19T08:57:22Z</time>
      </trkpt>
      <trkpt lat="50.899304989725351" lon="13.945659035816789">
        <ele>277.95999999999998</ele>
        <time>2024-09-19T08:57:23Z</time>
      </trkpt>
      <trkpt lat="50.899262996390462" lon="13.945780992507935">
        <ele>277.48000000000002</ele>
        <time>2024-09-19T08:57:24Z</time>
      </trkpt>
      <trkpt lat="50.899190995842218" lon="13.945806976407766">
        <ele>277.48000000000002</ele>
        <time>2024-09-19T08:57:25Z</time>
      </trkpt>
      <trkpt lat="50.899112960323691" lon="13.945833966135979">
        <ele>277.48000000000002</ele>
        <time>2024-09-19T08:57:26Z</time>
      </trkpt>
      <trkpt lat="50.899026961997151" lon="13.945864979177713">
        <ele>277.48000000000002</ele>
        <time>2024-09-19T08:57:27Z</time>
      </trkpt>
      <trkpt lat="50.898933000862598" lon="13.945898003876209">
        <ele>277.48000000000002</ele>
        <time>2024-09-19T08:57:28Z</time>
      </trkpt>
      <trkpt lat="50.898834010586143" lon="13.945918036624789">
        <ele>277.95999999999998</ele>
        <time>2024-09-19T08:57:29Z</time>
      </trkpt>
      <trkpt lat="50.898736026138067" lon="13.945937985554338">
        <ele>277.95999999999998</ele>
        <time>2024-09-19T08:57:30Z</time>
      </trkpt>
      <trkpt lat="50.898638963699341" lon="13.945938991382718">
        <ele>278.44</ele>
        <time>2024-09-19T08:57:31Z</time>
      </trkpt>
      <trkpt lat="50.897579994052649" lon="13.945875959470868">
        <ele>282.27999999999997</ele>
        <time>2024-09-19T08:57:40Z</time>
      </trkpt>
      <trkpt lat="50.896426979452372" lon="13.945800019428134">
        <ele>288.05000000000001</ele>
        <time>2024-09-19T08:57:48Z</time>
      </trkpt>
      <trkpt lat="50.896288007497787" lon="13.945805970579386">
        <ele>289.00999999999999</ele>
        <time>2024-09-19T08:57:49Z</time>
      </trkpt>
      <trkpt lat="50.896118022501469" lon="13.94581301137805">
        <ele>289.00999999999999</ele>
        <time>2024-09-19T08:57:50Z</time>
      </trkpt>
      <trkpt lat="50.896010985597968" lon="13.945880988612771">
        <ele>289.49000000000001</ele>
        <time>2024-09-19T08:57:51Z</time>
      </trkpt>
      <trkpt lat="50.894395038485527" lon="13.946925960481167">
        <ele>298.63</ele>
        <time>2024-09-19T08:58:02Z</time>
      </trkpt>
      <trkpt lat="50.893526002764702" lon="13.947715032845736">
        <ele>305.36000000000001</ele>
        <time>2024-09-19T08:58:08Z</time>
      </trkpt>
      <trkpt lat="50.892348010092974" lon="13.94905898720026">
        <ele>314.49000000000001</ele>
        <time>2024-09-19T08:58:18Z</time>
      </trkpt>
      <trkpt lat="50.892270980402827" lon="13.949255039915442">
        <ele>314.97000000000003</ele>
        <time>2024-09-19T08:58:19Z</time>
      </trkpt>
      <trkpt lat="50.892191017046571" lon="13.949457965791225">
        <ele>315.44999999999999</ele>
        <time>2024-09-19T08:58:20Z</time>
      </trkpt>
      <trkpt lat="50.89139498770237" lon="13.951360993087292">
        <ele>319.30000000000001</ele>
        <time>2024-09-19T08:58:29Z</time>
      </trkpt>
      <trkpt lat="50.891213016584516" lon="13.951714038848877">
        <ele>320.25999999999999</ele>
        <time>2024-09-19T08:58:31Z</time>
      </trkpt>
      <trkpt lat="50.891102040186524" lon="13.95185200497508">
        <ele>321.22000000000003</ele>
        <time>2024-09-19T08:58:32Z</time>
      </trkpt>
      <trkpt lat="50.890977988019586" lon="13.951942026615143">
        <ele>321.69999999999999</ele>
        <time>2024-09-19T08:58:33Z</time>
      </trkpt>
      <trkpt lat="50.890840021893382" lon="13.952021989971399">
        <ele>322.66000000000003</ele>
        <time>2024-09-19T08:58:34Z</time>
      </trkpt>
      <trkpt lat="50.890700966119766" lon="13.952102959156036">
        <ele>323.13999999999999</ele>
        <time>2024-09-19T08:58:35Z</time>
      </trkpt>
      <trkpt lat="50.890551013872027" lon="13.952142018824816">
        <ele>323.62</ele>
        <time>2024-09-19T08:58:36Z</time>
      </trkpt>
      <trkpt lat="50.890400977805257" lon="13.952168002724648">
        <ele>324.10000000000002</ele>
        <time>2024-09-19T08:58:37Z</time>
      </trkpt>
      <trkpt lat="50.890248008072376" lon="13.952193986624479">
        <ele>324.10000000000002</ele>
        <time>2024-09-19T08:58:38Z</time>
      </trkpt>
      <trkpt lat="50.888896007090807" lon="13.952415017411113">
        <ele>326.5</ele>
        <time>2024-09-19T08:58:45Z</time>
      </trkpt>
      <trkpt lat="50.887360023334622" lon="13.952918015420437">
        <ele>329.87</ele>
        <time>2024-09-19T08:58:52Z</time>
      </trkpt>
      <trkpt lat="50.887179980054498" lon="13.953000996261835">
        <ele>329.87</ele>
        <time>2024-09-19T08:58:53Z</time>
      </trkpt>
      <trkpt lat="50.886772032827139" lon="13.953189002349973">
        <ele>330.82999999999998</ele>
        <time>2024-09-19T08:58:55Z</time>
      </trkpt>
      <trkpt lat="50.885480968281627" lon="13.953785039484501">
        <ele>334.19999999999999</ele>
        <time>2024-09-19T08:59:01Z</time>
      </trkpt>
      <trkpt lat="50.884674964472651" lon="13.954302035272121">
        <ele>339.48000000000002</ele>
        <time>2024-09-19T08:59:07Z</time>
      </trkpt>
      <trkpt lat="50.884038023650646" lon="13.954804027453065">
        <ele>341.88999999999999</ele>
        <time>2024-09-19T08:59:12Z</time>
      </trkpt>
      <trkpt lat="50.882974024862051" lon="13.955168975517154">
        <ele>343.81</ele>
        <time>2024-09-19T08:59:20Z</time>
      </trkpt>
      <trkpt lat="50.882044974714518" lon="13.955477010458708">
        <ele>344.29000000000002</ele>
        <time>2024-09-19T08:59:29Z</time>
      </trkpt>
      <trkpt lat="50.880907969549298" lon="13.955833995714784">
        <ele>343.81</ele>
        <time>2024-09-19T08:59:39Z</time>
      </trkpt>
      <trkpt lat="50.880449982360005" lon="13.955930974334478">
        <ele>343.32999999999998</ele>
        <time>2024-09-19T08:59:43Z</time>
      </trkpt>
      <trkpt lat="50.88033196516335" lon="13.955923011526465">
        <ele>343.32999999999998</ele>
        <time>2024-09-19T08:59:44Z</time>
      </trkpt>
      <trkpt lat="50.880226017907262" lon="13.955831984058022">
        <ele>343.32999999999998</ele>
        <time>2024-09-19T08:59:45Z</time>
      </trkpt>
      <trkpt lat="50.880140019580722" lon="13.955699969083071">
        <ele>343.32999999999998</ele>
        <time>2024-09-19T08:59:46Z</time>
      </trkpt>
      <trkpt lat="50.880054021254182" lon="13.95556703209877">
        <ele>342.85000000000002</ele>
        <time>2024-09-19T08:59:47Z</time>
      </trkpt>
      <trkpt lat="50.879938015714288" lon="13.955218009650707">
        <ele>342.37</ele>
        <time>2024-09-19T08:59:49Z</time>
      </trkpt>
      <trkpt lat="50.879883030429482" lon="13.955047018826008">
        <ele>342.37</ele>
        <time>2024-09-19T08:59:50Z</time>
      </trkpt>
      <trkpt lat="50.879736011847854" lon="13.954317038878798">
        <ele>341.41000000000003</ele>
        <time>2024-09-19T08:59:54Z</time>
      </trkpt>
      <trkpt lat="50.879708016291261" lon="13.954144958406687">
        <ele>340.92000000000002</ele>
        <time>2024-09-19T08:59:55Z</time>
      </trkpt>
      <trkpt lat="50.879680020734668" lon="13.953976985067129">
        <ele>340.44</ele>
        <time>2024-09-19T08:59:56Z</time>
      </trkpt>
      <trkpt lat="50.879591004922986" lon="13.953641960397363">
        <ele>339</ele>
        <time>2024-09-19T08:59:58Z</time>
      </trkpt>
      <trkpt lat="50.879539959132671" lon="13.953481027856469">
        <ele>338.04000000000002</ele>
        <time>2024-09-19T08:59:59Z</time>
      </trkpt>
      <trkpt lat="50.879478016868234" lon="13.953321017324924">
        <ele>337.07999999999998</ele>
        <time>2024-09-19T09:00:00Z</time>
      </trkpt>
      <trkpt lat="50.879266960546374" lon="13.952884990721941">
        <ele>334.19999999999999</ele>
        <time>2024-09-19T09:00:03Z</time>
      </trkpt>
      <trkpt lat="50.879183979704976" lon="13.952730009332299">
        <ele>333.23000000000002</ele>
        <time>2024-09-19T09:00:04Z</time>
      </trkpt>
      <trkpt lat="50.879089012742043" lon="13.952596988528967">
        <ele>332.26999999999998</ele>
        <time>2024-09-19T09:00:05Z</time>
      </trkpt>
      <trkpt lat="50.878994967788458" lon="13.952465979382396">
        <ele>331.31</ele>
        <time>2024-09-19T09:00:06Z</time>
      </trkpt>
      <trkpt lat="50.878905029967427" lon="13.952339999377728">
        <ele>329.87</ele>
        <time>2024-09-19T09:00:07Z</time>
      </trkpt>
      <trkpt lat="50.878812996670604" lon="13.952212007716298">
        <ele>328.91000000000003</ele>
        <time>2024-09-19T09:00:08Z</time>
      </trkpt>
      <trkpt lat="50.877943960949779" lon="13.951008031144738">
        <ele>315.44999999999999</ele>
        <time>2024-09-19T09:00:18Z</time>
      </trkpt>
      <trkpt lat="50.877210041508079" lon="13.950003040954471">
        <ele>303.91000000000003</ele>
        <time>2024-09-19T09:00:28Z</time>
      </trkpt>
      <trkpt lat="50.876472014933825" lon="13.948982963338494">
        <ele>300.55000000000001</ele>
        <time>2024-09-19T09:00:37Z</time>
      </trkpt>
      <trkpt lat="50.876391967758536" lon="13.948873998597264">
        <ele>300.06999999999999</ele>
        <time>2024-09-19T09:00:38Z</time>
      </trkpt>
      <trkpt lat="50.875927023589611" lon="13.948237979784608">
        <ele>297.67000000000002</ele>
        <time>2024-09-19T09:00:43Z</time>
      </trkpt>
      <trkpt lat="50.875500971451402" lon="13.947966992855072">
        <ele>294.77999999999997</ele>
        <time>2024-09-19T09:00:47Z</time>
      </trkpt>
      <trkpt lat="50.875396030023694" lon="13.947937991470098">
        <ele>294.30000000000001</ele>
        <time>2024-09-19T09:00:48Z</time>
      </trkpt>
      <trkpt lat="50.875303996726871" lon="13.947959030047059">
        <ele>293.33999999999997</ele>
        <time>2024-09-19T09:00:49Z</time>
      </trkpt>
      <trkpt lat="50.875196037814021" lon="13.948020972311497">
        <ele>292.86000000000001</ele>
        <time>2024-09-19T09:00:50Z</time>
      </trkpt>
      <trkpt lat="50.875097969546914" lon="13.948076963424683">
        <ele>292.38</ele>
        <time>2024-09-19T09:00:51Z</time>
      </trkpt>
      <trkpt lat="50.874875010922551" lon="13.948237979784608">
        <ele>290.94</ele>
        <time>2024-09-19T09:00:54Z</time>
      </trkpt>
      <trkpt lat="50.874847015365958" lon="13.948277039453387">
        <ele>290.45999999999998</ele>
        <time>2024-09-19T09:00:55Z</time>
      </trkpt>
      <trkpt lat="50.874827988445759" lon="13.9483040291816">
        <ele>289.97000000000003</ele>
        <time>2024-09-19T09:00:56Z</time>
      </trkpt>
      <trkpt lat="50.874827988445759" lon="13.9483040291816">
        <ele>289.00999999999999</ele>
        <time>2024-09-19T09:01:08Z</time>
      </trkpt>
      <trkpt lat="50.87461500428617" lon="13.948680041357875">
        <ele>287.08999999999997</ele>
        <time>2024-09-19T09:01:17Z</time>
      </trkpt>
      <trkpt lat="50.874565970152617" lon="13.948823036625981">
        <ele>286.61000000000001</ele>
        <time>2024-09-19T09:01:18Z</time>
      </trkpt>
      <trkpt lat="50.874538980424404" lon="13.948977012187243">
        <ele>287.08999999999997</ele>
        <time>2024-09-19T09:01:19Z</time>
      </trkpt>
      <trkpt lat="50.874510984867811" lon="13.949136016890407">
        <ele>287.56999999999999</ele>
        <time>2024-09-19T09:01:20Z</time>
      </trkpt>
      <trkpt lat="50.874334964901209" lon="13.950278973206878">
        <ele>291.42000000000002</ele>
        <time>2024-09-19T09:01:28Z</time>
      </trkpt>
      <trkpt lat="50.874173026531935" lon="13.951417990028858">
        <ele>295.74000000000001</ele>
        <time>2024-09-19T09:01:37Z</time>
      </trkpt>
      <trkpt lat="50.873933974653482" lon="13.953086994588375">
        <ele>301.99000000000001</ele>
        <time>2024-09-19T09:01:47Z</time>
      </trkpt>
      <trkpt lat="50.873844036832452" lon="13.953617988154292">
        <ele>303.91000000000003</ele>
        <time>2024-09-19T09:01:50Z</time>
      </trkpt>
      <trkpt lat="50.873810006305575" lon="13.953800965100527">
        <ele>304.38999999999999</ele>
        <time>2024-09-19T09:01:51Z</time>
      </trkpt>
      <trkpt lat="50.873772036284208" lon="13.953994000330567">
        <ele>304.88</ele>
        <time>2024-09-19T09:01:52Z</time>
      </trkpt>
      <trkpt lat="50.87332796305418" lon="13.955668034031987">
        <ele>310.16000000000003</ele>
        <time>2024-09-19T09:02:01Z</time>
      </trkpt>
      <trkpt lat="50.872986987233162" lon="13.956219982355833">
        <ele>314.00999999999999</ele>
        <time>2024-09-19T09:02:06Z</time>
      </trkpt>
      <trkpt lat="50.872895959764719" lon="13.956286031752825">
        <ele>314.97000000000003</ele>
        <time>2024-09-19T09:02:07Z</time>
      </trkpt>
      <trkpt lat="50.872801998630166" lon="13.956351997330785">
        <ele>315.44999999999999</ele>
        <time>2024-09-19T09:02:08Z</time>
      </trkpt>
      <trkpt lat="50.872417017817497" lon="13.956567998975515">
        <ele>318.81</ele>
        <time>2024-09-19T09:02:12Z</time>
      </trkpt>
      <trkpt lat="50.872311992570758" lon="13.956589959561825">
        <ele>320.74000000000001</ele>
        <time>2024-09-19T09:02:14Z</time>
      </trkpt>
      <trkpt lat="50.871984008699656" lon="13.956530028954148">
        <ele>322.66000000000003</ele>
        <time>2024-09-19T09:02:16Z</time>
      </trkpt>
      <trkpt lat="50.871866997331381" lon="13.956493986770511">
        <ele>323.62</ele>
        <time>2024-09-19T09:02:17Z</time>
      </trkpt>
      <trkpt lat="50.871641021221876" lon="13.956361971795559">
        <ele>325.54000000000002</ele>
        <time>2024-09-19T09:02:19Z</time>
      </trkpt>
      <trkpt lat="50.871530966833234" lon="13.956260969862342">
        <ele>326.5</ele>
        <time>2024-09-19T09:02:20Z</time>
      </trkpt>
      <trkpt lat="50.870422963052988" lon="13.955334015190601">
        <ele>338.04000000000002</ele>
        <time>2024-09-19T09:02:30Z</time>
      </trkpt>
      <trkpt lat="50.870294971391559" lon="13.955282969400287">
        <ele>339.48000000000002</ele>
        <time>2024-09-19T09:02:31Z</time>
      </trkpt>
      <trkpt lat="50.869917031377554" lon="13.955223960801959">
        <ele>343.81</ele>
        <time>2024-09-19T09:02:34Z</time>
      </trkpt>
      <trkpt lat="50.869789961725473" lon="13.955232007429004">
        <ele>344.76999999999998</ele>
        <time>2024-09-19T09:02:35Z</time>
      </trkpt>
      <trkpt lat="50.869655013084412" lon="13.955263020470738">
        <ele>346.20999999999998</ele>
        <time>2024-09-19T09:02:36Z</time>
      </trkpt>
      <trkpt lat="50.86840501986444" lon="13.955642972141504">
        <ele>357.26999999999998</ele>
        <time>2024-09-19T09:02:43Z</time>
      </trkpt>
      <trkpt lat="50.866689998656511" lon="13.956187041476369">
        <ele>371.20999999999998</ele>
        <time>2024-09-19T09:02:50Z</time>
      </trkpt>
      <trkpt lat="50.864550014957786" lon="13.956645028665662">
        <ele>384.18000000000001</ele>
        <time>2024-09-19T09:03:00Z</time>
      </trkpt>
      <trkpt lat="50.863039009273052" lon="13.956214031204581">
        <ele>390.91000000000003</ele>
        <time>2024-09-19T09:03:07Z</time>
      </trkpt>
      <trkpt lat="50.861802008002996" lon="13.955441974103451">
        <ele>397.63999999999999</ele>
        <time>2024-09-19T09:03:13Z</time>
      </trkpt>
      <trkpt lat="50.861620036885142" lon="13.955277018249035">
        <ele>399.07999999999998</ele>
        <time>2024-09-19T09:03:14Z</time>
      </trkpt>
      <trkpt lat="50.860135015100241" lon="13.953259997069836">
        <ele>406.29000000000002</ele>
        <time>2024-09-19T09:03:23Z</time>
      </trkpt>
      <trkpt lat="50.859990008175373" lon="13.953084982931614">
        <ele>407.25999999999999</ele>
        <time>2024-09-19T09:03:24Z</time>
      </trkpt>
      <trkpt lat="50.859851036220789" lon="13.952916003763676">
        <ele>407.74000000000001</ele>
        <time>2024-09-19T09:03:25Z</time>
      </trkpt>
      <trkpt lat="50.859712986275554" lon="13.952759010717273">
        <ele>408.69999999999999</ele>
        <time>2024-09-19T09:03:26Z</time>
      </trkpt>
      <trkpt lat="50.859544007107615" lon="13.952675024047494">
        <ele>409.18000000000001</ele>
        <time>2024-09-19T09:03:27Z</time>
      </trkpt>
      <trkpt lat="50.859372010454535" lon="13.952639987692237">
        <ele>410.13999999999999</ele>
        <time>2024-09-19T09:03:28Z</time>
      </trkpt>
      <trkpt lat="50.859190039336681" lon="13.952615009620786">
        <ele>411.10000000000002</ele>
        <time>2024-09-19T09:03:29Z</time>
      </trkpt>
      <trkpt lat="50.859014019370079" lon="13.952679969370365">
        <ele>411.57999999999998</ele>
        <time>2024-09-19T09:03:30Z</time>
      </trkpt>
      <trkpt lat="50.858825007453561" lon="13.952749958261847">
        <ele>412.54000000000002</ele>
        <time>2024-09-19T09:03:31Z</time>
      </trkpt>
      <trkpt lat="50.858635995537043" lon="13.952847020700574">
        <ele>413.5</ele>
        <time>2024-09-19T09:03:32Z</time>
      </trkpt>
      <trkpt lat="50.856774961575866" lon="13.953887969255447">
        <ele>420.70999999999998</ele>
        <time>2024-09-19T09:03:41Z</time>
      </trkpt>
      <trkpt lat="50.855050971731544" lon="13.954849960282445">
        <ele>429.37</ele>
        <time>2024-09-19T09:03:50Z</time>
      </trkpt>
      <trkpt lat="50.853511970490217" lon="13.955757971853018">
        <ele>439.45999999999998</ele>
        <time>2024-09-19T09:03:58Z</time>
      </trkpt>
      <trkpt lat="50.853340979665518" lon="13.955918988212943">
        <ele>440.89999999999998</ele>
        <time>2024-09-19T09:03:59Z</time>
      </trkpt>
      <trkpt lat="50.851884037256241" lon="13.957605008035898">
        <ele>449.55000000000001</ele>
        <time>2024-09-19T09:04:07Z</time>
      </trkpt>
      <trkpt lat="50.850270017981529" lon="13.959533013403416">
        <ele>460.61000000000001</ele>
        <time>2024-09-19T09:04:16Z</time>
      </trkpt>
      <trkpt lat="50.849226973950863" lon="13.96074797026813">
        <ele>468.30000000000001</ele>
        <time>2024-09-19T09:04:22Z</time>
      </trkpt>
      <trkpt lat="50.849033016711473" lon="13.96089599467814">
        <ele>469.74000000000001</ele>
        <time>2024-09-19T09:04:23Z</time>
      </trkpt>
      <trkpt lat="50.848835958167911" lon="13.961027003824711">
        <ele>471.18000000000001</ele>
        <time>2024-09-19T09:04:24Z</time>
      </trkpt>
      <trkpt lat="50.848630014806986" lon="13.961121970787644">
        <ele>472.63</ele>
        <time>2024-09-19T09:04:25Z</time>
      </trkpt>
      <trkpt lat="50.848420970141888" lon="13.961179973557591">
        <ele>474.06999999999999</ele>
        <time>2024-09-19T09:04:26Z</time>
      </trkpt>
      <trkpt lat="50.848208991810679" lon="13.961208974942565">
        <ele>475.50999999999999</ele>
        <time>2024-09-19T09:04:27Z</time>
      </trkpt>
      <trkpt lat="50.846138997003436" lon="13.961356999352574">
        <ele>488.00999999999999</ele>
        <time>2024-09-19T09:04:36Z</time>
      </trkpt>
      <trkpt lat="50.843674968928099" lon="13.961765030398965">
        <ele>498.57999999999998</ele>
        <time>2024-09-19T09:04:46Z</time>
      </trkpt>
      <trkpt lat="50.842345012351871" lon="13.96233600564301">
        <ele>500.01999999999998</ele>
        <time>2024-09-19T09:04:52Z</time>
      </trkpt>
      <trkpt lat="50.842189025133848" lon="13.962505990639329">
        <ele>499.54000000000002</ele>
        <time>2024-09-19T09:04:53Z</time>
      </trkpt>
      <trkpt lat="50.840541981160641" lon="13.964421004056931">
        <ele>495.22000000000003</ele>
        <time>2024-09-19T09:05:03Z</time>
      </trkpt>
      <trkpt lat="50.840097991749644" lon="13.964883014559746">
        <ele>493.76999999999998</ele>
        <time>2024-09-19T09:05:06Z</time>
      </trkpt>
      <trkpt lat="50.839947033673525" lon="13.964953003451228">
        <ele>493.29000000000002</ele>
        <time>2024-09-19T09:05:07Z</time>
      </trkpt>
      <trkpt lat="50.839782999828458" lon="13.96500002592802">
        <ele>493.29000000000002</ele>
        <time>2024-09-19T09:05:08Z</time>
      </trkpt>
      <trkpt lat="50.838526971638203" lon="13.965270007029176">
        <ele>488.49000000000001</ele>
        <time>2024-09-19T09:05:14Z</time>
      </trkpt>
      <trkpt lat="50.837492980062962" lon="13.965393975377083">
        <ele>481.27999999999997</ele>
        <time>2024-09-19T09:05:19Z</time>
      </trkpt>
      <trkpt lat="50.835767984390259" lon="13.965310994535685">
        <ele>466.86000000000001</ele>
        <time>2024-09-19T09:05:27Z</time>
      </trkpt>
      <trkpt lat="50.834415983408689" lon="13.96536597982049">
        <ele>452.44</ele>
        <time>2024-09-19T09:05:35Z</time>
      </trkpt>
      <trkpt lat="50.834271982312202" lon="13.965461030602455">
        <ele>450.02999999999997</ele>
        <time>2024-09-19T09:05:36Z</time>
      </trkpt>
      <trkpt lat="50.83413502201438" lon="13.965577958151698">
        <ele>448.11000000000001</ele>
        <time>2024-09-19T09:05:37Z</time>
      </trkpt>
      <trkpt lat="50.832987958565354" lon="13.966871034353971">
        <ele>430.32999999999998</ele>
        <time>2024-09-19T09:05:46Z</time>
      </trkpt>
      <trkpt lat="50.83216099999845" lon="13.96841699257493">
        <ele>418.79000000000002</ele>
        <time>2024-09-19T09:05:53Z</time>
      </trkpt>
      <trkpt lat="50.832086987793446" lon="13.968669036403298">
        <ele>417.35000000000002</ele>
        <time>2024-09-19T09:05:54Z</time>
      </trkpt>
      <trkpt lat="50.83200803026557" lon="13.96893197670579">
        <ele>415.91000000000003</ele>
        <time>2024-09-19T09:05:55Z</time>
      </trkpt>
      <trkpt lat="50.831620031967759" lon="13.970535015687346">
        <ele>406.76999999999998</ele>
        <time>2024-09-19T09:06:02Z</time>
      </trkpt>
      <trkpt lat="50.831442000344396" lon="13.971405979245901">
        <ele>402.93000000000001</ele>
        <time>2024-09-19T09:06:10Z</time>
      </trkpt>
      <trkpt lat="50.831540990620852" lon="13.971515027806163">
        <ele>401.49000000000001</ele>
        <time>2024-09-19T09:06:13Z</time>
      </trkpt>
      <trkpt lat="50.831547025591135" lon="13.971539000049233">
        <ele>401.00999999999999</ele>
        <time>2024-09-19T09:06:14Z</time>
      </trkpt>
      <trkpt lat="50.831551970914006" lon="13.971562972292304">
        <ele>400.52999999999997</ele>
        <time>2024-09-19T09:06:15Z</time>
      </trkpt>
      <trkpt lat="50.831551970914006" lon="13.971562972292304">
        <ele>400.05000000000001</ele>
        <time>2024-09-19T09:06:16Z</time>
      </trkpt>
      <trkpt lat="50.831527998670936" lon="13.971458030864596">
        <ele>399.56999999999999</ele>
        <time>2024-09-19T09:06:17Z</time>
      </trkpt>
      <trkpt lat="50.831517018377781" lon="13.971415031701326">
        <ele>399.56999999999999</ele>
        <time>2024-09-19T09:06:18Z</time>
      </trkpt>
      <trkpt lat="50.831510983407497" lon="13.971386030316353">
        <ele>399.07999999999998</ele>
        <time>2024-09-19T09:06:19Z</time>
      </trkpt>
      <trkpt lat="50.831510983407497" lon="13.971386030316353">
        <ele>398.60000000000002</ele>
        <time>2024-09-19T09:06:35Z</time>
      </trkpt>
      <trkpt lat="50.831510983407497" lon="13.971386030316353">
        <ele>398.60000000000002</ele>
        <time>2024-09-19T09:07:30Z</time>
      </trkpt>
      <trkpt lat="50.831510983407497" lon="13.971386030316353">
        <ele>398.60000000000002</ele>
        <time>2024-09-19T09:08:15Z</time>
      </trkpt>
      <trkpt lat="50.831510983407497" lon="13.971386030316353">
        <ele>398.60000000000002</ele>
        <time>2024-09-19T09:09:02Z</time>
      </trkpt>
      <trkpt lat="50.83147301338613" lon="13.971167011186481">
        <ele>399.07999999999998</ele>
        <time>2024-09-19T09:09:13Z</time>
      </trkpt>
      <trkpt lat="50.831498997285962" lon="13.971053017303348">
        <ele>399.56999999999999</ele>
        <time>2024-09-19T09:09:14Z</time>
      </trkpt>
      <trkpt lat="50.831530010327697" lon="13.970916979014874">
        <ele>399.56999999999999</ele>
        <time>2024-09-19T09:09:15Z</time>
      </trkpt>
      <trkpt lat="50.831567980349064" lon="13.970755962654948">
        <ele>400.05000000000001</ele>
        <time>2024-09-19T09:09:16Z</time>
      </trkpt>
      <trkpt lat="50.831610979512334" lon="13.970574997365475">
        <ele>400.05000000000001</ele>
        <time>2024-09-19T09:09:17Z</time>
      </trkpt>
      <trkpt lat="50.832178015261889" lon="13.968361001461744">
        <ele>404.85000000000002</ele>
        <time>2024-09-19T09:09:28Z</time>
      </trkpt>
      <trkpt lat="50.832265019416809" lon="13.968170983716846">
        <ele>405.32999999999998</ele>
        <time>2024-09-19T09:09:29Z</time>
      </trkpt>
      <trkpt lat="50.832364009693265" lon="13.96798599511385">
        <ele>406.29000000000002</ele>
        <time>2024-09-19T09:09:30Z</time>
      </trkpt>
      <trkpt lat="50.833165990188718" lon="13.966628964990377">
        <ele>413.5</ele>
        <time>2024-09-19T09:09:39Z</time>
      </trkpt>
      <trkpt lat="50.833972999826074" lon="13.965380983427167">
        <ele>420.23000000000002</ele>
        <time>2024-09-19T09:09:47Z</time>
      </trkpt>
      <trkpt lat="50.834887968376279" lon="13.964223023504019">
        <ele>425.04000000000002</ele>
        <time>2024-09-19T09:09:54Z</time>
      </trkpt>
      <trkpt lat="50.835262974724174" lon="13.963677026331425">
        <ele>426.48000000000002</ele>
        <time>2024-09-19T09:09:57Z</time>
      </trkpt>
      <trkpt lat="50.835360959172249" lon="13.963468987494707">
        <ele>426.95999999999998</ele>
        <time>2024-09-19T09:09:58Z</time>
      </trkpt>
      <trkpt lat="50.835462966933846" lon="13.963249968364835">
        <ele>427.44</ele>
        <time>2024-09-19T09:09:59Z</time>
      </trkpt>
      <trkpt lat="50.835508983582258" lon="13.963004965335131">
        <ele>427.44</ele>
        <time>2024-09-19T09:10:00Z</time>
      </trkpt>
      <trkpt lat="50.835543014109135" lon="13.96276499144733">
        <ele>427.92000000000002</ele>
        <time>2024-09-19T09:10:01Z</time>
      </trkpt>
      <trkpt lat="50.835543014109135" lon="13.962467014789581">
        <ele>428.39999999999998</ele>
        <time>2024-09-19T09:10:02Z</time>
      </trkpt>
      <trkpt lat="50.835543014109135" lon="13.962173983454704">
        <ele>428.88999999999999</ele>
        <time>2024-09-19T09:10:03Z</time>
      </trkpt>
      <trkpt lat="50.83553496748209" lon="13.961895033717155">
        <ele>428.88999999999999</ele>
        <time>2024-09-19T09:10:04Z</time>
      </trkpt>
      <trkpt lat="50.835505966097116" lon="13.961613988503814">
        <ele>429.37</ele>
        <time>2024-09-19T09:10:05Z</time>
      </trkpt>
      <trkpt lat="50.835443018004298" lon="13.961363034322858">
        <ele>430.32999999999998</ele>
        <time>2024-09-19T09:10:06Z</time>
      </trkpt>
      <trkpt lat="50.835346039384604" lon="13.961148960515857">
        <ele>430.81</ele>
        <time>2024-09-19T09:10:07Z</time>
      </trkpt>
      <trkpt lat="50.835217041894794" lon="13.960932958871126">
        <ele>431.76999999999998</ele>
        <time>2024-09-19T09:10:08Z</time>
      </trkpt>
      <trkpt lat="50.835077986121178" lon="13.96070103161037">
        <ele>432.25</ele>
        <time>2024-09-19T09:10:09Z</time>
      </trkpt>
      <trkpt lat="50.833819024264812" lon="13.95859700627625">
        <ele>437.06</ele>
        <time>2024-09-19T09:10:17Z</time>
      </trkpt>
      <trkpt lat="50.832421006634831" lon="13.956162985414267">
        <ele>444.26999999999998</ele>
        <time>2024-09-19T09:10:26Z</time>
      </trkpt>
      <trkpt lat="50.831650961190462" lon="13.954705037176609">
        <ele>452.44</ele>
        <time>2024-09-19T09:10:33Z</time>
      </trkpt>
      <trkpt lat="50.831038998439908" lon="13.953354964032769">
        <ele>460.13</ele>
        <time>2024-09-19T09:10:39Z</time>
      </trkpt>
      <trkpt lat="50.830950988456607" lon="13.953109038993716">
        <ele>462.05000000000001</ele>
        <time>2024-09-19T09:10:40Z</time>
      </trkpt>
      <trkpt lat="50.830912012606859" lon="13.952856995165348">
        <ele>463.49000000000001</ele>
        <time>2024-09-19T09:10:41Z</time>
      </trkpt>
      <trkpt lat="50.830887034535408" lon="13.952585002407432">
        <ele>464.44999999999999</ele>
        <time>2024-09-19T09:10:42Z</time>
      </trkpt>
      <trkpt lat="50.830887034535408" lon="13.952308986335993">
        <ele>465.89999999999998</ele>
        <time>2024-09-19T09:10:43Z</time>
      </trkpt>
      <trkpt lat="50.830905977636576" lon="13.952025007456541">
        <ele>467.33999999999997</ele>
        <time>2024-09-19T09:10:44Z</time>
      </trkpt>
      <trkpt lat="50.831037992611527" lon="13.951198970898986">
        <ele>470.69999999999999</ele>
        <time>2024-09-19T09:10:47Z</time>
      </trkpt>
      <trkpt lat="50.831636963412166" lon="13.948753969743848">
        <ele>476.94999999999999</ele>
        <time>2024-09-19T09:10:56Z</time>
      </trkpt>
      <trkpt lat="50.832302989438176" lon="13.94673896022141">
        <ele>478.87</ele>
        <time>2024-09-19T09:11:05Z</time>
      </trkpt>
      <trkpt lat="50.832668021321297" lon="13.945834971964359">
        <ele>478.38999999999999</ele>
        <time>2024-09-19T09:11:12Z</time>
      </trkpt>
      <trkpt lat="50.832630973309278" lon="13.945756014436483">
        <ele>478.38999999999999</ele>
        <time>2024-09-19T09:11:13Z</time>
      </trkpt>
      <trkpt lat="50.832599960267544" lon="13.945688959211111">
        <ele>477.91000000000003</ele>
        <time>2024-09-19T09:11:14Z</time>
      </trkpt>
      <trkpt lat="50.832562996074557" lon="13.945608995854855">
        <ele>477.43000000000001</ele>
        <time>2024-09-19T09:11:15Z</time>
      </trkpt>
      <trkpt lat="50.832522008568048" lon="13.945520985871553">
        <ele>477.43000000000001</ele>
        <time>2024-09-19T09:11:16Z</time>
      </trkpt>
      <trkpt lat="50.832489989697933" lon="13.945515034720302">
        <ele>477.43000000000001</ele>
        <time>2024-09-19T09:11:17Z</time>
      </trkpt>
      <trkpt lat="50.832387981936336" lon="13.945520985871553">
        <ele>477.43000000000001</ele>
        <time>2024-09-19T09:11:18Z</time>
      </trkpt>
      <trkpt lat="50.832262001931667" lon="13.945529032498598">
        <ele>477.43000000000001</ele>
        <time>2024-09-19T09:11:19Z</time>
      </trkpt>
      <trkpt lat="50.832122024148703" lon="13.945539006963372">
        <ele>477.91000000000003</ele>
        <time>2024-09-19T09:11:21Z</time>
      </trkpt>
      <trkpt lat="50.830716965720057" lon="13.945520985871553">
        <ele>482.24000000000001</ele>
        <time>2024-09-19T09:11:28Z</time>
      </trkpt>
      <trkpt lat="50.829278966411948" lon="13.944926960393786">
        <ele>490.88999999999999</ele>
        <time>2024-09-19T09:11:35Z</time>
      </trkpt>
      <trkpt lat="50.827962001785636" lon="13.943731030449271">
        <ele>502.43000000000001</ele>
        <time>2024-09-19T09:11:42Z</time>
      </trkpt>
      <trkpt lat="50.826827008277178" lon="13.942089015617967">
        <ele>514.44000000000005</ele>
        <time>2024-09-19T09:11:50Z</time>
      </trkpt>
      <trkpt lat="50.82573601976037" lon="13.941089976578951">
        <ele>521.64999999999998</ele>
        <time>2024-09-19T09:11:57Z</time>
      </trkpt>
      <trkpt lat="50.82474997267127" lon="13.940770961344242">
        <ele>525.98000000000002</ele>
        <time>2024-09-19T09:12:02Z</time>
      </trkpt>
      <trkpt lat="50.823731990531087" lon="13.940725028514862">
        <ele>527.89999999999998</ele>
        <time>2024-09-19T09:12:07Z</time>
      </trkpt>
      <trkpt lat="50.822319975122809" lon="13.940623020753264">
        <ele>529.34000000000003</ele>
        <time>2024-09-19T09:12:16Z</time>
      </trkpt>
      <trkpt lat="50.822187960147858" lon="13.940532999113202">
        <ele>529.34000000000003</ele>
        <time>2024-09-19T09:12:17Z</time>
      </trkpt>
      <trkpt lat="50.822057034820318" lon="13.940436020493507">
        <ele>529.34000000000003</ele>
        <time>2024-09-19T09:12:18Z</time>
      </trkpt>
      <trkpt lat="50.821937005966902" lon="13.940326971933246">
        <ele>529.34000000000003</ele>
        <time>2024-09-19T09:12:19Z</time>
      </trkpt>
      <trkpt lat="50.821838015690446" lon="13.940179031342268">
        <ele>529.82000000000005</ele>
        <time>2024-09-19T09:12:20Z</time>
      </trkpt>
      <trkpt lat="50.821745982393622" lon="13.940040981397033">
        <ele>530.29999999999995</ele>
        <time>2024-09-19T09:12:21Z</time>
      </trkpt>
      <trkpt lat="50.82165302708745" lon="13.939831014722586">
        <ele>530.29999999999995</ele>
        <time>2024-09-19T09:12:22Z</time>
      </trkpt>
      <trkpt lat="50.821570968255401" lon="13.939634039998055">
        <ele>530.78999999999996</ele>
        <time>2024-09-19T09:12:23Z</time>
      </trkpt>
      <trkpt lat="50.821529980748892" lon="13.939402028918266">
        <ele>530.78999999999996</ele>
        <time>2024-09-19T09:12:24Z</time>
      </trkpt>
      <trkpt lat="50.82150399684906" lon="13.939160965383053">
        <ele>530.78999999999996</ele>
        <time>2024-09-19T09:12:25Z</time>
      </trkpt>
      <trkpt lat="50.821492010727525" lon="13.938884027302265">
        <ele>531.26999999999998</ele>
        <time>2024-09-19T09:12:26Z</time>
      </trkpt>
      <trkpt lat="50.821479018777609" lon="13.938578004017472">
        <ele>531.26999999999998</ele>
        <time>2024-09-19T09:12:27Z</time>
      </trkpt>
      <trkpt lat="50.821469966322184" lon="13.938248008489609">
        <ele>531.75</ele>
        <time>2024-09-19T09:12:28Z</time>
      </trkpt>
      <trkpt lat="50.821486981585622" lon="13.937879959121346">
        <ele>531.75</ele>
        <time>2024-09-19T09:12:29Z</time>
      </trkpt>
      <trkpt lat="50.821511959657073" lon="13.936377000063658">
        <ele>533.19000000000005</ele>
        <time>2024-09-19T09:12:33Z</time>
      </trkpt>
      <trkpt lat="50.821445994079113" lon="13.936028983443975">
        <ele>533.66999999999996</ele>
        <time>2024-09-19T09:12:34Z</time>
      </trkpt>
      <trkpt lat="50.821376005187631" lon="13.935696976259351">
        <ele>534.63</ele>
        <time>2024-09-19T09:12:35Z</time>
      </trkpt>
      <trkpt lat="50.821307022124529" lon="13.935374021530151">
        <ele>535.11000000000001</ele>
        <time>2024-09-19T09:12:36Z</time>
      </trkpt>
      <trkpt lat="50.821196967735887" lon="13.935094987973571">
        <ele>536.07000000000005</ele>
        <time>2024-09-19T09:12:37Z</time>
      </trkpt>
      <trkpt lat="50.821078028529882" lon="13.934820983558893">
        <ele>537.02999999999997</ele>
        <time>2024-09-19T09:12:38Z</time>
      </trkpt>
      <trkpt lat="50.820957999676466" lon="13.934543961659074">
        <ele>537.50999999999999</ele>
        <time>2024-09-19T09:12:39Z</time>
      </trkpt>
      <trkpt lat="50.819982010871172" lon="13.932743025943637">
        <ele>542.32000000000005</ele>
        <time>2024-09-19T09:12:46Z</time>
      </trkpt>
      <trkpt lat="50.819854019209743" lon="13.932563988491893">
        <ele>542.79999999999995</ele>
        <time>2024-09-19T09:12:47Z</time>
      </trkpt>
      <trkpt lat="50.819723010063171" lon="13.932438008487225">
        <ele>543.27999999999997</ele>
        <time>2024-09-19T09:12:48Z</time>
      </trkpt>
      <trkpt lat="50.819594012573361" lon="13.932355027645826">
        <ele>543.27999999999997</ele>
        <time>2024-09-19T09:12:49Z</time>
      </trkpt>
      <trkpt lat="50.819447999820113" lon="13.932328959926963">
        <ele>543.75999999999999</ele>
        <time>2024-09-19T09:12:50Z</time>
      </trkpt>
      <trkpt lat="50.819297963753343" lon="13.93230197019875">
        <ele>543.75999999999999</ele>
        <time>2024-09-19T09:12:51Z</time>
      </trkpt>
      <trkpt lat="50.819156980141997" lon="13.932362990453839">
        <ele>543.75999999999999</ele>
        <time>2024-09-19T09:12:52Z</time>
      </trkpt>
      <trkpt lat="50.819019014015794" lon="13.932458041235805">
        <ele>543.75999999999999</ele>
        <time>2024-09-19T09:12:53Z</time>
      </trkpt>
      <trkpt lat="50.818897979333997" lon="13.932558037340641">
        <ele>544.24000000000001</ele>
        <time>2024-09-19T09:12:54Z</time>
      </trkpt>
      <trkpt lat="50.818792032077909" lon="13.932744031772017">
        <ele>544.24000000000001</ele>
        <time>2024-09-19T09:12:55Z</time>
      </trkpt>
      <trkpt lat="50.818679966032505" lon="13.932940000668168">
        <ele>544.24000000000001</ele>
        <time>2024-09-19T09:12:56Z</time>
      </trkpt>
      <trkpt lat="50.818564966320992" lon="13.933140998706222">
        <ele>544.24000000000001</ele>
        <time>2024-09-19T09:12:57Z</time>
      </trkpt>
      <trkpt lat="50.818436974659562" lon="13.933347025886178">
        <ele>544.72000000000003</ele>
        <time>2024-09-19T09:12:58Z</time>
      </trkpt>
      <trkpt lat="50.81802299246192" lon="13.93391196615994">
        <ele>543.27999999999997</ele>
        <time>2024-09-19T09:13:01Z</time>
      </trkpt>
      <trkpt lat="50.817862981930375" lon="13.934014979749918">
        <ele>542.79999999999995</ele>
        <time>2024-09-19T09:13:02Z</time>
      </trkpt>
      <trkpt lat="50.81770196557045" lon="13.934111958369613">
        <ele>542.32000000000005</ele>
        <time>2024-09-19T09:13:03Z</time>
      </trkpt>
      <trkpt lat="50.817531980574131" lon="13.934197034686804">
        <ele>542.32000000000005</ele>
        <time>2024-09-19T09:13:04Z</time>
      </trkpt>
      <trkpt lat="50.817353026941419" lon="13.934245985001326">
        <ele>541.84000000000003</ele>
        <time>2024-09-19T09:13:05Z</time>
      </trkpt>
      <trkpt lat="50.817177006974816" lon="13.934225030243397">
        <ele>541.36000000000001</ele>
        <time>2024-09-19T09:13:06Z</time>
      </trkpt>
      <trkpt lat="50.817004004493356" lon="13.934200974181294">
        <ele>540.88</ele>
        <time>2024-09-19T09:13:07Z</time>
      </trkpt>
      <trkpt lat="50.816833013668656" lon="13.934164009988308">
        <ele>540.39999999999998</ele>
        <time>2024-09-19T09:13:08Z</time>
      </trkpt>
      <trkpt lat="50.816663028672338" lon="13.9340849686414">
        <ele>539.91999999999996</ele>
        <time>2024-09-19T09:13:09Z</time>
      </trkpt>
      <trkpt lat="50.816176040098071" lon="13.933813981711864">
        <ele>538.48000000000002</ele>
        <time>2024-09-19T09:13:12Z</time>
      </trkpt>
      <trkpt lat="50.816031033173203" lon="13.933680960908532">
        <ele>537.99000000000001</ele>
        <time>2024-09-19T09:13:13Z</time>
      </trkpt>
      <trkpt lat="50.815890971571207" lon="13.933551963418722">
        <ele>536.54999999999995</ele>
        <time>2024-09-19T09:13:15Z</time>
      </trkpt>
      <trkpt lat="50.815738001838326" lon="13.933410979807377">
        <ele>535.59000000000003</ele>
        <time>2024-09-19T09:13:16Z</time>
      </trkpt>
      <trkpt lat="50.815225029364228" lon="13.932636994868517">
        <ele>532.23000000000002</ele>
        <time>2024-09-19T09:13:20Z</time>
      </trkpt>
      <trkpt lat="50.815157974138856" lon="13.932457035407424">
        <ele>531.26999999999998</ele>
        <time>2024-09-19T09:13:21Z</time>
      </trkpt>
      <trkpt lat="50.815102988854051" lon="13.932276992127299">
        <ele>530.29999999999995</ele>
        <time>2024-09-19T09:13:22Z</time>
      </trkpt>
      <trkpt lat="50.815050015226007" lon="13.93210700713098">
        <ele>529.34000000000003</ele>
        <time>2024-09-19T09:13:23Z</time>
      </trkpt>
      <trkpt lat="50.815020008012652" lon="13.931906009092927">
        <ele>528.38</ele>
        <time>2024-09-19T09:13:24Z</time>
      </trkpt>
      <trkpt lat="50.815046997740865" lon="13.931752033531666">
        <ele>527.41999999999996</ele>
        <time>2024-09-19T09:13:25Z</time>
      </trkpt>
      <trkpt lat="50.815069964155555" lon="13.931621024385095">
        <ele>526.46000000000004</ele>
        <time>2024-09-19T09:13:26Z</time>
      </trkpt>
      <trkpt lat="50.815129978582263" lon="13.931522034108639">
        <ele>525.5</ele>
        <time>2024-09-19T09:13:27Z</time>
      </trkpt>
      <trkpt lat="50.815190998837352" lon="13.931431006640196">
        <ele>525.01999999999998</ele>
        <time>2024-09-19T09:13:28Z</time>
      </trkpt>
      <trkpt lat="50.815256964415312" lon="13.931331010535359">
        <ele>524.05999999999995</ele>
        <time>2024-09-19T09:13:29Z</time>
      </trkpt>
      <trkpt lat="50.815343968570232" lon="13.931256998330355">
        <ele>523.58000000000004</ele>
        <time>2024-09-19T09:13:30Z</time>
      </trkpt>
      <trkpt lat="50.815429966896772" lon="13.931211987510324">
        <ele>523.09000000000003</ele>
        <time>2024-09-19T09:13:31Z</time>
      </trkpt>
      <trkpt lat="50.815516971051693" lon="13.931166976690292">
        <ele>522.13</ele>
        <time>2024-09-19T09:13:32Z</time>
      </trkpt>
      <trkpt lat="50.815603975206614" lon="13.931121965870261">
        <ele>521.64999999999998</ele>
        <time>2024-09-19T09:13:33Z</time>
      </trkpt>
      <trkpt lat="50.815688967704773" lon="13.931077960878611">
        <ele>521.64999999999998</ele>
        <time>2024-09-19T09:13:34Z</time>
      </trkpt>
      <trkpt lat="50.816382989287376" lon="13.930700020864606">
        <ele>519.25</ele>
        <time>2024-09-19T09:13:41Z</time>
      </trkpt>
      <trkpt lat="50.816479967907071" lon="13.930578986182809">
        <ele>519.73000000000002</ele>
        <time>2024-09-19T09:13:42Z</time>
      </trkpt>
      <trkpt lat="50.816675014793873" lon="13.930335994809866">
        <ele>519.73000000000002</ele>
        <time>2024-09-19T09:13:44Z</time>
      </trkpt>
      <trkpt lat="50.816741986200213" lon="13.930192999541759">
        <ele>519.73000000000002</ele>
        <time>2024-09-19T09:13:45Z</time>
      </trkpt>
      <trkpt lat="50.816805018112063" lon="13.93002100288868">
        <ele>519.73000000000002</ele>
        <time>2024-09-19T09:13:46Z</time>
      </trkpt>
      <trkpt lat="50.816869977861643" lon="13.929841965436935">
        <ele>519.73000000000002</ele>
        <time>2024-09-19T09:13:47Z</time>
      </trkpt>
      <trkpt lat="50.816937033087015" lon="13.92965798266232">
        <ele>519.73000000000002</ele>
        <time>2024-09-19T09:13:48Z</time>
      </trkpt>
      <trkpt lat="50.816979026421905" lon="13.929460002109408">
        <ele>519.73000000000002</ele>
        <time>2024-09-19T09:13:49Z</time>
      </trkpt>
      <trkpt lat="50.817011967301369" lon="13.929230002686381">
        <ele>519.73000000000002</ele>
        <time>2024-09-19T09:13:50Z</time>
      </trkpt>
      <trkpt lat="50.817045997828245" lon="13.92899002879858">
        <ele>519.25</ele>
        <time>2024-09-19T09:13:51Z</time>
      </trkpt>
      <trkpt lat="50.817284965887666" lon="13.92690796405077">
        <ele>517.80999999999995</ele>
        <time>2024-09-19T09:13:58Z</time>
      </trkpt>
      <trkpt lat="50.817342968657613" lon="13.9262830093503">
        <ele>517.80999999999995</ele>
        <time>2024-09-19T09:14:00Z</time>
      </trkpt>
      <trkpt lat="50.81733601167798" lon="13.926001964136958">
        <ele>518.28999999999996</ele>
        <time>2024-09-19T09:14:01Z</time>
      </trkpt>
      <trkpt lat="50.817321008071303" lon="13.925753021612763">
        <ele>518.28999999999996</ele>
        <time>2024-09-19T09:14:02Z</time>
      </trkpt>
      <trkpt lat="50.817259987816215" lon="13.925526039674878">
        <ele>518.76999999999998</ele>
        <time>2024-09-19T09:14:03Z</time>
      </trkpt>
      <trkpt lat="50.817171977832913" lon="13.92533996142447">
        <ele>518.76999999999998</ele>
        <time>2024-09-19T09:14:04Z</time>
      </trkpt>
      <trkpt lat="50.81705798394978" lon="13.925155978649855">
        <ele>519.25</ele>
        <time>2024-09-19T09:14:05Z</time>
      </trkpt>
      <trkpt lat="50.816938038915396" lon="13.924979958683252">
        <ele>519.73000000000002</ele>
        <time>2024-09-19T09:14:06Z</time>
      </trkpt>
      <trkpt lat="50.816784985363483" lon="13.924861019477248">
        <ele>520.21000000000004</ele>
        <time>2024-09-19T09:14:07Z</time>
      </trkpt>
      <trkpt lat="50.81660502590239" lon="13.924791030585766">
        <ele>520.69000000000005</ele>
        <time>2024-09-19T09:14:08Z</time>
      </trkpt>
      <trkpt lat="50.816414002329111" lon="13.924717018380761">
        <ele>520.69000000000005</ele>
        <time>2024-09-19T09:14:09Z</time>
      </trkpt>
      <trkpt lat="50.815619984641671" lon="13.924392974004149">
        <ele>521.64999999999998</ele>
        <time>2024-09-19T09:14:13Z</time>
      </trkpt>
      <trkpt lat="50.815474977716804" lon="13.924245033413172">
        <ele>521.16999999999996</ele>
        <time>2024-09-19T09:14:14Z</time>
      </trkpt>
      <trkpt lat="50.815387973561883" lon="13.924072030931711">
        <ele>521.16999999999996</ele>
        <time>2024-09-19T09:14:15Z</time>
      </trkpt>
      <trkpt lat="50.815331982448697" lon="13.923891987651587">
        <ele>520.69000000000005</ele>
        <time>2024-09-19T09:14:16Z</time>
      </trkpt>
      <trkpt lat="50.815309016034007" lon="13.923698030412197">
        <ele>520.21000000000004</ele>
        <time>2024-09-19T09:14:17Z</time>
      </trkpt>
      <trkpt lat="50.815309016034007" lon="13.92347096465528">
        <ele>519.25</ele>
        <time>2024-09-19T09:14:18Z</time>
      </trkpt>
      <trkpt lat="50.815338017418981" lon="13.923250017687678">
        <ele>518.76999999999998</ele>
        <time>2024-09-19T09:14:19Z</time>
      </trkpt>
      <trkpt lat="50.815419992431998" lon="13.923027981072664">
        <ele>517.80999999999995</ele>
        <time>2024-09-19T09:14:20Z</time>
      </trkpt>
      <trkpt lat="50.815528035163879" lon="13.922797981649637">
        <ele>516.85000000000002</ele>
        <time>2024-09-19T09:14:21Z</time>
      </trkpt>
      <trkpt lat="50.815634988248348" lon="13.92256798222661">
        <ele>515.88</ele>
        <time>2024-09-19T09:14:22Z</time>
      </trkpt>
      <trkpt lat="50.815687039867043" lon="13.922304036095738">
        <ele>514.44000000000005</ele>
        <time>2024-09-19T09:14:23Z</time>
      </trkpt>
      <trkpt lat="50.815722998231649" lon="13.92207101918757">
        <ele>513.48000000000002</ele>
        <time>2024-09-19T09:14:24Z</time>
      </trkpt>
      <trkpt lat="50.815697014331818" lon="13.92181403003633">
        <ele>512.51999999999998</ele>
        <time>2024-09-19T09:14:25Z</time>
      </trkpt>
      <trkpt lat="50.815640017390251" lon="13.921586964279413">
        <ele>512.03999999999996</ele>
        <time>2024-09-19T09:14:26Z</time>
      </trkpt>
      <trkpt lat="50.815572962164879" lon="13.921326035633683">
        <ele>511.07999999999998</ele>
        <time>2024-09-19T09:14:27Z</time>
      </trkpt>
      <trkpt lat="50.815181024372578" lon="13.919783011078835">
        <ele>506.75</ele>
        <time>2024-09-19T09:14:32Z</time>
      </trkpt>
      <trkpt lat="50.815113969147205" lon="13.91947103664279">
        <ele>506.26999999999998</ele>
        <time>2024-09-19T09:14:33Z</time>
      </trkpt>
      <trkpt lat="50.815105000510812" lon="13.919143974781036">
        <ele>505.31</ele>
        <time>2024-09-19T09:14:34Z</time>
      </trkpt>
      <trkpt lat="50.815051021054387" lon="13.91794896684587">
        <ele>501.94999999999999</ele>
        <time>2024-09-19T09:14:38Z</time>
      </trkpt>
      <trkpt lat="50.815001986920834" lon="13.917721984907985">
        <ele>500.5</ele>
        <time>2024-09-19T09:14:39Z</time>
      </trkpt>
      <trkpt lat="50.81492998637259" lon="13.917507994920015">
        <ele>499.54000000000002</ele>
        <time>2024-09-19T09:14:40Z</time>
      </trkpt>
      <trkpt lat="50.814810041338205" lon="13.917357036843896">
        <ele>497.62</ele>
        <time>2024-09-19T09:14:41Z</time>
      </trkpt>
      <trkpt lat="50.81467098556459" lon="13.917252011597157">
        <ele>496.18000000000001</ele>
        <time>2024-09-19T09:14:42Z</time>
      </trkpt>
      <trkpt lat="50.814509969204664" lon="13.917171964421868">
        <ele>494.74000000000001</ele>
        <time>2024-09-19T09:14:43Z</time>
      </trkpt>
      <trkpt lat="50.814323974773288" lon="13.91708898358047">
        <ele>493.29000000000002</ele>
        <time>2024-09-19T09:14:44Z</time>
      </trkpt>
      <trkpt lat="50.813732966780663" lon="13.916793018579483">
        <ele>488.00999999999999</ele>
        <time>2024-09-19T09:14:47Z</time>
      </trkpt>
      <trkpt lat="50.813555018976331" lon="13.916654968634248">
        <ele>487.05000000000001</ele>
        <time>2024-09-19T09:14:48Z</time>
      </trkpt>
      <trkpt lat="50.813386961817741" lon="13.91648699529469">
        <ele>485.60000000000002</ele>
        <time>2024-09-19T09:14:49Z</time>
      </trkpt>
      <trkpt lat="50.813237009570003" lon="13.916264958679676">
        <ele>484.16000000000003</ele>
        <time>2024-09-19T09:14:50Z</time>
      </trkpt>
      <trkpt lat="50.813084961846471" lon="13.916022973135114">
        <ele>482.72000000000003</ele>
        <time>2024-09-19T09:14:51Z</time>
      </trkpt>
      <trkpt lat="50.81295101903379" lon="13.915751986205578">
        <ele>481.27999999999997</ele>
        <time>2024-09-19T09:14:52Z</time>
      </trkpt>
      <trkpt lat="50.812816992402077" lon="13.915478987619281">
        <ele>479.83999999999997</ele>
        <time>2024-09-19T09:14:53Z</time>
      </trkpt>
      <trkpt lat="50.812424970790744" lon="13.914691004902124">
        <ele>475.99000000000001</ele>
        <time>2024-09-19T09:14:56Z</time>
      </trkpt>
      <trkpt lat="50.812250962480903" lon="13.914492018520832">
        <ele>474.55000000000001</ele>
        <time>2024-09-19T09:14:57Z</time>
      </trkpt>
      <trkpt lat="50.812074020504951" lon="13.914289008826017">
        <ele>472.63</ele>
        <time>2024-09-19T09:14:58Z</time>
      </trkpt>
      <trkpt lat="50.810774993151426" lon="13.913040021434426">
        <ele>459.64999999999998</ele>
        <time>2024-09-19T09:15:06Z</time>
      </trkpt>
      <trkpt lat="50.810083989053965" lon="13.912722012028098">
        <ele>453.39999999999998</ele>
        <time>2024-09-19T09:15:11Z</time>
      </trkpt>
      <trkpt lat="50.809834962710738" lon="13.912582034245133">
        <ele>450.02999999999997</ele>
        <time>2024-09-19T09:15:14Z</time>
      </trkpt>
      <trkpt lat="50.809793975204229" lon="13.912531994283199">
        <ele>449.06999999999999</ele>
        <time>2024-09-19T09:15:15Z</time>
      </trkpt>
      <trkpt lat="50.809799004346132" lon="13.912456976249814">
        <ele>448.11000000000001</ele>
        <time>2024-09-19T09:15:16Z</time>
      </trkpt>
      <trkpt lat="50.809806967154145" lon="13.912314986810088">
        <ele>447.63</ele>
        <time>2024-09-19T09:15:17Z</time>
      </trkpt>
      <trkpt lat="50.809816019609571" lon="13.912166962400079">
        <ele>447.14999999999998</ele>
        <time>2024-09-19T09:15:18Z</time>
      </trkpt>
      <trkpt lat="50.809873016551137" lon="13.912019021809101">
        <ele>446.67000000000002</ele>
        <time>2024-09-19T09:15:19Z</time>
      </trkpt>
      <trkpt lat="50.809939987957478" lon="13.911878038197756">
        <ele>446.67000000000002</ele>
        <time>2024-09-19T09:15:20Z</time>
      </trkpt>
      <trkpt lat="50.810043001547456" lon="13.911808971315622">
        <ele>446.19</ele>
        <time>2024-09-19T09:15:21Z</time>
      </trkpt>
      <trkpt lat="50.810164036229253" lon="13.911748034879565">
        <ele>445.23000000000002</ele>
        <time>2024-09-19T09:15:22Z</time>
      </trkpt>
      <trkpt lat="50.810291022062302" lon="13.91171601600945">
        <ele>444.75</ele>
        <time>2024-09-19T09:15:23Z</time>
      </trkpt>
      <trkpt lat="50.810419013723731" lon="13.911681985482574">
        <ele>443.79000000000002</ele>
        <time>2024-09-19T09:15:24Z</time>
      </trkpt>
      <trkpt lat="50.81060903146863" lon="13.911631023511291">
        <ele>443.31</ele>
        <time>2024-09-19T09:15:25Z</time>
      </trkpt>
      <trkpt lat="50.81076099537313" lon="13.911504959687591">
        <ele>442.33999999999997</ele>
        <time>2024-09-19T09:15:27Z</time>
      </trkpt>
      <trkpt lat="50.810841964557767" lon="13.911436982452869">
        <ele>442.33999999999997</ele>
        <time>2024-09-19T09:15:28Z</time>
      </trkpt>
      <trkpt lat="50.810903990641236" lon="13.911313014104962">
        <ele>441.86000000000001</ele>
        <time>2024-09-19T09:15:29Z</time>
      </trkpt>
      <trkpt lat="50.810955036431551" lon="13.911169013008475">
        <ele>441.38</ele>
        <time>2024-09-19T09:15:30Z</time>
      </trkpt>
      <trkpt lat="50.810973979532719" lon="13.910957034677267">
        <ele>440.89999999999998</ele>
        <time>2024-09-19T09:15:31Z</time>
      </trkpt>
      <trkpt lat="50.810973979532719" lon="13.910754024982452">
        <ele>440.89999999999998</ele>
        <time>2024-09-19T09:15:32Z</time>
      </trkpt>
      <trkpt lat="50.810951013118029" lon="13.910520002245903">
        <ele>440.89999999999998</ele>
        <time>2024-09-19T09:15:33Z</time>
      </trkpt>
      <trkpt lat="50.810920000076294" lon="13.910268964245915">
        <ele>440.42000000000002</ele>
        <time>2024-09-19T09:15:34Z</time>
      </trkpt>
      <trkpt lat="50.810855962336063" lon="13.909748028963804">
        <ele>440.42000000000002</ele>
        <time>2024-09-19T09:15:36Z</time>
      </trkpt>
      <trkpt lat="50.81082402728498" lon="13.909483999013901">
        <ele>439.94</ele>
        <time>2024-09-19T09:15:37Z</time>
      </trkpt>
      <trkpt lat="50.810802988708019" lon="13.909220974892378">
        <ele>439.94</ele>
        <time>2024-09-19T09:15:38Z</time>
      </trkpt>
      <trkpt lat="50.810729982331395" lon="13.907646015286446">
        <ele>439.94</ele>
        <time>2024-09-19T09:15:44Z</time>
      </trkpt>
      <trkpt lat="50.81069502979517" lon="13.907318031415343">
        <ele>439.94</ele>
        <time>2024-09-19T09:15:45Z</time>
      </trkpt>
      <trkpt lat="50.810630992054939" lon="13.907081997022033">
        <ele>440.42000000000002</ele>
        <time>2024-09-19T09:15:46Z</time>
      </trkpt>
      <trkpt lat="50.810536025092006" lon="13.906943025067449">
        <ele>440.89999999999998</ele>
        <time>2024-09-19T09:15:47Z</time>
      </trkpt>
      <trkpt lat="50.810365034267306" lon="13.906717970967293">
        <ele>441.86000000000001</ele>
        <time>2024-09-19T09:15:48Z</time>
      </trkpt>
      <trkpt lat="50.810233019292355" lon="13.906628033146262">
        <ele>442.81999999999999</ele>
        <time>2024-09-19T09:15:49Z</time>
      </trkpt>
      <trkpt lat="50.80940798856318" lon="13.906181026250124">
        <ele>449.06999999999999</ele>
        <time>2024-09-19T09:15:54Z</time>
      </trkpt>
      <trkpt lat="50.808464018628001" lon="13.905430007725954">
        <ele>456.27999999999997</ele>
        <time>2024-09-19T09:16:00Z</time>
      </trkpt>
      <trkpt lat="50.808389000594616" lon="13.905280977487564">
        <ele>457.24000000000001</ele>
        <time>2024-09-19T09:16:01Z</time>
      </trkpt>
      <trkpt lat="50.808300990611315" lon="13.905104035511613">
        <ele>458.20999999999998</ele>
        <time>2024-09-19T09:16:02Z</time>
      </trkpt>
      <trkpt lat="50.808233013376594" lon="13.904933966696262">
        <ele>459.17000000000002</ele>
        <time>2024-09-19T09:16:03Z</time>
      </trkpt>
      <trkpt lat="50.808150032535195" lon="13.904694998636842">
        <ele>460.13</ele>
        <time>2024-09-19T09:16:04Z</time>
      </trkpt>
      <trkpt lat="50.808063028380275" lon="13.904443960636854">
        <ele>460.61000000000001</ele>
        <time>2024-09-19T09:16:05Z</time>
      </trkpt>
      <trkpt lat="50.807972000911832" lon="13.904179008677602">
        <ele>461.56999999999999</ele>
        <time>2024-09-19T09:16:06Z</time>
      </trkpt>
      <trkpt lat="50.807863036170602" lon="13.903864016756415">
        <ele>462.05000000000001</ele>
        <time>2024-09-19T09:16:07Z</time>
      </trkpt>
      <trkpt lat="50.807715011760592" lon="13.903222968801856">
        <ele>464.44999999999999</ele>
        <time>2024-09-19T09:16:11Z</time>
      </trkpt>
      <trkpt lat="50.807600012049079" lon="13.902781996876001">
        <ele>468.30000000000001</ele>
        <time>2024-09-19T09:16:14Z</time>
      </trkpt>
      <trkpt lat="50.807413011789322" lon="13.902257038280368">
        <ele>474.06999999999999</ele>
        <time>2024-09-19T09:16:18Z</time>
      </trkpt>
      <trkpt lat="50.807313015684485" lon="13.90200600028038">
        <ele>476.47000000000003</ele>
        <time>2024-09-19T09:16:20Z</time>
      </trkpt>
      <trkpt lat="50.807241015136242" lon="13.901825034990907">
        <ele>477.91000000000003</ele>
        <time>2024-09-19T09:16:21Z</time>
      </trkpt>
      <trkpt lat="50.806843964383006" lon="13.900292990729213">
        <ele>490.88999999999999</ele>
        <time>2024-09-19T09:16:30Z</time>
      </trkpt>
      <trkpt lat="50.806588986888528" lon="13.899281965568662">
        <ele>498.57999999999998</ele>
        <time>2024-09-19T09:16:36Z</time>
      </trkpt>
      <trkpt lat="50.806531989946961" lon="13.899056995287538">
        <ele>500.01999999999998</ele>
        <time>2024-09-19T09:16:37Z</time>
      </trkpt>
      <trkpt lat="50.806531989946961" lon="13.898927997797728">
        <ele>501.45999999999998</ele>
        <time>2024-09-19T09:16:38Z</time>
      </trkpt>
      <trkpt lat="50.806531989946961" lon="13.898747032508254">
        <ele>503.38999999999999</ele>
        <time>2024-09-19T09:16:39Z</time>
      </trkpt>
      <trkpt lat="50.806531989946961" lon="13.898564977571368">
        <ele>505.79000000000002</ele>
        <time>2024-09-19T09:16:40Z</time>
      </trkpt>
      <trkpt lat="50.806531989946961" lon="13.898369008675218">
        <ele>508.19</ele>
        <time>2024-09-19T09:16:41Z</time>
      </trkpt>
      <trkpt lat="50.806531989946961" lon="13.898186031728983">
        <ele>510.12</ele>
        <time>2024-09-19T09:16:42Z</time>
      </trkpt>
      <trkpt lat="50.806531989946961" lon="13.898010011762381">
        <ele>512.03999999999996</ele>
        <time>2024-09-19T09:16:43Z</time>
      </trkpt>
      <trkpt lat="50.806561997160316" lon="13.897826028987765">
        <ele>514.44000000000005</ele>
        <time>2024-09-19T09:16:44Z</time>
      </trkpt>
      <trkpt lat="50.80659301020205" lon="13.897641962394118">
        <ele>517.33000000000004</ele>
        <time>2024-09-19T09:16:45Z</time>
      </trkpt>
      <trkpt lat="50.806623017415404" lon="13.897459991276264">
        <ele>520.69000000000005</ele>
        <time>2024-09-19T09:16:46Z</time>
      </trkpt>
      <trkpt lat="50.806653024628758" lon="13.897280031815171">
        <ele>523.58000000000004</ele>
        <time>2024-09-19T09:16:47Z</time>
      </trkpt>
      <trkpt lat="50.806683031842113" lon="13.897099988535047">
        <ele>527.41999999999996</ele>
        <time>2024-09-19T09:16:48Z</time>
      </trkpt>
      <trkpt lat="50.80672100186348" lon="13.896259032189846">
        <ele>537.50999999999999</ele>
        <time>2024-09-19T09:16:53Z</time>
      </trkpt>
      <trkpt lat="50.806753020733595" lon="13.894750038161874">
        <ele>549.52999999999997</ele>
        <time>2024-09-19T09:17:01Z</time>
      </trkpt>
      <trkpt lat="50.806711027398705" lon="13.893070975318551">
        <ele>559.62</ele>
        <time>2024-09-19T09:17:10Z</time>
      </trkpt>
      <trkpt lat="50.806704992428422" lon="13.892705021426082">
        <ele>561.54999999999995</ele>
        <time>2024-09-19T09:17:12Z</time>
      </trkpt>
      <trkpt lat="50.806714966893196" lon="13.892516009509563">
        <ele>562.50999999999999</ele>
        <time>2024-09-19T09:17:13Z</time>
      </trkpt>
      <trkpt lat="50.806731982156634" lon="13.892330015078187">
        <ele>563.47000000000003</ele>
        <time>2024-09-19T09:17:14Z</time>
      </trkpt>
      <trkpt lat="50.807057032361627" lon="13.890736028552055">
        <ele>569.72000000000003</ele>
        <time>2024-09-19T09:17:23Z</time>
      </trkpt>
      <trkpt lat="50.807355009019375" lon="13.889783006161451">
        <ele>573.08000000000004</ele>
        <time>2024-09-19T09:17:29Z</time>
      </trkpt>
      <trkpt lat="50.807541003450751" lon="13.888352969661355">
        <ele>576.45000000000005</ele>
        <time>2024-09-19T09:17:37Z</time>
      </trkpt>
      <trkpt lat="50.807560030370951" lon="13.888196982443333">
        <ele>576.45000000000005</ele>
        <time>2024-09-19T09:17:38Z</time>
      </trkpt>
      <trkpt lat="50.807632030919194" lon="13.887947034090757">
        <ele>576.45000000000005</ele>
        <time>2024-09-19T09:17:40Z</time>
      </trkpt>
      <trkpt lat="50.807863036170602" lon="13.887384021654725">
        <ele>577.40999999999997</ele>
        <time>2024-09-19T09:17:47Z</time>
      </trkpt>
      <trkpt lat="50.807818025350571" lon="13.887283019721508">
        <ele>577.88999999999999</ele>
        <time>2024-09-19T09:17:48Z</time>
      </trkpt>
      <trkpt lat="50.807792041450739" lon="13.88722401112318">
        <ele>578.37</ele>
        <time>2024-09-19T09:17:49Z</time>
      </trkpt>
      <trkpt lat="50.807758010923862" lon="13.887147987261415">
        <ele>578.37</ele>
        <time>2024-09-19T09:17:50Z</time>
      </trkpt>
      <trkpt lat="50.807723980396986" lon="13.8870710413903">
        <ele>578.37</ele>
        <time>2024-09-19T09:17:51Z</time>
      </trkpt>
      <trkpt lat="50.807455005124211" lon="13.886010982096195">
        <ele>578.37</ele>
        <time>2024-09-19T09:17:59Z</time>
      </trkpt>
      <trkpt lat="50.807455005124211" lon="13.885734966024756">
        <ele>578.85000000000002</ele>
        <time>2024-09-19T09:18:01Z</time>
      </trkpt>
      <trkpt lat="50.807455005124211" lon="13.88561200350523">
        <ele>578.85000000000002</ele>
        <time>2024-09-19T09:18:02Z</time>
      </trkpt>
      <trkpt lat="50.80747202038765" lon="13.884240975603461">
        <ele>578.85000000000002</ele>
        <time>2024-09-19T09:18:12Z</time>
      </trkpt>
      <trkpt lat="50.807470008730888" lon="13.883981974795461">
        <ele>578.37</ele>
        <time>2024-09-19T09:18:14Z</time>
      </trkpt>
      <trkpt lat="50.80745299346745" lon="13.883855994790792">
        <ele>578.37</ele>
        <time>2024-09-19T09:18:15Z</time>
      </trkpt>
      <trkpt lat="50.807435978204012" lon="13.883730014786124">
        <ele>578.37</ele>
        <time>2024-09-19T09:18:16Z</time>
      </trkpt>
      <trkpt lat="50.807242020964622" lon="13.882243987172842">
        <ele>575.97000000000003</ele>
        <time>2024-09-19T09:18:27Z</time>
      </trkpt>
      <trkpt lat="50.807253001257777" lon="13.882123958319426">
        <ele>575.97000000000003</ele>
        <time>2024-09-19T09:18:28Z</time>
      </trkpt>
      <trkpt lat="50.807268004864454" lon="13.881995966657996">
        <ele>575.97000000000003</ele>
        <time>2024-09-19T09:18:29Z</time>
      </trkpt>
      <trkpt lat="50.807329025119543" lon="13.881460027769208">
        <ele>575.49000000000001</ele>
        <time>2024-09-19T09:18:33Z</time>
      </trkpt>
      <trkpt lat="50.807415023446083" lon="13.879798986017704">
        <ele>575.49000000000001</ele>
        <time>2024-09-19T09:18:46Z</time>
      </trkpt>
      <trkpt lat="50.80738702788949" lon="13.879679040983319">
        <ele>575.00999999999999</ele>
        <time>2024-09-19T09:18:47Z</time>
      </trkpt>
      <trkpt lat="50.807347968220711" lon="13.87957401573658">
        <ele>574.52999999999997</ele>
        <time>2024-09-19T09:18:48Z</time>
      </trkpt>
      <trkpt lat="50.807270016521215" lon="13.879494974389672">
        <ele>574.52999999999997</ele>
        <time>2024-09-19T09:18:49Z</time>
      </trkpt>
      <trkpt lat="50.807241015136242" lon="13.879465973004699">
        <ele>574.03999999999996</ele>
        <time>2024-09-19T09:18:50Z</time>
      </trkpt>
      <trkpt lat="50.807156022638083" lon="13.879474019631743">
        <ele>573.55999999999995</ele>
        <time>2024-09-19T09:18:51Z</time>
      </trkpt>
      <trkpt lat="50.807089973241091" lon="13.879479970782995">
        <ele>572.60000000000002</ele>
        <time>2024-09-19T09:18:52Z</time>
      </trkpt>
      <trkpt lat="50.807035993784666" lon="13.879484999924898">
        <ele>572.12</ele>
        <time>2024-09-19T09:18:53Z</time>
      </trkpt>
      <trkpt lat="50.807011015713215" lon="13.879534034058452">
        <ele>571.63999999999999</ele>
        <time>2024-09-19T09:18:54Z</time>
      </trkpt>
      <trkpt lat="50.807024007663131" lon="13.879638975486159">
        <ele>571.15999999999997</ele>
        <time>2024-09-19T09:18:55Z</time>
      </trkpt>
      <trkpt lat="50.807039011269808" lon="13.879754981026053">
        <ele>570.67999999999995</ele>
        <time>2024-09-19T09:18:56Z</time>
      </trkpt>
      <trkpt lat="50.807056026533246" lon="13.879880961030722">
        <ele>570.20000000000005</ele>
        <time>2024-09-19T09:18:57Z</time>
      </trkpt>
      <trkpt lat="50.807054014876485" lon="13.880377002060413">
        <ele>568.75999999999999</ele>
        <time>2024-09-19T09:19:01Z</time>
      </trkpt>
      <trkpt lat="50.806970028206706" lon="13.880553022027016">
        <ele>568.75999999999999</ele>
        <time>2024-09-19T09:19:03Z</time>
      </trkpt>
      <trkpt lat="50.806934991851449" lon="13.880548998713493">
        <ele>568.27999999999997</ele>
        <time>2024-09-19T09:19:05Z</time>
      </trkpt>
      <trkpt lat="50.806339038535953" lon="13.880487978458405">
        <ele>568.75999999999999</ele>
        <time>2024-09-19T09:19:10Z</time>
      </trkpt>
      <trkpt lat="50.805059038102627" lon="13.88041203841567">
        <ele>570.67999999999995</ele>
        <time>2024-09-19T09:19:17Z</time>
      </trkpt>
      <trkpt lat="50.802942020818591" lon="13.880570037290454">
        <ele>569.24000000000001</ele>
        <time>2024-09-19T09:19:26Z</time>
      </trkpt>
      <trkpt lat="50.800026040524244" lon="13.881376963108778">
        <ele>576.45000000000005</ele>
        <time>2024-09-19T09:19:38Z</time>
      </trkpt>
      <trkpt lat="50.797781031578779" lon="13.881953973323107">
        <ele>587.98000000000002</ele>
        <time>2024-09-19T09:19:47Z</time>
      </trkpt>
      <trkpt lat="50.79623700119555" lon="13.881495986133814">
        <ele>595.19000000000005</ele>
        <time>2024-09-19T09:19:53Z</time>
      </trkpt>
      <trkpt lat="50.794787015765905" lon="13.88023903593421">
        <ele>600</ele>
        <time>2024-09-19T09:19:59Z</time>
      </trkpt>
      <trkpt lat="50.79365897923708" lon="13.878238024190068">
        <ele>605.76999999999998</ele>
        <time>2024-09-19T09:20:05Z</time>
      </trkpt>
      <trkpt lat="50.792810982093215" lon="13.875669976696372">
        <ele>613.46000000000004</ele>
        <time>2024-09-19T09:20:12Z</time>
      </trkpt>
      <trkpt lat="50.7917670160532" lon="13.872490972280502">
        <ele>621.14999999999998</ele>
        <time>2024-09-19T09:20:22Z</time>
      </trkpt>
      <trkpt lat="50.790762025862932" lon="13.869450017809868">
        <ele>624.02999999999997</ele>
        <time>2024-09-19T09:20:32Z</time>
      </trkpt>
      <trkpt lat="50.790053000673652" lon="13.867140971124172">
        <ele>627.39999999999998</ele>
        <time>2024-09-19T09:20:40Z</time>
      </trkpt>
      <trkpt lat="50.789160998538136" lon="13.864396987482905">
        <ele>624.99000000000001</ele>
        <time>2024-09-19T09:20:49Z</time>
      </trkpt>
      <trkpt lat="50.788428001105785" lon="13.861673958599567">
        <ele>616.34000000000003</ele>
        <time>2024-09-19T09:20:58Z</time>
      </trkpt>
      <trkpt lat="50.787702966481447" lon="13.859545039013028">
        <ele>608.64999999999998</ele>
        <time>2024-09-19T09:21:06Z</time>
      </trkpt>
      <trkpt lat="50.787370959296823" lon="13.857873016968369">
        <ele>600.96000000000004</ele>
        <time>2024-09-19T09:21:14Z</time>
      </trkpt>
      <trkpt lat="50.787338018417358" lon="13.857712000608444">
        <ele>600</ele>
        <time>2024-09-19T09:21:15Z</time>
      </trkpt>
      <trkpt lat="50.786728989332914" lon="13.856552029028535">
        <ele>589.90999999999997</ele>
        <time>2024-09-19T09:21:25Z</time>
      </trkpt>
      <trkpt lat="50.786726977676153" lon="13.856549011543393">
        <ele>588.46000000000004</ele>
        <time>2024-09-19T09:21:26Z</time>
      </trkpt>
      <trkpt lat="50.786597980186343" lon="13.856355976313353">
        <ele>587.5</ele>
        <time>2024-09-19T09:21:27Z</time>
      </trkpt>
      <trkpt lat="50.786565039306879" lon="13.856320017948747">
        <ele>586.53999999999996</ele>
        <time>2024-09-19T09:21:28Z</time>
      </trkpt>
      <trkpt lat="50.786494966596365" lon="13.856243994086981">
        <ele>585.58000000000004</ele>
        <time>2024-09-19T09:21:29Z</time>
      </trkpt>
      <trkpt lat="50.786415003240108" lon="13.85615598410368">
        <ele>585.10000000000002</ele>
        <time>2024-09-19T09:21:30Z</time>
      </trkpt>
      <trkpt lat="50.786325987428427" lon="13.856053976342082">
        <ele>584.62</ele>
        <time>2024-09-19T09:21:31Z</time>
      </trkpt>
      <trkpt lat="50.78549399971962" lon="13.855032976716757">
        <ele>589.42999999999995</ele>
        <time>2024-09-19T09:21:40Z</time>
      </trkpt>
      <trkpt lat="50.785101978108287" lon="13.854595022276044">
        <ele>593.75</ele>
        <time>2024-09-19T09:21:43Z</time>
      </trkpt>
      <trkpt lat="50.783596001565456" lon="13.85374903678894">
        <ele>607.69000000000005</ele>
        <time>2024-09-19T09:21:51Z</time>
      </trkpt>
      <trkpt lat="50.782713973894715" lon="13.852667016908526">
        <ele>616.82000000000005</ele>
        <time>2024-09-19T09:21:59Z</time>
      </trkpt>
      <trkpt lat="50.782016012817621" lon="13.851760011166334">
        <ele>622.11000000000001</ele>
        <time>2024-09-19T09:22:07Z</time>
      </trkpt>
      <trkpt lat="50.781963039189577" lon="13.851699996739626">
        <ele>622.59000000000003</ele>
        <time>2024-09-19T09:22:08Z</time>
      </trkpt>
      <trkpt lat="50.781900007277727" lon="13.851763028651476">
        <ele>623.07000000000005</ele>
        <time>2024-09-19T09:22:09Z</time>
      </trkpt>
      <trkpt lat="50.781843010336161" lon="13.851820025593042">
        <ele>623.54999999999995</ele>
        <time>2024-09-19T09:22:10Z</time>
      </trkpt>
      <trkpt lat="50.781764974817634" lon="13.851882973685861">
        <ele>624.02999999999997</ele>
        <time>2024-09-19T09:22:11Z</time>
      </trkpt>
      <trkpt lat="50.781678976491094" lon="13.851949023082852">
        <ele>624.02999999999997</ele>
        <time>2024-09-19T09:22:12Z</time>
      </trkpt>
      <trkpt lat="50.781558025628328" lon="13.851961009204388">
        <ele>624.02999999999997</ele>
        <time>2024-09-19T09:22:13Z</time>
      </trkpt>
      <trkpt lat="50.781435985118151" lon="13.851935025304556">
        <ele>624.02999999999997</ele>
        <time>2024-09-19T09:22:14Z</time>
      </trkpt>
      <trkpt lat="50.781300030648708" lon="13.851884985342622">
        <ele>624.02999999999997</ele>
        <time>2024-09-19T09:22:15Z</time>
      </trkpt>
      <trkpt lat="50.781163992360234" lon="13.851785995066166">
        <ele>624.50999999999999</ele>
        <time>2024-09-19T09:22:16Z</time>
      </trkpt>
      <trkpt lat="50.781017979606986" lon="13.851690022274852">
        <ele>624.50999999999999</ele>
        <time>2024-09-19T09:22:17Z</time>
      </trkpt>
      <trkpt lat="50.780708016827703" lon="13.851502016186714">
        <ele>625.47000000000003</ele>
        <time>2024-09-19T09:22:19Z</time>
      </trkpt>
      <trkpt lat="50.780540965497494" lon="13.851401014253497">
        <ele>625.96000000000004</ele>
        <time>2024-09-19T09:22:20Z</time>
      </trkpt>
      <trkpt lat="50.779872005805373" lon="13.851112006232142">
        <ele>625.47000000000003</ele>
        <time>2024-09-19T09:22:25Z</time>
      </trkpt>
      <trkpt lat="50.779587021097541" lon="13.850964987650514">
        <ele>625.47000000000003</ele>
        <time>2024-09-19T09:22:26Z</time>
      </trkpt>
      <trkpt lat="50.778395030647516" lon="13.850050019100308">
        <ele>621.63</ele>
        <time>2024-09-19T09:22:34Z</time>
      </trkpt>
      <trkpt lat="50.778069980442524" lon="13.849873999133706">
        <ele>619.71000000000004</ele>
        <time>2024-09-19T09:22:36Z</time>
      </trkpt>
      <trkpt lat="50.777452988550067" lon="13.849513996392488">
        <ele>615.86000000000001</ele>
        <time>2024-09-19T09:22:40Z</time>
      </trkpt>
      <trkpt lat="50.777306975796819" lon="13.849382987245917">
        <ele>614.41999999999996</ele>
        <time>2024-09-19T09:22:41Z</time>
      </trkpt>
      <trkpt lat="50.777214020490646" lon="13.849232029169798">
        <ele>613.46000000000004</ele>
        <time>2024-09-19T09:22:42Z</time>
      </trkpt>
      <trkpt lat="50.776771036908031" lon="13.848516969010234">
        <ele>608.64999999999998</ele>
        <time>2024-09-19T09:22:46Z</time>
      </trkpt>
      <trkpt lat="50.776719991117716" lon="13.848316976800561">
        <ele>607.21000000000004</ele>
        <time>2024-09-19T09:22:47Z</time>
      </trkpt>
      <trkpt lat="50.776680009439588" lon="13.848088989034295">
        <ele>605.76999999999998</ele>
        <time>2024-09-19T09:22:48Z</time>
      </trkpt>
      <trkpt lat="50.776527039706707" lon="13.847221964970231">
        <ele>600.48000000000002</ele>
        <time>2024-09-19T09:22:52Z</time>
      </trkpt>
      <trkpt lat="50.776435006409883" lon="13.846984002739191">
        <ele>597.12</ele>
        <time>2024-09-19T09:22:54Z</time>
      </trkpt>
      <trkpt lat="50.776298968121409" lon="13.846892975270748">
        <ele>595.66999999999996</ele>
        <time>2024-09-19T09:22:55Z</time>
      </trkpt>
      <trkpt lat="50.77621397562325" lon="13.84687696583569">
        <ele>594.23000000000002</ele>
        <time>2024-09-19T09:22:56Z</time>
      </trkpt>
      <trkpt lat="50.776073997840285" lon="13.846848970279098">
        <ele>592.30999999999995</ele>
        <time>2024-09-19T09:22:57Z</time>
      </trkpt>
      <trkpt lat="50.775928990915418" lon="13.846827009692788">
        <ele>590.38999999999999</ele>
        <time>2024-09-19T09:22:58Z</time>
      </trkpt>
      <trkpt lat="50.775793958455324" lon="13.846806976944208">
        <ele>588.46000000000004</ele>
        <time>2024-09-19T09:22:59Z</time>
      </trkpt>
      <trkpt lat="50.775678958743811" lon="13.84678996168077">
        <ele>586.53999999999996</ele>
        <time>2024-09-19T09:23:00Z</time>
      </trkpt>
      <trkpt lat="50.775588015094399" lon="13.846737993881106">
        <ele>584.62</ele>
        <time>2024-09-19T09:23:01Z</time>
      </trkpt>
      <trkpt lat="50.775502016767859" lon="13.846664987504482">
        <ele>582.70000000000005</ele>
        <time>2024-09-19T09:23:02Z</time>
      </trkpt>
      <trkpt lat="50.775479972362518" lon="13.846545964479446">
        <ele>580.76999999999998</ele>
        <time>2024-09-19T09:23:03Z</time>
      </trkpt>
      <trkpt lat="50.775471003726125" lon="13.846392994746566">
        <ele>578.85000000000002</ele>
        <time>2024-09-19T09:23:04Z</time>
      </trkpt>
      <trkpt lat="50.775497993454337" lon="13.846243964508176">
        <ele>577.40999999999997</ele>
        <time>2024-09-19T09:23:05Z</time>
      </trkpt>
      <trkpt lat="50.775551972910762" lon="13.846072973683476">
        <ele>575.97000000000003</ele>
        <time>2024-09-19T09:23:06Z</time>
      </trkpt>
      <trkpt lat="50.775613998994231" lon="13.845896031707525">
        <ele>574.03999999999996</ele>
        <time>2024-09-19T09:23:07Z</time>
      </trkpt>
      <trkpt lat="50.775727992877364" lon="13.845501998439431">
        <ele>570.20000000000005</ele>
        <time>2024-09-19T09:23:09Z</time>
      </trkpt>
      <trkpt lat="50.775748025625944" lon="13.845296977087855">
        <ele>568.27999999999997</ele>
        <time>2024-09-19T09:23:10Z</time>
      </trkpt>
      <trkpt lat="50.775756994262338" lon="13.845096984878182">
        <ele>565.87</ele>
        <time>2024-09-19T09:23:11Z</time>
      </trkpt>
      <trkpt lat="50.775762023404241" lon="13.844690965488553">
        <ele>562.02999999999997</ele>
        <time>2024-09-19T09:23:13Z</time>
      </trkpt>
      <trkpt lat="50.775762023404241" lon="13.84444696828723">
        <ele>559.62</ele>
        <time>2024-09-19T09:23:14Z</time>
      </trkpt>
      <trkpt lat="50.775721035897732" lon="13.844217974692583">
        <ele>557.22000000000003</ele>
        <time>2024-09-19T09:23:15Z</time>
      </trkpt>
      <trkpt lat="50.775490030646324" lon="13.84328699670732">
        <ele>547.61000000000001</ele>
        <time>2024-09-19T09:23:19Z</time>
      </trkpt>
      <trkpt lat="50.775408977642655" lon="13.843067977577448">
        <ele>545.20000000000005</ele>
        <time>2024-09-19T09:23:20Z</time>
      </trkpt>
      <trkpt lat="50.775295989587903" lon="13.842892041429877">
        <ele>542.79999999999995</ele>
        <time>2024-09-19T09:23:21Z</time>
      </trkpt>
      <trkpt lat="50.774999018758535" lon="13.842398012056947">
        <ele>535.59000000000003</ele>
        <time>2024-09-19T09:23:24Z</time>
      </trkpt>
      <trkpt lat="50.774927018210292" lon="13.842209000140429">
        <ele>533.66999999999996</ele>
        <time>2024-09-19T09:23:25Z</time>
      </trkpt>
      <trkpt lat="50.774940010160208" lon="13.842011019587517">
        <ele>531.75</ele>
        <time>2024-09-19T09:23:26Z</time>
      </trkpt>
      <trkpt lat="50.774954007938504" lon="13.841789988800883">
        <ele>529.82000000000005</ele>
        <time>2024-09-19T09:23:27Z</time>
      </trkpt>
      <trkpt lat="50.774970017373562" lon="13.841554960235953">
        <ele>528.38</ele>
        <time>2024-09-19T09:23:28Z</time>
      </trkpt>
      <trkpt lat="50.77503296546638" lon="13.840327011421323">
        <ele>519.25</ele>
        <time>2024-09-19T09:23:33Z</time>
      </trkpt>
      <trkpt lat="50.775022991001606" lon="13.840096006169915">
        <ele>517.80999999999995</ele>
        <time>2024-09-19T09:23:34Z</time>
      </trkpt>
      <trkpt lat="50.775013016536832" lon="13.839882016181946">
        <ele>516.37</ele>
        <time>2024-09-19T09:23:35Z</time>
      </trkpt>
      <trkpt lat="50.774950990453362" lon="13.839696021750569">
        <ele>514.91999999999996</ele>
        <time>2024-09-19T09:23:36Z</time>
      </trkpt>
      <trkpt lat="50.774875972419977" lon="13.839524025097489">
        <ele>514.44000000000005</ele>
        <time>2024-09-19T09:23:37Z</time>
      </trkpt>
      <trkpt lat="50.77477203682065" lon="13.839377006515861">
        <ele>513.48000000000002</ele>
        <time>2024-09-19T09:23:38Z</time>
      </trkpt>
      <trkpt lat="50.774643961340189" lon="13.839248009026051">
        <ele>513</ele>
        <time>2024-09-19T09:23:39Z</time>
      </trkpt>
      <trkpt lat="50.774498032405972" lon="13.83914097212255">
        <ele>512.51999999999998</ele>
        <time>2024-09-19T09:23:40Z</time>
      </trkpt>
      <trkpt lat="50.774335004389286" lon="13.839037036523223">
        <ele>512.03999999999996</ele>
        <time>2024-09-19T09:23:41Z</time>
      </trkpt>
      <trkpt lat="50.774160996079445" lon="13.838960006833076">
        <ele>512.03999999999996</ele>
        <time>2024-09-19T09:23:42Z</time>
      </trkpt>
      <trkpt lat="50.773801999166608" lon="13.838798990473151">
        <ele>511.56</ele>
        <time>2024-09-19T09:23:44Z</time>
      </trkpt>
      <trkpt lat="50.772460978478193" lon="13.83832398802042">
        <ele>511.07999999999998</ele>
        <time>2024-09-19T09:23:52Z</time>
      </trkpt>
      <trkpt lat="50.77232301235199" lon="13.838338991627097">
        <ele>511.07999999999998</ele>
        <time>2024-09-19T09:23:53Z</time>
      </trkpt>
      <trkpt lat="50.772199966013432" lon="13.838352989405394">
        <ele>511.07999999999998</ele>
        <time>2024-09-19T09:23:54Z</time>
      </trkpt>
      <trkpt lat="50.772112961858511" lon="13.838445022702217">
        <ele>511.07999999999998</ele>
        <time>2024-09-19T09:23:55Z</time>
      </trkpt>
      <trkpt lat="50.772026041522622" lon="13.838536972180009">
        <ele>511.07999999999998</ele>
        <time>2024-09-19T09:23:56Z</time>
      </trkpt>
      <trkpt lat="50.77193995937705" lon="13.838626993820071">
        <ele>511.07999999999998</ele>
        <time>2024-09-19T09:23:57Z</time>
      </trkpt>
      <trkpt lat="50.771857984364033" lon="13.838712992146611">
        <ele>511.07999999999998</ele>
        <time>2024-09-19T09:23:58Z</time>
      </trkpt>
      <trkpt lat="50.77178698964417" lon="13.838791027665138">
        <ele>511.07999999999998</ele>
        <time>2024-09-19T09:23:59Z</time>
      </trkpt>
      <trkpt lat="50.771524971351027" lon="13.839215990155935">
        <ele>513.48000000000002</ele>
        <time>2024-09-19T09:24:07Z</time>
      </trkpt>
      <trkpt lat="50.771524971351027" lon="13.839215990155935">
        <ele>514.44000000000005</ele>
        <time>2024-09-19T09:24:30Z</time>
      </trkpt>
      <trkpt lat="50.771394968032837" lon="13.839209033176303">
        <ele>516.37</ele>
        <time>2024-09-19T09:24:49Z</time>
      </trkpt>
      <trkpt lat="50.771361021324992" lon="13.839124962687492">
        <ele>517.33000000000004</ele>
        <time>2024-09-19T09:24:50Z</time>
      </trkpt>
      <trkpt lat="50.771317016333342" lon="13.839017003774643">
        <ele>518.28999999999996</ele>
        <time>2024-09-19T09:24:51Z</time>
      </trkpt>
      <trkpt lat="50.77120503410697" lon="13.838745011016726">
        <ele>521.16999999999996</ele>
        <time>2024-09-19T09:24:53Z</time>
      </trkpt>
      <trkpt lat="50.77114200219512" lon="13.838592041283846">
        <ele>521.64999999999998</ele>
        <time>2024-09-19T09:24:54Z</time>
      </trkpt>
      <trkpt lat="50.77103597112" lon="13.838443011045456">
        <ele>522.61000000000001</ele>
        <time>2024-09-19T09:24:55Z</time>
      </trkpt>
      <trkpt lat="50.770917031913996" lon="13.838339997455478">
        <ele>523.09000000000003</ele>
        <time>2024-09-19T09:24:56Z</time>
      </trkpt>
      <trkpt lat="50.770779987797141" lon="13.838221980258822">
        <ele>524.05999999999995</ele>
        <time>2024-09-19T09:24:57Z</time>
      </trkpt>
      <trkpt lat="50.770616959780455" lon="13.838120978325605">
        <ele>524.53999999999996</ele>
        <time>2024-09-19T09:24:58Z</time>
      </trkpt>
      <trkpt lat="50.769880022853613" lon="13.837735997512937">
        <ele>527.89999999999998</ele>
        <time>2024-09-19T09:25:02Z</time>
      </trkpt>
      <trkpt lat="50.768790962174535" lon="13.83746299892664">
        <ele>532.71000000000004</ele>
        <time>2024-09-19T09:25:09Z</time>
      </trkpt>
      <trkpt lat="50.768703036010265" lon="13.837430980056524">
        <ele>533.66999999999996</ele>
        <time>2024-09-19T09:25:10Z</time>
      </trkpt>
      <trkpt lat="50.768588036298752" lon="13.837297959253192">
        <ele>534.14999999999998</ele>
        <time>2024-09-19T09:25:11Z</time>
      </trkpt>
      <trkpt lat="50.76847898773849" lon="13.837171979248524">
        <ele>535.11000000000001</ele>
        <time>2024-09-19T09:25:13Z</time>
      </trkpt>
      <trkpt lat="50.768360970541835" lon="13.837035018950701">
        <ele>535.59000000000003</ele>
        <time>2024-09-19T09:25:14Z</time>
      </trkpt>
      <trkpt lat="50.76695297844708" lon="13.835356961935759">
        <ele>539.91999999999996</ele>
        <time>2024-09-19T09:25:23Z</time>
      </trkpt>
      <trkpt lat="50.766053013503551" lon="13.834057012572885">
        <ele>545.69000000000005</ele>
        <time>2024-09-19T09:25:31Z</time>
      </trkpt>
      <trkpt lat="50.765607012435794" lon="13.833456030115485">
        <ele>548.57000000000005</ele>
        <time>2024-09-19T09:25:34Z</time>
      </trkpt>
      <trkpt lat="50.765493018552661" lon="13.833341030403972">
        <ele>549.52999999999997</ele>
        <time>2024-09-19T09:25:35Z</time>
      </trkpt>
      <trkpt lat="50.765011981129646" lon="13.832862004637718">
        <ele>555.29999999999995</ele>
        <time>2024-09-19T09:25:39Z</time>
      </trkpt>
      <trkpt lat="50.764241013675928" lon="13.832029011100531">
        <ele>560.59000000000003</ele>
        <time>2024-09-19T09:25:46Z</time>
      </trkpt>
      <trkpt lat="50.764143029227853" lon="13.831876963376999">
        <ele>561.07000000000005</ele>
        <time>2024-09-19T09:25:47Z</time>
      </trkpt>
      <trkpt lat="50.764091983437538" lon="13.831691974774003">
        <ele>562.02999999999997</ele>
        <time>2024-09-19T09:25:48Z</time>
      </trkpt>
      <trkpt lat="50.76398603618145" lon="13.831303976476192">
        <ele>563.47000000000003</ele>
        <time>2024-09-19T09:25:50Z</time>
      </trkpt>
      <trkpt lat="50.763469962403178" lon="13.82936499081552">
        <ele>570.20000000000005</ele>
        <time>2024-09-19T09:25:59Z</time>
      </trkpt>
      <trkpt lat="50.763352029025555" lon="13.828493021428585">
        <ele>573.55999999999995</ele>
        <time>2024-09-19T09:26:03Z</time>
      </trkpt>
      <trkpt lat="50.763339037075639" lon="13.828272996470332">
        <ele>574.52999999999997</ele>
        <time>2024-09-19T09:26:04Z</time>
      </trkpt>
      <trkpt lat="50.763357980176806" lon="13.82803101092577">
        <ele>575.49000000000001</ele>
        <time>2024-09-19T09:26:05Z</time>
      </trkpt>
      <trkpt lat="50.763391004875302" lon="13.826095964759588">
        <ele>581.73000000000002</ele>
        <time>2024-09-19T09:26:15Z</time>
      </trkpt>
      <trkpt lat="50.763382958248258" lon="13.825626997277141">
        <ele>583.65999999999997</ele>
        <time>2024-09-19T09:26:17Z</time>
      </trkpt>
      <trkpt lat="50.763381030410528" lon="13.825478972867131">
        <ele>584.62</ele>
        <time>2024-09-19T09:26:18Z</time>
      </trkpt>
      <trkpt lat="50.763354962691665" lon="13.825395992025733">
        <ele>585.10000000000002</ele>
        <time>2024-09-19T09:26:19Z</time>
      </trkpt>
      <trkpt lat="50.763322021812201" lon="13.825292978435755">
        <ele>586.05999999999995</ele>
        <time>2024-09-19T09:26:20Z</time>
      </trkpt>
      <trkpt lat="50.763291008770466" lon="13.825194993987679">
        <ele>586.53999999999996</ele>
        <time>2024-09-19T09:26:21Z</time>
      </trkpt>
      <trkpt lat="50.763234011828899" lon="13.825016040354967">
        <ele>589.90999999999997</ele>
        <time>2024-09-19T09:26:27Z</time>
      </trkpt>
      <trkpt lat="50.763225965201855" lon="13.824996007606387">
        <ele>589.90999999999997</ele>
        <time>2024-09-19T09:26:37Z</time>
      </trkpt>
      <trkpt lat="50.763221019878983" lon="13.825015034526587">
        <ele>590.38999999999999</ele>
        <time>2024-09-19T09:26:38Z</time>
      </trkpt>
      <trkpt lat="50.763173997402191" lon="13.825051998719573">
        <ele>591.35000000000002</ele>
        <time>2024-09-19T09:26:39Z</time>
      </trkpt>
      <trkpt lat="50.763113982975483" lon="13.825100027024746">
        <ele>591.83000000000004</ele>
        <time>2024-09-19T09:26:40Z</time>
      </trkpt>
      <trkpt lat="50.76304298825562" lon="13.825157023966312">
        <ele>592.30999999999995</ele>
        <time>2024-09-19T09:26:41Z</time>
      </trkpt>
      <trkpt lat="50.76295698992908" lon="13.825225001201034">
        <ele>592.78999999999996</ele>
        <time>2024-09-19T09:26:42Z</time>
      </trkpt>
      <trkpt lat="50.762860011309385" lon="13.825303036719561">
        <ele>592.78999999999996</ele>
        <time>2024-09-19T09:26:43Z</time>
      </trkpt>
      <trkpt lat="50.762758003547788" lon="13.825399009510875">
        <ele>593.26999999999998</ele>
        <time>2024-09-19T09:26:44Z</time>
      </trkpt>
      <trkpt lat="50.762665970250964" lon="13.825502023100853">
        <ele>593.75</ele>
        <time>2024-09-19T09:26:45Z</time>
      </trkpt>
      <trkpt lat="50.762564968317747" lon="13.825543010607362">
        <ele>594.71000000000004</ele>
        <time>2024-09-19T09:26:46Z</time>
      </trkpt>
      <trkpt lat="50.762459021061659" lon="13.825543010607362">
        <ele>595.19000000000005</ele>
        <time>2024-09-19T09:26:47Z</time>
      </trkpt>
      <trkpt lat="50.762356007471681" lon="13.825501017272472">
        <ele>595.66999999999996</ele>
        <time>2024-09-19T09:26:48Z</time>
      </trkpt>
      <trkpt lat="50.762261962518096" lon="13.825396997854114">
        <ele>596.63999999999999</ele>
        <time>2024-09-19T09:26:49Z</time>
      </trkpt>
      <trkpt lat="50.76216297224164" lon="13.8252819981426">
        <ele>597.60000000000002</ele>
        <time>2024-09-19T09:26:50Z</time>
      </trkpt>
      <trkpt lat="50.761480014771223" lon="13.824553024023771">
        <ele>600.96000000000004</ele>
        <time>2024-09-19T09:26:56Z</time>
      </trkpt>
      <trkpt lat="50.761342970654368" lon="13.824459984898567">
        <ele>601.44000000000005</ele>
        <time>2024-09-19T09:26:57Z</time>
      </trkpt>
      <trkpt lat="50.761186983436346" lon="13.8244220148772">
        <ele>601.91999999999996</ele>
        <time>2024-09-19T09:26:58Z</time>
      </trkpt>
      <trkpt lat="50.761023033410311" lon="13.824381027370691">
        <ele>602.39999999999998</ele>
        <time>2024-09-19T09:26:59Z</time>
      </trkpt>
      <trkpt lat="50.760848019272089" lon="13.824338028207421">
        <ele>603.36000000000001</ele>
        <time>2024-09-19T09:27:00Z</time>
      </trkpt>
      <trkpt lat="50.758988996967673" lon="13.823880963027477">
        <ele>610.57000000000005</ele>
        <time>2024-09-19T09:27:10Z</time>
      </trkpt>
      <trkpt lat="50.757729029282928" lon="13.823954975232482">
        <ele>616.82000000000005</ele>
        <time>2024-09-19T09:27:17Z</time>
      </trkpt>
      <trkpt lat="50.757116982713342" lon="13.824147004634142">
        <ele>620.19000000000005</ele>
        <time>2024-09-19T09:27:20Z</time>
      </trkpt>
      <trkpt lat="50.755785014480352" lon="13.824571967124939">
        <ele>628.36000000000001</ele>
        <time>2024-09-19T09:27:27Z</time>
      </trkpt>
      <trkpt lat="50.755597008392215" lon="13.824621001258492">
        <ele>629.79999999999995</ele>
        <time>2024-09-19T09:27:28Z</time>
      </trkpt>
      <trkpt lat="50.754164960235357" lon="13.825159035623074">
        <ele>639.40999999999997</ele>
        <time>2024-09-19T09:27:35Z</time>
      </trkpt>
      <trkpt lat="50.752071999013424" lon="13.826144998893142">
        <ele>662.49000000000001</ele>
        <time>2024-09-19T09:27:45Z</time>
      </trkpt>
      <trkpt lat="50.750296963378787" lon="13.827091986313462">
        <ele>677.38999999999999</ele>
        <time>2024-09-19T09:27:53Z</time>
      </trkpt>
      <trkpt lat="50.749087035655975" lon="13.828122960403562">
        <ele>684.60000000000002</ele>
        <time>2024-09-19T09:27:59Z</time>
      </trkpt>
      <trkpt lat="50.748033011332154" lon="13.828672980889678">
        <ele>688.44000000000005</ele>
        <time>2024-09-19T09:28:05Z</time>
      </trkpt>
      <trkpt lat="50.74787300080061" lon="13.828803990036249">
        <ele>688.91999999999996</ele>
        <time>2024-09-19T09:28:06Z</time>
      </trkpt>
      <trkpt lat="50.747736040502787" lon="13.828996019437909">
        <ele>689.88</ele>
        <time>2024-09-19T09:28:07Z</time>
      </trkpt>
      <trkpt lat="50.747604025527835" lon="13.829200034961104">
        <ele>690.36000000000001</ele>
        <time>2024-09-19T09:28:08Z</time>
      </trkpt>
      <trkpt lat="50.747476033866405" lon="13.829398015514016">
        <ele>690.36000000000001</ele>
        <time>2024-09-19T09:28:09Z</time>
      </trkpt>
      <trkpt lat="50.747239999473095" lon="13.829763969406486">
        <ele>690.36000000000001</ele>
        <time>2024-09-19T09:28:11Z</time>
      </trkpt>
      <trkpt lat="50.747116031125188" lon="13.829902019351721">
        <ele>690.36000000000001</ele>
        <time>2024-09-19T09:28:12Z</time>
      </trkpt>
      <trkpt lat="50.746979992836714" lon="13.829996986314654">
        <ele>689.88</ele>
        <time>2024-09-19T09:28:13Z</time>
      </trkpt>
      <trkpt lat="50.74583301320672" lon="13.830743981525302">
        <ele>688.44000000000005</ele>
        <time>2024-09-19T09:28:22Z</time>
      </trkpt>
      <trkpt lat="50.745716001838446" lon="13.830831991508603">
        <ele>688.44000000000005</ele>
        <time>2024-09-19T09:28:23Z</time>
      </trkpt>
      <trkpt lat="50.745598990470171" lon="13.830922013148665">
        <ele>688.44000000000005</ele>
        <time>2024-09-19T09:28:24Z</time>
      </trkpt>
      <trkpt lat="50.744920978322625" lon="13.831390980631113">
        <ele>690.84000000000003</ele>
        <time>2024-09-19T09:28:30Z</time>
      </trkpt>
      <trkpt lat="50.744817964732647" lon="13.83140497840941">
        <ele>691.33000000000004</ele>
        <time>2024-09-19T09:28:31Z</time>
      </trkpt>
      <trkpt lat="50.744701037183404" lon="13.831411013379693">
        <ele>691.80999999999995</ele>
        <time>2024-09-19T09:28:32Z</time>
      </trkpt>
      <trkpt lat="50.74458503164351" lon="13.831415958702564">
        <ele>691.80999999999995</ele>
        <time>2024-09-19T09:28:33Z</time>
      </trkpt>
      <trkpt lat="50.744455028325319" lon="13.831421993672848">
        <ele>692.28999999999996</ele>
        <time>2024-09-19T09:28:34Z</time>
      </trkpt>
      <trkpt lat="50.74437003582716" lon="13.831396009773016">
        <ele>692.76999999999998</ele>
        <time>2024-09-19T09:28:35Z</time>
      </trkpt>
      <trkpt lat="50.743474010378122" lon="13.831117982044816">
        <ele>695.64999999999998</ele>
        <time>2024-09-19T09:28:45Z</time>
      </trkpt>
      <trkpt lat="50.742683010175824" lon="13.830765020102262">
        <ele>701.41999999999996</ele>
        <time>2024-09-19T09:28:53Z</time>
      </trkpt>
      <trkpt lat="50.74258703738451" lon="13.830685978755355">
        <ele>702.38</ele>
        <time>2024-09-19T09:28:54Z</time>
      </trkpt>
      <trkpt lat="50.742303980514407" lon="13.830452039837837">
        <ele>705.25999999999999</ele>
        <time>2024-09-19T09:28:57Z</time>
      </trkpt>
      <trkpt lat="50.742212031036615" lon="13.830375010147691">
        <ele>706.23000000000002</ele>
        <time>2024-09-19T09:28:58Z</time>
      </trkpt>
      <trkpt lat="50.741911958903074" lon="13.83018197491765">
        <ele>709.59000000000003</ele>
        <time>2024-09-19T09:29:01Z</time>
      </trkpt>
      <trkpt lat="50.741805005818605" lon="13.830129001289606">
        <ele>710.54999999999995</ele>
        <time>2024-09-19T09:29:02Z</time>
      </trkpt>
      <trkpt lat="50.741696041077375" lon="13.830109974369407">
        <ele>711.50999999999999</ele>
        <time>2024-09-19T09:29:03Z</time>
      </trkpt>
      <trkpt lat="50.741486996412277" lon="13.830074016004801">
        <ele>712.95000000000005</ele>
        <time>2024-09-19T09:29:05Z</time>
      </trkpt>
      <trkpt lat="50.741273006424308" lon="13.830064963549376">
        <ele>714.39999999999998</ele>
        <time>2024-09-19T09:29:07Z</time>
      </trkpt>
      <trkpt lat="50.741167981177568" lon="13.830088013783097">
        <ele>714.88</ele>
        <time>2024-09-19T09:29:08Z</time>
      </trkpt>
      <trkpt lat="50.741069996729493" lon="13.830147022381425">
        <ele>715.84000000000003</ele>
        <time>2024-09-19T09:29:09Z</time>
      </trkpt>
      <trkpt lat="50.740430038422346" lon="13.830581959336996">
        <ele>720.64999999999998</ele>
        <time>2024-09-19T09:29:16Z</time>
      </trkpt>
      <trkpt lat="50.740335993468761" lon="13.830644991248846">
        <ele>721.61000000000001</ele>
        <time>2024-09-19T09:29:17Z</time>
      </trkpt>
      <trkpt lat="50.740243038162589" lon="13.830709028989077">
        <ele>722.57000000000005</ele>
        <time>2024-09-19T09:29:18Z</time>
      </trkpt>
      <trkpt lat="50.740154022350907" lon="13.830768959596753">
        <ele>723.04999999999995</ele>
        <time>2024-09-19T09:29:19Z</time>
      </trkpt>
      <trkpt lat="50.740065006539226" lon="13.830828974023461">
        <ele>724.00999999999999</ele>
        <time>2024-09-19T09:29:20Z</time>
      </trkpt>
      <trkpt lat="50.739351036027074" lon="13.831065008416772">
        <ele>729.29999999999995</ele>
        <time>2024-09-19T09:29:28Z</time>
      </trkpt>
      <trkpt lat="50.739291021600366" lon="13.83108202368021">
        <ele>729.77999999999997</ele>
        <time>2024-09-19T09:29:29Z</time>
      </trkpt>
      <trkpt lat="50.739224972203374" lon="13.83099895901978">
        <ele>730.25999999999999</ele>
        <time>2024-09-19T09:29:30Z</time>
      </trkpt>
      <trkpt lat="50.739170992746949" lon="13.830944979563355">
        <ele>730.74000000000001</ele>
        <time>2024-09-19T09:29:31Z</time>
      </trkpt>
      <trkpt lat="50.739107960835099" lon="13.830874990671873">
        <ele>731.22000000000003</ele>
        <time>2024-09-19T09:29:32Z</time>
      </trkpt>
      <trkpt lat="50.73906697332859" lon="13.830777006223798">
        <ele>731.22000000000003</ele>
        <time>2024-09-19T09:29:33Z</time>
      </trkpt>
      <trkpt lat="50.739030009135604" lon="13.830685978755355">
        <ele>731.70000000000005</ele>
        <time>2024-09-19T09:29:34Z</time>
      </trkpt>
      <trkpt lat="50.739002013579011" lon="13.830618001520634">
        <ele>732.17999999999995</ele>
        <time>2024-09-19T09:29:35Z</time>
      </trkpt>
      <trkpt lat="50.738962031900883" lon="13.830521022900939">
        <ele>732.17999999999995</ele>
        <time>2024-09-19T09:29:36Z</time>
      </trkpt>
      <trkpt lat="50.739068984985352" lon="13.830455979332328">
        <ele>732.65999999999997</ele>
        <time>2024-09-19T09:29:38Z</time>
      </trkpt>
      <trkpt lat="50.739204017445445" lon="13.830371992662549">
        <ele>732.65999999999997</ele>
        <time>2024-09-19T09:29:39Z</time>
      </trkpt>
      <trkpt lat="50.739617999643087" lon="13.83011600933969">
        <ele>732.17999999999995</ele>
        <time>2024-09-19T09:29:43Z</time>
      </trkpt>
      <trkpt lat="50.739692011848092" lon="13.830067981034517">
        <ele>731.70000000000005</ele>
        <time>2024-09-19T09:29:44Z</time>
      </trkpt>
      <trkpt lat="50.739734005182981" lon="13.829917022958398">
        <ele>731.22000000000003</ele>
        <time>2024-09-19T09:29:45Z</time>
      </trkpt>
      <trkpt lat="50.739755965769291" lon="13.829779978841543">
        <ele>730.25999999999999</ele>
        <time>2024-09-19T09:29:46Z</time>
      </trkpt>
      <trkpt lat="50.739755965769291" lon="13.829594990238547">
        <ele>730.25999999999999</ele>
        <time>2024-09-19T09:29:47Z</time>
      </trkpt>
      <trkpt lat="50.739755965769291" lon="13.829397009685636">
        <ele>730.25999999999999</ele>
        <time>2024-09-19T09:29:48Z</time>
      </trkpt>
      <trkpt lat="50.739739034324884" lon="13.828563010320067">
        <ele>731.70000000000005</ele>
        <time>2024-09-19T09:29:52Z</time>
      </trkpt>
      <trkpt lat="50.739779016003013" lon="13.828309960663319">
        <ele>732.65999999999997</ele>
        <time>2024-09-19T09:29:53Z</time>
      </trkpt>
      <trkpt lat="50.739853028208017" lon="13.828132012858987">
        <ele>733.13999999999999</ele>
        <time>2024-09-19T09:29:54Z</time>
      </trkpt>
      <trkpt lat="50.740099959075451" lon="13.827529018744826">
        <ele>737.95000000000005</ele>
        <time>2024-09-19T09:29:59Z</time>
      </trkpt>
      <trkpt lat="50.740113034844398" lon="13.827496999874711">
        <ele>740.83000000000004</ele>
        <time>2024-09-19T09:30:06Z</time>
      </trkpt>
      <trkpt lat="50.74011898599565" lon="13.827484007924795">
        <ele>740.83000000000004</ele>
        <time>2024-09-19T09:30:20Z</time>
      </trkpt>
      <trkpt lat="50.740130972117186" lon="13.82745299488306">
        <ele>742.27999999999997</ele>
        <time>2024-09-19T09:30:21Z</time>
      </trkpt>
      <trkpt lat="50.740165002644062" lon="13.827371019870043">
        <ele>743.72000000000003</ele>
        <time>2024-09-19T09:30:22Z</time>
      </trkpt>
      <trkpt lat="50.740648973733187" lon="13.826300986111164">
        <ele>747.55999999999995</ele>
        <time>2024-09-19T09:30:29Z</time>
      </trkpt>
      <trkpt lat="50.74127996340394" lon="13.825286021456122">
        <ele>744.67999999999995</ele>
        <time>2024-09-19T09:30:35Z</time>
      </trkpt>
      <trkpt lat="50.741283986717463" lon="13.824958959594369">
        <ele>743.24000000000001</ele>
        <time>2024-09-19T09:30:36Z</time>
      </trkpt>
      <trkpt lat="50.741288010030985" lon="13.824709011241794">
        <ele>742.27999999999997</ele>
        <time>2024-09-19T09:30:37Z</time>
      </trkpt>
      <trkpt lat="50.741292033344507" lon="13.8244410417974">
        <ele>741.78999999999996</ele>
        <time>2024-09-19T09:30:38Z</time>
      </trkpt>
      <trkpt lat="50.741295972838998" lon="13.824153961613774">
        <ele>741.30999999999995</ele>
        <time>2024-09-19T09:30:39Z</time>
      </trkpt>
      <trkpt lat="50.74129999615252" lon="13.823854979127645">
        <ele>741.30999999999995</ele>
        <time>2024-09-19T09:30:40Z</time>
      </trkpt>
      <trkpt lat="50.741339977830648" lon="13.823558008298278">
        <ele>741.78999999999996</ele>
        <time>2024-09-19T09:30:41Z</time>
      </trkpt>
      <trkpt lat="50.741394963115454" lon="13.82326397113502">
        <ele>741.78999999999996</ele>
        <time>2024-09-19T09:30:42Z</time>
      </trkpt>
      <trkpt lat="50.741481967270374" lon="13.822988038882613">
        <ele>742.75999999999999</ele>
        <time>2024-09-19T09:30:43Z</time>
      </trkpt>
      <trkpt lat="50.741604007780552" lon="13.822753010317683">
        <ele>743.24000000000001</ele>
        <time>2024-09-19T09:30:44Z</time>
      </trkpt>
      <trkpt lat="50.741745997220278" lon="13.822546983137727">
        <ele>744.20000000000005</ele>
        <time>2024-09-19T09:30:45Z</time>
      </trkpt>
      <trkpt lat="50.741891004145145" lon="13.822335004806519">
        <ele>745.15999999999997</ele>
        <time>2024-09-19T09:30:46Z</time>
      </trkpt>
      <trkpt lat="50.743280975148082" lon="13.820360982790589">
        <ele>749</ele>
        <time>2024-09-19T09:30:55Z</time>
      </trkpt>
      <trkpt lat="50.743381977081299" lon="13.820153027772903">
        <ele>749</ele>
        <time>2024-09-19T09:30:56Z</time>
      </trkpt>
      <trkpt lat="50.743474010378122" lon="13.819964015856385">
        <ele>749</ele>
        <time>2024-09-19T09:30:57Z</time>
      </trkpt>
      <trkpt lat="50.743567971512675" lon="13.819771986454725">
        <ele>749</ele>
        <time>2024-09-19T09:30:58Z</time>
      </trkpt>
      <trkpt lat="50.743663022294641" lon="13.819575011730194">
        <ele>749.49000000000001</ele>
        <time>2024-09-19T09:30:59Z</time>
      </trkpt>
      <trkpt lat="50.743795037269592" lon="13.819446014240384">
        <ele>749.97000000000003</ele>
        <time>2024-09-19T09:31:00Z</time>
      </trkpt>
      <trkpt lat="50.743938032537699" lon="13.819332020357251">
        <ele>749.97000000000003</ele>
        <time>2024-09-19T09:31:01Z</time>
      </trkpt>
      <trkpt lat="50.744083961471915" lon="13.819216014817357">
        <ele>750.45000000000005</ele>
        <time>2024-09-19T09:31:02Z</time>
      </trkpt>
      <trkpt lat="50.744228968396783" lon="13.819101015105844">
        <ele>750.92999999999995</ele>
        <time>2024-09-19T09:31:03Z</time>
      </trkpt>
      <trkpt lat="50.744371963664889" lon="13.818987021222711">
        <ele>751.40999999999997</ele>
        <time>2024-09-19T09:31:04Z</time>
      </trkpt>
      <trkpt lat="50.744514958932996" lon="13.818873027339578">
        <ele>752.37</ele>
        <time>2024-09-19T09:31:05Z</time>
      </trkpt>
      <trkpt lat="50.744654014706612" lon="13.818739000707865">
        <ele>752.85000000000002</ele>
        <time>2024-09-19T09:31:06Z</time>
      </trkpt>
      <trkpt lat="50.744744036346674" lon="13.818536996841431">
        <ele>752.85000000000002</ele>
        <time>2024-09-19T09:31:07Z</time>
      </trkpt>
      <trkpt lat="50.744821988046169" lon="13.818329963833094">
        <ele>752.85000000000002</ele>
        <time>2024-09-19T09:31:08Z</time>
      </trkpt>
      <trkpt lat="50.744901029393077" lon="13.818118991330266">
        <ele>752.37</ele>
        <time>2024-09-19T09:31:09Z</time>
      </trkpt>
      <trkpt lat="50.745680965483189" lon="13.81608503870666">
        <ele>745.15999999999997</ele>
        <time>2024-09-19T09:31:17Z</time>
      </trkpt>
      <trkpt lat="50.747023997828364" lon="13.812936963513494">
        <ele>728.34000000000003</ele>
        <time>2024-09-19T09:31:28Z</time>
      </trkpt>
      <trkpt lat="50.748605998232961" lon="13.810076974332333">
        <ele>721.61000000000001</ele>
        <time>2024-09-19T09:31:39Z</time>
      </trkpt>
      <trkpt lat="50.748726027086377" lon="13.809821996837854">
        <ele>723.04999999999995</ele>
        <time>2024-09-19T09:31:40Z</time>
      </trkpt>
      <trkpt lat="50.748801967129111" lon="13.809545980766416">
        <ele>724.49000000000001</ele>
        <time>2024-09-19T09:31:41Z</time>
      </trkpt>
      <trkpt lat="50.749308988451958" lon="13.808078980073333">
        <ele>733.13999999999999</ele>
        <time>2024-09-19T09:31:47Z</time>
      </trkpt>
      <trkpt lat="50.749443015083671" lon="13.807916035875678">
        <ele>734.10000000000002</ele>
        <time>2024-09-19T09:31:48Z</time>
      </trkpt>
      <trkpt lat="50.749567989259958" lon="13.807763988152146">
        <ele>734.58000000000004</ele>
        <time>2024-09-19T09:31:49Z</time>
      </trkpt>
      <trkpt lat="50.749687012284994" lon="13.807618981227279">
        <ele>735.07000000000005</ele>
        <time>2024-09-19T09:31:50Z</time>
      </trkpt>
      <trkpt lat="50.749818021431565" lon="13.807498030364513">
        <ele>735.07000000000005</ele>
        <time>2024-09-19T09:31:51Z</time>
      </trkpt>
      <trkpt lat="50.75068898499012" lon="13.806795962154865">
        <ele>732.17999999999995</ele>
        <time>2024-09-19T09:31:57Z</time>
      </trkpt>
      <trkpt lat="50.750829968601465" lon="13.806651039049029">
        <ele>731.22000000000003</ele>
        <time>2024-09-19T09:31:58Z</time>
      </trkpt>
      <trkpt lat="50.75137697160244" lon="13.806117027997971">
        <ele>727.86000000000001</ele>
        <time>2024-09-19T09:32:02Z</time>
      </trkpt>
      <trkpt lat="50.751495994627476" lon="13.806039998307824">
        <ele>726.88999999999999</ele>
        <time>2024-09-19T09:32:03Z</time>
      </trkpt>
      <trkpt lat="50.751980971544981" lon="13.805791977792978">
        <ele>724.00999999999999</ele>
        <time>2024-09-19T09:32:08Z</time>
      </trkpt>
      <trkpt lat="50.75206596404314" lon="13.805766999721527">
        <ele>723.52999999999997</ele>
        <time>2024-09-19T09:32:09Z</time>
      </trkpt>
      <trkpt lat="50.75214802287519" lon="13.805778985843062">
        <ele>722.57000000000005</ele>
        <time>2024-09-19T09:32:10Z</time>
      </trkpt>
      <trkpt lat="50.752231003716588" lon="13.805809998884797">
        <ele>722.09000000000003</ele>
        <time>2024-09-19T09:32:11Z</time>
      </trkpt>
      <trkpt lat="50.752306021749973" lon="13.805866995826364">
        <ele>721.61000000000001</ele>
        <time>2024-09-19T09:32:12Z</time>
      </trkpt>
      <trkpt lat="50.752382967621088" lon="13.805952994152904">
        <ele>720.64999999999998</ele>
        <time>2024-09-19T09:32:13Z</time>
      </trkpt>
      <trkpt lat="50.752467960119247" lon="13.806047039106488">
        <ele>719.67999999999995</ele>
        <time>2024-09-19T09:32:14Z</time>
      </trkpt>
      <trkpt lat="50.7531370036304" lon="13.80674097687006">
        <ele>716.79999999999995</ele>
        <time>2024-09-19T09:32:22Z</time>
      </trkpt>
      <trkpt lat="50.753218978643417" lon="13.806782970204949">
        <ele>716.79999999999995</ele>
        <time>2024-09-19T09:32:23Z</time>
      </trkpt>
      <trkpt lat="50.753297014161944" lon="13.806798979640007">
        <ele>716.32000000000005</ele>
        <time>2024-09-19T09:32:24Z</time>
      </trkpt>
      <trkpt lat="50.753377983346581" lon="13.806754974648356">
        <ele>715.84000000000003</ele>
        <time>2024-09-19T09:32:25Z</time>
      </trkpt>
      <trkpt lat="50.753465993329883" lon="13.806708035990596">
        <ele>715.36000000000001</ele>
        <time>2024-09-19T09:32:26Z</time>
      </trkpt>
      <trkpt lat="50.753559032455087" lon="13.806657996028662">
        <ele>714.88</ele>
        <time>2024-09-19T09:32:27Z</time>
      </trkpt>
      <trkpt lat="50.754063036292791" lon="13.806388014927506">
        <ele>709.11000000000001</ele>
        <time>2024-09-19T09:32:33Z</time>
      </trkpt>
      <trkpt lat="50.754417004063725" lon="13.806113004684448">
        <ele>701.41999999999996</ele>
        <time>2024-09-19T09:32:40Z</time>
      </trkpt>
      <trkpt lat="50.754494033753872" lon="13.806020971387625">
        <ele>699.01999999999998</ele>
        <time>2024-09-19T09:32:42Z</time>
      </trkpt>
      <trkpt lat="50.754870967939496" lon="13.805438010022044">
        <ele>691.80999999999995</ele>
        <time>2024-09-19T09:32:52Z</time>
      </trkpt>
      <trkpt lat="50.754888989031315" lon="13.80532200448215">
        <ele>690.84000000000003</ele>
        <time>2024-09-19T09:32:54Z</time>
      </trkpt>
      <trkpt lat="50.754873985424638" lon="13.805311024188995">
        <ele>689.88</ele>
        <time>2024-09-19T09:32:55Z</time>
      </trkpt>
      <trkpt lat="50.75485797598958" lon="13.805298032239079">
        <ele>689.39999999999998</ele>
        <time>2024-09-19T09:32:56Z</time>
      </trkpt>
      <trkpt lat="50.75485797598958" lon="13.805298032239079">
        <ele>688.91999999999996</ele>
        <time>2024-09-19T09:32:57Z</time>
      </trkpt>
      <trkpt lat="50.75485797598958" lon="13.805298032239079">
        <ele>687.48000000000002</ele>
        <time>2024-09-19T09:33:14Z</time>
      </trkpt>
      <trkpt lat="50.754584977403283" lon="13.805089993402362">
        <ele>686.51999999999998</ele>
        <time>2024-09-19T09:33:28Z</time>
      </trkpt>
      <trkpt lat="50.753788026049733" lon="13.804481970146298">
        <ele>683.63</ele>
        <time>2024-09-19T09:33:36Z</time>
      </trkpt>
      <trkpt lat="50.753565989434719" lon="13.804299999028444">
        <ele>681.71000000000004</ele>
        <time>2024-09-19T09:33:39Z</time>
      </trkpt>
      <trkpt lat="50.753456018865108" lon="13.804209977388382">
        <ele>680.75</ele>
        <time>2024-09-19T09:33:40Z</time>
      </trkpt>
      <trkpt lat="50.753282010555267" lon="13.803964974358678">
        <ele>679.78999999999996</ele>
        <time>2024-09-19T09:33:41Z</time>
      </trkpt>
      <trkpt lat="50.753231970593333" lon="13.80385902710259">
        <ele>677.87</ele>
        <time>2024-09-19T09:33:43Z</time>
      </trkpt>
      <trkpt lat="50.753261977806687" lon="13.803630033507943">
        <ele>676.41999999999996</ele>
        <time>2024-09-19T09:33:44Z</time>
      </trkpt>
      <trkpt lat="50.753302965313196" lon="13.803504975512624">
        <ele>675.46000000000004</ele>
        <time>2024-09-19T09:33:45Z</time>
      </trkpt>
      <trkpt lat="50.753385024145246" lon="13.803401961922646">
        <ele>674.01999999999998</ele>
        <time>2024-09-19T09:33:46Z</time>
      </trkpt>
      <trkpt lat="50.753506980836391" lon="13.803292997181416">
        <ele>673.05999999999995</ele>
        <time>2024-09-19T09:33:47Z</time>
      </trkpt>
      <trkpt lat="50.753643019124866" lon="13.803171962499619">
        <ele>671.62</ele>
        <time>2024-09-19T09:33:48Z</time>
      </trkpt>
      <trkpt lat="50.753776961937547" lon="13.803042965009809">
        <ele>670.17999999999995</ele>
        <time>2024-09-19T09:33:49Z</time>
      </trkpt>
      <trkpt lat="50.753909982740879" lon="13.802900975570083">
        <ele>669.22000000000003</ele>
        <time>2024-09-19T09:33:50Z</time>
      </trkpt>
      <trkpt lat="50.75404099188745" lon="13.802752029150724">
        <ele>667.76999999999998</ele>
        <time>2024-09-19T09:33:51Z</time>
      </trkpt>
      <trkpt lat="50.754155991598964" lon="13.802567040547729">
        <ele>666.33000000000004</ele>
        <time>2024-09-19T09:33:52Z</time>
      </trkpt>
      <trkpt lat="50.754265040159225" lon="13.802374005317688">
        <ele>664.88999999999999</ele>
        <time>2024-09-19T09:33:53Z</time>
      </trkpt>
      <trkpt lat="50.754355983808637" lon="13.802153980359435">
        <ele>663.45000000000005</ele>
        <time>2024-09-19T09:33:54Z</time>
      </trkpt>
      <trkpt lat="50.75444701127708" lon="13.801935967057943">
        <ele>662.00999999999999</ele>
        <time>2024-09-19T09:33:55Z</time>
      </trkpt>
      <trkpt lat="50.754536027088761" lon="13.801722982898355">
        <ele>660.55999999999995</ele>
        <time>2024-09-19T09:33:56Z</time>
      </trkpt>
      <trkpt lat="50.754980016499758" lon="13.7999920360744">
        <ele>648.54999999999995</ele>
        <time>2024-09-19T09:34:04Z</time>
      </trkpt>
      <trkpt lat="50.75511203147471" lon="13.799129035323858">
        <ele>642.29999999999995</ele>
        <time>2024-09-19T09:34:09Z</time>
      </trkpt>
      <trkpt lat="50.755204986780882" lon="13.798268968239427">
        <ele>635.57000000000005</ele>
        <time>2024-09-19T09:34:15Z</time>
      </trkpt>
      <trkpt lat="50.755486031994224" lon="13.796443976461887">
        <ele>628.36000000000001</ele>
        <time>2024-09-19T09:34:27Z</time>
      </trkpt>
      <trkpt lat="50.755594996735454" lon="13.795985989272594">
        <ele>627.39999999999998</ele>
        <time>2024-09-19T09:34:31Z</time>
      </trkpt>
      <trkpt lat="50.755637995898724" lon="13.79589001648128">
        <ele>627.39999999999998</ele>
        <time>2024-09-19T09:34:32Z</time>
      </trkpt>
      <trkpt lat="50.755688035860658" lon="13.795806029811502">
        <ele>626.91999999999996</ele>
        <time>2024-09-19T09:34:33Z</time>
      </trkpt>
      <trkpt lat="50.756108975037932" lon="13.795219967141747">
        <ele>626.44000000000005</ele>
        <time>2024-09-19T09:34:40Z</time>
      </trkpt>
      <trkpt lat="50.756177958101034" lon="13.795143021270633">
        <ele>626.91999999999996</ele>
        <time>2024-09-19T09:34:41Z</time>
      </trkpt>
      <trkpt lat="50.756244007498026" lon="13.795070014894009">
        <ele>627.39999999999998</ele>
        <time>2024-09-19T09:34:42Z</time>
      </trkpt>
      <trkpt lat="50.756436958909035" lon="13.79485703073442">
        <ele>627.88</ele>
        <time>2024-09-19T09:34:45Z</time>
      </trkpt>
      <trkpt lat="50.756496973335743" lon="13.794785030186176">
        <ele>628.36000000000001</ele>
        <time>2024-09-19T09:34:46Z</time>
      </trkpt>
      <trkpt lat="50.756542989984155" lon="13.79468897357583">
        <ele>628.84000000000003</ele>
        <time>2024-09-19T09:34:47Z</time>
      </trkpt>
      <trkpt lat="50.757028972730041" lon="13.79367602057755">
        <ele>630.75999999999999</ele>
        <time>2024-09-19T09:34:59Z</time>
      </trkpt>
      <trkpt lat="50.757448989897966" lon="13.792894994840026">
        <ele>626.44000000000005</ele>
        <time>2024-09-19T09:35:08Z</time>
      </trkpt>
      <trkpt lat="50.757501963526011" lon="13.792841015383601">
        <ele>625.96000000000004</ele>
        <time>2024-09-19T09:35:09Z</time>
      </trkpt>
      <trkpt lat="50.757682006806135" lon="13.792660972103477">
        <ele>623.54999999999995</ele>
        <time>2024-09-19T09:35:12Z</time>
      </trkpt>
      <trkpt lat="50.757747972384095" lon="13.792596012353897">
        <ele>623.54999999999995</ele>
        <time>2024-09-19T09:35:13Z</time>
      </trkpt>
      <trkpt lat="50.757884010672569" lon="13.792467014864087">
        <ele>622.59000000000003</ele>
        <time>2024-09-19T09:35:15Z</time>
      </trkpt>
      <trkpt lat="50.757949976250529" lon="13.792403982952237">
        <ele>622.59000000000003</ele>
        <time>2024-09-19T09:35:16Z</time>
      </trkpt>
      <trkpt lat="50.758022982627153" lon="13.792334999889135">
        <ele>623.07000000000005</ele>
        <time>2024-09-19T09:35:17Z</time>
      </trkpt>
      <trkpt lat="50.75816597789526" lon="13.792198961600661">
        <ele>623.07000000000005</ele>
        <time>2024-09-19T09:35:19Z</time>
      </trkpt>
      <trkpt lat="50.758234960958362" lon="13.792146993800998">
        <ele>623.54999999999995</ele>
        <time>2024-09-19T09:35:20Z</time>
      </trkpt>
      <trkpt lat="50.758312996476889" lon="13.792088991031051">
        <ele>623.54999999999995</ele>
        <time>2024-09-19T09:35:21Z</time>
      </trkpt>
      <trkpt lat="50.758462026715279" lon="13.791977008804679">
        <ele>623.07000000000005</ele>
        <time>2024-09-19T09:35:23Z</time>
      </trkpt>
      <trkpt lat="50.758643997833133" lon="13.791811969131231">
        <ele>622.59000000000003</ele>
        <time>2024-09-19T09:35:26Z</time>
      </trkpt>
      <trkpt lat="50.758693031966686" lon="13.79174399189651">
        <ele>622.11000000000001</ele>
        <time>2024-09-19T09:35:27Z</time>
      </trkpt>
      <trkpt lat="50.758793028071523" lon="13.791609965264797">
        <ele>621.14999999999998</ele>
        <time>2024-09-19T09:35:29Z</time>
      </trkpt>
      <trkpt lat="50.758847007527947" lon="13.791536958888173">
        <ele>620.66999999999996</ele>
        <time>2024-09-19T09:35:30Z</time>
      </trkpt>
      <trkpt lat="50.758950021117926" lon="13.791397986933589">
        <ele>620.19000000000005</ele>
        <time>2024-09-19T09:35:32Z</time>
      </trkpt>
      <trkpt lat="50.759016992524266" lon="13.791340989992023">
        <ele>620.19000000000005</ele>
        <time>2024-09-19T09:35:33Z</time>
      </trkpt>
      <trkpt lat="50.759188989177346" lon="13.791210986673832">
        <ele>620.19000000000005</ele>
        <time>2024-09-19T09:35:36Z</time>
      </trkpt>
      <trkpt lat="50.759255960583687" lon="13.79116103053093">
        <ele>619.71000000000004</ele>
        <time>2024-09-19T09:35:37Z</time>
      </trkpt>
      <trkpt lat="50.759322009980679" lon="13.791111996397376">
        <ele>619.71000000000004</ele>
        <time>2024-09-19T09:35:38Z</time>
      </trkpt>
      <trkpt lat="50.759894996881485" lon="13.790269028395414">
        <ele>620.66999999999996</ele>
        <time>2024-09-19T09:35:49Z</time>
      </trkpt>
      <trkpt lat="50.75992600992322" lon="13.790167020633817">
        <ele>620.66999999999996</ele>
        <time>2024-09-19T09:35:50Z</time>
      </trkpt>
      <trkpt lat="50.760083002969623" lon="13.789863009005785">
        <ele>622.11000000000001</ele>
        <time>2024-09-19T09:35:57Z</time>
      </trkpt>
      <trkpt lat="50.760252987965941" lon="13.789571989327669">
        <ele>623.07000000000005</ele>
        <time>2024-09-19T09:36:05Z</time>
      </trkpt>
      <trkpt lat="50.760438982397318" lon="13.789232019335032">
        <ele>623.54999999999995</ele>
        <time>2024-09-19T09:36:10Z</time>
      </trkpt>
      <trkpt lat="50.760475024580956" lon="13.789149960502982">
        <ele>624.02999999999997</ele>
        <time>2024-09-19T09:36:11Z</time>
      </trkpt>
      <trkpt lat="50.76078599318862" lon="13.788269022479653">
        <ele>620.19000000000005</ele>
        <time>2024-09-19T09:36:22Z</time>
      </trkpt>
      <trkpt lat="50.76132302172482" lon="13.787392023950815">
        <ele>614.89999999999998</ele>
        <time>2024-09-19T09:36:33Z</time>
      </trkpt>
      <trkpt lat="50.761655028909445" lon="13.786826999858022">
        <ele>612.01999999999998</ele>
        <time>2024-09-19T09:36:40Z</time>
      </trkpt>
      <trkpt lat="50.761694004759192" lon="13.786736978217959">
        <ele>611.53999999999996</ele>
        <time>2024-09-19T09:36:41Z</time>
      </trkpt>
      <trkpt lat="50.761857032775879" lon="13.786355014890432">
        <ele>610.09000000000003</ele>
        <time>2024-09-19T09:36:48Z</time>
      </trkpt>
      <trkpt lat="50.761899026110768" lon="13.786257030442357">
        <ele>609.61000000000001</ele>
        <time>2024-09-19T09:36:51Z</time>
      </trkpt>
      <trkpt lat="50.76192400418222" lon="13.78619902767241">
        <ele>609.61000000000001</ele>
        <time>2024-09-19T09:36:52Z</time>
      </trkpt>
      <trkpt lat="50.761950993910432" lon="13.786137001588941">
        <ele>610.09000000000003</ele>
        <time>2024-09-19T09:36:53Z</time>
      </trkpt>
      <trkpt lat="50.761972032487392" lon="13.786086961627007">
        <ele>610.09000000000003</ele>
        <time>2024-09-19T09:36:54Z</time>
      </trkpt>
      <trkpt lat="50.761988963931799" lon="13.786046979948878">
        <ele>609.61000000000001</ele>
        <time>2024-09-19T09:36:55Z</time>
      </trkpt>
      <trkpt lat="50.762102035805583" lon="13.786067012697458">
        <ele>609.61000000000001</ele>
        <time>2024-09-19T09:36:57Z</time>
      </trkpt>
      <trkpt lat="50.762144029140472" lon="13.786129960790277">
        <ele>609.13</ele>
        <time>2024-09-19T09:36:58Z</time>
      </trkpt>
      <trkpt lat="50.76218300499022" lon="13.786190981045365">
        <ele>609.13</ele>
        <time>2024-09-19T09:36:59Z</time>
      </trkpt>
      <trkpt lat="50.762230027467012" lon="13.786263987421989">
        <ele>609.13</ele>
        <time>2024-09-19T09:37:00Z</time>
      </trkpt>
      <trkpt lat="50.762347038835287" lon="13.786406982690096">
        <ele>608.16999999999996</ele>
        <time>2024-09-19T09:37:03Z</time>
      </trkpt>
      <trkpt lat="50.762487016618252" lon="13.786559030413628">
        <ele>607.69000000000005</ele>
        <time>2024-09-19T09:37:04Z</time>
      </trkpt>
      <trkpt lat="50.762568991631269" lon="13.786621978506446">
        <ele>607.21000000000004</ele>
        <time>2024-09-19T09:37:05Z</time>
      </trkpt>
      <trkpt lat="50.762650966644287" lon="13.786664977669716">
        <ele>606.73000000000002</ele>
        <time>2024-09-19T09:37:06Z</time>
      </trkpt>
      <trkpt lat="50.763014992699027" lon="13.786814007908106">
        <ele>604.80999999999995</ele>
        <time>2024-09-19T09:37:10Z</time>
      </trkpt>
      <trkpt lat="50.763402990996838" lon="13.786862958222628">
        <ele>603.85000000000002</ele>
        <time>2024-09-19T09:37:14Z</time>
      </trkpt>
      <trkpt lat="50.763499969616532" lon="13.786873016506433">
        <ele>603.36000000000001</ele>
        <time>2024-09-19T09:37:16Z</time>
      </trkpt>
      <trkpt lat="50.763684958219528" lon="13.786932025104761">
        <ele>602.88</ele>
        <time>2024-09-19T09:37:17Z</time>
      </trkpt>
      <trkpt lat="50.763767017051578" lon="13.786962032318115">
        <ele>602.39999999999998</ele>
        <time>2024-09-19T09:37:18Z</time>
      </trkpt>
      <trkpt lat="50.764196002855897" lon="13.787087006494403">
        <ele>599.03999999999996</ele>
        <time>2024-09-19T09:37:22Z</time>
      </trkpt>
      <trkpt lat="50.764312008395791" lon="13.787077032029629">
        <ele>598.08000000000004</ele>
        <time>2024-09-19T09:37:23Z</time>
      </trkpt>
      <trkpt lat="50.764647033065557" lon="13.787026992067695">
        <ele>597.12</ele>
        <time>2024-09-19T09:37:26Z</time>
      </trkpt>
      <trkpt lat="50.765463011339307" lon="13.787026992067695">
        <ele>595.19000000000005</ele>
        <time>2024-09-19T09:37:32Z</time>
      </trkpt>
      <trkpt lat="50.765614975243807" lon="13.787147020921111">
        <ele>594.23000000000002</ele>
        <time>2024-09-19T09:37:33Z</time>
      </trkpt>
      <trkpt lat="50.76574900187552" lon="13.787251962348819">
        <ele>593.75</ele>
        <time>2024-09-19T09:37:34Z</time>
      </trkpt>
      <trkpt lat="50.765873976051807" lon="13.787351958453655">
        <ele>592.30999999999995</ele>
        <time>2024-09-19T09:37:35Z</time>
      </trkpt>
      <trkpt lat="50.765994004905224" lon="13.787481039762497">
        <ele>591.35000000000002</ele>
        <time>2024-09-19T09:37:36Z</time>
      </trkpt>
      <trkpt lat="50.76611403375864" lon="13.787610959261656">
        <ele>590.38999999999999</ele>
        <time>2024-09-19T09:37:37Z</time>
      </trkpt>
      <trkpt lat="50.76620296575129" lon="13.787751020863652">
        <ele>589.42999999999995</ele>
        <time>2024-09-19T09:37:38Z</time>
      </trkpt>
      <trkpt lat="50.766283012926579" lon="13.787902984768152">
        <ele>588.95000000000005</ele>
        <time>2024-09-19T09:37:39Z</time>
      </trkpt>
      <trkpt lat="50.766361970454454" lon="13.788055032491684">
        <ele>588.46000000000004</ele>
        <time>2024-09-19T09:37:40Z</time>
      </trkpt>
      <trkpt lat="50.766440005972981" lon="13.788203978911042">
        <ele>587.98000000000002</ele>
        <time>2024-09-19T09:37:41Z</time>
      </trkpt>
      <trkpt lat="50.766517035663128" lon="13.78834999166429">
        <ele>587.5</ele>
        <time>2024-09-19T09:37:42Z</time>
      </trkpt>
      <trkpt lat="50.76658995822072" lon="13.788490975275636">
        <ele>587.01999999999998</ele>
        <time>2024-09-19T09:37:43Z</time>
      </trkpt>
      <trkpt lat="50.766770001500845" lon="13.788746036589146">
        <ele>586.05999999999995</ele>
        <time>2024-09-19T09:37:45Z</time>
      </trkpt>
      <trkpt lat="50.767041994258761" lon="13.789104027673602">
        <ele>584.13999999999999</ele>
        <time>2024-09-19T09:37:48Z</time>
      </trkpt>
      <trkpt lat="50.767093040049076" lon="13.789172004908323">
        <ele>583.65999999999997</ele>
        <time>2024-09-19T09:37:49Z</time>
      </trkpt>
      <trkpt lat="50.767204016447067" lon="13.789322962984443">
        <ele>583.17999999999995</ele>
        <time>2024-09-19T09:37:50Z</time>
      </trkpt>
      <trkpt lat="50.767449019476771" lon="13.789652958512306">
        <ele>582.22000000000003</ele>
        <time>2024-09-19T09:37:53Z</time>
      </trkpt>
      <trkpt lat="50.768329035490751" lon="13.790664989501238">
        <ele>577.88999999999999</ele>
        <time>2024-09-19T09:38:03Z</time>
      </trkpt>
      <trkpt lat="50.768505977466702" lon="13.790800021961331">
        <ele>576.92999999999995</ele>
        <time>2024-09-19T09:38:05Z</time>
      </trkpt>
      <trkpt lat="50.769666032865644" lon="13.791366973891854">
        <ele>570.67999999999995</ele>
        <time>2024-09-19T09:38:15Z</time>
      </trkpt>
      <trkpt lat="50.769784972071648" lon="13.791424976661801">
        <ele>570.20000000000005</ele>
        <time>2024-09-19T09:38:16Z</time>
      </trkpt>
      <trkpt lat="50.769900977611542" lon="13.791481973603368">
        <ele>570.67999999999995</ele>
        <time>2024-09-19T09:38:17Z</time>
      </trkpt>
      <trkpt lat="50.770022012293339" lon="13.791540982201695">
        <ele>570.67999999999995</ele>
        <time>2024-09-19T09:38:18Z</time>
      </trkpt>
      <trkpt lat="50.770558035001159" lon="13.791704010218382">
        <ele>570.20000000000005</ele>
        <time>2024-09-19T09:38:22Z</time>
      </trkpt>
      <trkpt lat="50.771683976054192" lon="13.791523966938257">
        <ele>567.79999999999995</ele>
        <time>2024-09-19T09:38:28Z</time>
      </trkpt>
      <trkpt lat="50.773304030299187" lon="13.791361022740602">
        <ele>563.95000000000005</ele>
        <time>2024-09-19T09:38:35Z</time>
      </trkpt>
      <trkpt lat="50.776671962812543" lon="13.79148599691689">
        <ele>550.97000000000003</ele>
        <time>2024-09-19T09:38:49Z</time>
      </trkpt>
      <trkpt lat="50.777451982721686" lon="13.791631003841758">
        <ele>547.13</ele>
        <time>2024-09-19T09:38:53Z</time>
      </trkpt>
      <trkpt lat="50.777634959667921" lon="13.791711973026395">
        <ele>546.16999999999996</ele>
        <time>2024-09-19T09:38:54Z</time>
      </trkpt>
      <trkpt lat="50.779133979231119" lon="13.792779995128512">
        <ele>539.91999999999996</ele>
        <time>2024-09-19T09:39:03Z</time>
      </trkpt>
      <trkpt lat="50.779302958399057" lon="13.792948974296451">
        <ele>538.96000000000004</ele>
        <time>2024-09-19T09:39:04Z</time>
      </trkpt>
      <trkpt lat="50.779430028051138" lon="13.793145027011633">
        <ele>538.48000000000002</ele>
        <time>2024-09-19T09:39:05Z</time>
      </trkpt>
      <trkpt lat="50.779561037197709" lon="13.793367985635996">
        <ele>537.50999999999999</ele>
        <time>2024-09-19T09:39:06Z</time>
      </trkpt>
      <trkpt lat="50.779662039130926" lon="13.793622963130474">
        <ele>536.54999999999995</ele>
        <time>2024-09-19T09:39:07Z</time>
      </trkpt>
      <trkpt lat="50.779751976951957" lon="13.793892022222281">
        <ele>536.07000000000005</ele>
        <time>2024-09-19T09:39:08Z</time>
      </trkpt>
      <trkpt lat="50.78031599521637" lon="13.795942990109324">
        <ele>527.89999999999998</ele>
        <time>2024-09-19T09:39:15Z</time>
      </trkpt>
      <trkpt lat="50.781071037054062" lon="13.798690997064114">
        <ele>518.76999999999998</ele>
        <time>2024-09-19T09:39:24Z</time>
      </trkpt>
      <trkpt lat="50.781934959813952" lon="13.80190696567297">
        <ele>510.60000000000002</ele>
        <time>2024-09-19T09:39:34Z</time>
      </trkpt>
      <trkpt lat="50.782412979751825" lon="13.803600026294589">
        <ele>506.26999999999998</ele>
        <time>2024-09-19T09:39:40Z</time>
      </trkpt>
      <trkpt lat="50.78246695920825" lon="13.803913006559014">
        <ele>505.31</ele>
        <time>2024-09-19T09:39:41Z</time>
      </trkpt>
      <trkpt lat="50.782751021906734" lon="13.807337014004588">
        <ele>495.22000000000003</ele>
        <time>2024-09-19T09:39:51Z</time>
      </trkpt>
      <trkpt lat="50.782970041036606" lon="13.8093619979918">
        <ele>489.44999999999999</ele>
        <time>2024-09-19T09:39:57Z</time>
      </trkpt>
      <trkpt lat="50.783042963594198" lon="13.809680007398129">
        <ele>488.49000000000001</ele>
        <time>2024-09-19T09:39:58Z</time>
      </trkpt>
      <trkpt lat="50.783133991062641" lon="13.809947976842523">
        <ele>487.05000000000001</ele>
        <time>2024-09-19T09:39:59Z</time>
      </trkpt>
      <trkpt lat="50.783258965238929" lon="13.810202032327652">
        <ele>486.07999999999998</ele>
        <time>2024-09-19T09:40:00Z</time>
      </trkpt>
      <trkpt lat="50.783385029062629" lon="13.810458015650511">
        <ele>485.60000000000002</ele>
        <time>2024-09-19T09:40:01Z</time>
      </trkpt>
      <trkpt lat="50.783505979925394" lon="13.810705030336976">
        <ele>484.63999999999999</ele>
        <time>2024-09-19T09:40:02Z</time>
      </trkpt>
      <trkpt lat="50.784315001219511" lon="13.812100030481815">
        <ele>478.38999999999999</ele>
        <time>2024-09-19T09:40:09Z</time>
      </trkpt>
      <trkpt lat="50.785228963941336" lon="13.813100997358561">
        <ele>472.63</ele>
        <time>2024-09-19T09:40:17Z</time>
      </trkpt>
      <trkpt lat="50.786016024649143" lon="13.813778003677726">
        <ele>467.81999999999999</ele>
        <time>2024-09-19T09:40:25Z</time>
      </trkpt>
      <trkpt lat="50.786125995218754" lon="13.813829971477389">
        <ele>467.33999999999997</ele>
        <time>2024-09-19T09:40:26Z</time>
      </trkpt>
      <trkpt lat="50.786231020465493" lon="13.813872970640659">
        <ele>466.38</ele>
        <time>2024-09-19T09:40:27Z</time>
      </trkpt>
      <trkpt lat="50.787757029756904" lon="13.814019989222288">
        <ele>462.05000000000001</ele>
        <time>2024-09-19T09:40:40Z</time>
      </trkpt>
      <trkpt lat="50.788797978311777" lon="13.814099030569196">
        <ele>460.13</ele>
        <time>2024-09-19T09:40:49Z</time>
      </trkpt>
      <trkpt lat="50.788935022428632" lon="13.814111016690731">
        <ele>459.64999999999998</ele>
        <time>2024-09-19T09:40:50Z</time>
      </trkpt>
      <trkpt lat="50.789077011868358" lon="13.814121996983886">
        <ele>459.17000000000002</ele>
        <time>2024-09-19T09:40:51Z</time>
      </trkpt>
      <trkpt lat="50.790209993720055" lon="13.814215958118439">
        <ele>456.27999999999997</ele>
        <time>2024-09-19T09:40:58Z</time>
      </trkpt>
      <trkpt lat="50.790378972887993" lon="13.814288964495063">
        <ele>456.27999999999997</ele>
        <time>2024-09-19T09:40:59Z</time>
      </trkpt>
      <trkpt lat="50.790553987026215" lon="13.814392983913422">
        <ele>456.27999999999997</ele>
        <time>2024-09-19T09:41:00Z</time>
      </trkpt>
      <trkpt lat="50.790701005607843" lon="13.81453899666667">
        <ele>455.80000000000001</ele>
        <time>2024-09-19T09:41:01Z</time>
      </trkpt>
      <trkpt lat="50.79082204028964" lon="13.814741000533104">
        <ele>456.27999999999997</ele>
        <time>2024-09-19T09:41:02Z</time>
      </trkpt>
      <trkpt lat="50.790935028344393" lon="13.814963037148118">
        <ele>456.75999999999999</ele>
        <time>2024-09-19T09:41:03Z</time>
      </trkpt>
      <trkpt lat="50.791048016399145" lon="13.815185995772481">
        <ele>456.75999999999999</ele>
        <time>2024-09-19T09:41:04Z</time>
      </trkpt>
      <trkpt lat="50.791157986968756" lon="13.815400991588831">
        <ele>456.75999999999999</ele>
        <time>2024-09-19T09:41:05Z</time>
      </trkpt>
      <trkpt lat="50.791470967233181" lon="13.815994011238217">
        <ele>456.27999999999997</ele>
        <time>2024-09-19T09:41:08Z</time>
      </trkpt>
      <trkpt lat="50.791684035211802" lon="13.816187968477607">
        <ele>456.27999999999997</ele>
        <time>2024-09-19T09:41:09Z</time>
      </trkpt>
      <trkpt lat="50.791779002174735" lon="13.816209007054567">
        <ele>455.80000000000001</ele>
        <time>2024-09-19T09:41:10Z</time>
      </trkpt>
      <trkpt lat="50.791933983564377" lon="13.816244965419173">
        <ele>455.80000000000001</ele>
        <time>2024-09-19T09:41:11Z</time>
      </trkpt>
      <trkpt lat="50.79209097661078" lon="13.816200960427523">
        <ele>455.80000000000001</ele>
        <time>2024-09-19T09:41:12Z</time>
      </trkpt>
      <trkpt lat="50.792259033769369" lon="13.816132983192801">
        <ele>455.31999999999999</ele>
        <time>2024-09-19T09:41:13Z</time>
      </trkpt>
      <trkpt lat="50.792441004887223" lon="13.816038016229868">
        <ele>455.31999999999999</ele>
        <time>2024-09-19T09:41:14Z</time>
      </trkpt>
      <trkpt lat="50.792608978226781" lon="13.815895020961761">
        <ele>454.83999999999997</ele>
        <time>2024-09-19T09:41:15Z</time>
      </trkpt>
      <trkpt lat="50.793684041127563" lon="13.814910985529423">
        <ele>454.36000000000001</ele>
        <time>2024-09-19T09:41:21Z</time>
      </trkpt>
      <trkpt lat="50.793858971446753" lon="13.814696995541453">
        <ele>454.36000000000001</ele>
        <time>2024-09-19T09:41:22Z</time>
      </trkpt>
      <trkpt lat="50.79400297254324" lon="13.814440006390214">
        <ele>453.88</ele>
        <time>2024-09-19T09:41:23Z</time>
      </trkpt>
      <trkpt lat="50.794142028316855" lon="13.814190980046988">
        <ele>453.88</ele>
        <time>2024-09-19T09:41:24Z</time>
      </trkpt>
      <trkpt lat="50.794270019978285" lon="13.813944971188903">
        <ele>453.39999999999998</ele>
        <time>2024-09-19T09:41:25Z</time>
      </trkpt>
      <trkpt lat="50.794901009649038" lon="13.812474031001329">
        <ele>451</ele>
        <time>2024-09-19T09:41:33Z</time>
      </trkpt>
      <trkpt lat="50.795642975717783" lon="13.810752974823117">
        <ele>453.39999999999998</ele>
        <time>2024-09-19T09:41:43Z</time>
      </trkpt>
      <trkpt lat="50.795881021767855" lon="13.810359025374055">
        <ele>452.92000000000002</ele>
        <time>2024-09-19T09:41:46Z</time>
      </trkpt>
      <trkpt lat="50.795973977074027" lon="13.810250982642174">
        <ele>452.44</ele>
        <time>2024-09-19T09:41:47Z</time>
      </trkpt>
      <trkpt lat="50.796162988990545" lon="13.810041015967727">
        <ele>451.95999999999998</ele>
        <time>2024-09-19T09:41:49Z</time>
      </trkpt>
      <trkpt lat="50.797322038561106" lon="13.809088999405503">
        <ele>450.02999999999997</ele>
        <time>2024-09-19T09:41:58Z</time>
      </trkpt>
      <trkpt lat="50.799218025058508" lon="13.807548992335796">
        <ele>446.19</ele>
        <time>2024-09-19T09:42:10Z</time>
      </trkpt>
      <trkpt lat="50.8004289586097" lon="13.806549031287432">
        <ele>445.23000000000002</ele>
        <time>2024-09-19T09:42:18Z</time>
      </trkpt>
      <trkpt lat="50.801866035908461" lon="13.805541023612022">
        <ele>446.67000000000002</ele>
        <time>2024-09-19T09:42:27Z</time>
      </trkpt>
      <trkpt lat="50.802223021164536" lon="13.805505987256765">
        <ele>446.67000000000002</ele>
        <time>2024-09-19T09:42:29Z</time>
      </trkpt>
      <trkpt lat="50.802401974797249" lon="13.805487966164947">
        <ele>446.19</ele>
        <time>2024-09-19T09:42:30Z</time>
      </trkpt>
      <trkpt lat="50.802574977278709" lon="13.805502969771624">
        <ele>446.19</ele>
        <time>2024-09-19T09:42:31Z</time>
      </trkpt>
      <trkpt lat="50.802928023040295" lon="13.805587040260434">
        <ele>445.70999999999998</ele>
        <time>2024-09-19T09:42:33Z</time>
      </trkpt>
      <trkpt lat="50.804663999006152" lon="13.806101018562913">
        <ele>444.26999999999998</ele>
        <time>2024-09-19T09:42:43Z</time>
      </trkpt>
      <trkpt lat="50.805965960025787" lon="13.806166984140873">
        <ele>442.33999999999997</ele>
        <time>2024-09-19T09:42:50Z</time>
      </trkpt>
      <trkpt lat="50.806294027715921" lon="13.806086014956236">
        <ele>441.38</ele>
        <time>2024-09-19T09:42:52Z</time>
      </trkpt>
      <trkpt lat="50.806435011327267" lon="13.805994987487793">
        <ele>441.38</ele>
        <time>2024-09-19T09:42:53Z</time>
      </trkpt>
      <trkpt lat="50.806525032967329" lon="13.805825002491474">
        <ele>440.89999999999998</ele>
        <time>2024-09-19T09:42:54Z</time>
      </trkpt>
      <trkpt lat="50.806601978838444" lon="13.805621992796659">
        <ele>440.89999999999998</ele>
        <time>2024-09-19T09:42:55Z</time>
      </trkpt>
      <trkpt lat="50.806641960516572" lon="13.805474974215031">
        <ele>440.42000000000002</ele>
        <time>2024-09-19T09:42:56Z</time>
      </trkpt>
      <trkpt lat="50.806649001315236" lon="13.805276993662119">
        <ele>439.94</ele>
        <time>2024-09-19T09:42:57Z</time>
      </trkpt>
      <trkpt lat="50.806656964123249" lon="13.805081024765968">
        <ele>439.45999999999998</ele>
        <time>2024-09-19T09:42:58Z</time>
      </trkpt>
      <trkpt lat="50.806656964123249" lon="13.804938029497862">
        <ele>438.98000000000002</ele>
        <time>2024-09-19T09:42:59Z</time>
      </trkpt>
      <trkpt lat="50.806624023243785" lon="13.804750023409724">
        <ele>438.5</ele>
        <time>2024-09-19T09:43:00Z</time>
      </trkpt>
      <trkpt lat="50.806589992716908" lon="13.804551037028432">
        <ele>438.01999999999998</ele>
        <time>2024-09-19T09:43:01Z</time>
      </trkpt>
      <trkpt lat="50.806552022695541" lon="13.804326988756657">
        <ele>437.54000000000002</ele>
        <time>2024-09-19T09:43:02Z</time>
      </trkpt>
      <trkpt lat="50.806240970268846" lon="13.802845990285277">
        <ele>434.64999999999998</ele>
        <time>2024-09-19T09:43:08Z</time>
      </trkpt>
      <trkpt lat="50.806232001632452" lon="13.802548013627529">
        <ele>434.17000000000002</ele>
        <time>2024-09-19T09:43:09Z</time>
      </trkpt>
      <trkpt lat="50.806267959997058" lon="13.802256993949413">
        <ele>434.17000000000002</ele>
        <time>2024-09-19T09:43:10Z</time>
      </trkpt>
      <trkpt lat="50.806448003277183" lon="13.801122000440955">
        <ele>433.69</ele>
        <time>2024-09-19T09:43:15Z</time>
      </trkpt>
      <trkpt lat="50.806670961901546" lon="13.800309961661696">
        <ele>432.73000000000002</ele>
        <time>2024-09-19T09:43:17Z</time>
      </trkpt>
      <trkpt lat="50.807009004056454" lon="13.799575958400965">
        <ele>431.76999999999998</ele>
        <time>2024-09-19T09:43:20Z</time>
      </trkpt>
      <trkpt lat="50.807125009596348" lon="13.799330033361912">
        <ele>431.29000000000002</ele>
        <time>2024-09-19T09:43:21Z</time>
      </trkpt>
      <trkpt lat="50.808071997016668" lon="13.797321980819106">
        <ele>428.39999999999998</ele>
        <time>2024-09-19T09:43:30Z</time>
      </trkpt>
      <trkpt lat="50.809016972780228" lon="13.795339995995164">
        <ele>426.95999999999998</ele>
        <time>2024-09-19T09:43:40Z</time>
      </trkpt>
      <trkpt lat="50.809889025986195" lon="13.793539982289076">
        <ele>425.51999999999998</ele>
        <time>2024-09-19T09:43:49Z</time>
      </trkpt>
      <trkpt lat="50.809991033747792" lon="13.793331021443009">
        <ele>425.04000000000002</ele>
        <time>2024-09-19T09:43:50Z</time>
      </trkpt>
      <trkpt lat="50.810979008674622" lon="13.791273012757301">
        <ele>422.63999999999999</ele>
        <time>2024-09-19T09:43:59Z</time>
      </trkpt>
      <trkpt lat="50.811090990900993" lon="13.79103496670723">
        <ele>422.16000000000003</ele>
        <time>2024-09-19T09:44:00Z</time>
      </trkpt>
      <trkpt lat="50.811209008097649" lon="13.790787030011415">
        <ele>421.68000000000001</ele>
        <time>2024-09-19T09:44:01Z</time>
      </trkpt>
      <trkpt lat="50.812013000249863" lon="13.789150966331363">
        <ele>419.26999999999998</ele>
        <time>2024-09-19T09:44:08Z</time>
      </trkpt>
      <trkpt lat="50.812135962769389" lon="13.788930019363761">
        <ele>419.26999999999998</ele>
        <time>2024-09-19T09:44:09Z</time>
      </trkpt>
      <trkpt lat="50.81228700466454" lon="13.788761040195823">
        <ele>418.79000000000002</ele>
        <time>2024-09-19T09:44:10Z</time>
      </trkpt>
      <trkpt lat="50.813315967097878" lon="13.787536025047302">
        <ele>417.35000000000002</ele>
        <time>2024-09-19T09:44:18Z</time>
      </trkpt>
      <trkpt lat="50.813567005097866" lon="13.787228995934129">
        <ele>417.35000000000002</ele>
        <time>2024-09-19T09:44:22Z</time>
      </trkpt>
      <trkpt lat="50.813581002876163" lon="13.787175016477704">
        <ele>416.87</ele>
        <time>2024-09-19T09:44:23Z</time>
      </trkpt>
      <trkpt lat="50.813548984006047" lon="13.787111984565854">
        <ele>416.87</ele>
        <time>2024-09-19T09:44:24Z</time>
      </trkpt>
      <trkpt lat="50.813472038134933" lon="13.787056999281049">
        <ele>416.38999999999999</ele>
        <time>2024-09-19T09:44:25Z</time>
      </trkpt>
      <trkpt lat="50.81338101066649" lon="13.786992961540818">
        <ele>416.38999999999999</ele>
        <time>2024-09-19T09:44:26Z</time>
      </trkpt>
      <trkpt lat="50.813281014561653" lon="13.786925990134478">
        <ele>416.38999999999999</ele>
        <time>2024-09-19T09:44:27Z</time>
      </trkpt>
      <trkpt lat="50.813161991536617" lon="13.786847032606602">
        <ele>416.87</ele>
        <time>2024-09-19T09:44:28Z</time>
      </trkpt>
      <trkpt lat="50.813032994046807" lon="13.786761034280062">
        <ele>416.87</ele>
        <time>2024-09-19T09:44:29Z</time>
      </trkpt>
      <trkpt lat="50.811485024169087" lon="13.785696029663086">
        <ele>415.43000000000001</ele>
        <time>2024-09-19T09:44:40Z</time>
      </trkpt>
      <trkpt lat="50.811331970617175" lon="13.785587986931205">
        <ele>415.43000000000001</ele>
        <time>2024-09-19T09:44:41Z</time>
      </trkpt>
      <trkpt lat="50.81017903983593" lon="13.784785000607371">
        <ele>417.82999999999998</ele>
        <time>2024-09-19T09:44:49Z</time>
      </trkpt>
      <trkpt lat="50.809774026274681" lon="13.784531028941274">
        <ele>418.79000000000002</ele>
        <time>2024-09-19T09:44:52Z</time>
      </trkpt>
      <trkpt lat="50.809707976877689" lon="13.784494986757636">
        <ele>418.79000000000002</ele>
        <time>2024-09-19T09:44:53Z</time>
      </trkpt>
      <trkpt lat="50.809523994103074" lon="13.784547038376331">
        <ele>419.26999999999998</ele>
        <time>2024-09-19T09:44:54Z</time>
      </trkpt>
      <trkpt lat="50.80940798856318" lon="13.784579979255795">
        <ele>419.26999999999998</ele>
        <time>2024-09-19T09:44:55Z</time>
      </trkpt>
      <trkpt lat="50.809311009943485" lon="13.784650973975658">
        <ele>419.75</ele>
        <time>2024-09-19T09:44:56Z</time>
      </trkpt>
      <trkpt lat="50.808951007202268" lon="13.784890025854111">
        <ele>420.70999999999998</ele>
        <time>2024-09-19T09:44:59Z</time>
      </trkpt>
      <trkpt lat="50.808829972520471" lon="13.784964960068464">
        <ele>421.19</ele>
        <time>2024-09-19T09:45:00Z</time>
      </trkpt>
      <trkpt lat="50.808709021657705" lon="13.784982981160283">
        <ele>421.19</ele>
        <time>2024-09-19T09:45:01Z</time>
      </trkpt>
      <trkpt lat="50.808563008904457" lon="13.785003013908863">
        <ele>421.68000000000001</ele>
        <time>2024-09-19T09:45:02Z</time>
      </trkpt>
      <trkpt lat="50.80839897505939" lon="13.785025980323553">
        <ele>422.63999999999999</ele>
        <time>2024-09-19T09:45:03Z</time>
      </trkpt>
      <trkpt lat="50.807907963171601" lon="13.785036960616708">
        <ele>424.07999999999998</ele>
        <time>2024-09-19T09:45:06Z</time>
      </trkpt>
      <trkpt lat="50.807748036459088" lon="13.78499697893858">
        <ele>424.56</ele>
        <time>2024-09-19T09:45:07Z</time>
      </trkpt>
      <trkpt lat="50.807627001777291" lon="13.784966971725225">
        <ele>425.04000000000002</ele>
        <time>2024-09-19T09:45:08Z</time>
      </trkpt>
      <trkpt lat="50.807483000680804" lon="13.784817019477487">
        <ele>425.51999999999998</ele>
        <time>2024-09-19T09:45:09Z</time>
      </trkpt>
      <trkpt lat="50.807342017069459" lon="13.784670000895858">
        <ele>426</ele>
        <time>2024-09-19T09:45:10Z</time>
      </trkpt>
      <trkpt lat="50.807196004316211" lon="13.784518036991358">
        <ele>426.48000000000002</ele>
        <time>2024-09-19T09:45:11Z</time>
      </trkpt>
      <trkpt lat="50.806275000795722" lon="13.783350018784404">
        <ele>429.37</ele>
        <time>2024-09-19T09:45:18Z</time>
      </trkpt>
      <trkpt lat="50.806124964728951" lon="13.783099986612797">
        <ele>429.85000000000002</ele>
        <time>2024-09-19T09:45:19Z</time>
      </trkpt>
      <trkpt lat="50.806047013029456" lon="13.782916003838181">
        <ele>430.32999999999998</ele>
        <time>2024-09-19T09:45:20Z</time>
      </trkpt>
      <trkpt lat="50.805844003334641" lon="13.782437983900309">
        <ele>432.73000000000002</ele>
        <time>2024-09-19T09:45:22Z</time>
      </trkpt>
      <trkpt lat="50.80571198835969" lon="13.782229023054242">
        <ele>434.17000000000002</ele>
        <time>2024-09-19T09:45:23Z</time>
      </trkpt>
      <trkpt lat="50.80556396394968" lon="13.782041016966105">
        <ele>435.61000000000001</ele>
        <time>2024-09-19T09:45:24Z</time>
      </trkpt>
      <trkpt lat="50.804323023185134" lon="13.780713994055986">
        <ele>450.02999999999997</ele>
        <time>2024-09-19T09:45:32Z</time>
      </trkpt>
      <trkpt lat="50.803344016894698" lon="13.77956198528409">
        <ele>454.36000000000001</ele>
        <time>2024-09-19T09:45:38Z</time>
      </trkpt>
      <trkpt lat="50.802154960110784" lon="13.77812197431922">
        <ele>461.08999999999997</ele>
        <time>2024-09-19T09:45:46Z</time>
      </trkpt>
      <trkpt lat="50.802053036168218" lon="13.777936985716224">
        <ele>462.05000000000001</ele>
        <time>2024-09-19T09:45:47Z</time>
      </trkpt>
      <trkpt lat="50.801191963255405" lon="13.776388010010123">
        <ele>465.42000000000002</ele>
        <time>2024-09-19T09:45:56Z</time>
      </trkpt>
      <trkpt lat="50.801124991849065" lon="13.776254989206791">
        <ele>465.89999999999998</ele>
        <time>2024-09-19T09:45:57Z</time>
      </trkpt>
      <trkpt lat="50.801104959100485" lon="13.776087015867233">
        <ele>465.89999999999998</ele>
        <time>2024-09-19T09:45:58Z</time>
      </trkpt>
      <trkpt lat="50.801084004342556" lon="13.775904038920999">
        <ele>466.38</ele>
        <time>2024-09-19T09:45:59Z</time>
      </trkpt>
      <trkpt lat="50.801100013777614" lon="13.775726007297635">
        <ele>466.86000000000001</ele>
        <time>2024-09-19T09:46:00Z</time>
      </trkpt>
      <trkpt lat="50.801104037091136" lon="13.77550003118813">
        <ele>467.81999999999999</ele>
        <time>2024-09-19T09:46:01Z</time>
      </trkpt>
      <trkpt lat="50.801094984635711" lon="13.774655973538756">
        <ele>470.69999999999999</ele>
        <time>2024-09-19T09:46:05Z</time>
      </trkpt>
      <trkpt lat="50.801069000735879" lon="13.774499986320734">
        <ele>471.18000000000001</ele>
        <time>2024-09-19T09:46:06Z</time>
      </trkpt>
      <trkpt lat="50.80096104182303" lon="13.774187006056309">
        <ele>472.13999999999999</ele>
        <time>2024-09-19T09:46:08Z</time>
      </trkpt>
      <trkpt lat="50.800887029618025" lon="13.774015009403229">
        <ele>472.13999999999999</ele>
        <time>2024-09-19T09:46:09Z</time>
      </trkpt>
      <trkpt lat="50.800223015248775" lon="13.772542979568243">
        <ele>473.11000000000001</ele>
        <time>2024-09-19T09:46:16Z</time>
      </trkpt>
      <trkpt lat="50.799811966717243" lon="13.771265996620059">
        <ele>475.99000000000001</ele>
        <time>2024-09-19T09:46:22Z</time>
      </trkpt>
      <trkpt lat="50.799681963399053" lon="13.770770961418748">
        <ele>476.47000000000003</ele>
        <time>2024-09-19T09:46:24Z</time>
      </trkpt>
      <trkpt lat="50.799289019778371" lon="13.768552020192146">
        <ele>478.87</ele>
        <time>2024-09-19T09:46:32Z</time>
      </trkpt>
      <trkpt lat="50.799068994820118" lon="13.765848018229008">
        <ele>484.16000000000003</ele>
        <time>2024-09-19T09:46:41Z</time>
      </trkpt>
      <trkpt lat="50.798844024538994" lon="13.763380972668529">
        <ele>494.25999999999999</ele>
        <time>2024-09-19T09:46:49Z</time>
      </trkpt>
      <trkpt lat="50.798807982355356" lon="13.763104034587741">
        <ele>495.69999999999999</ele>
        <time>2024-09-19T09:46:50Z</time>
      </trkpt>
      <trkpt lat="50.798538001254201" lon="13.762218989431858">
        <ele>502.43000000000001</ele>
        <time>2024-09-19T09:46:55Z</time>
      </trkpt>
      <trkpt lat="50.798463989049196" lon="13.761978009715676">
        <ele>504.35000000000002</ele>
        <time>2024-09-19T09:46:57Z</time>
      </trkpt>
      <trkpt lat="50.798433981835842" lon="13.761882036924362">
        <ele>505.31</ele>
        <time>2024-09-19T09:46:58Z</time>
      </trkpt>
      <trkpt lat="50.798409003764391" lon="13.761798972263932">
        <ele>506.75</ele>
        <time>2024-09-19T09:46:59Z</time>
      </trkpt>
      <trkpt lat="50.798382014036179" lon="13.761710962280631">
        <ele>508.19</ele>
        <time>2024-09-19T09:47:00Z</time>
      </trkpt>
      <trkpt lat="50.798351000994444" lon="13.761609038338065">
        <ele>509.16000000000003</ele>
        <time>2024-09-19T09:47:01Z</time>
      </trkpt>
      <trkpt lat="50.798317976295948" lon="13.761503007262945">
        <ele>510.60000000000002</ele>
        <time>2024-09-19T09:47:02Z</time>
      </trkpt>
      <trkpt lat="50.798288974910975" lon="13.761407034471631">
        <ele>511.56</ele>
        <time>2024-09-19T09:47:03Z</time>
      </trkpt>
      <trkpt lat="50.79825796186924" lon="13.761306032538414">
        <ele>511.56</ele>
        <time>2024-09-19T09:47:04Z</time>
      </trkpt>
      <trkpt lat="50.797983035445213" lon="13.760407995432615">
        <ele>511.56</ele>
        <time>2024-09-19T09:47:09Z</time>
      </trkpt>
      <trkpt lat="50.797906005755067" lon="13.760156035423279">
        <ele>511.07999999999998</ele>
        <time>2024-09-19T09:47:10Z</time>
      </trkpt>
      <trkpt lat="50.797825958579779" lon="13.759896028786898">
        <ele>511.07999999999998</ele>
        <time>2024-09-19T09:47:11Z</time>
      </trkpt>
      <trkpt lat="50.797747001051903" lon="13.759639039635658">
        <ele>511.07999999999998</ele>
        <time>2024-09-19T09:47:12Z</time>
      </trkpt>
      <trkpt lat="50.797105031087995" lon="13.757587987929583">
        <ele>511.07999999999998</ele>
        <time>2024-09-19T09:47:19Z</time>
      </trkpt>
      <trkpt lat="50.796835971996188" lon="13.756746025756001">
        <ele>511.07999999999998</ele>
        <time>2024-09-19T09:47:22Z</time>
      </trkpt>
      <trkpt lat="50.796747962012887" lon="13.756471015512943">
        <ele>511.56</ele>
        <time>2024-09-19T09:47:23Z</time>
      </trkpt>
      <trkpt lat="50.795615985989571" lon="13.754704026505351">
        <ele>513</ele>
        <time>2024-09-19T09:47:32Z</time>
      </trkpt>
      <trkpt lat="50.795180965214968" lon="13.753982009366155">
        <ele>513.96000000000004</ele>
        <time>2024-09-19T09:47:37Z</time>
      </trkpt>
      <trkpt lat="50.795050961896777" lon="13.753991983830929">
        <ele>514.44000000000005</ele>
        <time>2024-09-19T09:47:38Z</time>
      </trkpt>
      <trkpt lat="50.79443003050983" lon="13.753873966634274">
        <ele>515.88</ele>
        <time>2024-09-19T09:47:45Z</time>
      </trkpt>
      <trkpt lat="50.79443003050983" lon="13.753873966634274">
        <ele>516.37</ele>
        <time>2024-09-19T09:47:46Z</time>
      </trkpt>
      <trkpt lat="50.794203970581293" lon="13.75319997780025">
        <ele>516.85000000000002</ele>
        <time>2024-09-19T09:47:49Z</time>
      </trkpt>
      <trkpt lat="50.794133981689811" lon="13.753044996410608">
        <ele>516.37</ele>
        <time>2024-09-19T09:47:50Z</time>
      </trkpt>
      <trkpt lat="50.794052006676793" lon="13.752865036949515">
        <ele>516.37</ele>
        <time>2024-09-19T09:47:51Z</time>
      </trkpt>
      <trkpt lat="50.793478013947606" lon="13.751169964671135">
        <ele>515.39999999999998</ele>
        <time>2024-09-19T09:48:00Z</time>
      </trkpt>
      <trkpt lat="50.79284300096333" lon="13.750098003074527">
        <ele>515.39999999999998</ele>
        <time>2024-09-19T09:48:05Z</time>
      </trkpt>
      <trkpt lat="50.7924750354141" lon="13.748633014038205">
        <ele>516.37</ele>
        <time>2024-09-19T09:48:11Z</time>
      </trkpt>
      <trkpt lat="50.792428012937307" lon="13.748380970209837">
        <ele>517.80999999999995</ele>
        <time>2024-09-19T09:48:12Z</time>
      </trkpt>
      <trkpt lat="50.792386019602418" lon="13.748154994100332">
        <ele>519.25</ele>
        <time>2024-09-19T09:48:13Z</time>
      </trkpt>
      <trkpt lat="50.792355006560683" lon="13.747998001053929">
        <ele>520.21000000000004</ele>
        <time>2024-09-19T09:48:14Z</time>
      </trkpt>
      <trkpt lat="50.792303960770369" lon="13.747736988589168">
        <ele>527.41999999999996</ele>
        <time>2024-09-19T09:48:16Z</time>
      </trkpt>
      <trkpt lat="50.792016964405775" lon="13.747156038880348">
        <ele>533.19000000000005</ele>
        <time>2024-09-19T09:48:18Z</time>
      </trkpt>
      <trkpt lat="50.791924009099603" lon="13.747085966169834">
        <ele>535.59000000000003</ele>
        <time>2024-09-19T09:48:19Z</time>
      </trkpt>
      <trkpt lat="50.791067965328693" lon="13.746068989858031">
        <ele>558.17999999999995</ele>
        <time>2024-09-19T09:48:27Z</time>
      </trkpt>
      <trkpt lat="50.790837965905666" lon="13.745802026242018">
        <ele>563.47000000000003</ele>
        <time>2024-09-19T09:48:29Z</time>
      </trkpt>
      <trkpt lat="50.790721960365772" lon="13.745694989338517">
        <ele>565.38999999999999</ele>
        <time>2024-09-19T09:48:30Z</time>
      </trkpt>
      <trkpt lat="50.79060603864491" lon="13.745590969920158">
        <ele>568.27999999999997</ele>
        <time>2024-09-19T09:48:31Z</time>
      </trkpt>
      <trkpt lat="50.790462959557772" lon="13.74554998241365">
        <ele>570.20000000000005</ele>
        <time>2024-09-19T09:48:32Z</time>
      </trkpt>
      <trkpt lat="50.790334967896342" lon="13.745513018220663">
        <ele>571.63999999999999</ele>
        <time>2024-09-19T09:48:33Z</time>
      </trkpt>
      <trkpt lat="50.790203036740422" lon="13.74548502266407">
        <ele>573.08000000000004</ele>
        <time>2024-09-19T09:48:34Z</time>
      </trkpt>
      <trkpt lat="50.790106980130076" lon="13.745422996580601">
        <ele>574.52999999999997</ele>
        <time>2024-09-19T09:48:35Z</time>
      </trkpt>
      <trkpt lat="50.789967002347112" lon="13.745333980768919">
        <ele>575.49000000000001</ele>
        <time>2024-09-19T09:48:36Z</time>
      </trkpt>
      <trkpt lat="50.789911011233926" lon="13.745213029906154">
        <ele>575.97000000000003</ele>
        <time>2024-09-19T09:48:37Z</time>
      </trkpt>
      <trkpt lat="50.789850996807218" lon="13.745084032416344">
        <ele>576.92999999999995</ele>
        <time>2024-09-19T09:48:38Z</time>
      </trkpt>
      <trkpt lat="50.789789976552129" lon="13.744913041591644">
        <ele>577.40999999999997</ele>
        <time>2024-09-19T09:48:39Z</time>
      </trkpt>
      <trkpt lat="50.789519995450974" lon="13.743966976180673">
        <ele>583.17999999999995</ele>
        <time>2024-09-19T09:48:48Z</time>
      </trkpt>
      <trkpt lat="50.789534999057651" lon="13.743730019778013">
        <ele>585.58000000000004</ele>
        <time>2024-09-19T09:48:52Z</time>
      </trkpt>
      <trkpt lat="50.789599036797881" lon="13.743647038936615">
        <ele>585.58000000000004</ele>
        <time>2024-09-19T09:48:53Z</time>
      </trkpt>
      <trkpt lat="50.789654022082686" lon="13.743574032559991">
        <ele>585.58000000000004</ele>
        <time>2024-09-19T09:48:54Z</time>
      </trkpt>
      <trkpt lat="50.789845967665315" lon="13.743353001773357">
        <ele>586.05999999999995</ele>
        <time>2024-09-19T09:48:58Z</time>
      </trkpt>
      <trkpt lat="50.789897013455629" lon="13.743340009823442">
        <ele>586.05999999999995</ele>
        <time>2024-09-19T09:48:59Z</time>
      </trkpt>
      <trkpt lat="50.789902964606881" lon="13.743339003995061">
        <ele>586.05999999999995</ele>
        <time>2024-09-19T09:49:00Z</time>
      </trkpt>
      <trkpt lat="50.789970019832253" lon="13.743372028693557">
        <ele>586.05999999999995</ele>
        <time>2024-09-19T09:49:01Z</time>
      </trkpt>
      <trkpt lat="50.790028022602201" lon="13.74340103007853">
        <ele>586.05999999999995</ele>
        <time>2024-09-19T09:49:02Z</time>
      </trkpt>
      <trkpt lat="50.790031962096691" lon="13.743403041735291">
        <ele>585.58000000000004</ele>
        <time>2024-09-19T09:49:03Z</time>
      </trkpt>
      <trkpt lat="50.790127012878656" lon="13.743490967899561">
        <ele>585.58000000000004</ele>
        <time>2024-09-19T09:49:04Z</time>
      </trkpt>
      <trkpt lat="50.790233965963125" lon="13.743589958176017">
        <ele>585.10000000000002</ele>
        <time>2024-09-19T09:49:05Z</time>
      </trkpt>
      <trkpt lat="50.790360029786825" lon="13.743709987029433">
        <ele>584.13999999999999</ele>
        <time>2024-09-19T09:49:06Z</time>
      </trkpt>
      <trkpt lat="50.790610983967781" lon="13.743961025029421">
        <ele>584.13999999999999</ele>
        <time>2024-09-19T09:49:08Z</time>
      </trkpt>
      <trkpt lat="50.790646020323038" lon="13.743997989222407">
        <ele>584.13999999999999</ele>
        <time>2024-09-19T09:49:09Z</time>
      </trkpt>
      <trkpt lat="50.791873969137669" lon="13.744231006130576">
        <ele>584.62</ele>
        <time>2024-09-19T09:49:17Z</time>
      </trkpt>
      <trkpt lat="50.792963029816747" lon="13.746606018394232">
        <ele>580.28999999999996</ele>
        <time>2024-09-19T09:49:29Z</time>
      </trkpt>
      <trkpt lat="50.794789027422667" lon="13.74836596660316">
        <ele>579.80999999999995</ele>
        <time>2024-09-19T09:49:39Z</time>
      </trkpt>
      <trkpt lat="50.795470979064703" lon="13.749685026705265">
        <ele>580.28999999999996</ele>
        <time>2024-09-19T09:49:44Z</time>
      </trkpt>
      <trkpt lat="50.795696033164859" lon="13.750184001401067">
        <ele>579.80999999999995</ele>
        <time>2024-09-19T09:49:46Z</time>
      </trkpt>
      <trkpt lat="50.795783037319779" lon="13.750300006940961">
        <ele>580.28999999999996</ele>
        <time>2024-09-19T09:49:47Z</time>
      </trkpt>
      <trkpt lat="50.795889990404248" lon="13.750441996380687">
        <ele>580.28999999999996</ele>
        <time>2024-09-19T09:49:48Z</time>
      </trkpt>
      <trkpt lat="50.796028040349483" lon="13.750540986657143">
        <ele>580.28999999999996</ele>
        <time>2024-09-19T09:49:49Z</time>
      </trkpt>
      <trkpt lat="50.796159971505404" lon="13.750636037439108">
        <ele>580.76999999999998</ele>
        <time>2024-09-19T09:49:50Z</time>
      </trkpt>
      <trkpt lat="50.796260973438621" lon="13.750709965825081">
        <ele>580.76999999999998</ele>
        <time>2024-09-19T09:49:51Z</time>
      </trkpt>
      <trkpt lat="50.796418972313404" lon="13.75074902549386">
        <ele>581.25</ele>
        <time>2024-09-19T09:49:53Z</time>
      </trkpt>
      <trkpt lat="50.796598009765148" lon="13.750784983858466">
        <ele>581.73000000000002</ele>
        <time>2024-09-19T09:49:54Z</time>
      </trkpt>
      <trkpt lat="50.7966039609164" lon="13.750780038535595">
        <ele>582.70000000000005</ele>
        <time>2024-09-19T09:49:55Z</time>
      </trkpt>
      <trkpt lat="50.796713009476662" lon="13.750713989138603">
        <ele>583.17999999999995</ele>
        <time>2024-09-19T09:49:56Z</time>
      </trkpt>
      <trkpt lat="50.796886011958122" lon="13.750597983598709">
        <ele>584.62</ele>
        <time>2024-09-19T09:49:57Z</time>
      </trkpt>
      <trkpt lat="50.796991959214211" lon="13.750420035794377">
        <ele>587.01999999999998</ele>
        <time>2024-09-19T09:49:58Z</time>
      </trkpt>
      <trkpt lat="50.797134032472968" lon="13.750184001401067">
        <ele>588.95000000000005</ele>
        <time>2024-09-19T09:49:59Z</time>
      </trkpt>
      <trkpt lat="50.797201003879309" lon="13.749922988936305">
        <ele>590.38999999999999</ele>
        <time>2024-09-19T09:50:00Z</time>
      </trkpt>
      <trkpt lat="50.797414993867278" lon="13.748122975230217">
        <ele>596.14999999999998</ele>
        <time>2024-09-19T09:50:08Z</time>
      </trkpt>
      <trkpt lat="50.797528987750411" lon="13.747481005266309">
        <ele>597.60000000000002</ele>
        <time>2024-09-19T09:50:11Z</time>
      </trkpt>
      <trkpt lat="50.797571986913681" lon="13.747265003621578">
        <ele>598.08000000000004</ele>
        <time>2024-09-19T09:50:12Z</time>
      </trkpt>
      <trkpt lat="50.797649016603827" lon="13.747041961178184">
        <ele>598.08000000000004</ele>
        <time>2024-09-19T09:50:13Z</time>
      </trkpt>
      <trkpt lat="50.797739960253239" lon="13.746820008382201">
        <ele>598.55999999999995</ele>
        <time>2024-09-19T09:50:14Z</time>
      </trkpt>
      <trkpt lat="50.797834005206823" lon="13.746585985645652">
        <ele>598.08000000000004</ele>
        <time>2024-09-19T09:50:15Z</time>
      </trkpt>
      <trkpt lat="50.798396011814475" lon="13.745333980768919">
        <ele>597.60000000000002</ele>
        <time>2024-09-19T09:50:21Z</time>
      </trkpt>
      <trkpt lat="50.798474969342351" lon="13.745152009651065">
        <ele>597.12</ele>
        <time>2024-09-19T09:50:22Z</time>
      </trkpt>
      <trkpt lat="50.798567002639174" lon="13.745061988011003">
        <ele>596.63999999999999</ele>
        <time>2024-09-19T09:50:23Z</time>
      </trkpt>
      <trkpt lat="50.798635985702276" lon="13.744994010776281">
        <ele>596.14999999999998</ele>
        <time>2024-09-19T09:50:24Z</time>
      </trkpt>
      <trkpt lat="50.79868501983583" lon="13.744946988299489">
        <ele>595.66999999999996</ele>
        <time>2024-09-19T09:50:25Z</time>
      </trkpt>
      <trkpt lat="50.798731036484241" lon="13.744901977479458">
        <ele>595.66999999999996</ele>
        <time>2024-09-19T09:50:31Z</time>
      </trkpt>
      <trkpt lat="50.798745034262538" lon="13.744886973872781">
        <ele>596.63999999999999</ele>
        <time>2024-09-19T09:50:32Z</time>
      </trkpt>
      <trkpt lat="50.798745034262538" lon="13.744886973872781">
        <ele>598.08000000000004</ele>
        <time>2024-09-19T09:50:43Z</time>
      </trkpt>
      <trkpt lat="50.798847964033484" lon="13.744093962013721">
        <ele>604.33000000000004</ele>
        <time>2024-09-19T10:00:27Z</time>
      </trkpt>
      <trkpt lat="50.79898601397872" lon="13.744780020788312">
        <ele>652.38999999999999</ele>
        <time>2024-09-19T10:00:42Z</time>
      </trkpt>
      <trkpt lat="50.798993976786733" lon="13.744783038273454">
        <ele>655.27999999999997</ele>
        <time>2024-09-19T10:00:43Z</time>
      </trkpt>
      <trkpt lat="50.798989031463861" lon="13.74464800581336">
        <ele>655.27999999999997</ele>
        <time>2024-09-19T10:00:45Z</time>
      </trkpt>
      <trkpt lat="50.799394967034459" lon="13.744250033050776">
        <ele>654.30999999999995</ele>
        <time>2024-09-19T10:00:51Z</time>
      </trkpt>
      <trkpt lat="50.799709036946297" lon="13.744007041677833">
        <ele>654.79999999999995</ele>
        <time>2024-09-19T10:00:54Z</time>
      </trkpt>
      <trkpt lat="50.799772990867496" lon="13.74398197978735">
        <ele>654.79999999999995</ele>
        <time>2024-09-19T10:00:55Z</time>
      </trkpt>
      <trkpt lat="50.799772990867496" lon="13.74398197978735">
        <ele>654.79999999999995</ele>
        <time>2024-09-19T10:00:56Z</time>
      </trkpt>
      <trkpt lat="50.800015982240438" lon="13.743996983394027">
        <ele>654.30999999999995</ele>
        <time>2024-09-19T10:00:57Z</time>
      </trkpt>
      <trkpt lat="50.800160989165306" lon="13.744006035849452">
        <ele>654.30999999999995</ele>
        <time>2024-09-19T10:00:58Z</time>
      </trkpt>
      <trkpt lat="50.800322005525231" lon="13.744019027799368">
        <ele>653.83000000000004</ele>
        <time>2024-09-19T10:00:59Z</time>
      </trkpt>
      <trkpt lat="50.801331019029021" lon="13.744105026125908">
        <ele>652.87</ele>
        <time>2024-09-19T10:01:05Z</time>
      </trkpt>
      <trkpt lat="50.801712982356548" lon="13.744142996147275">
        <ele>652.38999999999999</ele>
        <time>2024-09-19T10:01:08Z</time>
      </trkpt>
      <trkpt lat="50.801876010373235" lon="13.744176020845771">
        <ele>652.38999999999999</ele>
        <time>2024-09-19T10:01:09Z</time>
      </trkpt>
      <trkpt lat="50.803074035793543" lon="13.744019027799368">
        <ele>652.87</ele>
        <time>2024-09-19T10:01:16Z</time>
      </trkpt>
      <trkpt lat="50.804657964035869" lon="13.743333974853158">
        <ele>654.79999999999995</ele>
        <time>2024-09-19T10:01:24Z</time>
      </trkpt>
      <trkpt lat="50.806311964988708" lon="13.742630984634161">
        <ele>656.72000000000003</ele>
        <time>2024-09-19T10:01:32Z</time>
      </trkpt>
      <trkpt lat="50.807697996497154" lon="13.742178026586771">
        <ele>656.72000000000003</ele>
        <time>2024-09-19T10:01:40Z</time>
      </trkpt>
      <trkpt lat="50.808371985331178" lon="13.741913996636868">
        <ele>656.72000000000003</ele>
        <time>2024-09-19T10:01:46Z</time>
      </trkpt>
      <trkpt lat="50.80895503051579" lon="13.741645021364093">
        <ele>657.67999999999995</ele>
        <time>2024-09-19T10:01:52Z</time>
      </trkpt>
      <trkpt lat="50.809959014877677" lon="13.740872964262962">
        <ele>657.67999999999995</ele>
        <time>2024-09-19T10:01:58Z</time>
      </trkpt>
      <trkpt lat="50.810473999008536" lon="13.740348005667329">
        <ele>656.24000000000001</ele>
        <time>2024-09-19T10:02:01Z</time>
      </trkpt>
      <trkpt lat="50.810613976791501" lon="13.740152958780527">
        <ele>655.75999999999999</ele>
        <time>2024-09-19T10:02:02Z</time>
      </trkpt>
      <trkpt lat="50.81093399785459" lon="13.739509982988238">
        <ele>653.35000000000002</ele>
        <time>2024-09-19T10:02:05Z</time>
      </trkpt>
      <trkpt lat="50.811050003394485" lon="13.739332035183907">
        <ele>651.90999999999997</ele>
        <time>2024-09-19T10:02:06Z</time>
      </trkpt>
      <trkpt lat="50.811199033632874" lon="13.739197002723813">
        <ele>650.95000000000005</ele>
        <time>2024-09-19T10:02:07Z</time>
      </trkpt>
      <trkpt lat="50.811344962567091" lon="13.739089965820312">
        <ele>649.50999999999999</ele>
        <time>2024-09-19T10:02:08Z</time>
      </trkpt>
      <trkpt lat="50.811506984755397" lon="13.739010002464056">
        <ele>648.07000000000005</ele>
        <time>2024-09-19T10:02:09Z</time>
      </trkpt>
      <trkpt lat="50.812297984957695" lon="13.738759970292449">
        <ele>641.34000000000003</ele>
        <time>2024-09-19T10:02:14Z</time>
      </trkpt>
      <trkpt lat="50.812585987150669" lon="13.738729963079095">
        <ele>638.45000000000005</ele>
        <time>2024-09-19T10:02:16Z</time>
      </trkpt>
      <trkpt lat="50.813239021226764" lon="13.738741027191281">
        <ele>634.13</ele>
        <time>2024-09-19T10:02:21Z</time>
      </trkpt>
      <trkpt lat="50.81348997540772" lon="13.738642958924174">
        <ele>634.13</ele>
        <time>2024-09-19T10:02:23Z</time>
      </trkpt>
      <trkpt lat="50.813600029796362" lon="13.738570036366582">
        <ele>633.64999999999998</ele>
        <time>2024-09-19T10:02:24Z</time>
      </trkpt>
      <trkpt lat="50.813720980659127" lon="13.738488983362913">
        <ele>633.64999999999998</ele>
        <time>2024-09-19T10:02:25Z</time>
      </trkpt>
      <trkpt lat="50.813783006742597" lon="13.738379012793303">
        <ele>633.64999999999998</ele>
        <time>2024-09-19T10:02:26Z</time>
      </trkpt>
      <trkpt lat="50.813848972320557" lon="13.738260995596647">
        <ele>633.64999999999998</ele>
        <time>2024-09-19T10:02:27Z</time>
      </trkpt>
      <trkpt lat="50.813916027545929" lon="13.73813602142036">
        <ele>633.16999999999996</ele>
        <time>2024-09-19T10:02:28Z</time>
      </trkpt>
      <trkpt lat="50.813939999789" lon="13.737997971475124">
        <ele>633.16999999999996</ele>
        <time>2024-09-19T10:02:29Z</time>
      </trkpt>
      <trkpt lat="50.813966989517212" lon="13.737849025055766">
        <ele>633.16999999999996</ele>
        <time>2024-09-19T10:02:30Z</time>
      </trkpt>
      <trkpt lat="50.813994985073805" lon="13.737689014524221">
        <ele>633.16999999999996</ele>
        <time>2024-09-19T10:02:31Z</time>
      </trkpt>
      <trkpt lat="50.814020968973637" lon="13.737545013427734">
        <ele>633.16999999999996</ele>
        <time>2024-09-19T10:02:32Z</time>
      </trkpt>
      <trkpt lat="50.814509969204664" lon="13.735998971387744">
        <ele>632.20000000000005</ele>
        <time>2024-09-19T10:02:41Z</time>
      </trkpt>
      <trkpt lat="50.815249001607299" lon="13.734160987660289">
        <ele>623.07000000000005</ele>
        <time>2024-09-19T10:02:52Z</time>
      </trkpt>
      <trkpt lat="50.815369030460715" lon="13.733899975195527">
        <ele>621.14999999999998</ele>
        <time>2024-09-19T10:02:54Z</time>
      </trkpt>
      <trkpt lat="50.815428961068392" lon="13.733767960220575">
        <ele>620.66999999999996</ele>
        <time>2024-09-19T10:02:55Z</time>
      </trkpt>
      <trkpt lat="50.815483024343848" lon="13.733637034893036">
        <ele>619.71000000000004</ele>
        <time>2024-09-19T10:02:56Z</time>
      </trkpt>
      <trkpt lat="50.815586037933826" lon="13.733351966366172">
        <ele>618.25999999999999</ele>
        <time>2024-09-19T10:02:58Z</time>
      </trkpt>
      <trkpt lat="50.816022986546159" lon="13.732071965932846">
        <ele>612.98000000000002</ele>
        <time>2024-09-19T10:03:07Z</time>
      </trkpt>
      <trkpt lat="50.816120970994234" lon="13.731780024245381">
        <ele>612.5</ele>
        <time>2024-09-19T10:03:09Z</time>
      </trkpt>
      <trkpt lat="50.816152989864349" lon="13.731629988178611">
        <ele>612.01999999999998</ele>
        <time>2024-09-19T10:03:10Z</time>
      </trkpt>
      <trkpt lat="50.816168999299407" lon="13.731463020667434">
        <ele>611.53999999999996</ele>
        <time>2024-09-19T10:03:11Z</time>
      </trkpt>
      <trkpt lat="50.816296990960836" lon="13.729871967807412">
        <ele>603.36000000000001</ele>
        <time>2024-09-19T10:03:20Z</time>
      </trkpt>
      <trkpt lat="50.816307971253991" lon="13.729055989533663">
        <ele>600.96000000000004</ele>
        <time>2024-09-19T10:03:24Z</time>
      </trkpt>
      <trkpt lat="50.816259020939469" lon="13.728858008980751">
        <ele>600.48000000000002</ele>
        <time>2024-09-19T10:03:25Z</time>
      </trkpt>
      <trkpt lat="50.816011000424623" lon="13.727946979925036">
        <ele>597.12</ele>
        <time>2024-09-19T10:03:29Z</time>
      </trkpt>
      <trkpt lat="50.815977975726128" lon="13.727683033794165">
        <ele>596.14999999999998</ele>
        <time>2024-09-19T10:03:30Z</time>
      </trkpt>
      <trkpt lat="50.815957020968199" lon="13.727430989965796">
        <ele>595.19000000000005</ele>
        <time>2024-09-19T10:03:31Z</time>
      </trkpt>
      <trkpt lat="50.815989039838314" lon="13.727191016077995">
        <ele>594.23000000000002</ele>
        <time>2024-09-19T10:03:32Z</time>
      </trkpt>
      <trkpt lat="50.816031033173203" lon="13.726982977241278">
        <ele>593.26999999999998</ele>
        <time>2024-09-19T10:03:33Z</time>
      </trkpt>
      <trkpt lat="50.816118037328124" lon="13.726807041093707">
        <ele>592.30999999999995</ele>
        <time>2024-09-19T10:03:34Z</time>
      </trkpt>
      <trkpt lat="50.816211998462677" lon="13.726644013077021">
        <ele>591.35000000000002</ele>
        <time>2024-09-19T10:03:35Z</time>
      </trkpt>
      <trkpt lat="50.816316017881036" lon="13.726472016423941">
        <ele>589.90999999999997</ele>
        <time>2024-09-19T10:03:36Z</time>
      </trkpt>
      <trkpt lat="50.816809963434935" lon="13.725773971527815">
        <ele>585.58000000000004</ele>
        <time>2024-09-19T10:03:40Z</time>
      </trkpt>
      <trkpt lat="50.816955976188183" lon="13.725647991523147">
        <ele>584.13999999999999</ele>
        <time>2024-09-19T10:03:41Z</time>
      </trkpt>
      <trkpt lat="50.81722998060286" lon="13.725436013191938">
        <ele>581.73000000000002</ele>
        <time>2024-09-19T10:03:43Z</time>
      </trkpt>
      <trkpt lat="50.817334000021219" lon="13.725305004045367">
        <ele>580.28999999999996</ele>
        <time>2024-09-19T10:03:44Z</time>
      </trkpt>
      <trkpt lat="50.817410023882985" lon="13.725111968815327">
        <ele>579.80999999999995</ele>
        <time>2024-09-19T10:03:45Z</time>
      </trkpt>
      <trkpt lat="50.817490993067622" lon="13.724908037111163">
        <ele>579.33000000000004</ele>
        <time>2024-09-19T10:03:46Z</time>
      </trkpt>
      <trkpt lat="50.817576991394162" lon="13.724689017981291">
        <ele>578.85000000000002</ele>
        <time>2024-09-19T10:03:47Z</time>
      </trkpt>
      <trkpt lat="50.817671958357096" lon="13.724449966102839">
        <ele>578.85000000000002</ele>
        <time>2024-09-19T10:03:48Z</time>
      </trkpt>
      <trkpt lat="50.818275036290288" lon="13.722639977931976">
        <ele>575.97000000000003</ele>
        <time>2024-09-19T10:03:54Z</time>
      </trkpt>
      <trkpt lat="50.819168966263533" lon="13.720835018903017">
        <ele>568.75999999999999</ele>
        <time>2024-09-19T10:04:01Z</time>
      </trkpt>
      <trkpt lat="50.819266028702259" lon="13.720594039186835">
        <ele>567.32000000000005</ele>
        <time>2024-09-19T10:04:02Z</time>
      </trkpt>
      <trkpt lat="50.819963989779353" lon="13.718806011602283">
        <ele>556.74000000000001</ele>
        <time>2024-09-19T10:04:09Z</time>
      </trkpt>
      <trkpt lat="50.820367997512221" lon="13.717485023662448">
        <ele>549.04999999999995</ele>
        <time>2024-09-19T10:04:15Z</time>
      </trkpt>
      <trkpt lat="50.820779968053102" lon="13.716298984363675">
        <ele>540.39999999999998</ele>
        <time>2024-09-19T10:04:22Z</time>
      </trkpt>
      <trkpt lat="50.820839982479811" lon="13.716112989932299">
        <ele>538.48000000000002</ele>
        <time>2024-09-19T10:04:23Z</time>
      </trkpt>
      <trkpt lat="50.820910977199674" lon="13.715892964974046">
        <ele>537.02999999999997</ele>
        <time>2024-09-19T10:04:24Z</time>
      </trkpt>
      <trkpt lat="50.821000998839736" lon="13.715626001358032">
        <ele>535.11000000000001</ele>
        <time>2024-09-19T10:04:25Z</time>
      </trkpt>
      <trkpt lat="50.821107029914856" lon="13.71532098390162">
        <ele>533.19000000000005</ele>
        <time>2024-09-19T10:04:26Z</time>
      </trkpt>
      <trkpt lat="50.821217000484467" lon="13.715005991980433">
        <ele>531.26999999999998</ele>
        <time>2024-09-19T10:04:27Z</time>
      </trkpt>
      <trkpt lat="50.82163299433887" lon="13.713817019015551">
        <ele>523.58000000000004</ele>
        <time>2024-09-19T10:04:32Z</time>
      </trkpt>
      <trkpt lat="50.821746988222003" lon="13.713475037366152">
        <ele>521.16999999999996</ele>
        <time>2024-09-19T10:04:34Z</time>
      </trkpt>
      <trkpt lat="50.821810020133853" lon="13.713255012407899">
        <ele>520.69000000000005</ele>
        <time>2024-09-19T10:04:35Z</time>
      </trkpt>
      <trkpt lat="50.821815971285105" lon="13.713116040453315">
        <ele>520.69000000000005</ele>
        <time>2024-09-19T10:04:36Z</time>
      </trkpt>
      <trkpt lat="50.821824017912149" lon="13.71293599717319">
        <ele>520.69000000000005</ele>
        <time>2024-09-19T10:04:37Z</time>
      </trkpt>
      <trkpt lat="50.821829969063401" lon="13.712748996913433">
        <ele>521.16999999999996</ele>
        <time>2024-09-19T10:04:38Z</time>
      </trkpt>
      <trkpt lat="50.821810020133853" lon="13.71257197111845">
        <ele>521.16999999999996</ele>
        <time>2024-09-19T10:04:39Z</time>
      </trkpt>
      <trkpt lat="50.821788981556892" lon="13.712394023314118">
        <ele>521.64999999999998</ele>
        <time>2024-09-19T10:04:40Z</time>
      </trkpt>
      <trkpt lat="50.821682028472424" lon="13.71147402562201">
        <ele>520.69000000000005</ele>
        <time>2024-09-19T10:04:45Z</time>
      </trkpt>
      <trkpt lat="50.821678005158901" lon="13.711273027583957">
        <ele>520.21000000000004</ele>
        <time>2024-09-19T10:04:46Z</time>
      </trkpt>
      <trkpt lat="50.821674987673759" lon="13.711076974868774">
        <ele>519.73000000000002</ele>
        <time>2024-09-19T10:04:47Z</time>
      </trkpt>
      <trkpt lat="50.821670964360237" lon="13.71087497100234">
        <ele>519.25</ele>
        <time>2024-09-19T10:04:48Z</time>
      </trkpt>
      <trkpt lat="50.821667024865746" lon="13.710666010156274">
        <ele>518.76999999999998</ele>
        <time>2024-09-19T10:04:49Z</time>
      </trkpt>
      <trkpt lat="50.821664007380605" lon="13.710447996854782">
        <ele>518.28999999999996</ele>
        <time>2024-09-19T10:04:50Z</time>
      </trkpt>
      <trkpt lat="50.821674987673759" lon="13.710196958854795">
        <ele>518.28999999999996</ele>
        <time>2024-09-19T10:04:51Z</time>
      </trkpt>
      <trkpt lat="50.821789987385273" lon="13.709785994142294">
        <ele>517.80999999999995</ele>
        <time>2024-09-19T10:04:53Z</time>
      </trkpt>
      <trkpt lat="50.821856036782265" lon="13.709550965577364">
        <ele>517.80999999999995</ele>
        <time>2024-09-19T10:04:54Z</time>
      </trkpt>
      <trkpt lat="50.821989979594946" lon="13.709031958132982">
        <ele>516.85000000000002</ele>
        <time>2024-09-19T10:04:56Z</time>
      </trkpt>
      <trkpt lat="50.822048988193274" lon="13.708733981475234">
        <ele>515.88</ele>
        <time>2024-09-19T10:04:57Z</time>
      </trkpt>
      <trkpt lat="50.822580987587571" lon="13.706267019733787">
        <ele>506.26999999999998</ele>
        <time>2024-09-19T10:05:05Z</time>
      </trkpt>
      <trkpt lat="50.823016008362174" lon="13.704951982945204">
        <ele>497.62</ele>
        <time>2024-09-19T10:05:10Z</time>
      </trkpt>
      <trkpt lat="50.823133019730449" lon="13.704740004613996">
        <ele>495.69999999999999</ele>
        <time>2024-09-19T10:05:11Z</time>
      </trkpt>
      <trkpt lat="50.823475001379848" lon="13.704184032976627">
        <ele>489.93000000000001</ele>
        <time>2024-09-19T10:05:14Z</time>
      </trkpt>
      <trkpt lat="50.823614979162812" lon="13.704029973596334">
        <ele>488.00999999999999</ele>
        <time>2024-09-19T10:05:15Z</time>
      </trkpt>
      <trkpt lat="50.823769038543105" lon="13.703908016905189">
        <ele>486.07999999999998</ele>
        <time>2024-09-19T10:05:16Z</time>
      </trkpt>
      <trkpt lat="50.823926031589508" lon="13.703800980001688">
        <ele>484.16000000000003</ele>
        <time>2024-09-19T10:05:17Z</time>
      </trkpt>
      <trkpt lat="50.82408101297915" lon="13.70369603857398">
        <ele>482.24000000000001</ele>
        <time>2024-09-19T10:05:18Z</time>
      </trkpt>
      <trkpt lat="50.824523996561766" lon="13.703383980318904">
        <ele>475.99000000000001</ele>
        <time>2024-09-19T10:05:21Z</time>
      </trkpt>
      <trkpt lat="50.824647964909673" lon="13.703292030841112">
        <ele>474.55000000000001</ele>
        <time>2024-09-19T10:05:22Z</time>
      </trkpt>
      <trkpt lat="50.824902020394802" lon="13.703104024752975">
        <ele>471.18000000000001</ele>
        <time>2024-09-19T10:05:24Z</time>
      </trkpt>
      <trkpt lat="50.825003022328019" lon="13.702977960929275">
        <ele>469.25999999999999</ele>
        <time>2024-09-19T10:05:25Z</time>
      </trkpt>
      <trkpt lat="50.825121961534023" lon="13.702747039496899">
        <ele>467.81999999999999</ele>
        <time>2024-09-19T10:05:26Z</time>
      </trkpt>
      <trkpt lat="50.825191028416157" lon="13.702548975124955">
        <ele>465.89999999999998</ele>
        <time>2024-09-19T10:05:27Z</time>
      </trkpt>
      <trkpt lat="50.8252630289644" lon="13.702341020107269">
        <ele>463.49000000000001</ele>
        <time>2024-09-19T10:05:28Z</time>
      </trkpt>
      <trkpt lat="50.825773989781737" lon="13.700811993330717">
        <ele>445.70999999999998</ele>
        <time>2024-09-19T10:05:35Z</time>
      </trkpt>
      <trkpt lat="50.825952021405101" lon="13.700294997543097">
        <ele>441.86000000000001</ele>
        <time>2024-09-19T10:05:37Z</time>
      </trkpt>
      <trkpt lat="50.826041959226131" lon="13.699608016759157">
        <ele>438.5</ele>
        <time>2024-09-19T10:05:40Z</time>
      </trkpt>
      <trkpt lat="50.826071966439486" lon="13.699386985972524">
        <ele>437.54000000000002</ele>
        <time>2024-09-19T10:05:41Z</time>
      </trkpt>
      <trkpt lat="50.82609903998673" lon="13.699133014306426">
        <ele>436.10000000000002</ele>
        <time>2024-09-19T10:05:42Z</time>
      </trkpt>
      <trkpt lat="50.826074983924627" lon="13.698897985741496">
        <ele>435.61000000000001</ele>
        <time>2024-09-19T10:05:43Z</time>
      </trkpt>
      <trkpt lat="50.826046988368034" lon="13.698633033782244">
        <ele>435.13</ele>
        <time>2024-09-19T10:05:44Z</time>
      </trkpt>
      <trkpt lat="50.826017986983061" lon="13.698351988568902">
        <ele>435.13</ele>
        <time>2024-09-19T10:05:45Z</time>
      </trkpt>
      <trkpt lat="50.825979011133313" lon="13.69804697111249">
        <ele>434.64999999999998</ele>
        <time>2024-09-19T10:05:46Z</time>
      </trkpt>
      <trkpt lat="50.825784970074892" lon="13.69682396762073">
        <ele>433.20999999999998</ele>
        <time>2024-09-19T10:05:50Z</time>
      </trkpt>
      <trkpt lat="50.825792010873556" lon="13.696534037590027">
        <ele>433.20999999999998</ele>
        <time>2024-09-19T10:05:51Z</time>
      </trkpt>
      <trkpt lat="50.825797962024808" lon="13.696260033175349">
        <ele>433.20999999999998</ele>
        <time>2024-09-19T10:05:52Z</time>
      </trkpt>
      <trkpt lat="50.825831992551684" lon="13.695978987962008">
        <ele>432.73000000000002</ele>
        <time>2024-09-19T10:05:53Z</time>
      </trkpt>
      <trkpt lat="50.825897958129644" lon="13.695701966062188">
        <ele>432.73000000000002</ele>
        <time>2024-09-19T10:05:54Z</time>
      </trkpt>
      <trkpt lat="50.826011030003428" lon="13.695111963897943">
        <ele>432.73000000000002</ele>
        <time>2024-09-19T10:05:56Z</time>
      </trkpt>
      <trkpt lat="50.826136004179716" lon="13.69396498426795">
        <ele>434.64999999999998</ele>
        <time>2024-09-19T10:06:00Z</time>
      </trkpt>
      <trkpt lat="50.82614497281611" lon="13.69370698928833">
        <ele>436.10000000000002</ele>
        <time>2024-09-19T10:06:01Z</time>
      </trkpt>
      <trkpt lat="50.826138015836477" lon="13.692978015169501">
        <ele>438.01999999999998</ele>
        <time>2024-09-19T10:06:04Z</time>
      </trkpt>
      <trkpt lat="50.826136004179716" lon="13.69276000186801">
        <ele>438.98000000000002</ele>
        <time>2024-09-19T10:06:05Z</time>
      </trkpt>
      <trkpt lat="50.826133992522955" lon="13.692549029365182">
        <ele>438.98000000000002</ele>
        <time>2024-09-19T10:06:06Z</time>
      </trkpt>
      <trkpt lat="50.826131980866194" lon="13.692339984700084">
        <ele>439.45999999999998</ele>
        <time>2024-09-19T10:06:07Z</time>
      </trkpt>
      <trkpt lat="50.826129969209433" lon="13.692129012197256">
        <ele>439.45999999999998</ele>
        <time>2024-09-19T10:06:08Z</time>
      </trkpt>
      <trkpt lat="50.826128041371703" lon="13.691928014159203">
        <ele>439.94</ele>
        <time>2024-09-19T10:06:09Z</time>
      </trkpt>
      <trkpt lat="50.826113959774375" lon="13.690864015370607">
        <ele>441.86000000000001</ele>
        <time>2024-09-19T10:06:15Z</time>
      </trkpt>
      <trkpt lat="50.826133992522955" lon="13.690737029537559">
        <ele>442.33999999999997</ele>
        <time>2024-09-19T10:06:16Z</time>
      </trkpt>
      <trkpt lat="50.826151007786393" lon="13.690624963492155">
        <ele>442.33999999999997</ele>
        <time>2024-09-19T10:06:17Z</time>
      </trkpt>
      <trkpt lat="50.826171962544322" lon="13.690511975437403">
        <ele>442.81999999999999</ele>
        <time>2024-09-19T10:06:18Z</time>
      </trkpt>
      <trkpt lat="50.826195012778044" lon="13.690430000424385">
        <ele>442.81999999999999</ele>
        <time>2024-09-19T10:06:19Z</time>
      </trkpt>
      <trkpt lat="50.826246980577707" lon="13.690248029306531">
        <ele>443.79000000000002</ele>
        <time>2024-09-19T10:06:26Z</time>
      </trkpt>
      <trkpt lat="50.82625200971961" lon="13.690233025699854">
        <ele>443.79000000000002</ele>
        <time>2024-09-19T10:06:30Z</time>
      </trkpt>
      <trkpt lat="50.826266007497907" lon="13.6901839915663">
        <ele>444.26999999999998</ele>
        <time>2024-09-19T10:06:31Z</time>
      </trkpt>
      <trkpt lat="50.826345970854163" lon="13.69005499407649">
        <ele>444.75</ele>
        <time>2024-09-19T10:06:32Z</time>
      </trkpt>
      <trkpt lat="50.826406991109252" lon="13.690022975206375">
        <ele>444.75</ele>
        <time>2024-09-19T10:06:33Z</time>
      </trkpt>
      <trkpt lat="50.826493995264173" lon="13.689977964386344">
        <ele>445.23000000000002</ele>
        <time>2024-09-19T10:06:34Z</time>
      </trkpt>
      <trkpt lat="50.826602037996054" lon="13.689921973273158">
        <ele>445.23000000000002</ele>
        <time>2024-09-19T10:06:35Z</time>
      </trkpt>
      <trkpt lat="50.827653966844082" lon="13.689244966953993">
        <ele>447.14999999999998</ele>
        <time>2024-09-19T10:06:43Z</time>
      </trkpt>
      <trkpt lat="50.827922020107508" lon="13.688945984467864">
        <ele>448.11000000000001</ele>
        <time>2024-09-19T10:06:45Z</time>
      </trkpt>
      <trkpt lat="50.828864984214306" lon="13.688016012310982">
        <ele>450.02999999999997</ele>
        <time>2024-09-19T10:06:53Z</time>
      </trkpt>
      <trkpt lat="50.828963974490762" lon="13.687895983457565">
        <ele>450.51999999999998</ele>
        <time>2024-09-19T10:06:54Z</time>
      </trkpt>
      <trkpt lat="50.829034969210625" lon="13.687782995402813">
        <ele>451</ele>
        <time>2024-09-19T10:06:55Z</time>
      </trkpt>
      <trkpt lat="50.829091966152191" lon="13.687613010406494">
        <ele>451.48000000000002</ele>
        <time>2024-09-19T10:06:56Z</time>
      </trkpt>
      <trkpt lat="50.829149968922138" lon="13.687437996268272">
        <ele>451.95999999999998</ele>
        <time>2024-09-19T10:06:57Z</time>
      </trkpt>
      <trkpt lat="50.829201014712453" lon="13.687267005443573">
        <ele>451.95999999999998</ele>
        <time>2024-09-19T10:06:58Z</time>
      </trkpt>
      <trkpt lat="50.82923898473382" lon="13.687069024890661">
        <ele>452.44</ele>
        <time>2024-09-19T10:06:59Z</time>
      </trkpt>
      <trkpt lat="50.829380974173546" lon="13.686445998027921">
        <ele>451.95999999999998</ele>
        <time>2024-09-19T10:07:02Z</time>
      </trkpt>
      <trkpt lat="50.829455992206931" lon="13.686264026910067">
        <ele>451.95999999999998</ele>
        <time>2024-09-19T10:07:03Z</time>
      </trkpt>
      <trkpt lat="50.829550959169865" lon="13.686093958094716">
        <ele>451.95999999999998</ele>
        <time>2024-09-19T10:07:04Z</time>
      </trkpt>
      <trkpt lat="50.829651961103082" lon="13.685953980311751">
        <ele>451.95999999999998</ele>
        <time>2024-09-19T10:07:05Z</time>
      </trkpt>
      <trkpt lat="50.829752963036299" lon="13.685814002528787">
        <ele>451.95999999999998</ele>
        <time>2024-09-19T10:07:06Z</time>
      </trkpt>
      <trkpt lat="50.830899020656943" lon="13.684222027659416">
        <ele>451</ele>
        <time>2024-09-19T10:07:17Z</time>
      </trkpt>
      <trkpt lat="50.831866962835193" lon="13.682890981435776">
        <ele>448.58999999999997</ele>
        <time>2024-09-19T10:07:27Z</time>
      </trkpt>
      <trkpt lat="50.832427041605115" lon="13.682132000103593">
        <ele>446.67000000000002</ele>
        <time>2024-09-19T10:07:33Z</time>
      </trkpt>
      <trkpt lat="50.832519996911287" lon="13.682005014270544">
        <ele>446.67000000000002</ele>
        <time>2024-09-19T10:07:34Z</time>
      </trkpt>
      <trkpt lat="50.83261001855135" lon="13.681881967931986">
        <ele>446.19</ele>
        <time>2024-09-19T10:07:35Z</time>
      </trkpt>
      <trkpt lat="50.832700040191412" lon="13.681761017069221">
        <ele>445.70999999999998</ele>
        <time>2024-09-19T10:07:36Z</time>
      </trkpt>
      <trkpt lat="50.832787966355681" lon="13.681640988215804">
        <ele>445.70999999999998</ele>
        <time>2024-09-19T10:07:37Z</time>
      </trkpt>
      <trkpt lat="50.833723973482847" lon="13.680373979732394">
        <ele>443.79000000000002</ele>
        <time>2024-09-19T10:07:48Z</time>
      </trkpt>
      <trkpt lat="50.834598038345575" lon="13.679175032302737">
        <ele>443.31</ele>
        <time>2024-09-19T10:07:58Z</time>
      </trkpt>
      <trkpt lat="50.835202038288116" lon="13.678313959389925">
        <ele>443.31</ele>
        <time>2024-09-19T10:08:05Z</time>
      </trkpt>
      <trkpt lat="50.835336986929178" lon="13.678031992167234">
        <ele>442.81999999999999</ele>
        <time>2024-09-19T10:08:07Z</time>
      </trkpt>
      <trkpt lat="50.835386021062732" lon="13.677868964150548">
        <ele>443.31</ele>
        <time>2024-09-19T10:08:08Z</time>
      </trkpt>
      <trkpt lat="50.835594981908798" lon="13.677200004458427">
        <ele>442.81999999999999</ele>
        <time>2024-09-19T10:08:12Z</time>
      </trkpt>
      <trkpt lat="50.835648039355874" lon="13.677040999755263">
        <ele>441.86000000000001</ele>
        <time>2024-09-19T10:08:13Z</time>
      </trkpt>
      <trkpt lat="50.835702018812299" lon="13.676878977566957">
        <ele>441.38</ele>
        <time>2024-09-19T10:08:14Z</time>
      </trkpt>
      <trkpt lat="50.835771001875401" lon="13.676716033369303">
        <ele>441.38</ele>
        <time>2024-09-19T10:08:15Z</time>
      </trkpt>
      <trkpt lat="50.835836967453361" lon="13.676567003130913">
        <ele>440.89999999999998</ele>
        <time>2024-09-19T10:08:16Z</time>
      </trkpt>
      <trkpt lat="50.835903016850352" lon="13.676417972892523">
        <ele>440.42000000000002</ele>
        <time>2024-09-19T10:08:17Z</time>
      </trkpt>
      <trkpt lat="50.835967976599932" lon="13.676271038129926">
        <ele>439.94</ele>
        <time>2024-09-19T10:08:18Z</time>
      </trkpt>
      <trkpt lat="50.836068978533149" lon="13.676142962649465">
        <ele>439.45999999999998</ele>
        <time>2024-09-19T10:08:19Z</time>
      </trkpt>
      <trkpt lat="50.836161011829972" lon="13.676029974594712">
        <ele>438.98000000000002</ele>
        <time>2024-09-19T10:08:20Z</time>
      </trkpt>
      <trkpt lat="50.836266959086061" lon="13.675912041217089">
        <ele>438.98000000000002</ele>
        <time>2024-09-19T10:08:21Z</time>
      </trkpt>
      <trkpt lat="50.836377013474703" lon="13.675863007083535">
        <ele>438.5</ele>
        <time>2024-09-19T10:08:22Z</time>
      </trkpt>
      <trkpt lat="50.836496036499739" lon="13.675842974334955">
        <ele>438.01999999999998</ele>
        <time>2024-09-19T10:08:23Z</time>
      </trkpt>
      <trkpt lat="50.836602989584208" lon="13.675863007083535">
        <ele>438.01999999999998</ele>
        <time>2024-09-19T10:08:24Z</time>
      </trkpt>
      <trkpt lat="50.836712038144469" lon="13.675883961841464">
        <ele>437.54000000000002</ele>
        <time>2024-09-19T10:08:25Z</time>
      </trkpt>
      <trkpt lat="50.836828965693712" lon="13.675906006246805">
        <ele>437.54000000000002</ele>
        <time>2024-09-19T10:08:26Z</time>
      </trkpt>
      <trkpt lat="50.837646033614874" lon="13.675811039283872">
        <ele>436.57999999999998</ele>
        <time>2024-09-19T10:08:33Z</time>
      </trkpt>
      <trkpt lat="50.83774896338582" lon="13.675742978230119">
        <ele>436.10000000000002</ele>
        <time>2024-09-19T10:08:34Z</time>
      </trkpt>
      <trkpt lat="50.837857006117702" lon="13.675670977681875">
        <ele>436.57999999999998</ele>
        <time>2024-09-19T10:08:35Z</time>
      </trkpt>
      <trkpt lat="50.837950967252254" lon="13.675589002668858">
        <ele>436.57999999999998</ele>
        <time>2024-09-19T10:08:36Z</time>
      </trkpt>
      <trkpt lat="50.838044006377459" lon="13.675488000735641">
        <ele>437.06</ele>
        <time>2024-09-19T10:08:37Z</time>
      </trkpt>
      <trkpt lat="50.838138973340392" lon="13.675384987145662">
        <ele>437.06</ele>
        <time>2024-09-19T10:08:38Z</time>
      </trkpt>
      <trkpt lat="50.838227989152074" lon="13.675268981605768">
        <ele>437.54000000000002</ele>
        <time>2024-09-19T10:08:39Z</time>
      </trkpt>
      <trkpt lat="50.838315999135375" lon="13.675147024914622">
        <ele>437.54000000000002</ele>
        <time>2024-09-19T10:08:40Z</time>
      </trkpt>
      <trkpt lat="50.838682036846876" lon="13.674687026068568">
        <ele>437.54000000000002</ele>
        <time>2024-09-19T10:08:44Z</time>
      </trkpt>
      <trkpt lat="50.83940195851028" lon="13.673792006447911">
        <ele>436.10000000000002</ele>
        <time>2024-09-19T10:08:52Z</time>
      </trkpt>
      <trkpt lat="50.839491980150342" lon="13.673680024221539">
        <ele>436.10000000000002</ele>
        <time>2024-09-19T10:08:53Z</time>
      </trkpt>
      <trkpt lat="50.840255990624428" lon="13.67282398045063">
        <ele>433.69</ele>
        <time>2024-09-19T10:09:01Z</time>
      </trkpt>
      <trkpt lat="50.840499987825751" lon="13.67273697629571">
        <ele>433.20999999999998</ele>
        <time>2024-09-19T10:09:03Z</time>
      </trkpt>
      <trkpt lat="50.840636026114225" lon="13.672687020152807">
        <ele>433.20999999999998</ele>
        <time>2024-09-19T10:09:04Z</time>
      </trkpt>
      <trkpt lat="50.840781033039093" lon="13.672632034868002">
        <ele>433.20999999999998</ele>
        <time>2024-09-19T10:09:05Z</time>
      </trkpt>
      <trkpt lat="50.840932996943593" lon="13.672575959935784">
        <ele>433.20999999999998</ele>
        <time>2024-09-19T10:09:06Z</time>
      </trkpt>
      <trkpt lat="50.841083033010364" lon="13.672506976872683">
        <ele>432.73000000000002</ele>
        <time>2024-09-19T10:09:07Z</time>
      </trkpt>
      <trkpt lat="50.841231979429722" lon="13.672380996868014">
        <ele>432.73000000000002</ele>
        <time>2024-09-19T10:09:08Z</time>
      </trkpt>
      <trkpt lat="50.841390984132886" lon="13.672247976064682">
        <ele>432.73000000000002</ele>
        <time>2024-09-19T10:09:09Z</time>
      </trkpt>
      <trkpt lat="50.841545965522528" lon="13.67209299467504">
        <ele>432.73000000000002</ele>
        <time>2024-09-19T10:09:10Z</time>
      </trkpt>
      <trkpt lat="50.842373007908463" lon="13.671220019459724">
        <ele>430.81</ele>
        <time>2024-09-19T10:09:15Z</time>
      </trkpt>
      <trkpt lat="50.842557996511459" lon="13.67110401391983">
        <ele>430.81</ele>
        <time>2024-09-19T10:09:16Z</time>
      </trkpt>
      <trkpt lat="50.843368023633957" lon="13.670506970956922">
        <ele>429.37</ele>
        <time>2024-09-19T10:09:21Z</time>
      </trkpt>
      <trkpt lat="50.843477994203568" lon="13.670371016487479">
        <ele>429.37</ele>
        <time>2024-09-19T10:09:22Z</time>
      </trkpt>
      <trkpt lat="50.844189031049609" lon="13.669198974967003">
        <ele>428.88999999999999</ele>
        <time>2024-09-19T10:09:31Z</time>
      </trkpt>
      <trkpt lat="50.845083966851234" lon="13.668345026671886">
        <ele>428.88999999999999</ele>
        <time>2024-09-19T10:09:40Z</time>
      </trkpt>
      <trkpt lat="50.846288027241826" lon="13.667818978428841">
        <ele>430.32999999999998</ele>
        <time>2024-09-19T10:09:50Z</time>
      </trkpt>
      <trkpt lat="50.847482029348612" lon="13.66736501455307">
        <ele>431.76999999999998</ele>
        <time>2024-09-19T10:10:00Z</time>
      </trkpt>
      <trkpt lat="50.847590994089842" lon="13.667318997904658">
        <ele>431.76999999999998</ele>
        <time>2024-09-19T10:10:01Z</time>
      </trkpt>
      <trkpt lat="50.848842998966575" lon="13.666637968271971">
        <ele>432.25</ele>
        <time>2024-09-19T10:10:12Z</time>
      </trkpt>
      <trkpt lat="50.849265027791262" lon="13.666387014091015">
        <ele>432.25</ele>
        <time>2024-09-19T10:10:17Z</time>
      </trkpt>
      <trkpt lat="50.849304003641009" lon="13.666371004655957">
        <ele>431.76999999999998</ele>
        <time>2024-09-19T10:10:18Z</time>
      </trkpt>
      <trkpt lat="50.84932797588408" lon="13.666360024362803">
        <ele>431.76999999999998</ele>
        <time>2024-09-19T10:10:19Z</time>
      </trkpt>
      <trkpt lat="50.84932797588408" lon="13.666360024362803">
        <ele>431.29000000000002</ele>
        <time>2024-09-19T10:10:29Z</time>
      </trkpt>
      <trkpt lat="50.849358988925815" lon="13.666347032412887">
        <ele>430.81</ele>
        <time>2024-09-19T10:10:37Z</time>
      </trkpt>
      <trkpt lat="50.849376004189253" lon="13.666339991614223">
        <ele>430.81</ele>
        <time>2024-09-19T10:10:38Z</time>
      </trkpt>
      <trkpt lat="50.849244995042682" lon="13.66637603379786">
        <ele>430.32999999999998</ele>
        <time>2024-09-19T10:10:39Z</time>
      </trkpt>
      <trkpt lat="50.849194033071399" lon="13.666291041299701">
        <ele>429.85000000000002</ele>
        <time>2024-09-19T10:10:40Z</time>
      </trkpt>
      <trkpt lat="50.849136030301452" lon="13.666193978860974">
        <ele>429.37</ele>
        <time>2024-09-19T10:10:41Z</time>
      </trkpt>
      <trkpt lat="50.849076015874743" lon="13.666092976927757">
        <ele>429.37</ele>
        <time>2024-09-19T10:10:42Z</time>
      </trkpt>
      <trkpt lat="50.848827995359898" lon="13.665610011667013">
        <ele>429.37</ele>
        <time>2024-09-19T10:10:46Z</time>
      </trkpt>
      <trkpt lat="50.848677037283778" lon="13.665160993114114">
        <ele>428.88999999999999</ele>
        <time>2024-09-19T10:10:48Z</time>
      </trkpt>
      <trkpt lat="50.848203040659428" lon="13.663409007713199">
        <ele>429.37</ele>
        <time>2024-09-19T10:10:54Z</time>
      </trkpt>
      <trkpt lat="50.848111007362604" lon="13.66311103105545">
        <ele>429.85000000000002</ele>
        <time>2024-09-19T10:10:56Z</time>
      </trkpt>
      <trkpt lat="50.848059039562941" lon="13.662945991382003">
        <ele>429.85000000000002</ele>
        <time>2024-09-19T10:10:57Z</time>
      </trkpt>
      <trkpt lat="50.848014028742909" lon="13.662798972800374">
        <ele>429.85000000000002</ele>
        <time>2024-09-19T10:10:58Z</time>
      </trkpt>
      <trkpt lat="50.847969017922878" lon="13.662655977532268">
        <ele>430.32999999999998</ele>
        <time>2024-09-19T10:10:59Z</time>
      </trkpt>
      <trkpt lat="50.847924007102847" lon="13.6625109706074">
        <ele>430.32999999999998</ele>
        <time>2024-09-19T10:11:00Z</time>
      </trkpt>
      <trkpt lat="50.847877990454435" lon="13.662361018359661">
        <ele>430.81</ele>
        <time>2024-09-19T10:11:01Z</time>
      </trkpt>
      <trkpt lat="50.847831973806024" lon="13.662215005606413">
        <ele>431.76999999999998</ele>
        <time>2024-09-19T10:11:02Z</time>
      </trkpt>
      <trkpt lat="50.847787968814373" lon="13.662074021995068">
        <ele>432.73000000000002</ele>
        <time>2024-09-19T10:11:03Z</time>
      </trkpt>
      <trkpt lat="50.847742035984993" lon="13.661924991756678">
        <ele>433.69</ele>
        <time>2024-09-19T10:11:04Z</time>
      </trkpt>
      <trkpt lat="50.847699036821723" lon="13.661775039508939">
        <ele>434.64999999999998</ele>
        <time>2024-09-19T10:11:05Z</time>
      </trkpt>
      <trkpt lat="50.847667017951608" lon="13.661636989563704">
        <ele>435.61000000000001</ele>
        <time>2024-09-19T10:11:06Z</time>
      </trkpt>
      <trkpt lat="50.847653020173311" lon="13.661445965990424">
        <ele>436.57999999999998</ele>
        <time>2024-09-19T10:11:07Z</time>
      </trkpt>
      <trkpt lat="50.847667017951608" lon="13.661280004307628">
        <ele>437.54000000000002</ele>
        <time>2024-09-19T10:11:08Z</time>
      </trkpt>
      <trkpt lat="50.847697025164962" lon="13.660927964374423">
        <ele>438.98000000000002</ele>
        <time>2024-09-19T10:11:10Z</time>
      </trkpt>
      <trkpt lat="50.847740024328232" lon="13.659761035814881">
        <ele>441.38</ele>
        <time>2024-09-19T10:11:14Z</time>
      </trkpt>
      <trkpt lat="50.847752010449767" lon="13.658692007884383">
        <ele>443.79000000000002</ele>
        <time>2024-09-19T10:11:17Z</time>
      </trkpt>
      <trkpt lat="50.847717979922891" lon="13.658352037891746">
        <ele>444.26999999999998</ele>
        <time>2024-09-19T10:11:18Z</time>
      </trkpt>
      <trkpt lat="50.847636004909873" lon="13.657647036015987">
        <ele>445.70999999999998</ele>
        <time>2024-09-19T10:11:20Z</time>
      </trkpt>
      <trkpt lat="50.847616977989674" lon="13.657284015789628">
        <ele>446.67000000000002</ele>
        <time>2024-09-19T10:11:21Z</time>
      </trkpt>
      <trkpt lat="50.847598034888506" lon="13.656918983906507">
        <ele>447.14999999999998</ele>
        <time>2024-09-19T10:11:22Z</time>
      </trkpt>
      <trkpt lat="50.847581019625068" lon="13.656584965065122">
        <ele>448.58999999999997</ele>
        <time>2024-09-19T10:11:23Z</time>
      </trkpt>
      <trkpt lat="50.847519999369979" lon="13.656234014779329">
        <ele>449.55000000000001</ele>
        <time>2024-09-19T10:11:24Z</time>
      </trkpt>
      <trkpt lat="50.847464008256793" lon="13.655916005373001">
        <ele>450.51999999999998</ele>
        <time>2024-09-19T10:11:25Z</time>
      </trkpt>
      <trkpt lat="50.847401982173324" lon="13.655634038150311">
        <ele>451.48000000000002</ele>
        <time>2024-09-19T10:11:26Z</time>
      </trkpt>
      <trkpt lat="50.847319001331925" lon="13.655375959351659">
        <ele>452.44</ele>
        <time>2024-09-19T10:11:27Z</time>
      </trkpt>
      <trkpt lat="50.847204001620412" lon="13.655145959928632">
        <ele>453.39999999999998</ele>
        <time>2024-09-19T10:11:28Z</time>
      </trkpt>
      <trkpt lat="50.847089001908898" lon="13.654915038496256">
        <ele>454.36000000000001</ele>
        <time>2024-09-19T10:11:29Z</time>
      </trkpt>
      <trkpt lat="50.846196999773383" lon="13.653286015614867">
        <ele>460.13</ele>
        <time>2024-09-19T10:11:35Z</time>
      </trkpt>
      <trkpt lat="50.845893993973732" lon="13.652815958485007">
        <ele>462.05000000000001</ele>
        <time>2024-09-19T10:11:37Z</time>
      </trkpt>
      <trkpt lat="50.845249006524682" lon="13.651949018239975">
        <ele>466.86000000000001</ele>
        <time>2024-09-19T10:11:42Z</time>
      </trkpt>
      <trkpt lat="50.844679037109017" lon="13.650655020028353">
        <ele>473.11000000000001</ele>
        <time>2024-09-19T10:11:47Z</time>
      </trkpt>
      <trkpt lat="50.844383994117379" lon="13.649868965148926">
        <ele>476.94999999999999</ele>
        <time>2024-09-19T10:11:50Z</time>
      </trkpt>
      <trkpt lat="50.84399901330471" lon="13.647560002282262">
        <ele>486.07999999999998</ele>
        <time>2024-09-19T10:11:57Z</time>
      </trkpt>
      <trkpt lat="50.84369701333344" lon="13.64495599642396">
        <ele>499.54000000000002</ele>
        <time>2024-09-19T10:12:05Z</time>
      </trkpt>
      <trkpt lat="50.843580001965165" lon="13.642796985805035">
        <ele>511.56</ele>
        <time>2024-09-19T10:12:13Z</time>
      </trkpt>
      <trkpt lat="50.843531973659992" lon="13.641638020053506">
        <ele>517.33000000000004</ele>
        <time>2024-09-19T10:12:19Z</time>
      </trkpt>
      <trkpt lat="50.843514036387205" lon="13.641344988718629">
        <ele>518.28999999999996</ele>
        <time>2024-09-19T10:12:21Z</time>
      </trkpt>
      <trkpt lat="50.843500960618258" lon="13.641171986237168">
        <ele>518.28999999999996</ele>
        <time>2024-09-19T10:12:22Z</time>
      </trkpt>
      <trkpt lat="50.843441030010581" lon="13.641021028161049">
        <ele>518.28999999999996</ele>
        <time>2024-09-19T10:12:23Z</time>
      </trkpt>
      <trkpt lat="50.84337699227035" lon="13.640864035114646">
        <ele>518.76999999999998</ele>
        <time>2024-09-19T10:12:24Z</time>
      </trkpt>
      <trkpt lat="50.84331102669239" lon="13.64070100709796">
        <ele>519.25</ele>
        <time>2024-09-19T10:12:25Z</time>
      </trkpt>
      <trkpt lat="50.843244977295399" lon="13.640536973252892">
        <ele>519.25</ele>
        <time>2024-09-19T10:12:26Z</time>
      </trkpt>
      <trkpt lat="50.842959992587566" lon="13.639922998845577">
        <ele>521.64999999999998</ele>
        <time>2024-09-19T10:12:30Z</time>
      </trkpt>
      <trkpt lat="50.842869970947504" lon="13.639795007184148">
        <ele>522.61000000000001</ele>
        <time>2024-09-19T10:12:31Z</time>
      </trkpt>
      <trkpt lat="50.842762012034655" lon="13.639701968058944">
        <ele>523.09000000000003</ele>
        <time>2024-09-19T10:12:32Z</time>
      </trkpt>
      <trkpt lat="50.842350963503122" lon="13.639302989467978">
        <ele>525.98000000000002</ele>
        <time>2024-09-19T10:12:36Z</time>
      </trkpt>
      <trkpt lat="50.84223797544837" lon="13.639182960614562">
        <ele>526.46000000000004</ele>
        <time>2024-09-19T10:12:37Z</time>
      </trkpt>
      <trkpt lat="50.84215197712183" lon="13.639053963124752">
        <ele>527.41999999999996</ele>
        <time>2024-09-19T10:12:38Z</time>
      </trkpt>
      <trkpt lat="50.841873027384281" lon="13.638410987332463">
        <ele>530.78999999999996</ele>
        <time>2024-09-19T10:12:42Z</time>
      </trkpt>
      <trkpt lat="50.841665994375944" lon="13.637773040682077">
        <ele>533.66999999999996</ele>
        <time>2024-09-19T10:12:46Z</time>
      </trkpt>
      <trkpt lat="50.841602962464094" lon="13.637613030150533">
        <ele>534.63</ele>
        <time>2024-09-19T10:12:47Z</time>
      </trkpt>
      <trkpt lat="50.841528028249741" lon="13.637462994083762">
        <ele>535.11000000000001</ele>
        <time>2024-09-19T10:12:48Z</time>
      </trkpt>
      <trkpt lat="50.84131202660501" lon="13.636766960844398">
        <ele>537.02999999999997</ele>
        <time>2024-09-19T10:12:52Z</time>
      </trkpt>
      <trkpt lat="50.841045984998345" lon="13.635078007355332">
        <ele>541.36000000000001</ele>
        <time>2024-09-19T10:13:01Z</time>
      </trkpt>
      <trkpt lat="50.840462017804384" lon="13.63376003690064">
        <ele>547.61000000000001</ele>
        <time>2024-09-19T10:13:10Z</time>
      </trkpt>
      <trkpt lat="50.84038901142776" lon="13.633607989177108">
        <ele>548.09000000000003</ele>
        <time>2024-09-19T10:13:11Z</time>
      </trkpt>
      <trkpt lat="50.840316005051136" lon="13.633457031100988">
        <ele>549.04999999999995</ele>
        <time>2024-09-19T10:13:12Z</time>
      </trkpt>
      <trkpt lat="50.839748969301581" lon="13.631584011018276">
        <ele>559.62</ele>
        <time>2024-09-19T10:13:23Z</time>
      </trkpt>
      <trkpt lat="50.83937899209559" lon="13.629968985915184">
        <ele>567.79999999999995</ele>
        <time>2024-09-19T10:13:32Z</time>
      </trkpt>
      <trkpt lat="50.83910096436739" lon="13.627335978671908">
        <ele>580.28999999999996</ele>
        <time>2024-09-19T10:13:46Z</time>
      </trkpt>
      <trkpt lat="50.839059976860881" lon="13.626583032310009">
        <ele>582.70000000000005</ele>
        <time>2024-09-19T10:13:50Z</time>
      </trkpt>
      <trkpt lat="50.839021001011133" lon="13.625629004091024">
        <ele>585.58000000000004</ele>
        <time>2024-09-19T10:13:55Z</time>
      </trkpt>
      <trkpt lat="50.838983030989766" lon="13.625442003831267">
        <ele>586.05999999999995</ele>
        <time>2024-09-19T10:13:56Z</time>
      </trkpt>
      <trkpt lat="50.83892896771431" lon="13.625236982479692">
        <ele>586.53999999999996</ele>
        <time>2024-09-19T10:13:57Z</time>
      </trkpt>
      <trkpt lat="50.838853027671576" lon="13.625041013583541">
        <ele>586.53999999999996</ele>
        <time>2024-09-19T10:13:58Z</time>
      </trkpt>
      <trkpt lat="50.838762000203133" lon="13.624835992231965">
        <ele>587.01999999999998</ele>
        <time>2024-09-19T10:13:59Z</time>
      </trkpt>
      <trkpt lat="50.838447008281946" lon="13.624210031703115">
        <ele>587.98000000000002</ele>
        <time>2024-09-19T10:14:02Z</time>
      </trkpt>
      <trkpt lat="50.838315999135375" lon="13.624016996473074">
        <ele>588.46000000000004</ele>
        <time>2024-09-19T10:14:03Z</time>
      </trkpt>
      <trkpt lat="50.838153976947069" lon="13.623854974284768">
        <ele>588.95000000000005</ele>
        <time>2024-09-19T10:14:04Z</time>
      </trkpt>
      <trkpt lat="50.837988015264273" lon="13.623689012601972">
        <ele>589.42999999999995</ele>
        <time>2024-09-19T10:14:05Z</time>
      </trkpt>
      <trkpt lat="50.837805038318038" lon="13.623550040647388">
        <ele>590.38999999999999</ele>
        <time>2024-09-19T10:14:06Z</time>
      </trkpt>
      <trkpt lat="50.837609991431236" lon="13.623426994308829">
        <ele>591.35000000000002</ele>
        <time>2024-09-19T10:14:07Z</time>
      </trkpt>
      <trkpt lat="50.835865968838334" lon="13.622455028817058">
        <ele>595.19000000000005</ele>
        <time>2024-09-19T10:14:15Z</time>
      </trkpt>
      <trkpt lat="50.835635969415307" lon="13.622428961098194">
        <ele>593.75</ele>
        <time>2024-09-19T10:14:16Z</time>
      </trkpt>
      <trkpt lat="50.83415899425745" lon="13.622410017997026">
        <ele>586.05999999999995</ele>
        <time>2024-09-19T10:14:22Z</time>
      </trkpt>
      <trkpt lat="50.833953972905874" lon="13.622341034933925">
        <ele>585.58000000000004</ele>
        <time>2024-09-19T10:14:23Z</time>
      </trkpt>
      <trkpt lat="50.833773007616401" lon="13.622185969725251">
        <ele>585.10000000000002</ele>
        <time>2024-09-19T10:14:24Z</time>
      </trkpt>
      <trkpt lat="50.833617020398378" lon="13.621993018314242">
        <ele>584.62</ele>
        <time>2024-09-19T10:14:25Z</time>
      </trkpt>
      <trkpt lat="50.833482993766665" lon="13.621740974485874">
        <ele>584.13999999999999</ele>
        <time>2024-09-19T10:14:26Z</time>
      </trkpt>
      <trkpt lat="50.833352990448475" lon="13.621496977284551">
        <ele>584.13999999999999</ele>
        <time>2024-09-19T10:14:27Z</time>
      </trkpt>
      <trkpt lat="50.833269003778696" lon="13.621188020333648">
        <ele>584.62</ele>
        <time>2024-09-19T10:14:28Z</time>
      </trkpt>
      <trkpt lat="50.833181999623775" lon="13.620866993442178">
        <ele>584.62</ele>
        <time>2024-09-19T10:14:29Z</time>
      </trkpt>
      <trkpt lat="50.833123996853828" lon="13.620515959337354">
        <ele>585.10000000000002</ele>
        <time>2024-09-19T10:14:30Z</time>
      </trkpt>
      <trkpt lat="50.832787966355681" lon="13.618750981986523">
        <ele>586.53999999999996</ele>
        <time>2024-09-19T10:14:36Z</time>
      </trkpt>
      <trkpt lat="50.832703979685903" lon="13.61850899644196">
        <ele>586.53999999999996</ele>
        <time>2024-09-19T10:14:37Z</time>
      </trkpt>
      <trkpt lat="50.832574982196093" lon="13.618296012282372">
        <ele>586.05999999999995</ele>
        <time>2024-09-19T10:14:38Z</time>
      </trkpt>
      <trkpt lat="50.83243902772665" lon="13.618072969838977">
        <ele>585.58000000000004</ele>
        <time>2024-09-19T10:14:39Z</time>
      </trkpt>
      <trkpt lat="50.832271976396441" lon="13.617880018427968">
        <ele>584.62</ele>
        <time>2024-09-19T10:14:40Z</time>
      </trkpt>
      <trkpt lat="50.831228010356426" lon="13.616818031296134">
        <ele>577.88999999999999</ele>
        <time>2024-09-19T10:14:46Z</time>
      </trkpt>
      <trkpt lat="50.831059031188488" lon="13.616686016321182">
        <ele>576.45000000000005</ele>
        <time>2024-09-19T10:14:47Z</time>
      </trkpt>
      <trkpt lat="50.830883011221886" lon="13.616647040471435">
        <ele>575.00999999999999</ele>
        <time>2024-09-19T10:14:48Z</time>
      </trkpt>
      <trkpt lat="50.830713026225567" lon="13.616610998287797">
        <ele>573.55999999999995</ele>
        <time>2024-09-19T10:14:49Z</time>
      </trkpt>
      <trkpt lat="50.830553015694022" lon="13.616667995229363">
        <ele>572.12</ele>
        <time>2024-09-19T10:14:50Z</time>
      </trkpt>
      <trkpt lat="50.830387976020575" lon="13.616738989949226">
        <ele>570.67999999999995</ele>
        <time>2024-09-19T10:14:51Z</time>
      </trkpt>
      <trkpt lat="50.830241041257977" lon="13.616860024631023">
        <ele>569.24000000000001</ele>
        <time>2024-09-19T10:14:52Z</time>
      </trkpt>
      <trkpt lat="50.830091005191207" lon="13.616981981322169">
        <ele>568.27999999999997</ele>
        <time>2024-09-19T10:14:53Z</time>
      </trkpt>
      <trkpt lat="50.829561017453671" lon="13.617414990440011">
        <ele>564.90999999999997</ele>
        <time>2024-09-19T10:14:57Z</time>
      </trkpt>
      <trkpt lat="50.829321965575218" lon="13.617538036778569">
        <ele>563.47000000000003</ele>
        <time>2024-09-19T10:14:59Z</time>
      </trkpt>
      <trkpt lat="50.829201014712453" lon="13.617549017071724">
        <ele>562.99000000000001</ele>
        <time>2024-09-19T10:15:00Z</time>
      </trkpt>
      <trkpt lat="50.829095989465714" lon="13.617533007636666">
        <ele>562.50999999999999</ele>
        <time>2024-09-19T10:15:01Z</time>
      </trkpt>
      <trkpt lat="50.828994987532496" lon="13.617492020130157">
        <ele>562.02999999999997</ele>
        <time>2024-09-19T10:15:02Z</time>
      </trkpt>
      <trkpt lat="50.828906977549195" lon="13.617426976561546">
        <ele>561.54999999999995</ele>
        <time>2024-09-19T10:15:03Z</time>
      </trkpt>
      <trkpt lat="50.828834977000952" lon="13.617319017648697">
        <ele>560.59000000000003</ele>
        <time>2024-09-19T10:15:04Z</time>
      </trkpt>
      <trkpt lat="50.828761970624328" lon="13.617208041250706">
        <ele>560.11000000000001</ele>
        <time>2024-09-19T10:15:05Z</time>
      </trkpt>
      <trkpt lat="50.828708996996284" lon="13.617080971598625">
        <ele>559.62</ele>
        <time>2024-09-19T10:15:06Z</time>
      </trkpt>
      <trkpt lat="50.82865702919662" lon="13.616952979937196">
        <ele>559.13999999999999</ele>
        <time>2024-09-19T10:15:07Z</time>
      </trkpt>
      <trkpt lat="50.828603971749544" lon="13.616825994104147">
        <ele>558.65999999999997</ele>
        <time>2024-09-19T10:15:08Z</time>
      </trkpt>
      <trkpt lat="50.828552003949881" lon="13.616698002442718">
        <ele>558.17999999999995</ele>
        <time>2024-09-19T10:15:09Z</time>
      </trkpt>
      <trkpt lat="50.828187977895141" lon="13.615815974771976">
        <ele>561.07000000000005</ele>
        <time>2024-09-19T10:15:15Z</time>
      </trkpt>
      <trkpt lat="50.828110026195645" lon="13.615680020302534">
        <ele>562.02999999999997</ele>
        <time>2024-09-19T10:15:16Z</time>
      </trkpt>
      <trkpt lat="50.828015981242061" lon="13.615550016984344">
        <ele>562.99000000000001</ele>
        <time>2024-09-19T10:15:17Z</time>
      </trkpt>
      <trkpt lat="50.827916990965605" lon="13.615411967039108">
        <ele>564.42999999999995</ele>
        <time>2024-09-19T10:15:18Z</time>
      </trkpt>
      <trkpt lat="50.82779997959733" lon="13.615291016176343">
        <ele>565.87</ele>
        <time>2024-09-19T10:15:19Z</time>
      </trkpt>
      <trkpt lat="50.827102018520236" lon="13.614676035940647">
        <ele>574.52999999999997</ele>
        <time>2024-09-19T10:15:24Z</time>
      </trkpt>
      <trkpt lat="50.826755007728934" lon="13.614558018743992">
        <ele>577.40999999999997</ele>
        <time>2024-09-19T10:15:26Z</time>
      </trkpt>
      <trkpt lat="50.824817027896643" lon="13.613946978002787">
        <ele>591.83000000000004</ele>
        <time>2024-09-19T10:15:36Z</time>
      </trkpt>
      <trkpt lat="50.824622986838222" lon="13.61384597606957">
        <ele>593.75</ele>
        <time>2024-09-19T10:15:37Z</time>
      </trkpt>
      <trkpt lat="50.824440009891987" lon="13.613710021600127">
        <ele>595.19000000000005</ele>
        <time>2024-09-19T10:15:38Z</time>
      </trkpt>
      <trkpt lat="50.824285028502345" lon="13.613512963056564">
        <ele>596.63999999999999</ele>
        <time>2024-09-19T10:15:39Z</time>
      </trkpt>
      <trkpt lat="50.824141027405858" lon="13.613304002210498">
        <ele>598.08000000000004</ele>
        <time>2024-09-19T10:15:40Z</time>
      </trkpt>
      <trkpt lat="50.824014041572809" lon="13.613063022494316">
        <ele>599.03999999999996</ele>
        <time>2024-09-19T10:15:41Z</time>
      </trkpt>
      <trkpt lat="50.823928965255618" lon="13.612778959795833">
        <ele>600</ele>
        <time>2024-09-19T10:15:42Z</time>
      </trkpt>
      <trkpt lat="50.823874985799193" lon="13.612476037815213">
        <ele>600.96000000000004</ele>
        <time>2024-09-19T10:15:43Z</time>
      </trkpt>
      <trkpt lat="50.823828969150782" lon="13.612164985388517">
        <ele>601.91999999999996</ele>
        <time>2024-09-19T10:15:44Z</time>
      </trkpt>
      <trkpt lat="50.823782030493021" lon="13.611858040094376">
        <ele>602.39999999999998</ele>
        <time>2024-09-19T10:15:45Z</time>
      </trkpt>
      <trkpt lat="50.823736013844609" lon="13.611555034294724">
        <ele>602.88</ele>
        <time>2024-09-19T10:15:46Z</time>
      </trkpt>
      <trkpt lat="50.823636017739773" lon="13.610977018252015">
        <ele>602.88</ele>
        <time>2024-09-19T10:15:48Z</time>
      </trkpt>
      <trkpt lat="50.823540966957808" lon="13.610719023272395">
        <ele>602.39999999999998</ele>
        <time>2024-09-19T10:15:49Z</time>
      </trkpt>
      <trkpt lat="50.823443988338113" lon="13.61045197583735">
        <ele>601.44000000000005</ele>
        <time>2024-09-19T10:15:50Z</time>
      </trkpt>
      <trkpt lat="50.822322992607951" lon="13.608257006853819">
        <ele>592.30999999999995</ele>
        <time>2024-09-19T10:15:58Z</time>
      </trkpt>
      <trkpt lat="50.821505002677441" lon="13.60641298815608">
        <ele>582.70000000000005</ele>
        <time>2024-09-19T10:16:04Z</time>
      </trkpt>
      <trkpt lat="50.821436019614339" lon="13.606027001515031">
        <ele>580.76999999999998</ele>
        <time>2024-09-19T10:16:05Z</time>
      </trkpt>
      <trkpt lat="50.821366030722857" lon="13.605641014873981">
        <ele>579.33000000000004</ele>
        <time>2024-09-19T10:16:06Z</time>
      </trkpt>
      <trkpt lat="50.82131096161902" lon="13.605245975777507">
        <ele>577.40999999999997</ele>
        <time>2024-09-19T10:16:07Z</time>
      </trkpt>
      <trkpt lat="50.821292018517852" lon="13.604840962216258">
        <ele>575.97000000000003</ele>
        <time>2024-09-19T10:16:08Z</time>
      </trkpt>
      <trkpt lat="50.821142988279462" lon="13.601507982239127">
        <ele>562.02999999999997</ele>
        <time>2024-09-19T10:16:16Z</time>
      </trkpt>
      <trkpt lat="50.820893039926887" lon="13.600150030106306">
        <ele>555.77999999999997</ele>
        <time>2024-09-19T10:16:20Z</time>
      </trkpt>
      <trkpt lat="50.820784997195005" lon="13.599844006821513">
        <ele>554.34000000000003</ele>
        <time>2024-09-19T10:16:21Z</time>
      </trkpt>
      <trkpt lat="50.820676032453775" lon="13.599534966051579">
        <ele>552.89999999999998</ele>
        <time>2024-09-19T10:16:22Z</time>
      </trkpt>
      <trkpt lat="50.820405967533588" lon="13.599001038819551">
        <ele>550.00999999999999</ele>
        <time>2024-09-19T10:16:24Z</time>
      </trkpt>
      <trkpt lat="50.82023598253727" lon="13.598771039396524">
        <ele>548.57000000000005</ele>
        <time>2024-09-19T10:16:25Z</time>
      </trkpt>
      <trkpt lat="50.820060968399048" lon="13.598555959761143">
        <ele>547.61000000000001</ele>
        <time>2024-09-19T10:16:26Z</time>
      </trkpt>
      <trkpt lat="50.819670036435127" lon="13.598182965070009">
        <ele>545.69000000000005</ele>
        <time>2024-09-19T10:16:28Z</time>
      </trkpt>
      <trkpt lat="50.819465015083551" lon="13.598048016428947">
        <ele>544.72000000000003</ele>
        <time>2024-09-19T10:16:29Z</time>
      </trkpt>
      <trkpt lat="50.819260999560356" lon="13.597913989797235">
        <ele>544.24000000000001</ele>
        <time>2024-09-19T10:16:30Z</time>
      </trkpt>
      <trkpt lat="50.819050027057528" lon="13.597828997299075">
        <ele>543.75999999999999</ele>
        <time>2024-09-19T10:16:31Z</time>
      </trkpt>
      <trkpt lat="50.818834025412798" lon="13.597781974822283">
        <ele>543.27999999999997</ele>
        <time>2024-09-19T10:16:32Z</time>
      </trkpt>
      <trkpt lat="50.818626992404461" lon="13.597736964002252">
        <ele>543.27999999999997</ele>
        <time>2024-09-19T10:16:33Z</time>
      </trkpt>
      <trkpt lat="50.818413002416492" lon="13.597713997587562">
        <ele>542.79999999999995</ele>
        <time>2024-09-19T10:16:34Z</time>
      </trkpt>
      <trkpt lat="50.818189037963748" lon="13.597739981487393">
        <ele>542.79999999999995</ele>
        <time>2024-09-19T10:16:35Z</time>
      </trkpt>
      <trkpt lat="50.81796096637845" lon="13.59779697842896">
        <ele>542.79999999999995</ele>
        <time>2024-09-19T10:16:36Z</time>
      </trkpt>
      <trkpt lat="50.817732978612185" lon="13.597866967320442">
        <ele>542.79999999999995</ele>
        <time>2024-09-19T10:16:37Z</time>
      </trkpt>
      <trkpt lat="50.81658398732543" lon="13.598222024738789">
        <ele>541.84000000000003</ele>
        <time>2024-09-19T10:16:42Z</time>
      </trkpt>
      <trkpt lat="50.814997041597962" lon="13.59872099943459">
        <ele>540.88</ele>
        <time>2024-09-19T10:16:49Z</time>
      </trkpt>
      <trkpt lat="50.813445970416069" lon="13.599248975515366">
        <ele>537.99000000000001</ele>
        <time>2024-09-19T10:16:57Z</time>
      </trkpt>
      <trkpt lat="50.813114969059825" lon="13.599297003820539">
        <ele>537.02999999999997</ele>
        <time>2024-09-19T10:16:59Z</time>
      </trkpt>
      <trkpt lat="50.812953030690551" lon="13.599303960800171">
        <ele>536.54999999999995</ele>
        <time>2024-09-19T10:17:00Z</time>
      </trkpt>
      <trkpt lat="50.812794025987387" lon="13.599259033799171">
        <ele>536.54999999999995</ele>
        <time>2024-09-19T10:17:01Z</time>
      </trkpt>
      <trkpt lat="50.812638038769364" lon="13.599182004109025">
        <ele>536.07000000000005</ele>
        <time>2024-09-19T10:17:02Z</time>
      </trkpt>
      <trkpt lat="50.81250200048089" lon="13.599060969427228">
        <ele>535.59000000000003</ele>
        <time>2024-09-19T10:17:03Z</time>
      </trkpt>
      <trkpt lat="50.812391024082899" lon="13.598900958895683">
        <ele>535.11000000000001</ele>
        <time>2024-09-19T10:17:04Z</time>
      </trkpt>
      <trkpt lat="50.812279963865876" lon="13.598739020526409">
        <ele>534.63</ele>
        <time>2024-09-19T10:17:05Z</time>
      </trkpt>
      <trkpt lat="50.812170999124646" lon="13.598570041358471">
        <ele>534.14999999999998</ele>
        <time>2024-09-19T10:17:06Z</time>
      </trkpt>
      <trkpt lat="50.81209204159677" lon="13.598349010571837">
        <ele>533.66999999999996</ele>
        <time>2024-09-19T10:17:07Z</time>
      </trkpt>
      <trkpt lat="50.812033032998443" lon="13.598134014755487">
        <ele>533.66999999999996</ele>
        <time>2024-09-19T10:17:08Z</time>
      </trkpt>
      <trkpt lat="50.811997996643186" lon="13.597907032817602">
        <ele>533.19000000000005</ele>
        <time>2024-09-19T10:17:09Z</time>
      </trkpt>
      <trkpt lat="50.811994979158044" lon="13.597692959010601">
        <ele>533.19000000000005</ele>
        <time>2024-09-19T10:17:10Z</time>
      </trkpt>
      <trkpt lat="50.812019035220146" lon="13.597471006214619">
        <ele>532.71000000000004</ele>
        <time>2024-09-19T10:17:11Z</time>
      </trkpt>
      <trkpt lat="50.812042001634836" lon="13.597247041761875">
        <ele>532.23000000000002</ele>
        <time>2024-09-19T10:17:12Z</time>
      </trkpt>
      <trkpt lat="50.812068991363049" lon="13.596997009590268">
        <ele>532.23000000000002</ele>
        <time>2024-09-19T10:17:13Z</time>
      </trkpt>
      <trkpt lat="50.81213504076004" lon="13.596806991845369">
        <ele>531.75</ele>
        <time>2024-09-19T10:17:14Z</time>
      </trkpt>
      <trkpt lat="50.812211986631155" lon="13.596588978543878">
        <ele>531.26999999999998</ele>
        <time>2024-09-19T10:17:15Z</time>
      </trkpt>
      <trkpt lat="50.812320029363036" lon="13.596399966627359">
        <ele>530.29999999999995</ele>
        <time>2024-09-19T10:17:16Z</time>
      </trkpt>
      <trkpt lat="50.81243896856904" lon="13.596222018823028">
        <ele>529.82000000000005</ele>
        <time>2024-09-19T10:17:17Z</time>
      </trkpt>
      <trkpt lat="50.812593027949333" lon="13.596082041040063">
        <ele>529.34000000000003</ele>
        <time>2024-09-19T10:17:18Z</time>
      </trkpt>
      <trkpt lat="50.813849978148937" lon="13.595130024477839">
        <ele>528.86000000000001</ele>
        <time>2024-09-19T10:17:25Z</time>
      </trkpt>
      <trkpt lat="50.814004959538579" lon="13.594935983419418">
        <ele>529.34000000000003</ele>
        <time>2024-09-19T10:17:26Z</time>
      </trkpt>
      <trkpt lat="50.814158013090491" lon="13.594716964289546">
        <ele>529.34000000000003</ele>
        <time>2024-09-19T10:17:27Z</time>
      </trkpt>
      <trkpt lat="50.814293967559934" lon="13.594434997066855">
        <ele>530.29999999999995</ele>
        <time>2024-09-19T10:17:28Z</time>
      </trkpt>
      <trkpt lat="50.81441399641335" lon="13.594131991267204">
        <ele>530.78999999999996</ele>
        <time>2024-09-19T10:17:29Z</time>
      </trkpt>
      <trkpt lat="50.814537964761257" lon="13.593818005174398">
        <ele>531.26999999999998</ele>
        <time>2024-09-19T10:17:30Z</time>
      </trkpt>
      <trkpt lat="50.814658999443054" lon="13.593482980504632">
        <ele>531.26999999999998</ele>
        <time>2024-09-19T10:17:31Z</time>
      </trkpt>
      <trkpt lat="50.815861970186234" lon="13.589970963075757">
        <ele>533.19000000000005</ele>
        <time>2024-09-19T10:17:42Z</time>
      </trkpt>
      <trkpt lat="50.816015023738146" lon="13.589740041643381">
        <ele>533.66999999999996</ele>
        <time>2024-09-19T10:17:43Z</time>
      </trkpt>
      <trkpt lat="50.817195028066635" lon="13.588018985465169">
        <ele>534.14999999999998</ele>
        <time>2024-09-19T10:17:50Z</time>
      </trkpt>
      <trkpt lat="50.817924002185464" lon="13.586970996111631">
        <ele>534.63</ele>
        <time>2024-09-19T10:17:54Z</time>
      </trkpt>
      <trkpt lat="50.81873101182282" lon="13.585221022367477">
        <ele>536.07000000000005</ele>
        <time>2024-09-19T10:18:00Z</time>
      </trkpt>
      <trkpt lat="50.818809969350696" lon="13.584945006296039">
        <ele>536.54999999999995</ele>
        <time>2024-09-19T10:18:01Z</time>
      </trkpt>
      <trkpt lat="50.818836037069559" lon="13.584663961082697">
        <ele>537.50999999999999</ele>
        <time>2024-09-19T10:18:02Z</time>
      </trkpt>
      <trkpt lat="50.818830002099276" lon="13.58436799608171">
        <ele>537.99000000000001</ele>
        <time>2024-09-19T10:18:03Z</time>
      </trkpt>
      <trkpt lat="50.818794965744019" lon="13.584083011373878">
        <ele>538.48000000000002</ele>
        <time>2024-09-19T10:18:04Z</time>
      </trkpt>
      <trkpt lat="50.818721037358046" lon="13.583799032494426">
        <ele>539.44000000000005</ele>
        <time>2024-09-19T10:18:05Z</time>
      </trkpt>
      <trkpt lat="50.818634033203125" lon="13.583525028079748">
        <ele>540.88</ele>
        <time>2024-09-19T10:18:06Z</time>
      </trkpt>
      <trkpt lat="50.818523978814483" lon="13.583252029493451">
        <ele>542.32000000000005</ele>
        <time>2024-09-19T10:18:07Z</time>
      </trkpt>
      <trkpt lat="50.817542960867286" lon="13.581392001360655">
        <ele>553.86000000000001</ele>
        <time>2024-09-19T10:18:14Z</time>
      </trkpt>
      <trkpt lat="50.817368030548096" lon="13.581192009150982">
        <ele>555.77999999999997</ele>
        <time>2024-09-19T10:18:15Z</time>
      </trkpt>
      <trkpt lat="50.816374020650983" lon="13.580185007303953">
        <ele>563.47000000000003</ele>
        <time>2024-09-19T10:18:21Z</time>
      </trkpt>
      <trkpt lat="50.81626296043396" lon="13.580008987337351">
        <ele>564.42999999999995</ele>
        <time>2024-09-19T10:18:22Z</time>
      </trkpt>
      <trkpt lat="50.816177967935801" lon="13.579836990684271">
        <ele>566.35000000000002</ele>
        <time>2024-09-19T10:18:23Z</time>
      </trkpt>
      <trkpt lat="50.816107979044318" lon="13.579677985981107">
        <ele>568.27999999999997</ele>
        <time>2024-09-19T10:18:24Z</time>
      </trkpt>
      <trkpt lat="50.816055005416274" lon="13.579524010419846">
        <ele>569.72000000000003</ele>
        <time>2024-09-19T10:18:25Z</time>
      </trkpt>
      <trkpt lat="50.816012006253004" lon="13.579374980181456">
        <ele>571.15999999999997</ele>
        <time>2024-09-19T10:18:26Z</time>
      </trkpt>
      <trkpt lat="50.815972024574876" lon="13.579219998791814">
        <ele>572.60000000000002</ele>
        <time>2024-09-19T10:18:27Z</time>
      </trkpt>
      <trkpt lat="50.815889965742826" lon="13.578879022970796">
        <ele>575.97000000000003</ele>
        <time>2024-09-19T10:18:29Z</time>
      </trkpt>
      <trkpt lat="50.815845038741827" lon="13.5786940343678">
        <ele>577.40999999999997</ele>
        <time>2024-09-19T10:18:30Z</time>
      </trkpt>
      <trkpt lat="50.815771026536822" lon="13.578551961109042">
        <ele>578.85000000000002</ele>
        <time>2024-09-19T10:18:31Z</time>
      </trkpt>
      <trkpt lat="50.815065018832684" lon="13.577260980382562">
        <ele>588.95000000000005</ele>
        <time>2024-09-19T10:18:40Z</time>
      </trkpt>
      <trkpt lat="50.814955970272422" lon="13.577181017026305">
        <ele>589.90999999999997</ele>
        <time>2024-09-19T10:18:41Z</time>
      </trkpt>
      <trkpt lat="50.814840970560908" lon="13.577130977064371">
        <ele>590.87</ele>
        <time>2024-09-19T10:18:42Z</time>
      </trkpt>
      <trkpt lat="50.813803961500525" lon="13.576446007937193">
        <ele>597.12</ele>
        <time>2024-09-19T10:18:50Z</time>
      </trkpt>
      <trkpt lat="50.81248196773231" lon="13.575349990278482">
        <ele>601.44000000000005</ele>
        <time>2024-09-19T10:18:57Z</time>
      </trkpt>
      <trkpt lat="50.811454011127353" lon="13.57439998537302">
        <ele>602.88</ele>
        <time>2024-09-19T10:19:02Z</time>
      </trkpt>
      <trkpt lat="50.811295006424189" lon="13.574171997606754">
        <ele>602.88</ele>
        <time>2024-09-19T10:19:03Z</time>
      </trkpt>
      <trkpt lat="50.811161985620856" lon="13.573911990970373">
        <ele>602.88</ele>
        <time>2024-09-19T10:19:04Z</time>
      </trkpt>
      <trkpt lat="50.811067018657923" lon="13.573610996827483">
        <ele>602.39999999999998</ele>
        <time>2024-09-19T10:19:05Z</time>
      </trkpt>
      <trkpt lat="50.810969034209847" lon="13.573297010734677">
        <ele>602.39999999999998</ele>
        <time>2024-09-19T10:19:06Z</time>
      </trkpt>
      <trkpt lat="50.810892004519701" lon="13.572947988286614">
        <ele>602.39999999999998</ele>
        <time>2024-09-19T10:19:07Z</time>
      </trkpt>
      <trkpt lat="50.810518004000187" lon="13.570619998499751">
        <ele>601.91999999999996</ele>
        <time>2024-09-19T10:19:14Z</time>
      </trkpt>
      <trkpt lat="50.810466958209872" lon="13.570352029055357">
        <ele>601.91999999999996</ele>
        <time>2024-09-19T10:19:15Z</time>
      </trkpt>
      <trkpt lat="50.810410967096686" lon="13.570128986611962">
        <ele>601.44000000000005</ele>
        <time>2024-09-19T10:19:16Z</time>
      </trkpt>
      <trkpt lat="50.810335027053952" lon="13.569939974695444">
        <ele>601.44000000000005</ele>
        <time>2024-09-19T10:19:17Z</time>
      </trkpt>
      <trkpt lat="50.810239976271987" lon="13.569798991084099">
        <ele>600.96000000000004</ele>
        <time>2024-09-19T10:19:18Z</time>
      </trkpt>
      <trkpt lat="50.810093963518739" lon="13.569638980552554">
        <ele>600.48000000000002</ele>
        <time>2024-09-19T10:19:19Z</time>
      </trkpt>
      <trkpt lat="50.809997990727425" lon="13.569600004702806">
        <ele>600</ele>
        <time>2024-09-19T10:19:20Z</time>
      </trkpt>
      <trkpt lat="50.809840997681022" lon="13.569583995267749">
        <ele>599.03999999999996</ele>
        <time>2024-09-19T10:19:21Z</time>
      </trkpt>
      <trkpt lat="50.809673024341464" lon="13.569575026631355">
        <ele>598.55999999999995</ele>
        <time>2024-09-19T10:19:22Z</time>
      </trkpt>
      <trkpt lat="50.807897988706827" lon="13.569572009146214">
        <ele>589.90999999999997</ele>
        <time>2024-09-19T10:19:31Z</time>
      </trkpt>
      <trkpt lat="50.807695984840393" lon="13.569511994719505">
        <ele>588.46000000000004</ele>
        <time>2024-09-19T10:19:32Z</time>
      </trkpt>
      <trkpt lat="50.807509990409017" lon="13.569380985572934">
        <ele>587.01999999999998</ele>
        <time>2024-09-19T10:19:33Z</time>
      </trkpt>
      <trkpt lat="50.807331036776304" lon="13.569231033325195">
        <ele>585.58000000000004</ele>
        <time>2024-09-19T10:19:34Z</time>
      </trkpt>
      <trkpt lat="50.807154010981321" lon="13.569042021408677">
        <ele>584.13999999999999</ele>
        <time>2024-09-19T10:19:35Z</time>
      </trkpt>
      <trkpt lat="50.806405004113913" lon="13.568288991227746">
        <ele>578.37</ele>
        <time>2024-09-19T10:19:39Z</time>
      </trkpt>
      <trkpt lat="50.80564602278173" lon="13.567839972674847">
        <ele>572.12</ele>
        <time>2024-09-19T10:19:43Z</time>
      </trkpt>
      <trkpt lat="50.805505039170384" lon="13.567704018205404">
        <ele>571.15999999999997</ele>
        <time>2024-09-19T10:19:44Z</time>
      </trkpt>
      <trkpt lat="50.805390039458871" lon="13.567535961046815">
        <ele>569.72000000000003</ele>
        <time>2024-09-19T10:19:45Z</time>
      </trkpt>
      <trkpt lat="50.805288031697273" lon="13.567358013242483">
        <ele>568.75999999999999</ele>
        <time>2024-09-19T10:19:46Z</time>
      </trkpt>
      <trkpt lat="50.805201027542353" lon="13.567169001325965">
        <ele>567.79999999999995</ele>
        <time>2024-09-19T10:19:47Z</time>
      </trkpt>
      <trkpt lat="50.805117962881923" lon="13.566988036036491">
        <ele>566.83000000000004</ele>
        <time>2024-09-19T10:19:48Z</time>
      </trkpt>
      <trkpt lat="50.805032970383763" lon="13.566843029111624">
        <ele>565.87</ele>
        <time>2024-09-19T10:19:49Z</time>
      </trkpt>
      <trkpt lat="50.80493900924921" lon="13.566725011914968">
        <ele>564.42999999999995</ele>
        <time>2024-09-19T10:19:50Z</time>
      </trkpt>
      <trkpt lat="50.804835995659232" lon="13.566638007760048">
        <ele>562.99000000000001</ele>
        <time>2024-09-19T10:19:51Z</time>
      </trkpt>
      <trkpt lat="50.804728036746383" lon="13.566588973626494">
        <ele>562.02999999999997</ele>
        <time>2024-09-19T10:19:52Z</time>
      </trkpt>
      <trkpt lat="50.804623011499643" lon="13.566548991948366">
        <ele>561.07000000000005</ele>
        <time>2024-09-19T10:19:53Z</time>
      </trkpt>
      <trkpt lat="50.804522009566426" lon="13.566494006663561">
        <ele>560.11000000000001</ele>
        <time>2024-09-19T10:19:54Z</time>
      </trkpt>
      <trkpt lat="50.804206011816859" lon="13.566322010010481">
        <ele>558.65999999999997</ele>
        <time>2024-09-19T10:19:57Z</time>
      </trkpt>
      <trkpt lat="50.803994033485651" lon="13.566206004470587">
        <ele>557.70000000000005</ele>
        <time>2024-09-19T10:19:59Z</time>
      </trkpt>
      <trkpt lat="50.803565969690681" lon="13.566001988947392">
        <ele>555.29999999999995</ele>
        <time>2024-09-19T10:20:03Z</time>
      </trkpt>
      <trkpt lat="50.802652006968856" lon="13.565721027553082">
        <ele>553.38</ele>
        <time>2024-09-19T10:20:12Z</time>
      </trkpt>
      <trkpt lat="50.802572965621948" lon="13.565671993419528">
        <ele>554.34000000000003</ele>
        <time>2024-09-19T10:20:13Z</time>
      </trkpt>
      <trkpt lat="50.802509011700749" lon="13.56556998565793">
        <ele>555.29999999999995</ele>
        <time>2024-09-19T10:20:14Z</time>
      </trkpt>
      <trkpt lat="50.802468024194241" lon="13.565415004268289">
        <ele>556.25999999999999</ele>
        <time>2024-09-19T10:20:15Z</time>
      </trkpt>
      <trkpt lat="50.802468024194241" lon="13.565211994573474">
        <ele>557.22000000000003</ele>
        <time>2024-09-19T10:20:16Z</time>
      </trkpt>
      <trkpt lat="50.802501970902085" lon="13.565017031505704">
        <ele>558.17999999999995</ele>
        <time>2024-09-19T10:20:17Z</time>
      </trkpt>
      <trkpt lat="50.802536001428962" lon="13.56481796130538">
        <ele>559.13999999999999</ele>
        <time>2024-09-19T10:20:18Z</time>
      </trkpt>
      <trkpt lat="50.8025530166924" lon="13.564609000459313">
        <ele>560.11000000000001</ele>
        <time>2024-09-19T10:20:19Z</time>
      </trkpt>
      <trkpt lat="50.802557040005922" lon="13.56438604183495">
        <ele>561.07000000000005</ele>
        <time>2024-09-19T10:20:20Z</time>
      </trkpt>
      <trkpt lat="50.802531978115439" lon="13.56415101327002">
        <ele>562.50999999999999</ele>
        <time>2024-09-19T10:20:21Z</time>
      </trkpt>
      <trkpt lat="50.802476992830634" lon="13.563910033553839">
        <ele>563.47000000000003</ele>
        <time>2024-09-19T10:20:22Z</time>
      </trkpt>
      <trkpt lat="50.802170969545841" lon="13.562287967652082">
        <ele>567.79999999999995</ele>
        <time>2024-09-19T10:20:28Z</time>
      </trkpt>
      <trkpt lat="50.802160995081067" lon="13.562029972672462">
        <ele>568.27999999999997</ele>
        <time>2024-09-19T10:20:29Z</time>
      </trkpt>
      <trkpt lat="50.802151020616293" lon="13.561783963814378">
        <ele>568.27999999999997</ele>
        <time>2024-09-19T10:20:30Z</time>
      </trkpt>
      <trkpt lat="50.802140040323138" lon="13.561551030725241">
        <ele>568.75999999999999</ele>
        <time>2024-09-19T10:20:31Z</time>
      </trkpt>
      <trkpt lat="50.802086982876062" lon="13.561323964968324">
        <ele>569.72000000000003</ele>
        <time>2024-09-19T10:20:32Z</time>
      </trkpt>
      <trkpt lat="50.801991010084748" lon="13.561121039092541">
        <ele>570.67999999999995</ele>
        <time>2024-09-19T10:20:33Z</time>
      </trkpt>
      <trkpt lat="50.80186796374619" lon="13.56090503744781">
        <ele>571.15999999999997</ele>
        <time>2024-09-19T10:20:34Z</time>
      </trkpt>
      <trkpt lat="50.801719017326832" lon="13.56071300804615">
        <ele>571.63999999999999</ele>
        <time>2024-09-19T10:20:35Z</time>
      </trkpt>
      <trkpt lat="50.801321966573596" lon="13.560120994225144">
        <ele>575.49000000000001</ele>
        <time>2024-09-19T10:20:38Z</time>
      </trkpt>
      <trkpt lat="50.801210990175605" lon="13.55991899035871">
        <ele>576.45000000000005</ele>
        <time>2024-09-19T10:20:39Z</time>
      </trkpt>
      <trkpt lat="50.801186012104154" lon="13.55968396179378">
        <ele>577.88999999999999</ele>
        <time>2024-09-19T10:20:40Z</time>
      </trkpt>
      <trkpt lat="50.801173020154238" lon="13.559409035369754">
        <ele>578.85000000000002</ele>
        <time>2024-09-19T10:20:41Z</time>
      </trkpt>
      <trkpt lat="50.801188023760915" lon="13.559113992378116">
        <ele>580.28999999999996</ele>
        <time>2024-09-19T10:20:42Z</time>
      </trkpt>
      <trkpt lat="50.801204033195972" lon="13.558805035427213">
        <ele>581.73000000000002</ele>
        <time>2024-09-19T10:20:43Z</time>
      </trkpt>
      <trkpt lat="50.801262035965919" lon="13.555712029337883">
        <ele>594.71000000000004</ele>
        <time>2024-09-19T10:20:52Z</time>
      </trkpt>
      <trkpt lat="50.801201015710831" lon="13.55540500022471">
        <ele>596.63999999999999</ele>
        <time>2024-09-19T10:20:53Z</time>
      </trkpt>
      <trkpt lat="50.801105964928865" lon="13.555120015516877">
        <ele>598.08000000000004</ele>
        <time>2024-09-19T10:20:54Z</time>
      </trkpt>
      <trkpt lat="50.800785021856427" lon="13.554207980632782">
        <ele>603.36000000000001</ele>
        <time>2024-09-19T10:20:57Z</time>
      </trkpt>
      <trkpt lat="50.800714027136564" lon="13.553862981498241">
        <ele>604.80999999999995</ele>
        <time>2024-09-19T10:20:58Z</time>
      </trkpt>
      <trkpt lat="50.800525015220046" lon="13.552368991076946">
        <ele>610.57000000000005</ele>
        <time>2024-09-19T10:21:02Z</time>
      </trkpt>
      <trkpt lat="50.80049199052155" lon="13.5519880335778">
        <ele>612.01999999999998</ele>
        <time>2024-09-19T10:21:03Z</time>
      </trkpt>
      <trkpt lat="50.800499031320214" lon="13.551598023623228">
        <ele>612.98000000000002</ele>
        <time>2024-09-19T10:21:04Z</time>
      </trkpt>
      <trkpt lat="50.800521997734904" lon="13.551244977861643">
        <ele>613.46000000000004</ele>
        <time>2024-09-19T10:21:05Z</time>
      </trkpt>
      <trkpt lat="50.800584023818374" lon="13.550907019525766">
        <ele>613.94000000000005</ele>
        <time>2024-09-19T10:21:06Z</time>
      </trkpt>
      <trkpt lat="50.800682008266449" lon="13.550593033432961">
        <ele>614.41999999999996</ele>
        <time>2024-09-19T10:21:07Z</time>
      </trkpt>
      <trkpt lat="50.800794996321201" lon="13.550302013754845">
        <ele>615.38</ele>
        <time>2024-09-19T10:21:08Z</time>
      </trkpt>
      <trkpt lat="50.801276033744216" lon="13.54898395948112">
        <ele>620.19000000000005</ele>
        <time>2024-09-19T10:21:13Z</time>
      </trkpt>
      <trkpt lat="50.801341999322176" lon="13.548709033057094">
        <ele>621.14999999999998</ele>
        <time>2024-09-19T10:21:14Z</time>
      </trkpt>
      <trkpt lat="50.801365971565247" lon="13.548439973965287">
        <ele>622.11000000000001</ele>
        <time>2024-09-19T10:21:15Z</time>
      </trkpt>
      <trkpt lat="50.801382986828685" lon="13.548246016725898">
        <ele>623.07000000000005</ele>
        <time>2024-09-19T10:21:16Z</time>
      </trkpt>
      <trkpt lat="50.801377035677433" lon="13.548061028122902">
        <ele>623.54999999999995</ele>
        <time>2024-09-19T10:21:17Z</time>
      </trkpt>
      <trkpt lat="50.801373012363911" lon="13.547953991219401">
        <ele>624.50999999999999</ele>
        <time>2024-09-19T10:21:18Z</time>
      </trkpt>
      <trkpt lat="50.80137100070715" lon="13.547882996499538">
        <ele>624.99000000000001</ele>
        <time>2024-09-19T10:21:19Z</time>
      </trkpt>
      <trkpt lat="50.801368989050388" lon="13.547835974022746">
        <ele>625.47000000000003</ele>
        <time>2024-09-19T10:21:20Z</time>
      </trkpt>
      <trkpt lat="50.801368989050388" lon="13.547835974022746">
        <ele>626.91999999999996</ele>
        <time>2024-09-19T10:21:29Z</time>
      </trkpt>
      <trkpt lat="50.801367983222008" lon="13.547790963202715">
        <ele>627.39999999999998</ele>
        <time>2024-09-19T10:22:09Z</time>
      </trkpt>
      <trkpt lat="50.801337976008654" lon="13.547436995431781">
        <ele>626.44000000000005</ele>
        <time>2024-09-19T10:22:20Z</time>
      </trkpt>
      <trkpt lat="50.801332024857402" lon="13.547397013753653">
        <ele>624.50999999999999</ele>
        <time>2024-09-19T10:22:26Z</time>
      </trkpt>
      <trkpt lat="50.801325989887118" lon="13.547354014590383">
        <ele>624.02999999999997</ele>
        <time>2024-09-19T10:22:27Z</time>
      </trkpt>
      <trkpt lat="50.801301011815667" lon="13.547272961586714">
        <ele>623.07000000000005</ele>
        <time>2024-09-19T10:22:28Z</time>
      </trkpt>
      <trkpt lat="50.801252983510494" lon="13.547196015715599">
        <ele>622.59000000000003</ele>
        <time>2024-09-19T10:22:29Z</time>
      </trkpt>
      <trkpt lat="50.801192969083786" lon="13.547098031267524">
        <ele>622.11000000000001</ele>
        <time>2024-09-19T10:22:30Z</time>
      </trkpt>
      <trkpt lat="50.801094984635711" lon="13.546995017677546">
        <ele>621.63</ele>
        <time>2024-09-19T10:22:31Z</time>
      </trkpt>
      <trkpt lat="50.800979984924197" lon="13.546932991594076">
        <ele>621.63</ele>
        <time>2024-09-19T10:22:32Z</time>
      </trkpt>
      <trkpt lat="50.800849981606007" lon="13.546864008530974">
        <ele>621.14999999999998</ele>
        <time>2024-09-19T10:22:33Z</time>
      </trkpt>
      <trkpt lat="50.79954500310123" lon="13.546220026910305">
        <ele>621.63</ele>
        <time>2024-09-19T10:22:42Z</time>
      </trkpt>
      <trkpt lat="50.799440983682871" lon="13.546132016927004">
        <ele>621.63</ele>
        <time>2024-09-19T10:22:43Z</time>
      </trkpt>
      <trkpt lat="50.799344005063176" lon="13.546049036085606">
        <ele>622.59000000000003</ele>
        <time>2024-09-19T10:22:44Z</time>
      </trkpt>
      <trkpt lat="50.798377990722656" lon="13.544994005933404">
        <ele>628.84000000000003</ele>
        <time>2024-09-19T10:22:54Z</time>
      </trkpt>
      <trkpt lat="50.798157965764403" lon="13.544740034267306">
        <ele>632.20000000000005</ele>
        <time>2024-09-19T10:22:56Z</time>
      </trkpt>
      <trkpt lat="50.797275016084313" lon="13.543673017993569">
        <ele>640.86000000000001</ele>
        <time>2024-09-19T10:23:05Z</time>
      </trkpt>
      <trkpt lat="50.797211984172463" lon="13.543544020503759">
        <ele>641.82000000000005</ele>
        <time>2024-09-19T10:23:06Z</time>
      </trkpt>
      <trkpt lat="50.797154987230897" lon="13.543426003307104">
        <ele>642.77999999999997</ele>
        <time>2024-09-19T10:23:07Z</time>
      </trkpt>
      <trkpt lat="50.797103019431233" lon="13.543317960575223">
        <ele>643.25999999999999</ele>
        <time>2024-09-19T10:23:08Z</time>
      </trkpt>
      <trkpt lat="50.79705398529768" lon="13.543216036632657">
        <ele>643.74000000000001</ele>
        <time>2024-09-19T10:23:09Z</time>
      </trkpt>
      <trkpt lat="50.797015009447932" lon="13.543154010549188">
        <ele>644.22000000000003</ele>
        <time>2024-09-19T10:23:10Z</time>
      </trkpt>
      <trkpt lat="50.796942003071308" lon="13.54311796836555">
        <ele>644.22000000000003</ele>
        <time>2024-09-19T10:23:11Z</time>
      </trkpt>
      <trkpt lat="50.796854998916388" lon="13.543073963373899">
        <ele>644.70000000000005</ele>
        <time>2024-09-19T10:23:12Z</time>
      </trkpt>
      <trkpt lat="50.796809988096356" lon="13.543130038306117">
        <ele>644.70000000000005</ele>
        <time>2024-09-19T10:23:13Z</time>
      </trkpt>
      <trkpt lat="50.796734970062971" lon="13.54322399944067">
        <ele>645.17999999999995</ele>
        <time>2024-09-19T10:23:14Z</time>
      </trkpt>
      <trkpt lat="50.796655006706715" lon="13.543323995545506">
        <ele>645.65999999999997</ele>
        <time>2024-09-19T10:23:15Z</time>
      </trkpt>
      <trkpt lat="50.796578982844949" lon="13.543420974165201">
        <ele>646.13999999999999</ele>
        <time>2024-09-19T10:23:16Z</time>
      </trkpt>
      <trkpt lat="50.796384019777179" lon="13.543673017993569">
        <ele>647.59000000000003</ele>
        <time>2024-09-19T10:23:19Z</time>
      </trkpt>
      <trkpt lat="50.796340014785528" lon="13.543730014935136">
        <ele>647.59000000000003</ele>
        <time>2024-09-19T10:23:20Z</time>
      </trkpt>
      <trkpt lat="50.796307995915413" lon="13.543771002441645">
        <ele>648.07000000000005</ele>
        <time>2024-09-19T10:23:21Z</time>
      </trkpt>
      <trkpt lat="50.796232977882028" lon="13.543867981061339">
        <ele>648.54999999999995</ele>
        <time>2024-09-19T10:23:22Z</time>
      </trkpt>
      <trkpt lat="50.796232977882028" lon="13.543867981061339">
        <ele>649.02999999999997</ele>
        <time>2024-09-19T10:23:23Z</time>
      </trkpt>
      <trkpt lat="50.796066010370851" lon="13.543563969433308">
        <ele>649.99000000000001</ele>
        <time>2024-09-19T10:23:26Z</time>
      </trkpt>
      <trkpt lat="50.795855037868023" lon="13.543577967211604">
        <ele>651.42999999999995</ele>
        <time>2024-09-19T10:23:30Z</time>
      </trkpt>
      <trkpt lat="50.795761998742819" lon="13.543668994680047">
        <ele>651.90999999999997</ele>
        <time>2024-09-19T10:23:33Z</time>
      </trkpt>
      <trkpt lat="50.795791000127792" lon="13.543834034353495">
        <ele>651.90999999999997</ele>
        <time>2024-09-19T10:23:41Z</time>
      </trkpt>
      <trkpt lat="50.795814972370863" lon="13.543759016320109">
        <ele>651.42999999999995</ele>
        <time>2024-09-19T10:24:00Z</time>
      </trkpt>
      <trkpt lat="50.795813966542482" lon="13.543758010491729">
        <ele>651.90999999999997</ele>
        <time>2024-09-19T10:24:35Z</time>
      </trkpt>
      <trkpt lat="50.795801980420947" lon="13.543597999960184">
        <ele>646.13999999999999</ele>
        <time>2024-09-19T10:31:54Z</time>
      </trkpt>
      <trkpt lat="50.795842967927456" lon="13.543707970529795">
        <ele>648.54999999999995</ele>
        <time>2024-09-19T10:32:36Z</time>
      </trkpt>
      <trkpt lat="50.795991998165846" lon="13.544032014906406">
        <ele>648.54999999999995</ele>
        <time>2024-09-19T10:32:39Z</time>
      </trkpt>
      <trkpt lat="50.796026028692722" lon="13.544008964672685">
        <ele>648.54999999999995</ele>
        <time>2024-09-19T10:32:40Z</time>
      </trkpt>
      <trkpt lat="50.796070033684373" lon="13.543979041278362">
        <ele>648.07000000000005</ele>
        <time>2024-09-19T10:32:41Z</time>
      </trkpt>
      <trkpt lat="50.796114038676023" lon="13.543949034065008">
        <ele>648.07000000000005</ele>
        <time>2024-09-19T10:32:42Z</time>
      </trkpt>
      <trkpt lat="50.796161983162165" lon="13.543917015194893">
        <ele>648.07000000000005</ele>
        <time>2024-09-19T10:32:44Z</time>
      </trkpt>
      <trkpt lat="50.796232977882028" lon="13.543867981061339">
        <ele>648.07000000000005</ele>
        <time>2024-09-19T10:32:45Z</time>
      </trkpt>
      <trkpt lat="50.796232977882028" lon="13.543867981061339">
        <ele>648.07000000000005</ele>
        <time>2024-09-19T10:32:46Z</time>
      </trkpt>
      <trkpt lat="50.796267008408904" lon="13.543812995776534">
        <ele>647.59000000000003</ele>
        <time>2024-09-19T10:32:49Z</time>
      </trkpt>
      <trkpt lat="50.796232977882028" lon="13.543867981061339">
        <ele>647.10000000000002</ele>
        <time>2024-09-19T10:32:51Z</time>
      </trkpt>
      <trkpt lat="50.796189978718758" lon="13.543896982446313">
        <ele>647.59000000000003</ele>
        <time>2024-09-19T10:32:52Z</time>
      </trkpt>
      <trkpt lat="50.796124013140798" lon="13.543942999094725">
        <ele>647.10000000000002</ele>
        <time>2024-09-19T10:32:53Z</time>
      </trkpt>
      <trkpt lat="50.795791000127792" lon="13.54416998103261">
        <ele>647.59000000000003</ele>
        <time>2024-09-19T10:32:57Z</time>
      </trkpt>
      <trkpt lat="50.795697038993239" lon="13.544196970760822">
        <ele>647.59000000000003</ele>
        <time>2024-09-19T10:32:58Z</time>
      </trkpt>
      <trkpt lat="50.795603999868035" lon="13.544207029044628">
        <ele>647.10000000000002</ele>
        <time>2024-09-19T10:32:59Z</time>
      </trkpt>
      <trkpt lat="50.795500986278057" lon="13.544138967990875">
        <ele>647.10000000000002</ele>
        <time>2024-09-19T10:33:00Z</time>
      </trkpt>
      <trkpt lat="50.795415993779898" lon="13.544046012684703">
        <ele>647.10000000000002</ele>
        <time>2024-09-19T10:33:01Z</time>
      </trkpt>
      <trkpt lat="50.795337036252022" lon="13.543960014358163">
        <ele>646.62</ele>
        <time>2024-09-19T10:33:02Z</time>
      </trkpt>
      <trkpt lat="50.795259000733495" lon="13.543933024629951">
        <ele>646.13999999999999</ele>
        <time>2024-09-19T10:33:03Z</time>
      </trkpt>
      <trkpt lat="50.795176019892097" lon="13.543916009366512">
        <ele>645.65999999999997</ele>
        <time>2024-09-19T10:33:04Z</time>
      </trkpt>
      <trkpt lat="50.795096978545189" lon="13.543984992429614">
        <ele>645.65999999999997</ele>
        <time>2024-09-19T10:33:05Z</time>
      </trkpt>
      <trkpt lat="50.794994970783591" lon="13.544087000191212">
        <ele>645.17999999999995</ele>
        <time>2024-09-19T10:33:06Z</time>
      </trkpt>
      <trkpt lat="50.794906038790941" lon="13.54423401877284">
        <ele>644.70000000000005</ele>
        <time>2024-09-19T10:33:07Z</time>
      </trkpt>
      <trkpt lat="50.794146973639727" lon="13.5454570222646">
        <ele>640.38</ele>
        <time>2024-09-19T10:33:13Z</time>
      </trkpt>
      <trkpt lat="50.793966008350253" lon="13.54562901891768">
        <ele>639.40999999999997</ele>
        <time>2024-09-19T10:33:14Z</time>
      </trkpt>
      <trkpt lat="50.792732024565339" lon="13.546888986602426">
        <ele>631.72000000000003</ele>
        <time>2024-09-19T10:33:20Z</time>
      </trkpt>
      <trkpt lat="50.790965035557747" lon="13.549245977774262">
        <ele>615.86000000000001</ele>
        <time>2024-09-19T10:33:29Z</time>
      </trkpt>
      <trkpt lat="50.790806030854583" lon="13.549415962770581">
        <ele>613.94000000000005</ele>
        <time>2024-09-19T10:33:30Z</time>
      </trkpt>
      <trkpt lat="50.790669992566109" lon="13.549543032422662">
        <ele>612.98000000000002</ele>
        <time>2024-09-19T10:33:31Z</time>
      </trkpt>
      <trkpt lat="50.790528003126383" lon="13.549577984958887">
        <ele>611.53999999999996</ele>
        <time>2024-09-19T10:33:32Z</time>
      </trkpt>
      <trkpt lat="50.790382996201515" lon="13.549542026594281">
        <ele>610.57000000000005</ele>
        <time>2024-09-19T10:33:33Z</time>
      </trkpt>
      <trkpt lat="50.790216028690338" lon="13.549501961097121">
        <ele>609.61000000000001</ele>
        <time>2024-09-19T10:33:34Z</time>
      </trkpt>
      <trkpt lat="50.788609972223639" lon="13.549093008041382">
        <ele>599.51999999999998</ele>
        <time>2024-09-19T10:33:44Z</time>
      </trkpt>
      <trkpt lat="50.788468988612294" lon="13.54900298640132">
        <ele>599.03999999999996</ele>
        <time>2024-09-19T10:33:45Z</time>
      </trkpt>
      <trkpt lat="50.788333034142852" lon="13.54889796115458">
        <ele>598.55999999999995</ele>
        <time>2024-09-19T10:33:46Z</time>
      </trkpt>
      <trkpt lat="50.788220968097448" lon="13.548750020563602">
        <ele>597.60000000000002</ele>
        <time>2024-09-19T10:33:47Z</time>
      </trkpt>
      <trkpt lat="50.788121977820992" lon="13.548589004203677">
        <ele>597.60000000000002</ele>
        <time>2024-09-19T10:33:48Z</time>
      </trkpt>
      <trkpt lat="50.788037991151214" lon="13.548365039750934">
        <ele>597.12</ele>
        <time>2024-09-19T10:33:49Z</time>
      </trkpt>
      <trkpt lat="50.787950986996293" lon="13.548133028671145">
        <ele>596.63999999999999</ele>
        <time>2024-09-19T10:33:50Z</time>
      </trkpt>
      <trkpt lat="50.787184964865446" lon="13.545935964211822">
        <ele>592.30999999999995</ele>
        <time>2024-09-19T10:33:58Z</time>
      </trkpt>
      <trkpt lat="50.786578031256795" lon="13.544107032939792">
        <ele>589.42999999999995</ele>
        <time>2024-09-19T10:34:05Z</time>
      </trkpt>
      <trkpt lat="50.786479962989688" lon="13.543964959681034">
        <ele>588.95000000000005</ele>
        <time>2024-09-19T10:34:06Z</time>
      </trkpt>
      <trkpt lat="50.786340991035104" lon="13.543824981898069">
        <ele>587.98000000000002</ele>
        <time>2024-09-19T10:34:07Z</time>
      </trkpt>
      <trkpt lat="50.786218028515577" lon="13.543790029361844">
        <ele>587.01999999999998</ele>
        <time>2024-09-19T10:34:08Z</time>
      </trkpt>
      <trkpt lat="50.786055000498891" lon="13.543744012713432">
        <ele>586.05999999999995</ele>
        <time>2024-09-19T10:34:09Z</time>
      </trkpt>
      <trkpt lat="50.785098960623145" lon="13.543665977194905">
        <ele>579.80999999999995</ele>
        <time>2024-09-19T10:34:14Z</time>
      </trkpt>
      <trkpt lat="50.784919001162052" lon="13.543719034641981">
        <ele>578.37</ele>
        <time>2024-09-19T10:34:15Z</time>
      </trkpt>
      <trkpt lat="50.784749016165733" lon="13.543778965249658">
        <ele>576.92999999999995</ele>
        <time>2024-09-19T10:34:16Z</time>
      </trkpt>
      <trkpt lat="50.784590011462569" lon="13.543891031295061">
        <ele>575.97000000000003</ele>
        <time>2024-09-19T10:34:17Z</time>
      </trkpt>
      <trkpt lat="50.784423965960741" lon="13.544007958844304">
        <ele>574.52999999999997</ele>
        <time>2024-09-19T10:34:18Z</time>
      </trkpt>
      <trkpt lat="50.784278959035873" lon="13.544188002124429">
        <ele>573.08000000000004</ele>
        <time>2024-09-19T10:34:19Z</time>
      </trkpt>
      <trkpt lat="50.784139987081289" lon="13.544399980455637">
        <ele>571.63999999999999</ele>
        <time>2024-09-19T10:34:20Z</time>
      </trkpt>
      <trkpt lat="50.784006966277957" lon="13.544645989313722">
        <ele>570.67999999999995</ele>
        <time>2024-09-19T10:34:21Z</time>
      </trkpt>
      <trkpt lat="50.78366900794208" lon="13.545360965654254">
        <ele>567.32000000000005</ele>
        <time>2024-09-19T10:34:24Z</time>
      </trkpt>
      <trkpt lat="50.783612011000514" lon="13.545600017532706">
        <ele>566.35000000000002</ele>
        <time>2024-09-19T10:34:25Z</time>
      </trkpt>
      <trkpt lat="50.783598013222218" lon="13.545877039432526">
        <ele>565.87</ele>
        <time>2024-09-19T10:34:26Z</time>
      </trkpt>
      <trkpt lat="50.783601030707359" lon="13.546165963634849">
        <ele>564.90999999999997</ele>
        <time>2024-09-19T10:34:27Z</time>
      </trkpt>
      <trkpt lat="50.783609999343753" lon="13.546480033546686">
        <ele>564.42999999999995</ele>
        <time>2024-09-19T10:34:28Z</time>
      </trkpt>
      <trkpt lat="50.783593989908695" lon="13.546818997710943">
        <ele>563.95000000000005</ele>
        <time>2024-09-19T10:34:29Z</time>
      </trkpt>
      <trkpt lat="50.78353900462389" lon="13.547136001288891">
        <ele>563.95000000000005</ele>
        <time>2024-09-19T10:34:30Z</time>
      </trkpt>
      <trkpt lat="50.783463986590505" lon="13.547441018745303">
        <ele>563.47000000000003</ele>
        <time>2024-09-19T10:34:31Z</time>
      </trkpt>
      <trkpt lat="50.783130973577499" lon="13.548556985333562">
        <ele>562.02999999999997</ele>
        <time>2024-09-19T10:34:35Z</time>
      </trkpt>
      <trkpt lat="50.783022008836269" lon="13.548782039433718">
        <ele>561.54999999999995</ele>
        <time>2024-09-19T10:34:36Z</time>
      </trkpt>
      <trkpt lat="50.782909020781517" lon="13.549013966694474">
        <ele>561.07000000000005</ele>
        <time>2024-09-19T10:34:37Z</time>
      </trkpt>
      <trkpt lat="50.782824028283358" lon="13.549118991941214">
        <ele>560.59000000000003</ele>
        <time>2024-09-19T10:34:38Z</time>
      </trkpt>
      <trkpt lat="50.782639961689711" lon="13.549290988594294">
        <ele>560.11000000000001</ele>
        <time>2024-09-19T10:34:39Z</time>
      </trkpt>
      <trkpt lat="50.782439969480038" lon="13.54947698302567">
        <ele>559.13999999999999</ele>
        <time>2024-09-19T10:34:40Z</time>
      </trkpt>
      <trkpt lat="50.780697958543897" lon="13.550904002040625">
        <ele>554.34000000000003</ele>
        <time>2024-09-19T10:34:48Z</time>
      </trkpt>
      <trkpt lat="50.780515987426043" lon="13.551034005358815">
        <ele>554.34000000000003</ele>
        <time>2024-09-19T10:34:49Z</time>
      </trkpt>
      <trkpt lat="50.78036000020802" lon="13.551146993413568">
        <ele>554.34000000000003</ele>
        <time>2024-09-19T10:34:50Z</time>
      </trkpt>
      <trkpt lat="50.78020803630352" lon="13.551322007551789">
        <ele>554.34000000000003</ele>
        <time>2024-09-19T10:34:51Z</time>
      </trkpt>
      <trkpt lat="50.78020803630352" lon="13.551322007551789">
        <ele>554.82000000000005</ele>
        <time>2024-09-19T10:34:52Z</time>
      </trkpt>
      <trkpt lat="50.780053976923227" lon="13.551870016381145">
        <ele>555.77999999999997</ele>
        <time>2024-09-19T10:34:53Z</time>
      </trkpt>
      <trkpt lat="50.779985999688506" lon="13.552175033837557">
        <ele>556.74000000000001</ele>
        <time>2024-09-19T10:34:54Z</time>
      </trkpt>
      <trkpt lat="50.77990997582674" lon="13.55248499661684">
        <ele>557.70000000000005</ele>
        <time>2024-09-19T10:34:55Z</time>
      </trkpt>
      <trkpt lat="50.779774021357298" lon="13.552781967446208">
        <ele>558.65999999999997</ele>
        <time>2024-09-19T10:34:56Z</time>
      </trkpt>
      <trkpt lat="50.779633037745953" lon="13.553091008216143">
        <ele>559.62</ele>
        <time>2024-09-19T10:34:57Z</time>
      </trkpt>
      <trkpt lat="50.779474033042789" lon="13.553403988480568">
        <ele>560.59000000000003</ele>
        <time>2024-09-19T10:34:58Z</time>
      </trkpt>
      <trkpt lat="50.777985993772745" lon="13.556070020422339">
        <ele>570.20000000000005</ele>
        <time>2024-09-19T10:35:07Z</time>
      </trkpt>
      <trkpt lat="50.77780201099813" lon="13.55622299015522">
        <ele>570.67999999999995</ele>
        <time>2024-09-19T10:35:08Z</time>
      </trkpt>
      <trkpt lat="50.777583997696638" lon="13.55628602206707">
        <ele>571.63999999999999</ele>
        <time>2024-09-19T10:35:09Z</time>
      </trkpt>
      <trkpt lat="50.776704987511039" lon="13.556204969063401">
        <ele>575.97000000000003</ele>
        <time>2024-09-19T10:35:13Z</time>
      </trkpt>
      <trkpt lat="50.77582698315382" lon="13.556123999878764">
        <ele>580.28999999999996</ele>
        <time>2024-09-19T10:35:17Z</time>
      </trkpt>
      <trkpt lat="50.775650041177869" lon="13.555983016267419">
        <ele>581.25</ele>
        <time>2024-09-19T10:35:18Z</time>
      </trkpt>
      <trkpt lat="50.775485001504421" lon="13.5558130312711">
        <ele>582.70000000000005</ele>
        <time>2024-09-19T10:35:19Z</time>
      </trkpt>
      <trkpt lat="50.775308981537819" lon="13.555632987990975">
        <ele>584.13999999999999</ele>
        <time>2024-09-19T10:35:20Z</time>
      </trkpt>
      <trkpt lat="50.775121981278062" lon="13.555440958589315">
        <ele>585.10000000000002</ele>
        <time>2024-09-19T10:35:21Z</time>
      </trkpt>
      <trkpt lat="50.774927018210292" lon="13.555239960551262">
        <ele>586.53999999999996</ele>
        <time>2024-09-19T10:35:22Z</time>
      </trkpt>
      <trkpt lat="50.77472903765738" lon="13.555037034675479">
        <ele>587.98000000000002</ele>
        <time>2024-09-19T10:35:23Z</time>
      </trkpt>
      <trkpt lat="50.774125959724188" lon="13.554457006976008">
        <ele>592.30999999999995</ele>
        <time>2024-09-19T10:35:26Z</time>
      </trkpt>
      <trkpt lat="50.773912975564599" lon="13.554332032799721">
        <ele>593.75</ele>
        <time>2024-09-19T10:35:27Z</time>
      </trkpt>
      <trkpt lat="50.772521998733282" lon="13.553481018170714">
        <ele>602.88</ele>
        <time>2024-09-19T10:35:34Z</time>
      </trkpt>
      <trkpt lat="50.772447986528277" lon="13.553318995982409">
        <ele>604.33000000000004</ele>
        <time>2024-09-19T10:35:35Z</time>
      </trkpt>
      <trkpt lat="50.772348996251822" lon="13.553068963810802">
        <ele>605.76999999999998</ele>
        <time>2024-09-19T10:35:36Z</time>
      </trkpt>
      <trkpt lat="50.771697973832488" lon="13.551321001723409">
        <ele>616.82000000000005</ele>
        <time>2024-09-19T10:35:42Z</time>
      </trkpt>
      <trkpt lat="50.771600995212793" lon="13.551062000915408">
        <ele>618.75</ele>
        <time>2024-09-19T10:35:43Z</time>
      </trkpt>
      <trkpt lat="50.771435033529997" lon="13.550882963463664">
        <ele>620.66999999999996</ele>
        <time>2024-09-19T10:35:44Z</time>
      </trkpt>
      <trkpt lat="50.771259013563395" lon="13.550697974860668">
        <ele>623.07000000000005</ele>
        <time>2024-09-19T10:35:45Z</time>
      </trkpt>
      <trkpt lat="50.769760999828577" lon="13.549158973619342">
        <ele>638.45000000000005</ele>
        <time>2024-09-19T10:35:52Z</time>
      </trkpt>
      <trkpt lat="50.769537035375834" lon="13.548931991681457">
        <ele>641.82000000000005</ele>
        <time>2024-09-19T10:35:54Z</time>
      </trkpt>
      <trkpt lat="50.769152976572514" lon="13.548410972580314">
        <ele>643.74000000000001</ele>
        <time>2024-09-19T10:35:55Z</time>
      </trkpt>
      <trkpt lat="50.768330041319132" lon="13.547120997682214">
        <ele>651.90999999999997</ele>
        <time>2024-09-19T10:36:00Z</time>
      </trkpt>
      <trkpt lat="50.768163995817304" lon="13.547022007405758">
        <ele>653.35000000000002</ele>
        <time>2024-09-19T10:36:01Z</time>
      </trkpt>
      <trkpt lat="50.767292026430368" lon="13.546501994132996">
        <ele>659.60000000000002</ele>
        <time>2024-09-19T10:36:06Z</time>
      </trkpt>
      <trkpt lat="50.767110977321863" lon="13.54646603576839">
        <ele>660.55999999999995</ele>
        <time>2024-09-19T10:36:07Z</time>
      </trkpt>
      <trkpt lat="50.766914002597332" lon="13.546440973877907">
        <ele>661.51999999999998</ele>
        <time>2024-09-19T10:36:08Z</time>
      </trkpt>
      <trkpt lat="50.765123963356018" lon="13.546250034123659">
        <ele>666.80999999999995</ele>
        <time>2024-09-19T10:36:16Z</time>
      </trkpt>
      <trkpt lat="50.764910979196429" lon="13.546250034123659">
        <ele>667.28999999999996</ele>
        <time>2024-09-19T10:36:17Z</time>
      </trkpt>
      <trkpt lat="50.764722973108292" lon="13.546280041337013">
        <ele>667.28999999999996</ele>
        <time>2024-09-19T10:36:18Z</time>
      </trkpt>
      <trkpt lat="50.764539996162057" lon="13.546386994421482">
        <ele>667.28999999999996</ele>
        <time>2024-09-19T10:36:19Z</time>
      </trkpt>
      <trkpt lat="50.764539996162057" lon="13.546386994421482">
        <ele>667.28999999999996</ele>
        <time>2024-09-19T10:36:20Z</time>
      </trkpt>
      <trkpt lat="50.764189967885613" lon="13.546677008271217">
        <ele>667.28999999999996</ele>
        <time>2024-09-19T10:36:21Z</time>
      </trkpt>
      <trkpt lat="50.764012020081282" lon="13.546869037672877">
        <ele>667.28999999999996</ele>
        <time>2024-09-19T10:36:22Z</time>
      </trkpt>
      <trkpt lat="50.762677034363151" lon="13.548211986199021">
        <ele>668.25</ele>
        <time>2024-09-19T10:36:29Z</time>
      </trkpt>
      <trkpt lat="50.762479975819588" lon="13.548352969810367">
        <ele>668.25</ele>
        <time>2024-09-19T10:36:30Z</time>
      </trkpt>
      <trkpt lat="50.762258023023605" lon="13.548441985622048">
        <ele>668.73000000000002</ele>
        <time>2024-09-19T10:36:31Z</time>
      </trkpt>
      <trkpt lat="50.762039003893733" lon="13.54848800227046">
        <ele>669.22000000000003</ele>
        <time>2024-09-19T10:36:32Z</time>
      </trkpt>
      <trkpt lat="50.761813027784228" lon="13.548502000048757">
        <ele>669.22000000000003</ele>
        <time>2024-09-19T10:36:33Z</time>
      </trkpt>
      <trkpt lat="50.761587973684072" lon="13.548468975350261">
        <ele>669.70000000000005</ele>
        <time>2024-09-19T10:36:34Z</time>
      </trkpt>
      <trkpt lat="50.761371972039342" lon="13.548433016985655">
        <ele>669.70000000000005</ele>
        <time>2024-09-19T10:36:35Z</time>
      </trkpt>
      <trkpt lat="50.760786999017" lon="13.548374008387327">
        <ele>671.13999999999999</ele>
        <time>2024-09-19T10:36:38Z</time>
      </trkpt>
      <trkpt lat="50.76059496961534" lon="13.548393035307527">
        <ele>671.62</ele>
        <time>2024-09-19T10:36:39Z</time>
      </trkpt>
      <trkpt lat="50.760411992669106" lon="13.548479033634067">
        <ele>672.10000000000002</ele>
        <time>2024-09-19T10:36:40Z</time>
      </trkpt>
      <trkpt lat="50.759315975010395" lon="13.549035005271435">
        <ele>674.98000000000002</ele>
        <time>2024-09-19T10:36:47Z</time>
      </trkpt>
      <trkpt lat="50.759169040247798" lon="13.549111029133201">
        <ele>674.5</ele>
        <time>2024-09-19T10:36:48Z</time>
      </trkpt>
      <trkpt lat="50.758527992293239" lon="13.549484023824334">
        <ele>674.5</ele>
        <time>2024-09-19T10:36:53Z</time>
      </trkpt>
      <trkpt lat="50.758404023945332" lon="13.549596006050706">
        <ele>674.98000000000002</ele>
        <time>2024-09-19T10:36:55Z</time>
      </trkpt>
      <trkpt lat="50.758190033957362" lon="13.549907980486751">
        <ele>674.98000000000002</ele>
        <time>2024-09-19T10:36:56Z</time>
      </trkpt>
      <trkpt lat="50.758089032024145" lon="13.550079977139831">
        <ele>674.98000000000002</ele>
        <time>2024-09-19T10:36:57Z</time>
      </trkpt>
      <trkpt lat="50.757914017885923" lon="13.550493037328124">
        <ele>675.94000000000005</ele>
        <time>2024-09-19T10:37:00Z</time>
      </trkpt>
      <trkpt lat="50.757766999304295" lon="13.550957981497049">
        <ele>676.41999999999996</ele>
        <time>2024-09-19T10:37:01Z</time>
      </trkpt>
      <trkpt lat="50.757766999304295" lon="13.550957981497049">
        <ele>676.41999999999996</ele>
        <time>2024-09-19T10:37:02Z</time>
      </trkpt>
      <trkpt lat="50.757689969614148" lon="13.551480006426573">
        <ele>676.41999999999996</ele>
        <time>2024-09-19T10:37:03Z</time>
      </trkpt>
      <trkpt lat="50.757669014856219" lon="13.551767002791166">
        <ele>676.90999999999997</ele>
        <time>2024-09-19T10:37:04Z</time>
      </trkpt>
      <trkpt lat="50.757576981559396" lon="13.552343007177114">
        <ele>677.38999999999999</ele>
        <time>2024-09-19T10:37:06Z</time>
      </trkpt>
      <trkpt lat="50.7574990298599" lon="13.552609970793128">
        <ele>677.87</ele>
        <time>2024-09-19T10:37:07Z</time>
      </trkpt>
      <trkpt lat="50.757401967421174" lon="13.552860002964735">
        <ele>677.87</ele>
        <time>2024-09-19T10:37:08Z</time>
      </trkpt>
      <trkpt lat="50.757401967421174" lon="13.552860002964735">
        <ele>678.35000000000002</ele>
        <time>2024-09-19T10:37:09Z</time>
      </trkpt>
      <trkpt lat="50.757158976048231" lon="13.553284965455532">
        <ele>678.83000000000004</ele>
        <time>2024-09-19T10:37:10Z</time>
      </trkpt>
      <trkpt lat="50.75683300383389" lon="13.553964989259839">
        <ele>680.26999999999998</ele>
        <time>2024-09-19T10:37:13Z</time>
      </trkpt>
      <trkpt lat="50.756742982193828" lon="13.554214015603065">
        <ele>680.75</ele>
        <time>2024-09-19T10:37:14Z</time>
      </trkpt>
      <trkpt lat="50.756700988858938" lon="13.554487014189363">
        <ele>681.23000000000002</ele>
        <time>2024-09-19T10:37:15Z</time>
      </trkpt>
      <trkpt lat="50.756668969988823" lon="13.554745009168983">
        <ele>681.23000000000002</ele>
        <time>2024-09-19T10:37:16Z</time>
      </trkpt>
      <trkpt lat="50.75663804076612" lon="13.55499504134059">
        <ele>681.23000000000002</ele>
        <time>2024-09-19T10:37:17Z</time>
      </trkpt>
      <trkpt lat="50.756373004987836" lon="13.556749960407615">
        <ele>682.19000000000005</ele>
        <time>2024-09-19T10:37:25Z</time>
      </trkpt>
      <trkpt lat="50.756325982511044" lon="13.556902008131146">
        <ele>682.66999999999996</ele>
        <time>2024-09-19T10:37:26Z</time>
      </trkpt>
      <trkpt lat="50.756258005276322" lon="13.557022958993912">
        <ele>682.66999999999996</ele>
        <time>2024-09-19T10:37:27Z</time>
      </trkpt>
      <trkpt lat="50.756192039698362" lon="13.557141982018948">
        <ele>682.66999999999996</ele>
        <time>2024-09-19T10:37:28Z</time>
      </trkpt>
      <trkpt lat="50.756120961159468" lon="13.557267962023616">
        <ele>682.66999999999996</ele>
        <time>2024-09-19T10:37:29Z</time>
      </trkpt>
      <trkpt lat="50.755956005305052" lon="13.557495027780533">
        <ele>682.66999999999996</ele>
        <time>2024-09-19T10:37:31Z</time>
      </trkpt>
      <trkpt lat="50.755862966179848" lon="13.557587983086705">
        <ele>682.66999999999996</ele>
        <time>2024-09-19T10:37:32Z</time>
      </trkpt>
      <trkpt lat="50.755765987560153" lon="13.557647997513413">
        <ele>683.14999999999998</ele>
        <time>2024-09-19T10:37:33Z</time>
      </trkpt>
      <trkpt lat="50.755661968141794" lon="13.557657971978188">
        <ele>683.14999999999998</ele>
        <time>2024-09-19T10:37:34Z</time>
      </trkpt>
      <trkpt lat="50.755562977865338" lon="13.557655960321426">
        <ele>683.63</ele>
        <time>2024-09-19T10:37:35Z</time>
      </trkpt>
      <trkpt lat="50.755458036437631" lon="13.557623019441962">
        <ele>683.63</ele>
        <time>2024-09-19T10:37:36Z</time>
      </trkpt>
      <trkpt lat="50.755343958735466" lon="13.557585971429944">
        <ele>684.12</ele>
        <time>2024-09-19T10:37:37Z</time>
      </trkpt>
      <trkpt lat="50.755224013701081" lon="13.557546995580196">
        <ele>684.12</ele>
        <time>2024-09-19T10:37:38Z</time>
      </trkpt>
      <trkpt lat="50.753840999677777" lon="13.557114992290735">
        <ele>691.80999999999995</ele>
        <time>2024-09-19T10:37:47Z</time>
      </trkpt>
      <trkpt lat="50.752157997339964" lon="13.556606965139508">
        <ele>703.34000000000003</ele>
        <time>2024-09-19T10:37:56Z</time>
      </trkpt>
      <trkpt lat="50.74939901009202" lon="13.555748993530869">
        <ele>716.79999999999995</ele>
        <time>2024-09-19T10:38:06Z</time>
      </trkpt>
      <trkpt lat="50.749164987355471" lon="13.555631982162595">
        <ele>716.32000000000005</ele>
        <time>2024-09-19T10:38:07Z</time>
      </trkpt>
      <trkpt lat="50.748936999589205" lon="13.555496027693152">
        <ele>714.39999999999998</ele>
        <time>2024-09-19T10:38:09Z</time>
      </trkpt>
      <trkpt lat="50.748579008504748" lon="13.555063018575311">
        <ele>712.95000000000005</ele>
        <time>2024-09-19T10:38:10Z</time>
      </trkpt>
      <trkpt lat="50.748449005186558" lon="13.554789014160633">
        <ele>711.50999999999999</ele>
        <time>2024-09-19T10:38:11Z</time>
      </trkpt>
      <trkpt lat="50.748354038223624" lon="13.554466981440783">
        <ele>709.59000000000003</ele>
        <time>2024-09-19T10:38:12Z</time>
      </trkpt>
      <trkpt lat="50.748354038223624" lon="13.554466981440783">
        <ele>708.14999999999998</ele>
        <time>2024-09-19T10:38:13Z</time>
      </trkpt>
      <trkpt lat="50.747672002762556" lon="13.551408005878329">
        <ele>693.73000000000002</ele>
        <time>2024-09-19T10:38:20Z</time>
      </trkpt>
      <trkpt lat="50.747639983892441" lon="13.551050014793873">
        <ele>691.33000000000004</ele>
        <time>2024-09-19T10:38:21Z</time>
      </trkpt>
      <trkpt lat="50.747679965570569" lon="13.550717001780868">
        <ele>688.91999999999996</ele>
        <time>2024-09-19T10:38:22Z</time>
      </trkpt>
      <trkpt lat="50.747750038281083" lon="13.550388012081385">
        <ele>686.51999999999998</ele>
        <time>2024-09-19T10:38:23Z</time>
      </trkpt>
      <trkpt lat="50.747846011072397" lon="13.550041001290083">
        <ele>684.12</ele>
        <time>2024-09-19T10:38:24Z</time>
      </trkpt>
      <trkpt lat="50.748056983575225" lon="13.549273973330855">
        <ele>679.78999999999996</ele>
        <time>2024-09-19T10:38:26Z</time>
      </trkpt>
      <trkpt lat="50.748856030404568" lon="13.545955996960402">
        <ele>660.55999999999995</ele>
        <time>2024-09-19T10:38:34Z</time>
      </trkpt>
      <trkpt lat="50.749261965975165" lon="13.543519964441657">
        <ele>648.07000000000005</ele>
        <time>2024-09-19T10:38:40Z</time>
      </trkpt>
      <trkpt lat="50.749490037560463" lon="13.542071990668774">
        <ele>637.49000000000001</ele>
        <time>2024-09-19T10:38:45Z</time>
      </trkpt>
      <trkpt lat="50.749505963176489" lon="13.541819024831057">
        <ele>635.57000000000005</ele>
        <time>2024-09-19T10:38:46Z</time>
      </trkpt>
      <trkpt lat="50.749516021460295" lon="13.541566981002688">
        <ele>633.16999999999996</ele>
        <time>2024-09-19T10:38:47Z</time>
      </trkpt>
      <trkpt lat="50.749414013698697" lon="13.54077497497201">
        <ele>627.39999999999998</ele>
        <time>2024-09-19T10:38:50Z</time>
      </trkpt>
      <trkpt lat="50.74922701343894" lon="13.539066994562745">
        <ele>613.46000000000004</ele>
        <time>2024-09-19T10:38:57Z</time>
      </trkpt>
      <trkpt lat="50.749173033982515" lon="13.538834983482957">
        <ele>612.01999999999998</ele>
        <time>2024-09-19T10:38:58Z</time>
      </trkpt>
      <trkpt lat="50.74890598654747" lon="13.53802302852273">
        <ele>607.21000000000004</ele>
        <time>2024-09-19T10:39:01Z</time>
      </trkpt>
      <trkpt lat="50.748719992116094" lon="13.537409976124763">
        <ele>603.85000000000002</ele>
        <time>2024-09-19T10:39:03Z</time>
      </trkpt>
      <trkpt lat="50.748423021286726" lon="13.535335035994649">
        <ele>592.30999999999995</ele>
        <time>2024-09-19T10:39:09Z</time>
      </trkpt>
      <trkpt lat="50.748408017680049" lon="13.535062959417701">
        <ele>590.38999999999999</ele>
        <time>2024-09-19T10:39:10Z</time>
      </trkpt>
      <trkpt lat="50.748360995203257" lon="13.534834971651435">
        <ele>587.98000000000002</ele>
        <time>2024-09-19T10:39:11Z</time>
      </trkpt>
      <trkpt lat="50.748236021026969" lon="13.534680996090174">
        <ele>586.05999999999995</ele>
        <time>2024-09-19T10:39:12Z</time>
      </trkpt>
      <trkpt lat="50.748128984123468" lon="13.534549986943603">
        <ele>584.13999999999999</ele>
        <time>2024-09-19T10:39:13Z</time>
      </trkpt>
      <trkpt lat="50.748008033260703" lon="13.53441696614027">
        <ele>582.70000000000005</ele>
        <time>2024-09-19T10:39:14Z</time>
      </trkpt>
      <trkpt lat="50.747861014679074" lon="13.534324010834098">
        <ele>581.25</ele>
        <time>2024-09-19T10:39:15Z</time>
      </trkpt>
      <trkpt lat="50.74768197722733" lon="13.534279000014067">
        <ele>579.80999999999995</ele>
        <time>2024-09-19T10:39:16Z</time>
      </trkpt>
      <trkpt lat="50.747493971139193" lon="13.534232983365655">
        <ele>578.37</ele>
        <time>2024-09-19T10:39:17Z</time>
      </trkpt>
      <trkpt lat="50.747288027778268" lon="13.534215968102217">
        <ele>576.92999999999995</ele>
        <time>2024-09-19T10:39:18Z</time>
      </trkpt>
      <trkpt lat="50.74684496037662" lon="13.534168023616076">
        <ele>573.55999999999995</ele>
        <time>2024-09-19T10:39:20Z</time>
      </trkpt>
      <trkpt lat="50.746611021459103" lon="13.534130975604057">
        <ele>571.15999999999997</ele>
        <time>2024-09-19T10:39:21Z</time>
      </trkpt>
      <trkpt lat="50.746370041742921" lon="13.534073978662491">
        <ele>568.75999999999999</ele>
        <time>2024-09-19T10:39:22Z</time>
      </trkpt>
      <trkpt lat="50.744029982015491" lon="13.533178959041834">
        <ele>548.57000000000005</ele>
        <time>2024-09-19T10:39:31Z</time>
      </trkpt>
      <trkpt lat="50.742409005761147" lon="13.532530032098293">
        <ele>535.59000000000003</ele>
        <time>2024-09-19T10:39:38Z</time>
      </trkpt>
      <trkpt lat="50.741692017763853" lon="13.532186960801482">
        <ele>533.19000000000005</ele>
        <time>2024-09-19T10:39:43Z</time>
      </trkpt>
      <trkpt lat="50.741281975060701" lon="13.531955033540726">
        <ele>534.14999999999998</ele>
        <time>2024-09-19T10:39:47Z</time>
      </trkpt>
      <trkpt lat="50.741198994219303" lon="13.531894013285637">
        <ele>534.14999999999998</ele>
        <time>2024-09-19T10:39:48Z</time>
      </trkpt>
      <trkpt lat="50.741146020591259" lon="13.531824024394155">
        <ele>534.14999999999998</ele>
        <time>2024-09-19T10:39:49Z</time>
      </trkpt>
      <trkpt lat="50.741045018658042" lon="13.531567035242915">
        <ele>534.14999999999998</ele>
        <time>2024-09-19T10:39:50Z</time>
      </trkpt>
      <trkpt lat="50.741065973415971" lon="13.531482964754105">
        <ele>534.63</ele>
        <time>2024-09-19T10:39:51Z</time>
      </trkpt>
      <trkpt lat="50.741080977022648" lon="13.531348016113043">
        <ele>534.63</ele>
        <time>2024-09-19T10:39:52Z</time>
      </trkpt>
      <trkpt lat="50.74112799949944" lon="13.530917018651962">
        <ele>536.54999999999995</ele>
        <time>2024-09-19T10:39:55Z</time>
      </trkpt>
      <trkpt lat="50.741143003106117" lon="13.53078399784863">
        <ele>537.02999999999997</ele>
        <time>2024-09-19T10:39:56Z</time>
      </trkpt>
      <trkpt lat="50.741143003106117" lon="13.530785003677011">
        <ele>537.99000000000001</ele>
        <time>2024-09-19T10:39:57Z</time>
      </trkpt>
      <trkpt lat="50.74115096591413" lon="13.530715014785528">
        <ele>538.96000000000004</ele>
        <time>2024-09-19T10:39:58Z</time>
      </trkpt>
      <trkpt lat="50.741087011992931" lon="13.530521979555488">
        <ele>538.96000000000004</ele>
        <time>2024-09-19T10:39:59Z</time>
      </trkpt>
      <trkpt lat="50.741005958989263" lon="13.530475962907076">
        <ele>538.96000000000004</ele>
        <time>2024-09-19T10:40:00Z</time>
      </trkpt>
      <trkpt lat="50.740817030891776" lon="13.530435981228948">
        <ele>538.96000000000004</ele>
        <time>2024-09-19T10:40:02Z</time>
      </trkpt>
      <trkpt lat="50.740475971251726" lon="13.530399017035961">
        <ele>538.96000000000004</ele>
        <time>2024-09-19T10:40:06Z</time>
      </trkpt>
      <trkpt lat="50.739990994334221" lon="13.530116965994239">
        <ele>539.91999999999996</ele>
        <time>2024-09-19T10:40:14Z</time>
      </trkpt>
      <trkpt lat="50.739937014877796" lon="13.530072038993239">
        <ele>539.91999999999996</ele>
        <time>2024-09-19T10:40:15Z</time>
      </trkpt>
      <trkpt lat="50.739904996007681" lon="13.530020993202925">
        <ele>539.91999999999996</ele>
        <time>2024-09-19T10:40:16Z</time>
      </trkpt>
      <trkpt lat="50.739873982965946" lon="13.529971037060022">
        <ele>539.91999999999996</ele>
        <time>2024-09-19T10:40:17Z</time>
      </trkpt>
      <trkpt lat="50.739841964095831" lon="13.529920997098088">
        <ele>539.91999999999996</ele>
        <time>2024-09-19T10:40:18Z</time>
      </trkpt>
      <trkpt lat="50.739821009337902" lon="13.529825024306774">
        <ele>539.91999999999996</ele>
        <time>2024-09-19T10:40:19Z</time>
      </trkpt>
      <trkpt lat="50.739798964932561" lon="13.529727961868048">
        <ele>539.91999999999996</ele>
        <time>2024-09-19T10:40:20Z</time>
      </trkpt>
      <trkpt lat="50.739792007952929" lon="13.529681023210287">
        <ele>539.91999999999996</ele>
        <time>2024-09-19T10:40:21Z</time>
      </trkpt>
      <trkpt lat="50.739783961325884" lon="13.529634000733495">
        <ele>539.44000000000005</ele>
        <time>2024-09-19T10:40:22Z</time>
      </trkpt>
      <trkpt lat="50.739793013781309" lon="13.529690997675061">
        <ele>538.96000000000004</ele>
        <time>2024-09-19T10:40:24Z</time>
      </trkpt>
      <trkpt lat="50.739800976589322" lon="13.529736008495092">
        <ele>538.96000000000004</ele>
        <time>2024-09-19T10:40:25Z</time>
      </trkpt>
      <trkpt lat="50.739814974367619" lon="13.529800968244672">
        <ele>538.96000000000004</ele>
        <time>2024-09-19T10:40:26Z</time>
      </trkpt>
      <trkpt lat="50.739692011848092" lon="13.530220985412598">
        <ele>538.96000000000004</ele>
        <time>2024-09-19T10:40:27Z</time>
      </trkpt>
      <trkpt lat="50.739692011848092" lon="13.530220985412598">
        <ele>538.96000000000004</ele>
        <time>2024-09-19T10:40:28Z</time>
      </trkpt>
      <trkpt lat="50.739690000191331" lon="13.530233977362514">
        <ele>538.48000000000002</ele>
        <time>2024-09-19T10:40:31Z</time>
      </trkpt>
      <trkpt lat="50.739695029333234" lon="13.530219979584217">
        <ele>538.48000000000002</ele>
        <time>2024-09-19T10:40:32Z</time>
      </trkpt>
      <trkpt lat="50.739720007404685" lon="13.530206987634301">
        <ele>538.48000000000002</ele>
        <time>2024-09-19T10:40:33Z</time>
      </trkpt>
      <trkpt lat="50.739720007404685" lon="13.530206987634301">
        <ele>537.50999999999999</ele>
        <time>2024-09-19T10:40:43Z</time>
      </trkpt>
      <trkpt lat="50.739720007404685" lon="13.530206987634301">
        <ele>537.50999999999999</ele>
        <time>2024-09-19T10:41:26Z</time>
      </trkpt>
      <trkpt lat="50.739720007404685" lon="13.530206987634301">
        <ele>537.50999999999999</ele>
        <time>2024-09-19T10:41:40Z</time>
      </trkpt>
      <trkpt lat="50.739692011848092" lon="13.530220985412598">
        <ele>537.02999999999997</ele>
        <time>2024-09-19T10:41:42Z</time>
      </trkpt>
      <trkpt lat="50.739692011848092" lon="13.530220985412598">
        <ele>537.50999999999999</ele>
        <time>2024-09-19T10:41:44Z</time>
      </trkpt>
      <trkpt lat="50.739692011848092" lon="13.530220985412598">
        <ele>537.50999999999999</ele>
        <time>2024-09-19T10:41:45Z</time>
      </trkpt>
      <trkpt lat="50.739653035998344" lon="13.530480992048979">
        <ele>537.50999999999999</ele>
        <time>2024-09-19T10:41:46Z</time>
      </trkpt>
      <trkpt lat="50.739362016320229" lon="13.531740959733725">
        <ele>538.96000000000004</ele>
        <time>2024-09-19T10:41:55Z</time>
      </trkpt>
      <trkpt lat="50.738815013319254" lon="13.533754041418433">
        <ele>541.84000000000003</ele>
        <time>2024-09-19T10:42:08Z</time>
      </trkpt>
      <trkpt lat="50.738733960315585" lon="13.534052018076181">
        <ele>542.79999999999995</ele>
        <time>2024-09-19T10:42:10Z</time>
      </trkpt>
      <trkpt lat="50.738370018079877" lon="13.53540200740099">
        <ele>546.64999999999998</ele>
        <time>2024-09-19T10:42:18Z</time>
      </trkpt>
      <trkpt lat="50.738075980916619" lon="13.536386964842677">
        <ele>548.09000000000003</ele>
        <time>2024-09-19T10:42:24Z</time>
      </trkpt>
      <trkpt lat="50.738028036430478" lon="13.536525014787912">
        <ele>548.09000000000003</ele>
        <time>2024-09-19T10:42:25Z</time>
      </trkpt>
      <trkpt lat="50.737970033660531" lon="13.536622999235988">
        <ele>548.57000000000005</ele>
        <time>2024-09-19T10:42:26Z</time>
      </trkpt>
      <trkpt lat="50.737970033660531" lon="13.536622999235988">
        <ele>548.57000000000005</ele>
        <time>2024-09-19T10:42:27Z</time>
      </trkpt>
      <trkpt lat="50.737760988995433" lon="13.536679996177554">
        <ele>549.04999999999995</ele>
        <time>2024-09-19T10:42:28Z</time>
      </trkpt>
      <trkpt lat="50.737681025639176" lon="13.536647977307439">
        <ele>549.52999999999997</ele>
        <time>2024-09-19T10:42:29Z</time>
      </trkpt>
      <trkpt lat="50.737577006220818" lon="13.536605983972549">
        <ele>550.00999999999999</ele>
        <time>2024-09-19T10:42:30Z</time>
      </trkpt>
      <trkpt lat="50.737469969317317" lon="13.53656399063766">
        <ele>550.49000000000001</ele>
        <time>2024-09-19T10:42:31Z</time>
      </trkpt>
      <trkpt lat="50.737369973212481" lon="13.536457037553191">
        <ele>550.97000000000003</ele>
        <time>2024-09-19T10:42:32Z</time>
      </trkpt>
      <trkpt lat="50.737278023734689" lon="13.536330973729491">
        <ele>551.45000000000005</ele>
        <time>2024-09-19T10:42:33Z</time>
      </trkpt>
      <trkpt lat="50.737183978781104" lon="13.536201976239681">
        <ele>551.92999999999995</ele>
        <time>2024-09-19T10:42:34Z</time>
      </trkpt>
      <trkpt lat="50.737183978781104" lon="13.536201976239681">
        <ele>552.40999999999997</ele>
        <time>2024-09-19T10:42:35Z</time>
      </trkpt>
      <trkpt lat="50.736876027658582" lon="13.535780031234026">
        <ele>553.86000000000001</ele>
        <time>2024-09-19T10:42:37Z</time>
      </trkpt>
      <trkpt lat="50.736771002411842" lon="13.535635024309158">
        <ele>554.34000000000003</ele>
        <time>2024-09-19T10:42:38Z</time>
      </trkpt>
      <trkpt lat="50.736474031582475" lon="13.53523001074791">
        <ele>557.22000000000003</ele>
        <time>2024-09-19T10:42:41Z</time>
      </trkpt>
      <trkpt lat="50.736380992457271" lon="13.53510201908648">
        <ele>558.17999999999995</ele>
        <time>2024-09-19T10:42:42Z</time>
      </trkpt>
      <trkpt lat="50.736288959160447" lon="13.534976039081812">
        <ele>559.62</ele>
        <time>2024-09-19T10:42:43Z</time>
      </trkpt>
      <trkpt lat="50.736181000247598" lon="13.53463196195662">
        <ele>562.50999999999999</ele>
        <time>2024-09-19T10:42:45Z</time>
      </trkpt>
      <trkpt lat="50.736042028293014" lon="13.53424396365881">
        <ele>564.90999999999997</ele>
        <time>2024-09-19T10:42:47Z</time>
      </trkpt>
      <trkpt lat="50.735224960371852" lon="13.533066976815462">
        <ele>573.55999999999995</ele>
        <time>2024-09-19T10:42:54Z</time>
      </trkpt>
      <trkpt lat="50.735076013952494" lon="13.532969998195767">
        <ele>575.00999999999999</ele>
        <time>2024-09-19T10:42:55Z</time>
      </trkpt>
      <trkpt lat="50.734903011471033" lon="13.532901015132666">
        <ele>575.97000000000003</ele>
        <time>2024-09-19T10:42:56Z</time>
      </trkpt>
      <trkpt lat="50.734691033139825" lon="13.532885005697608">
        <ele>576.92999999999995</ele>
        <time>2024-09-19T10:42:57Z</time>
      </trkpt>
      <trkpt lat="50.734471008181572" lon="13.53286799043417">
        <ele>578.37</ele>
        <time>2024-09-19T10:42:58Z</time>
      </trkpt>
      <trkpt lat="50.733645977452397" lon="13.53280303068459">
        <ele>583.65999999999997</ele>
        <time>2024-09-19T10:43:02Z</time>
      </trkpt>
      <trkpt lat="50.733470041304827" lon="13.532833037897944">
        <ele>585.10000000000002</ele>
        <time>2024-09-19T10:43:03Z</time>
      </trkpt>
      <trkpt lat="50.73328304104507" lon="13.532915012910962">
        <ele>586.53999999999996</ele>
        <time>2024-09-19T10:43:04Z</time>
      </trkpt>
      <trkpt lat="50.733123030513525" lon="13.533024983480573">
        <ele>587.5</ele>
        <time>2024-09-19T10:43:05Z</time>
      </trkpt>
      <trkpt lat="50.732957990840077" lon="13.533172002062201">
        <ele>589.42999999999995</ele>
        <time>2024-09-19T10:43:06Z</time>
      </trkpt>
      <trkpt lat="50.73229799978435" lon="13.533334024250507">
        <ele>596.63999999999999</ele>
        <time>2024-09-19T10:43:11Z</time>
      </trkpt>
      <trkpt lat="50.732183000072837" lon="13.533228999003768">
        <ele>597.60000000000002</ele>
        <time>2024-09-19T10:43:12Z</time>
      </trkpt>
      <trkpt lat="50.732049979269505" lon="13.533107964321971">
        <ele>599.03999999999996</ele>
        <time>2024-09-19T10:43:13Z</time>
      </trkpt>
      <trkpt lat="50.731533989310265" lon="13.532707979902625">
        <ele>601.91999999999996</ele>
        <time>2024-09-19T10:43:16Z</time>
      </trkpt>
      <trkpt lat="50.731329973787069" lon="13.532638996839523">
        <ele>602.88</ele>
        <time>2024-09-19T10:43:17Z</time>
      </trkpt>
      <trkpt lat="50.73113601654768" lon="13.532592980191112">
        <ele>603.85000000000002</ele>
        <time>2024-09-19T10:43:18Z</time>
      </trkpt>
      <trkpt lat="50.730914985761046" lon="13.532580994069576">
        <ele>604.80999999999995</ele>
        <time>2024-09-19T10:43:19Z</time>
      </trkpt>
      <trkpt lat="50.730690015479922" lon="13.532616030424833">
        <ele>605.76999999999998</ele>
        <time>2024-09-19T10:43:20Z</time>
      </trkpt>
      <trkpt lat="50.73049396276474" lon="13.532684007659554">
        <ele>607.21000000000004</ele>
        <time>2024-09-19T10:43:21Z</time>
      </trkpt>
      <trkpt lat="50.730296988040209" lon="13.532752990722656">
        <ele>609.13</ele>
        <time>2024-09-19T10:43:22Z</time>
      </trkpt>
      <trkpt lat="50.730100013315678" lon="13.532822979614139">
        <ele>610.57000000000005</ele>
        <time>2024-09-19T10:43:23Z</time>
      </trkpt>
      <trkpt lat="50.729796001687646" lon="13.532800013199449">
        <ele>613.46000000000004</ele>
        <time>2024-09-19T10:43:25Z</time>
      </trkpt>
      <trkpt lat="50.729714026674628" lon="13.532775035127997">
        <ele>614.89999999999998</ele>
        <time>2024-09-19T10:43:26Z</time>
      </trkpt>
      <trkpt lat="50.72956801392138" lon="13.532670009881258">
        <ele>615.86000000000001</ele>
        <time>2024-09-19T10:43:27Z</time>
      </trkpt>
      <trkpt lat="50.729563990607858" lon="13.532666992396116">
        <ele>616.82000000000005</ele>
        <time>2024-09-19T10:43:28Z</time>
      </trkpt>
      <trkpt lat="50.729520991444588" lon="13.532529026269913">
        <ele>617.29999999999995</ele>
        <time>2024-09-19T10:43:29Z</time>
      </trkpt>
      <trkpt lat="50.729454020038247" lon="13.532313024625182">
        <ele>618.25999999999999</ele>
        <time>2024-09-19T10:43:30Z</time>
      </trkpt>
      <trkpt lat="50.729286968708038" lon="13.531658984720707">
        <ele>620.66999999999996</ele>
        <time>2024-09-19T10:43:33Z</time>
      </trkpt>
      <trkpt lat="50.729239024221897" lon="13.531434014439583">
        <ele>621.14999999999998</ele>
        <time>2024-09-19T10:43:34Z</time>
      </trkpt>
      <trkpt lat="50.729193007573485" lon="13.531219018623233">
        <ele>621.63</ele>
        <time>2024-09-19T10:43:35Z</time>
      </trkpt>
      <trkpt lat="50.729135004803538" lon="13.530950965359807">
        <ele>621.63</ele>
        <time>2024-09-19T10:43:36Z</time>
      </trkpt>
      <trkpt lat="50.729180015623569" lon="13.530734963715076">
        <ele>621.63</ele>
        <time>2024-09-19T10:43:37Z</time>
      </trkpt>
      <trkpt lat="50.729248998686671" lon="13.530420977622271">
        <ele>621.14999999999998</ele>
        <time>2024-09-19T10:43:38Z</time>
      </trkpt>
      <trkpt lat="50.729357963427901" lon="13.530191984027624">
        <ele>620.66999999999996</ele>
        <time>2024-09-19T10:43:39Z</time>
      </trkpt>
      <trkpt lat="50.729448990896344" lon="13.530001966282725">
        <ele>620.19000000000005</ele>
        <time>2024-09-19T10:43:40Z</time>
      </trkpt>
      <trkpt lat="50.72952501475811" lon="13.529842961579561">
        <ele>619.71000000000004</ele>
        <time>2024-09-19T10:43:41Z</time>
      </trkpt>
      <trkpt lat="50.729692988097668" lon="13.529492011293769">
        <ele>619.23000000000002</ele>
        <time>2024-09-19T10:43:42Z</time>
      </trkpt>
      <trkpt lat="50.729691982269287" lon="13.529488993808627">
        <ele>618.75</ele>
        <time>2024-09-19T10:43:43Z</time>
      </trkpt>
      <trkpt lat="50.729671027511358" lon="13.529148017987609">
        <ele>618.25999999999999</ele>
        <time>2024-09-19T10:43:44Z</time>
      </trkpt>
      <trkpt lat="50.729612018913031" lon="13.528994964435697">
        <ele>618.25999999999999</ele>
        <time>2024-09-19T10:43:45Z</time>
      </trkpt>
      <trkpt lat="50.729530965909362" lon="13.52878499776125">
        <ele>618.75</ele>
        <time>2024-09-19T10:43:46Z</time>
      </trkpt>
      <trkpt lat="50.729121007025242" lon="13.527835998684168">
        <ele>620.66999999999996</ele>
        <time>2024-09-19T10:43:50Z</time>
      </trkpt>
      <trkpt lat="50.728983040899038" lon="13.527563000097871">
        <ele>621.14999999999998</ele>
        <time>2024-09-19T10:43:51Z</time>
      </trkpt>
      <trkpt lat="50.728809032589197" lon="13.527355967089534">
        <ele>622.59000000000003</ele>
        <time>2024-09-19T10:43:52Z</time>
      </trkpt>
      <trkpt lat="50.728603005409241" lon="13.527235016226768">
        <ele>624.02999999999997</ele>
        <time>2024-09-19T10:43:53Z</time>
      </trkpt>
      <trkpt lat="50.728464033454657" lon="13.527221018448472">
        <ele>624.99000000000001</ele>
        <time>2024-09-19T10:43:54Z</time>
      </trkpt>
      <trkpt lat="50.728292958810925" lon="13.527294024825096">
        <ele>628.36000000000001</ele>
        <time>2024-09-19T10:43:55Z</time>
      </trkpt>
      <trkpt lat="50.728168990463018" lon="13.527365019544959">
        <ele>631.24000000000001</ele>
        <time>2024-09-19T10:43:56Z</time>
      </trkpt>
      <trkpt lat="50.728027001023293" lon="13.527448000386357">
        <ele>636.04999999999995</ele>
        <time>2024-09-19T10:43:57Z</time>
      </trkpt>
      <trkpt lat="50.727877970784903" lon="13.527532992884517">
        <ele>640.86000000000001</ele>
        <time>2024-09-19T10:43:58Z</time>
      </trkpt>
      <trkpt lat="50.72769801132381" lon="13.527557970955968">
        <ele>644.22000000000003</ele>
        <time>2024-09-19T10:43:59Z</time>
      </trkpt>
      <trkpt lat="50.727511011064053" lon="13.527580015361309">
        <ele>647.10000000000002</ele>
        <time>2024-09-19T10:44:00Z</time>
      </trkpt>
      <trkpt lat="50.727143967524171" lon="13.527520000934601">
        <ele>649.99000000000001</ele>
        <time>2024-09-19T10:44:02Z</time>
      </trkpt>
      <trkpt lat="50.726985968649387" lon="13.527440959587693">
        <ele>651.42999999999995</ele>
        <time>2024-09-19T10:44:03Z</time>
      </trkpt>
      <trkpt lat="50.726845990866423" lon="13.527338029816747">
        <ele>652.87</ele>
        <time>2024-09-19T10:44:04Z</time>
      </trkpt>
      <trkpt lat="50.726696960628033" lon="13.527198974043131">
        <ele>654.30999999999995</ele>
        <time>2024-09-19T10:44:05Z</time>
      </trkpt>
      <trkpt lat="50.7265380397439" lon="13.527050027623773">
        <ele>655.75999999999999</ele>
        <time>2024-09-19T10:44:06Z</time>
      </trkpt>
      <trkpt lat="50.725361974909902" lon="13.525960966944695">
        <ele>663.92999999999995</ele>
        <time>2024-09-19T10:44:14Z</time>
      </trkpt>
      <trkpt lat="50.724897030740976" lon="13.52554296143353">
        <ele>665.37</ele>
        <time>2024-09-19T10:44:18Z</time>
      </trkpt>
      <trkpt lat="50.724846990779042" lon="13.52549803443253">
        <ele>665.37</ele>
        <time>2024-09-19T10:44:19Z</time>
      </trkpt>
      <trkpt lat="50.724829975515604" lon="13.525483030825853">
        <ele>667.76999999999998</ele>
        <time>2024-09-19T10:44:20Z</time>
      </trkpt>
      <trkpt lat="50.72477800771594" lon="13.525442965328693">
        <ele>670.17999999999995</ele>
        <time>2024-09-19T10:44:21Z</time>
      </trkpt>
      <trkpt lat="50.724770966917276" lon="13.525513038039207">
        <ele>670.65999999999997</ele>
        <time>2024-09-19T10:44:22Z</time>
      </trkpt>
      <trkpt lat="50.724759986624122" lon="13.52562602609396">
        <ele>670.65999999999997</ele>
        <time>2024-09-19T10:44:23Z</time>
      </trkpt>
      <trkpt lat="50.724749006330967" lon="13.525743037462234">
        <ele>671.62</ele>
        <time>2024-09-19T10:44:24Z</time>
      </trkpt>
      <trkpt lat="50.72473400272429" lon="13.525901036337018">
        <ele>672.10000000000002</ele>
        <time>2024-09-19T10:44:25Z</time>
      </trkpt>
      <trkpt lat="50.724683040753007" lon="13.526418032124639">
        <ele>671.62</ele>
        <time>2024-09-19T10:44:28Z</time>
      </trkpt>
      <trkpt lat="50.724667031317949" lon="13.526582987979054">
        <ele>671.13999999999999</ele>
        <time>2024-09-19T10:44:29Z</time>
      </trkpt>
      <trkpt lat="50.724628977477551" lon="13.526980960741639">
        <ele>670.65999999999997</ele>
        <time>2024-09-19T10:44:30Z</time>
      </trkpt>
      <trkpt lat="50.724628977477551" lon="13.526980960741639">
        <ele>670.65999999999997</ele>
        <time>2024-09-19T10:44:31Z</time>
      </trkpt>
      <trkpt lat="50.724600981920958" lon="13.526996970176697">
        <ele>669.70000000000005</ele>
        <time>2024-09-19T10:44:32Z</time>
      </trkpt>
      <trkpt lat="50.724511966109276" lon="13.527048015967011">
        <ele>668.73000000000002</ele>
        <time>2024-09-19T10:44:33Z</time>
      </trkpt>
      <trkpt lat="50.723868990316987" lon="13.527416987344623">
        <ele>662.00999999999999</ele>
        <time>2024-09-19T10:44:39Z</time>
      </trkpt>
      <trkpt lat="50.721990019083023" lon="13.528480986133218">
        <ele>657.20000000000005</ele>
        <time>2024-09-19T10:44:46Z</time>
      </trkpt>
      <trkpt lat="50.720290001481771" lon="13.52945102378726">
        <ele>649.02999999999997</ele>
        <time>2024-09-19T10:44:53Z</time>
      </trkpt>
      <trkpt lat="50.718490993604064" lon="13.530478980392218">
        <ele>636.52999999999997</ele>
        <time>2024-09-19T10:45:01Z</time>
      </trkpt>
      <trkpt lat="50.716946041211486" lon="13.531362013891339">
        <ele>625.47000000000003</ele>
        <time>2024-09-19T10:45:08Z</time>
      </trkpt>
      <trkpt lat="50.71659198962152" lon="13.531564017757773">
        <ele>622.59000000000003</ele>
        <time>2024-09-19T10:45:10Z</time>
      </trkpt>
      <trkpt lat="50.716441031545401" lon="13.531650016084313">
        <ele>621.14999999999998</ele>
        <time>2024-09-19T10:45:11Z</time>
      </trkpt>
      <trkpt lat="50.716293007135391" lon="13.531743977218866">
        <ele>619.23000000000002</ele>
        <time>2024-09-19T10:45:12Z</time>
      </trkpt>
      <trkpt lat="50.716024031862617" lon="13.531958973035216">
        <ele>616.82000000000005</ele>
        <time>2024-09-19T10:45:13Z</time>
      </trkpt>
      <trkpt lat="50.715955970808864" lon="13.532082019373775">
        <ele>614.41999999999996</ele>
        <time>2024-09-19T10:45:14Z</time>
      </trkpt>
      <trkpt lat="50.715809036046267" lon="13.532344959676266">
        <ele>612.01999999999998</ele>
        <time>2024-09-19T10:45:15Z</time>
      </trkpt>
      <trkpt lat="50.715379966422915" lon="13.533696960657835">
        <ele>600</ele>
        <time>2024-09-19T10:45:20Z</time>
      </trkpt>
      <trkpt lat="50.715354988351464" lon="13.533954033628106">
        <ele>598.08000000000004</ele>
        <time>2024-09-19T10:45:21Z</time>
      </trkpt>
      <trkpt lat="50.71532104164362" lon="13.534386958926916">
        <ele>596.14999999999998</ele>
        <time>2024-09-19T10:45:22Z</time>
      </trkpt>
      <trkpt lat="50.715419026091695" lon="13.536381013691425">
        <ele>585.10000000000002</ele>
        <time>2024-09-19T10:45:28Z</time>
      </trkpt>
      <trkpt lat="50.71540997363627" lon="13.536674967035651">
        <ele>583.65999999999997</ele>
        <time>2024-09-19T10:45:29Z</time>
      </trkpt>
      <trkpt lat="50.715402010828257" lon="13.536936985328794">
        <ele>581.73000000000002</ele>
        <time>2024-09-19T10:45:30Z</time>
      </trkpt>
      <trkpt lat="50.715362029150128" lon="13.537134965881705">
        <ele>580.28999999999996</ele>
        <time>2024-09-19T10:45:31Z</time>
      </trkpt>
      <trkpt lat="50.715293968096375" lon="13.537474013864994">
        <ele>578.85000000000002</ele>
        <time>2024-09-19T10:45:32Z</time>
      </trkpt>
      <trkpt lat="50.715221967548132" lon="13.537579961121082">
        <ele>577.88999999999999</ele>
        <time>2024-09-19T10:45:33Z</time>
      </trkpt>
      <trkpt lat="50.715080983936787" lon="13.53778900578618">
        <ele>576.92999999999995</ele>
        <time>2024-09-19T10:45:34Z</time>
      </trkpt>
      <trkpt lat="50.714086974039674" lon="13.539650961756706">
        <ele>571.63999999999999</ele>
        <time>2024-09-19T10:45:41Z</time>
      </trkpt>
      <trkpt lat="50.713682966306806" lon="13.540311958640814">
        <ele>568.27999999999997</ele>
        <time>2024-09-19T10:45:44Z</time>
      </trkpt>
      <trkpt lat="50.713420026004314" lon="13.540633991360664">
        <ele>565.87</ele>
        <time>2024-09-19T10:45:46Z</time>
      </trkpt>
      <trkpt lat="50.713301002979279" lon="13.54073298163712">
        <ele>563.95000000000005</ele>
        <time>2024-09-19T10:45:47Z</time>
      </trkpt>
      <trkpt lat="50.713101010769606" lon="13.540837001055479">
        <ele>562.50999999999999</ele>
        <time>2024-09-19T10:45:48Z</time>
      </trkpt>
      <trkpt lat="50.712945023551583" lon="13.540825014933944">
        <ele>561.07000000000005</ele>
        <time>2024-09-19T10:45:49Z</time>
      </trkpt>
      <trkpt lat="50.712777972221375" lon="13.540812022984028">
        <ele>559.13999999999999</ele>
        <time>2024-09-19T10:45:50Z</time>
      </trkpt>
      <trkpt lat="50.712607987225056" lon="13.540798025205731">
        <ele>557.70000000000005</ele>
        <time>2024-09-19T10:45:51Z</time>
      </trkpt>
      <trkpt lat="50.712441019713879" lon="13.540785033255816">
        <ele>555.77999999999997</ele>
        <time>2024-09-19T10:45:52Z</time>
      </trkpt>
      <trkpt lat="50.71229400113225" lon="13.540797019377351">
        <ele>554.34000000000003</ele>
        <time>2024-09-19T10:45:53Z</time>
      </trkpt>
      <trkpt lat="50.712126027792692" lon="13.540847981348634">
        <ele>552.89999999999998</ele>
        <time>2024-09-19T10:45:54Z</time>
      </trkpt>
      <trkpt lat="50.711956964805722" lon="13.540899027138948">
        <ele>551.45000000000005</ele>
        <time>2024-09-19T10:45:55Z</time>
      </trkpt>
      <trkpt lat="50.711785973981023" lon="13.54098997078836">
        <ele>550.00999999999999</ele>
        <time>2024-09-19T10:45:56Z</time>
      </trkpt>
      <trkpt lat="50.711624035611749" lon="13.541123997420073">
        <ele>548.57000000000005</ele>
        <time>2024-09-19T10:45:57Z</time>
      </trkpt>
      <trkpt lat="50.710550984367728" lon="13.542325962334871">
        <ele>539.44000000000005</ele>
        <time>2024-09-19T10:46:05Z</time>
      </trkpt>
      <trkpt lat="50.710483007133007" lon="13.542414978146553">
        <ele>538.48000000000002</ele>
        <time>2024-09-19T10:46:06Z</time>
      </trkpt>
      <trkpt lat="50.71027304045856" lon="13.54268797673285">
        <ele>536.54999999999995</ele>
        <time>2024-09-19T10:46:07Z</time>
      </trkpt>
      <trkpt lat="50.710320984944701" lon="13.54238597676158">
        <ele>533.66999999999996</ele>
        <time>2024-09-19T10:46:09Z</time>
      </trkpt>
      <trkpt lat="50.710135996341705" lon="13.542094035074115">
        <ele>531.26999999999998</ele>
        <time>2024-09-19T10:46:11Z</time>
      </trkpt>
      <trkpt lat="50.709790997207165" lon="13.541394984349608">
        <ele>524.53999999999996</ele>
        <time>2024-09-19T10:46:16Z</time>
      </trkpt>
      <trkpt lat="50.709339966997504" lon="13.541028024628758">
        <ele>522.61000000000001</ele>
        <time>2024-09-19T10:46:21Z</time>
      </trkpt>
      <trkpt lat="50.708994967862964" lon="13.540429975837469">
        <ele>526.46000000000004</ele>
        <time>2024-09-19T10:46:26Z</time>
      </trkpt>
      <trkpt lat="50.708591965958476" lon="13.540355963632464">
        <ele>528.86000000000001</ele>
        <time>2024-09-19T10:46:28Z</time>
      </trkpt>
      <trkpt lat="50.708524994552135" lon="13.540076008066535">
        <ele>531.75</ele>
        <time>2024-09-19T10:46:31Z</time>
      </trkpt>
      <trkpt lat="50.708452994003892" lon="13.539843996986747">
        <ele>532.23000000000002</ele>
        <time>2024-09-19T10:46:32Z</time>
      </trkpt>
      <trkpt lat="50.70840697735548" lon="13.539726985618472">
        <ele>532.71000000000004</ele>
        <time>2024-09-19T10:46:33Z</time>
      </trkpt>
      <trkpt lat="50.708400020375848" lon="13.53972296230495">
        <ele>532.71000000000004</ele>
        <time>2024-09-19T10:46:34Z</time>
      </trkpt>
      <trkpt lat="50.708303963765502" lon="13.539660014212132">
        <ele>533.66999999999996</ele>
        <time>2024-09-19T10:46:35Z</time>
      </trkpt>
      <trkpt lat="50.70819198153913" lon="13.539587007835507">
        <ele>537.50999999999999</ele>
        <time>2024-09-19T10:46:36Z</time>
      </trkpt>
      <trkpt lat="50.70819198153913" lon="13.539587007835507">
        <ele>537.99000000000001</ele>
        <time>2024-09-19T10:46:37Z</time>
      </trkpt>
      <trkpt lat="50.70810598321259" lon="13.539531016722322">
        <ele>540.88</ele>
        <time>2024-09-19T10:46:38Z</time>
      </trkpt>
      <trkpt lat="50.707913031801581" lon="13.539405036717653">
        <ele>542.79999999999995</ele>
        <time>2024-09-19T10:46:39Z</time>
      </trkpt>
      <trkpt lat="50.707913031801581" lon="13.539405036717653">
        <ele>543.75999999999999</ele>
        <time>2024-09-19T10:46:40Z</time>
      </trkpt>
      <trkpt lat="50.707435011863708" lon="13.539438983425498">
        <ele>545.69000000000005</ele>
        <time>2024-09-19T10:46:44Z</time>
      </trkpt>
      <trkpt lat="50.707353036850691" lon="13.539445018395782">
        <ele>546.64999999999998</ele>
        <time>2024-09-19T10:46:45Z</time>
      </trkpt>
      <trkpt lat="50.707125971093774" lon="13.539410987868905">
        <ele>546.16999999999996</ele>
        <time>2024-09-19T10:46:48Z</time>
      </trkpt>
      <trkpt lat="50.707038966938853" lon="13.539362959563732">
        <ele>546.64999999999998</ele>
        <time>2024-09-19T10:46:49Z</time>
      </trkpt>
      <trkpt lat="50.706947017461061" lon="13.539295988157392">
        <ele>546.16999999999996</ele>
        <time>2024-09-19T10:46:50Z</time>
      </trkpt>
      <trkpt lat="50.706839980557561" lon="13.539081998169422">
        <ele>550.00999999999999</ele>
        <time>2024-09-19T10:46:52Z</time>
      </trkpt>
      <trkpt lat="50.7067930418998" lon="13.538936991244555">
        <ele>551.45000000000005</ele>
        <time>2024-09-19T10:46:53Z</time>
      </trkpt>
      <trkpt lat="50.706754988059402" lon="13.538784021511674">
        <ele>551.92999999999995</ele>
        <time>2024-09-19T10:46:54Z</time>
      </trkpt>
      <trkpt lat="50.706596989184618" lon="13.538122018799186">
        <ele>551.45000000000005</ele>
        <time>2024-09-19T10:46:58Z</time>
      </trkpt>
      <trkpt lat="50.706554995849729" lon="13.537755981087685">
        <ele>554.34000000000003</ele>
        <time>2024-09-19T10:47:00Z</time>
      </trkpt>
      <trkpt lat="50.706546027213335" lon="13.536170963197947">
        <ele>555.77999999999997</ele>
        <time>2024-09-19T10:47:07Z</time>
      </trkpt>
      <trkpt lat="50.706748031079769" lon="13.534165006130934">
        <ele>554.34000000000003</ele>
        <time>2024-09-19T10:47:14Z</time>
      </trkpt>
      <trkpt lat="50.706839980557561" lon="13.532580994069576">
        <ele>556.25999999999999</ele>
        <time>2024-09-19T10:47:19Z</time>
      </trkpt>
      <trkpt lat="50.706392973661423" lon="13.530181003734469">
        <ele>553.86000000000001</ele>
        <time>2024-09-19T10:47:27Z</time>
      </trkpt>
      <trkpt lat="50.70634301751852" lon="13.529914040118456">
        <ele>553.38</ele>
        <time>2024-09-19T10:47:28Z</time>
      </trkpt>
      <trkpt lat="50.706324996426702" lon="13.529577003791928">
        <ele>552.89999999999998</ele>
        <time>2024-09-19T10:47:29Z</time>
      </trkpt>
      <trkpt lat="50.706391967833042" lon="13.529074005782604">
        <ele>552.40999999999997</ele>
        <time>2024-09-19T10:47:31Z</time>
      </trkpt>
      <trkpt lat="50.706410994753242" lon="13.528809975832701">
        <ele>552.40999999999997</ele>
        <time>2024-09-19T10:47:32Z</time>
      </trkpt>
      <trkpt lat="50.706377970054746" lon="13.528472017496824">
        <ele>551.92999999999995</ele>
        <time>2024-09-19T10:47:33Z</time>
      </trkpt>
      <trkpt lat="50.706165991723537" lon="13.527988968417048">
        <ele>551.92999999999995</ele>
        <time>2024-09-19T10:47:35Z</time>
      </trkpt>
      <trkpt lat="50.706056021153927" lon="13.527738014236093">
        <ele>551.92999999999995</ele>
        <time>2024-09-19T10:47:36Z</time>
      </trkpt>
      <trkpt lat="50.705996006727219" lon="13.527493011206388">
        <ele>552.40999999999997</ele>
        <time>2024-09-19T10:47:37Z</time>
      </trkpt>
      <trkpt lat="50.705957030877471" lon="13.527202997356653">
        <ele>552.40999999999997</ele>
        <time>2024-09-19T10:47:38Z</time>
      </trkpt>
      <trkpt lat="50.705943033099174" lon="13.526903009042144">
        <ele>552.40999999999997</ele>
        <time>2024-09-19T10:47:39Z</time>
      </trkpt>
      <trkpt lat="50.705916965380311" lon="13.526621963828802">
        <ele>553.38</ele>
        <time>2024-09-19T10:47:40Z</time>
      </trkpt>
      <trkpt lat="50.705847982317209" lon="13.52614302188158">
        <ele>555.77999999999997</ele>
        <time>2024-09-19T10:47:42Z</time>
      </trkpt>
      <trkpt lat="50.705798026174307" lon="13.525945963338017">
        <ele>557.70000000000005</ele>
        <time>2024-09-19T10:47:43Z</time>
      </trkpt>
      <trkpt lat="50.705305002629757" lon="13.524684989824891">
        <ele>575.00999999999999</ele>
        <time>2024-09-19T10:47:51Z</time>
      </trkpt>
      <trkpt lat="50.704390034079552" lon="13.523642029613256">
        <ele>592.30999999999995</ele>
        <time>2024-09-19T10:48:01Z</time>
      </trkpt>
      <trkpt lat="50.70380799472332" lon="13.523322008550167">
        <ele>594.23000000000002</ele>
        <time>2024-09-19T10:48:07Z</time>
      </trkpt>
      <trkpt lat="50.703514041379094" lon="13.523161998018622">
        <ele>594.23000000000002</ele>
        <time>2024-09-19T10:48:08Z</time>
      </trkpt>
      <trkpt lat="50.703402981162071" lon="13.523050015792251">
        <ele>594.23000000000002</ele>
        <time>2024-09-19T10:48:09Z</time>
      </trkpt>
      <trkpt lat="50.703274989500642" lon="13.522922024130821">
        <ele>594.71000000000004</ele>
        <time>2024-09-19T10:48:10Z</time>
      </trkpt>
      <trkpt lat="50.703149009495974" lon="13.522740975022316">
        <ele>595.19000000000005</ele>
        <time>2024-09-19T10:48:11Z</time>
      </trkpt>
      <trkpt lat="50.702928984537721" lon="13.522378038614988">
        <ele>596.14999999999998</ele>
        <time>2024-09-19T10:48:13Z</time>
      </trkpt>
      <trkpt lat="50.702806022018194" lon="13.522175028920174">
        <ele>597.12</ele>
        <time>2024-09-19T10:48:14Z</time>
      </trkpt>
      <trkpt lat="50.702739972621202" lon="13.522003032267094">
        <ele>597.60000000000002</ele>
        <time>2024-09-19T10:48:15Z</time>
      </trkpt>
      <trkpt lat="50.702158017084002" lon="13.520597973838449">
        <ele>598.08000000000004</ele>
        <time>2024-09-19T10:48:23Z</time>
      </trkpt>
      <trkpt lat="50.702070007100701" lon="13.520437041297555">
        <ele>598.08000000000004</ele>
        <time>2024-09-19T10:48:24Z</time>
      </trkpt>
      <trkpt lat="50.70195802487433" lon="13.520304020494223">
        <ele>598.08000000000004</ele>
        <time>2024-09-19T10:48:25Z</time>
      </trkpt>
      <trkpt lat="50.701836990192533" lon="13.52019396610558">
        <ele>598.55999999999995</ele>
        <time>2024-09-19T10:48:26Z</time>
      </trkpt>
      <trkpt lat="50.701716039329767" lon="13.52008500136435">
        <ele>598.55999999999995</ele>
        <time>2024-09-19T10:48:27Z</time>
      </trkpt>
      <trkpt lat="50.701583018526435" lon="13.519963966682553">
        <ele>599.03999999999996</ele>
        <time>2024-09-19T10:48:28Z</time>
      </trkpt>
      <trkpt lat="50.701452009379864" lon="13.519930019974709">
        <ele>599.51999999999998</ele>
        <time>2024-09-19T10:48:29Z</time>
      </trkpt>
      <trkpt lat="50.701318988576531" lon="13.519893977791071">
        <ele>600</ele>
        <time>2024-09-19T10:48:30Z</time>
      </trkpt>
      <trkpt lat="50.701170964166522" lon="13.519890960305929">
        <ele>600.48000000000002</ele>
        <time>2024-09-19T10:48:31Z</time>
      </trkpt>
      <trkpt lat="50.701038027182221" lon="13.519909987226129">
        <ele>601.44000000000005</ele>
        <time>2024-09-19T10:48:32Z</time>
      </trkpt>
      <trkpt lat="50.700893020257354" lon="13.519958015531301">
        <ele>601.91999999999996</ele>
        <time>2024-09-19T10:48:33Z</time>
      </trkpt>
      <trkpt lat="50.700767040252686" lon="13.520024986937642">
        <ele>602.39999999999998</ele>
        <time>2024-09-19T10:48:34Z</time>
      </trkpt>
      <trkpt lat="50.699544036760926" lon="13.520782040432096">
        <ele>607.69000000000005</ele>
        <time>2024-09-19T10:48:44Z</time>
      </trkpt>
      <trkpt lat="50.699308002367616" lon="13.520888993516564">
        <ele>608.16999999999996</ele>
        <time>2024-09-19T10:48:46Z</time>
      </trkpt>
      <trkpt lat="50.699187973514199" lon="13.520896034315228">
        <ele>608.64999999999998</ele>
        <time>2024-09-19T10:48:47Z</time>
      </trkpt>
      <trkpt lat="50.699064005166292" lon="13.520874995738268">
        <ele>608.64999999999998</ele>
        <time>2024-09-19T10:48:48Z</time>
      </trkpt>
      <trkpt lat="50.698940036818385" lon="13.520854040980339">
        <ele>609.13</ele>
        <time>2024-09-19T10:48:49Z</time>
      </trkpt>
      <trkpt lat="50.698817996308208" lon="13.520800983533263">
        <ele>609.13</ele>
        <time>2024-09-19T10:48:50Z</time>
      </trkpt>
      <trkpt lat="50.698699979111552" lon="13.520719008520246">
        <ele>609.13</ele>
        <time>2024-09-19T10:48:51Z</time>
      </trkpt>
      <trkpt lat="50.698591014370322" lon="13.520598979666829">
        <ele>609.61000000000001</ele>
        <time>2024-09-19T10:48:52Z</time>
      </trkpt>
      <trkpt lat="50.698514990508556" lon="13.520500995218754">
        <ele>609.61000000000001</ele>
        <time>2024-09-19T10:48:53Z</time>
      </trkpt>
      <trkpt lat="50.698440978303552" lon="13.520280970260501">
        <ele>610.09000000000003</ele>
        <time>2024-09-19T10:48:54Z</time>
      </trkpt>
      <trkpt lat="50.698382975533605" lon="13.520106039941311">
        <ele>610.57000000000005</ele>
        <time>2024-09-19T10:48:55Z</time>
      </trkpt>
      <trkpt lat="50.698322039097548" lon="13.519922979176044">
        <ele>611.05999999999995</ele>
        <time>2024-09-19T10:48:56Z</time>
      </trkpt>
      <trkpt lat="50.698271999135613" lon="13.519736984744668">
        <ele>611.05999999999995</ele>
        <time>2024-09-19T10:48:57Z</time>
      </trkpt>
      <trkpt lat="50.698249032720923" lon="13.51954503916204">
        <ele>611.53999999999996</ele>
        <time>2024-09-19T10:48:58Z</time>
      </trkpt>
      <trkpt lat="50.698225982487202" lon="13.51935300976038">
        <ele>612.01999999999998</ele>
        <time>2024-09-19T10:48:59Z</time>
      </trkpt>
      <trkpt lat="50.698081981390715" lon="13.517660032957792">
        <ele>615.86000000000001</ele>
        <time>2024-09-19T10:49:06Z</time>
      </trkpt>
      <trkpt lat="50.697876960039139" lon="13.516760990023613">
        <ele>616.34000000000003</ele>
        <time>2024-09-19T10:49:09Z</time>
      </trkpt>
      <trkpt lat="50.697169024497271" lon="13.514357982203364">
        <ele>617.29999999999995</ele>
        <time>2024-09-19T10:49:16Z</time>
      </trkpt>
      <trkpt lat="50.696506015956402" lon="13.511924967169762">
        <ele>617.29999999999995</ele>
        <time>2024-09-19T10:49:22Z</time>
      </trkpt>
      <trkpt lat="50.695927999913692" lon="13.509045029059052">
        <ele>616.82000000000005</ele>
        <time>2024-09-19T10:49:29Z</time>
      </trkpt>
      <trkpt lat="50.69553698413074" lon="13.507167985662818">
        <ele>615.38</ele>
        <time>2024-09-19T10:49:34Z</time>
      </trkpt>
      <trkpt lat="50.695444028824568" lon="13.506934968754649">
        <ele>615.38</ele>
        <time>2024-09-19T10:49:35Z</time>
      </trkpt>
      <trkpt lat="50.69534202106297" lon="13.50676397792995">
        <ele>615.86000000000001</ele>
        <time>2024-09-19T10:49:36Z</time>
      </trkpt>
      <trkpt lat="50.69521302357316" lon="13.506632968783379">
        <ele>615.86000000000001</ele>
        <time>2024-09-19T10:49:37Z</time>
      </trkpt>
      <trkpt lat="50.695049995556474" lon="13.506578989326954">
        <ele>615.86000000000001</ele>
        <time>2024-09-19T10:49:38Z</time>
      </trkpt>
      <trkpt lat="50.694881016388535" lon="13.506521992385387">
        <ele>615.86000000000001</ele>
        <time>2024-09-19T10:49:39Z</time>
      </trkpt>
      <trkpt lat="50.694544985890388" lon="13.506366005167365">
        <ele>615.86000000000001</ele>
        <time>2024-09-19T10:49:41Z</time>
      </trkpt>
      <trkpt lat="50.694407019764185" lon="13.506222004070878">
        <ele>615.86000000000001</ele>
        <time>2024-09-19T10:49:42Z</time>
      </trkpt>
      <trkpt lat="50.694279028102756" lon="13.506055036559701">
        <ele>615.86000000000001</ele>
        <time>2024-09-19T10:49:43Z</time>
      </trkpt>
      <trkpt lat="50.694200992584229" lon="13.505806010216475">
        <ele>615.86000000000001</ele>
        <time>2024-09-19T10:49:44Z</time>
      </trkpt>
      <trkpt lat="50.694123962894082" lon="13.505527982488275">
        <ele>615.86000000000001</ele>
        <time>2024-09-19T10:49:45Z</time>
      </trkpt>
      <trkpt lat="50.694040982052684" lon="13.505224976688623">
        <ele>615.38</ele>
        <time>2024-09-19T10:49:46Z</time>
      </trkpt>
      <trkpt lat="50.693599004298449" lon="13.503598971292377">
        <ele>614.41999999999996</ele>
        <time>2024-09-19T10:49:51Z</time>
      </trkpt>
      <trkpt lat="50.693498002365232" lon="13.503325972706079">
        <ele>614.41999999999996</ele>
        <time>2024-09-19T10:49:52Z</time>
      </trkpt>
      <trkpt lat="50.693364981561899" lon="13.503121035173535">
        <ele>613.94000000000005</ele>
        <time>2024-09-19T10:49:53Z</time>
      </trkpt>
      <trkpt lat="50.693232966586947" lon="13.502966975793242">
        <ele>613.46000000000004</ele>
        <time>2024-09-19T10:49:54Z</time>
      </trkpt>
      <trkpt lat="50.693091982975602" lon="13.502889024093747">
        <ele>613.46000000000004</ele>
        <time>2024-09-19T10:49:55Z</time>
      </trkpt>
      <trkpt lat="50.692963991314173" lon="13.502869997173548">
        <ele>612.5</ele>
        <time>2024-09-19T10:49:56Z</time>
      </trkpt>
      <trkpt lat="50.69282803684473" lon="13.502883994951844">
        <ele>612.01999999999998</ele>
        <time>2024-09-19T10:49:57Z</time>
      </trkpt>
      <trkpt lat="50.692716976627707" lon="13.502995977178216">
        <ele>612.01999999999998</ele>
        <time>2024-09-19T10:49:58Z</time>
      </trkpt>
      <trkpt lat="50.692586973309517" lon="13.503124974668026">
        <ele>611.05999999999995</ele>
        <time>2024-09-19T10:49:59Z</time>
      </trkpt>
      <trkpt lat="50.69246401078999" lon="13.503294959664345">
        <ele>610.57000000000005</ele>
        <time>2024-09-19T10:50:00Z</time>
      </trkpt>
      <trkpt lat="50.692348005250096" lon="13.503538034856319">
        <ele>610.09000000000003</ele>
        <time>2024-09-19T10:50:01Z</time>
      </trkpt>
      <trkpt lat="50.691720033064485" lon="13.504775036126375">
        <ele>606.25</ele>
        <time>2024-09-19T10:50:06Z</time>
      </trkpt>
      <trkpt lat="50.691563962027431" lon="13.504979973658919">
        <ele>605.28999999999996</ele>
        <time>2024-09-19T10:50:07Z</time>
      </trkpt>
      <trkpt lat="50.691400012001395" lon="13.50519597530365">
        <ele>604.33000000000004</ele>
        <time>2024-09-19T10:50:08Z</time>
      </trkpt>
      <trkpt lat="50.691206976771355" lon="13.50536897778511">
        <ele>602.88</ele>
        <time>2024-09-19T10:50:09Z</time>
      </trkpt>
      <trkpt lat="50.691007990390062" lon="13.505509961396456">
        <ele>601.91999999999996</ele>
        <time>2024-09-19T10:50:10Z</time>
      </trkpt>
      <trkpt lat="50.690806992352009" lon="13.505605012178421">
        <ele>600.96000000000004</ele>
        <time>2024-09-19T10:50:11Z</time>
      </trkpt>
      <trkpt lat="50.690622003749013" lon="13.505693022161722">
        <ele>599.51999999999998</ele>
        <time>2024-09-19T10:50:12Z</time>
      </trkpt>
      <trkpt lat="50.690455958247185" lon="13.505654968321323">
        <ele>598.55999999999995</ele>
        <time>2024-09-19T10:50:13Z</time>
      </trkpt>
      <trkpt lat="50.690329978242517" lon="13.505606018006802">
        <ele>597.12</ele>
        <time>2024-09-19T10:50:14Z</time>
      </trkpt>
      <trkpt lat="50.690238028764725" lon="13.505510967224836">
        <ele>596.14999999999998</ele>
        <time>2024-09-19T10:50:15Z</time>
      </trkpt>
      <trkpt lat="50.69016401655972" lon="13.505352968350053">
        <ele>595.19000000000005</ele>
        <time>2024-09-19T10:50:16Z</time>
      </trkpt>
      <trkpt lat="50.690099978819489" lon="13.505184995010495">
        <ele>593.75</ele>
        <time>2024-09-19T10:50:17Z</time>
      </trkpt>
      <trkpt lat="50.690085981041193" lon="13.504994977265596">
        <ele>592.78999999999996</ele>
        <time>2024-09-19T10:50:18Z</time>
      </trkpt>
      <trkpt lat="50.690115988254547" lon="13.504794985055923">
        <ele>590.87</ele>
        <time>2024-09-19T10:50:19Z</time>
      </trkpt>
      <trkpt lat="50.690177008509636" lon="13.504591975361109">
        <ele>589.42999999999995</ele>
        <time>2024-09-19T10:50:20Z</time>
      </trkpt>
      <trkpt lat="50.690267030149698" lon="13.504392988979816">
        <ele>588.46000000000004</ele>
        <time>2024-09-19T10:50:21Z</time>
      </trkpt>
      <trkpt lat="50.690397033467889" lon="13.504253011196852">
        <ele>587.5</ele>
        <time>2024-09-19T10:50:22Z</time>
      </trkpt>
      <trkpt lat="50.690539022907615" lon="13.504101969301701">
        <ele>586.53999999999996</ele>
        <time>2024-09-19T10:50:23Z</time>
      </trkpt>
      <trkpt lat="50.691454997286201" lon="13.50302497856319">
        <ele>578.85000000000002</ele>
        <time>2024-09-19T10:50:29Z</time>
      </trkpt>
      <trkpt lat="50.691713998094201" lon="13.502491973340511">
        <ele>575.97000000000003</ele>
        <time>2024-09-19T10:50:31Z</time>
      </trkpt>
      <trkpt lat="50.691836038604379" lon="13.502200031653047">
        <ele>574.52999999999997</ele>
        <time>2024-09-19T10:50:32Z</time>
      </trkpt>
      <trkpt lat="50.691950032487512" lon="13.501899037510157">
        <ele>573.08000000000004</ele>
        <time>2024-09-19T10:50:33Z</time>
      </trkpt>
      <trkpt lat="50.692133009433746" lon="13.50124298594892">
        <ele>570.67999999999995</ele>
        <time>2024-09-19T10:50:35Z</time>
      </trkpt>
      <trkpt lat="50.692189000546932" lon="13.50091801956296">
        <ele>569.72000000000003</ele>
        <time>2024-09-19T10:50:36Z</time>
      </trkpt>
      <trkpt lat="50.692488988861442" lon="13.499398967251182">
        <ele>564.42999999999995</ele>
        <time>2024-09-19T10:50:42Z</time>
      </trkpt>
      <trkpt lat="50.692587979137897" lon="13.498511994257569">
        <ele>561.54999999999995</ele>
        <time>2024-09-19T10:50:47Z</time>
      </trkpt>
      <trkpt lat="50.692584039643407" lon="13.498332034796476">
        <ele>561.54999999999995</ele>
        <time>2024-09-19T10:50:48Z</time>
      </trkpt>
      <trkpt lat="50.692551014944911" lon="13.498160038143396">
        <ele>561.54999999999995</ele>
        <time>2024-09-19T10:50:49Z</time>
      </trkpt>
      <trkpt lat="50.692520001903176" lon="13.497992986813188">
        <ele>562.02999999999997</ele>
        <time>2024-09-19T10:50:50Z</time>
      </trkpt>
      <trkpt lat="50.692488988861442" lon="13.497826019302011">
        <ele>562.50999999999999</ele>
        <time>2024-09-19T10:50:51Z</time>
      </trkpt>
      <trkpt lat="50.692453030496836" lon="13.497661985456944">
        <ele>562.99000000000001</ele>
        <time>2024-09-19T10:50:52Z</time>
      </trkpt>
      <trkpt lat="50.692284973338246" lon="13.497192012146115">
        <ele>564.42999999999995</ele>
        <time>2024-09-19T10:50:55Z</time>
      </trkpt>
      <trkpt lat="50.69222898222506" lon="13.497036024928093">
        <ele>564.90999999999997</ele>
        <time>2024-09-19T10:50:56Z</time>
      </trkpt>
      <trkpt lat="50.692171985283494" lon="13.496876014396548">
        <ele>565.87</ele>
        <time>2024-09-19T10:50:57Z</time>
      </trkpt>
      <trkpt lat="50.692113982513547" lon="13.496713992208242">
        <ele>566.35000000000002</ele>
        <time>2024-09-19T10:50:58Z</time>
      </trkpt>
      <trkpt lat="50.692057991400361" lon="13.496555993333459">
        <ele>567.32000000000005</ele>
        <time>2024-09-19T10:50:59Z</time>
      </trkpt>
      <trkpt lat="50.691456003114581" lon="13.494965024292469">
        <ele>572.60000000000002</ele>
        <time>2024-09-19T10:51:08Z</time>
      </trkpt>
      <trkpt lat="50.690644970163703" lon="13.492850018665195">
        <ele>566.35000000000002</ele>
        <time>2024-09-19T10:51:16Z</time>
      </trkpt>
      <trkpt lat="50.690471967682242" lon="13.492297986522317">
        <ele>564.42999999999995</ele>
        <time>2024-09-19T10:51:18Z</time>
      </trkpt>
      <trkpt lat="50.690459981560707" lon="13.492032028734684">
        <ele>562.99000000000001</ele>
        <time>2024-09-19T10:51:19Z</time>
      </trkpt>
      <trkpt lat="50.690451012924314" lon="13.491764981299639">
        <ele>562.02999999999997</ele>
        <time>2024-09-19T10:51:20Z</time>
      </trkpt>
      <trkpt lat="50.690472973510623" lon="13.491506986320019">
        <ele>560.59000000000003</ele>
        <time>2024-09-19T10:51:21Z</time>
      </trkpt>
      <trkpt lat="50.690540028735995" lon="13.491256032139063">
        <ele>559.62</ele>
        <time>2024-09-19T10:51:22Z</time>
      </trkpt>
      <trkpt lat="50.690645975992084" lon="13.491035001352429">
        <ele>558.17999999999995</ele>
        <time>2024-09-19T10:51:23Z</time>
      </trkpt>
      <trkpt lat="50.690754018723965" lon="13.49082101136446">
        <ele>557.22000000000003</ele>
        <time>2024-09-19T10:51:24Z</time>
      </trkpt>
      <trkpt lat="50.690875975415111" lon="13.490623030811548">
        <ele>556.25999999999999</ele>
        <time>2024-09-19T10:51:25Z</time>
      </trkpt>
      <trkpt lat="50.691686002537608" lon="13.489218978211284">
        <ele>552.89999999999998</ele>
        <time>2024-09-19T10:51:33Z</time>
      </trkpt>
      <trkpt lat="50.691750040277839" lon="13.489057961851358">
        <ele>552.40999999999997</ele>
        <time>2024-09-19T10:51:34Z</time>
      </trkpt>
      <trkpt lat="50.691789016127586" lon="13.488884037360549">
        <ele>552.40999999999997</ele>
        <time>2024-09-19T10:51:35Z</time>
      </trkpt>
      <trkpt lat="50.691816005855799" lon="13.488692007958889">
        <ele>552.40999999999997</ele>
        <time>2024-09-19T10:51:36Z</time>
      </trkpt>
      <trkpt lat="50.691799996420741" lon="13.488510958850384">
        <ele>552.89999999999998</ele>
        <time>2024-09-19T10:51:37Z</time>
      </trkpt>
      <trkpt lat="50.69175498560071" lon="13.488356983289123">
        <ele>552.89999999999998</ele>
        <time>2024-09-19T10:51:38Z</time>
      </trkpt>
      <trkpt lat="50.691665969789028" lon="13.488179035484791">
        <ele>552.89999999999998</ele>
        <time>2024-09-19T10:51:39Z</time>
      </trkpt>
      <trkpt lat="50.691585000604391" lon="13.488017013296485">
        <ele>553.38</ele>
        <time>2024-09-19T10:51:40Z</time>
      </trkpt>
      <trkpt lat="50.691466983407736" lon="13.487910982221365">
        <ele>553.86000000000001</ele>
        <time>2024-09-19T10:51:41Z</time>
      </trkpt>
      <trkpt lat="50.691344020888209" lon="13.48783303052187">
        <ele>554.82000000000005</ele>
        <time>2024-09-19T10:51:42Z</time>
      </trkpt>
      <trkpt lat="50.69121896289289" lon="13.487754995003343">
        <ele>555.29999999999995</ele>
        <time>2024-09-19T10:51:43Z</time>
      </trkpt>
      <trkpt lat="50.690887039527297" lon="13.487472021952271">
        <ele>557.22000000000003</ele>
        <time>2024-09-19T10:51:46Z</time>
      </trkpt>
      <trkpt lat="50.69078897126019" lon="13.487334977835417">
        <ele>557.70000000000005</ele>
        <time>2024-09-19T10:51:47Z</time>
      </trkpt>
      <trkpt lat="50.690721999853849" lon="13.487141020596027">
        <ele>557.70000000000005</ele>
        <time>2024-09-19T10:51:48Z</time>
      </trkpt>
      <trkpt lat="50.690245991572738" lon="13.485449971631169">
        <ele>558.65999999999997</ele>
        <time>2024-09-19T10:51:56Z</time>
      </trkpt>
      <trkpt lat="50.689995037391782" lon="13.484489992260933">
        <ele>557.22000000000003</ele>
        <time>2024-09-19T10:52:01Z</time>
      </trkpt>
      <trkpt lat="50.689932005479932" lon="13.484237026423216">
        <ele>556.74000000000001</ele>
        <time>2024-09-19T10:52:02Z</time>
      </trkpt>
      <trkpt lat="50.689809964969754" lon="13.482317989692092">
        <ele>557.70000000000005</ele>
        <time>2024-09-19T10:52:09Z</time>
      </trkpt>
      <trkpt lat="50.689797978848219" lon="13.481874000281096">
        <ele>558.17999999999995</ele>
        <time>2024-09-19T10:52:11Z</time>
      </trkpt>
      <trkpt lat="50.68975699134171" lon="13.481684988364577">
        <ele>558.17999999999995</ele>
        <time>2024-09-19T10:52:12Z</time>
      </trkpt>
      <trkpt lat="50.68969102576375" lon="13.481527995318174">
        <ele>558.17999999999995</ele>
        <time>2024-09-19T10:52:13Z</time>
      </trkpt>
      <trkpt lat="50.689578037708998" lon="13.481405032798648">
        <ele>558.17999999999995</ele>
        <time>2024-09-19T10:52:14Z</time>
      </trkpt>
      <trkpt lat="50.689436970278621" lon="13.48128198646009">
        <ele>558.65999999999997</ele>
        <time>2024-09-19T10:52:15Z</time>
      </trkpt>
      <trkpt lat="50.689285006374121" lon="13.481136979535222">
        <ele>558.17999999999995</ele>
        <time>2024-09-19T10:52:16Z</time>
      </trkpt>
      <trkpt lat="50.688954005017877" lon="13.480747975409031">
        <ele>558.65999999999997</ele>
        <time>2024-09-19T10:52:18Z</time>
      </trkpt>
      <trkpt lat="50.688802041113377" lon="13.4805319737643">
        <ele>558.65999999999997</ele>
        <time>2024-09-19T10:52:19Z</time>
      </trkpt>
      <trkpt lat="50.688677988946438" lon="13.480255035683513">
        <ele>558.65999999999997</ele>
        <time>2024-09-19T10:52:20Z</time>
      </trkpt>
      <trkpt lat="50.688557038083673" lon="13.479982959106565">
        <ele>558.65999999999997</ele>
        <time>2024-09-19T10:52:21Z</time>
      </trkpt>
      <trkpt lat="50.688437009230256" lon="13.47971398383379">
        <ele>558.65999999999997</ele>
        <time>2024-09-19T10:52:22Z</time>
      </trkpt>
      <trkpt lat="50.68831698037684" lon="13.479444002732635">
        <ele>558.65999999999997</ele>
        <time>2024-09-19T10:52:23Z</time>
      </trkpt>
      <trkpt lat="50.688200974836946" lon="13.479183996096253">
        <ele>558.65999999999997</ele>
        <time>2024-09-19T10:52:24Z</time>
      </trkpt>
      <trkpt lat="50.688071977347136" lon="13.478950979188085">
        <ele>558.17999999999995</ele>
        <time>2024-09-19T10:52:25Z</time>
      </trkpt>
      <trkpt lat="50.687915990129113" lon="13.478754004463553">
        <ele>557.70000000000005</ele>
        <time>2024-09-19T10:52:26Z</time>
      </trkpt>
      <trkpt lat="50.68691804073751" lon="13.477438967674971">
        <ele>553.38</ele>
        <time>2024-09-19T10:52:32Z</time>
      </trkpt>
      <trkpt lat="50.686205998063087" lon="13.476312020793557">
        <ele>550.00999999999999</ele>
        <time>2024-09-19T10:52:38Z</time>
      </trkpt>
      <trkpt lat="50.685560004785657" lon="13.475290015339851">
        <ele>548.57000000000005</ele>
        <time>2024-09-19T10:52:46Z</time>
      </trkpt>
      <trkpt lat="50.685469983145595" lon="13.475183984264731">
        <ele>548.09000000000003</ele>
        <time>2024-09-19T10:52:47Z</time>
      </trkpt>
      <trkpt lat="50.685375016182661" lon="13.475089017301798">
        <ele>548.09000000000003</ele>
        <time>2024-09-19T10:52:48Z</time>
      </trkpt>
      <trkpt lat="50.685278959572315" lon="13.474998995661736">
        <ele>547.61000000000001</ele>
        <time>2024-09-19T10:52:49Z</time>
      </trkpt>
      <trkpt lat="50.68517804145813" lon="13.474928000941873">
        <ele>547.61000000000001</ele>
        <time>2024-09-19T10:52:50Z</time>
      </trkpt>
      <trkpt lat="50.685075027868152" lon="13.474856000393629">
        <ele>547.13</ele>
        <time>2024-09-19T10:52:51Z</time>
      </trkpt>
      <trkpt lat="50.684660961851478" lon="13.474572021514177">
        <ele>547.13</ele>
        <time>2024-09-19T10:52:55Z</time>
      </trkpt>
      <trkpt lat="50.684547973796725" lon="13.474489962682128">
        <ele>546.64999999999998</ele>
        <time>2024-09-19T10:52:56Z</time>
      </trkpt>
      <trkpt lat="50.683811958879232" lon="13.47397699020803">
        <ele>544.24000000000001</ele>
        <time>2024-09-19T10:53:03Z</time>
      </trkpt>
      <trkpt lat="50.683705005794764" lon="13.473922004923224">
        <ele>544.24000000000001</ele>
        <time>2024-09-19T10:53:04Z</time>
      </trkpt>
      <trkpt lat="50.682975025847554" lon="13.473487989977002">
        <ele>542.79999999999995</ele>
        <time>2024-09-19T10:53:11Z</time>
      </trkpt>
      <trkpt lat="50.682034995406866" lon="13.472383003681898">
        <ele>537.99000000000001</ele>
        <time>2024-09-19T10:53:21Z</time>
      </trkpt>
      <trkpt lat="50.681197978556156" lon="13.471408020704985">
        <ele>535.59000000000003</ele>
        <time>2024-09-19T10:53:30Z</time>
      </trkpt>
      <trkpt lat="50.681095970794559" lon="13.471310958266258">
        <ele>535.59000000000003</ele>
        <time>2024-09-19T10:53:31Z</time>
      </trkpt>
      <trkpt lat="50.680426005274057" lon="13.470676029101014">
        <ele>533.66999999999996</ele>
        <time>2024-09-19T10:53:38Z</time>
      </trkpt>
      <trkpt lat="50.68030497059226" lon="13.47053999081254">
        <ele>533.66999999999996</ele>
        <time>2024-09-19T10:53:39Z</time>
      </trkpt>
      <trkpt lat="50.680207991972566" lon="13.470432031899691">
        <ele>533.66999999999996</ele>
        <time>2024-09-19T10:53:40Z</time>
      </trkpt>
      <trkpt lat="50.679301992058754" lon="13.469670033082366">
        <ele>536.54999999999995</ele>
        <time>2024-09-19T10:53:49Z</time>
      </trkpt>
      <trkpt lat="50.678664967417717" lon="13.46927298232913">
        <ele>534.63</ele>
        <time>2024-09-19T10:53:55Z</time>
      </trkpt>
      <trkpt lat="50.678576035425067" lon="13.469153959304094">
        <ele>534.63</ele>
        <time>2024-09-19T10:53:56Z</time>
      </trkpt>
      <trkpt lat="50.67849799990654" lon="13.469022028148174">
        <ele>534.14999999999998</ele>
        <time>2024-09-19T10:53:57Z</time>
      </trkpt>
      <trkpt lat="50.678363973274827" lon="13.468782976269722">
        <ele>533.66999999999996</ele>
        <time>2024-09-19T10:53:59Z</time>
      </trkpt>
      <trkpt lat="50.678319968283176" lon="13.468704018741846">
        <ele>533.66999999999996</ele>
        <time>2024-09-19T10:54:00Z</time>
      </trkpt>
      <trkpt lat="50.678214021027088" lon="13.468632018193603">
        <ele>532.71000000000004</ele>
        <time>2024-09-19T10:54:04Z</time>
      </trkpt>
      <trkpt lat="50.678182002156973" lon="13.468658002093434">
        <ele>532.71000000000004</ele>
        <time>2024-09-19T10:54:05Z</time>
      </trkpt>
      <trkpt lat="50.678093992173672" lon="13.468732014298439">
        <ele>532.71000000000004</ele>
        <time>2024-09-19T10:54:07Z</time>
      </trkpt>
      <trkpt lat="50.677973963320255" lon="13.468868974596262">
        <ele>533.66999999999996</ele>
        <time>2024-09-19T10:54:09Z</time>
      </trkpt>
      <trkpt lat="50.677655031904578" lon="13.469518991187215">
        <ele>537.02999999999997</ele>
        <time>2024-09-19T10:54:15Z</time>
      </trkpt>
      <trkpt lat="50.677599040791392" lon="13.469618987292051">
        <ele>537.50999999999999</ele>
        <time>2024-09-19T10:54:16Z</time>
      </trkpt>
      <trkpt lat="50.677481023594737" lon="13.46982903778553">
        <ele>538.48000000000002</ele>
        <time>2024-09-19T10:54:18Z</time>
      </trkpt>
      <trkpt lat="50.677254041656852" lon="13.470232039690018">
        <ele>540.39999999999998</ele>
        <time>2024-09-19T10:54:22Z</time>
      </trkpt>
      <trkpt lat="50.677197966724634" lon="13.470332035794854">
        <ele>541.36000000000001</ele>
        <time>2024-09-19T10:54:23Z</time>
      </trkpt>
      <trkpt lat="50.677138036116958" lon="13.470382997766137">
        <ele>541.84000000000003</ele>
        <time>2024-09-19T10:54:24Z</time>
      </trkpt>
      <trkpt lat="50.67707902751863" lon="13.470418034121394">
        <ele>542.79999999999995</ele>
        <time>2024-09-19T10:54:25Z</time>
      </trkpt>
      <trkpt lat="50.677026975899935" lon="13.470372017472982">
        <ele>543.75999999999999</ele>
        <time>2024-09-19T10:54:26Z</time>
      </trkpt>
      <trkpt lat="50.676952041685581" lon="13.470303034409881">
        <ele>544.24000000000001</ele>
        <time>2024-09-19T10:54:27Z</time>
      </trkpt>
      <trkpt lat="50.676860008388758" lon="13.47021795809269">
        <ele>544.72000000000003</ele>
        <time>2024-09-19T10:54:28Z</time>
      </trkpt>
      <trkpt lat="50.676761018112302" lon="13.470127014443278">
        <ele>544.72000000000003</ele>
        <time>2024-09-19T10:54:29Z</time>
      </trkpt>
      <trkpt lat="50.675816964358091" lon="13.469259990379214">
        <ele>548.09000000000003</ele>
        <time>2024-09-19T10:54:39Z</time>
      </trkpt>
      <trkpt lat="50.675632981583476" lon="13.469140967354178">
        <ele>547.61000000000001</ele>
        <time>2024-09-19T10:54:41Z</time>
      </trkpt>
      <trkpt lat="50.675015989691019" lon="13.46879898570478">
        <ele>546.64999999999998</ele>
        <time>2024-09-19T10:54:49Z</time>
      </trkpt>
      <trkpt lat="50.674987994134426" lon="13.468817006796598">
        <ele>546.64999999999998</ele>
        <time>2024-09-19T10:54:50Z</time>
      </trkpt>
      <trkpt lat="50.674969973042607" lon="13.468880960717797">
        <ele>546.16999999999996</ele>
        <time>2024-09-19T10:54:51Z</time>
      </trkpt>
      <trkpt lat="50.674946000799537" lon="13.468964025378227">
        <ele>546.16999999999996</ele>
        <time>2024-09-19T10:54:52Z</time>
      </trkpt>
      <trkpt lat="50.674919011071324" lon="13.46905798651278">
        <ele>546.16999999999996</ele>
        <time>2024-09-19T10:54:53Z</time>
      </trkpt>
      <trkpt lat="50.674661016091704" lon="13.470137994736433">
        <ele>550.97000000000003</ele>
        <time>2024-09-19T10:55:01Z</time>
      </trkpt>
      <trkpt lat="50.67458800971508" lon="13.470528004691005">
        <ele>554.34000000000003</ele>
        <time>2024-09-19T10:55:05Z</time>
      </trkpt>
      <trkpt lat="50.674576023593545" lon="13.470591036602855">
        <ele>555.29999999999995</ele>
        <time>2024-09-19T10:55:06Z</time>
      </trkpt>
      <trkpt lat="50.6745679769665" lon="13.470633029937744">
        <ele>557.22000000000003</ele>
        <time>2024-09-19T10:55:08Z</time>
      </trkpt>
      <trkpt lat="50.674511985853314" lon="13.470583995804191">
        <ele>558.17999999999995</ele>
        <time>2024-09-19T10:55:09Z</time>
      </trkpt>
      <trkpt lat="50.674457000568509" lon="13.470535967499018">
        <ele>559.13999999999999</ele>
        <time>2024-09-19T10:55:10Z</time>
      </trkpt>
      <trkpt lat="50.674031032249331" lon="13.470160961151123">
        <ele>563.95000000000005</ele>
        <time>2024-09-19T10:55:19Z</time>
      </trkpt>
      <trkpt lat="50.67402801476419" lon="13.470208989456296">
        <ele>564.90999999999997</ele>
        <time>2024-09-19T10:55:20Z</time>
      </trkpt>
      <trkpt lat="50.674024997279048" lon="13.470262968912721">
        <ele>565.87</ele>
        <time>2024-09-19T10:55:21Z</time>
      </trkpt>
      <trkpt lat="50.674019968137145" lon="13.47034796141088">
        <ele>566.35000000000002</ele>
        <time>2024-09-19T10:55:22Z</time>
      </trkpt>
      <trkpt lat="50.674012005329132" lon="13.470464972779155">
        <ele>566.83000000000004</ele>
        <time>2024-09-19T10:55:23Z</time>
      </trkpt>
      <trkpt lat="50.673989038914442" lon="13.470606962218881">
        <ele>567.32000000000005</ele>
        <time>2024-09-19T10:55:24Z</time>
      </trkpt>
      <trkpt lat="50.673919972032309" lon="13.470759009942412">
        <ele>568.27999999999997</ele>
        <time>2024-09-19T10:55:25Z</time>
      </trkpt>
      <trkpt lat="50.673845037817955" lon="13.470823969691992">
        <ele>568.75999999999999</ele>
        <time>2024-09-19T10:55:26Z</time>
      </trkpt>
      <trkpt lat="50.673735989257693" lon="13.470834027975798">
        <ele>569.72000000000003</ele>
        <time>2024-09-19T10:55:27Z</time>
      </trkpt>
      <trkpt lat="50.673734983429313" lon="13.470834027975798">
        <ele>570.20000000000005</ele>
        <time>2024-09-19T10:55:28Z</time>
      </trkpt>
      <trkpt lat="50.673632975667715" lon="13.47079798579216">
        <ele>570.67999999999995</ele>
        <time>2024-09-19T10:55:29Z</time>
      </trkpt>
      <trkpt lat="50.673419991508126" lon="13.470687009394169">
        <ele>571.15999999999997</ele>
        <time>2024-09-19T10:55:30Z</time>
      </trkpt>
      <trkpt lat="50.673209019005299" lon="13.470576032996178">
        <ele>571.63999999999999</ele>
        <time>2024-09-19T10:55:32Z</time>
      </trkpt>
      <trkpt lat="50.673122014850378" lon="13.470597993582487">
        <ele>572.12</ele>
        <time>2024-09-19T10:55:33Z</time>
      </trkpt>
      <trkpt lat="50.673058982938528" lon="13.47066898830235">
        <ele>572.12</ele>
        <time>2024-09-19T10:55:34Z</time>
      </trkpt>
      <trkpt lat="50.673007015138865" lon="13.470772001892328">
        <ele>572.60000000000002</ele>
        <time>2024-09-19T10:55:35Z</time>
      </trkpt>
      <trkpt lat="50.673007015138865" lon="13.470888007432222">
        <ele>573.08000000000004</ele>
        <time>2024-09-19T10:55:36Z</time>
      </trkpt>
      <trkpt lat="50.673013972118497" lon="13.471045000478625">
        <ele>574.03999999999996</ele>
        <time>2024-09-19T10:55:37Z</time>
      </trkpt>
      <trkpt lat="50.673023024573922" lon="13.471223032101989">
        <ele>574.52999999999997</ele>
        <time>2024-09-19T10:55:38Z</time>
      </trkpt>
      <trkpt lat="50.67304297350347" lon="13.471631985157728">
        <ele>575.97000000000003</ele>
        <time>2024-09-19T10:55:40Z</time>
      </trkpt>
      <trkpt lat="50.673108017072082" lon="13.472963031381369">
        <ele>582.22000000000003</ele>
        <time>2024-09-19T10:55:46Z</time>
      </trkpt>
      <trkpt lat="50.673074992373586" lon="13.473119018599391">
        <ele>583.65999999999997</ele>
        <time>2024-09-19T10:55:47Z</time>
      </trkpt>
      <trkpt lat="50.67304003983736" lon="13.473255978897214">
        <ele>584.62</ele>
        <time>2024-09-19T10:55:48Z</time>
      </trkpt>
      <trkpt lat="50.672963010147214" lon="13.473343988880515">
        <ele>586.05999999999995</ele>
        <time>2024-09-19T10:55:49Z</time>
      </trkpt>
      <trkpt lat="50.672868965193629" lon="13.473425041884184">
        <ele>587.01999999999998</ele>
        <time>2024-09-19T10:55:50Z</time>
      </trkpt>
      <trkpt lat="50.672749020159245" lon="13.473435016348958">
        <ele>588.46000000000004</ele>
        <time>2024-09-19T10:55:51Z</time>
      </trkpt>
      <trkpt lat="50.672617005184293" lon="13.473433004692197">
        <ele>589.42999999999995</ele>
        <time>2024-09-19T10:55:52Z</time>
      </trkpt>
      <trkpt lat="50.672491025179625" lon="13.473366033285856">
        <ele>590.87</ele>
        <time>2024-09-19T10:55:53Z</time>
      </trkpt>
      <trkpt lat="50.672364039346576" lon="13.473297972232103">
        <ele>591.83000000000004</ele>
        <time>2024-09-19T10:55:54Z</time>
      </trkpt>
      <trkpt lat="50.672257002443075" lon="13.473152965307236">
        <ele>593.26999999999998</ele>
        <time>2024-09-19T10:55:55Z</time>
      </trkpt>
      <trkpt lat="50.672158012166619" lon="13.473014999181032">
        <ele>594.23000000000002</ele>
        <time>2024-09-19T10:55:56Z</time>
      </trkpt>
      <trkpt lat="50.672060027718544" lon="13.472877033054829">
        <ele>595.66999999999996</ele>
        <time>2024-09-19T10:55:57Z</time>
      </trkpt>
      <trkpt lat="50.671979980543256" lon="13.472702018916607">
        <ele>597.12</ele>
        <time>2024-09-19T10:55:58Z</time>
      </trkpt>
      <trkpt lat="50.671910997480154" lon="13.472529016435146">
        <ele>598.55999999999995</ele>
        <time>2024-09-19T10:55:59Z</time>
      </trkpt>
      <trkpt lat="50.671711005270481" lon="13.4720219951123">
        <ele>602.39999999999998</ele>
        <time>2024-09-19T10:56:02Z</time>
      </trkpt>
      <trkpt lat="50.671647973358631" lon="13.471891991794109">
        <ele>603.85000000000002</ele>
        <time>2024-09-19T10:56:03Z</time>
      </trkpt>
      <trkpt lat="50.671573961153626" lon="13.471813034266233">
        <ele>604.33000000000004</ele>
        <time>2024-09-19T10:56:04Z</time>
      </trkpt>
      <trkpt lat="50.671490980312228" lon="13.471813034266233">
        <ele>605.28999999999996</ele>
        <time>2024-09-19T10:56:05Z</time>
      </trkpt>
      <trkpt lat="50.671416968107224" lon="13.471873970702291">
        <ele>606.25</ele>
        <time>2024-09-19T10:56:06Z</time>
      </trkpt>
      <trkpt lat="50.671367011964321" lon="13.47200003452599">
        <ele>606.73000000000002</ele>
        <time>2024-09-19T10:56:07Z</time>
      </trkpt>
      <trkpt lat="50.671270033344626" lon="13.472389038652182">
        <ele>608.64999999999998</ele>
        <time>2024-09-19T10:56:09Z</time>
      </trkpt>
      <trkpt lat="50.670952023938298" lon="13.473620004951954">
        <ele>614.89999999999998</ele>
        <time>2024-09-19T10:56:14Z</time>
      </trkpt>
      <trkpt lat="50.670854039490223" lon="13.473829971626401">
        <ele>616.34000000000003</ele>
        <time>2024-09-19T10:56:15Z</time>
      </trkpt>
      <trkpt lat="50.670727975666523" lon="13.474002974107862">
        <ele>617.77999999999997</ele>
        <time>2024-09-19T10:56:16Z</time>
      </trkpt>
      <trkpt lat="50.669738994911313" lon="13.475205022841692">
        <ele>630.75999999999999</ele>
        <time>2024-09-19T10:56:23Z</time>
      </trkpt>
      <trkpt lat="50.668957969173789" lon="13.475960986688733">
        <ele>640.86000000000001</ele>
        <time>2024-09-19T10:56:30Z</time>
      </trkpt>
      <trkpt lat="50.668839029967785" lon="13.476024018600583">
        <ele>642.77999999999997</ele>
        <time>2024-09-19T10:56:31Z</time>
      </trkpt>
      <trkpt lat="50.667660031467676" lon="13.476626006886363">
        <ele>654.30999999999995</ele>
        <time>2024-09-19T10:56:39Z</time>
      </trkpt>
      <trkpt lat="50.667492980137467" lon="13.476652996614575">
        <ele>655.75999999999999</ele>
        <time>2024-09-19T10:56:40Z</time>
      </trkpt>
      <trkpt lat="50.667345961555839" lon="13.476675963029265">
        <ele>657.20000000000005</ele>
        <time>2024-09-19T10:56:41Z</time>
      </trkpt>
      <trkpt lat="50.667227022349834" lon="13.476661965250969">
        <ele>658.63999999999999</ele>
        <time>2024-09-19T10:56:42Z</time>
      </trkpt>
      <trkpt lat="50.667100958526134" lon="13.47661997191608">
        <ele>660.08000000000004</ele>
        <time>2024-09-19T10:56:43Z</time>
      </trkpt>
      <trkpt lat="50.666992999613285" lon="13.47649097442627">
        <ele>661.03999999999996</ele>
        <time>2024-09-19T10:56:44Z</time>
      </trkpt>
      <trkpt lat="50.666928961873055" lon="13.476320989429951">
        <ele>662.00999999999999</ele>
        <time>2024-09-19T10:56:45Z</time>
      </trkpt>
      <trkpt lat="50.666844975203276" lon="13.476101970300078">
        <ele>662.49000000000001</ele>
        <time>2024-09-19T10:56:46Z</time>
      </trkpt>
      <trkpt lat="50.666109966114163" lon="13.474152004346251">
        <ele>670.65999999999997</ele>
        <time>2024-09-19T10:56:53Z</time>
      </trkpt>
      <trkpt lat="50.665983986109495" lon="13.47391496412456">
        <ele>672.10000000000002</ele>
        <time>2024-09-19T10:56:54Z</time>
      </trkpt>
      <trkpt lat="50.665855994448066" lon="13.473723018541932">
        <ele>674.01999999999998</ele>
        <time>2024-09-19T10:56:55Z</time>
      </trkpt>
      <trkpt lat="50.665676034986973" lon="13.473593015223742">
        <ele>675.46000000000004</ele>
        <time>2024-09-19T10:56:56Z</time>
      </trkpt>
      <trkpt lat="50.665493980050087" lon="13.473459994420409">
        <ele>677.38999999999999</ele>
        <time>2024-09-19T10:56:57Z</time>
      </trkpt>
      <trkpt lat="50.665305973961949" lon="13.473323034122586">
        <ele>679.30999999999995</ele>
        <time>2024-09-19T10:56:58Z</time>
      </trkpt>
      <trkpt lat="50.665116040036082" lon="13.473171992227435">
        <ele>681.23000000000002</ele>
        <time>2024-09-19T10:56:59Z</time>
      </trkpt>
      <trkpt lat="50.664952006191015" lon="13.472985997796059">
        <ele>683.14999999999998</ele>
        <time>2024-09-19T10:57:00Z</time>
      </trkpt>
      <trkpt lat="50.664642965421081" lon="13.472691960632801">
        <ele>686.51999999999998</ele>
        <time>2024-09-19T10:57:02Z</time>
      </trkpt>
      <trkpt lat="50.6644899956882" lon="13.472565980628133">
        <ele>687.96000000000004</ele>
        <time>2024-09-19T10:57:03Z</time>
      </trkpt>
      <trkpt lat="50.664324034005404" lon="13.472543014213443">
        <ele>688.91999999999996</ele>
        <time>2024-09-19T10:57:04Z</time>
      </trkpt>
      <trkpt lat="50.664154971018434" lon="13.472556006163359">
        <ele>690.36000000000001</ele>
        <time>2024-09-19T10:57:05Z</time>
      </trkpt>
      <trkpt lat="50.663978029042482" lon="13.472642004489899">
        <ele>691.33000000000004</ele>
        <time>2024-09-19T10:57:06Z</time>
      </trkpt>
      <trkpt lat="50.663795974105597" lon="13.4727300144732">
        <ele>692.76999999999998</ele>
        <time>2024-09-19T10:57:07Z</time>
      </trkpt>
      <trkpt lat="50.66360897384584" lon="13.472820958122611">
        <ele>694.69000000000005</ele>
        <time>2024-09-19T10:57:08Z</time>
      </trkpt>
      <trkpt lat="50.66360897384584" lon="13.472820958122611">
        <ele>696.13</ele>
        <time>2024-09-19T10:57:09Z</time>
      </trkpt>
      <trkpt lat="50.662816967815161" lon="13.473205016925931">
        <ele>700.94000000000005</ele>
        <time>2024-09-19T10:57:12Z</time>
      </trkpt>
      <trkpt lat="50.662644971162081" lon="13.473357986658812">
        <ele>701.89999999999998</ele>
        <time>2024-09-19T10:57:13Z</time>
      </trkpt>
      <trkpt lat="50.66247096285224" lon="13.473542975261807">
        <ele>703.34000000000003</ele>
        <time>2024-09-19T10:57:14Z</time>
      </trkpt>
      <trkpt lat="50.66231899894774" lon="13.473775992169976">
        <ele>704.29999999999995</ele>
        <time>2024-09-19T10:57:15Z</time>
      </trkpt>
      <trkpt lat="50.662171980366111" lon="13.474031975492835">
        <ele>705.25999999999999</ele>
        <time>2024-09-19T10:57:16Z</time>
      </trkpt>
      <trkpt lat="50.660255961120129" lon="13.477186001837254">
        <ele>723.04999999999995</ele>
        <time>2024-09-19T10:57:28Z</time>
      </trkpt>
      <trkpt lat="50.659924037754536" lon="13.477612975984812">
        <ele>725.45000000000005</ele>
        <time>2024-09-19T10:57:30Z</time>
      </trkpt>
      <trkpt lat="50.659786993637681" lon="13.477773992344737">
        <ele>726.88999999999999</ele>
        <time>2024-09-19T10:57:31Z</time>
      </trkpt>
      <trkpt lat="50.659657996147871" lon="13.477877005934715">
        <ele>727.86000000000001</ele>
        <time>2024-09-19T10:57:32Z</time>
      </trkpt>
      <trkpt lat="50.65955095924437" lon="13.477960992604494">
        <ele>729.29999999999995</ele>
        <time>2024-09-19T10:57:33Z</time>
      </trkpt>
      <trkpt lat="50.659482982009649" lon="13.478014972060919">
        <ele>730.74000000000001</ele>
        <time>2024-09-19T10:57:34Z</time>
      </trkpt>
      <trkpt lat="50.659364964812994" lon="13.478047996759415">
        <ele>731.70000000000005</ele>
        <time>2024-09-19T10:57:35Z</time>
      </trkpt>
      <trkpt lat="50.659000016748905" lon="13.478135000914335">
        <ele>734.58000000000004</ele>
        <time>2024-09-19T10:57:39Z</time>
      </trkpt>
      <trkpt lat="50.65890496596694" lon="13.478110022842884">
        <ele>735.07000000000005</ele>
        <time>2024-09-19T10:57:40Z</time>
      </trkpt>
      <trkpt lat="50.658806981518865" lon="13.478083033114672">
        <ele>735.54999999999995</ele>
        <time>2024-09-19T10:57:41Z</time>
      </trkpt>
      <trkpt lat="50.658711008727551" lon="13.478057971224189">
        <ele>736.02999999999997</ele>
        <time>2024-09-19T10:57:42Z</time>
      </trkpt>
      <trkpt lat="50.658627022057772" lon="13.477966021746397">
        <ele>736.50999999999999</ele>
        <time>2024-09-19T10:57:43Z</time>
      </trkpt>
      <trkpt lat="50.658541023731232" lon="13.477871976792812">
        <ele>737.47000000000003</ele>
        <time>2024-09-19T10:57:44Z</time>
      </trkpt>
      <trkpt lat="50.658456031233072" lon="13.47777902148664">
        <ele>738.42999999999995</ele>
        <time>2024-09-19T10:57:45Z</time>
      </trkpt>
      <trkpt lat="50.657342998310924" lon="13.476263992488384">
        <ele>744.67999999999995</ele>
        <time>2024-09-19T10:57:59Z</time>
      </trkpt>
      <trkpt lat="50.656617041677237" lon="13.475340977311134">
        <ele>745.15999999999997</ele>
        <time>2024-09-19T10:58:08Z</time>
      </trkpt>
      <trkpt lat="50.656531965360045" lon="13.475308958441019">
        <ele>745.15999999999997</ele>
        <time>2024-09-19T10:58:09Z</time>
      </trkpt>
      <trkpt lat="50.656341025605798" lon="13.475251039490104">
        <ele>745.15999999999997</ele>
        <time>2024-09-19T10:58:11Z</time>
      </trkpt>
      <trkpt lat="50.656258966773748" lon="13.475257996469736">
        <ele>745.63999999999999</ele>
        <time>2024-09-19T10:58:12Z</time>
      </trkpt>
      <trkpt lat="50.656171962618828" lon="13.475273000076413">
        <ele>745.63999999999999</ele>
        <time>2024-09-19T10:58:13Z</time>
      </trkpt>
      <trkpt lat="50.656085964292288" lon="13.47528699785471">
        <ele>745.63999999999999</ele>
        <time>2024-09-19T10:58:14Z</time>
      </trkpt>
      <trkpt lat="50.656000971794128" lon="13.475369978696108">
        <ele>745.63999999999999</ele>
        <time>2024-09-19T10:58:15Z</time>
      </trkpt>
      <trkpt lat="50.655882032588124" lon="13.475506016984582">
        <ele>746.12</ele>
        <time>2024-09-19T10:58:16Z</time>
      </trkpt>
      <trkpt lat="50.655743982642889" lon="13.475664015859365">
        <ele>746.12</ele>
        <time>2024-09-19T10:58:17Z</time>
      </trkpt>
      <trkpt lat="50.655606016516685" lon="13.475821008905768">
        <ele>746.60000000000002</ele>
        <time>2024-09-19T10:58:18Z</time>
      </trkpt>
      <trkpt lat="50.654555009678006" lon="13.476988021284342">
        <ele>752.37</ele>
        <time>2024-09-19T10:58:26Z</time>
      </trkpt>
      <trkpt lat="50.653613973408937" lon="13.477960992604494">
        <ele>758.13999999999999</ele>
        <time>2024-09-19T10:58:33Z</time>
      </trkpt>
      <trkpt lat="50.653481958433986" lon="13.478084960952401">
        <ele>759.10000000000002</ele>
        <time>2024-09-19T10:58:34Z</time>
      </trkpt>
      <trkpt lat="50.651951003819704" lon="13.479431010782719">
        <ele>769.19000000000005</ele>
        <time>2024-09-19T10:58:45Z</time>
      </trkpt>
      <trkpt lat="50.651786969974637" lon="13.47949898801744">
        <ele>770.14999999999998</ele>
        <time>2024-09-19T10:58:46Z</time>
      </trkpt>
      <trkpt lat="50.651618996635079" lon="13.479551039636135">
        <ele>770.63</ele>
        <time>2024-09-19T10:58:47Z</time>
      </trkpt>
      <trkpt lat="50.651439959183335" lon="13.479582974687219">
        <ele>771.60000000000002</ele>
        <time>2024-09-19T10:58:48Z</time>
      </trkpt>
      <trkpt lat="50.649312967434525" lon="13.479913976043463">
        <ele>778.32000000000005</ele>
        <time>2024-09-19T10:58:59Z</time>
      </trkpt>
      <trkpt lat="50.647528041154146" lon="13.480228967964649">
        <ele>781.21000000000004</ele>
        <time>2024-09-19T10:59:07Z</time>
      </trkpt>
      <trkpt lat="50.647334000095725" lon="13.480347990989685">
        <ele>781.69000000000005</ele>
        <time>2024-09-19T10:59:08Z</time>
      </trkpt>
      <trkpt lat="50.64715102314949" lon="13.480504984036088">
        <ele>781.69000000000005</ele>
        <time>2024-09-19T10:59:09Z</time>
      </trkpt>
      <trkpt lat="50.646492959931493" lon="13.481071013957262">
        <ele>781.69000000000005</ele>
        <time>2024-09-19T10:59:13Z</time>
      </trkpt>
      <trkpt lat="50.646337978541851" lon="13.481204034760594">
        <ele>781.69000000000005</ele>
        <time>2024-09-19T10:59:14Z</time>
      </trkpt>
      <trkpt lat="50.64618500880897" lon="13.48134501837194">
        <ele>781.69000000000005</ele>
        <time>2024-09-19T10:59:15Z</time>
      </trkpt>
      <trkpt lat="50.644950019195676" lon="13.482771031558514">
        <ele>778.80999999999995</ele>
        <time>2024-09-19T10:59:23Z</time>
      </trkpt>
      <trkpt lat="50.643664989620447" lon="13.484076010063291">
        <ele>777.36000000000001</ele>
        <time>2024-09-19T10:59:30Z</time>
      </trkpt>
      <trkpt lat="50.64210201613605" lon="13.485677037388086">
        <ele>775.44000000000005</ele>
        <time>2024-09-19T10:59:38Z</time>
      </trkpt>
      <trkpt lat="50.640300996601582" lon="13.487517032772303">
        <ele>770.14999999999998</ele>
        <time>2024-09-19T10:59:47Z</time>
      </trkpt>
      <trkpt lat="50.639406982809305" lon="13.488434012979269">
        <ele>767.26999999999998</ele>
        <time>2024-09-19T10:59:53Z</time>
      </trkpt>
      <trkpt lat="50.638452032580972" lon="13.489647964015603">
        <ele>763.41999999999996</ele>
        <time>2024-09-19T11:00:02Z</time>
      </trkpt>
      <trkpt lat="50.638362010940909" lon="13.489762963727117">
        <ele>762.94000000000005</ele>
        <time>2024-09-19T11:00:03Z</time>
      </trkpt>
      <trkpt lat="50.638168975710869" lon="13.489891039207578">
        <ele>761.5</ele>
        <time>2024-09-19T11:00:05Z</time>
      </trkpt>
      <trkpt lat="50.638059005141258" lon="13.489934960380197">
        <ele>761.01999999999998</ele>
        <time>2024-09-19T11:00:06Z</time>
      </trkpt>
      <trkpt lat="50.636914037168026" lon="13.490227991715074">
        <ele>751.88999999999999</ele>
        <time>2024-09-19T11:00:16Z</time>
      </trkpt>
      <trkpt lat="50.635746018961072" lon="13.490345003083348">
        <ele>750.92999999999995</ele>
        <time>2024-09-19T11:00:26Z</time>
      </trkpt>
      <trkpt lat="50.635265987366438" lon="13.490316001698375">
        <ele>751.88999999999999</ele>
        <time>2024-09-19T11:00:30Z</time>
      </trkpt>
      <trkpt lat="50.635172026231885" lon="13.490309966728091">
        <ele>751.88999999999999</ele>
        <time>2024-09-19T11:00:31Z</time>
      </trkpt>
      <trkpt lat="50.635069012641907" lon="13.490426978096366">
        <ele>752.37</ele>
        <time>2024-09-19T11:00:32Z</time>
      </trkpt>
      <trkpt lat="50.63496801070869" lon="13.490541977807879">
        <ele>753.33000000000004</ele>
        <time>2024-09-19T11:00:33Z</time>
      </trkpt>
      <trkpt lat="50.634860973805189" lon="13.490665024146438">
        <ele>753.33000000000004</ele>
        <time>2024-09-19T11:00:34Z</time>
      </trkpt>
      <trkpt lat="50.633833017200232" lon="13.49185299128294">
        <ele>750.92999999999995</ele>
        <time>2024-09-19T11:00:44Z</time>
      </trkpt>
      <trkpt lat="50.632888041436672" lon="13.492515999823809">
        <ele>745.15999999999997</ele>
        <time>2024-09-19T11:00:53Z</time>
      </trkpt>
      <trkpt lat="50.632017999887466" lon="13.492958983406425">
        <ele>737.95000000000005</ele>
        <time>2024-09-19T11:01:01Z</time>
      </trkpt>
      <trkpt lat="50.631914986297488" lon="13.49301103502512">
        <ele>736.99000000000001</ele>
        <time>2024-09-19T11:01:02Z</time>
      </trkpt>
      <trkpt lat="50.631474014371634" lon="13.493304988369346">
        <ele>731.22000000000003</ele>
        <time>2024-09-19T11:01:07Z</time>
      </trkpt>
      <trkpt lat="50.631416011601686" lon="13.493357039988041">
        <ele>728.82000000000005</ele>
        <time>2024-09-19T11:01:09Z</time>
      </trkpt>
      <trkpt lat="50.631291037425399" lon="13.493645964190364">
        <ele>727.37</ele>
        <time>2024-09-19T11:01:10Z</time>
      </trkpt>
      <trkpt lat="50.631026001647115" lon="13.494568979367614">
        <ele>717.27999999999997</ele>
        <time>2024-09-19T11:01:19Z</time>
      </trkpt>
      <trkpt lat="50.631008986383677" lon="13.49466604180634">
        <ele>712.47000000000003</ele>
        <time>2024-09-19T11:01:27Z</time>
      </trkpt>
      <trkpt lat="50.631008986383677" lon="13.49466604180634">
        <ele>712.47000000000003</ele>
        <time>2024-09-19T11:01:58Z</time>
      </trkpt>
      <trkpt lat="50.631008986383677" lon="13.49466604180634">
        <ele>711.50999999999999</ele>
        <time>2024-09-19T11:02:16Z</time>
      </trkpt>
      <trkpt lat="50.631008986383677" lon="13.49466604180634">
        <ele>710.54999999999995</ele>
        <time>2024-09-19T11:02:17Z</time>
      </trkpt>
      <trkpt lat="50.630989037454128" lon="13.49483996629715">
        <ele>710.07000000000005</ele>
        <time>2024-09-19T11:02:18Z</time>
      </trkpt>
      <trkpt lat="50.630979984998703" lon="13.494922025129199">
        <ele>709.59000000000003</ele>
        <time>2024-09-19T11:02:19Z</time>
      </trkpt>
      <trkpt lat="50.630965987220407" lon="13.49505202844739">
        <ele>708.63</ele>
        <time>2024-09-19T11:02:20Z</time>
      </trkpt>
      <trkpt lat="50.630934974178672" lon="13.495385963469744">
        <ele>706.71000000000004</ele>
        <time>2024-09-19T11:02:23Z</time>
      </trkpt>
      <trkpt lat="50.630816034972668" lon="13.496704017743468">
        <ele>703.34000000000003</ele>
        <time>2024-09-19T11:02:32Z</time>
      </trkpt>
      <trkpt lat="50.630829026922584" lon="13.496806025505066">
        <ele>703.34000000000003</ele>
        <time>2024-09-19T11:02:33Z</time>
      </trkpt>
      <trkpt lat="50.630936985835433" lon="13.497712025418878">
        <ele>704.29999999999995</ele>
        <time>2024-09-19T11:02:39Z</time>
      </trkpt>
      <trkpt lat="50.630944026634097" lon="13.497842028737068">
        <ele>704.77999999999997</ele>
        <time>2024-09-19T11:02:40Z</time>
      </trkpt>
      <trkpt lat="50.630914019420743" lon="13.49793397821486">
        <ele>705.75</ele>
        <time>2024-09-19T11:02:41Z</time>
      </trkpt>
      <trkpt lat="50.630883006379008" lon="13.498023999854922">
        <ele>706.71000000000004</ele>
        <time>2024-09-19T11:02:42Z</time>
      </trkpt>
      <trkpt lat="50.630856016650796" lon="13.498104969039559">
        <ele>707.19000000000005</ele>
        <time>2024-09-19T11:02:43Z</time>
      </trkpt>
      <trkpt lat="50.630814023315907" lon="13.498178981244564">
        <ele>708.14999999999998</ele>
        <time>2024-09-19T11:02:44Z</time>
      </trkpt>
      <trkpt lat="50.630763983353972" lon="13.49821200594306">
        <ele>709.11000000000001</ele>
        <time>2024-09-19T11:02:45Z</time>
      </trkpt>
      <trkpt lat="50.63071696087718" lon="13.498243018984795">
        <ele>709.59000000000003</ele>
        <time>2024-09-19T11:02:46Z</time>
      </trkpt>
      <trkpt lat="50.630675973370671" lon="13.498270008713007">
        <ele>710.54999999999995</ele>
        <time>2024-09-19T11:02:47Z</time>
      </trkpt>
      <trkpt lat="50.630644960328937" lon="13.498290963470936">
        <ele>711.02999999999997</ele>
        <time>2024-09-19T11:02:48Z</time>
      </trkpt>
      <trkpt lat="50.630625011399388" lon="13.498304961249232">
        <ele>711.50999999999999</ele>
        <time>2024-09-19T11:02:49Z</time>
      </trkpt>
      <trkpt lat="50.630625011399388" lon="13.498304961249232">
        <ele>712.95000000000005</ele>
        <time>2024-09-19T11:03:03Z</time>
      </trkpt>
      <trkpt lat="50.630582012236118" lon="13.498333040624857">
        <ele>713.44000000000005</ele>
        <time>2024-09-19T11:03:22Z</time>
      </trkpt>
      <trkpt lat="50.630580000579357" lon="13.498334968462586">
        <ele>713.44000000000005</ele>
        <time>2024-09-19T11:03:23Z</time>
      </trkpt>
      <trkpt lat="50.630485033616424" lon="13.498347038403153">
        <ele>713.44000000000005</ele>
        <time>2024-09-19T11:03:24Z</time>
      </trkpt>
      <trkpt lat="50.630423007532954" lon="13.498356007039547">
        <ele>713.91999999999996</ele>
        <time>2024-09-19T11:03:25Z</time>
      </trkpt>
      <trkpt lat="50.630354024469852" lon="13.498364975675941">
        <ele>714.39999999999998</ele>
        <time>2024-09-19T11:03:26Z</time>
      </trkpt>
      <trkpt lat="50.630288980901241" lon="13.498374028131366">
        <ele>714.88</ele>
        <time>2024-09-19T11:03:27Z</time>
      </trkpt>
      <trkpt lat="50.630228966474533" lon="13.498361958190799">
        <ele>715.36000000000001</ele>
        <time>2024-09-19T11:03:28Z</time>
      </trkpt>
      <trkpt lat="50.630228966474533" lon="13.498361958190799">
        <ele>715.84000000000003</ele>
        <time>2024-09-19T11:03:29Z</time>
      </trkpt>
      <trkpt lat="50.630174987018108" lon="13.498332034796476">
        <ele>715.84000000000003</ele>
        <time>2024-09-19T11:03:30Z</time>
      </trkpt>
      <trkpt lat="50.630065016448498" lon="13.498271014541388">
        <ele>715.84000000000003</ele>
        <time>2024-09-19T11:03:31Z</time>
      </trkpt>
      <trkpt lat="50.629909029230475" lon="13.498131036758423">
        <ele>716.79999999999995</ele>
        <time>2024-09-19T11:03:34Z</time>
      </trkpt>
      <trkpt lat="50.6298559717834" lon="13.49808300845325">
        <ele>716.79999999999995</ele>
        <time>2024-09-19T11:03:35Z</time>
      </trkpt>
      <trkpt lat="50.629796963185072" lon="13.498077979311347">
        <ele>716.79999999999995</ele>
        <time>2024-09-19T11:03:36Z</time>
      </trkpt>
      <trkpt lat="50.629732003435493" lon="13.498077979311347">
        <ele>716.79999999999995</ele>
        <time>2024-09-19T11:03:37Z</time>
      </trkpt>
      <trkpt lat="50.629689004272223" lon="13.498091977089643">
        <ele>716.79999999999995</ele>
        <time>2024-09-19T11:03:38Z</time>
      </trkpt>
      <trkpt lat="50.629652040079236" lon="13.498140005394816">
        <ele>717.27999999999997</ele>
        <time>2024-09-19T11:03:39Z</time>
      </trkpt>
      <trkpt lat="50.629620021209121" lon="13.498180992901325">
        <ele>717.27999999999997</ele>
        <time>2024-09-19T11:03:40Z</time>
      </trkpt>
      <trkpt lat="50.629550032317638" lon="13.498271014541388">
        <ele>717.27999999999997</ele>
        <time>2024-09-19T11:03:41Z</time>
      </trkpt>
      <trkpt lat="50.629568975418806" lon="13.498309990391135">
        <ele>717.27999999999997</ele>
        <time>2024-09-19T11:03:42Z</time>
      </trkpt>
      <trkpt lat="50.629593031480908" lon="13.498357012867928">
        <ele>717.75999999999999</ele>
        <time>2024-09-19T11:03:43Z</time>
      </trkpt>
      <trkpt lat="50.629617003723979" lon="13.4984050411731">
        <ele>717.75999999999999</ele>
        <time>2024-09-19T11:03:44Z</time>
      </trkpt>
      <trkpt lat="50.629639970138669" lon="13.498450974002481">
        <ele>717.75999999999999</ele>
        <time>2024-09-19T11:03:45Z</time>
      </trkpt>
      <trkpt lat="50.629642987623811" lon="13.498515011742711">
        <ele>717.75999999999999</ele>
        <time>2024-09-19T11:03:49Z</time>
      </trkpt>
      <trkpt lat="50.629634018987417" lon="13.49853596650064">
        <ele>717.75999999999999</ele>
        <time>2024-09-19T11:03:50Z</time>
      </trkpt>
      <trkpt lat="50.629634018987417" lon="13.49853596650064">
        <ele>717.75999999999999</ele>
        <time>2024-09-19T11:04:03Z</time>
      </trkpt>
      <trkpt lat="50.629634018987417" lon="13.49853596650064">
        <ele>717.27999999999997</ele>
        <time>2024-09-19T11:04:34Z</time>
      </trkpt>
      <trkpt lat="50.629658997058868" lon="13.498565973713994">
        <ele>714.88</ele>
        <time>2024-09-19T11:07:46Z</time>
      </trkpt>
      <trkpt lat="50.629624966531992" lon="13.498663958162069">
        <ele>716.32000000000005</ele>
        <time>2024-09-19T11:08:20Z</time>
      </trkpt>
      <trkpt lat="50.629586996510625" lon="13.498625988140702">
        <ele>710.07000000000005</ele>
        <time>2024-09-19T11:08:56Z</time>
      </trkpt>
      <trkpt lat="50.629579033702612" lon="13.498655995354056">
        <ele>711.50999999999999</ele>
        <time>2024-09-19T11:08:59Z</time>
      </trkpt>
      <trkpt lat="50.62951298430562" lon="13.498675022274256">
        <ele>712.95000000000005</ele>
        <time>2024-09-19T11:09:00Z</time>
      </trkpt>
      <trkpt lat="50.629480965435505" lon="13.498633028939366">
        <ele>712.95000000000005</ele>
        <time>2024-09-19T11:09:01Z</time>
      </trkpt>
      <trkpt lat="50.629449030384421" lon="13.498592041432858">
        <ele>712.95000000000005</ele>
        <time>2024-09-19T11:09:02Z</time>
      </trkpt>
      <trkpt lat="50.629427991807461" lon="13.498564967885613">
        <ele>712.95000000000005</ele>
        <time>2024-09-19T11:09:03Z</time>
      </trkpt>
      <trkpt lat="50.629456993192434" lon="13.498429013416171">
        <ele>713.44000000000005</ele>
        <time>2024-09-19T11:09:04Z</time>
      </trkpt>
      <trkpt lat="50.629484988749027" lon="13.498380985110998">
        <ele>713.44000000000005</ele>
        <time>2024-09-19T11:09:05Z</time>
      </trkpt>
      <trkpt lat="50.629522036761045" lon="13.498318959027529">
        <ele>712.95000000000005</ele>
        <time>2024-09-19T11:09:06Z</time>
      </trkpt>
      <trkpt lat="50.629557995125651" lon="13.498260034248233">
        <ele>712.47000000000003</ele>
        <time>2024-09-19T11:09:07Z</time>
      </trkpt>
      <trkpt lat="50.629599988460541" lon="13.498205970972776">
        <ele>711.99000000000001</ele>
        <time>2024-09-19T11:09:08Z</time>
      </trkpt>
      <trkpt lat="50.629643993452191" lon="13.498149979859591">
        <ele>711.50999999999999</ele>
        <time>2024-09-19T11:09:09Z</time>
      </trkpt>
      <trkpt lat="50.629691015928984" lon="13.498088959604502">
        <ele>711.02999999999997</ele>
        <time>2024-09-19T11:09:10Z</time>
      </trkpt>
      <trkpt lat="50.629779025912285" lon="13.498077979311347">
        <ele>710.54999999999995</ele>
        <time>2024-09-19T11:09:11Z</time>
      </trkpt>
      <trkpt lat="50.629870975390077" lon="13.498096000403166">
        <ele>710.07000000000005</ele>
        <time>2024-09-19T11:09:12Z</time>
      </trkpt>
      <trkpt lat="50.629945993423462" lon="13.498163977637887">
        <ele>709.59000000000003</ele>
        <time>2024-09-19T11:09:13Z</time>
      </trkpt>
      <trkpt lat="50.630021011456847" lon="13.498231032863259">
        <ele>709.59000000000003</ele>
        <time>2024-09-19T11:09:14Z</time>
      </trkpt>
      <trkpt lat="50.630093012005091" lon="13.498286018148065">
        <ele>709.11000000000001</ele>
        <time>2024-09-19T11:09:15Z</time>
      </trkpt>
      <trkpt lat="50.63017699867487" lon="13.498333040624857">
        <ele>708.63</ele>
        <time>2024-09-19T11:09:16Z</time>
      </trkpt>
      <trkpt lat="50.630257967859507" lon="13.498377967625856">
        <ele>708.14999999999998</ele>
        <time>2024-09-19T11:09:17Z</time>
      </trkpt>
      <trkpt lat="50.630338015034795" lon="13.498366987332702">
        <ele>707.66999999999996</ele>
        <time>2024-09-19T11:09:18Z</time>
      </trkpt>
      <trkpt lat="50.630430970340967" lon="13.498355001211166">
        <ele>707.19000000000005</ele>
        <time>2024-09-19T11:09:19Z</time>
      </trkpt>
      <trkpt lat="50.630527026951313" lon="13.49834200926125">
        <ele>707.19000000000005</ele>
        <time>2024-09-19T11:09:20Z</time>
      </trkpt>
      <trkpt lat="50.630615958943963" lon="13.498310996219516">
        <ele>706.23000000000002</ele>
        <time>2024-09-19T11:09:21Z</time>
      </trkpt>
      <trkpt lat="50.630711009725928" lon="13.498246958479285">
        <ele>705.75</ele>
        <time>2024-09-19T11:09:22Z</time>
      </trkpt>
      <trkpt lat="50.630803965032101" lon="13.498185016214848">
        <ele>705.25999999999999</ele>
        <time>2024-09-19T11:09:23Z</time>
      </trkpt>
      <trkpt lat="50.630856016650796" lon="13.498104969039559">
        <ele>704.77999999999997</ele>
        <time>2024-09-19T11:09:24Z</time>
      </trkpt>
      <trkpt lat="50.630899015814066" lon="13.49797697737813">
        <ele>703.82000000000005</ele>
        <time>2024-09-19T11:09:25Z</time>
      </trkpt>
      <trkpt lat="50.630941009148955" lon="13.497852003201842">
        <ele>703.34000000000003</ele>
        <time>2024-09-19T11:09:26Z</time>
      </trkpt>
      <trkpt lat="50.630938997492194" lon="13.497749995440245">
        <ele>702.38</ele>
        <time>2024-09-19T11:09:27Z</time>
      </trkpt>
      <trkpt lat="50.630921982228756" lon="13.497470961883664">
        <ele>700.94000000000005</ele>
        <time>2024-09-19T11:09:29Z</time>
      </trkpt>
      <trkpt lat="50.630820980295539" lon="13.496742993593216">
        <ele>699.5</ele>
        <time>2024-09-19T11:09:34Z</time>
      </trkpt>
      <trkpt lat="50.6308229919523" lon="13.496593963354826">
        <ele>699.01999999999998</ele>
        <time>2024-09-19T11:09:35Z</time>
      </trkpt>
      <trkpt lat="50.630831960588694" lon="13.496457003057003">
        <ele>698.52999999999997</ele>
        <time>2024-09-19T11:09:36Z</time>
      </trkpt>
      <trkpt lat="50.630966993048787" lon="13.495041970163584">
        <ele>700.94000000000005</ele>
        <time>2024-09-19T11:09:47Z</time>
      </trkpt>
      <trkpt lat="50.631004963070154" lon="13.494698982685804">
        <ele>703.82000000000005</ele>
        <time>2024-09-19T11:09:53Z</time>
      </trkpt>
      <trkpt lat="50.630949977785349" lon="13.494633017107844">
        <ele>704.29999999999995</ele>
        <time>2024-09-19T11:09:55Z</time>
      </trkpt>
      <trkpt lat="50.630919970571995" lon="13.494616001844406">
        <ele>704.29999999999995</ele>
        <time>2024-09-19T11:09:56Z</time>
      </trkpt>
      <trkpt lat="50.630875965580344" lon="13.494591023772955">
        <ele>704.77999999999997</ele>
        <time>2024-09-19T11:09:57Z</time>
      </trkpt>
      <trkpt lat="50.630818968638778" lon="13.49455900490284">
        <ele>705.25999999999999</ele>
        <time>2024-09-19T11:09:58Z</time>
      </trkpt>
      <trkpt lat="50.630748979747295" lon="13.494520029053092">
        <ele>705.25999999999999</ele>
        <time>2024-09-19T11:09:59Z</time>
      </trkpt>
      <trkpt lat="50.629839040338993" lon="13.494099006056786">
        <ele>704.77999999999997</ele>
        <time>2024-09-19T11:10:07Z</time>
      </trkpt>
      <trkpt lat="50.629694033414125" lon="13.494080984964967">
        <ele>704.77999999999997</ele>
        <time>2024-09-19T11:10:08Z</time>
      </trkpt>
      <trkpt lat="50.628129970282316" lon="13.493889961391687">
        <ele>701.89999999999998</ele>
        <time>2024-09-19T11:10:18Z</time>
      </trkpt>
      <trkpt lat="50.626500025391579" lon="13.493645964190364">
        <ele>699.01999999999998</ele>
        <time>2024-09-19T11:10:29Z</time>
      </trkpt>
      <trkpt lat="50.62635401263833" lon="13.4935939963907">
        <ele>698.52999999999997</ele>
        <time>2024-09-19T11:10:30Z</time>
      </trkpt>
      <trkpt lat="50.626221997663379" lon="13.49348402582109">
        <ele>698.04999999999995</ele>
        <time>2024-09-19T11:10:31Z</time>
      </trkpt>
      <trkpt lat="50.625984035432339" lon="13.493171967566013">
        <ele>697.09000000000003</ele>
        <time>2024-09-19T11:10:32Z</time>
      </trkpt>
      <trkpt lat="50.625505009666085" lon="13.492295974865556">
        <ele>692.76999999999998</ele>
        <time>2024-09-19T11:10:37Z</time>
      </trkpt>
      <trkpt lat="50.623784037306905" lon="13.489994974806905">
        <ele>689.88</ele>
        <time>2024-09-19T11:10:47Z</time>
      </trkpt>
      <trkpt lat="50.622188961133361" lon="13.48785700276494">
        <ele>683.14999999999998</ele>
        <time>2024-09-19T11:10:56Z</time>
      </trkpt>
      <trkpt lat="50.622076978906989" lon="13.487652987241745">
        <ele>682.66999999999996</ele>
        <time>2024-09-19T11:10:57Z</time>
      </trkpt>
      <trkpt lat="50.621974971145391" lon="13.487466992810369">
        <ele>682.19000000000005</ele>
        <time>2024-09-19T11:10:58Z</time>
      </trkpt>
      <trkpt lat="50.62188696116209" lon="13.487275969237089">
        <ele>681.71000000000004</ele>
        <time>2024-09-19T11:10:59Z</time>
      </trkpt>
      <trkpt lat="50.621301988139749" lon="13.485490037128329">
        <ele>677.38999999999999</ele>
        <time>2024-09-19T11:11:08Z</time>
      </trkpt>
      <trkpt lat="50.620594974607229" lon="13.483940977603197">
        <ele>675.46000000000004</ele>
        <time>2024-09-19T11:11:17Z</time>
      </trkpt>
      <trkpt lat="50.620500007644296" lon="13.483790019527078">
        <ele>674.98000000000002</ele>
        <time>2024-09-19T11:11:18Z</time>
      </trkpt>
      <trkpt lat="50.61956500634551" lon="13.482561986893415">
        <ele>672.58000000000004</ele>
        <time>2024-09-19T11:11:27Z</time>
      </trkpt>
      <trkpt lat="50.619272980839014" lon="13.482286976650357">
        <ele>673.05999999999995</ele>
        <time>2024-09-19T11:11:30Z</time>
      </trkpt>
      <trkpt lat="50.618926975876093" lon="13.4821190033108">
        <ele>672.10000000000002</ele>
        <time>2024-09-19T11:11:33Z</time>
      </trkpt>
      <trkpt lat="50.618284000083804" lon="13.481713989749551">
        <ele>673.53999999999996</ele>
        <time>2024-09-19T11:11:38Z</time>
      </trkpt>
      <trkpt lat="50.617272974923253" lon="13.480749987065792">
        <ele>674.98000000000002</ele>
        <time>2024-09-19T11:11:45Z</time>
      </trkpt>
      <trkpt lat="50.616810964420438" lon="13.480226034298539">
        <ele>674.5</ele>
        <time>2024-09-19T11:11:48Z</time>
      </trkpt>
      <trkpt lat="50.616692025214434" lon="13.480008020997047">
        <ele>674.5</ele>
        <time>2024-09-19T11:11:49Z</time>
      </trkpt>
      <trkpt lat="50.615820977836847" lon="13.478066017851233">
        <ele>671.13999999999999</ele>
        <time>2024-09-19T11:11:58Z</time>
      </trkpt>
      <trkpt lat="50.615643030032516" lon="13.477697968482971">
        <ele>670.17999999999995</ele>
        <time>2024-09-19T11:12:00Z</time>
      </trkpt>
      <trkpt lat="50.615443959832191" lon="13.477361015975475">
        <ele>669.22000000000003</ele>
        <time>2024-09-19T11:12:02Z</time>
      </trkpt>
      <trkpt lat="50.615317979827523" lon="13.477231012657285">
        <ele>669.22000000000003</ele>
        <time>2024-09-19T11:12:03Z</time>
      </trkpt>
      <trkpt lat="50.614770976826549" lon="13.476698007434607">
        <ele>668.25</ele>
        <time>2024-09-19T11:12:07Z</time>
      </trkpt>
      <trkpt lat="50.614628987386823" lon="13.476627012714744">
        <ele>667.76999999999998</ele>
        <time>2024-09-19T11:12:08Z</time>
      </trkpt>
      <trkpt lat="50.614571990445256" lon="13.47659801132977">
        <ele>667.28999999999996</ele>
        <time>2024-09-19T11:12:09Z</time>
      </trkpt>
      <trkpt lat="50.614412985742092" lon="13.476627012714744">
        <ele>666.33000000000004</ele>
        <time>2024-09-19T11:12:10Z</time>
      </trkpt>
      <trkpt lat="50.614319024607539" lon="13.476654002442956">
        <ele>666.33000000000004</ele>
        <time>2024-09-19T11:12:11Z</time>
      </trkpt>
      <trkpt lat="50.614198995754123" lon="13.476741006597877">
        <ele>665.85000000000002</ele>
        <time>2024-09-19T11:12:12Z</time>
      </trkpt>
      <trkpt lat="50.614073015749454" lon="13.4768330398947">
        <ele>665.37</ele>
        <time>2024-09-19T11:12:13Z</time>
      </trkpt>
      <trkpt lat="50.613948963582516" lon="13.476922977715731">
        <ele>665.37</ele>
        <time>2024-09-19T11:12:14Z</time>
      </trkpt>
      <trkpt lat="50.613660961389542" lon="13.4769850037992">
        <ele>664.88999999999999</ele>
        <time>2024-09-19T11:12:16Z</time>
      </trkpt>
      <trkpt lat="50.613520983606577" lon="13.4769850037992">
        <ele>664.40999999999997</ele>
        <time>2024-09-19T11:12:17Z</time>
      </trkpt>
      <trkpt lat="50.613403972238302" lon="13.477029008790851">
        <ele>664.40999999999997</ele>
        <time>2024-09-19T11:12:18Z</time>
      </trkpt>
      <trkpt lat="50.613287966698408" lon="13.477074019610882">
        <ele>664.40999999999997</ele>
        <time>2024-09-19T11:12:19Z</time>
      </trkpt>
      <trkpt lat="50.613168021664023" lon="13.477076031267643">
        <ele>664.40999999999997</ele>
        <time>2024-09-19T11:12:20Z</time>
      </trkpt>
      <trkpt lat="50.613057967275381" lon="13.47705096937716">
        <ele>664.88999999999999</ele>
        <time>2024-09-19T11:12:21Z</time>
      </trkpt>
      <trkpt lat="50.612964006140828" lon="13.476939992979169">
        <ele>664.88999999999999</ele>
        <time>2024-09-19T11:12:22Z</time>
      </trkpt>
      <trkpt lat="50.612898040562868" lon="13.47685600630939">
        <ele>664.88999999999999</ele>
        <time>2024-09-19T11:12:23Z</time>
      </trkpt>
      <trkpt lat="50.612798966467381" lon="13.476674035191536">
        <ele>664.88999999999999</ele>
        <time>2024-09-19T11:12:24Z</time>
      </trkpt>
      <trkpt lat="50.61271003447473" lon="13.476510001346469">
        <ele>664.88999999999999</ele>
        <time>2024-09-19T11:12:25Z</time>
      </trkpt>
      <trkpt lat="50.612629987299442" lon="13.476345967501402">
        <ele>664.88999999999999</ele>
        <time>2024-09-19T11:12:26Z</time>
      </trkpt>
      <trkpt lat="50.612511970102787" lon="13.475929973646998">
        <ele>664.88999999999999</ele>
        <time>2024-09-19T11:12:28Z</time>
      </trkpt>
      <trkpt lat="50.61238800175488" lon="13.475491013377905">
        <ele>664.40999999999997</ele>
        <time>2024-09-19T11:12:30Z</time>
      </trkpt>
      <trkpt lat="50.612253975123167" lon="13.475050963461399">
        <ele>663.45000000000005</ele>
        <time>2024-09-19T11:12:32Z</time>
      </trkpt>
      <trkpt lat="50.612159008160233" lon="13.474861029535532">
        <ele>662.97000000000003</ele>
        <time>2024-09-19T11:12:33Z</time>
      </trkpt>
      <trkpt lat="50.611926997080445" lon="13.474489040672779">
        <ele>662.49000000000001</ele>
        <time>2024-09-19T11:12:35Z</time>
      </trkpt>
      <trkpt lat="50.611658021807671" lon="13.474155021831393">
        <ele>662.00999999999999</ele>
        <time>2024-09-19T11:12:37Z</time>
      </trkpt>
      <trkpt lat="50.61152801848948" lon="13.47397699020803">
        <ele>662.49000000000001</ele>
        <time>2024-09-19T11:12:38Z</time>
      </trkpt>
      <trkpt lat="50.611402960494161" lon="13.47380499355495">
        <ele>662.49000000000001</ele>
        <time>2024-09-19T11:12:39Z</time>
      </trkpt>
      <trkpt lat="50.611279997974634" lon="13.473635008558631">
        <ele>662.49000000000001</ele>
        <time>2024-09-19T11:12:40Z</time>
      </trkpt>
      <trkpt lat="50.610930975526571" lon="13.473077025264502">
        <ele>662.97000000000003</ele>
        <time>2024-09-19T11:12:43Z</time>
      </trkpt>
      <trkpt lat="50.610817987471819" lon="13.472888013347983">
        <ele>662.97000000000003</ele>
        <time>2024-09-19T11:12:44Z</time>
      </trkpt>
      <trkpt lat="50.610697036609054" lon="13.472685003653169">
        <ele>662.97000000000003</ele>
        <time>2024-09-19T11:12:45Z</time>
      </trkpt>
      <trkpt lat="50.610060011968017" lon="13.471842035651207">
        <ele>662.97000000000003</ele>
        <time>2024-09-19T11:12:49Z</time>
      </trkpt>
      <trkpt lat="50.609789025038481" lon="13.471402991563082">
        <ele>662.97000000000003</ele>
        <time>2024-09-19T11:12:51Z</time>
      </trkpt>
      <trkpt lat="50.609670002013445" lon="13.471175003796816">
        <ele>662.97000000000003</ele>
        <time>2024-09-19T11:12:52Z</time>
      </trkpt>
      <trkpt lat="50.609449977055192" lon="13.470756998285651">
        <ele>662.97000000000003</ele>
        <time>2024-09-19T11:12:53Z</time>
      </trkpt>
      <trkpt lat="50.609449977055192" lon="13.470756998285651">
        <ele>662.97000000000003</ele>
        <time>2024-09-19T11:12:54Z</time>
      </trkpt>
      <trkpt lat="50.609346041455865" lon="13.470559017732739">
        <ele>662.97000000000003</ele>
        <time>2024-09-19T11:12:55Z</time>
      </trkpt>
      <trkpt lat="50.60912299901247" lon="13.470204966142774">
        <ele>662.97000000000003</ele>
        <time>2024-09-19T11:12:57Z</time>
      </trkpt>
      <trkpt lat="50.609009005129337" lon="13.470041016116738">
        <ele>662.97000000000003</ele>
        <time>2024-09-19T11:12:58Z</time>
      </trkpt>
      <trkpt lat="50.608172994107008" lon="13.46884198486805">
        <ele>659.12</ele>
        <time>2024-09-19T11:13:06Z</time>
      </trkpt>
      <trkpt lat="50.607437985017896" lon="13.467764994129539">
        <ele>652.38999999999999</ele>
        <time>2024-09-19T11:13:14Z</time>
      </trkpt>
      <trkpt lat="50.606870027258992" lon="13.466928983107209">
        <ele>647.59000000000003</ele>
        <time>2024-09-19T11:13:21Z</time>
      </trkpt>
      <trkpt lat="50.606467025354505" lon="13.466335041448474">
        <ele>643.74000000000001</ele>
        <time>2024-09-19T11:13:26Z</time>
      </trkpt>
      <trkpt lat="50.606385972350836" lon="13.466217024251819">
        <ele>643.25999999999999</ele>
        <time>2024-09-19T11:13:27Z</time>
      </trkpt>
      <trkpt lat="50.60630701482296" lon="13.466104036197066">
        <ele>642.77999999999997</ele>
        <time>2024-09-19T11:13:28Z</time>
      </trkpt>
      <trkpt lat="50.606209030374885" lon="13.466058019548655">
        <ele>642.29999999999995</ele>
        <time>2024-09-19T11:13:29Z</time>
      </trkpt>
      <trkpt lat="50.606112973764539" lon="13.466012002900243">
        <ele>641.82000000000005</ele>
        <time>2024-09-19T11:13:30Z</time>
      </trkpt>
      <trkpt lat="50.605436973273754" lon="13.465691981837153">
        <ele>638.92999999999995</ele>
        <time>2024-09-19T11:13:39Z</time>
      </trkpt>
      <trkpt lat="50.604735994711518" lon="13.465357040986419">
        <ele>634.13</ele>
        <time>2024-09-19T11:13:50Z</time>
      </trkpt>
      <trkpt lat="50.60467598028481" lon="13.46531898714602">
        <ele>633.64999999999998</ele>
        <time>2024-09-19T11:13:51Z</time>
      </trkpt>
      <trkpt lat="50.604620995000005" lon="13.465284034609795">
        <ele>633.64999999999998</ele>
        <time>2024-09-19T11:13:52Z</time>
      </trkpt>
      <trkpt lat="50.604571960866451" lon="13.46525302156806">
        <ele>633.64999999999998</ele>
        <time>2024-09-19T11:13:53Z</time>
      </trkpt>
      <trkpt lat="50.604529967531562" lon="13.465226031839848">
        <ele>633.64999999999998</ele>
        <time>2024-09-19T11:13:54Z</time>
      </trkpt>
      <trkpt lat="50.604493003338575" lon="13.465202981606126">
        <ele>633.64999999999998</ele>
        <time>2024-09-19T11:13:55Z</time>
      </trkpt>
      <trkpt lat="50.60441798530519" lon="13.465155959129333">
        <ele>633.64999999999998</ele>
        <time>2024-09-19T11:13:56Z</time>
      </trkpt>
      <trkpt lat="50.60441798530519" lon="13.465155959129333">
        <ele>633.64999999999998</ele>
        <time>2024-09-19T11:13:57Z</time>
      </trkpt>
      <trkpt lat="50.604375991970301" lon="13.465128969401121">
        <ele>633.64999999999998</ele>
        <time>2024-09-19T11:13:58Z</time>
      </trkpt>
      <trkpt lat="50.603708038106561" lon="13.464714987203479">
        <ele>630.75999999999999</ele>
        <time>2024-09-19T11:14:09Z</time>
      </trkpt>
      <trkpt lat="50.603506034240127" lon="13.464595964178443">
        <ele>630.27999999999997</ele>
        <time>2024-09-19T11:14:12Z</time>
      </trkpt>
      <trkpt lat="50.603435961529613" lon="13.464554976671934">
        <ele>630.27999999999997</ele>
        <time>2024-09-19T11:14:13Z</time>
      </trkpt>
      <trkpt lat="50.603162040933967" lon="13.464332018047571">
        <ele>631.24000000000001</ele>
        <time>2024-09-19T11:14:17Z</time>
      </trkpt>
      <trkpt lat="50.60310403816402" lon="13.464253982529044">
        <ele>631.24000000000001</ele>
        <time>2024-09-19T11:14:18Z</time>
      </trkpt>
      <trkpt lat="50.603043017908931" lon="13.464174019172788">
        <ele>631.24000000000001</ele>
        <time>2024-09-19T11:14:19Z</time>
      </trkpt>
      <trkpt lat="50.603001024574041" lon="13.464077040553093">
        <ele>630.75999999999999</ele>
        <time>2024-09-19T11:14:20Z</time>
      </trkpt>
      <trkpt lat="50.602963976562023" lon="13.463971009477973">
        <ele>630.75999999999999</ele>
        <time>2024-09-19T11:14:21Z</time>
      </trkpt>
      <trkpt lat="50.602926006540656" lon="13.463862966746092">
        <ele>630.27999999999997</ele>
        <time>2024-09-19T11:14:22Z</time>
      </trkpt>
      <trkpt lat="50.602888958528638" lon="13.463757019490004">
        <ele>630.27999999999997</ele>
        <time>2024-09-19T11:14:23Z</time>
      </trkpt>
      <trkpt lat="50.602880995720625" lon="13.463635984808207">
        <ele>629.79999999999995</ele>
        <time>2024-09-19T11:14:24Z</time>
      </trkpt>
      <trkpt lat="50.602885019034147" lon="13.463516961783171">
        <ele>629.32000000000005</ele>
        <time>2024-09-19T11:14:25Z</time>
      </trkpt>
      <trkpt lat="50.602888958528638" lon="13.463397016748786">
        <ele>629.32000000000005</ele>
        <time>2024-09-19T11:14:26Z</time>
      </trkpt>
      <trkpt lat="50.60289298184216" lon="13.463280005380511">
        <ele>629.32000000000005</ele>
        <time>2024-09-19T11:14:27Z</time>
      </trkpt>
      <trkpt lat="50.602994989603758" lon="13.462226986885071">
        <ele>628.84000000000003</ele>
        <time>2024-09-19T11:14:35Z</time>
      </trkpt>
      <trkpt lat="50.603009993210435" lon="13.462086003273726">
        <ele>628.36000000000001</ele>
        <time>2024-09-19T11:14:36Z</time>
      </trkpt>
      <trkpt lat="50.603023990988731" lon="13.461953988298774">
        <ele>627.88</ele>
        <time>2024-09-19T11:14:37Z</time>
      </trkpt>
      <trkpt lat="50.603607036173344" lon="13.46129902638495">
        <ele>627.39999999999998</ele>
        <time>2024-09-19T11:14:44Z</time>
      </trkpt>
      <trkpt lat="50.604316983371973" lon="13.460301999002695">
        <ele>630.27999999999997</ele>
        <time>2024-09-19T11:14:52Z</time>
      </trkpt>
      <trkpt lat="50.604656031355262" lon="13.459628010168672">
        <ele>632.67999999999995</ele>
        <time>2024-09-19T11:14:56Z</time>
      </trkpt>
      <trkpt lat="50.604974962770939" lon="13.458092026412487">
        <ele>631.24000000000001</ele>
        <time>2024-09-19T11:15:04Z</time>
      </trkpt>
      <trkpt lat="50.605194987729192" lon="13.456685962155461">
        <ele>626.44000000000005</ele>
        <time>2024-09-19T11:15:14Z</time>
      </trkpt>
      <trkpt lat="50.605256007984281" lon="13.4562729857862">
        <ele>625.47000000000003</ele>
        <time>2024-09-19T11:15:17Z</time>
      </trkpt>
      <trkpt lat="50.605380982160568" lon="13.455578964203596">
        <ele>624.50999999999999</ele>
        <time>2024-09-19T11:15:22Z</time>
      </trkpt>
      <trkpt lat="50.605414006859064" lon="13.455447033047676">
        <ele>624.50999999999999</ele>
        <time>2024-09-19T11:15:23Z</time>
      </trkpt>
      <trkpt lat="50.605624979361892" lon="13.454600041732192">
        <ele>622.59000000000003</ele>
        <time>2024-09-19T11:15:29Z</time>
      </trkpt>
      <trkpt lat="50.605663033202291" lon="13.45444799400866">
        <ele>622.59000000000003</ele>
        <time>2024-09-19T11:15:30Z</time>
      </trkpt>
      <trkpt lat="50.605694968253374" lon="13.454284965991974">
        <ele>622.11000000000001</ele>
        <time>2024-09-19T11:15:31Z</time>
      </trkpt>
      <trkpt lat="50.605797981843352" lon="13.453404027968645">
        <ele>618.75</ele>
        <time>2024-09-19T11:15:36Z</time>
      </trkpt>
      <trkpt lat="50.605837041512132" lon="13.453230019658804">
        <ele>617.77999999999997</ele>
        <time>2024-09-19T11:15:37Z</time>
      </trkpt>
      <trkpt lat="50.605951035395265" lon="13.452715035527945">
        <ele>615.38</ele>
        <time>2024-09-19T11:15:40Z</time>
      </trkpt>
      <trkpt lat="50.605984982103109" lon="13.452560976147652">
        <ele>614.41999999999996</ele>
        <time>2024-09-19T11:15:41Z</time>
      </trkpt>
      <trkpt lat="50.605981964617968" lon="13.452394008636475">
        <ele>613.94000000000005</ele>
        <time>2024-09-19T11:15:42Z</time>
      </trkpt>
      <trkpt lat="50.605972995981574" lon="13.452227963134646">
        <ele>612.98000000000002</ele>
        <time>2024-09-19T11:15:43Z</time>
      </trkpt>
      <trkpt lat="50.606018006801605" lon="13.45191297121346">
        <ele>610.57000000000005</ele>
        <time>2024-09-19T11:15:45Z</time>
      </trkpt>
      <trkpt lat="50.606116997078061" lon="13.451608959585428">
        <ele>608.16999999999996</ele>
        <time>2024-09-19T11:15:47Z</time>
      </trkpt>
      <trkpt lat="50.606272984296083" lon="13.451322969049215">
        <ele>606.25</ele>
        <time>2024-09-19T11:15:49Z</time>
      </trkpt>
      <trkpt lat="50.606358982622623" lon="13.451183997094631">
        <ele>604.80999999999995</ele>
        <time>2024-09-19T11:15:50Z</time>
      </trkpt>
      <trkpt lat="50.60695300810039" lon="13.450534986332059">
        <ele>600.96000000000004</ele>
        <time>2024-09-19T11:15:55Z</time>
      </trkpt>
      <trkpt lat="50.607810979709029" lon="13.449395969510078">
        <ele>597.60000000000002</ele>
        <time>2024-09-19T11:16:02Z</time>
      </trkpt>
      <trkpt lat="50.608873972669244" lon="13.447952019050717">
        <ele>593.26999999999998</ele>
        <time>2024-09-19T11:16:10Z</time>
      </trkpt>
      <trkpt lat="50.609088968485594" lon="13.447499983012676">
        <ele>592.30999999999995</ele>
        <time>2024-09-19T11:16:12Z</time>
      </trkpt>
      <trkpt lat="50.609174966812134" lon="13.447250034660101">
        <ele>591.35000000000002</ele>
        <time>2024-09-19T11:16:13Z</time>
      </trkpt>
      <trkpt lat="50.609245961531997" lon="13.446983993053436">
        <ele>590.87</ele>
        <time>2024-09-19T11:16:14Z</time>
      </trkpt>
      <trkpt lat="50.609288960695267" lon="13.446707976981997">
        <ele>590.87</ele>
        <time>2024-09-19T11:16:15Z</time>
      </trkpt>
      <trkpt lat="50.609331037849188" lon="13.44643103890121">
        <ele>590.87</ele>
        <time>2024-09-19T11:16:16Z</time>
      </trkpt>
      <trkpt lat="50.609451988711953" lon="13.445643978193402">
        <ele>589.90999999999997</ele>
        <time>2024-09-19T11:16:19Z</time>
      </trkpt>
      <trkpt lat="50.609492976218462" lon="13.445406015962362">
        <ele>589.90999999999997</ele>
        <time>2024-09-19T11:16:20Z</time>
      </trkpt>
      <trkpt lat="50.609579980373383" lon="13.445193031802773">
        <ele>589.90999999999997</ele>
        <time>2024-09-19T11:16:21Z</time>
      </trkpt>
      <trkpt lat="50.609768992289901" lon="13.444764968007803">
        <ele>589.42999999999995</ele>
        <time>2024-09-19T11:16:23Z</time>
      </trkpt>
      <trkpt lat="50.609892038628459" lon="13.444561036303639">
        <ele>588.95000000000005</ele>
        <time>2024-09-19T11:16:24Z</time>
      </trkpt>
      <trkpt lat="50.611037006601691" lon="13.442616015672684">
        <ele>584.62</ele>
        <time>2024-09-19T11:16:34Z</time>
      </trkpt>
      <trkpt lat="50.611256025731564" lon="13.442020984366536">
        <ele>584.13999999999999</ele>
        <time>2024-09-19T11:16:38Z</time>
      </trkpt>
      <trkpt lat="50.611290978267789" lon="13.441902967169881">
        <ele>584.13999999999999</ele>
        <time>2024-09-19T11:16:39Z</time>
      </trkpt>
      <trkpt lat="50.611403966322541" lon="13.441431988030672">
        <ele>584.13999999999999</ele>
        <time>2024-09-19T11:16:44Z</time>
      </trkpt>
      <trkpt lat="50.611425004899502" lon="13.44134003855288">
        <ele>584.13999999999999</ele>
        <time>2024-09-19T11:16:45Z</time>
      </trkpt>
      <trkpt lat="50.611439002677798" lon="13.441028986126184">
        <ele>583.65999999999997</ele>
        <time>2024-09-19T11:16:48Z</time>
      </trkpt>
      <trkpt lat="50.611439002677798" lon="13.440909963101149">
        <ele>583.65999999999997</ele>
        <time>2024-09-19T11:16:49Z</time>
      </trkpt>
      <trkpt lat="50.611384017392993" lon="13.440540991723537">
        <ele>582.70000000000005</ele>
        <time>2024-09-19T11:16:52Z</time>
      </trkpt>
      <trkpt lat="50.611345963552594" lon="13.440405037254095">
        <ele>582.22000000000003</ele>
        <time>2024-09-19T11:16:53Z</time>
      </trkpt>
      <trkpt lat="50.611096015200019" lon="13.439717972651124">
        <ele>580.28999999999996</ele>
        <time>2024-09-19T11:16:58Z</time>
      </trkpt>
      <trkpt lat="50.611046981066465" lon="13.439583024010062">
        <ele>579.80999999999995</ele>
        <time>2024-09-19T11:16:59Z</time>
      </trkpt>
      <trkpt lat="50.611037006601691" lon="13.439462995156646">
        <ele>579.33000000000004</ele>
        <time>2024-09-19T11:17:00Z</time>
      </trkpt>
      <trkpt lat="50.611045975238085" lon="13.43932100571692">
        <ele>579.33000000000004</ele>
        <time>2024-09-19T11:17:01Z</time>
      </trkpt>
      <trkpt lat="50.61105502769351" lon="13.439175998792052">
        <ele>579.33000000000004</ele>
        <time>2024-09-19T11:17:02Z</time>
      </trkpt>
      <trkpt lat="50.611073970794678" lon="13.438887996599078">
        <ele>579.33000000000004</ele>
        <time>2024-09-19T11:17:04Z</time>
      </trkpt>
      <trkpt lat="50.611070031300187" lon="13.438750030472875">
        <ele>579.33000000000004</ele>
        <time>2024-09-19T11:17:05Z</time>
      </trkpt>
      <trkpt lat="50.611065002158284" lon="13.438605023548007">
        <ele>579.33000000000004</ele>
        <time>2024-09-19T11:17:06Z</time>
      </trkpt>
      <trkpt lat="50.611058967188001" lon="13.438454987481236">
        <ele>579.33000000000004</ele>
        <time>2024-09-19T11:17:07Z</time>
      </trkpt>
      <trkpt lat="50.611053016036749" lon="13.438295982778072">
        <ele>579.33000000000004</ele>
        <time>2024-09-19T11:17:08Z</time>
      </trkpt>
      <trkpt lat="50.61101496219635" lon="13.438158016651869">
        <ele>578.85000000000002</ele>
        <time>2024-09-19T11:17:09Z</time>
      </trkpt>
      <trkpt lat="50.61097196303308" lon="13.438004041090608">
        <ele>578.85000000000002</ele>
        <time>2024-09-19T11:17:10Z</time>
      </trkpt>
      <trkpt lat="50.610720003023744" lon="13.437066022306681">
        <ele>576.45000000000005</ele>
        <time>2024-09-19T11:17:16Z</time>
      </trkpt>
      <trkpt lat="50.610686978325248" lon="13.436928978189826">
        <ele>575.97000000000003</ele>
        <time>2024-09-19T11:17:17Z</time>
      </trkpt>
      <trkpt lat="50.610677003860474" lon="13.436779025942087">
        <ele>575.97000000000003</ele>
        <time>2024-09-19T11:17:18Z</time>
      </trkpt>
      <trkpt lat="50.61062696389854" lon="13.436195980757475">
        <ele>576.45000000000005</ele>
        <time>2024-09-19T11:17:22Z</time>
      </trkpt>
      <trkpt lat="50.610613971948624" lon="13.436053991317749">
        <ele>575.97000000000003</ele>
        <time>2024-09-19T11:17:23Z</time>
      </trkpt>
      <trkpt lat="50.610600979998708" lon="13.435908984392881">
        <ele>575.97000000000003</ele>
        <time>2024-09-19T11:17:24Z</time>
      </trkpt>
      <trkpt lat="50.610574996098876" lon="13.435617964714766">
        <ele>575.49000000000001</ele>
        <time>2024-09-19T11:17:26Z</time>
      </trkpt>
      <trkpt lat="50.610564015805721" lon="13.435490978881717">
        <ele>575.49000000000001</ele>
        <time>2024-09-19T11:17:27Z</time>
      </trkpt>
      <trkpt lat="50.610568961128592" lon="13.435364998877048">
        <ele>575.49000000000001</ele>
        <time>2024-09-19T11:17:28Z</time>
      </trkpt>
      <trkpt lat="50.610582958906889" lon="13.435242958366871">
        <ele>575.49000000000001</ele>
        <time>2024-09-19T11:17:29Z</time>
      </trkpt>
      <trkpt lat="50.610597040504217" lon="13.435121001675725">
        <ele>575.49000000000001</ele>
        <time>2024-09-19T11:17:30Z</time>
      </trkpt>
      <trkpt lat="50.610637022182345" lon="13.434999966993928">
        <ele>575.49000000000001</ele>
        <time>2024-09-19T11:17:31Z</time>
      </trkpt>
      <trkpt lat="50.610683038830757" lon="13.434893013909459">
        <ele>575.00999999999999</ele>
        <time>2024-09-19T11:17:32Z</time>
      </trkpt>
      <trkpt lat="50.610731989145279" lon="13.434782037511468">
        <ele>574.52999999999997</ele>
        <time>2024-09-19T11:17:33Z</time>
      </trkpt>
      <trkpt lat="50.610780017450452" lon="13.434671983122826">
        <ele>574.52999999999997</ele>
        <time>2024-09-19T11:17:34Z</time>
      </trkpt>
      <trkpt lat="50.610828967764974" lon="13.434558995068073">
        <ele>574.52999999999997</ele>
        <time>2024-09-19T11:17:35Z</time>
      </trkpt>
      <trkpt lat="50.610879007726908" lon="13.434447012841702">
        <ele>574.03999999999996</ele>
        <time>2024-09-19T11:17:36Z</time>
      </trkpt>
      <trkpt lat="50.610913038253784" lon="13.434325978159904">
        <ele>574.03999999999996</ele>
        <time>2024-09-19T11:17:37Z</time>
      </trkpt>
      <trkpt lat="50.610932987183332" lon="13.434191029518843">
        <ele>573.55999999999995</ele>
        <time>2024-09-19T11:17:38Z</time>
      </trkpt>
      <trkpt lat="50.610955031588674" lon="13.434045016765594">
        <ele>573.55999999999995</ele>
        <time>2024-09-19T11:17:39Z</time>
      </trkpt>
      <trkpt lat="50.610962994396687" lon="13.433895986527205">
        <ele>573.08000000000004</ele>
        <time>2024-09-19T11:17:40Z</time>
      </trkpt>
      <trkpt lat="50.610914966091514" lon="13.43195297755301">
        <ele>571.15999999999997</ele>
        <time>2024-09-19T11:17:50Z</time>
      </trkpt>
      <trkpt lat="50.610869033262134" lon="13.430739026516676">
        <ele>569.24000000000001</ele>
        <time>2024-09-19T11:17:56Z</time>
      </trkpt>
      <trkpt lat="50.611211014911532" lon="13.428973965346813">
        <ele>565.87</ele>
        <time>2024-09-19T11:18:05Z</time>
      </trkpt>
      <trkpt lat="50.611360967159271" lon="13.428623015061021">
        <ele>564.90999999999997</ele>
        <time>2024-09-19T11:18:07Z</time>
      </trkpt>
      <trkpt lat="50.611733039841056" lon="13.427997976541519">
        <ele>563.47000000000003</ele>
        <time>2024-09-19T11:18:11Z</time>
      </trkpt>
      <trkpt lat="50.612313989549875" lon="13.426671037450433">
        <ele>561.07000000000005</ele>
        <time>2024-09-19T11:18:18Z</time>
      </trkpt>
      <trkpt lat="50.612409962341189" lon="13.426504991948605">
        <ele>560.59000000000003</ele>
        <time>2024-09-19T11:18:19Z</time>
      </trkpt>
      <trkpt lat="50.612491015344858" lon="13.42636601999402">
        <ele>560.11000000000001</ele>
        <time>2024-09-19T11:18:20Z</time>
      </trkpt>
      <trkpt lat="50.612622024491429" lon="13.42632201500237">
        <ele>559.62</ele>
        <time>2024-09-19T11:18:21Z</time>
      </trkpt>
      <trkpt lat="50.61275202780962" lon="13.426281027495861">
        <ele>559.62</ele>
        <time>2024-09-19T11:18:22Z</time>
      </trkpt>
      <trkpt lat="50.612890999764204" lon="13.426295025274158">
        <ele>559.13999999999999</ele>
        <time>2024-09-19T11:18:23Z</time>
      </trkpt>
      <trkpt lat="50.613348986953497" lon="13.42634498141706">
        <ele>557.70000000000005</ele>
        <time>2024-09-19T11:18:26Z</time>
      </trkpt>
      <trkpt lat="50.613521989434958" lon="13.4264309797436">
        <ele>557.22000000000003</ele>
        <time>2024-09-19T11:18:27Z</time>
      </trkpt>
      <trkpt lat="50.61466402374208" lon="13.427142016589642">
        <ele>554.34000000000003</ele>
        <time>2024-09-19T11:18:34Z</time>
      </trkpt>
      <trkpt lat="50.614808024838567" lon="13.427237989380956">
        <ele>553.86000000000001</ele>
        <time>2024-09-19T11:18:35Z</time>
      </trkpt>
      <trkpt lat="50.614946996793151" lon="13.427277971059084">
        <ele>553.38</ele>
        <time>2024-09-19T11:18:36Z</time>
      </trkpt>
      <trkpt lat="50.615086974576116" lon="13.427292974665761">
        <ele>552.89999999999998</ele>
        <time>2024-09-19T11:18:37Z</time>
      </trkpt>
      <trkpt lat="50.615237010642886" lon="13.427309989929199">
        <ele>552.40999999999997</ele>
        <time>2024-09-19T11:18:38Z</time>
      </trkpt>
      <trkpt lat="50.615348992869258" lon="13.427243018522859">
        <ele>551.92999999999995</ele>
        <time>2024-09-19T11:18:39Z</time>
      </trkpt>
      <trkpt lat="50.615456029772758" lon="13.427177974954247">
        <ele>551.45000000000005</ele>
        <time>2024-09-19T11:18:40Z</time>
      </trkpt>
      <trkpt lat="50.615532975643873" lon="13.427108991891146">
        <ele>550.97000000000003</ele>
        <time>2024-09-19T11:18:41Z</time>
      </trkpt>
      <trkpt lat="50.615700026974082" lon="13.426931966096163">
        <ele>547.61000000000001</ele>
        <time>2024-09-19T11:18:47Z</time>
      </trkpt>
      <trkpt lat="50.615700026974082" lon="13.426931966096163">
        <ele>547.61000000000001</ele>
        <time>2024-09-19T11:19:26Z</time>
      </trkpt>
      <trkpt lat="50.615731040015817" lon="13.426887961104512">
        <ele>544.72000000000003</ele>
        <time>2024-09-19T11:19:32Z</time>
      </trkpt>
      <trkpt lat="50.615717964246869" lon="13.426906988024712">
        <ele>544.72000000000003</ele>
        <time>2024-09-19T11:19:33Z</time>
      </trkpt>
      <trkpt lat="50.615566000342369" lon="13.427079990506172">
        <ele>545.69000000000005</ele>
        <time>2024-09-19T11:19:37Z</time>
      </trkpt>
      <trkpt lat="50.615452006459236" lon="13.427180992439389">
        <ele>546.16999999999996</ele>
        <time>2024-09-19T11:19:39Z</time>
      </trkpt>
      <trkpt lat="50.615358967334032" lon="13.427236983552575">
        <ele>546.16999999999996</ele>
        <time>2024-09-19T11:19:40Z</time>
      </trkpt>
      <trkpt lat="50.615273974835873" lon="13.42728802934289">
        <ele>546.16999999999996</ele>
        <time>2024-09-19T11:19:41Z</time>
      </trkpt>
      <trkpt lat="50.615179007872939" lon="13.427304038777947">
        <ele>546.16999999999996</ele>
        <time>2024-09-19T11:19:42Z</time>
      </trkpt>
      <trkpt lat="50.615086974576116" lon="13.427293980494142">
        <ele>546.64999999999998</ele>
        <time>2024-09-19T11:19:43Z</time>
      </trkpt>
      <trkpt lat="50.61498899012804" lon="13.427283000200987">
        <ele>546.64999999999998</ele>
        <time>2024-09-19T11:19:44Z</time>
      </trkpt>
      <trkpt lat="50.614851024001837" lon="13.427266990765929">
        <ele>547.13</ele>
        <time>2024-09-19T11:19:45Z</time>
      </trkpt>
      <trkpt lat="50.614776005968451" lon="13.427217034623027">
        <ele>547.61000000000001</ele>
        <time>2024-09-19T11:19:46Z</time>
      </trkpt>
      <trkpt lat="50.613801022991538" lon="13.426571041345596">
        <ele>552.40999999999997</ele>
        <time>2024-09-19T11:19:54Z</time>
      </trkpt>
      <trkpt lat="50.613540010526776" lon="13.426440032199025">
        <ele>553.86000000000001</ele>
        <time>2024-09-19T11:19:56Z</time>
      </trkpt>
      <trkpt lat="50.613404978066683" lon="13.426372976973653">
        <ele>554.34000000000003</ele>
        <time>2024-09-19T11:19:57Z</time>
      </trkpt>
      <trkpt lat="50.612748004496098" lon="13.42628002166748">
        <ele>558.17999999999995</ele>
        <time>2024-09-19T11:20:02Z</time>
      </trkpt>
      <trkpt lat="50.612627975642681" lon="13.426320003345609">
        <ele>558.65999999999997</ele>
        <time>2024-09-19T11:20:03Z</time>
      </trkpt>
      <trkpt lat="50.612511970102787" lon="13.426358979195356">
        <ele>559.13999999999999</ele>
        <time>2024-09-19T11:20:04Z</time>
      </trkpt>
      <trkpt lat="50.612437035888433" lon="13.426457969471812">
        <ele>559.13999999999999</ele>
        <time>2024-09-19T11:20:05Z</time>
      </trkpt>
      <trkpt lat="50.612351959571242" lon="13.426604988053441">
        <ele>559.62</ele>
        <time>2024-09-19T11:20:06Z</time>
      </trkpt>
      <trkpt lat="50.612254980951548" lon="13.426773967221379">
        <ele>560.11000000000001</ele>
        <time>2024-09-19T11:20:07Z</time>
      </trkpt>
      <trkpt lat="50.611820966005325" lon="13.427811982110143">
        <ele>562.02999999999997</ele>
        <time>2024-09-19T11:20:13Z</time>
      </trkpt>
      <trkpt lat="50.611329032108188" lon="13.428697027266026">
        <ele>565.38999999999999</ele>
        <time>2024-09-19T11:20:19Z</time>
      </trkpt>
      <trkpt lat="50.611263988539577" lon="13.428849996998906">
        <ele>565.87</ele>
        <time>2024-09-19T11:20:20Z</time>
      </trkpt>
      <trkpt lat="50.611201040446758" lon="13.428997015580535">
        <ele>566.35000000000002</ele>
        <time>2024-09-19T11:20:21Z</time>
      </trkpt>
      <trkpt lat="50.610932987183332" lon="13.430140977725387">
        <ele>569.24000000000001</ele>
        <time>2024-09-19T11:20:28Z</time>
      </trkpt>
      <trkpt lat="50.610898034647107" lon="13.43031800352037">
        <ele>569.24000000000001</ele>
        <time>2024-09-19T11:20:29Z</time>
      </trkpt>
      <trkpt lat="50.610859980806708" lon="13.430507015436888">
        <ele>569.72000000000003</ele>
        <time>2024-09-19T11:20:30Z</time>
      </trkpt>
      <trkpt lat="50.610866015776992" lon="13.430672977119684">
        <ele>570.20000000000005</ele>
        <time>2024-09-19T11:20:31Z</time>
      </trkpt>
      <trkpt lat="50.610872972756624" lon="13.430864000692964">
        <ele>570.20000000000005</ele>
        <time>2024-09-19T11:20:32Z</time>
      </trkpt>
      <trkpt lat="50.610881019383669" lon="13.431058963760734">
        <ele>570.20000000000005</ele>
        <time>2024-09-19T11:20:33Z</time>
      </trkpt>
      <trkpt lat="50.610942039638758" lon="13.433344960212708">
        <ele>569.24000000000001</ele>
        <time>2024-09-19T11:20:45Z</time>
      </trkpt>
      <trkpt lat="50.610967017710209" lon="13.433962035924196">
        <ele>568.27999999999997</ele>
        <time>2024-09-19T11:20:49Z</time>
      </trkpt>
      <trkpt lat="50.610942961648107" lon="13.434126991778612">
        <ele>567.79999999999995</ele>
        <time>2024-09-19T11:20:50Z</time>
      </trkpt>
      <trkpt lat="50.610922006890178" lon="13.434261018410325">
        <ele>567.32000000000005</ele>
        <time>2024-09-19T11:20:51Z</time>
      </trkpt>
      <trkpt lat="50.610902979969978" lon="13.434388004243374">
        <ele>567.32000000000005</ele>
        <time>2024-09-19T11:20:52Z</time>
      </trkpt>
      <trkpt lat="50.610864004120231" lon="13.434480959549546">
        <ele>566.83000000000004</ele>
        <time>2024-09-19T11:20:53Z</time>
      </trkpt>
      <trkpt lat="50.610821004956961" lon="13.434579027816653">
        <ele>566.83000000000004</ele>
        <time>2024-09-19T11:20:54Z</time>
      </trkpt>
      <trkpt lat="50.610779011622071" lon="13.434675000607967">
        <ele>566.83000000000004</ele>
        <time>2024-09-19T11:20:55Z</time>
      </trkpt>
      <trkpt lat="50.610738024115562" lon="13.43476896174252">
        <ele>566.83000000000004</ele>
        <time>2024-09-19T11:20:56Z</time>
      </trkpt>
      <trkpt lat="50.610698964446783" lon="13.434855965897441">
        <ele>566.35000000000002</ele>
        <time>2024-09-19T11:20:57Z</time>
      </trkpt>
      <trkpt lat="50.610672980546951" lon="13.43491698615253">
        <ele>566.35000000000002</ele>
        <time>2024-09-19T11:20:58Z</time>
      </trkpt>
      <trkpt lat="50.610653031617403" lon="13.434963002800941">
        <ele>566.35000000000002</ele>
        <time>2024-09-19T11:20:59Z</time>
      </trkpt>
      <trkpt lat="50.610601985827088" lon="13.435078002512455">
        <ele>566.35000000000002</ele>
        <time>2024-09-19T11:21:00Z</time>
      </trkpt>
      <trkpt lat="50.610601985827088" lon="13.435078002512455">
        <ele>566.35000000000002</ele>
        <time>2024-09-19T11:21:01Z</time>
      </trkpt>
      <trkpt lat="50.610601985827088" lon="13.435078002512455">
        <ele>566.35000000000002</ele>
        <time>2024-09-19T11:21:02Z</time>
      </trkpt>
      <trkpt lat="50.610698964446783" lon="13.435051012784243">
        <ele>566.35000000000002</ele>
        <time>2024-09-19T11:21:03Z</time>
      </trkpt>
      <trkpt lat="50.610741963610053" lon="13.435039026662707">
        <ele>566.35000000000002</ele>
        <time>2024-09-19T11:21:04Z</time>
      </trkpt>
      <trkpt lat="50.610790997743607" lon="13.435025028884411">
        <ele>565.87</ele>
        <time>2024-09-19T11:21:05Z</time>
      </trkpt>
      <trkpt lat="50.61084195971489" lon="13.435011031106114">
        <ele>565.87</ele>
        <time>2024-09-19T11:21:06Z</time>
      </trkpt>
      <trkpt lat="50.610952014103532" lon="13.43498001806438">
        <ele>566.35000000000002</ele>
        <time>2024-09-19T11:21:08Z</time>
      </trkpt>
      <trkpt lat="50.611016973853111" lon="13.434961996972561">
        <ele>566.35000000000002</ele>
        <time>2024-09-19T11:21:09Z</time>
      </trkpt>
      <trkpt lat="50.611086962744594" lon="13.434941964223981">
        <ele>566.83000000000004</ele>
        <time>2024-09-19T11:21:10Z</time>
      </trkpt>
      <trkpt lat="50.611346969380975" lon="13.434954034164548">
        <ele>568.27999999999997</ele>
        <time>2024-09-19T11:21:13Z</time>
      </trkpt>
      <trkpt lat="50.61144202016294" lon="13.434965014457703">
        <ele>568.75999999999999</ele>
        <time>2024-09-19T11:21:14Z</time>
      </trkpt>
      <trkpt lat="50.612113997340202" lon="13.435049001127481">
        <ele>573.08000000000004</ele>
        <time>2024-09-19T11:21:21Z</time>
      </trkpt>
      <trkpt lat="50.612207036465406" lon="13.435055036097765">
        <ele>573.55999999999995</ele>
        <time>2024-09-19T11:21:22Z</time>
      </trkpt>
      <trkpt lat="50.612395964562893" lon="13.43504698947072">
        <ele>575.49000000000001</ele>
        <time>2024-09-19T11:21:24Z</time>
      </trkpt>
      <trkpt lat="50.61286099255085" lon="13.434992004185915">
        <ele>587.01999999999998</ele>
        <time>2024-09-19T11:21:30Z</time>
      </trkpt>
      <trkpt lat="50.612928969785571" lon="13.434975994750857">
        <ele>588.95000000000005</ele>
        <time>2024-09-19T11:21:31Z</time>
      </trkpt>
      <trkpt lat="50.612998036667705" lon="13.4349599853158">
        <ele>590.38999999999999</ele>
        <time>2024-09-19T11:21:32Z</time>
      </trkpt>
      <trkpt lat="50.613065008074045" lon="13.434943975880742">
        <ele>592.78999999999996</ele>
        <time>2024-09-19T11:21:33Z</time>
      </trkpt>
      <trkpt lat="50.613124016672373" lon="13.434928972274065">
        <ele>594.71000000000004</ele>
        <time>2024-09-19T11:21:34Z</time>
      </trkpt>
      <trkpt lat="50.613177996128798" lon="13.434915980324149">
        <ele>596.14999999999998</ele>
        <time>2024-09-19T11:21:35Z</time>
      </trkpt>
      <trkpt lat="50.613219989463687" lon="13.434906005859375">
        <ele>597.60000000000002</ele>
        <time>2024-09-19T11:21:36Z</time>
      </trkpt>
      <trkpt lat="50.613218983635306" lon="13.434927966445684">
        <ele>599.51999999999998</ele>
        <time>2024-09-19T11:21:37Z</time>
      </trkpt>
      <trkpt lat="50.613214038312435" lon="13.434998039156199">
        <ele>600.96000000000004</ele>
        <time>2024-09-19T11:21:38Z</time>
      </trkpt>
      <trkpt lat="50.61320599168539" lon="13.435099041089416">
        <ele>602.88</ele>
        <time>2024-09-19T11:21:39Z</time>
      </trkpt>
      <trkpt lat="50.613187970593572" lon="13.43534697778523">
        <ele>603.85000000000002</ele>
        <time>2024-09-19T11:21:40Z</time>
      </trkpt>
      <trkpt lat="50.613176990300417" lon="13.435486033558846">
        <ele>605.28999999999996</ele>
        <time>2024-09-19T11:21:42Z</time>
      </trkpt>
      <trkpt lat="50.612823022529483" lon="13.436666959896684">
        <ele>612.01999999999998</ele>
        <time>2024-09-19T11:21:52Z</time>
      </trkpt>
      <trkpt lat="50.612735012546182" lon="13.437643032521009">
        <ele>613.46000000000004</ele>
        <time>2024-09-19T11:22:01Z</time>
      </trkpt>
      <trkpt lat="50.612729983404279" lon="13.437698017805815">
        <ele>613.94000000000005</ele>
        <time>2024-09-19T11:22:02Z</time>
      </trkpt>
      <trkpt lat="50.612771976739168" lon="13.437764989212155">
        <ele>613.94000000000005</ele>
        <time>2024-09-19T11:22:03Z</time>
      </trkpt>
      <trkpt lat="50.61281799338758" lon="13.437791978940368">
        <ele>613.94000000000005</ele>
        <time>2024-09-19T11:22:04Z</time>
      </trkpt>
      <trkpt lat="50.612878007814288" lon="13.437828021124005">
        <ele>614.41999999999996</ele>
        <time>2024-09-19T11:22:05Z</time>
      </trkpt>
      <trkpt lat="50.61294699087739" lon="13.437868002802134">
        <ele>614.41999999999996</ele>
        <time>2024-09-19T11:22:06Z</time>
      </trkpt>
      <trkpt lat="50.613194005563855" lon="13.438014015555382">
        <ele>615.86000000000001</ele>
        <time>2024-09-19T11:22:09Z</time>
      </trkpt>
      <trkpt lat="50.613282015547156" lon="13.438064977526665">
        <ele>616.82000000000005</ele>
        <time>2024-09-19T11:22:10Z</time>
      </trkpt>
      <trkpt lat="50.613798005506396" lon="13.438367983326316">
        <ele>623.54999999999995</ele>
        <time>2024-09-19T11:22:18Z</time>
      </trkpt>
      <trkpt lat="50.614044014364481" lon="13.438512990251184">
        <ele>627.39999999999998</ele>
        <time>2024-09-19T11:22:22Z</time>
      </trkpt>
      <trkpt lat="50.614134036004543" lon="13.438565963879228">
        <ele>627.88</ele>
        <time>2024-09-19T11:22:23Z</time>
      </trkpt>
      <trkpt lat="50.614218022674322" lon="13.438603011891246">
        <ele>628.84000000000003</ele>
        <time>2024-09-19T11:22:24Z</time>
      </trkpt>
      <trkpt lat="50.614389013499022" lon="13.438563030213118">
        <ele>630.27999999999997</ele>
        <time>2024-09-19T11:22:26Z</time>
      </trkpt>
      <trkpt lat="50.614459002390504" lon="13.438521958887577">
        <ele>631.24000000000001</ele>
        <time>2024-09-19T11:22:27Z</time>
      </trkpt>
      <trkpt lat="50.614525973796844" lon="13.438482983037829">
        <ele>631.72000000000003</ele>
        <time>2024-09-19T11:22:28Z</time>
      </trkpt>
      <trkpt lat="50.614598980173469" lon="13.438444007188082">
        <ele>632.67999999999995</ele>
        <time>2024-09-19T11:22:29Z</time>
      </trkpt>
      <trkpt lat="50.614679027348757" lon="13.438404025509953">
        <ele>633.16999999999996</ele>
        <time>2024-09-19T11:22:30Z</time>
      </trkpt>
      <trkpt lat="50.614763014018536" lon="13.438362032175064">
        <ele>634.13</ele>
        <time>2024-09-19T11:22:31Z</time>
      </trkpt>
      <trkpt lat="50.614849012345076" lon="13.438319033011794">
        <ele>635.09000000000003</ele>
        <time>2024-09-19T11:22:32Z</time>
      </trkpt>
      <trkpt lat="50.614934004843235" lon="13.438277039676905">
        <ele>635.57000000000005</ele>
        <time>2024-09-19T11:22:33Z</time>
      </trkpt>
      <trkpt lat="50.615004999563098" lon="13.438250971958041">
        <ele>636.52999999999997</ele>
        <time>2024-09-19T11:22:34Z</time>
      </trkpt>
      <trkpt lat="50.615084040910006" lon="13.438243009150028">
        <ele>637.49000000000001</ele>
        <time>2024-09-19T11:22:35Z</time>
      </trkpt>
      <trkpt lat="50.615241033956409" lon="13.43822599388659">
        <ele>639.40999999999997</ele>
        <time>2024-09-19T11:22:37Z</time>
      </trkpt>
      <trkpt lat="50.615384029224515" lon="13.438210990279913">
        <ele>640.86000000000001</ele>
        <time>2024-09-19T11:22:39Z</time>
      </trkpt>
      <trkpt lat="50.615435997024179" lon="13.438123986124992">
        <ele>641.82000000000005</ele>
        <time>2024-09-19T11:22:40Z</time>
      </trkpt>
      <trkpt lat="50.615502968430519" lon="13.437989959493279">
        <ele>642.77999999999997</ele>
        <time>2024-09-19T11:22:41Z</time>
      </trkpt>
      <trkpt lat="50.615656021982431" lon="13.437401968985796">
        <ele>649.99000000000001</ele>
        <time>2024-09-19T11:22:51Z</time>
      </trkpt>
      <trkpt lat="50.615663984790444" lon="13.437348995357752">
        <ele>650.95000000000005</ele>
        <time>2024-09-19T11:22:52Z</time>
      </trkpt>
      <trkpt lat="50.615667002275586" lon="13.437330974265933">
        <ele>651.42999999999995</ele>
        <time>2024-09-19T11:22:53Z</time>
      </trkpt>
      <trkpt lat="50.615667002275586" lon="13.437330974265933">
        <ele>652.38999999999999</ele>
        <time>2024-09-19T11:22:55Z</time>
      </trkpt>
      <trkpt lat="50.615755012258887" lon="13.436004035174847">
        <ele>654.79999999999995</ele>
        <time>2024-09-19T11:23:04Z</time>
      </trkpt>
      <trkpt lat="50.615737996995449" lon="13.435212029144168">
        <ele>651.42999999999995</ele>
        <time>2024-09-19T11:23:11Z</time>
      </trkpt>
      <trkpt lat="50.615710001438856" lon="13.434865018352866">
        <ele>649.99000000000001</ele>
        <time>2024-09-19T11:23:14Z</time>
      </trkpt>
      <trkpt lat="50.615688962861896" lon="13.434184994548559">
        <ele>646.13999999999999</ele>
        <time>2024-09-19T11:23:20Z</time>
      </trkpt>
      <trkpt lat="50.615959027782083" lon="13.433038014918566">
        <ele>638.45000000000005</ele>
        <time>2024-09-19T11:23:32Z</time>
      </trkpt>
      <trkpt lat="50.616391031071544" lon="13.432349022477865">
        <ele>634.13</ele>
        <time>2024-09-19T11:23:40Z</time>
      </trkpt>
      <trkpt lat="50.616467976942658" lon="13.432256989181042">
        <ele>633.64999999999998</ele>
        <time>2024-09-19T11:23:41Z</time>
      </trkpt>
      <trkpt lat="50.616818005219102" lon="13.431776035577059">
        <ele>631.24000000000001</ele>
        <time>2024-09-19T11:23:46Z</time>
      </trkpt>
      <trkpt lat="50.617529964074492" lon="13.43064296990633">
        <ele>627.88</ele>
        <time>2024-09-19T11:23:57Z</time>
      </trkpt>
      <trkpt lat="50.617590984329581" lon="13.430552026256919">
        <ele>627.88</ele>
        <time>2024-09-19T11:23:58Z</time>
      </trkpt>
      <trkpt lat="50.617772033438087" lon="13.43031900934875">
        <ele>627.88</ele>
        <time>2024-09-19T11:24:01Z</time>
      </trkpt>
      <trkpt lat="50.618227003142238" lon="13.430141983553767">
        <ele>627.88</ele>
        <time>2024-09-19T11:24:06Z</time>
      </trkpt>
      <trkpt lat="50.619202991947532" lon="13.430121028795838">
        <ele>624.50999999999999</ele>
        <time>2024-09-19T11:24:15Z</time>
      </trkpt>
      <trkpt lat="50.619430979713798" lon="13.430157992988825">
        <ele>622.59000000000003</ele>
        <time>2024-09-19T11:24:17Z</time>
      </trkpt>
      <trkpt lat="50.620078984647989" lon="13.430302999913692">
        <ele>615.86000000000001</ele>
        <time>2024-09-19T11:24:23Z</time>
      </trkpt>
      <trkpt lat="50.620360029861331" lon="13.430350022390485">
        <ele>612.01999999999998</ele>
        <time>2024-09-19T11:24:26Z</time>
      </trkpt>
      <trkpt lat="50.620689019560814" lon="13.430831981822848">
        <ele>604.33000000000004</ele>
        <time>2024-09-19T11:24:32Z</time>
      </trkpt>
      <trkpt lat="50.620793038979173" lon="13.431368004530668">
        <ele>600.48000000000002</ele>
        <time>2024-09-19T11:24:36Z</time>
      </trkpt>
      <trkpt lat="50.62083100900054" lon="13.431681990623474">
        <ele>599.03999999999996</ele>
        <time>2024-09-19T11:24:38Z</time>
      </trkpt>
      <trkpt lat="50.620922958478332" lon="13.432088010013103">
        <ele>595.19000000000005</ele>
        <time>2024-09-19T11:24:41Z</time>
      </trkpt>
      <trkpt lat="50.621212972328067" lon="13.432781025767326">
        <ele>587.5</ele>
        <time>2024-09-19T11:24:47Z</time>
      </trkpt>
      <trkpt lat="50.621510026976466" lon="13.433267008513212">
        <ele>581.73000000000002</ele>
        <time>2024-09-19T11:24:52Z</time>
      </trkpt>
      <trkpt lat="50.621598036959767" lon="13.433432970196009">
        <ele>578.85000000000002</ele>
        <time>2024-09-19T11:24:54Z</time>
      </trkpt>
      <trkpt lat="50.621779002249241" lon="13.433818034827709">
        <ele>571.63999999999999</ele>
        <time>2024-09-19T11:24:59Z</time>
      </trkpt>
      <trkpt lat="50.621995003893971" lon="13.434098996222019">
        <ele>564.42999999999995</ele>
        <time>2024-09-19T11:25:06Z</time>
      </trkpt>
      <trkpt lat="50.621987963095307" lon="13.433931022882462">
        <ele>563.95000000000005</ele>
        <time>2024-09-19T11:25:08Z</time>
      </trkpt>
      <trkpt lat="50.621935995295644" lon="13.433373961597681">
        <ele>563.47000000000003</ele>
        <time>2024-09-19T11:25:12Z</time>
      </trkpt>
      <trkpt lat="50.621856031939387" lon="13.432732997462153">
        <ele>561.07000000000005</ele>
        <time>2024-09-19T11:25:16Z</time>
      </trkpt>
      <trkpt lat="50.621899031102657" lon="13.432223964482546">
        <ele>560.11000000000001</ele>
        <time>2024-09-19T11:25:19Z</time>
      </trkpt>
      <trkpt lat="50.622033979743719" lon="13.431671010330319">
        <ele>559.62</ele>
        <time>2024-09-19T11:25:22Z</time>
      </trkpt>
      <trkpt lat="50.622125007212162" lon="13.431278988718987">
        <ele>559.13999999999999</ele>
        <time>2024-09-19T11:25:24Z</time>
      </trkpt>
      <trkpt lat="50.622081002220511" lon="13.429706040769815">
        <ele>557.22000000000003</ele>
        <time>2024-09-19T11:25:32Z</time>
      </trkpt>
      <trkpt lat="50.621958961710334" lon="13.428699038922787">
        <ele>554.82000000000005</ele>
        <time>2024-09-19T11:25:37Z</time>
      </trkpt>
      <trkpt lat="50.621602982282639" lon="13.427549041807652">
        <ele>548.09000000000003</ele>
        <time>2024-09-19T11:25:43Z</time>
      </trkpt>
      <trkpt lat="50.620880965143442" lon="13.42666600830853">
        <ele>541.36000000000001</ele>
        <time>2024-09-19T11:25:51Z</time>
      </trkpt>
      <trkpt lat="50.620880965143442" lon="13.42666600830853">
        <ele>540.88</ele>
        <time>2024-09-19T11:25:52Z</time>
      </trkpt>
      <trkpt lat="50.620880965143442" lon="13.42666600830853">
        <ele>540.39999999999998</ele>
        <time>2024-09-19T11:25:53Z</time>
      </trkpt>
      <trkpt lat="50.62085104174912" lon="13.426663996651769">
        <ele>540.39999999999998</ele>
        <time>2024-09-19T11:25:54Z</time>
      </trkpt>
      <trkpt lat="50.620778035372496" lon="13.426657039672136">
        <ele>539.91999999999996</ele>
        <time>2024-09-19T11:25:55Z</time>
      </trkpt>
      <trkpt lat="50.620696982368827" lon="13.426649998873472">
        <ele>540.39999999999998</ele>
        <time>2024-09-19T11:25:56Z</time>
      </trkpt>
      <trkpt lat="50.620526997372508" lon="13.426633989438415">
        <ele>540.88</ele>
        <time>2024-09-19T11:25:58Z</time>
      </trkpt>
      <trkpt lat="50.620442004874349" lon="13.426627032458782">
        <ele>541.36000000000001</ele>
        <time>2024-09-19T11:25:59Z</time>
      </trkpt>
      <trkpt lat="50.620351983234286" lon="13.426617980003357">
        <ele>541.84000000000003</ele>
        <time>2024-09-19T11:26:00Z</time>
      </trkpt>
      <trkpt lat="50.620169006288052" lon="13.426599958911538">
        <ele>543.75999999999999</ele>
        <time>2024-09-19T11:26:02Z</time>
      </trkpt>
      <trkpt lat="50.620078984647989" lon="13.426540028303862">
        <ele>544.72000000000003</ele>
        <time>2024-09-19T11:26:03Z</time>
      </trkpt>
      <trkpt lat="50.619992986321449" lon="13.426483031362295">
        <ele>545.69000000000005</ele>
        <time>2024-09-19T11:26:04Z</time>
      </trkpt>
      <trkpt lat="50.619906987994909" lon="13.426425028592348">
        <ele>546.16999999999996</ele>
        <time>2024-09-19T11:26:05Z</time>
      </trkpt>
      <trkpt lat="50.619829036295414" lon="13.426356967538595">
        <ele>547.13</ele>
        <time>2024-09-19T11:26:06Z</time>
      </trkpt>
      <trkpt lat="50.619514966383576" lon="13.426032001152635">
        <ele>550.49000000000001</ele>
        <time>2024-09-19T11:26:11Z</time>
      </trkpt>
      <trkpt lat="50.619442965835333" lon="13.425980033352971">
        <ele>550.49000000000001</ele>
        <time>2024-09-19T11:26:12Z</time>
      </trkpt>
      <trkpt lat="50.61919704079628" lon="13.425799990072846">
        <ele>551.45000000000005</ele>
        <time>2024-09-19T11:26:15Z</time>
      </trkpt>
      <trkpt lat="50.619107019156218" lon="13.425735030323267">
        <ele>551.45000000000005</ele>
        <time>2024-09-19T11:26:16Z</time>
      </trkpt>
      <trkpt lat="50.618497990071774" lon="13.425291040912271">
        <ele>551.92999999999995</ele>
        <time>2024-09-19T11:26:23Z</time>
      </trkpt>
      <trkpt lat="50.618348037824035" lon="13.425181992352009">
        <ele>550.49000000000001</ele>
        <time>2024-09-19T11:26:25Z</time>
      </trkpt>
      <trkpt lat="50.618272013962269" lon="13.425127007067204">
        <ele>550.00999999999999</ele>
        <time>2024-09-19T11:26:26Z</time>
      </trkpt>
      <trkpt lat="50.617830958217382" lon="13.424834981560707">
        <ele>546.16999999999996</ele>
        <time>2024-09-19T11:26:31Z</time>
      </trkpt>
      <trkpt lat="50.617403984069824" lon="13.424640018492937">
        <ele>542.79999999999995</ele>
        <time>2024-09-19T11:26:36Z</time>
      </trkpt>
      <trkpt lat="50.617270041257143" lon="13.424578998237848">
        <ele>542.32000000000005</ele>
        <time>2024-09-19T11:26:37Z</time>
      </trkpt>
      <trkpt lat="50.61722201295197" lon="13.424557037651539">
        <ele>541.84000000000003</ele>
        <time>2024-09-19T11:26:38Z</time>
      </trkpt>
      <trkpt lat="50.617196029052138" lon="13.424460981041193">
        <ele>540.39999999999998</ele>
        <time>2024-09-19T11:26:40Z</time>
      </trkpt>
      <trkpt lat="50.61720198020339" lon="13.424171973019838">
        <ele>539.44000000000005</ele>
        <time>2024-09-19T11:26:43Z</time>
      </trkpt>
      <trkpt lat="50.617167027667165" lon="13.424036018550396">
        <ele>538.96000000000004</ele>
        <time>2024-09-19T11:26:44Z</time>
      </trkpt>
      <trkpt lat="50.617124028503895" lon="13.423929987475276">
        <ele>538.48000000000002</ele>
        <time>2024-09-19T11:26:45Z</time>
      </trkpt>
      <trkpt lat="50.617077006027102" lon="13.423814987763762">
        <ele>538.48000000000002</ele>
        <time>2024-09-19T11:26:46Z</time>
      </trkpt>
      <trkpt lat="50.617026966065168" lon="13.423694036900997">
        <ele>537.99000000000001</ele>
        <time>2024-09-19T11:26:47Z</time>
      </trkpt>
      <trkpt lat="50.616970974951982" lon="13.423557998612523">
        <ele>537.99000000000001</ele>
        <time>2024-09-19T11:26:48Z</time>
      </trkpt>
      <trkpt lat="50.616910038515925" lon="13.423409974202514">
        <ele>537.50999999999999</ele>
        <time>2024-09-19T11:26:49Z</time>
      </trkpt>
      <trkpt lat="50.616847006604075" lon="13.423254992812872">
        <ele>537.02999999999997</ele>
        <time>2024-09-19T11:26:50Z</time>
      </trkpt>
      <trkpt lat="50.616570990532637" lon="13.42161800712347">
        <ele>532.71000000000004</ele>
        <time>2024-09-19T11:26:57Z</time>
      </trkpt>
      <trkpt lat="50.616263961419463" lon="13.42095298692584">
        <ele>530.78999999999996</ele>
        <time>2024-09-19T11:27:00Z</time>
      </trkpt>
      <trkpt lat="50.616197995841503" lon="13.420727010816336">
        <ele>529.82000000000005</ele>
        <time>2024-09-19T11:27:01Z</time>
      </trkpt>
      <trkpt lat="50.615988029167056" lon="13.419235032051802">
        <ele>527.89999999999998</ele>
        <time>2024-09-19T11:27:06Z</time>
      </trkpt>
      <trkpt lat="50.615988029167056" lon="13.418905036523938">
        <ele>527.41999999999996</ele>
        <time>2024-09-19T11:27:07Z</time>
      </trkpt>
      <trkpt lat="50.616006972268224" lon="13.418592978268862">
        <ele>526.94000000000005</ele>
        <time>2024-09-19T11:27:08Z</time>
      </trkpt>
      <trkpt lat="50.616037985309958" lon="13.418257031589746">
        <ele>526.94000000000005</ele>
        <time>2024-09-19T11:27:09Z</time>
      </trkpt>
      <trkpt lat="50.616070004180074" lon="13.417917983606458">
        <ele>526.46000000000004</ele>
        <time>2024-09-19T11:27:10Z</time>
      </trkpt>
      <trkpt lat="50.616138987243176" lon="13.417281964793801">
        <ele>525.01999999999998</ele>
        <time>2024-09-19T11:27:12Z</time>
      </trkpt>
      <trkpt lat="50.616180980578065" lon="13.417009972035885">
        <ele>524.53999999999996</ele>
        <time>2024-09-19T11:27:13Z</time>
      </trkpt>
      <trkpt lat="50.61627603136003" lon="13.416753988713026">
        <ele>524.05999999999995</ele>
        <time>2024-09-19T11:27:14Z</time>
      </trkpt>
      <trkpt lat="50.616567973047495" lon="13.415958965197206">
        <ele>523.58000000000004</ele>
        <time>2024-09-19T11:27:17Z</time>
      </trkpt>
      <trkpt lat="50.616692025214434" lon="13.415743969380856">
        <ele>523.09000000000003</ele>
        <time>2024-09-19T11:27:18Z</time>
      </trkpt>
      <trkpt lat="50.617118999361992" lon="13.415268966928124">
        <ele>522.13</ele>
        <time>2024-09-19T11:27:21Z</time>
      </trkpt>
      <trkpt lat="50.61739400960505" lon="13.415121026337147">
        <ele>520.69000000000005</ele>
        <time>2024-09-19T11:27:23Z</time>
      </trkpt>
      <trkpt lat="50.617618979886174" lon="13.415036033838987">
        <ele>519.73000000000002</ele>
        <time>2024-09-19T11:27:24Z</time>
      </trkpt>
      <trkpt lat="50.617686035111547" lon="13.414962021633983">
        <ele>519.25</ele>
        <time>2024-09-19T11:27:25Z</time>
      </trkpt>
      <trkpt lat="50.618061041459441" lon="13.413368035107851">
        <ele>517.33000000000004</ele>
        <time>2024-09-19T11:27:31Z</time>
      </trkpt>
      <trkpt lat="50.61810202896595" lon="13.413101993501186">
        <ele>517.33000000000004</ele>
        <time>2024-09-19T11:27:32Z</time>
      </trkpt>
      <trkpt lat="50.618245024234056" lon="13.412703014910221">
        <ele>516.85000000000002</ele>
        <time>2024-09-19T11:27:34Z</time>
      </trkpt>
      <trkpt lat="50.618336973711848" lon="13.412548033520579">
        <ele>516.37</ele>
        <time>2024-09-19T11:27:35Z</time>
      </trkpt>
      <trkpt lat="50.618541995063424" lon="13.412353992462158">
        <ele>516.37</ele>
        <time>2024-09-19T11:27:36Z</time>
      </trkpt>
      <trkpt lat="50.618667975068092" lon="13.412385005503893">
        <ele>515.88</ele>
        <time>2024-09-19T11:27:38Z</time>
      </trkpt>
      <trkpt lat="50.619047004729509" lon="13.412606958299875">
        <ele>514.44000000000005</ele>
        <time>2024-09-19T11:27:40Z</time>
      </trkpt>
      <trkpt lat="50.619424022734165" lon="13.41293603181839">
        <ele>513.48000000000002</ele>
        <time>2024-09-19T11:27:42Z</time>
      </trkpt>
      <trkpt lat="50.619582021608949" lon="13.413148010149598">
        <ele>513.48000000000002</ele>
        <time>2024-09-19T11:27:43Z</time>
      </trkpt>
      <trkpt lat="50.619740020483732" lon="13.413357976824045">
        <ele>513.48000000000002</ele>
        <time>2024-09-19T11:27:44Z</time>
      </trkpt>
      <trkpt lat="50.619895001873374" lon="13.413565009832382">
        <ele>513.48000000000002</ele>
        <time>2024-09-19T11:27:45Z</time>
      </trkpt>
      <trkpt lat="50.620051994919777" lon="13.413749998435378">
        <ele>513</ele>
        <time>2024-09-19T11:27:46Z</time>
      </trkpt>
      <trkpt lat="50.620218040421605" lon="13.413897017017007">
        <ele>513</ele>
        <time>2024-09-19T11:27:47Z</time>
      </trkpt>
      <trkpt lat="50.620386013761163" lon="13.414045041427016">
        <ele>513</ele>
        <time>2024-09-19T11:27:48Z</time>
      </trkpt>
      <trkpt lat="50.620559016242623" lon="13.414198011159897">
        <ele>513</ele>
        <time>2024-09-19T11:27:49Z</time>
      </trkpt>
      <trkpt lat="50.620877025648952" lon="13.414476960897446">
        <ele>513</ele>
        <time>2024-09-19T11:27:51Z</time>
      </trkpt>
      <trkpt lat="50.621019015088677" lon="13.414535969495773">
        <ele>513.48000000000002</ele>
        <time>2024-09-19T11:27:52Z</time>
      </trkpt>
      <trkpt lat="50.621168967336416" lon="13.414581986144185">
        <ele>513.48000000000002</ele>
        <time>2024-09-19T11:27:53Z</time>
      </trkpt>
      <trkpt lat="50.621278015896678" lon="13.414540998637676">
        <ele>513.48000000000002</ele>
        <time>2024-09-19T11:27:54Z</time>
      </trkpt>
      <trkpt lat="50.621437020599842" lon="13.414466986432672">
        <ele>513.48000000000002</ele>
        <time>2024-09-19T11:27:55Z</time>
      </trkpt>
      <trkpt lat="50.621595019474626" lon="13.414392974227667">
        <ele>513.48000000000002</ele>
        <time>2024-09-19T11:27:56Z</time>
      </trkpt>
      <trkpt lat="50.621762992814183" lon="13.414315022528172">
        <ele>513</ele>
        <time>2024-09-19T11:27:57Z</time>
      </trkpt>
      <trkpt lat="50.621943958103657" lon="13.414231035858393">
        <ele>513</ele>
        <time>2024-09-19T11:27:58Z</time>
      </trkpt>
      <trkpt lat="50.622103968635201" lon="13.414157023653388">
        <ele>512.51999999999998</ele>
        <time>2024-09-19T11:27:59Z</time>
      </trkpt>
      <trkpt lat="50.622287029400468" lon="13.413983015343547">
        <ele>512.03999999999996</ele>
        <time>2024-09-19T11:28:00Z</time>
      </trkpt>
      <trkpt lat="50.622759014368057" lon="13.413535002619028">
        <ele>511.56</ele>
        <time>2024-09-19T11:28:03Z</time>
      </trkpt>
      <trkpt lat="50.62289597466588" lon="13.413404999300838">
        <ele>511.07999999999998</ele>
        <time>2024-09-19T11:28:04Z</time>
      </trkpt>
      <trkpt lat="50.62304500490427" lon="13.413332998752594">
        <ele>511.07999999999998</ele>
        <time>2024-09-19T11:28:05Z</time>
      </trkpt>
      <trkpt lat="50.623205015435815" lon="13.413288993760943">
        <ele>510.60000000000002</ele>
        <time>2024-09-19T11:28:06Z</time>
      </trkpt>
      <trkpt lat="50.623379023745656" lon="13.41323995962739">
        <ele>510.12</ele>
        <time>2024-09-19T11:28:07Z</time>
      </trkpt>
      <trkpt lat="50.623567029833794" lon="13.413165025413036">
        <ele>510.12</ele>
        <time>2024-09-19T11:28:08Z</time>
      </trkpt>
      <trkpt lat="50.623745983466506" lon="13.413068968802691">
        <ele>509.63999999999999</ele>
        <time>2024-09-19T11:28:09Z</time>
      </trkpt>
      <trkpt lat="50.623914962634444" lon="13.412928991019726">
        <ele>509.63999999999999</ele>
        <time>2024-09-19T11:28:10Z</time>
      </trkpt>
      <trkpt lat="50.62407597899437" lon="13.412776021286845">
        <ele>509.16000000000003</ele>
        <time>2024-09-19T11:28:11Z</time>
      </trkpt>
      <trkpt lat="50.624397005885839" lon="13.412467986345291">
        <ele>508.67000000000002</ele>
        <time>2024-09-19T11:28:13Z</time>
      </trkpt>
      <trkpt lat="50.624550981447101" lon="13.412320967763662">
        <ele>508.67000000000002</ele>
        <time>2024-09-19T11:28:14Z</time>
      </trkpt>
      <trkpt lat="50.624705040827394" lon="13.412174033001065">
        <ele>508.19</ele>
        <time>2024-09-19T11:28:15Z</time>
      </trkpt>
      <trkpt lat="50.625729979947209" lon="13.411281025037169">
        <ele>505.31</ele>
        <time>2024-09-19T11:28:21Z</time>
      </trkpt>
      <trkpt lat="50.626335991546512" lon="13.410979025065899">
        <ele>504.82999999999998</ele>
        <time>2024-09-19T11:28:24Z</time>
      </trkpt>
      <trkpt lat="50.626503964886069" lon="13.410835023969412">
        <ele>504.82999999999998</ele>
        <time>2024-09-19T11:28:25Z</time>
      </trkpt>
      <trkpt lat="50.62663497403264" lon="13.41067903675139">
        <ele>504.82999999999998</ele>
        <time>2024-09-19T11:28:26Z</time>
      </trkpt>
      <trkpt lat="50.62766301445663" lon="13.409441029652953">
        <ele>502.91000000000003</ele>
        <time>2024-09-19T11:28:34Z</time>
      </trkpt>
      <trkpt lat="50.628495002165437" lon="13.408249961212277">
        <ele>501.94999999999999</ele>
        <time>2024-09-19T11:28:40Z</time>
      </trkpt>
      <trkpt lat="50.628832038491964" lon="13.407944021746516">
        <ele>502.43000000000001</ele>
        <time>2024-09-19T11:28:42Z</time>
      </trkpt>
      <trkpt lat="50.629191035404801" lon="13.407676974311471">
        <ele>502.91000000000003</ele>
        <time>2024-09-19T11:28:44Z</time>
      </trkpt>
      <trkpt lat="50.631357003003359" lon="13.406665027141571">
        <ele>502.91000000000003</ele>
        <time>2024-09-19T11:28:54Z</time>
      </trkpt>
      <trkpt lat="50.63376696780324" lon="13.405841002240777">
        <ele>499.54000000000002</ele>
        <time>2024-09-19T11:29:05Z</time>
      </trkpt>
      <trkpt lat="50.634591998532414" lon="13.405574038624763">
        <ele>496.18000000000001</ele>
        <time>2024-09-19T11:29:10Z</time>
      </trkpt>
      <trkpt lat="50.634691994637251" lon="13.405441017821431">
        <ele>495.22000000000003</ele>
        <time>2024-09-19T11:29:11Z</time>
      </trkpt>
      <trkpt lat="50.634785033762455" lon="13.405315959826112">
        <ele>494.74000000000001</ele>
        <time>2024-09-19T11:29:12Z</time>
      </trkpt>
      <trkpt lat="50.634855022653937" lon="13.405157960951328">
        <ele>493.76999999999998</ele>
        <time>2024-09-19T11:29:13Z</time>
      </trkpt>
      <trkpt lat="50.634945966303349" lon="13.404954029247165">
        <ele>493.76999999999998</ele>
        <time>2024-09-19T11:29:14Z</time>
      </trkpt>
      <trkpt lat="50.635022995993495" lon="13.40473098680377">
        <ele>493.29000000000002</ele>
        <time>2024-09-19T11:29:15Z</time>
      </trkpt>
      <trkpt lat="50.635108994320035" lon="13.404473997652531">
        <ele>493.29000000000002</ele>
        <time>2024-09-19T11:29:16Z</time>
      </trkpt>
      <trkpt lat="50.635192980989814" lon="13.404222037643194">
        <ele>492.81</ele>
        <time>2024-09-19T11:29:17Z</time>
      </trkpt>
      <trkpt lat="50.635331030935049" lon="13.404007963836193">
        <ele>492.81</ele>
        <time>2024-09-19T11:29:18Z</time>
      </trkpt>
      <trkpt lat="50.63544200733304" lon="13.403862034901977">
        <ele>492.81</ele>
        <time>2024-09-19T11:29:19Z</time>
      </trkpt>
      <trkpt lat="50.636353036388755" lon="13.402843968942761">
        <ele>491.85000000000002</ele>
        <time>2024-09-19T11:29:25Z</time>
      </trkpt>
      <trkpt lat="50.637894971296191" lon="13.400635002180934">
        <ele>489.44999999999999</ele>
        <time>2024-09-19T11:29:34Z</time>
      </trkpt>
      <trkpt lat="50.638551022857428" lon="13.399461032822728">
        <ele>488.49000000000001</ele>
        <time>2024-09-19T11:29:40Z</time>
      </trkpt>
      <trkpt lat="50.639262981712818" lon="13.398237023502588">
        <ele>487.05000000000001</ele>
        <time>2024-09-19T11:29:49Z</time>
      </trkpt>
      <trkpt lat="50.639768997207284" lon="13.397458009421825">
        <ele>484.63999999999999</ele>
        <time>2024-09-19T11:29:55Z</time>
      </trkpt>
      <trkpt lat="50.640855962410569" lon="13.396315975114703">
        <ele>480.80000000000001</ele>
        <time>2024-09-19T11:30:06Z</time>
      </trkpt>
      <trkpt lat="50.64195298589766" lon="13.395331017673016">
        <ele>478.38999999999999</ele>
        <time>2024-09-19T11:30:16Z</time>
      </trkpt>
      <trkpt lat="50.64332501962781" lon="13.394495006650686">
        <ele>476.47000000000003</ele>
        <time>2024-09-19T11:30:24Z</time>
      </trkpt>
      <trkpt lat="50.64463603310287" lon="13.393539972603321">
        <ele>475.50999999999999</ele>
        <time>2024-09-19T11:30:32Z</time>
      </trkpt>
      <trkpt lat="50.644766958430409" lon="13.393418015912175">
        <ele>475.50999999999999</ele>
        <time>2024-09-19T11:30:33Z</time>
      </trkpt>
      <trkpt lat="50.644869972020388" lon="13.39332103729248">
        <ele>475.99000000000001</ele>
        <time>2024-09-19T11:30:34Z</time>
      </trkpt>
      <trkpt lat="50.645010033622384" lon="13.393306033685803">
        <ele>475.99000000000001</ele>
        <time>2024-09-19T11:30:35Z</time>
      </trkpt>
      <trkpt lat="50.645143976435065" lon="13.393317013978958">
        <ele>476.47000000000003</ele>
        <time>2024-09-19T11:30:36Z</time>
      </trkpt>
      <trkpt lat="50.645271968096495" lon="13.393355989828706">
        <ele>476.47000000000003</ele>
        <time>2024-09-19T11:30:37Z</time>
      </trkpt>
      <trkpt lat="50.645542033016682" lon="13.393607027828693">
        <ele>477.43000000000001</ele>
        <time>2024-09-19T11:30:40Z</time>
      </trkpt>
      <trkpt lat="50.645581008866429" lon="13.393649021163583">
        <ele>478.87</ele>
        <time>2024-09-19T11:30:45Z</time>
      </trkpt>
      <trkpt lat="50.645586960017681" lon="13.393654972314835">
        <ele>478.87</ele>
        <time>2024-09-19T11:30:46Z</time>
      </trkpt>
      <trkpt lat="50.645617973059416" lon="13.39368699118495">
        <ele>479.35000000000002</ele>
        <time>2024-09-19T11:30:47Z</time>
      </trkpt>
      <trkpt lat="50.64566901884973" lon="13.393742982298136">
        <ele>479.35000000000002</ele>
        <time>2024-09-19T11:30:48Z</time>
      </trkpt>
      <trkpt lat="50.645735990256071" lon="13.393813977017999">
        <ele>479.35000000000002</ele>
        <time>2024-09-19T11:30:49Z</time>
      </trkpt>
      <trkpt lat="50.646075960248709" lon="13.393993014469743">
        <ele>478.87</ele>
        <time>2024-09-19T11:30:53Z</time>
      </trkpt>
      <trkpt lat="50.646151984110475" lon="13.394010029733181">
        <ele>478.87</ele>
        <time>2024-09-19T11:30:54Z</time>
      </trkpt>
      <trkpt lat="50.646299002692103" lon="13.394042970612645">
        <ele>478.38999999999999</ele>
        <time>2024-09-19T11:30:56Z</time>
      </trkpt>
      <trkpt lat="50.646330015733838" lon="13.39405101723969">
        <ele>478.38999999999999</ele>
        <time>2024-09-19T11:30:57Z</time>
      </trkpt>
      <trkpt lat="50.646392963826656" lon="13.393986979499459">
        <ele>478.38999999999999</ele>
        <time>2024-09-19T11:30:58Z</time>
      </trkpt>
      <trkpt lat="50.646393969655037" lon="13.393985973671079">
        <ele>478.38999999999999</ele>
        <time>2024-09-19T11:30:59Z</time>
      </trkpt>
      <trkpt lat="50.646450966596603" lon="13.393849013373256">
        <ele>477.91000000000003</ele>
        <time>2024-09-19T11:31:00Z</time>
      </trkpt>
      <trkpt lat="50.646501006558537" lon="13.393728984519839">
        <ele>477.43000000000001</ele>
        <time>2024-09-19T11:31:01Z</time>
      </trkpt>
      <trkpt lat="50.64652900211513" lon="13.3935790322721">
        <ele>477.43000000000001</ele>
        <time>2024-09-19T11:31:02Z</time>
      </trkpt>
      <trkpt lat="50.646564960479736" lon="13.393384991213679">
        <ele>476.94999999999999</ele>
        <time>2024-09-19T11:31:03Z</time>
      </trkpt>
      <trkpt lat="50.646599996834993" lon="13.3931939676404">
        <ele>476.47000000000003</ele>
        <time>2024-09-19T11:31:04Z</time>
      </trkpt>
      <trkpt lat="50.646900990977883" lon="13.391404012218118">
        <ele>473.11000000000001</ele>
        <time>2024-09-19T11:31:12Z</time>
      </trkpt>
      <trkpt lat="50.646995035931468" lon="13.389309961348772">
        <ele>470.69999999999999</ele>
        <time>2024-09-19T11:31:18Z</time>
      </trkpt>
      <trkpt lat="50.646982965990901" lon="13.387053972110152">
        <ele>469.74000000000001</ele>
        <time>2024-09-19T11:31:25Z</time>
      </trkpt>
      <trkpt lat="50.646981038153172" lon="13.385380022227764">
        <ele>469.74000000000001</ele>
        <time>2024-09-19T11:31:33Z</time>
      </trkpt>
      <trkpt lat="50.646990006789565" lon="13.38470796123147">
        <ele>470.22000000000003</ele>
        <time>2024-09-19T11:31:37Z</time>
      </trkpt>
      <trkpt lat="50.646993024274707" lon="13.384528001770377">
        <ele>470.22000000000003</ele>
        <time>2024-09-19T11:31:38Z</time>
      </trkpt>
      <trkpt lat="50.64700098708272" lon="13.384343013167381">
        <ele>470.22000000000003</ele>
        <time>2024-09-19T11:31:39Z</time>
      </trkpt>
      <trkpt lat="50.647077010944486" lon="13.3839759696275">
        <ele>469.74000000000001</ele>
        <time>2024-09-19T11:31:41Z</time>
      </trkpt>
      <trkpt lat="50.647653015330434" lon="13.38232297450304">
        <ele>468.77999999999997</ele>
        <time>2024-09-19T11:31:51Z</time>
      </trkpt>
      <trkpt lat="50.648576030507684" lon="13.380095986649394">
        <ele>469.25999999999999</ele>
        <time>2024-09-19T11:32:05Z</time>
      </trkpt>
      <trkpt lat="50.649884026497602" lon="13.377355020493269">
        <ele>467.81999999999999</ele>
        <time>2024-09-19T11:32:23Z</time>
      </trkpt>
      <trkpt lat="50.650617023929954" lon="13.375399019569159">
        <ele>465.89999999999998</ele>
        <time>2024-09-19T11:32:35Z</time>
      </trkpt>
      <trkpt lat="50.650928998365998" lon="13.373400019481778">
        <ele>466.38</ele>
        <time>2024-09-19T11:32:46Z</time>
      </trkpt>
      <trkpt lat="50.650942996144295" lon="13.372845975682139">
        <ele>466.86000000000001</ele>
        <time>2024-09-19T11:32:49Z</time>
      </trkpt>
      <trkpt lat="50.651081968098879" lon="13.370785033330321">
        <ele>464.93000000000001</ele>
        <time>2024-09-19T11:33:00Z</time>
      </trkpt>
      <trkpt lat="50.651163021102548" lon="13.370227972045541">
        <ele>463.49000000000001</ele>
        <time>2024-09-19T11:33:03Z</time>
      </trkpt>
      <trkpt lat="50.651308028027415" lon="13.369706030935049">
        <ele>462.05000000000001</ele>
        <time>2024-09-19T11:33:06Z</time>
      </trkpt>
      <trkpt lat="50.651315990835428" lon="13.369529005140066">
        <ele>461.56999999999999</ele>
        <time>2024-09-19T11:33:07Z</time>
      </trkpt>
      <trkpt lat="50.651295036077499" lon="13.369377963244915">
        <ele>461.56999999999999</ele>
        <time>2024-09-19T11:33:08Z</time>
      </trkpt>
      <trkpt lat="50.651180958375335" lon="13.369142012670636">
        <ele>461.56999999999999</ele>
        <time>2024-09-19T11:33:09Z</time>
      </trkpt>
      <trkpt lat="50.651109963655472" lon="13.369029024615884">
        <ele>461.08999999999997</ele>
        <time>2024-09-19T11:33:10Z</time>
      </trkpt>
      <trkpt lat="50.651071993634105" lon="13.368966998532414">
        <ele>461.08999999999997</ele>
        <time>2024-09-19T11:33:11Z</time>
      </trkpt>
      <trkpt lat="50.651071993634105" lon="13.368966998532414">
        <ele>460.61000000000001</ele>
        <time>2024-09-19T11:33:12Z</time>
      </trkpt>
      <trkpt lat="50.651005022227764" lon="13.368801036849618">
        <ele>460.61000000000001</ele>
        <time>2024-09-19T11:33:13Z</time>
      </trkpt>
      <trkpt lat="50.650953976437449" lon="13.368672961369157">
        <ele>460.13</ele>
        <time>2024-09-19T11:33:14Z</time>
      </trkpt>
      <trkpt lat="50.650913994759321" lon="13.368545975536108">
        <ele>459.64999999999998</ele>
        <time>2024-09-19T11:33:15Z</time>
      </trkpt>
      <trkpt lat="50.650874013081193" lon="13.368408009409904">
        <ele>459.64999999999998</ele>
        <time>2024-09-19T11:33:16Z</time>
      </trkpt>
      <trkpt lat="50.65045902505517" lon="13.366938997060061">
        <ele>457.24000000000001</ele>
        <time>2024-09-19T11:33:27Z</time>
      </trkpt>
      <trkpt lat="50.650389036163688" lon="13.366328040137887">
        <ele>457.72000000000003</ele>
        <time>2024-09-19T11:33:32Z</time>
      </trkpt>
      <trkpt lat="50.650389958173037" lon="13.36620700545609">
        <ele>458.20999999999998</ele>
        <time>2024-09-19T11:33:33Z</time>
      </trkpt>
      <trkpt lat="50.650634039193392" lon="13.364490978419781">
        <ele>459.64999999999998</ele>
        <time>2024-09-19T11:33:45Z</time>
      </trkpt>
      <trkpt lat="50.650824978947639" lon="13.363066976889968">
        <ele>463.49000000000001</ele>
        <time>2024-09-19T11:33:54Z</time>
      </trkpt>
      <trkpt lat="50.650832019746304" lon="13.362696999683976">
        <ele>463.97000000000003</ele>
        <time>2024-09-19T11:33:56Z</time>
      </trkpt>
      <trkpt lat="50.650864038616419" lon="13.360440004616976">
        <ele>464.44999999999999</ele>
        <time>2024-09-19T11:34:08Z</time>
      </trkpt>
      <trkpt lat="50.650987001135945" lon="13.359647998586297">
        <ele>463.49000000000001</ele>
        <time>2024-09-19T11:34:14Z</time>
      </trkpt>
      <trkpt lat="50.651024971157312" lon="13.359405007213354">
        <ele>463.49000000000001</ele>
        <time>2024-09-19T11:34:20Z</time>
      </trkpt>
      <trkpt lat="50.651034023612738" lon="13.359348010271788">
        <ele>463.00999999999999</ele>
        <time>2024-09-19T11:34:24Z</time>
      </trkpt>
      <trkpt lat="50.651085991412401" lon="13.359012985602021">
        <ele>462.52999999999997</ele>
        <time>2024-09-19T11:34:28Z</time>
      </trkpt>
      <trkpt lat="50.651114992797375" lon="13.35883897729218">
        <ele>462.52999999999997</ele>
        <time>2024-09-19T11:34:29Z</time>
      </trkpt>
      <trkpt lat="50.651054978370667" lon="13.358817016705871">
        <ele>462.05000000000001</ele>
        <time>2024-09-19T11:34:30Z</time>
      </trkpt>
      <trkpt lat="50.650992030277848" lon="13.358793966472149">
        <ele>461.56999999999999</ele>
        <time>2024-09-19T11:34:31Z</time>
      </trkpt>
      <trkpt lat="50.650992030277848" lon="13.358793966472149">
        <ele>461.08999999999997</ele>
        <time>2024-09-19T11:34:32Z</time>
      </trkpt>
      <trkpt lat="50.650856997817755" lon="13.358745016157627">
        <ele>460.61000000000001</ele>
        <time>2024-09-19T11:34:33Z</time>
      </trkpt>
      <trkpt lat="50.650856997817755" lon="13.358745016157627">
        <ele>460.61000000000001</ele>
        <time>2024-09-19T11:34:34Z</time>
      </trkpt>
      <trkpt lat="50.650695981457829" lon="13.35868701338768">
        <ele>460.61000000000001</ele>
        <time>2024-09-19T11:34:35Z</time>
      </trkpt>
      <trkpt lat="50.650695981457829" lon="13.35868701338768">
        <ele>460.61000000000001</ele>
        <time>2024-09-19T11:34:36Z</time>
      </trkpt>
      <trkpt lat="50.64979299902916" lon="13.358370009809732">
        <ele>463.00999999999999</ele>
        <time>2024-09-19T11:34:46Z</time>
      </trkpt>
      <trkpt lat="50.649625025689602" lon="13.358320975676179">
        <ele>464.44999999999999</ele>
        <time>2024-09-19T11:34:52Z</time>
      </trkpt>
      <trkpt lat="50.649613961577415" lon="13.358318964019418">
        <ele>464.93000000000001</ele>
        <time>2024-09-19T11:34:58Z</time>
      </trkpt>
      <trkpt lat="50.649581020697951" lon="13.358311001211405">
        <ele>465.42000000000002</ele>
        <time>2024-09-19T11:34:59Z</time>
      </trkpt>
      <trkpt lat="50.649547995999455" lon="13.358302032575011">
        <ele>465.89999999999998</ele>
        <time>2024-09-19T11:35:00Z</time>
      </trkpt>
      <trkpt lat="50.649538021534681" lon="13.358372021466494">
        <ele>466.38</ele>
        <time>2024-09-19T11:35:01Z</time>
      </trkpt>
      <trkpt lat="50.649518994614482" lon="13.358492972329259">
        <ele>466.38</ele>
        <time>2024-09-19T11:35:02Z</time>
      </trkpt>
      <trkpt lat="50.649498039856553" lon="13.358629010617733">
        <ele>466.86000000000001</ele>
        <time>2024-09-19T11:35:03Z</time>
      </trkpt>
      <trkpt lat="50.649260999634862" lon="13.359592007473111">
        <ele>468.77999999999997</ele>
        <time>2024-09-19T11:35:09Z</time>
      </trkpt>
      <trkpt lat="50.649204002693295" lon="13.359764004126191">
        <ele>469.25999999999999</ele>
        <time>2024-09-19T11:35:10Z</time>
      </trkpt>
      <trkpt lat="50.649139964953065" lon="13.35993398912251">
        <ele>469.74000000000001</ele>
        <time>2024-09-19T11:35:11Z</time>
      </trkpt>
      <trkpt lat="50.648339996114373" lon="13.361170990392566">
        <ele>474.06999999999999</ele>
        <time>2024-09-19T11:35:19Z</time>
      </trkpt>
      <trkpt lat="50.646838964894414" lon="13.362771011888981">
        <ele>478.87</ele>
        <time>2024-09-19T11:35:31Z</time>
      </trkpt>
      <trkpt lat="50.646102027967572" lon="13.363587995991111">
        <ele>482.72000000000003</ele>
        <time>2024-09-19T11:35:38Z</time>
      </trkpt>
      <trkpt lat="50.645506996661425" lon="13.364643026143312">
        <ele>487.05000000000001</ele>
        <time>2024-09-19T11:35:45Z</time>
      </trkpt>
      <trkpt lat="50.644797971472144" lon="13.366071972995996">
        <ele>488.00999999999999</ele>
        <time>2024-09-19T11:35:54Z</time>
      </trkpt>
      <trkpt lat="50.643673036247492" lon="13.368020011112094">
        <ele>487.05000000000001</ele>
        <time>2024-09-19T11:36:05Z</time>
      </trkpt>
      <trkpt lat="50.642590010538697" lon="13.369738971814513">
        <ele>484.16000000000003</ele>
        <time>2024-09-19T11:36:15Z</time>
      </trkpt>
      <trkpt lat="50.64248900860548" lon="13.369889007881284">
        <ele>484.16000000000003</ele>
        <time>2024-09-19T11:36:16Z</time>
      </trkpt>
      <trkpt lat="50.64236001111567" lon="13.369976012036204">
        <ele>484.16000000000003</ele>
        <time>2024-09-19T11:36:17Z</time>
      </trkpt>
      <trkpt lat="50.642232019454241" lon="13.370064022019506">
        <ele>483.68000000000001</ele>
        <time>2024-09-19T11:36:18Z</time>
      </trkpt>
      <trkpt lat="50.640760995447636" lon="13.370898021385074">
        <ele>482.72000000000003</ele>
        <time>2024-09-19T11:36:28Z</time>
      </trkpt>
      <trkpt lat="50.63954402692616" lon="13.371606962755322">
        <ele>483.19999999999999</ele>
        <time>2024-09-19T11:36:37Z</time>
      </trkpt>
      <trkpt lat="50.638458989560604" lon="13.372269971296191">
        <ele>483.68000000000001</ele>
        <time>2024-09-19T11:36:46Z</time>
      </trkpt>
      <trkpt lat="50.637472020462155" lon="13.372890986502171">
        <ele>488.49000000000001</ele>
        <time>2024-09-19T11:36:55Z</time>
      </trkpt>
      <trkpt lat="50.636917976662517" lon="13.373251995071769">
        <ele>491.37</ele>
        <time>2024-09-19T11:37:00Z</time>
      </trkpt>
      <trkpt lat="50.636497959494591" lon="13.373630018904805">
        <ele>492.32999999999998</ele>
        <time>2024-09-19T11:37:04Z</time>
      </trkpt>
      <trkpt lat="50.636267038062215" lon="13.373775025829673">
        <ele>492.32999999999998</ele>
        <time>2024-09-19T11:37:06Z</time>
      </trkpt>
      <trkpt lat="50.636156983673573" lon="13.373837973922491">
        <ele>492.81</ele>
        <time>2024-09-19T11:37:07Z</time>
      </trkpt>
      <trkpt lat="50.634857034310699" lon="13.374189008027315">
        <ele>493.29000000000002</ele>
        <time>2024-09-19T11:37:18Z</time>
      </trkpt>
      <trkpt lat="50.634248005226254" lon="13.374297972768545">
        <ele>494.74000000000001</ele>
        <time>2024-09-19T11:37:23Z</time>
      </trkpt>
      <trkpt lat="50.634135017171502" lon="13.374294033274055">
        <ele>495.22000000000003</ele>
        <time>2024-09-19T11:37:24Z</time>
      </trkpt>
      <trkpt lat="50.633183000609279" lon="13.374001001939178">
        <ele>497.13999999999999</ele>
        <time>2024-09-19T11:37:32Z</time>
      </trkpt>
      <trkpt lat="50.632366016507149" lon="13.373977029696107">
        <ele>496.66000000000003</ele>
        <time>2024-09-19T11:37:39Z</time>
      </trkpt>
      <trkpt lat="50.631082998588681" lon="13.374486984685063">
        <ele>494.74000000000001</ele>
        <time>2024-09-19T11:37:50Z</time>
      </trkpt>
      <trkpt lat="50.630511017516255" lon="13.374733999371529">
        <ele>495.22000000000003</ele>
        <time>2024-09-19T11:37:55Z</time>
      </trkpt>
      <trkpt lat="50.630397023633122" lon="13.374805999919772">
        <ele>495.22000000000003</ele>
        <time>2024-09-19T11:37:56Z</time>
      </trkpt>
      <trkpt lat="50.629195980727673" lon="13.376055993139744">
        <ele>496.66000000000003</ele>
        <time>2024-09-19T11:38:08Z</time>
      </trkpt>
      <trkpt lat="50.629096990451217" lon="13.376166969537735">
        <ele>496.66000000000003</ele>
        <time>2024-09-19T11:38:09Z</time>
      </trkpt>
      <trkpt lat="50.628670016303658" lon="13.37682000361383">
        <ele>498.10000000000002</ele>
        <time>2024-09-19T11:38:14Z</time>
      </trkpt>
      <trkpt lat="50.628571026027203" lon="13.376866020262241">
        <ele>497.62</ele>
        <time>2024-09-19T11:38:15Z</time>
      </trkpt>
      <trkpt lat="50.628462983295321" lon="13.376914970576763">
        <ele>497.62</ele>
        <time>2024-09-19T11:38:16Z</time>
      </trkpt>
      <trkpt lat="50.628341026604176" lon="13.376935003325343">
        <ele>497.62</ele>
        <time>2024-09-19T11:38:17Z</time>
      </trkpt>
      <trkpt lat="50.628213034942746" lon="13.376898039132357">
        <ele>497.62</ele>
        <time>2024-09-19T11:38:18Z</time>
      </trkpt>
      <trkpt lat="50.62807297334075" lon="13.376857973635197">
        <ele>498.10000000000002</ele>
        <time>2024-09-19T11:38:19Z</time>
      </trkpt>
      <trkpt lat="50.627940036356449" lon="13.37682000361383">
        <ele>498.10000000000002</ele>
        <time>2024-09-19T11:38:20Z</time>
      </trkpt>
      <trkpt lat="50.627827970311046" lon="13.376726964488626">
        <ele>498.10000000000002</ele>
        <time>2024-09-19T11:38:21Z</time>
      </trkpt>
      <trkpt lat="50.627712970599532" lon="13.376630991697311">
        <ele>498.57999999999998</ele>
        <time>2024-09-19T11:38:22Z</time>
      </trkpt>
      <trkpt lat="50.627597970888019" lon="13.376535018905997">
        <ele>498.57999999999998</ele>
        <time>2024-09-19T11:38:23Z</time>
      </trkpt>
      <trkpt lat="50.627486994490027" lon="13.376441979780793">
        <ele>499.06</ele>
        <time>2024-09-19T11:38:24Z</time>
      </trkpt>
      <trkpt lat="50.627424968406558" lon="13.37639101780951">
        <ele>499.54000000000002</ele>
        <time>2024-09-19T11:38:25Z</time>
      </trkpt>
      <trkpt lat="50.627311980351806" lon="13.376184990629554">
        <ele>500.01999999999998</ele>
        <time>2024-09-19T11:38:26Z</time>
      </trkpt>
      <trkpt lat="50.627228999510407" lon="13.376035038381815">
        <ele>500.01999999999998</ele>
        <time>2024-09-19T11:38:27Z</time>
      </trkpt>
      <trkpt lat="50.627163033932447" lon="13.375885002315044">
        <ele>500.5</ele>
        <time>2024-09-19T11:38:28Z</time>
      </trkpt>
      <trkpt lat="50.62710402533412" lon="13.37570495903492">
        <ele>500.98000000000002</ele>
        <time>2024-09-19T11:38:29Z</time>
      </trkpt>
      <trkpt lat="50.627048034220934" lon="13.375527011230588">
        <ele>501.45999999999998</ele>
        <time>2024-09-19T11:38:30Z</time>
      </trkpt>
      <trkpt lat="50.626656012609601" lon="13.374168975278735">
        <ele>502.43000000000001</ele>
        <time>2024-09-19T11:38:37Z</time>
      </trkpt>
      <trkpt lat="50.62583701685071" lon="13.372250022366643">
        <ele>504.82999999999998</ele>
        <time>2024-09-19T11:38:46Z</time>
      </trkpt>
      <trkpt lat="50.625634007155895" lon="13.37181500159204">
        <ele>506.26999999999998</ele>
        <time>2024-09-19T11:38:49Z</time>
      </trkpt>
      <trkpt lat="50.625529987737536" lon="13.371593970805407">
        <ele>506.75</ele>
        <time>2024-09-19T11:38:50Z</time>
      </trkpt>
      <trkpt lat="50.624982984736562" lon="13.370022028684616">
        <ele>508.19</ele>
        <time>2024-09-19T11:38:56Z</time>
      </trkpt>
      <trkpt lat="50.624855998903513" lon="13.36981700733304">
        <ele>508.67000000000002</ele>
        <time>2024-09-19T11:38:57Z</time>
      </trkpt>
      <trkpt lat="50.624709986150265" lon="13.369619026780128">
        <ele>509.63999999999999</ele>
        <time>2024-09-19T11:38:58Z</time>
      </trkpt>
      <trkpt lat="50.624552993103862" lon="13.369406964629889">
        <ele>510.60000000000002</ele>
        <time>2024-09-19T11:38:59Z</time>
      </trkpt>
      <trkpt lat="50.62439801171422" lon="13.369198003783822">
        <ele>512.03999999999996</ele>
        <time>2024-09-19T11:39:00Z</time>
      </trkpt>
      <trkpt lat="50.624255016446114" lon="13.369003962725401">
        <ele>513</ele>
        <time>2024-09-19T11:39:01Z</time>
      </trkpt>
      <trkpt lat="50.62409701757133" lon="13.368830038234591">
        <ele>513.48000000000002</ele>
        <time>2024-09-19T11:39:02Z</time>
      </trkpt>
      <trkpt lat="50.623926026746631" lon="13.36869802325964">
        <ele>513.96000000000004</ele>
        <time>2024-09-19T11:39:03Z</time>
      </trkpt>
      <trkpt lat="50.623729974031448" lon="13.368595009669662">
        <ele>514.44000000000005</ele>
        <time>2024-09-19T11:39:04Z</time>
      </trkpt>
      <trkpt lat="50.623522019013762" lon="13.368519991636276">
        <ele>514.91999999999996</ele>
        <time>2024-09-19T11:39:05Z</time>
      </trkpt>
      <trkpt lat="50.62330299988389" lon="13.368471963331103">
        <ele>515.39999999999998</ele>
        <time>2024-09-19T11:39:06Z</time>
      </trkpt>
      <trkpt lat="50.621753018349409" lon="13.368109026923776">
        <ele>519.25</ele>
        <time>2024-09-19T11:39:13Z</time>
      </trkpt>
      <trkpt lat="50.620201025158167" lon="13.367406036704779">
        <ele>526.94000000000005</ele>
        <time>2024-09-19T11:39:21Z</time>
      </trkpt>
      <trkpt lat="50.619829036295414" lon="13.367206966504455">
        <ele>530.78999999999996</ele>
        <time>2024-09-19T11:39:23Z</time>
      </trkpt>
      <trkpt lat="50.619142977520823" lon="13.366197030991316">
        <ele>540.39999999999998</ele>
        <time>2024-09-19T11:39:28Z</time>
      </trkpt>
      <trkpt lat="50.619028983637691" lon="13.365948004648089">
        <ele>542.79999999999995</ele>
        <time>2024-09-19T11:39:29Z</time>
      </trkpt>
      <trkpt lat="50.618914989754558" lon="13.365701995790005">
        <ele>544.24000000000001</ele>
        <time>2024-09-19T11:39:30Z</time>
      </trkpt>
      <trkpt lat="50.618861010298133" lon="13.365451041609049">
        <ele>546.16999999999996</ele>
        <time>2024-09-19T11:39:31Z</time>
      </trkpt>
      <trkpt lat="50.618797978386283" lon="13.365123979747295">
        <ele>548.09000000000003</ele>
        <time>2024-09-19T11:39:32Z</time>
      </trkpt>
      <trkpt lat="50.618712985888124" lon="13.364439010620117">
        <ele>552.40999999999997</ele>
        <time>2024-09-19T11:39:35Z</time>
      </trkpt>
      <trkpt lat="50.618755985051394" lon="13.364139022305608">
        <ele>553.38</ele>
        <time>2024-09-19T11:39:36Z</time>
      </trkpt>
      <trkpt lat="50.618755985051394" lon="13.364139022305608">
        <ele>554.82000000000005</ele>
        <time>2024-09-19T11:39:37Z</time>
      </trkpt>
      <trkpt lat="50.618841983377934" lon="13.363924026489258">
        <ele>556.25999999999999</ele>
        <time>2024-09-19T11:39:38Z</time>
      </trkpt>
      <trkpt lat="50.618950026109815" lon="13.363774996250868">
        <ele>557.22000000000003</ele>
        <time>2024-09-19T11:39:39Z</time>
      </trkpt>
      <trkpt lat="50.619078017771244" lon="13.363599982112646">
        <ele>558.65999999999997</ele>
        <time>2024-09-19T11:39:40Z</time>
      </trkpt>
      <trkpt lat="50.619243979454041" lon="13.363324971869588">
        <ele>559.62</ele>
        <time>2024-09-19T11:39:41Z</time>
      </trkpt>
      <trkpt lat="50.619370965287089" lon="13.362990031018853">
        <ele>560.11000000000001</ele>
        <time>2024-09-19T11:39:42Z</time>
      </trkpt>
      <trkpt lat="50.61945796944201" lon="13.362710997462273">
        <ele>561.07000000000005</ele>
        <time>2024-09-19T11:39:43Z</time>
      </trkpt>
      <trkpt lat="50.619528964161873" lon="13.362314030528069">
        <ele>561.54999999999995</ele>
        <time>2024-09-19T11:39:44Z</time>
      </trkpt>
      <trkpt lat="50.619588978588581" lon="13.361668037250638">
        <ele>562.50999999999999</ele>
        <time>2024-09-19T11:39:46Z</time>
      </trkpt>
      <trkpt lat="50.6196069996804" lon="13.361295964568853">
        <ele>562.99000000000001</ele>
        <time>2024-09-19T11:39:47Z</time>
      </trkpt>
      <trkpt lat="50.619528964161873" lon="13.36029801517725">
        <ele>562.02999999999997</ele>
        <time>2024-09-19T11:39:51Z</time>
      </trkpt>
      <trkpt lat="50.619430979713798" lon="13.360032979398966">
        <ele>561.54999999999995</ele>
        <time>2024-09-19T11:39:52Z</time>
      </trkpt>
      <trkpt lat="50.619384963065386" lon="13.359908005222678">
        <ele>562.02999999999997</ele>
        <time>2024-09-19T11:39:53Z</time>
      </trkpt>
      <trkpt lat="50.619379011914134" lon="13.359889984130859">
        <ele>561.54999999999995</ele>
        <time>2024-09-19T11:39:54Z</time>
      </trkpt>
      <trkpt lat="50.619317991659045" lon="13.359866011887789">
        <ele>561.07000000000005</ele>
        <time>2024-09-19T11:39:55Z</time>
      </trkpt>
      <trkpt lat="50.619191005825996" lon="13.359814966097474">
        <ele>561.07000000000005</ele>
        <time>2024-09-19T11:39:56Z</time>
      </trkpt>
      <trkpt lat="50.619041975587606" lon="13.359756041318178">
        <ele>561.07000000000005</ele>
        <time>2024-09-19T11:39:57Z</time>
      </trkpt>
      <trkpt lat="50.617432985454798" lon="13.359030000865459">
        <ele>563.95000000000005</ele>
        <time>2024-09-19T11:40:05Z</time>
      </trkpt>
      <trkpt lat="50.616528997197747" lon="13.358470005914569">
        <ele>567.79999999999995</ele>
        <time>2024-09-19T11:40:10Z</time>
      </trkpt>
      <trkpt lat="50.616387007758021" lon="13.358387025073171">
        <ele>568.27999999999997</ele>
        <time>2024-09-19T11:40:11Z</time>
      </trkpt>
      <trkpt lat="50.61627603136003" lon="13.358260961249471">
        <ele>569.24000000000001</ele>
        <time>2024-09-19T11:40:12Z</time>
      </trkpt>
      <trkpt lat="50.61617000028491" lon="13.358100028708577">
        <ele>570.20000000000005</ele>
        <time>2024-09-19T11:40:13Z</time>
      </trkpt>
      <trkpt lat="50.61610403470695" lon="13.357857959344983">
        <ele>571.63999999999999</ele>
        <time>2024-09-19T11:40:14Z</time>
      </trkpt>
      <trkpt lat="50.616073021665215" lon="13.357603987678885">
        <ele>572.60000000000002</ele>
        <time>2024-09-19T11:40:15Z</time>
      </trkpt>
      <trkpt lat="50.616031028330326" lon="13.357271980494261">
        <ele>574.03999999999996</ele>
        <time>2024-09-19T11:40:16Z</time>
      </trkpt>
      <trkpt lat="50.616077966988087" lon="13.357000993564725">
        <ele>574.52999999999997</ele>
        <time>2024-09-19T11:40:17Z</time>
      </trkpt>
      <trkpt lat="50.616179974749684" lon="13.356413003057241">
        <ele>575.97000000000003</ele>
        <time>2024-09-19T11:40:19Z</time>
      </trkpt>
      <trkpt lat="50.616223979741335" lon="13.356146961450577">
        <ele>576.45000000000005</ele>
        <time>2024-09-19T11:40:20Z</time>
      </trkpt>
      <trkpt lat="50.616223979741335" lon="13.355877986177802">
        <ele>576.45000000000005</ele>
        <time>2024-09-19T11:40:21Z</time>
      </trkpt>
      <trkpt lat="50.616139993071556" lon="13.35527298040688">
        <ele>576.92999999999995</ele>
        <time>2024-09-19T11:40:23Z</time>
      </trkpt>
      <trkpt lat="50.615742020308971" lon="13.353476990014315">
        <ele>576.92999999999995</ele>
        <time>2024-09-19T11:40:29Z</time>
      </trkpt>
      <trkpt lat="50.61567303724587" lon="13.353233998641372">
        <ele>576.45000000000005</ele>
        <time>2024-09-19T11:40:30Z</time>
      </trkpt>
      <trkpt lat="50.615554014220834" lon="13.353027971461415">
        <ele>575.97000000000003</ele>
        <time>2024-09-19T11:40:31Z</time>
      </trkpt>
      <trkpt lat="50.615432979539037" lon="13.352834014222026">
        <ele>575.97000000000003</ele>
        <time>2024-09-19T11:40:32Z</time>
      </trkpt>
      <trkpt lat="50.615277998149395" lon="13.352686995640397">
        <ele>575.97000000000003</ele>
        <time>2024-09-19T11:40:33Z</time>
      </trkpt>
      <trkpt lat="50.61443000100553" lon="13.351873029023409">
        <ele>575.97000000000003</ele>
        <time>2024-09-19T11:40:38Z</time>
      </trkpt>
      <trkpt lat="50.614278959110379" lon="13.351721987128258">
        <ele>575.97000000000003</ele>
        <time>2024-09-19T11:40:39Z</time>
      </trkpt>
      <trkpt lat="50.614167982712388" lon="13.351544039323926">
        <ele>576.45000000000005</ele>
        <time>2024-09-19T11:40:40Z</time>
      </trkpt>
      <trkpt lat="50.614077961072326" lon="13.351354021579027">
        <ele>577.40999999999997</ele>
        <time>2024-09-19T11:40:41Z</time>
      </trkpt>
      <trkpt lat="50.614002021029592" lon="13.351112036034465">
        <ele>577.40999999999997</ele>
        <time>2024-09-19T11:40:42Z</time>
      </trkpt>
      <trkpt lat="50.613975031301379" lon="13.350868038833141">
        <ele>577.40999999999997</ele>
        <time>2024-09-19T11:40:43Z</time>
      </trkpt>
      <trkpt lat="50.614036973565817" lon="13.35060996003449">
        <ele>577.40999999999997</ele>
        <time>2024-09-19T11:40:44Z</time>
      </trkpt>
      <trkpt lat="50.614207964390516" lon="13.350152978673577">
        <ele>576.45000000000005</ele>
        <time>2024-09-19T11:40:46Z</time>
      </trkpt>
      <trkpt lat="50.614392030984163" lon="13.349678982049227">
        <ele>575.49000000000001</ele>
        <time>2024-09-19T11:40:48Z</time>
      </trkpt>
      <trkpt lat="50.614541983231902" lon="13.349266005679965">
        <ele>575.00999999999999</ele>
        <time>2024-09-19T11:40:50Z</time>
      </trkpt>
      <trkpt lat="50.614584982395172" lon="13.348855962976813">
        <ele>574.52999999999997</ele>
        <time>2024-09-19T11:40:52Z</time>
      </trkpt>
      <trkpt lat="50.614562015980482" lon="13.348626969382167">
        <ele>574.03999999999996</ele>
        <time>2024-09-19T11:40:53Z</time>
      </trkpt>
      <trkpt lat="50.614512981846929" lon="13.348395964130759">
        <ele>573.55999999999995</ele>
        <time>2024-09-19T11:40:54Z</time>
      </trkpt>
      <trkpt lat="50.614445004612207" lon="13.348173005506396">
        <ele>573.55999999999995</ele>
        <time>2024-09-19T11:40:55Z</time>
      </trkpt>
      <trkpt lat="50.614368980750442" lon="13.347940994426608">
        <ele>573.55999999999995</ele>
        <time>2024-09-19T11:40:56Z</time>
      </trkpt>
      <trkpt lat="50.6140430085361" lon="13.347325008362532">
        <ele>574.03999999999996</ele>
        <time>2024-09-19T11:40:59Z</time>
      </trkpt>
      <trkpt lat="50.61395600438118" lon="13.347104983404279">
        <ele>574.52999999999997</ele>
        <time>2024-09-19T11:41:00Z</time>
      </trkpt>
      <trkpt lat="50.613890960812569" lon="13.346882024779916">
        <ele>575.00999999999999</ele>
        <time>2024-09-19T11:41:01Z</time>
      </trkpt>
      <trkpt lat="50.613843016326427" lon="13.346714973449707">
        <ele>575.49000000000001</ele>
        <time>2024-09-19T11:41:02Z</time>
      </trkpt>
      <trkpt lat="50.613831030204892" lon="13.346395958214998">
        <ele>575.97000000000003</ele>
        <time>2024-09-19T11:41:03Z</time>
      </trkpt>
      <trkpt lat="50.613834969699383" lon="13.345734039321542">
        <ele>577.40999999999997</ele>
        <time>2024-09-19T11:41:06Z</time>
      </trkpt>
      <trkpt lat="50.613835975527763" lon="13.345485012978315">
        <ele>576.92999999999995</ele>
        <time>2024-09-19T11:41:07Z</time>
      </trkpt>
      <trkpt lat="50.613790964707732" lon="13.34527999162674">
        <ele>576.92999999999995</ele>
        <time>2024-09-19T11:41:08Z</time>
      </trkpt>
      <trkpt lat="50.613703038543463" lon="13.345056027173996">
        <ele>576.45000000000005</ele>
        <time>2024-09-19T11:41:09Z</time>
      </trkpt>
      <trkpt lat="50.613580998033285" lon="13.34489299915731">
        <ele>576.45000000000005</ele>
        <time>2024-09-19T11:41:10Z</time>
      </trkpt>
      <trkpt lat="50.613453006371856" lon="13.34472200833261">
        <ele>575.97000000000003</ele>
        <time>2024-09-19T11:41:11Z</time>
      </trkpt>
      <trkpt lat="50.613320991396904" lon="13.344545988366008">
        <ele>575.49000000000001</ele>
        <time>2024-09-19T11:41:12Z</time>
      </trkpt>
      <trkpt lat="50.613194005563855" lon="13.34437700919807">
        <ele>575.49000000000001</ele>
        <time>2024-09-19T11:41:13Z</time>
      </trkpt>
      <trkpt lat="50.613113036379218" lon="13.344268966466188">
        <ele>575.97000000000003</ele>
        <time>2024-09-19T11:41:14Z</time>
      </trkpt>
      <trkpt lat="50.613014968112111" lon="13.344037039205432">
        <ele>576.45000000000005</ele>
        <time>2024-09-19T11:41:15Z</time>
      </trkpt>
      <trkpt lat="50.612941039726138" lon="13.34386101923883">
        <ele>576.45000000000005</ele>
        <time>2024-09-19T11:41:16Z</time>
      </trkpt>
      <trkpt lat="50.612937016412616" lon="13.343624984845519">
        <ele>576.92999999999995</ele>
        <time>2024-09-19T11:41:17Z</time>
      </trkpt>
      <trkpt lat="50.612907009199262" lon="13.34216401912272">
        <ele>577.40999999999997</ele>
        <time>2024-09-19T11:41:22Z</time>
      </trkpt>
      <trkpt lat="50.612899968400598" lon="13.341847015544772">
        <ele>577.88999999999999</ele>
        <time>2024-09-19T11:41:23Z</time>
      </trkpt>
      <trkpt lat="50.613042041659355" lon="13.339538974687457">
        <ele>580.28999999999996</ele>
        <time>2024-09-19T11:41:30Z</time>
      </trkpt>
      <trkpt lat="50.612837020307779" lon="13.338051019236445">
        <ele>580.76999999999998</ele>
        <time>2024-09-19T11:41:35Z</time>
      </trkpt>
      <trkpt lat="50.612797038629651" lon="13.337839040905237">
        <ele>580.76999999999998</ele>
        <time>2024-09-19T11:41:36Z</time>
      </trkpt>
      <trkpt lat="50.612748004496098" lon="13.337663020938635">
        <ele>580.76999999999998</ele>
        <time>2024-09-19T11:41:37Z</time>
      </trkpt>
      <trkpt lat="50.612690001726151" lon="13.337491024285555">
        <ele>580.76999999999998</ele>
        <time>2024-09-19T11:41:38Z</time>
      </trkpt>
      <trkpt lat="50.612569972872734" lon="13.337383987382054">
        <ele>580.76999999999998</ele>
        <time>2024-09-19T11:41:39Z</time>
      </trkpt>
      <trkpt lat="50.612438041716814" lon="13.337335037067533">
        <ele>581.25</ele>
        <time>2024-09-19T11:41:40Z</time>
      </trkpt>
      <trkpt lat="50.612288005650043" lon="13.337279967963696">
        <ele>581.73000000000002</ele>
        <time>2024-09-19T11:41:41Z</time>
      </trkpt>
      <trkpt lat="50.612140987068415" lon="13.33722498267889">
        <ele>582.22000000000003</ele>
        <time>2024-09-19T11:41:42Z</time>
      </trkpt>
      <trkpt lat="50.61198097653687" lon="13.337206039577723">
        <ele>582.22000000000003</ele>
        <time>2024-09-19T11:41:43Z</time>
      </trkpt>
      <trkpt lat="50.611839992925525" lon="13.337249960750341">
        <ele>582.70000000000005</ele>
        <time>2024-09-19T11:41:44Z</time>
      </trkpt>
      <trkpt lat="50.611662967130542" lon="13.337332019582391">
        <ele>583.17999999999995</ele>
        <time>2024-09-19T11:41:45Z</time>
      </trkpt>
      <trkpt lat="50.611532963812351" lon="13.337473003193736">
        <ele>583.65999999999997</ele>
        <time>2024-09-19T11:41:46Z</time>
      </trkpt>
      <trkpt lat="50.611412012949586" lon="13.337604012340307">
        <ele>584.13999999999999</ele>
        <time>2024-09-19T11:41:47Z</time>
      </trkpt>
      <trkpt lat="50.611301958560944" lon="13.337723035365343">
        <ele>584.62</ele>
        <time>2024-09-19T11:41:48Z</time>
      </trkpt>
      <trkpt lat="50.611182013526559" lon="13.337853038683534">
        <ele>585.10000000000002</ele>
        <time>2024-09-19T11:41:49Z</time>
      </trkpt>
      <trkpt lat="50.611030971631408" lon="13.337900983169675">
        <ele>586.05999999999995</ele>
        <time>2024-09-19T11:41:51Z</time>
      </trkpt>
      <trkpt lat="50.610924018546939" lon="13.337874999269843">
        <ele>587.01999999999998</ele>
        <time>2024-09-19T11:41:52Z</time>
      </trkpt>
      <trkpt lat="50.610874984413385" lon="13.337800987064838">
        <ele>587.5</ele>
        <time>2024-09-19T11:41:53Z</time>
      </trkpt>
      <trkpt lat="50.61073400080204" lon="13.337326990440488">
        <ele>588.95000000000005</ele>
        <time>2024-09-19T11:41:56Z</time>
      </trkpt>
      <trkpt lat="50.610687984153628" lon="13.337059020996094">
        <ele>588.95000000000005</ele>
        <time>2024-09-19T11:41:57Z</time>
      </trkpt>
      <trkpt lat="50.610350025817752" lon="13.336026035249233">
        <ele>588.46000000000004</ele>
        <time>2024-09-19T11:42:02Z</time>
      </trkpt>
      <trkpt lat="50.610280958935618" lon="13.335814978927374">
        <ele>588.46000000000004</ele>
        <time>2024-09-19T11:42:03Z</time>
      </trkpt>
      <trkpt lat="50.610180040821433" lon="13.335622027516365">
        <ele>588.46000000000004</ele>
        <time>2024-09-19T11:42:04Z</time>
      </trkpt>
      <trkpt lat="50.610087001696229" lon="13.335442990064621">
        <ele>588.46000000000004</ele>
        <time>2024-09-19T11:42:05Z</time>
      </trkpt>
      <trkpt lat="50.609983988106251" lon="13.335292031988502">
        <ele>588.46000000000004</ele>
        <time>2024-09-19T11:42:06Z</time>
      </trkpt>
      <trkpt lat="50.609840992838144" lon="13.33518398925662">
        <ele>588.46000000000004</ele>
        <time>2024-09-19T11:42:07Z</time>
      </trkpt>
      <trkpt lat="50.6095290184021" lon="13.334947032853961">
        <ele>587.98000000000002</ele>
        <time>2024-09-19T11:42:09Z</time>
      </trkpt>
      <trkpt lat="50.609178990125656" lon="13.334708986803889">
        <ele>587.5</ele>
        <time>2024-09-19T11:42:11Z</time>
      </trkpt>
      <trkpt lat="50.608018012717366" lon="13.334396006539464">
        <ele>590.38999999999999</ele>
        <time>2024-09-19T11:42:17Z</time>
      </trkpt>
      <trkpt lat="50.607858002185822" lon="13.33432300016284">
        <ele>591.35000000000002</ele>
        <time>2024-09-19T11:42:18Z</time>
      </trkpt>
      <trkpt lat="50.607717018574476" lon="13.334243958815932">
        <ele>591.83000000000004</ele>
        <time>2024-09-19T11:42:19Z</time>
      </trkpt>
      <trkpt lat="50.607534041628242" lon="13.334141029044986">
        <ele>592.30999999999995</ele>
        <time>2024-09-19T11:42:20Z</time>
      </trkpt>
      <trkpt lat="50.607507973909378" lon="13.334070034325123">
        <ele>593.26999999999998</ele>
        <time>2024-09-19T11:42:21Z</time>
      </trkpt>
      <trkpt lat="50.607471009716392" lon="13.333826959133148">
        <ele>593.26999999999998</ele>
        <time>2024-09-19T11:42:22Z</time>
      </trkpt>
      <trkpt lat="50.607515014708042" lon="13.333676001057029">
        <ele>593.26999999999998</ele>
        <time>2024-09-19T11:42:23Z</time>
      </trkpt>
      <trkpt lat="50.607907958328724" lon="13.332221992313862">
        <ele>589.90999999999997</ele>
        <time>2024-09-19T11:42:29Z</time>
      </trkpt>
      <trkpt lat="50.608016001060605" lon="13.331622015684843">
        <ele>587.98000000000002</ele>
        <time>2024-09-19T11:42:31Z</time>
      </trkpt>
      <trkpt lat="50.608055982738733" lon="13.331310963258147">
        <ele>587.5</ele>
        <time>2024-09-19T11:42:32Z</time>
      </trkpt>
      <trkpt lat="50.60809001326561" lon="13.330997982993722">
        <ele>586.53999999999996</ele>
        <time>2024-09-19T11:42:33Z</time>
      </trkpt>
      <trkpt lat="50.608275001868606" lon="13.328841989859939">
        <ele>582.22000000000003</ele>
        <time>2024-09-19T11:42:40Z</time>
      </trkpt>
      <trkpt lat="50.608675992116332" lon="13.326767971739173">
        <ele>581.25</ele>
        <time>2024-09-19T11:42:47Z</time>
      </trkpt>
      <trkpt lat="50.60888403095305" lon="13.324958989396691">
        <ele>579.80999999999995</ele>
        <time>2024-09-19T11:42:54Z</time>
      </trkpt>
      <trkpt lat="50.608900040388107" lon="13.324766959995031">
        <ele>579.33000000000004</ele>
        <time>2024-09-19T11:42:55Z</time>
      </trkpt>
      <trkpt lat="50.608914038166404" lon="13.324594963341951">
        <ele>578.85000000000002</ele>
        <time>2024-09-19T11:42:56Z</time>
      </trkpt>
      <trkpt lat="50.608890987932682" lon="13.324350966140628">
        <ele>578.37</ele>
        <time>2024-09-19T11:42:57Z</time>
      </trkpt>
      <trkpt lat="50.60877900570631" lon="13.324142005294561">
        <ele>578.37</ele>
        <time>2024-09-19T11:42:58Z</time>
      </trkpt>
      <trkpt lat="50.608695019036531" lon="13.324048966169357">
        <ele>577.88999999999999</ele>
        <time>2024-09-19T11:42:59Z</time>
      </trkpt>
      <trkpt lat="50.608580019325018" lon="13.323921980336308">
        <ele>577.40999999999997</ele>
        <time>2024-09-19T11:43:00Z</time>
      </trkpt>
      <trkpt lat="50.608468959107995" lon="13.323800023645163">
        <ele>577.40999999999997</ele>
        <time>2024-09-19T11:43:01Z</time>
      </trkpt>
      <trkpt lat="50.608345996588469" lon="13.323674965649843">
        <ele>576.92999999999995</ele>
        <time>2024-09-19T11:43:02Z</time>
      </trkpt>
      <trkpt lat="50.60821901075542" lon="13.323589973151684">
        <ele>576.92999999999995</ele>
        <time>2024-09-19T11:43:03Z</time>
      </trkpt>
      <trkpt lat="50.60809101909399" lon="13.323504980653524">
        <ele>576.92999999999995</ele>
        <time>2024-09-19T11:43:04Z</time>
      </trkpt>
      <trkpt lat="50.60794098302722" lon="13.323446977883577">
        <ele>576.45000000000005</ele>
        <time>2024-09-19T11:43:05Z</time>
      </trkpt>
      <trkpt lat="50.60766102746129" lon="13.323369026184082">
        <ele>576.45000000000005</ele>
        <time>2024-09-19T11:43:07Z</time>
      </trkpt>
      <trkpt lat="50.607527000829577" lon="13.323356034234166">
        <ele>576.45000000000005</ele>
        <time>2024-09-19T11:43:08Z</time>
      </trkpt>
      <trkpt lat="50.607370007783175" lon="13.323367014527321">
        <ele>576.45000000000005</ele>
        <time>2024-09-19T11:43:09Z</time>
      </trkpt>
      <trkpt lat="50.607232041656971" lon="13.323401967063546">
        <ele>576.92999999999995</ele>
        <time>2024-09-19T11:43:10Z</time>
      </trkpt>
      <trkpt lat="50.60708099976182" lon="13.323548985645175">
        <ele>576.92999999999995</ele>
        <time>2024-09-19T11:43:11Z</time>
      </trkpt>
      <trkpt lat="50.606956025585532" lon="13.323704972863197">
        <ele>577.40999999999997</ele>
        <time>2024-09-19T11:43:12Z</time>
      </trkpt>
      <trkpt lat="50.606817975640297" lon="13.323887027800083">
        <ele>577.88999999999999</ele>
        <time>2024-09-19T11:43:13Z</time>
      </trkpt>
      <trkpt lat="50.606156978756189" lon="13.324908027425408">
        <ele>580.28999999999996</ele>
        <time>2024-09-19T11:43:18Z</time>
      </trkpt>
      <trkpt lat="50.60602898709476" lon="13.325107013806701">
        <ele>580.76999999999998</ele>
        <time>2024-09-19T11:43:19Z</time>
      </trkpt>
      <trkpt lat="50.605903007090092" lon="13.32529996521771">
        <ele>580.28999999999996</ele>
        <time>2024-09-19T11:43:20Z</time>
      </trkpt>
      <trkpt lat="50.605774009600282" lon="13.325381018221378">
        <ele>580.28999999999996</ele>
        <time>2024-09-19T11:43:21Z</time>
      </trkpt>
      <trkpt lat="50.605645012110472" lon="13.325461987406015">
        <ele>581.73000000000002</ele>
        <time>2024-09-19T11:43:22Z</time>
      </trkpt>
      <trkpt lat="50.605521965771914" lon="13.325508004054427">
        <ele>582.22000000000003</ele>
        <time>2024-09-19T11:43:23Z</time>
      </trkpt>
      <trkpt lat="50.605392968282104" lon="13.325485959649086">
        <ele>583.17999999999995</ele>
        <time>2024-09-19T11:43:24Z</time>
      </trkpt>
      <trkpt lat="50.6052550021559" lon="13.325460981577635">
        <ele>583.65999999999997</ele>
        <time>2024-09-19T11:43:25Z</time>
      </trkpt>
      <trkpt lat="50.605104966089129" lon="13.325385041534901">
        <ele>584.13999999999999</ele>
        <time>2024-09-19T11:43:26Z</time>
      </trkpt>
      <trkpt lat="50.604962976649404" lon="13.325281022116542">
        <ele>584.13999999999999</ele>
        <time>2024-09-19T11:43:27Z</time>
      </trkpt>
      <trkpt lat="50.604814030230045" lon="13.32517197355628">
        <ele>584.13999999999999</ele>
        <time>2024-09-19T11:43:28Z</time>
      </trkpt>
      <trkpt lat="50.604637004435062" lon="13.32504297606647">
        <ele>584.62</ele>
        <time>2024-09-19T11:43:29Z</time>
      </trkpt>
      <trkpt lat="50.604504989460111" lon="13.324872991070151">
        <ele>584.62</ele>
        <time>2024-09-19T11:43:30Z</time>
      </trkpt>
      <trkpt lat="50.604361994192004" lon="13.324689008295536">
        <ele>584.62</ele>
        <time>2024-09-19T11:43:31Z</time>
      </trkpt>
      <trkpt lat="50.604235008358955" lon="13.324435036629438">
        <ele>584.62</ele>
        <time>2024-09-19T11:43:32Z</time>
      </trkpt>
      <trkpt lat="50.604121014475822" lon="13.324187016114593">
        <ele>585.10000000000002</ele>
        <time>2024-09-19T11:43:33Z</time>
      </trkpt>
      <trkpt lat="50.602989960461855" lon="13.321564989164472">
        <ele>588.46000000000004</ele>
        <time>2024-09-19T11:43:42Z</time>
      </trkpt>
      <trkpt lat="50.602898010984063" lon="13.321305988356471">
        <ele>588.95000000000005</ele>
        <time>2024-09-19T11:43:44Z</time>
      </trkpt>
      <trkpt lat="50.602663988247514" lon="13.320164037868381">
        <ele>589.90999999999997</ele>
        <time>2024-09-19T11:43:48Z</time>
      </trkpt>
      <trkpt lat="50.602624006569386" lon="13.319896990433335">
        <ele>590.38999999999999</ele>
        <time>2024-09-19T11:43:49Z</time>
      </trkpt>
      <trkpt lat="50.602551000192761" lon="13.319683000445366">
        <ele>590.87</ele>
        <time>2024-09-19T11:43:50Z</time>
      </trkpt>
      <trkpt lat="50.602472964674234" lon="13.319474039599299">
        <ele>591.35000000000002</ele>
        <time>2024-09-19T11:43:51Z</time>
      </trkpt>
      <trkpt lat="50.602303985506296" lon="13.319206992164254">
        <ele>591.83000000000004</ele>
        <time>2024-09-19T11:43:53Z</time>
      </trkpt>
      <trkpt lat="50.602147998288274" lon="13.319077994674444">
        <ele>592.78999999999996</ele>
        <time>2024-09-19T11:43:54Z</time>
      </trkpt>
      <trkpt lat="50.602084966376424" lon="13.319077994674444">
        <ele>592.78999999999996</ele>
        <time>2024-09-19T11:43:55Z</time>
      </trkpt>
      <trkpt lat="50.601962003856897" lon="13.319077994674444">
        <ele>593.75</ele>
        <time>2024-09-19T11:43:56Z</time>
      </trkpt>
      <trkpt lat="50.601839041337371" lon="13.319134991616011">
        <ele>594.23000000000002</ele>
        <time>2024-09-19T11:43:57Z</time>
      </trkpt>
      <trkpt lat="50.601741978898644" lon="13.319211015477777">
        <ele>594.23000000000002</ele>
        <time>2024-09-19T11:43:58Z</time>
      </trkpt>
      <trkpt lat="50.60164600610733" lon="13.319287039339542">
        <ele>594.71000000000004</ele>
        <time>2024-09-19T11:43:59Z</time>
      </trkpt>
      <trkpt lat="50.601235963404179" lon="13.319833036512136">
        <ele>599.51999999999998</ele>
        <time>2024-09-19T11:44:04Z</time>
      </trkpt>
      <trkpt lat="50.601161029189825" lon="13.319935966283083">
        <ele>600.48000000000002</ele>
        <time>2024-09-19T11:44:05Z</time>
      </trkpt>
      <trkpt lat="50.60106597840786" lon="13.320015007629991">
        <ele>601.44000000000005</ele>
        <time>2024-09-19T11:44:06Z</time>
      </trkpt>
      <trkpt lat="50.600960031151772" lon="13.320104023441672">
        <ele>602.39999999999998</ele>
        <time>2024-09-19T11:44:07Z</time>
      </trkpt>
      <trkpt lat="50.600845031440258" lon="13.320162026211619">
        <ele>603.85000000000002</ele>
        <time>2024-09-19T11:44:08Z</time>
      </trkpt>
      <trkpt lat="50.600705975666642" lon="13.320190021768212">
        <ele>604.80999999999995</ele>
        <time>2024-09-19T11:44:09Z</time>
      </trkpt>
      <trkpt lat="50.6005700211972" lon="13.320212988182902">
        <ele>606.25</ele>
        <time>2024-09-19T11:44:10Z</time>
      </trkpt>
      <trkpt lat="50.600428031757474" lon="13.320183986797929">
        <ele>607.21000000000004</ele>
        <time>2024-09-19T11:44:11Z</time>
      </trkpt>
      <trkpt lat="50.600286964327097" lon="13.320155991241336">
        <ele>608.16999999999996</ele>
        <time>2024-09-19T11:44:12Z</time>
      </trkpt>
      <trkpt lat="50.600147992372513" lon="13.320038979873061">
        <ele>608.64999999999998</ele>
        <time>2024-09-19T11:44:13Z</time>
      </trkpt>
      <trkpt lat="50.600022012367845" lon="13.319892967119813">
        <ele>609.13</ele>
        <time>2024-09-19T11:44:14Z</time>
      </trkpt>
      <trkpt lat="50.599892009049654" lon="13.31973597407341">
        <ele>609.61000000000001</ele>
        <time>2024-09-19T11:44:15Z</time>
      </trkpt>
      <trkpt lat="50.599800981581211" lon="13.319517038762569">
        <ele>610.09000000000003</ele>
        <time>2024-09-19T11:44:16Z</time>
      </trkpt>
      <trkpt lat="50.599728981032968" lon="13.319255020469427">
        <ele>611.05999999999995</ele>
        <time>2024-09-19T11:44:17Z</time>
      </trkpt>
      <trkpt lat="50.599210979416966" lon="13.317289967089891">
        <ele>615.38</ele>
        <time>2024-09-19T11:44:24Z</time>
      </trkpt>
      <trkpt lat="50.598967988044024" lon="13.316269973292947">
        <ele>616.82000000000005</ele>
        <time>2024-09-19T11:44:28Z</time>
      </trkpt>
      <trkpt lat="50.598921971395612" lon="13.316022036597133">
        <ele>617.29999999999995</ele>
        <time>2024-09-19T11:44:29Z</time>
      </trkpt>
      <trkpt lat="50.598894981667399" lon="13.315762029960752">
        <ele>617.77999999999997</ele>
        <time>2024-09-19T11:44:30Z</time>
      </trkpt>
      <trkpt lat="50.598939992487431" lon="13.31455604173243">
        <ele>624.50999999999999</ele>
        <time>2024-09-19T11:44:36Z</time>
      </trkpt>
      <trkpt lat="50.598948961123824" lon="13.314380021765828">
        <ele>625.47000000000003</ele>
        <time>2024-09-19T11:44:37Z</time>
      </trkpt>
      <trkpt lat="50.598942004144192" lon="13.314196038991213">
        <ele>625.96000000000004</ele>
        <time>2024-09-19T11:44:38Z</time>
      </trkpt>
      <trkpt lat="50.59887302108109" lon="13.312887037172914">
        <ele>631.24000000000001</ele>
        <time>2024-09-19T11:44:45Z</time>
      </trkpt>
      <trkpt lat="50.598886013031006" lon="13.312703976407647">
        <ele>631.72000000000003</ele>
        <time>2024-09-19T11:44:46Z</time>
      </trkpt>
      <trkpt lat="50.598899004980922" lon="13.312514964491129">
        <ele>632.67999999999995</ele>
        <time>2024-09-19T11:44:47Z</time>
      </trkpt>
      <trkpt lat="50.599211985245347" lon="13.31030398607254">
        <ele>638.92999999999995</ele>
        <time>2024-09-19T11:44:59Z</time>
      </trkpt>
      <trkpt lat="50.599420024082065" lon="13.308832040056586">
        <ele>644.70000000000005</ele>
        <time>2024-09-19T11:45:07Z</time>
      </trkpt>
      <trkpt lat="50.599408959969878" lon="13.308634981513023">
        <ele>644.70000000000005</ele>
        <time>2024-09-19T11:45:08Z</time>
      </trkpt>
      <trkpt lat="50.599136967211962" lon="13.306411011144519">
        <ele>644.70000000000005</ele>
        <time>2024-09-19T11:45:20Z</time>
      </trkpt>
      <trkpt lat="50.59855199418962" lon="13.304778970777988">
        <ele>646.62</ele>
        <time>2024-09-19T11:45:30Z</time>
      </trkpt>
      <trkpt lat="50.598494997248054" lon="13.30460999161005">
        <ele>647.10000000000002</ele>
        <time>2024-09-19T11:45:31Z</time>
      </trkpt>
      <trkpt lat="50.598184028640389" lon="13.303574994206429">
        <ele>649.50999999999999</ele>
        <time>2024-09-19T11:45:38Z</time>
      </trkpt>
      <trkpt lat="50.598155027255416" lon="13.303479021415114">
        <ele>649.99000000000001</ele>
        <time>2024-09-19T11:45:39Z</time>
      </trkpt>
      <trkpt lat="50.598128037527204" lon="13.303388999775052">
        <ele>650.47000000000003</ele>
        <time>2024-09-19T11:45:40Z</time>
      </trkpt>
      <trkpt lat="50.598104987293482" lon="13.303311970084906">
        <ele>650.95000000000005</ele>
        <time>2024-09-19T11:45:41Z</time>
      </trkpt>
      <trkpt lat="50.598140023648739" lon="13.303165035322309">
        <ele>650.95000000000005</ele>
        <time>2024-09-19T11:45:42Z</time>
      </trkpt>
      <trkpt lat="50.598210012540221" lon="13.303166963160038">
        <ele>651.90999999999997</ele>
        <time>2024-09-19T11:45:43Z</time>
      </trkpt>
      <trkpt lat="50.598283018916845" lon="13.303195964545012">
        <ele>652.38999999999999</ele>
        <time>2024-09-19T11:45:44Z</time>
      </trkpt>
      <trkpt lat="50.598346972838044" lon="13.303260002285242">
        <ele>652.87</ele>
        <time>2024-09-19T11:45:45Z</time>
      </trkpt>
      <trkpt lat="50.598416039720178" lon="13.303328985348344">
        <ele>653.83000000000004</ele>
        <time>2024-09-19T11:45:46Z</time>
      </trkpt>
      <trkpt lat="50.598489968106151" lon="13.303402997553349">
        <ele>654.30999999999995</ele>
        <time>2024-09-19T11:45:47Z</time>
      </trkpt>
      <trkpt lat="50.598565991967916" lon="13.303479021415114">
        <ele>655.27999999999997</ele>
        <time>2024-09-19T11:45:48Z</time>
      </trkpt>
      <trkpt lat="50.598642015829682" lon="13.303539035841823">
        <ele>656.24000000000001</ele>
        <time>2024-09-19T11:45:49Z</time>
      </trkpt>
      <trkpt lat="50.598719967529178" lon="13.303520008921623">
        <ele>657.20000000000005</ele>
        <time>2024-09-19T11:45:50Z</time>
      </trkpt>
      <trkpt lat="50.598863968625665" lon="13.303436022251844">
        <ele>659.12</ele>
        <time>2024-09-19T11:45:52Z</time>
      </trkpt>
      <trkpt lat="50.599068989977241" lon="13.303175009787083">
        <ele>662.97000000000003</ele>
        <time>2024-09-19T11:45:55Z</time>
      </trkpt>
      <trkpt lat="50.599215002730489" lon="13.302970994263887">
        <ele>664.88999999999999</ele>
        <time>2024-09-19T11:45:56Z</time>
      </trkpt>
      <trkpt lat="50.599983958527446" lon="13.301853016018867">
        <ele>678.83000000000004</ele>
        <time>2024-09-19T11:46:05Z</time>
      </trkpt>
      <trkpt lat="50.600027963519096" lon="13.301717983558774">
        <ele>680.26999999999998</ele>
        <time>2024-09-19T11:46:06Z</time>
      </trkpt>
      <trkpt lat="50.600064005702734" lon="13.301563002169132">
        <ele>681.71000000000004</ele>
        <time>2024-09-19T11:46:07Z</time>
      </trkpt>
      <trkpt lat="50.600085966289043" lon="13.301416989415884">
        <ele>683.14999999999998</ele>
        <time>2024-09-19T11:46:08Z</time>
      </trkpt>
      <trkpt lat="50.600073980167508" lon="13.301239041611552">
        <ele>683.63</ele>
        <time>2024-09-19T11:46:09Z</time>
      </trkpt>
      <trkpt lat="50.600062999874353" lon="13.301055980846286">
        <ele>684.12</ele>
        <time>2024-09-19T11:46:10Z</time>
      </trkpt>
      <trkpt lat="50.600027963519096" lon="13.300491040572524">
        <ele>687.48000000000002</ele>
        <time>2024-09-19T11:46:13Z</time>
      </trkpt>
      <trkpt lat="50.599849009886384" lon="13.298374023288488">
        <ele>699.01999999999998</ele>
        <time>2024-09-19T11:46:24Z</time>
      </trkpt>
      <trkpt lat="50.599799975752831" lon="13.29775501973927">
        <ele>701.41999999999996</ele>
        <time>2024-09-19T11:46:27Z</time>
      </trkpt>
      <trkpt lat="50.599821014329791" lon="13.297542035579681">
        <ele>701.89999999999998</ele>
        <time>2024-09-19T11:46:28Z</time>
      </trkpt>
      <trkpt lat="50.599867030978203" lon="13.29732402227819">
        <ele>702.86000000000001</ele>
        <time>2024-09-19T11:46:29Z</time>
      </trkpt>
      <trkpt lat="50.599931990727782" lon="13.297103997319937">
        <ele>703.82000000000005</ele>
        <time>2024-09-19T11:46:30Z</time>
      </trkpt>
      <trkpt lat="50.600055959075689" lon="13.296922026202083">
        <ele>704.77999999999997</ele>
        <time>2024-09-19T11:46:31Z</time>
      </trkpt>
      <trkpt lat="50.60018302872777" lon="13.296749023720622">
        <ele>705.75</ele>
        <time>2024-09-19T11:46:32Z</time>
      </trkpt>
      <trkpt lat="50.600314037874341" lon="13.296569986268878">
        <ele>706.71000000000004</ele>
        <time>2024-09-19T11:46:33Z</time>
      </trkpt>
      <trkpt lat="50.600895993411541" lon="13.295869007706642">
        <ele>712.95000000000005</ele>
        <time>2024-09-19T11:46:37Z</time>
      </trkpt>
      <trkpt lat="50.601071007549763" lon="13.295750990509987">
        <ele>714.39999999999998</ele>
        <time>2024-09-19T11:46:38Z</time>
      </trkpt>
      <trkpt lat="50.60254798270762" lon="13.294957978650928">
        <ele>724.49000000000001</ele>
        <time>2024-09-19T11:46:46Z</time>
      </trkpt>
      <trkpt lat="50.60319003649056" lon="13.29481397755444">
        <ele>729.29999999999995</ele>
        <time>2024-09-19T11:46:50Z</time>
      </trkpt>
      <trkpt lat="50.603329008445144" lon="13.294772990047932">
        <ele>730.25999999999999</ele>
        <time>2024-09-19T11:46:51Z</time>
      </trkpt>
      <trkpt lat="50.603462029248476" lon="13.29468397423625">
        <ele>730.74000000000001</ele>
        <time>2024-09-19T11:46:52Z</time>
      </trkpt>
      <trkpt lat="50.604572966694832" lon="13.29362902790308">
        <ele>737.95000000000005</ele>
        <time>2024-09-19T11:47:00Z</time>
      </trkpt>
      <trkpt lat="50.605481984093785" lon="13.293130975216627">
        <ele>738.90999999999997</ele>
        <time>2024-09-19T11:47:06Z</time>
      </trkpt>
      <trkpt lat="50.605687005445361" lon="13.293038019910455">
        <ele>739.38999999999999</ele>
        <time>2024-09-19T11:47:07Z</time>
      </trkpt>
      <trkpt lat="50.607401020824909" lon="13.292246013879776">
        <ele>743.72000000000003</ele>
        <time>2024-09-19T11:47:14Z</time>
      </trkpt>
      <trkpt lat="50.608660988509655" lon="13.291565990075469">
        <ele>748.51999999999998</ele>
        <time>2024-09-19T11:47:20Z</time>
      </trkpt>
      <trkpt lat="50.608833990991116" lon="13.291402962058783">
        <ele>749</ele>
        <time>2024-09-19T11:47:21Z</time>
      </trkpt>
      <trkpt lat="50.610165959224105" lon="13.290151041001081">
        <ele>752.37</ele>
        <time>2024-09-19T11:47:28Z</time>
      </trkpt>
      <trkpt lat="50.612379033118486" lon="13.287776028737426">
        <ele>763.41999999999996</ele>
        <time>2024-09-19T11:47:39Z</time>
      </trkpt>
      <trkpt lat="50.613919040188193" lon="13.285631015896797">
        <ele>769.19000000000005</ele>
        <time>2024-09-19T11:47:47Z</time>
      </trkpt>
      <trkpt lat="50.615369025617838" lon="13.283205963671207">
        <ele>776.39999999999998</ele>
        <time>2024-09-19T11:47:55Z</time>
      </trkpt>
      <trkpt lat="50.617026966065168" lon="13.280345974490047">
        <ele>788.41999999999996</ele>
        <time>2024-09-19T11:48:04Z</time>
      </trkpt>
      <trkpt lat="50.619192011654377" lon="13.276816019788384">
        <ele>795.63</ele>
        <time>2024-09-19T11:48:15Z</time>
      </trkpt>
      <trkpt lat="50.619803974404931" lon="13.275585975497961">
        <ele>799.47000000000003</ele>
        <time>2024-09-19T11:48:20Z</time>
      </trkpt>
      <trkpt lat="50.620465977117419" lon="13.272914998233318">
        <ele>800.44000000000005</ele>
        <time>2024-09-19T11:48:26Z</time>
      </trkpt>
      <trkpt lat="50.621316991746426" lon="13.270268999040127">
        <ele>796.59000000000003</ele>
        <time>2024-09-19T11:48:33Z</time>
      </trkpt>
      <trkpt lat="50.621458981186152" lon="13.269963981583714">
        <ele>795.14999999999998</ele>
        <time>2024-09-19T11:48:34Z</time>
      </trkpt>
      <trkpt lat="50.621641036123037" lon="13.269733982160687">
        <ele>794.19000000000005</ele>
        <time>2024-09-19T11:48:35Z</time>
      </trkpt>
      <trkpt lat="50.621834993362427" lon="13.269489984959364">
        <ele>792.74000000000001</ele>
        <time>2024-09-19T11:48:36Z</time>
      </trkpt>
      <trkpt lat="50.622027022764087" lon="13.269247999414802">
        <ele>791.77999999999997</ele>
        <time>2024-09-19T11:48:37Z</time>
      </trkpt>
      <trkpt lat="50.622560027986765" lon="13.268660008907318">
        <ele>788.41999999999996</ele>
        <time>2024-09-19T11:48:41Z</time>
      </trkpt>
      <trkpt lat="50.622729007154703" lon="13.268479965627193">
        <ele>787.94000000000005</ele>
        <time>2024-09-19T11:48:42Z</time>
      </trkpt>
      <trkpt lat="50.622906032949686" lon="13.268393967300653">
        <ele>787.46000000000004</ele>
        <time>2024-09-19T11:48:43Z</time>
      </trkpt>
      <trkpt lat="50.623492011800408" lon="13.268205961212516">
        <ele>787.46000000000004</ele>
        <time>2024-09-19T11:48:46Z</time>
      </trkpt>
      <trkpt lat="50.62370901927352" lon="13.268136978149414">
        <ele>786.98000000000002</ele>
        <time>2024-09-19T11:48:47Z</time>
      </trkpt>
      <trkpt lat="50.62530099414289" lon="13.267239024862647">
        <ele>779.76999999999998</ele>
        <time>2024-09-19T11:48:54Z</time>
      </trkpt>
      <trkpt lat="50.627284990623593" lon="13.265955001115799">
        <ele>767.75</ele>
        <time>2024-09-19T11:49:03Z</time>
      </trkpt>
      <trkpt lat="50.628474969416857" lon="13.264797041192651">
        <ele>761.01999999999998</ele>
        <time>2024-09-19T11:49:09Z</time>
      </trkpt>
      <trkpt lat="50.628646966069937" lon="13.264653040096164">
        <ele>760.05999999999995</ele>
        <time>2024-09-19T11:49:10Z</time>
      </trkpt>
      <trkpt lat="50.628805970773101" lon="13.264519013464451">
        <ele>759.58000000000004</ele>
        <time>2024-09-19T11:49:11Z</time>
      </trkpt>
      <trkpt lat="50.628985008224845" lon="13.264464028179646">
        <ele>758.62</ele>
        <time>2024-09-19T11:49:12Z</time>
      </trkpt>
      <trkpt lat="50.629171002656221" lon="13.26443100348115">
        <ele>758.13999999999999</ele>
        <time>2024-09-19T11:49:13Z</time>
      </trkpt>
      <trkpt lat="50.629385998472571" lon="13.264413988217711">
        <ele>757.65999999999997</ele>
        <time>2024-09-19T11:49:14Z</time>
      </trkpt>
      <trkpt lat="50.630029980093241" lon="13.264351962134242">
        <ele>755.73000000000002</ele>
        <time>2024-09-19T11:49:17Z</time>
      </trkpt>
      <trkpt lat="50.630228966474533" lon="13.264308040961623">
        <ele>754.76999999999998</ele>
        <time>2024-09-19T11:49:18Z</time>
      </trkpt>
      <trkpt lat="50.630404986441135" lon="13.264207039028406">
        <ele>754.28999999999996</ele>
        <time>2024-09-19T11:49:19Z</time>
      </trkpt>
      <trkpt lat="50.630582012236118" lon="13.264079969376326">
        <ele>753.80999999999995</ele>
        <time>2024-09-19T11:49:20Z</time>
      </trkpt>
      <trkpt lat="50.630763983353972" lon="13.263934040442109">
        <ele>753.33000000000004</ele>
        <time>2024-09-19T11:49:21Z</time>
      </trkpt>
      <trkpt lat="50.630932962521911" lon="13.263752991333604">
        <ele>752.37</ele>
        <time>2024-09-19T11:49:22Z</time>
      </trkpt>
      <trkpt lat="50.631109988316894" lon="13.263552999123931">
        <ele>751.88999999999999</ele>
        <time>2024-09-19T11:49:23Z</time>
      </trkpt>
      <trkpt lat="50.631826976314187" lon="13.262765016406775">
        <ele>749.97000000000003</ele>
        <time>2024-09-19T11:49:27Z</time>
      </trkpt>
      <trkpt lat="50.631968965753913" lon="13.262672983109951">
        <ele>749.49000000000001</ele>
        <time>2024-09-19T11:49:28Z</time>
      </trkpt>
      <trkpt lat="50.632097963243723" lon="13.262610035017133">
        <ele>749</ele>
        <time>2024-09-19T11:49:29Z</time>
      </trkpt>
      <trkpt lat="50.632230984047055" lon="13.262682035565376">
        <ele>748.03999999999996</ele>
        <time>2024-09-19T11:49:30Z</time>
      </trkpt>
      <trkpt lat="50.632395017892122" lon="13.26277800835669">
        <ele>747.55999999999995</ele>
        <time>2024-09-19T11:49:31Z</time>
      </trkpt>
      <trkpt lat="50.633968971669674" lon="13.264018027111888">
        <ele>738.90999999999997</ele>
        <time>2024-09-19T11:49:39Z</time>
      </trkpt>
      <trkpt lat="50.635085022076964" lon="13.264854960143566">
        <ele>733.62</ele>
        <time>2024-09-19T11:49:45Z</time>
      </trkpt>
      <trkpt lat="50.635217959061265" lon="13.264929978176951">
        <ele>732.65999999999997</ele>
        <time>2024-09-19T11:49:46Z</time>
      </trkpt>
      <trkpt lat="50.635337987914681" lon="13.264921009540558">
        <ele>731.70000000000005</ele>
        <time>2024-09-19T11:49:47Z</time>
      </trkpt>
      <trkpt lat="50.635472014546394" lon="13.264897037297487">
        <ele>730.74000000000001</ele>
        <time>2024-09-19T11:49:48Z</time>
      </trkpt>
      <trkpt lat="50.635611992329359" lon="13.26481900177896">
        <ele>729.77999999999997</ele>
        <time>2024-09-19T11:49:49Z</time>
      </trkpt>
      <trkpt lat="50.636540958657861" lon="13.264308962970972">
        <ele>721.61000000000001</ele>
        <time>2024-09-19T11:49:54Z</time>
      </trkpt>
      <trkpt lat="50.637620966881514" lon="13.263697000220418">
        <ele>711.02999999999997</ele>
        <time>2024-09-19T11:49:59Z</time>
      </trkpt>
      <trkpt lat="50.637833029031754" lon="13.263624999672174">
        <ele>708.63</ele>
        <time>2024-09-19T11:50:00Z</time>
      </trkpt>
      <trkpt lat="50.638038972392678" lon="13.263601027429104">
        <ele>706.23000000000002</ele>
        <time>2024-09-19T11:50:01Z</time>
      </trkpt>
      <trkpt lat="50.639875028282404" lon="13.263963963836432">
        <ele>689.88</ele>
        <time>2024-09-19T11:50:08Z</time>
      </trkpt>
      <trkpt lat="50.640711039304733" lon="13.264147024601698">
        <ele>679.78999999999996</ele>
        <time>2024-09-19T11:50:14Z</time>
      </trkpt>
      <trkpt lat="50.641283020377159" lon="13.264314997941256">
        <ele>673.53999999999996</ele>
        <time>2024-09-19T11:50:19Z</time>
      </trkpt>
      <trkpt lat="50.641695996746421" lon="13.26445396989584">
        <ele>669.70000000000005</ele>
        <time>2024-09-19T11:50:23Z</time>
      </trkpt>
      <trkpt lat="50.641818037256598" lon="13.26447400264442">
        <ele>669.22000000000003</ele>
        <time>2024-09-19T11:50:24Z</time>
      </trkpt>
      <trkpt lat="50.641940999776125" lon="13.264494035393">
        <ele>668.25</ele>
        <time>2024-09-19T11:50:25Z</time>
      </trkpt>
      <trkpt lat="50.642045019194484" lon="13.264506021514535">
        <ele>667.28999999999996</ele>
        <time>2024-09-19T11:50:26Z</time>
      </trkpt>
      <trkpt lat="50.642155995592475" lon="13.264437038451433">
        <ele>666.33000000000004</ele>
        <time>2024-09-19T11:50:27Z</time>
      </trkpt>
      <trkpt lat="50.642708027735353" lon="13.264043005183339">
        <ele>662.97000000000003</ele>
        <time>2024-09-19T11:50:32Z</time>
      </trkpt>
      <trkpt lat="50.642815986648202" lon="13.263960024341941">
        <ele>662.00999999999999</ele>
        <time>2024-09-19T11:50:33Z</time>
      </trkpt>
      <trkpt lat="50.643687034025788" lon="13.262981018051505">
        <ele>656.24000000000001</ele>
        <time>2024-09-19T11:50:42Z</time>
      </trkpt>
      <trkpt lat="50.644575012847781" lon="13.261430030688643">
        <ele>652.87</ele>
        <time>2024-09-19T11:50:53Z</time>
      </trkpt>
      <trkpt lat="50.644866032525897" lon="13.261110009625554">
        <ele>653.83000000000004</ele>
        <time>2024-09-19T11:50:56Z</time>
      </trkpt>
      <trkpt lat="50.645278003066778" lon="13.260712958872318">
        <ele>654.30999999999995</ele>
        <time>2024-09-19T11:50:59Z</time>
      </trkpt>
      <trkpt lat="50.645329970866442" lon="13.260530987754464">
        <ele>653.83000000000004</ele>
        <time>2024-09-19T11:51:01Z</time>
      </trkpt>
      <trkpt lat="50.645585032179952" lon="13.259702017530799">
        <ele>651.90999999999997</ele>
        <time>2024-09-19T11:51:06Z</time>
      </trkpt>
      <trkpt lat="50.645758034661412" lon="13.259346038103104">
        <ele>649.50999999999999</ele>
        <time>2024-09-19T11:51:09Z</time>
      </trkpt>
      <trkpt lat="50.645831041038036" lon="13.259255010634661">
        <ele>648.54999999999995</ele>
        <time>2024-09-19T11:51:10Z</time>
      </trkpt>
      <trkpt lat="50.646741986274719" lon="13.258140971884131">
        <ele>640.38</ele>
        <time>2024-09-19T11:51:22Z</time>
      </trkpt>
      <trkpt lat="50.647010961547494" lon="13.257831009104848">
        <ele>635.57000000000005</ele>
        <time>2024-09-19T11:51:27Z</time>
      </trkpt>
      <trkpt lat="50.647026970982552" lon="13.257811982184649">
        <ele>634.61000000000001</ele>
        <time>2024-09-19T11:51:28Z</time>
      </trkpt>
      <trkpt lat="50.647082962095737" lon="13.257721960544586">
        <ele>634.13</ele>
        <time>2024-09-19T11:51:30Z</time>
      </trkpt>
      <trkpt lat="50.647091008722782" lon="13.25762297026813">
        <ele>633.16999999999996</ele>
        <time>2024-09-19T11:51:31Z</time>
      </trkpt>
      <trkpt lat="50.647098971530795" lon="13.257521968334913">
        <ele>632.67999999999995</ele>
        <time>2024-09-19T11:51:32Z</time>
      </trkpt>
      <trkpt lat="50.64710802398622" lon="13.257411997765303">
        <ele>632.67999999999995</ele>
        <time>2024-09-19T11:51:33Z</time>
      </trkpt>
      <trkpt lat="50.647116992622614" lon="13.25729900971055">
        <ele>631.24000000000001</ele>
        <time>2024-09-19T11:51:34Z</time>
      </trkpt>
      <trkpt lat="50.647126967087388" lon="13.257175963371992">
        <ele>629.32000000000005</ele>
        <time>2024-09-19T11:51:35Z</time>
      </trkpt>
      <trkpt lat="50.647138031199574" lon="13.257046965882182">
        <ele>627.88</ele>
        <time>2024-09-19T11:51:36Z</time>
      </trkpt>
      <trkpt lat="50.647212965413928" lon="13.256109030917287">
        <ele>626.44000000000005</ele>
        <time>2024-09-19T11:51:43Z</time>
      </trkpt>
      <trkpt lat="50.647242972627282" lon="13.255803007632494">
        <ele>626.91999999999996</ele>
        <time>2024-09-19T11:51:44Z</time>
      </trkpt>
      <trkpt lat="50.647270968183875" lon="13.255627993494272">
        <ele>626.91999999999996</ele>
        <time>2024-09-19T11:51:45Z</time>
      </trkpt>
      <trkpt lat="50.647413041442633" lon="13.254707995802164">
        <ele>629.79999999999995</ele>
        <time>2024-09-19T11:51:50Z</time>
      </trkpt>
      <trkpt lat="50.647453023120761" lon="13.254528036341071">
        <ele>630.27999999999997</ele>
        <time>2024-09-19T11:51:51Z</time>
      </trkpt>
      <trkpt lat="50.647499961778522" lon="13.254347993060946">
        <ele>630.75999999999999</ele>
        <time>2024-09-19T11:51:52Z</time>
      </trkpt>
      <trkpt lat="50.647634994238615" lon="13.253829991444945">
        <ele>631.72000000000003</ele>
        <time>2024-09-19T11:51:56Z</time>
      </trkpt>
      <trkpt lat="50.647728033363819" lon="13.253473006188869">
        <ele>632.20000000000005</ele>
        <time>2024-09-19T11:51:57Z</time>
      </trkpt>
      <trkpt lat="50.647957026958466" lon="13.252790970727801">
        <ele>632.67999999999995</ele>
        <time>2024-09-19T11:52:01Z</time>
      </trkpt>
      <trkpt lat="50.648045958951116" lon="13.252625009045005">
        <ele>633.16999999999996</ele>
        <time>2024-09-19T11:52:02Z</time>
      </trkpt>
      <trkpt lat="50.648152995854616" lon="13.252466004341841">
        <ele>633.64999999999998</ele>
        <time>2024-09-19T11:52:03Z</time>
      </trkpt>
      <trkpt lat="50.649100989103317" lon="13.251044014468789">
        <ele>635.09000000000003</ele>
        <time>2024-09-19T11:52:10Z</time>
      </trkpt>
      <trkpt lat="50.650592967867851" lon="13.248628014698625">
        <ele>634.13</ele>
        <time>2024-09-19T11:52:19Z</time>
      </trkpt>
      <trkpt lat="50.651374999433756" lon="13.24661904014647">
        <ele>629.79999999999995</ele>
        <time>2024-09-19T11:52:25Z</time>
      </trkpt>
      <trkpt lat="50.651374999433756" lon="13.24661904014647">
        <ele>628.84000000000003</ele>
        <time>2024-09-19T11:52:26Z</time>
      </trkpt>
      <trkpt lat="50.651615979149938" lon="13.244308987632394">
        <ele>623.54999999999995</ele>
        <time>2024-09-19T11:52:31Z</time>
      </trkpt>
      <trkpt lat="50.651681022718549" lon="13.242336977273226">
        <ele>618.75</ele>
        <time>2024-09-19T11:52:36Z</time>
      </trkpt>
      <trkpt lat="50.652026021853089" lon="13.240374019369483">
        <ele>612.5</ele>
        <time>2024-09-19T11:52:42Z</time>
      </trkpt>
      <trkpt lat="50.652167005464435" lon="13.239930029958487">
        <ele>610.09000000000003</ele>
        <time>2024-09-19T11:52:45Z</time>
      </trkpt>
      <trkpt lat="50.652310000732541" lon="13.239555023610592">
        <ele>609.13</ele>
        <time>2024-09-19T11:52:46Z</time>
      </trkpt>
      <trkpt lat="50.652387030422688" lon="13.239397024735808">
        <ele>608.64999999999998</ele>
        <time>2024-09-19T11:52:47Z</time>
      </trkpt>
      <trkpt lat="50.652487026527524" lon="13.239287976175547">
        <ele>607.69000000000005</ele>
        <time>2024-09-19T11:52:48Z</time>
      </trkpt>
      <trkpt lat="50.652585010975599" lon="13.239183034747839">
        <ele>606.73000000000002</ele>
        <time>2024-09-19T11:52:49Z</time>
      </trkpt>
      <trkpt lat="50.652681989595294" lon="13.239077003672719">
        <ele>606.25</ele>
        <time>2024-09-19T11:52:50Z</time>
      </trkpt>
      <trkpt lat="50.653817988932133" lon="13.238056004047394">
        <ele>599.03999999999996</ele>
        <time>2024-09-19T11:53:01Z</time>
      </trkpt>
      <trkpt lat="50.65505800768733" lon="13.236867031082511">
        <ele>597.60000000000002</ele>
        <time>2024-09-19T11:53:13Z</time>
      </trkpt>
      <trkpt lat="50.656316969543695" lon="13.23574997484684">
        <ele>596.63999999999999</ele>
        <time>2024-09-19T11:53:25Z</time>
      </trkpt>
      <trkpt lat="50.656426018103957" lon="13.235662970691919">
        <ele>596.14999999999998</ele>
        <time>2024-09-19T11:53:26Z</time>
      </trkpt>
      <trkpt lat="50.656521990895271" lon="13.235586024820805">
        <ele>595.66999999999996</ele>
        <time>2024-09-19T11:53:27Z</time>
      </trkpt>
      <trkpt lat="50.656614024192095" lon="13.235431965440512">
        <ele>595.66999999999996</ele>
        <time>2024-09-19T11:53:28Z</time>
      </trkpt>
      <trkpt lat="50.656946031376719" lon="13.234879011288285">
        <ele>593.75</ele>
        <time>2024-09-19T11:53:32Z</time>
      </trkpt>
      <trkpt lat="50.657753963023424" lon="13.233261974528432">
        <ele>590.87</ele>
        <time>2024-09-19T11:53:43Z</time>
      </trkpt>
      <trkpt lat="50.658123018220067" lon="13.232004018500447">
        <ele>592.30999999999995</ele>
        <time>2024-09-19T11:53:51Z</time>
      </trkpt>
      <trkpt lat="50.658230977132916" lon="13.231640998274088">
        <ele>592.78999999999996</ele>
        <time>2024-09-19T11:53:54Z</time>
      </trkpt>
      <trkpt lat="50.658693993464112" lon="13.230151031166315">
        <ele>595.19000000000005</ele>
        <time>2024-09-19T11:54:06Z</time>
      </trkpt>
      <trkpt lat="50.658849980682135" lon="13.229488022625446">
        <ele>594.23000000000002</ele>
        <time>2024-09-19T11:54:11Z</time>
      </trkpt>
      <trkpt lat="50.65885903313756" lon="13.229336980730295">
        <ele>594.23000000000002</ele>
        <time>2024-09-19T11:54:12Z</time>
      </trkpt>
      <trkpt lat="50.658844029530883" lon="13.229204965755343">
        <ele>594.23000000000002</ele>
        <time>2024-09-19T11:54:13Z</time>
      </trkpt>
      <trkpt lat="50.658817961812019" lon="13.229062976315618">
        <ele>593.75</ele>
        <time>2024-09-19T11:54:14Z</time>
      </trkpt>
      <trkpt lat="50.658784015104175" lon="13.228936996310949">
        <ele>593.26999999999998</ele>
        <time>2024-09-19T11:54:15Z</time>
      </trkpt>
      <trkpt lat="50.658748978748918" lon="13.228803975507617">
        <ele>592.30999999999995</ele>
        <time>2024-09-19T11:54:16Z</time>
      </trkpt>
      <trkpt lat="50.658716037869453" lon="13.228660980239511">
        <ele>591.35000000000002</ele>
        <time>2024-09-19T11:54:17Z</time>
      </trkpt>
      <trkpt lat="50.658563990145922" lon="13.227990008890629">
        <ele>586.53999999999996</ele>
        <time>2024-09-19T11:54:24Z</time>
      </trkpt>
      <trkpt lat="50.658546974882483" lon="13.227923037484288">
        <ele>585.58000000000004</ele>
        <time>2024-09-19T11:54:25Z</time>
      </trkpt>
      <trkpt lat="50.658526020124555" lon="13.227840978652239">
        <ele>585.10000000000002</ele>
        <time>2024-09-19T11:54:26Z</time>
      </trkpt>
      <trkpt lat="50.658500958234072" lon="13.227740982547402">
        <ele>584.13999999999999</ele>
        <time>2024-09-19T11:54:27Z</time>
      </trkpt>
      <trkpt lat="50.658471034839749" lon="13.227623971179128">
        <ele>583.65999999999997</ele>
        <time>2024-09-19T11:54:28Z</time>
      </trkpt>
      <trkpt lat="50.658440021798015" lon="13.227502014487982">
        <ele>583.17999999999995</ele>
        <time>2024-09-19T11:54:29Z</time>
      </trkpt>
      <trkpt lat="50.658285040408373" lon="13.226014981046319">
        <ele>576.45000000000005</ele>
        <time>2024-09-19T11:54:39Z</time>
      </trkpt>
      <trkpt lat="50.658299038186669" lon="13.22431898675859">
        <ele>566.83000000000004</ele>
        <time>2024-09-19T11:54:48Z</time>
      </trkpt>
      <trkpt lat="50.658410014584661" lon="13.222689963877201">
        <ele>560.11000000000001</ele>
        <time>2024-09-19T11:54:57Z</time>
      </trkpt>
      <trkpt lat="50.658537000417709" lon="13.222317975014448">
        <ele>558.17999999999995</ele>
        <time>2024-09-19T11:54:59Z</time>
      </trkpt>
      <trkpt lat="50.658537000417709" lon="13.222317975014448">
        <ele>557.22000000000003</ele>
        <time>2024-09-19T11:55:00Z</time>
      </trkpt>
      <trkpt lat="50.659380974248052" lon="13.219962995499372">
        <ele>546.16999999999996</ele>
        <time>2024-09-19T11:55:13Z</time>
      </trkpt>
      <trkpt lat="50.66012998111546" lon="13.218054017052054">
        <ele>537.99000000000001</ele>
        <time>2024-09-19T11:55:21Z</time>
      </trkpt>
      <trkpt lat="50.660314969718456" lon="13.217531992122531">
        <ele>535.11000000000001</ele>
        <time>2024-09-19T11:55:24Z</time>
      </trkpt>
      <trkpt lat="50.660397028550506" lon="13.217289000749588">
        <ele>533.66999999999996</ele>
        <time>2024-09-19T11:55:25Z</time>
      </trkpt>
      <trkpt lat="50.660396022722125" lon="13.21703402325511">
        <ele>532.23000000000002</ele>
        <time>2024-09-19T11:55:26Z</time>
      </trkpt>
      <trkpt lat="50.66038403660059" lon="13.216766975820065">
        <ele>531.26999999999998</ele>
        <time>2024-09-19T11:55:27Z</time>
      </trkpt>
      <trkpt lat="50.66034103743732" lon="13.216574024409056">
        <ele>529.34000000000003</ele>
        <time>2024-09-19T11:55:28Z</time>
      </trkpt>
      <trkpt lat="50.660223020240664" lon="13.216362968087196">
        <ele>527.89999999999998</ele>
        <time>2024-09-19T11:55:29Z</time>
      </trkpt>
      <trkpt lat="50.660109026357532" lon="13.216159036383033">
        <ele>526.46000000000004</ele>
        <time>2024-09-19T11:55:30Z</time>
      </trkpt>
      <trkpt lat="50.659854970872402" lon="13.215708006173372">
        <ele>525.01999999999998</ele>
        <time>2024-09-19T11:55:31Z</time>
      </trkpt>
      <trkpt lat="50.659752963110805" lon="13.215431990101933">
        <ele>523.09000000000003</ele>
        <time>2024-09-19T11:55:32Z</time>
      </trkpt>
      <trkpt lat="50.659244013950229" lon="13.213590988889337">
        <ele>507.70999999999998</ele>
        <time>2024-09-19T11:55:40Z</time>
      </trkpt>
      <trkpt lat="50.658986018970609" lon="13.212667973712087">
        <ele>497.13999999999999</ele>
        <time>2024-09-19T11:55:45Z</time>
      </trkpt>
      <trkpt lat="50.658940002322197" lon="13.21252497844398">
        <ele>495.22000000000003</ele>
        <time>2024-09-19T11:55:46Z</time>
      </trkpt>
      <trkpt lat="50.658834977075458" lon="13.212301013991237">
        <ele>491.85000000000002</ele>
        <time>2024-09-19T11:55:48Z</time>
      </trkpt>
      <trkpt lat="50.658744033426046" lon="13.212208980694413">
        <ele>490.41000000000003</ele>
        <time>2024-09-19T11:55:49Z</time>
      </trkpt>
      <trkpt lat="50.658543035387993" lon="13.212089035660028">
        <ele>487.52999999999997</ele>
        <time>2024-09-19T11:55:51Z</time>
      </trkpt>
      <trkpt lat="50.658298032358289" lon="13.212037989869714">
        <ele>486.07999999999998</ele>
        <time>2024-09-19T11:55:52Z</time>
      </trkpt>
      <trkpt lat="50.657292036339641" lon="13.2119229901582">
        <ele>476.94999999999999</ele>
        <time>2024-09-19T11:56:01Z</time>
      </trkpt>
      <trkpt lat="50.657203020527959" lon="13.211908992379904">
        <ele>475.50999999999999</ele>
        <time>2024-09-19T11:56:03Z</time>
      </trkpt>
      <trkpt lat="50.657039992511272" lon="13.211874039843678">
        <ele>474.55000000000001</ele>
        <time>2024-09-19T11:56:05Z</time>
      </trkpt>
      <trkpt lat="50.656736986711621" lon="13.211790975183249">
        <ele>474.06999999999999</ele>
        <time>2024-09-19T11:56:09Z</time>
      </trkpt>
      <trkpt lat="50.656630033627152" lon="13.211742024868727">
        <ele>474.06999999999999</ele>
        <time>2024-09-19T11:56:10Z</time>
      </trkpt>
      <trkpt lat="50.656549986451864" lon="13.211610009893775">
        <ele>474.06999999999999</ele>
        <time>2024-09-19T11:56:11Z</time>
      </trkpt>
      <trkpt lat="50.656478991732001" lon="13.211359977722168">
        <ele>474.06999999999999</ele>
        <time>2024-09-19T11:56:13Z</time>
      </trkpt>
      <trkpt lat="50.65638997592032" lon="13.210916994139552">
        <ele>473.58999999999997</ele>
        <time>2024-09-19T11:56:15Z</time>
      </trkpt>
      <trkpt lat="50.656362986192107" lon="13.210789002478123">
        <ele>473.11000000000001</ele>
        <time>2024-09-19T11:56:16Z</time>
      </trkpt>
      <trkpt lat="50.656340019777417" lon="13.210684983059764">
        <ele>472.63</ele>
        <time>2024-09-19T11:56:18Z</time>
      </trkpt>
      <trkpt lat="50.656415959820151" lon="13.210566965863109">
        <ele>472.13999999999999</ele>
        <time>2024-09-19T11:56:19Z</time>
      </trkpt>
      <trkpt lat="50.65647597424686" lon="13.210522038862109">
        <ele>472.13999999999999</ele>
        <time>2024-09-19T11:56:20Z</time>
      </trkpt>
      <trkpt lat="50.656533977016807" lon="13.210479961708188">
        <ele>471.66000000000003</ele>
        <time>2024-09-19T11:56:21Z</time>
      </trkpt>
      <trkpt lat="50.656588962301612" lon="13.210438974201679">
        <ele>471.18000000000001</ele>
        <time>2024-09-19T11:56:22Z</time>
      </trkpt>
      <trkpt lat="50.656769005581737" lon="13.210394969210029">
        <ele>470.22000000000003</ele>
        <time>2024-09-19T11:56:24Z</time>
      </trkpt>
      <trkpt lat="50.656877970322967" lon="13.210605019703507">
        <ele>469.74000000000001</ele>
        <time>2024-09-19T11:56:26Z</time>
      </trkpt>
      <trkpt lat="50.657038986682892" lon="13.210776010528207">
        <ele>468.77999999999997</ele>
        <time>2024-09-19T11:56:28Z</time>
      </trkpt>
      <trkpt lat="50.657149041071534" lon="13.210815992206335">
        <ele>468.30000000000001</ele>
        <time>2024-09-19T11:56:29Z</time>
      </trkpt>
      <trkpt lat="50.657699983566999" lon="13.21082797832787">
        <ele>467.33999999999997</ele>
        <time>2024-09-19T11:56:32Z</time>
      </trkpt>
      <trkpt lat="50.658026039600372" lon="13.210853962227702">
        <ele>466.38</ele>
        <time>2024-09-19T11:56:35Z</time>
      </trkpt>
      <trkpt lat="50.658714026212692" lon="13.211113968864083">
        <ele>464.44999999999999</ele>
        <time>2024-09-19T11:56:39Z</time>
      </trkpt>
      <trkpt lat="50.65886003896594" lon="13.211155040189624">
        <ele>463.49000000000001</ele>
        <time>2024-09-19T11:56:40Z</time>
      </trkpt>
      <trkpt lat="50.65928902477026" lon="13.211135007441044">
        <ele>460.61000000000001</ele>
        <time>2024-09-19T11:56:43Z</time>
      </trkpt>
      <trkpt lat="50.659453980624676" lon="13.21110600605607">
        <ele>460.13</ele>
        <time>2024-09-19T11:56:44Z</time>
      </trkpt>
      <trkpt lat="50.659625977277756" lon="13.21112603880465">
        <ele>459.64999999999998</ele>
        <time>2024-09-19T11:56:45Z</time>
      </trkpt>
      <trkpt lat="50.659800991415977" lon="13.211144981905818">
        <ele>459.17000000000002</ele>
        <time>2024-09-19T11:56:46Z</time>
      </trkpt>
      <trkpt lat="50.659967958927155" lon="13.211259981617332">
        <ele>459.17000000000002</ele>
        <time>2024-09-19T11:56:47Z</time>
      </trkpt>
      <trkpt lat="50.66012897528708" lon="13.211373975500464">
        <ele>458.69</ele>
        <time>2024-09-19T11:56:48Z</time>
      </trkpt>
      <trkpt lat="50.660271970555186" lon="13.211557036265731">
        <ele>458.69</ele>
        <time>2024-09-19T11:56:49Z</time>
      </trkpt>
      <trkpt lat="50.66040800884366" lon="13.211759962141514">
        <ele>458.20999999999998</ele>
        <time>2024-09-19T11:56:50Z</time>
      </trkpt>
      <trkpt lat="50.660533988848329" lon="13.212000019848347">
        <ele>458.20999999999998</ele>
        <time>2024-09-19T11:56:51Z</time>
      </trkpt>
      <trkpt lat="50.66064303740859" lon="13.212272012606263">
        <ele>457.72000000000003</ele>
        <time>2024-09-19T11:56:52Z</time>
      </trkpt>
      <trkpt lat="50.660738004371524" lon="13.212581975385547">
        <ele>457.72000000000003</ele>
        <time>2024-09-19T11:56:53Z</time>
      </trkpt>
      <trkpt lat="50.660820985212922" lon="13.212903002277017">
        <ele>457.72000000000003</ele>
        <time>2024-09-19T11:56:54Z</time>
      </trkpt>
      <trkpt lat="50.661060037091374" lon="13.213910004124045">
        <ele>457.72000000000003</ele>
        <time>2024-09-19T11:56:56Z</time>
      </trkpt>
      <trkpt lat="50.661362037062645" lon="13.215181035920978">
        <ele>458.20999999999998</ele>
        <time>2024-09-19T11:57:01Z</time>
      </trkpt>
      <trkpt lat="50.661543002352118" lon="13.215629970654845">
        <ele>458.20999999999998</ele>
        <time>2024-09-19T11:57:02Z</time>
      </trkpt>
      <trkpt lat="50.661543002352118" lon="13.215629970654845">
        <ele>458.20999999999998</ele>
        <time>2024-09-19T11:57:03Z</time>
      </trkpt>
      <trkpt lat="50.66180401481688" lon="13.215901041403413">
        <ele>458.20999999999998</ele>
        <time>2024-09-19T11:57:05Z</time>
      </trkpt>
      <trkpt lat="50.661951033398509" lon="13.215981004759669">
        <ele>458.20999999999998</ele>
        <time>2024-09-19T11:57:06Z</time>
      </trkpt>
      <trkpt lat="50.662121018394828" lon="13.216036995872855">
        <ele>458.20999999999998</ele>
        <time>2024-09-19T11:57:07Z</time>
      </trkpt>
      <trkpt lat="50.662879999727011" lon="13.215931970626116">
        <ele>457.24000000000001</ele>
        <time>2024-09-19T11:57:11Z</time>
      </trkpt>
      <trkpt lat="50.663080997765064" lon="13.215870028361678">
        <ele>457.24000000000001</ele>
        <time>2024-09-19T11:57:12Z</time>
      </trkpt>
      <trkpt lat="50.663634035736322" lon="13.215545983985066">
        <ele>457.72000000000003</ele>
        <time>2024-09-19T11:57:14Z</time>
      </trkpt>
      <trkpt lat="50.663787005469203" lon="13.215384967625141">
        <ele>458.20999999999998</ele>
        <time>2024-09-19T11:57:15Z</time>
      </trkpt>
      <trkpt lat="50.663918014615774" lon="13.215182963758707">
        <ele>458.20999999999998</ele>
        <time>2024-09-19T11:57:16Z</time>
      </trkpt>
      <trkpt lat="50.664040977135301" lon="13.21495296433568">
        <ele>459.17000000000002</ele>
        <time>2024-09-19T11:57:17Z</time>
      </trkpt>
      <trkpt lat="50.664154971018434" lon="13.214687006548047">
        <ele>459.17000000000002</ele>
        <time>2024-09-19T11:57:18Z</time>
      </trkpt>
      <trkpt lat="50.664928033947945" lon="13.212914988398552">
        <ele>457.24000000000001</ele>
        <time>2024-09-19T11:57:25Z</time>
      </trkpt>
      <trkpt lat="50.665509989485145" lon="13.211765997111797">
        <ele>455.80000000000001</ele>
        <time>2024-09-19T11:57:28Z</time>
      </trkpt>
      <trkpt lat="50.665686009451747" lon="13.211543038487434">
        <ele>455.31999999999999</ele>
        <time>2024-09-19T11:57:29Z</time>
      </trkpt>
      <trkpt lat="50.666597038507462" lon="13.210527990013361">
        <ele>455.31999999999999</ele>
        <time>2024-09-19T11:57:35Z</time>
      </trkpt>
      <trkpt lat="50.667749969288707" lon="13.209872022271156">
        <ele>455.31999999999999</ele>
        <time>2024-09-19T11:57:43Z</time>
      </trkpt>
      <trkpt lat="50.667902017012239" lon="13.209793986752629">
        <ele>454.83999999999997</ele>
        <time>2024-09-19T11:57:44Z</time>
      </trkpt>
      <trkpt lat="50.668054986745119" lon="13.20973003283143">
        <ele>454.83999999999997</ele>
        <time>2024-09-19T11:57:45Z</time>
      </trkpt>
      <trkpt lat="50.668222038075328" lon="13.209694996476173">
        <ele>454.36000000000001</ele>
        <time>2024-09-19T11:57:46Z</time>
      </trkpt>
      <trkpt lat="50.668394034728408" lon="13.209706982597709">
        <ele>453.88</ele>
        <time>2024-09-19T11:57:47Z</time>
      </trkpt>
      <trkpt lat="50.668741967529058" lon="13.209801027551293">
        <ele>453.88</ele>
        <time>2024-09-19T11:57:48Z</time>
      </trkpt>
      <trkpt lat="50.668741967529058" lon="13.209801027551293">
        <ele>453.39999999999998</ele>
        <time>2024-09-19T11:57:49Z</time>
      </trkpt>
      <trkpt lat="50.670362021774054" lon="13.210510974749923">
        <ele>450.02999999999997</ele>
        <time>2024-09-19T11:57:57Z</time>
      </trkpt>
      <trkpt lat="50.671936981379986" lon="13.210658999159932">
        <ele>445.70999999999998</ele>
        <time>2024-09-19T11:58:05Z</time>
      </trkpt>
      <trkpt lat="50.672908024862409" lon="13.210850022733212">
        <ele>444.26999999999998</ele>
        <time>2024-09-19T11:58:09Z</time>
      </trkpt>
      <trkpt lat="50.673630964010954" lon="13.211199967190623">
        <ele>444.26999999999998</ele>
        <time>2024-09-19T11:58:11Z</time>
      </trkpt>
      <trkpt lat="50.673858029767871" lon="13.211387973278761">
        <ele>444.26999999999998</ele>
        <time>2024-09-19T11:58:12Z</time>
      </trkpt>
      <trkpt lat="50.674074031412601" lon="13.211588971316814">
        <ele>444.26999999999998</ele>
        <time>2024-09-19T11:58:13Z</time>
      </trkpt>
      <trkpt lat="50.675542959943414" lon="13.2132129650563">
        <ele>444.26999999999998</ele>
        <time>2024-09-19T11:58:20Z</time>
      </trkpt>
      <trkpt lat="50.676426999270916" lon="13.214619029313326">
        <ele>444.75</ele>
        <time>2024-09-19T11:58:26Z</time>
      </trkpt>
      <trkpt lat="50.676576029509306" lon="13.215152034536004">
        <ele>445.23000000000002</ele>
        <time>2024-09-19T11:58:27Z</time>
      </trkpt>
      <trkpt lat="50.676640989258885" lon="13.215757040306926">
        <ele>446.19</ele>
        <time>2024-09-19T11:58:30Z</time>
      </trkpt>
      <trkpt lat="50.6766920350492" lon="13.21606800891459">
        <ele>446.19</ele>
        <time>2024-09-19T11:58:31Z</time>
      </trkpt>
      <trkpt lat="50.676871994510293" lon="13.21662800386548">
        <ele>446.67000000000002</ele>
        <time>2024-09-19T11:58:33Z</time>
      </trkpt>
      <trkpt lat="50.676977019757032" lon="13.216882981359959">
        <ele>446.67000000000002</ele>
        <time>2024-09-19T11:58:34Z</time>
      </trkpt>
      <trkpt lat="50.677096964791417" lon="13.217097977176309">
        <ele>446.67000000000002</ele>
        <time>2024-09-19T11:58:35Z</time>
      </trkpt>
      <trkpt lat="50.677236020565033" lon="13.217266034334898">
        <ele>447.14999999999998</ele>
        <time>2024-09-19T11:58:36Z</time>
      </trkpt>
      <trkpt lat="50.677370969206095" lon="13.217419004067779">
        <ele>447.14999999999998</ele>
        <time>2024-09-19T11:58:37Z</time>
      </trkpt>
      <trkpt lat="50.677709011361003" lon="13.217555964365602">
        <ele>447.14999999999998</ele>
        <time>2024-09-19T11:58:39Z</time>
      </trkpt>
      <trkpt lat="50.677891988307238" lon="13.217583037912846">
        <ele>447.14999999999998</ele>
        <time>2024-09-19T11:58:40Z</time>
      </trkpt>
      <trkpt lat="50.678065996617079" lon="13.217552024871111">
        <ele>446.67000000000002</ele>
        <time>2024-09-19T11:58:41Z</time>
      </trkpt>
      <trkpt lat="50.678216032683849" lon="13.217474995180964">
        <ele>446.67000000000002</ele>
        <time>2024-09-19T11:58:42Z</time>
      </trkpt>
      <trkpt lat="50.678359027951956" lon="13.217367958277464">
        <ele>447.14999999999998</ele>
        <time>2024-09-19T11:58:43Z</time>
      </trkpt>
      <trkpt lat="50.678478972986341" lon="13.21720995940268">
        <ele>447.14999999999998</ele>
        <time>2024-09-19T11:58:44Z</time>
      </trkpt>
      <trkpt lat="50.679148016497493" lon="13.216173034161329">
        <ele>447.63</ele>
        <time>2024-09-19T11:58:49Z</time>
      </trkpt>
      <trkpt lat="50.679256981238723" lon="13.215917972847819">
        <ele>447.63</ele>
        <time>2024-09-19T11:58:50Z</time>
      </trkpt>
      <trkpt lat="50.679347002878785" lon="13.215642040595412">
        <ele>447.63</ele>
        <time>2024-09-19T11:58:51Z</time>
      </trkpt>
      <trkpt lat="50.679889982566237" lon="13.213559975847602">
        <ele>448.11000000000001</ele>
        <time>2024-09-19T11:58:59Z</time>
      </trkpt>
      <trkpt lat="50.679992996156216" lon="13.213125038892031">
        <ele>448.58999999999997</ele>
        <time>2024-09-19T11:59:01Z</time>
      </trkpt>
      <trkpt lat="50.680461963638663" lon="13.21185601875186">
        <ele>448.11000000000001</ele>
        <time>2024-09-19T11:59:08Z</time>
      </trkpt>
      <trkpt lat="50.680662961676717" lon="13.211588971316814">
        <ele>447.63</ele>
        <time>2024-09-19T11:59:10Z</time>
      </trkpt>
      <trkpt lat="50.680907964706421" lon="13.211330976337194">
        <ele>447.14999999999998</ele>
        <time>2024-09-19T11:59:12Z</time>
      </trkpt>
      <trkpt lat="50.681180041283369" lon="13.211221005767584">
        <ele>446.67000000000002</ele>
        <time>2024-09-19T11:59:13Z</time>
      </trkpt>
      <trkpt lat="50.681315995752811" lon="13.211194016039371">
        <ele>446.67000000000002</ele>
        <time>2024-09-19T11:59:14Z</time>
      </trkpt>
      <trkpt lat="50.68146200850606" lon="13.211217988282442">
        <ele>446.67000000000002</ele>
        <time>2024-09-19T11:59:15Z</time>
      </trkpt>
      <trkpt lat="50.681609027087688" lon="13.211245983839035">
        <ele>446.67000000000002</ele>
        <time>2024-09-19T11:59:17Z</time>
      </trkpt>
      <trkpt lat="50.681883031502366" lon="13.211410017684102">
        <ele>447.14999999999998</ele>
        <time>2024-09-19T11:59:18Z</time>
      </trkpt>
      <trkpt lat="50.682015968486667" lon="13.211537003517151">
        <ele>447.14999999999998</ele>
        <time>2024-09-19T11:59:20Z</time>
      </trkpt>
      <trkpt lat="50.682571018114686" lon="13.212175033986568">
        <ele>446.19</ele>
        <time>2024-09-19T11:59:24Z</time>
      </trkpt>
      <trkpt lat="50.68292398005724" lon="13.212382989004254">
        <ele>445.23000000000002</ele>
        <time>2024-09-19T11:59:26Z</time>
      </trkpt>
      <trkpt lat="50.683299992233515" lon="13.212430011481047">
        <ele>444.26999999999998</ele>
        <time>2024-09-19T11:59:27Z</time>
      </trkpt>
      <trkpt lat="50.683493027463555" lon="13.212376032024622">
        <ele>443.79000000000002</ele>
        <time>2024-09-19T11:59:28Z</time>
      </trkpt>
      <trkpt lat="50.683668041601777" lon="13.212249968200922">
        <ele>443.31</ele>
        <time>2024-09-19T11:59:29Z</time>
      </trkpt>
      <trkpt lat="50.683858981356025" lon="13.212110996246338">
        <ele>443.31</ele>
        <time>2024-09-19T11:59:30Z</time>
      </trkpt>
      <trkpt lat="50.683996025472879" lon="13.211904969066381">
        <ele>443.31</ele>
        <time>2024-09-19T11:59:31Z</time>
      </trkpt>
      <trkpt lat="50.684141032397747" lon="13.211670024320483">
        <ele>442.81999999999999</ele>
        <time>2024-09-19T11:59:32Z</time>
      </trkpt>
      <trkpt lat="50.684261983260512" lon="13.211397025734186">
        <ele>442.33999999999997</ele>
        <time>2024-09-19T11:59:33Z</time>
      </trkpt>
      <trkpt lat="50.684370025992393" lon="13.211108017712831">
        <ele>441.86000000000001</ele>
        <time>2024-09-19T11:59:34Z</time>
      </trkpt>
      <trkpt lat="50.684475973248482" lon="13.210812974721193">
        <ele>441.86000000000001</ele>
        <time>2024-09-19T11:59:35Z</time>
      </trkpt>
      <trkpt lat="50.684884004294872" lon="13.2097730319947">
        <ele>440.42000000000002</ele>
        <time>2024-09-19T11:59:39Z</time>
      </trkpt>
      <trkpt lat="50.685150967910886" lon="13.209490980952978">
        <ele>438.98000000000002</ele>
        <time>2024-09-19T11:59:41Z</time>
      </trkpt>
      <trkpt lat="50.685307960957289" lon="13.209461979568005">
        <ele>438.5</ele>
        <time>2024-09-19T11:59:42Z</time>
      </trkpt>
      <trkpt lat="50.68547903560102" lon="13.209477989003062">
        <ele>438.01999999999998</ele>
        <time>2024-09-19T11:59:43Z</time>
      </trkpt>
      <trkpt lat="50.685647008940578" lon="13.209499027580023">
        <ele>437.06</ele>
        <time>2024-09-19T11:59:44Z</time>
      </trkpt>
      <trkpt lat="50.685811964794993" lon="13.209630958735943">
        <ele>436.57999999999998</ele>
        <time>2024-09-19T11:59:45Z</time>
      </trkpt>
      <trkpt lat="50.685985973104835" lon="13.209770014509559">
        <ele>436.10000000000002</ele>
        <time>2024-09-19T11:59:46Z</time>
      </trkpt>
      <trkpt lat="50.686172973364592" lon="13.209918960928917">
        <ele>435.61000000000001</ele>
        <time>2024-09-19T11:59:48Z</time>
      </trkpt>
      <trkpt lat="50.686525013297796" lon="13.210349958389997">
        <ele>435.61000000000001</ele>
        <time>2024-09-19T11:59:49Z</time>
      </trkpt>
      <trkpt lat="50.686692986637354" lon="13.210595967248082">
        <ele>435.13</ele>
        <time>2024-09-19T11:59:50Z</time>
      </trkpt>
      <trkpt lat="50.687177963554859" lon="13.211463997140527">
        <ele>435.13</ele>
        <time>2024-09-19T11:59:54Z</time>
      </trkpt>
      <trkpt lat="50.687883971258998" lon="13.213116992264986">
        <ele>434.17000000000002</ele>
        <time>2024-09-19T11:59:58Z</time>
      </trkpt>
      <trkpt lat="50.6890909653157" lon="13.216442009434104">
        <ele>433.69</ele>
        <time>2024-09-19T12:00:07Z</time>
      </trkpt>
      <trkpt lat="50.689660012722015" lon="13.217689990997314">
        <ele>433.69</ele>
        <time>2024-09-19T12:00:11Z</time>
      </trkpt>
      <trkpt lat="50.689810970798135" lon="13.217935999855399">
        <ele>433.69</ele>
        <time>2024-09-19T12:00:12Z</time>
      </trkpt>
      <trkpt lat="50.690178014338017" lon="13.218317041173577">
        <ele>433.69</ele>
        <time>2024-09-19T12:00:14Z</time>
      </trkpt>
      <trkpt lat="50.690377000719309" lon="13.218504041433334">
        <ele>433.69</ele>
        <time>2024-09-19T12:00:15Z</time>
      </trkpt>
      <trkpt lat="50.69059400819242" lon="13.218657011166215">
        <ele>433.20999999999998</ele>
        <time>2024-09-19T12:00:16Z</time>
      </trkpt>
      <trkpt lat="50.692376000806689" lon="13.21970097720623">
        <ele>430.32999999999998</ele>
        <time>2024-09-19T12:00:24Z</time>
      </trkpt>
      <trkpt lat="50.69257297553122" lon="13.219809019938111">
        <ele>429.37</ele>
        <time>2024-09-19T12:00:26Z</time>
      </trkpt>
      <trkpt lat="50.692762993276119" lon="13.219913961365819">
        <ele>428.88999999999999</ele>
        <time>2024-09-19T12:00:27Z</time>
      </trkpt>
      <trkpt lat="50.694172997027636" lon="13.220776040107012">
        <ele>425.51999999999998</ele>
        <time>2024-09-19T12:00:34Z</time>
      </trkpt>
      <trkpt lat="50.695021999999881" lon="13.221695031970739">
        <ele>423.12</ele>
        <time>2024-09-19T12:00:39Z</time>
      </trkpt>
      <trkpt lat="50.695677967742085" lon="13.223024988546968">
        <ele>419.26999999999998</ele>
        <time>2024-09-19T12:00:47Z</time>
      </trkpt>
      <trkpt lat="50.696426974609494" lon="13.225194979459047">
        <ele>414.94999999999999</ele>
        <time>2024-09-19T12:01:00Z</time>
      </trkpt>
      <trkpt lat="50.696956040337682" lon="13.226807992905378">
        <ele>412.06</ele>
        <time>2024-09-19T12:01:10Z</time>
      </trkpt>
      <trkpt lat="50.697050001472235" lon="13.227062970399857">
        <ele>411.57999999999998</ele>
        <time>2024-09-19T12:01:12Z</time>
      </trkpt>
      <trkpt lat="50.697101969271898" lon="13.227205965667963">
        <ele>411.57999999999998</ele>
        <time>2024-09-19T12:01:13Z</time>
      </trkpt>
      <trkpt lat="50.697152009233832" lon="13.227360025048256">
        <ele>410.62</ele>
        <time>2024-09-19T12:01:15Z</time>
      </trkpt>
      <trkpt lat="50.697763971984386" lon="13.229127014055848">
        <ele>406.76999999999998</ele>
        <time>2024-09-19T12:01:26Z</time>
      </trkpt>
      <trkpt lat="50.697939991950989" lon="13.229333963245153">
        <ele>405.81</ele>
        <time>2024-09-19T12:01:29Z</time>
      </trkpt>
      <trkpt lat="50.698642982169986" lon="13.230092022567987">
        <ele>405.32999999999998</ele>
        <time>2024-09-19T12:01:37Z</time>
      </trkpt>
      <trkpt lat="50.698834005743265" lon="13.230198975652456">
        <ele>404.85000000000002</ele>
        <time>2024-09-19T12:01:39Z</time>
      </trkpt>
      <trkpt lat="50.698913969099522" lon="13.230221020057797">
        <ele>404.37</ele>
        <time>2024-09-19T12:01:40Z</time>
      </trkpt>
      <trkpt lat="50.699071967974305" lon="13.230221020057797">
        <ele>403.88999999999999</ele>
        <time>2024-09-19T12:01:43Z</time>
      </trkpt>
      <trkpt lat="50.69925301708281" lon="13.230497958138585">
        <ele>403.88999999999999</ele>
        <time>2024-09-19T12:01:46Z</time>
      </trkpt>
      <trkpt lat="50.699302973225713" lon="13.230574987828732">
        <ele>403.88999999999999</ele>
        <time>2024-09-19T12:01:47Z</time>
      </trkpt>
      <trkpt lat="50.699357036501169" lon="13.230656962841749">
        <ele>403.88999999999999</ele>
        <time>2024-09-19T12:01:48Z</time>
      </trkpt>
      <trkpt lat="50.699412021785975" lon="13.23074203915894">
        <ele>403.88999999999999</ele>
        <time>2024-09-19T12:01:50Z</time>
      </trkpt>
      <trkpt lat="50.699469018727541" lon="13.230828959494829">
        <ele>404.85000000000002</ele>
        <time>2024-09-19T12:01:51Z</time>
      </trkpt>
      <trkpt lat="50.699526015669107" lon="13.23091596364975">
        <ele>405.81</ele>
        <time>2024-09-19T12:01:52Z</time>
      </trkpt>
      <trkpt lat="50.699633974581957" lon="13.231081003323197">
        <ele>406.76999999999998</ele>
        <time>2024-09-19T12:01:53Z</time>
      </trkpt>
      <trkpt lat="50.699678985401988" lon="13.231149986386299">
        <ele>407.74000000000001</ele>
        <time>2024-09-19T12:01:55Z</time>
      </trkpt>
      <trkpt lat="50.699755009263754" lon="13.231265991926193">
        <ele>408.22000000000003</ele>
        <time>2024-09-19T12:01:56Z</time>
      </trkpt>
      <trkpt lat="50.69976900704205" lon="13.231262974441051">
        <ele>408.69999999999999</ele>
        <time>2024-09-19T12:01:58Z</time>
      </trkpt>
      <trkpt lat="50.699780993163586" lon="13.231250988319516">
        <ele>408.69999999999999</ele>
        <time>2024-09-19T12:01:59Z</time>
      </trkpt>
      <trkpt lat="50.699832960963249" lon="13.231173036620021">
        <ele>409.18000000000001</ele>
        <time>2024-09-19T12:02:00Z</time>
      </trkpt>
      <trkpt lat="50.699880989268422" lon="13.231100030243397">
        <ele>409.18000000000001</ele>
        <time>2024-09-19T12:02:01Z</time>
      </trkpt>
      <trkpt lat="50.699937986209989" lon="13.231015037745237">
        <ele>409.18000000000001</ele>
        <time>2024-09-19T12:02:02Z</time>
      </trkpt>
      <trkpt lat="50.699998000636697" lon="13.230925016105175">
        <ele>409.66000000000003</ele>
        <time>2024-09-19T12:02:03Z</time>
      </trkpt>
      <trkpt lat="50.700062960386276" lon="13.23082803748548">
        <ele>410.13999999999999</ele>
        <time>2024-09-19T12:02:04Z</time>
      </trkpt>
      <trkpt lat="50.700107971206307" lon="13.23072200641036">
        <ele>410.13999999999999</ele>
        <time>2024-09-19T12:02:05Z</time>
      </trkpt>
      <trkpt lat="50.700279967859387" lon="13.230214985087514">
        <ele>411.10000000000002</ele>
        <time>2024-09-19T12:02:09Z</time>
      </trkpt>
      <trkpt lat="50.700320033356547" lon="13.230099985376">
        <ele>411.57999999999998</ele>
        <time>2024-09-19T12:02:10Z</time>
      </trkpt>
      <trkpt lat="50.70039002224803" lon="13.229893958196044">
        <ele>411.10000000000002</ele>
        <time>2024-09-19T12:02:12Z</time>
      </trkpt>
      <trkpt lat="50.700421035289764" lon="13.229802008718252">
        <ele>411.57999999999998</ele>
        <time>2024-09-19T12:02:13Z</time>
      </trkpt>
      <trkpt lat="50.700423968955874" lon="13.229792034253478">
        <ele>411.57999999999998</ele>
        <time>2024-09-19T12:02:14Z</time>
      </trkpt>
      <trkpt lat="50.700507033616304" lon="13.229708969593048">
        <ele>411.57999999999998</ele>
        <time>2024-09-19T12:02:15Z</time>
      </trkpt>
      <trkpt lat="50.700537962839007" lon="13.229678962379694">
        <ele>412.06</ele>
        <time>2024-09-19T12:02:16Z</time>
      </trkpt>
      <trkpt lat="50.70056302472949" lon="13.229653984308243">
        <ele>412.06</ele>
        <time>2024-09-19T12:02:17Z</time>
      </trkpt>
      <trkpt lat="50.7005849853158" lon="13.229619031772017">
        <ele>412.54000000000002</ele>
        <time>2024-09-19T12:02:18Z</time>
      </trkpt>
      <trkpt lat="50.700611975044012" lon="13.229559017345309">
        <ele>413.01999999999998</ele>
        <time>2024-09-19T12:02:19Z</time>
      </trkpt>
      <trkpt lat="50.700647011399269" lon="13.229481987655163">
        <ele>413.01999999999998</ele>
        <time>2024-09-19T12:02:20Z</time>
      </trkpt>
      <trkpt lat="50.700681963935494" lon="13.229405963793397">
        <ele>413.5</ele>
        <time>2024-09-19T12:02:21Z</time>
      </trkpt>
      <trkpt lat="50.700836023315787" lon="13.22928300127387">
        <ele>414.47000000000003</ele>
        <time>2024-09-19T12:02:23Z</time>
      </trkpt>
      <trkpt lat="50.700910035520792" lon="13.229222986847162">
        <ele>414.47000000000003</ele>
        <time>2024-09-19T12:02:24Z</time>
      </trkpt>
      <trkpt lat="50.700982036069036" lon="13.229164984077215">
        <ele>414.47000000000003</ele>
        <time>2024-09-19T12:02:25Z</time>
      </trkpt>
      <trkpt lat="50.701069962233305" lon="13.22917697019875">
        <ele>414.94999999999999</ele>
        <time>2024-09-19T12:02:26Z</time>
      </trkpt>
      <trkpt lat="50.701155038550496" lon="13.229215024039149">
        <ele>415.43000000000001</ele>
        <time>2024-09-19T12:02:27Z</time>
      </trkpt>
      <trkpt lat="50.701246988028288" lon="13.229255005717278">
        <ele>415.43000000000001</ele>
        <time>2024-09-19T12:02:28Z</time>
      </trkpt>
      <trkpt lat="50.701341032981873" lon="13.229295993223786">
        <ele>415.91000000000003</ele>
        <time>2024-09-19T12:02:29Z</time>
      </trkpt>
      <trkpt lat="50.70144203491509" lon="13.229258023202419">
        <ele>416.38999999999999</ele>
        <time>2024-09-19T12:02:30Z</time>
      </trkpt>
      <trkpt lat="50.701533984392881" lon="13.22921896353364">
        <ele>416.87</ele>
        <time>2024-09-19T12:02:31Z</time>
      </trkpt>
      <trkpt lat="50.701646972447634" lon="13.229170013219118">
        <ele>416.87</ele>
        <time>2024-09-19T12:02:32Z</time>
      </trkpt>
      <trkpt lat="50.701702041551471" lon="13.2290880382061">
        <ele>417.35000000000002</ele>
        <time>2024-09-19T12:02:33Z</time>
      </trkpt>
      <trkpt lat="50.701775969937444" lon="13.228976977989078">
        <ele>417.35000000000002</ele>
        <time>2024-09-19T12:02:34Z</time>
      </trkpt>
      <trkpt lat="50.701933968812227" lon="13.228741027414799">
        <ele>417.35000000000002</ele>
        <time>2024-09-19T12:02:36Z</time>
      </trkpt>
      <trkpt lat="50.702016027644277" lon="13.228612029924989">
        <ele>417.35000000000002</ele>
        <time>2024-09-19T12:02:37Z</time>
      </trkpt>
      <trkpt lat="50.702849021181464" lon="13.22717503644526">
        <ele>418.79000000000002</ele>
        <time>2024-09-19T12:02:47Z</time>
      </trkpt>
      <trkpt lat="50.703235007822514" lon="13.226444972679019">
        <ele>419.26999999999998</ele>
        <time>2024-09-19T12:02:52Z</time>
      </trkpt>
      <trkpt lat="50.703345984220505" lon="13.226290997117758">
        <ele>418.31</ele>
        <time>2024-09-19T12:02:55Z</time>
      </trkpt>
      <trkpt lat="50.704100020229816" lon="13.225297993049026">
        <ele>416.87</ele>
        <time>2024-09-19T12:03:07Z</time>
      </trkpt>
      <trkpt lat="50.704152993857861" lon="13.22521903552115">
        <ele>416.87</ele>
        <time>2024-09-19T12:03:08Z</time>
      </trkpt>
      <trkpt lat="50.704206973314285" lon="13.2251369766891">
        <ele>416.87</ele>
        <time>2024-09-19T12:03:09Z</time>
      </trkpt>
      <trkpt lat="50.704262964427471" lon="13.225052990019321">
        <ele>416.87</ele>
        <time>2024-09-19T12:03:10Z</time>
      </trkpt>
      <trkpt lat="50.704319961369038" lon="13.224967997521162">
        <ele>416.87</ele>
        <time>2024-09-19T12:03:11Z</time>
      </trkpt>
      <trkpt lat="50.704376958310604" lon="13.224881999194622">
        <ele>416.87</ele>
        <time>2024-09-19T12:03:12Z</time>
      </trkpt>
      <trkpt lat="50.704434039071202" lon="13.224796000868082">
        <ele>416.38999999999999</ele>
        <time>2024-09-19T12:03:14Z</time>
      </trkpt>
      <trkpt lat="50.704760011285543" lon="13.224308006465435">
        <ele>413.5</ele>
        <time>2024-09-19T12:03:19Z</time>
      </trkpt>
      <trkpt lat="50.704910969361663" lon="13.22408102452755">
        <ele>413.01999999999998</ele>
        <time>2024-09-19T12:03:20Z</time>
      </trkpt>
      <trkpt lat="50.70498900488019" lon="13.223965018987656">
        <ele>411.57999999999998</ele>
        <time>2024-09-19T12:03:22Z</time>
      </trkpt>
      <trkpt lat="50.70516100153327" lon="13.223767960444093">
        <ele>410.62</ele>
        <time>2024-09-19T12:03:24Z</time>
      </trkpt>
      <trkpt lat="50.705530978739262" lon="13.22354500181973">
        <ele>407.74000000000001</ele>
        <time>2024-09-19T12:03:28Z</time>
      </trkpt>
      <trkpt lat="50.705918977037072" lon="13.223322965204716">
        <ele>405.32999999999998</ele>
        <time>2024-09-19T12:03:32Z</time>
      </trkpt>
      <trkpt lat="50.706117963418365" lon="13.223190028220415">
        <ele>405.32999999999998</ele>
        <time>2024-09-19T12:03:33Z</time>
      </trkpt>
      <trkpt lat="50.706202033907175" lon="13.223086008802056">
        <ele>404.85000000000002</ele>
        <time>2024-09-19T12:03:34Z</time>
      </trkpt>
      <trkpt lat="50.706286020576954" lon="13.222981989383698">
        <ele>405.32999999999998</ele>
        <time>2024-09-19T12:03:35Z</time>
      </trkpt>
      <trkpt lat="50.706460028886795" lon="13.222765987738967">
        <ele>404.85000000000002</ele>
        <time>2024-09-19T12:03:38Z</time>
      </trkpt>
      <trkpt lat="50.706629008054733" lon="13.22255602106452">
        <ele>404.85000000000002</ele>
        <time>2024-09-19T12:03:40Z</time>
      </trkpt>
      <trkpt lat="50.707673979923129" lon="13.221196979284286">
        <ele>403.41000000000003</ele>
        <time>2024-09-19T12:03:51Z</time>
      </trkpt>
      <trkpt lat="50.707848994061351" lon="13.220966979861259">
        <ele>402.44999999999999</ele>
        <time>2024-09-19T12:03:54Z</time>
      </trkpt>
      <trkpt lat="50.707935998216271" lon="13.220851980149746">
        <ele>402.44999999999999</ele>
        <time>2024-09-19T12:03:55Z</time>
      </trkpt>
      <trkpt lat="50.70857796818018" lon="13.220061985775828">
        <ele>399.56999999999999</ele>
        <time>2024-09-19T12:04:03Z</time>
      </trkpt>
      <trkpt lat="50.708723980933428" lon="13.219925025478005">
        <ele>397.63999999999999</ele>
        <time>2024-09-19T12:04:09Z</time>
      </trkpt>
      <trkpt lat="50.708723980933428" lon="13.219925025478005">
        <ele>397.63999999999999</ele>
        <time>2024-09-19T12:04:38Z</time>
      </trkpt>
      <trkpt lat="50.708733033388853" lon="13.219917984679341">
        <ele>395.72000000000003</ele>
        <time>2024-09-19T12:05:05Z</time>
      </trkpt>
      <trkpt lat="50.708777038380504" lon="13.219883032143116">
        <ele>395.24000000000001</ele>
        <time>2024-09-19T12:05:06Z</time>
      </trkpt>
      <trkpt lat="50.708830012008548" lon="13.219841038808227">
        <ele>395.24000000000001</ele>
        <time>2024-09-19T12:05:07Z</time>
      </trkpt>
      <trkpt lat="50.708893965929747" lon="13.219788987189531">
        <ele>394.75999999999999</ele>
        <time>2024-09-19T12:05:08Z</time>
      </trkpt>
      <trkpt lat="50.708975018933415" lon="13.219737019389868">
        <ele>394.27999999999997</ele>
        <time>2024-09-19T12:05:09Z</time>
      </trkpt>
      <trkpt lat="50.709065962582827" lon="13.21969997137785">
        <ele>393.80000000000001</ele>
        <time>2024-09-19T12:05:10Z</time>
      </trkpt>
      <trkpt lat="50.710130967199802" lon="13.219251036643982">
        <ele>393.80000000000001</ele>
        <time>2024-09-19T12:05:20Z</time>
      </trkpt>
      <trkpt lat="50.71023004129529" lon="13.219192028045654">
        <ele>394.27999999999997</ele>
        <time>2024-09-19T12:05:21Z</time>
      </trkpt>
      <trkpt lat="50.710363984107971" lon="13.219116004183888">
        <ele>395.24000000000001</ele>
        <time>2024-09-19T12:05:22Z</time>
      </trkpt>
      <trkpt lat="50.710431039333344" lon="13.218970997259021">
        <ele>395.72000000000003</ele>
        <time>2024-09-19T12:05:23Z</time>
      </trkpt>
      <trkpt lat="50.71048803627491" lon="13.218809980899096">
        <ele>396.19999999999999</ele>
        <time>2024-09-19T12:05:24Z</time>
      </trkpt>
      <trkpt lat="50.71048803627491" lon="13.2184540014714">
        <ele>397.63999999999999</ele>
        <time>2024-09-19T12:05:26Z</time>
      </trkpt>
      <trkpt lat="50.710466997697949" lon="13.218274964019656">
        <ele>398.60000000000002</ele>
        <time>2024-09-19T12:05:27Z</time>
      </trkpt>
      <trkpt lat="50.710347974672914" lon="13.217953015118837">
        <ele>400.05000000000001</ele>
        <time>2024-09-19T12:05:28Z</time>
      </trkpt>
      <trkpt lat="50.710347974672914" lon="13.217953015118837">
        <ele>401.00999999999999</ele>
        <time>2024-09-19T12:05:29Z</time>
      </trkpt>
      <trkpt lat="50.710245966911316" lon="13.217857964336872">
        <ele>401.97000000000003</ele>
        <time>2024-09-19T12:05:30Z</time>
      </trkpt>
      <trkpt lat="50.710139013826847" lon="13.217785963788629">
        <ele>402.93000000000001</ele>
        <time>2024-09-19T12:05:31Z</time>
      </trkpt>
      <trkpt lat="50.710030971094966" lon="13.217714969068766">
        <ele>403.88999999999999</ele>
        <time>2024-09-19T12:05:32Z</time>
      </trkpt>
      <trkpt lat="50.709924018010497" lon="13.217642968520522">
        <ele>404.85000000000002</ele>
        <time>2024-09-19T12:05:33Z</time>
      </trkpt>
      <trkpt lat="50.709821004420519" lon="13.217567028477788">
        <ele>405.81</ele>
        <time>2024-09-19T12:05:34Z</time>
      </trkpt>
      <trkpt lat="50.709729976952076" lon="13.217483963817358">
        <ele>406.29000000000002</ele>
        <time>2024-09-19T12:05:35Z</time>
      </trkpt>
      <trkpt lat="50.709698041900992" lon="13.217373993247747">
        <ele>407.25999999999999</ele>
        <time>2024-09-19T12:05:36Z</time>
      </trkpt>
      <trkpt lat="50.709708016365767" lon="13.217273997142911">
        <ele>408.22000000000003</ele>
        <time>2024-09-19T12:05:37Z</time>
      </trkpt>
      <trkpt lat="50.709749003872275" lon="13.217177018523216">
        <ele>408.69999999999999</ele>
        <time>2024-09-19T12:05:38Z</time>
      </trkpt>
      <trkpt lat="50.709839025512338" lon="13.217123039066792">
        <ele>409.66000000000003</ele>
        <time>2024-09-19T12:05:39Z</time>
      </trkpt>
      <trkpt lat="50.710058966651559" lon="13.216993035748601">
        <ele>411.10000000000002</ele>
        <time>2024-09-19T12:05:40Z</time>
      </trkpt>
      <trkpt lat="50.7107890304178" lon="13.216367997229099">
        <ele>418.79000000000002</ele>
        <time>2024-09-19T12:05:48Z</time>
      </trkpt>
      <trkpt lat="50.710982987657189" lon="13.216165993362665">
        <ele>420.70999999999998</ele>
        <time>2024-09-19T12:05:50Z</time>
      </trkpt>
      <trkpt lat="50.711084995418787" lon="13.216044036671519">
        <ele>421.68000000000001</ele>
        <time>2024-09-19T12:05:51Z</time>
      </trkpt>
      <trkpt lat="50.711875995621085" lon="13.214920023456216">
        <ele>429.37</ele>
        <time>2024-09-19T12:05:58Z</time>
      </trkpt>
      <trkpt lat="50.711987977847457" lon="13.21471500210464">
        <ele>430.81</ele>
        <time>2024-09-19T12:05:59Z</time>
      </trkpt>
      <trkpt lat="50.712097026407719" lon="13.214514004066586">
        <ele>431.76999999999998</ele>
        <time>2024-09-19T12:06:00Z</time>
      </trkpt>
      <trkpt lat="50.712154023349285" lon="13.214306971058249">
        <ele>433.20999999999998</ele>
        <time>2024-09-19T12:06:01Z</time>
      </trkpt>
      <trkpt lat="50.712179001420736" lon="13.214058028534055">
        <ele>434.64999999999998</ele>
        <time>2024-09-19T12:06:02Z</time>
      </trkpt>
      <trkpt lat="50.712199034169316" lon="13.213787963613868">
        <ele>436.10000000000002</ele>
        <time>2024-09-19T12:06:03Z</time>
      </trkpt>
      <trkpt lat="50.712189981713891" lon="13.213470038026571">
        <ele>437.54000000000002</ele>
        <time>2024-09-19T12:06:04Z</time>
      </trkpt>
      <trkpt lat="50.71203701198101" lon="13.210906013846397">
        <ele>451</ele>
        <time>2024-09-19T12:06:11Z</time>
      </trkpt>
      <trkpt lat="50.712026031687856" lon="13.207513019442558">
        <ele>471.66000000000003</ele>
        <time>2024-09-19T12:06:20Z</time>
      </trkpt>
      <trkpt lat="50.712054027244449" lon="13.207218982279301">
        <ele>474.06999999999999</ele>
        <time>2024-09-19T12:06:21Z</time>
      </trkpt>
      <trkpt lat="50.712117981165648" lon="13.206885969266295">
        <ele>475.50999999999999</ele>
        <time>2024-09-19T12:06:22Z</time>
      </trkpt>
      <trkpt lat="50.712194005027413" lon="13.206558991223574">
        <ele>476.94999999999999</ele>
        <time>2024-09-19T12:06:23Z</time>
      </trkpt>
      <trkpt lat="50.712300958111882" lon="13.206225978210568">
        <ele>478.38999999999999</ele>
        <time>2024-09-19T12:06:24Z</time>
      </trkpt>
      <trkpt lat="50.712413024157286" lon="13.205878967419267">
        <ele>479.83999999999997</ele>
        <time>2024-09-19T12:06:25Z</time>
      </trkpt>
      <trkpt lat="50.713426982983947" lon="13.203420974314213">
        <ele>491.37</ele>
        <time>2024-09-19T12:06:32Z</time>
      </trkpt>
      <trkpt lat="50.713585987687111" lon="13.203128026798368">
        <ele>493.29000000000002</ele>
        <time>2024-09-19T12:06:33Z</time>
      </trkpt>
      <trkpt lat="50.714289983734488" lon="13.202053969725966">
        <ele>495.69999999999999</ele>
        <time>2024-09-19T12:06:38Z</time>
      </trkpt>
      <trkpt lat="50.714470027014613" lon="13.201741995289922">
        <ele>495.22000000000003</ele>
        <time>2024-09-19T12:06:40Z</time>
      </trkpt>
      <trkpt lat="50.714515959843993" lon="13.201603023335338">
        <ele>494.74000000000001</ele>
        <time>2024-09-19T12:06:41Z</time>
      </trkpt>
      <trkpt lat="50.715079978108406" lon="13.19974098354578">
        <ele>486.07999999999998</ele>
        <time>2024-09-19T12:06:51Z</time>
      </trkpt>
      <trkpt lat="50.715709961950779" lon="13.197544002905488">
        <ele>475.99000000000001</ele>
        <time>2024-09-19T12:07:05Z</time>
      </trkpt>
      <trkpt lat="50.715755978599191" lon="13.197379969060421">
        <ele>475.50999999999999</ele>
        <time>2024-09-19T12:07:06Z</time>
      </trkpt>
      <trkpt lat="50.716079017147422" lon="13.196615958586335">
        <ele>475.02999999999997</ele>
        <time>2024-09-19T12:07:10Z</time>
      </trkpt>
      <trkpt lat="50.716163003817201" lon="13.196503976359963">
        <ele>475.50999999999999</ele>
        <time>2024-09-19T12:07:11Z</time>
      </trkpt>
      <trkpt lat="50.716270040720701" lon="13.196403980255127">
        <ele>475.50999999999999</ele>
        <time>2024-09-19T12:07:12Z</time>
      </trkpt>
      <trkpt lat="50.717048970982432" lon="13.195709958672523">
        <ele>470.69999999999999</ele>
        <time>2024-09-19T12:07:19Z</time>
      </trkpt>
      <trkpt lat="50.717166988179088" lon="13.195631001144648">
        <ele>468.30000000000001</ele>
        <time>2024-09-19T12:07:21Z</time>
      </trkpt>
      <trkpt lat="50.717482985928655" lon="13.195608034729958">
        <ele>465.42000000000002</ele>
        <time>2024-09-19T12:07:24Z</time>
      </trkpt>
      <trkpt lat="50.717574013397098" lon="13.195597976446152">
        <ele>464.44999999999999</ele>
        <time>2024-09-19T12:07:25Z</time>
      </trkpt>
      <trkpt lat="50.717740980908275" lon="13.195535028353333">
        <ele>462.52999999999997</ele>
        <time>2024-09-19T12:07:27Z</time>
      </trkpt>
      <trkpt lat="50.717819016426802" lon="13.19548599421978">
        <ele>461.56999999999999</ele>
        <time>2024-09-19T12:07:28Z</time>
      </trkpt>
      <trkpt lat="50.717891016975045" lon="13.195423968136311">
        <ele>460.13</ele>
        <time>2024-09-19T12:07:29Z</time>
      </trkpt>
      <trkpt lat="50.71796502918005" lon="13.19535699672997">
        <ele>459.17000000000002</ele>
        <time>2024-09-19T12:07:30Z</time>
      </trkpt>
      <trkpt lat="50.718040969222784" lon="13.195288013666868">
        <ele>458.69</ele>
        <time>2024-09-19T12:07:31Z</time>
      </trkpt>
      <trkpt lat="50.718088997527957" lon="13.195172008126974">
        <ele>458.69</ele>
        <time>2024-09-19T12:07:32Z</time>
      </trkpt>
      <trkpt lat="50.718144988641143" lon="13.195037981495261">
        <ele>458.69</ele>
        <time>2024-09-19T12:07:33Z</time>
      </trkpt>
      <trkpt lat="50.718338023871183" lon="13.194469017907977">
        <ele>459.64999999999998</ele>
        <time>2024-09-19T12:07:37Z</time>
      </trkpt>
      <trkpt lat="50.718619991093874" lon="13.193279039114714">
        <ele>463.00999999999999</ele>
        <time>2024-09-19T12:07:46Z</time>
      </trkpt>
      <trkpt lat="50.718758963048458" lon="13.192873019725084">
        <ele>463.97000000000003</ele>
        <time>2024-09-19T12:07:50Z</time>
      </trkpt>
      <trkpt lat="50.718814032152295" lon="13.19271300919354">
        <ele>464.44999999999999</ele>
        <time>2024-09-19T12:07:52Z</time>
      </trkpt>
      <trkpt lat="50.718849990516901" lon="13.192655006423593">
        <ele>464.44999999999999</ele>
        <time>2024-09-19T12:07:53Z</time>
      </trkpt>
      <trkpt lat="50.718897012993693" lon="13.192579988390207">
        <ele>464.93000000000001</ele>
        <time>2024-09-19T12:07:54Z</time>
      </trkpt>
      <trkpt lat="50.71895400993526" lon="13.192519973963499">
        <ele>464.93000000000001</ele>
        <time>2024-09-19T12:07:55Z</time>
      </trkpt>
      <trkpt lat="50.719027016311884" lon="13.192473035305738">
        <ele>465.42000000000002</ele>
        <time>2024-09-19T12:07:56Z</time>
      </trkpt>
      <trkpt lat="50.719112008810043" lon="13.192417966201901">
        <ele>465.42000000000002</ele>
        <time>2024-09-19T12:07:57Z</time>
      </trkpt>
      <trkpt lat="50.719205969944596" lon="13.192357029765844">
        <ele>465.42000000000002</ele>
        <time>2024-09-19T12:07:58Z</time>
      </trkpt>
      <trkpt lat="50.719307977706194" lon="13.19230598397553">
        <ele>465.42000000000002</ele>
        <time>2024-09-19T12:07:59Z</time>
      </trkpt>
      <trkpt lat="50.719408979639411" lon="13.19230598397553">
        <ele>464.93000000000001</ele>
        <time>2024-09-19T12:08:00Z</time>
      </trkpt>
      <trkpt lat="50.719606960192323" lon="13.19230598397553">
        <ele>464.44999999999999</ele>
        <time>2024-09-19T12:08:02Z</time>
      </trkpt>
      <trkpt lat="50.71968499571085" lon="13.19230598397553">
        <ele>463.97000000000003</ele>
        <time>2024-09-19T12:08:03Z</time>
      </trkpt>
      <trkpt lat="50.719764037057757" lon="13.192299026995897">
        <ele>463.49000000000001</ele>
        <time>2024-09-19T12:08:04Z</time>
      </trkpt>
      <trkpt lat="50.719818016514182" lon="13.192232977598906">
        <ele>463.00999999999999</ele>
        <time>2024-09-19T12:08:05Z</time>
      </trkpt>
      <trkpt lat="50.719875013455749" lon="13.192156031727791">
        <ele>463.00999999999999</ele>
        <time>2024-09-19T12:08:06Z</time>
      </trkpt>
      <trkpt lat="50.719919018447399" lon="13.192065004259348">
        <ele>462.52999999999997</ele>
        <time>2024-09-19T12:08:07Z</time>
      </trkpt>
      <trkpt lat="50.720258988440037" lon="13.191352039575577">
        <ele>461.08999999999997</ele>
        <time>2024-09-19T12:08:14Z</time>
      </trkpt>
      <trkpt lat="50.720370970666409" lon="13.1912109721452">
        <ele>461.08999999999997</ele>
        <time>2024-09-19T12:08:16Z</time>
      </trkpt>
      <trkpt lat="50.720510026440024" lon="13.191154981032014">
        <ele>462.05000000000001</ele>
        <time>2024-09-19T12:08:18Z</time>
      </trkpt>
      <trkpt lat="50.720582026988268" lon="13.19112597964704">
        <ele>463.00999999999999</ele>
        <time>2024-09-19T12:08:19Z</time>
      </trkpt>
      <trkpt lat="50.72065201587975" lon="13.19110301323235">
        <ele>463.97000000000003</ele>
        <time>2024-09-19T12:08:20Z</time>
      </trkpt>
      <trkpt lat="50.720813032239676" lon="13.191084992140532">
        <ele>465.89999999999998</ele>
        <time>2024-09-19T12:08:22Z</time>
      </trkpt>
      <trkpt lat="50.720899030566216" lon="13.191076023504138">
        <ele>466.86000000000001</ele>
        <time>2024-09-19T12:08:23Z</time>
      </trkpt>
      <trkpt lat="50.721779968589544" lon="13.191003017127514">
        <ele>474.55000000000001</ele>
        <time>2024-09-19T12:08:34Z</time>
      </trkpt>
      <trkpt lat="50.721867978572845" lon="13.190998993813992">
        <ele>474.55000000000001</ele>
        <time>2024-09-19T12:08:35Z</time>
      </trkpt>
      <trkpt lat="50.722851008176804" lon="13.19112497381866">
        <ele>472.63</ele>
        <time>2024-09-19T12:08:46Z</time>
      </trkpt>
      <trkpt lat="50.722932983189821" lon="13.191139977425337">
        <ele>472.63</ele>
        <time>2024-09-19T12:08:47Z</time>
      </trkpt>
      <trkpt lat="50.723508987575769" lon="13.191247014328837">
        <ele>469.74000000000001</ele>
        <time>2024-09-19T12:08:56Z</time>
      </trkpt>
      <trkpt lat="50.723548969253898" lon="13.19125497713685">
        <ele>469.25999999999999</ele>
        <time>2024-09-19T12:08:57Z</time>
      </trkpt>
      <trkpt lat="50.723639996722341" lon="13.191271992400289">
        <ele>468.77999999999997</ele>
        <time>2024-09-19T12:08:59Z</time>
      </trkpt>
      <trkpt lat="50.724224969744682" lon="13.191367965191603">
        <ele>464.93000000000001</ele>
        <time>2024-09-19T12:09:06Z</time>
      </trkpt>
      <trkpt lat="50.724456980824471" lon="13.19140400737524">
        <ele>463.97000000000003</ele>
        <time>2024-09-19T12:09:08Z</time>
      </trkpt>
      <trkpt lat="50.724595030769706" lon="13.191374000161886">
        <ele>463.00999999999999</ele>
        <time>2024-09-19T12:09:09Z</time>
      </trkpt>
      <trkpt lat="50.724712964147329" lon="13.191315997391939">
        <ele>462.52999999999997</ele>
        <time>2024-09-19T12:09:10Z</time>
      </trkpt>
      <trkpt lat="50.725773023441434" lon="13.190416032448411">
        <ele>454.36000000000001</ele>
        <time>2024-09-19T12:09:20Z</time>
      </trkpt>
      <trkpt lat="50.727229965850711" lon="13.189145000651479">
        <ele>454.83999999999997</ele>
        <time>2024-09-19T12:09:33Z</time>
      </trkpt>
      <trkpt lat="50.728292958810925" lon="13.188209999352694">
        <ele>456.27999999999997</ele>
        <time>2024-09-19T12:09:42Z</time>
      </trkpt>
      <trkpt lat="50.729514034464955" lon="13.18704298697412">
        <ele>449.06999999999999</ele>
        <time>2024-09-19T12:09:50Z</time>
      </trkpt>
      <trkpt lat="50.731831965968013" lon="13.184679960832">
        <ele>436.10000000000002</ele>
        <time>2024-09-19T12:10:00Z</time>
      </trkpt>
      <trkpt lat="50.732975006103516" lon="13.183687962591648">
        <ele>428.39999999999998</ele>
        <time>2024-09-19T12:10:06Z</time>
      </trkpt>
      <trkpt lat="50.733138034120202" lon="13.183584026992321">
        <ele>426.95999999999998</ele>
        <time>2024-09-19T12:10:07Z</time>
      </trkpt>
      <trkpt lat="50.733395023271441" lon="13.183501968160272">
        <ele>423.60000000000002</ele>
        <time>2024-09-19T12:10:09Z</time>
      </trkpt>
      <trkpt lat="50.733499964699149" lon="13.183538010343909">
        <ele>420.70999999999998</ele>
        <time>2024-09-19T12:10:11Z</time>
      </trkpt>
      <trkpt lat="50.734278978779912" lon="13.184295985847712">
        <ele>412.54000000000002</ele>
        <time>2024-09-19T12:10:17Z</time>
      </trkpt>
      <trkpt lat="50.734392972663045" lon="13.184349965304136">
        <ele>411.10000000000002</ele>
        <time>2024-09-19T12:10:18Z</time>
      </trkpt>
      <trkpt lat="50.734477965161204" lon="13.184388019144535">
        <ele>410.13999999999999</ele>
        <time>2024-09-19T12:10:19Z</time>
      </trkpt>
      <trkpt lat="50.734539991244674" lon="13.184282993897796">
        <ele>409.18000000000001</ele>
        <time>2024-09-19T12:10:20Z</time>
      </trkpt>
      <trkpt lat="50.734606040641665" lon="13.184173023328185">
        <ele>408.22000000000003</ele>
        <time>2024-09-19T12:10:21Z</time>
      </trkpt>
      <trkpt lat="50.734614003449678" lon="13.184004966169596">
        <ele>407.25999999999999</ele>
        <time>2024-09-19T12:10:22Z</time>
      </trkpt>
      <trkpt lat="50.734622972086072" lon="13.183802962303162">
        <ele>406.29000000000002</ele>
        <time>2024-09-19T12:10:23Z</time>
      </trkpt>
      <trkpt lat="50.734637975692749" lon="13.183600958436728">
        <ele>404.85000000000002</ele>
        <time>2024-09-19T12:10:24Z</time>
      </trkpt>
      <trkpt lat="50.73465901426971" lon="13.183405995368958">
        <ele>403.41000000000003</ele>
        <time>2024-09-19T12:10:25Z</time>
      </trkpt>
      <trkpt lat="50.734671000391245" lon="13.183293007314205">
        <ele>402.44999999999999</ele>
        <time>2024-09-19T12:10:26Z</time>
      </trkpt>
      <trkpt lat="50.734744006767869" lon="13.183190999552608">
        <ele>401.00999999999999</ele>
        <time>2024-09-19T12:10:27Z</time>
      </trkpt>
      <trkpt lat="50.734793962910771" lon="13.183148000389338">
        <ele>399.56999999999999</ele>
        <time>2024-09-19T12:10:28Z</time>
      </trkpt>
      <trkpt lat="50.735509023070335" lon="13.183423010632396">
        <ele>392.83999999999997</ele>
        <time>2024-09-19T12:10:33Z</time>
      </trkpt>
      <trkpt lat="50.735655035823584" lon="13.18349601700902">
        <ele>391.38999999999999</ele>
        <time>2024-09-19T12:10:34Z</time>
      </trkpt>
      <trkpt lat="50.735783027485013" lon="13.183611016720533">
        <ele>389.94999999999999</ele>
        <time>2024-09-19T12:10:35Z</time>
      </trkpt>
      <trkpt lat="50.735879000276327" lon="13.183779995888472">
        <ele>388.50999999999999</ele>
        <time>2024-09-19T12:10:36Z</time>
      </trkpt>
      <trkpt lat="50.735940020531416" lon="13.183952998369932">
        <ele>387.06999999999999</ele>
        <time>2024-09-19T12:10:37Z</time>
      </trkpt>
      <trkpt lat="50.73599299415946" lon="13.184115020558238">
        <ele>386.11000000000001</ele>
        <time>2024-09-19T12:10:38Z</time>
      </trkpt>
      <trkpt lat="50.736067006364465" lon="13.184380978345871">
        <ele>384.66000000000003</ele>
        <time>2024-09-19T12:10:39Z</time>
      </trkpt>
      <trkpt lat="50.736087039113045" lon="13.184451973065734">
        <ele>382.74000000000001</ele>
        <time>2024-09-19T12:10:41Z</time>
      </trkpt>
      <trkpt lat="50.736087039113045" lon="13.184451973065734">
        <ele>381.77999999999997</ele>
        <time>2024-09-19T12:10:42Z</time>
      </trkpt>
      <trkpt lat="50.736127020791173" lon="13.184498995542526">
        <ele>379.86000000000001</ele>
        <time>2024-09-19T12:10:53Z</time>
      </trkpt>
      <trkpt lat="50.736149987205863" lon="13.184525985270739">
        <ele>376.97000000000003</ele>
        <time>2024-09-19T12:10:55Z</time>
      </trkpt>
      <trkpt lat="50.736227016896009" lon="13.184608966112137">
        <ele>374.08999999999997</ele>
        <time>2024-09-19T12:11:00Z</time>
      </trkpt>
      <trkpt lat="50.736282002180815" lon="13.184644002467394">
        <ele>373.13</ele>
        <time>2024-09-19T12:11:02Z</time>
      </trkpt>
      <trkpt lat="50.736939981579781" lon="13.184625981375575">
        <ele>368.80000000000001</ele>
        <time>2024-09-19T12:11:11Z</time>
      </trkpt>
      <trkpt lat="50.737021034583449" lon="13.184538977220654">
        <ele>365.44</ele>
        <time>2024-09-19T12:11:20Z</time>
      </trkpt>
      <trkpt lat="50.737021034583449" lon="13.184538977220654">
        <ele>365.44</ele>
        <time>2024-09-19T12:11:52Z</time>
      </trkpt>
      <trkpt lat="50.737021034583449" lon="13.184538977220654">
        <ele>365.92000000000002</ele>
        <time>2024-09-19T12:12:44Z</time>
      </trkpt>
      <trkpt lat="50.737021034583449" lon="13.184538977220654">
        <ele>365.44</ele>
        <time>2024-09-19T12:13:41Z</time>
      </trkpt>
      <trkpt lat="50.737021034583449" lon="13.184538977220654">
        <ele>364.48000000000002</ele>
        <time>2024-09-19T12:14:26Z</time>
      </trkpt>
      <trkpt lat="50.737021034583449" lon="13.184538977220654">
        <ele>364.48000000000002</ele>
        <time>2024-09-19T12:15:20Z</time>
      </trkpt>
      <trkpt lat="50.737021034583449" lon="13.184538977220654">
        <ele>364.95999999999998</ele>
        <time>2024-09-19T12:16:15Z</time>
      </trkpt>
      <trkpt lat="50.737021034583449" lon="13.184538977220654">
        <ele>364.95999999999998</ele>
        <time>2024-09-19T12:17:00Z</time>
      </trkpt>
      <trkpt lat="50.737021034583449" lon="13.184538977220654">
        <ele>364.95999999999998</ele>
        <time>2024-09-19T12:17:46Z</time>
      </trkpt>
      <trkpt lat="50.737021034583449" lon="13.184538977220654">
        <ele>365.92000000000002</ele>
        <time>2024-09-19T12:18:39Z</time>
      </trkpt>
      <trkpt lat="50.737021034583449" lon="13.184538977220654">
        <ele>365.92000000000002</ele>
        <time>2024-09-19T12:19:05Z</time>
      </trkpt>
      <trkpt lat="50.737021034583449" lon="13.184538977220654">
        <ele>365.92000000000002</ele>
        <time>2024-09-19T12:19:12Z</time>
      </trkpt>
      <trkpt lat="50.737025979906321" lon="13.184681972488761">
        <ele>370.73000000000002</ele>
        <time>2024-09-19T12:19:20Z</time>
      </trkpt>
      <trkpt lat="50.737025979906321" lon="13.184681972488761">
        <ele>370.73000000000002</ele>
        <time>2024-09-19T12:19:38Z</time>
      </trkpt>
      <trkpt lat="50.737033020704985" lon="13.184525985270739">
        <ele>364</ele>
        <time>2024-09-19T12:19:42Z</time>
      </trkpt>
      <trkpt lat="50.737083982676268" lon="13.184469994157553">
        <ele>363.04000000000002</ele>
        <time>2024-09-19T12:19:43Z</time>
      </trkpt>
      <trkpt lat="50.737146008759737" lon="13.184395981952548">
        <ele>362.55000000000001</ele>
        <time>2024-09-19T12:19:44Z</time>
      </trkpt>
      <trkpt lat="50.737496959045529" lon="13.183816960081458">
        <ele>363.04000000000002</ele>
        <time>2024-09-19T12:19:49Z</time>
      </trkpt>
      <trkpt lat="50.737585974857211" lon="13.18366901949048">
        <ele>363.04000000000002</ele>
        <time>2024-09-19T12:19:50Z</time>
      </trkpt>
      <trkpt lat="50.737722013145685" lon="13.18319896236062">
        <ele>364</ele>
        <time>2024-09-19T12:19:51Z</time>
      </trkpt>
      <trkpt lat="50.737749002873898" lon="13.182690013200045">
        <ele>367.36000000000001</ele>
        <time>2024-09-19T12:19:54Z</time>
      </trkpt>
      <trkpt lat="50.737764006480575" lon="13.182469988241792">
        <ele>368.31999999999999</ele>
        <time>2024-09-19T12:19:55Z</time>
      </trkpt>
      <trkpt lat="50.73784195818007" lon="13.182262033224106">
        <ele>369.27999999999997</ele>
        <time>2024-09-19T12:19:56Z</time>
      </trkpt>
      <trkpt lat="50.738104982301593" lon="13.181601036339998">
        <ele>372.17000000000002</ele>
        <time>2024-09-19T12:19:59Z</time>
      </trkpt>
      <trkpt lat="50.738383010029793" lon="13.180697970092297">
        <ele>376.49000000000001</ele>
        <time>2024-09-19T12:20:03Z</time>
      </trkpt>
      <trkpt lat="50.738426009193063" lon="13.180547012016177">
        <ele>377.94</ele>
        <time>2024-09-19T12:20:04Z</time>
      </trkpt>
      <trkpt lat="50.738543020561337" lon="13.180362023413181">
        <ele>378.89999999999998</ele>
        <time>2024-09-19T12:20:05Z</time>
      </trkpt>
      <trkpt lat="50.738575961440802" lon="13.180310977622867">
        <ele>379.86000000000001</ele>
        <time>2024-09-19T12:20:06Z</time>
      </trkpt>
      <trkpt lat="50.738650979474187" lon="13.180325981229544">
        <ele>381.30000000000001</ele>
        <time>2024-09-19T12:20:07Z</time>
      </trkpt>
      <trkpt lat="50.738791041076183" lon="13.180353976786137">
        <ele>383.22000000000003</ele>
        <time>2024-09-19T12:20:08Z</time>
      </trkpt>
      <trkpt lat="50.739030009135604" lon="13.180563021451235">
        <ele>385.63</ele>
        <time>2024-09-19T12:20:09Z</time>
      </trkpt>
      <trkpt lat="50.739626968279481" lon="13.181083034723997">
        <ele>394.75999999999999</ele>
        <time>2024-09-19T12:20:14Z</time>
      </trkpt>
      <trkpt lat="50.739729981869459" lon="13.181130979210138">
        <ele>395.72000000000003</ele>
        <time>2024-09-19T12:20:15Z</time>
      </trkpt>
      <trkpt lat="50.73983802460134" lon="13.181181019172072">
        <ele>397.63999999999999</ele>
        <time>2024-09-19T12:20:16Z</time>
      </trkpt>
      <trkpt lat="50.739943971857429" lon="13.181212032213807">
        <ele>400.52999999999997</ele>
        <time>2024-09-19T12:20:18Z</time>
      </trkpt>
      <trkpt lat="50.740790041163564" lon="13.18100399337709">
        <ele>410.62</ele>
        <time>2024-09-19T12:20:25Z</time>
      </trkpt>
      <trkpt lat="50.740898000076413" lon="13.18093903362751">
        <ele>412.06</ele>
        <time>2024-09-19T12:20:26Z</time>
      </trkpt>
      <trkpt lat="50.740991039201617" lon="13.18085596896708">
        <ele>413.98000000000002</ele>
        <time>2024-09-19T12:20:27Z</time>
      </trkpt>
      <trkpt lat="50.741043007001281" lon="13.180710962042212">
        <ele>415.91000000000003</ele>
        <time>2024-09-19T12:20:28Z</time>
      </trkpt>
      <trkpt lat="50.741094974800944" lon="13.180567966774106">
        <ele>417.35000000000002</ele>
        <time>2024-09-19T12:20:29Z</time>
      </trkpt>
      <trkpt lat="50.741485990583897" lon="13.179398020729423">
        <ele>428.39999999999998</ele>
        <time>2024-09-19T12:20:37Z</time>
      </trkpt>
      <trkpt lat="50.74151499196887" lon="13.179248990491033">
        <ele>429.37</ele>
        <time>2024-09-19T12:20:38Z</time>
      </trkpt>
      <trkpt lat="50.741526978090405" lon="13.179081017151475">
        <ele>430.81</ele>
        <time>2024-09-19T12:20:39Z</time>
      </trkpt>
      <trkpt lat="50.74149495922029" lon="13.178932992741466">
        <ele>431.29000000000002</ele>
        <time>2024-09-19T12:20:40Z</time>
      </trkpt>
      <trkpt lat="50.741445003077388" lon="13.178787985816598">
        <ele>432.73000000000002</ele>
        <time>2024-09-19T12:20:41Z</time>
      </trkpt>
      <trkpt lat="50.741375014185905" lon="13.178681032732129">
        <ele>433.69</ele>
        <time>2024-09-19T12:20:42Z</time>
      </trkpt>
      <trkpt lat="50.741301001980901" lon="13.178567038848996">
        <ele>434.64999999999998</ele>
        <time>2024-09-19T12:20:43Z</time>
      </trkpt>
      <trkpt lat="50.740881990641356" lon="13.177940994501114">
        <ele>438.98000000000002</ele>
        <time>2024-09-19T12:20:48Z</time>
      </trkpt>
      <trkpt lat="50.740746958181262" lon="13.177641006186604">
        <ele>440.89999999999998</ele>
        <time>2024-09-19T12:20:50Z</time>
      </trkpt>
      <trkpt lat="50.740678980946541" lon="13.177457023411989">
        <ele>441.38</ele>
        <time>2024-09-19T12:20:51Z</time>
      </trkpt>
      <trkpt lat="50.740650985389948" lon="13.177301036193967">
        <ele>441.86000000000001</ele>
        <time>2024-09-19T12:20:52Z</time>
      </trkpt>
      <trkpt lat="50.740642016753554" lon="13.177103977650404">
        <ele>442.33999999999997</ele>
        <time>2024-09-19T12:20:53Z</time>
      </trkpt>
      <trkpt lat="50.740650985389948" lon="13.176912032067776">
        <ele>443.31</ele>
        <time>2024-09-19T12:20:54Z</time>
      </trkpt>
      <trkpt lat="50.740665988996625" lon="13.176716985180974">
        <ele>444.26999999999998</ele>
        <time>2024-09-19T12:20:55Z</time>
      </trkpt>
      <trkpt lat="50.740790041163564" lon="13.175959009677172">
        <ele>448.11000000000001</ele>
        <time>2024-09-19T12:20:59Z</time>
      </trkpt>
      <trkpt lat="50.740807978436351" lon="13.175772009417415">
        <ele>449.06999999999999</ele>
        <time>2024-09-19T12:21:00Z</time>
      </trkpt>
      <trkpt lat="50.740818036720157" lon="13.174826027825475">
        <ele>455.80000000000001</ele>
        <time>2024-09-19T12:21:05Z</time>
      </trkpt>
      <trkpt lat="50.74071804061532" lon="13.173879040405154">
        <ele>463.49000000000001</ele>
        <time>2024-09-19T12:21:10Z</time>
      </trkpt>
      <trkpt lat="50.740700019523501" lon="13.173706037923694">
        <ele>464.93000000000001</ele>
        <time>2024-09-19T12:21:11Z</time>
      </trkpt>
      <trkpt lat="50.740481000393629" lon="13.172055976465344">
        <ele>474.06999999999999</ele>
        <time>2024-09-19T12:21:20Z</time>
      </trkpt>
      <trkpt lat="50.740133989602327" lon="13.169726980850101">
        <ele>478.38999999999999</ele>
        <time>2024-09-19T12:21:32Z</time>
      </trkpt>
      <trkpt lat="50.739854034036398" lon="13.16806904040277">
        <ele>476.94999999999999</ele>
        <time>2024-09-19T12:21:39Z</time>
      </trkpt>
      <trkpt lat="50.739821009337902" lon="13.167886985465884">
        <ele>476.94999999999999</ele>
        <time>2024-09-19T12:21:40Z</time>
      </trkpt>
      <trkpt lat="50.739409038797021" lon="13.165370989590883">
        <ele>476.47000000000003</ele>
        <time>2024-09-19T12:21:49Z</time>
      </trkpt>
      <trkpt lat="50.73919303715229" lon="13.164066011086106">
        <ele>482.24000000000001</ele>
        <time>2024-09-19T12:21:55Z</time>
      </trkpt>
      <trkpt lat="50.739158000797033" lon="13.163853026926517">
        <ele>483.68000000000001</ele>
        <time>2024-09-19T12:21:56Z</time>
      </trkpt>
      <trkpt lat="50.739121036604047" lon="13.163626966997981">
        <ele>485.12</ele>
        <time>2024-09-19T12:21:57Z</time>
      </trkpt>
      <trkpt lat="50.739093041047454" lon="13.162053013220429">
        <ele>494.74000000000001</ele>
        <time>2024-09-19T12:22:05Z</time>
      </trkpt>
      <trkpt lat="50.739137968048453" lon="13.161672977730632">
        <ele>496.66000000000003</ele>
        <time>2024-09-19T12:22:06Z</time>
      </trkpt>
      <trkpt lat="50.739137968048453" lon="13.161672977730632">
        <ele>498.10000000000002</ele>
        <time>2024-09-19T12:22:07Z</time>
      </trkpt>
      <trkpt lat="50.739212986081839" lon="13.161251032724977">
        <ele>500.01999999999998</ele>
        <time>2024-09-19T12:22:08Z</time>
      </trkpt>
      <trkpt lat="50.73949696496129" lon="13.16033698618412">
        <ele>507.23000000000002</ele>
        <time>2024-09-19T12:22:13Z</time>
      </trkpt>
      <trkpt lat="50.739926034584641" lon="13.158266991376877">
        <ele>514.44000000000005</ele>
        <time>2024-09-19T12:22:20Z</time>
      </trkpt>
      <trkpt lat="50.740216970443726" lon="13.155908994376659">
        <ele>522.13</ele>
        <time>2024-09-19T12:22:27Z</time>
      </trkpt>
      <trkpt lat="50.740545960143209" lon="13.153457958251238">
        <ele>536.54999999999995</ele>
        <time>2024-09-19T12:22:36Z</time>
      </trkpt>
      <trkpt lat="50.740531962364912" lon="13.153258971869946">
        <ele>537.99000000000001</ele>
        <time>2024-09-19T12:22:37Z</time>
      </trkpt>
      <trkpt lat="50.740512013435364" lon="13.153078006580472">
        <ele>539.44000000000005</ele>
        <time>2024-09-19T12:22:38Z</time>
      </trkpt>
      <trkpt lat="50.740464990958571" lon="13.152954038232565">
        <ele>540.39999999999998</ele>
        <time>2024-09-19T12:22:39Z</time>
      </trkpt>
      <trkpt lat="50.740377986803651" lon="13.152781035751104">
        <ele>541.36000000000001</ele>
        <time>2024-09-19T12:22:40Z</time>
      </trkpt>
      <trkpt lat="50.740286037325859" lon="13.152689002454281">
        <ele>542.79999999999995</ele>
        <time>2024-09-19T12:22:41Z</time>
      </trkpt>
      <trkpt lat="50.740286037325859" lon="13.152689002454281">
        <ele>543.75999999999999</ele>
        <time>2024-09-19T12:22:42Z</time>
      </trkpt>
      <trkpt lat="50.738845020532608" lon="13.151404978707433">
        <ele>548.57000000000005</ele>
        <time>2024-09-19T12:22:50Z</time>
      </trkpt>
      <trkpt lat="50.738701019436121" lon="13.151278998702765">
        <ele>549.04999999999995</ele>
        <time>2024-09-19T12:22:52Z</time>
      </trkpt>
      <trkpt lat="50.738515025004745" lon="13.151009017601609">
        <ele>549.52999999999997</ele>
        <time>2024-09-19T12:22:53Z</time>
      </trkpt>
      <trkpt lat="50.738479988649487" lon="13.150880020111799">
        <ele>549.52999999999997</ele>
        <time>2024-09-19T12:22:54Z</time>
      </trkpt>
      <trkpt lat="50.738455010578036" lon="13.150704000145197">
        <ele>550.00999999999999</ele>
        <time>2024-09-19T12:22:55Z</time>
      </trkpt>
      <trkpt lat="50.738502033054829" lon="13.150520017370582">
        <ele>549.52999999999997</ele>
        <time>2024-09-19T12:22:56Z</time>
      </trkpt>
      <trkpt lat="50.738565986976027" lon="13.150377022102475">
        <ele>549.04999999999995</ele>
        <time>2024-09-19T12:22:57Z</time>
      </trkpt>
      <trkpt lat="50.738667994737625" lon="13.15023603849113">
        <ele>548.57000000000005</ele>
        <time>2024-09-19T12:22:58Z</time>
      </trkpt>
      <trkpt lat="50.738779976963997" lon="13.150089019909501">
        <ele>547.61000000000001</ele>
        <time>2024-09-19T12:22:59Z</time>
      </trkpt>
      <trkpt lat="50.738904029130936" lon="13.149926997721195">
        <ele>546.64999999999998</ele>
        <time>2024-09-19T12:23:00Z</time>
      </trkpt>
      <trkpt lat="50.739834001287818" lon="13.148708017542958">
        <ele>540.88</ele>
        <time>2024-09-19T12:23:06Z</time>
      </trkpt>
      <trkpt lat="50.740799009799957" lon="13.14744302071631">
        <ele>531.75</ele>
        <time>2024-09-19T12:23:12Z</time>
      </trkpt>
      <trkpt lat="50.740944016724825" lon="13.147264989092946">
        <ele>530.29999999999995</ele>
        <time>2024-09-19T12:23:13Z</time>
      </trkpt>
      <trkpt lat="50.742444964125752" lon="13.145605958998203">
        <ele>519.25</ele>
        <time>2024-09-19T12:23:23Z</time>
      </trkpt>
      <trkpt lat="50.743729993700981" lon="13.144525028765202">
        <ele>513.48000000000002</ele>
        <time>2024-09-19T12:23:32Z</time>
      </trkpt>
      <trkpt lat="50.744044985622168" lon="13.144342973828316">
        <ele>513.96000000000004</ele>
        <time>2024-09-19T12:23:34Z</time>
      </trkpt>
      <trkpt lat="50.745040001347661" lon="13.144098976626992">
        <ele>517.33000000000004</ele>
        <time>2024-09-19T12:23:41Z</time>
      </trkpt>
      <trkpt lat="50.746101988479495" lon="13.14383796416223">
        <ele>524.05999999999995</ele>
        <time>2024-09-19T12:23:51Z</time>
      </trkpt>
      <trkpt lat="50.746313966810703" lon="13.143785996362567">
        <ele>525.01999999999998</ele>
        <time>2024-09-19T12:23:53Z</time>
      </trkpt>
      <trkpt lat="50.746400970965624" lon="13.143712989985943">
        <ele>525.01999999999998</ele>
        <time>2024-09-19T12:23:54Z</time>
      </trkpt>
      <trkpt lat="50.74643399566412" lon="13.143591033294797">
        <ele>525.5</ele>
        <time>2024-09-19T12:23:55Z</time>
      </trkpt>
      <trkpt lat="50.746665000915527" lon="13.142049014568329">
        <ele>528.38</ele>
        <time>2024-09-19T12:24:07Z</time>
      </trkpt>
      <trkpt lat="50.746749993413687" lon="13.141522966325283">
        <ele>528.86000000000001</ele>
        <time>2024-09-19T12:24:11Z</time>
      </trkpt>
      <trkpt lat="50.746783018112183" lon="13.141393968835473">
        <ele>528.86000000000001</ele>
        <time>2024-09-19T12:24:12Z</time>
      </trkpt>
      <trkpt lat="50.747223990038037" lon="13.139556990936399">
        <ele>526.46000000000004</ele>
        <time>2024-09-19T12:24:24Z</time>
      </trkpt>
      <trkpt lat="50.747275035828352" lon="13.139235964044929">
        <ele>526.46000000000004</ele>
        <time>2024-09-19T12:24:26Z</time>
      </trkpt>
      <trkpt lat="50.747295990586281" lon="13.139076037332416">
        <ele>525.98000000000002</ele>
        <time>2024-09-19T12:24:27Z</time>
      </trkpt>
      <trkpt lat="50.747375031933188" lon="13.138449992984533">
        <ele>526.46000000000004</ele>
        <time>2024-09-19T12:24:31Z</time>
      </trkpt>
      <trkpt lat="50.747393975034356" lon="13.138299034908414">
        <ele>526.46000000000004</ele>
        <time>2024-09-19T12:24:32Z</time>
      </trkpt>
      <trkpt lat="50.747414007782936" lon="13.138145981356502">
        <ele>526.46000000000004</ele>
        <time>2024-09-19T12:24:33Z</time>
      </trkpt>
      <trkpt lat="50.747481985017657" lon="13.138037016615272">
        <ele>525.98000000000002</ele>
        <time>2024-09-19T12:24:34Z</time>
      </trkpt>
      <trkpt lat="50.747560020536184" lon="13.137930985540152">
        <ele>525.98000000000002</ele>
        <time>2024-09-19T12:24:35Z</time>
      </trkpt>
      <trkpt lat="50.747641995549202" lon="13.13782000914216">
        <ele>525.98000000000002</ele>
        <time>2024-09-19T12:24:36Z</time>
      </trkpt>
      <trkpt lat="50.7477249763906" lon="13.137708026915789">
        <ele>525.5</ele>
        <time>2024-09-19T12:24:37Z</time>
      </trkpt>
      <trkpt lat="50.747806029394269" lon="13.137597972527146">
        <ele>525.5</ele>
        <time>2024-09-19T12:24:38Z</time>
      </trkpt>
      <trkpt lat="50.748680010437965" lon="13.136415034532547">
        <ele>522.61000000000001</ele>
        <time>2024-09-19T12:24:48Z</time>
      </trkpt>
      <trkpt lat="50.749050993472338" lon="13.135945983231068">
        <ele>523.58000000000004</ele>
        <time>2024-09-19T12:24:52Z</time>
      </trkpt>
      <trkpt lat="50.749268000945449" lon="13.135760994628072">
        <ele>524.05999999999995</ele>
        <time>2024-09-19T12:24:54Z</time>
      </trkpt>
      <trkpt lat="50.750524029135704" lon="13.134960019960999">
        <ele>529.82000000000005</ele>
        <time>2024-09-19T12:25:05Z</time>
      </trkpt>
      <trkpt lat="50.752394031733274" lon="13.133774986490607">
        <ele>534.63</ele>
        <time>2024-09-19T12:25:18Z</time>
      </trkpt>
      <trkpt lat="50.754458997398615" lon="13.132498003542423">
        <ele>543.27999999999997</ele>
        <time>2024-09-19T12:25:30Z</time>
      </trkpt>
      <trkpt lat="50.756804002448916" lon="13.130969982594252">
        <ele>552.40999999999997</ele>
        <time>2024-09-19T12:25:42Z</time>
      </trkpt>
      <trkpt lat="50.756995026022196" lon="13.130824975669384">
        <ele>552.40999999999997</ele>
        <time>2024-09-19T12:25:44Z</time>
      </trkpt>
      <trkpt lat="50.757186971604824" lon="13.130672005936503">
        <ele>552.40999999999997</ele>
        <time>2024-09-19T12:25:45Z</time>
      </trkpt>
      <trkpt lat="50.758957983925939" lon="13.128241002559662">
        <ele>543.75999999999999</ele>
        <time>2024-09-19T12:25:55Z</time>
      </trkpt>
      <trkpt lat="50.761053040623665" lon="13.125106003135443">
        <ele>529.34000000000003</ele>
        <time>2024-09-19T12:26:05Z</time>
      </trkpt>
      <trkpt lat="50.762026011943817" lon="13.123737992718816">
        <ele>521.64999999999998</ele>
        <time>2024-09-19T12:26:12Z</time>
      </trkpt>
      <trkpt lat="50.762591036036611" lon="13.123153019696474">
        <ele>517.33000000000004</ele>
        <time>2024-09-19T12:26:17Z</time>
      </trkpt>
      <trkpt lat="50.762682985514402" lon="13.123070038855076">
        <ele>516.85000000000002</ele>
        <time>2024-09-19T12:26:18Z</time>
      </trkpt>
      <trkpt lat="50.762778036296368" lon="13.123008012771606">
        <ele>516.37</ele>
        <time>2024-09-19T12:26:19Z</time>
      </trkpt>
      <trkpt lat="50.762880966067314" lon="13.122954033315182">
        <ele>516.37</ele>
        <time>2024-09-19T12:26:20Z</time>
      </trkpt>
      <trkpt lat="50.762992026284337" lon="13.122895024716854">
        <ele>516.37</ele>
        <time>2024-09-19T12:26:21Z</time>
      </trkpt>
      <trkpt lat="50.763470968231559" lon="13.122724033892155">
        <ele>516.37</ele>
        <time>2024-09-19T12:26:25Z</time>
      </trkpt>
      <trkpt lat="50.763595020398498" lon="13.12273602001369">
        <ele>516.37</ele>
        <time>2024-09-19T12:26:26Z</time>
      </trkpt>
      <trkpt lat="50.763713959604502" lon="13.122755968943238">
        <ele>515.88</ele>
        <time>2024-09-19T12:26:27Z</time>
      </trkpt>
      <trkpt lat="50.764758009463549" lon="13.123157965019345">
        <ele>509.63999999999999</ele>
        <time>2024-09-19T12:26:36Z</time>
      </trkpt>
      <trkpt lat="50.765103008598089" lon="13.123284028843045">
        <ele>507.70999999999998</ele>
        <time>2024-09-19T12:26:39Z</time>
      </trkpt>
      <trkpt lat="50.765206022188067" lon="13.123306995257735">
        <ele>507.23000000000002</ele>
        <time>2024-09-19T12:26:40Z</time>
      </trkpt>
      <trkpt lat="50.765383969992399" lon="13.123331973329186">
        <ele>506.75</ele>
        <time>2024-09-19T12:26:42Z</time>
      </trkpt>
      <trkpt lat="50.765522019937634" lon="13.123330967500806">
        <ele>506.26999999999998</ele>
        <time>2024-09-19T12:26:44Z</time>
      </trkpt>
      <trkpt lat="50.765571976080537" lon="13.123324010521173">
        <ele>505.79000000000002</ele>
        <time>2024-09-19T12:26:45Z</time>
      </trkpt>
      <trkpt lat="50.765612963587046" lon="13.123318981379271">
        <ele>505.79000000000002</ele>
        <time>2024-09-19T12:26:46Z</time>
      </trkpt>
      <trkpt lat="50.765635007992387" lon="13.123318981379271">
        <ele>505.31</ele>
        <time>2024-09-19T12:26:47Z</time>
      </trkpt>
      <trkpt lat="50.765698961913586" lon="13.123318981379271">
        <ele>505.31</ele>
        <time>2024-09-19T12:26:48Z</time>
      </trkpt>
      <trkpt lat="50.765693010762334" lon="13.123249998316169">
        <ele>505.79000000000002</ele>
        <time>2024-09-19T12:26:49Z</time>
      </trkpt>
      <trkpt lat="50.76568697579205" lon="13.123170034959912">
        <ele>505.31</ele>
        <time>2024-09-19T12:26:50Z</time>
      </trkpt>
      <trkpt lat="50.765679012984037" lon="13.123066015541553">
        <ele>504.82999999999998</ele>
        <time>2024-09-19T12:26:51Z</time>
      </trkpt>
      <trkpt lat="50.765669960528612" lon="13.122942969202995">
        <ele>504.82999999999998</ele>
        <time>2024-09-19T12:26:52Z</time>
      </trkpt>
      <trkpt lat="50.765658980235457" lon="13.12280198559165">
        <ele>504.35000000000002</ele>
        <time>2024-09-19T12:26:53Z</time>
      </trkpt>
      <trkpt lat="50.765658980235457" lon="13.122472995892167">
        <ele>503.87</ele>
        <time>2024-09-19T12:26:55Z</time>
      </trkpt>
      <trkpt lat="50.765675995498896" lon="13.122297981753945">
        <ele>503.87</ele>
        <time>2024-09-19T12:26:56Z</time>
      </trkpt>
      <trkpt lat="50.765716983005404" lon="13.122131014242768">
        <ele>503.38999999999999</ele>
        <time>2024-09-19T12:26:57Z</time>
      </trkpt>
      <trkpt lat="50.766129959374666" lon="13.120421022176743">
        <ele>497.62</ele>
        <time>2024-09-19T12:27:07Z</time>
      </trkpt>
      <trkpt lat="50.766376974061131" lon="13.119147978723049">
        <ele>493.29000000000002</ele>
        <time>2024-09-19T12:27:14Z</time>
      </trkpt>
      <trkpt lat="50.766413016244769" lon="13.118959972634912">
        <ele>492.81</ele>
        <time>2024-09-19T12:27:15Z</time>
      </trkpt>
      <trkpt lat="50.766902016475797" lon="13.116422016173601">
        <ele>479.35000000000002</ele>
        <time>2024-09-19T12:27:29Z</time>
      </trkpt>
      <trkpt lat="50.767374001443386" lon="13.113486003130674">
        <ele>468.77999999999997</ele>
        <time>2024-09-19T12:27:44Z</time>
      </trkpt>
      <trkpt lat="50.7674699742347" lon="13.112169038504362">
        <ele>463.97000000000003</ele>
        <time>2024-09-19T12:27:52Z</time>
      </trkpt>
      <trkpt lat="50.767251960933208" lon="13.110715029761195">
        <ele>460.13</ele>
        <time>2024-09-19T12:28:00Z</time>
      </trkpt>
      <trkpt lat="50.766854993999004" lon="13.109551034867764">
        <ele>456.75999999999999</ele>
        <time>2024-09-19T12:28:07Z</time>
      </trkpt>
      <trkpt lat="50.766804032027721" lon="13.109378032386303">
        <ele>456.75999999999999</ele>
        <time>2024-09-19T12:28:08Z</time>
      </trkpt>
      <trkpt lat="50.76675902120769" lon="13.109200000762939">
        <ele>456.75999999999999</ele>
        <time>2024-09-19T12:28:09Z</time>
      </trkpt>
      <trkpt lat="50.766602028161287" lon="13.10849198140204">
        <ele>455.80000000000001</ele>
        <time>2024-09-19T12:28:13Z</time>
      </trkpt>
      <trkpt lat="50.766450986266136" lon="13.106589037925005">
        <ele>449.06999999999999</ele>
        <time>2024-09-19T12:28:23Z</time>
      </trkpt>
      <trkpt lat="50.766412010416389" lon="13.104156022891402">
        <ele>434.17000000000002</ele>
        <time>2024-09-19T12:28:35Z</time>
      </trkpt>
      <trkpt lat="50.766369011253119" lon="13.103985032066703">
        <ele>432.25</ele>
        <time>2024-09-19T12:28:36Z</time>
      </trkpt>
      <trkpt lat="50.766324000433087" lon="13.103814963251352">
        <ele>430.81</ele>
        <time>2024-09-19T12:28:37Z</time>
      </trkpt>
      <trkpt lat="50.765915969386697" lon="13.102255007252097">
        <ele>419.26999999999998</ele>
        <time>2024-09-19T12:28:46Z</time>
      </trkpt>
      <trkpt lat="50.76587900519371" lon="13.102074963971972">
        <ele>416.87</ele>
        <time>2024-09-19T12:28:48Z</time>
      </trkpt>
      <trkpt lat="50.765848997980356" lon="13.101903973147273">
        <ele>415.91000000000003</ele>
        <time>2024-09-19T12:28:49Z</time>
      </trkpt>
      <trkpt lat="50.765848997980356" lon="13.101510023698211">
        <ele>413.5</ele>
        <time>2024-09-19T12:28:51Z</time>
      </trkpt>
      <trkpt lat="50.765932984650135" lon="13.101110039278865">
        <ele>411.10000000000002</ele>
        <time>2024-09-19T12:28:53Z</time>
      </trkpt>
      <trkpt lat="50.766101963818073" lon="13.10073402710259">
        <ele>409.66000000000003</ele>
        <time>2024-09-19T12:28:54Z</time>
      </trkpt>
      <trkpt lat="50.766216963529587" lon="13.100582985207438">
        <ele>406.76999999999998</ele>
        <time>2024-09-19T12:28:56Z</time>
      </trkpt>
      <trkpt lat="50.766339004039764" lon="13.100429009646177">
        <ele>405.32999999999998</ele>
        <time>2024-09-19T12:28:57Z</time>
      </trkpt>
      <trkpt lat="50.766476970165968" lon="13.100324990227818">
        <ele>403.88999999999999</ele>
        <time>2024-09-19T12:28:58Z</time>
      </trkpt>
      <trkpt lat="50.766622982919216" lon="13.10021803714335">
        <ele>402.44999999999999</ele>
        <time>2024-09-19T12:28:59Z</time>
      </trkpt>
      <trkpt lat="50.766780981794" lon="13.100141007453203">
        <ele>401.00999999999999</ele>
        <time>2024-09-19T12:29:00Z</time>
      </trkpt>
      <trkpt lat="50.767271993681788" lon="13.100012009963393">
        <ele>396.19999999999999</ele>
        <time>2024-09-19T12:29:03Z</time>
      </trkpt>
      <trkpt lat="50.76742697507143" lon="13.100007986649871">
        <ele>394.75999999999999</ele>
        <time>2024-09-19T12:29:04Z</time>
      </trkpt>
      <trkpt lat="50.767971966415644" lon="13.099994994699955">
        <ele>390.91000000000003</ele>
        <time>2024-09-19T12:29:07Z</time>
      </trkpt>
      <trkpt lat="50.768038015812635" lon="13.099917965009809">
        <ele>389.94999999999999</ele>
        <time>2024-09-19T12:29:08Z</time>
      </trkpt>
      <trkpt lat="50.768115967512131" lon="13.099822998046875">
        <ele>388.50999999999999</ele>
        <time>2024-09-19T12:29:09Z</time>
      </trkpt>
      <trkpt lat="50.768187968060374" lon="13.099736999720335">
        <ele>388.02999999999997</ele>
        <time>2024-09-19T12:29:10Z</time>
      </trkpt>
      <trkpt lat="50.76820096001029" lon="13.099613031372428">
        <ele>387.06999999999999</ele>
        <time>2024-09-19T12:29:11Z</time>
      </trkpt>
      <trkpt lat="50.768188973888755" lon="13.099496020004153">
        <ele>386.58999999999997</ele>
        <time>2024-09-19T12:29:12Z</time>
      </trkpt>
      <trkpt lat="50.768143963068724" lon="13.099387977272272">
        <ele>385.63</ele>
        <time>2024-09-19T12:29:13Z</time>
      </trkpt>
      <trkpt lat="50.768143963068724" lon="13.099387977272272">
        <ele>384.66000000000003</ele>
        <time>2024-09-19T12:29:14Z</time>
      </trkpt>
      <trkpt lat="50.768100041896105" lon="13.099285969510674">
        <ele>383.22000000000003</ele>
        <time>2024-09-19T12:29:15Z</time>
      </trkpt>
      <trkpt lat="50.768009014427662" lon="13.099271971732378">
        <ele>382.25999999999999</ele>
        <time>2024-09-19T12:29:16Z</time>
      </trkpt>
      <trkpt lat="50.76789703220129" lon="13.099255040287971">
        <ele>380.81999999999999</ele>
        <time>2024-09-19T12:29:17Z</time>
      </trkpt>
      <trkpt lat="50.767633002251387" lon="13.099214974790812">
        <ele>378.42000000000002</ele>
        <time>2024-09-19T12:29:19Z</time>
      </trkpt>
      <trkpt lat="50.767500987276435" lon="13.099168036133051">
        <ele>377.44999999999999</ele>
        <time>2024-09-19T12:29:20Z</time>
      </trkpt>
      <trkpt lat="50.767381964251399" lon="13.099074997007847">
        <ele>376.00999999999999</ele>
        <time>2024-09-19T12:29:21Z</time>
      </trkpt>
      <trkpt lat="50.767007963731885" lon="13.098783977329731">
        <ele>371.69</ele>
        <time>2024-09-19T12:29:24Z</time>
      </trkpt>
      <trkpt lat="50.766771007329226" lon="13.098599994555116">
        <ele>369.75999999999999</ele>
        <time>2024-09-19T12:29:25Z</time>
      </trkpt>
      <trkpt lat="50.766646033152938" lon="13.098592031747103">
        <ele>368.31999999999999</ele>
        <time>2024-09-19T12:29:26Z</time>
      </trkpt>
      <trkpt lat="50.766646033152938" lon="13.098592031747103">
        <ele>366.88</ele>
        <time>2024-09-19T12:29:27Z</time>
      </trkpt>
      <trkpt lat="50.766518963500857" lon="13.098582979291677">
        <ele>365.44</ele>
        <time>2024-09-19T12:29:28Z</time>
      </trkpt>
      <trkpt lat="50.76626599766314" lon="13.098651962354779">
        <ele>364.48000000000002</ele>
        <time>2024-09-19T12:29:29Z</time>
      </trkpt>
      <trkpt lat="50.76626599766314" lon="13.098651962354779">
        <ele>363.04000000000002</ele>
        <time>2024-09-19T12:29:30Z</time>
      </trkpt>
      <trkpt lat="50.766148986294866" lon="13.09869303368032">
        <ele>362.06999999999999</ele>
        <time>2024-09-19T12:29:31Z</time>
      </trkpt>
      <trkpt lat="50.76605100184679" lon="13.098725974559784">
        <ele>360.63</ele>
        <time>2024-09-19T12:29:32Z</time>
      </trkpt>
      <trkpt lat="50.765976989641786" lon="13.098750030621886">
        <ele>359.67000000000002</ele>
        <time>2024-09-19T12:29:33Z</time>
      </trkpt>
      <trkpt lat="50.765885040163994" lon="13.098666965961456">
        <ele>359.19</ele>
        <time>2024-09-19T12:29:34Z</time>
      </trkpt>
      <trkpt lat="50.765805998817086" lon="13.098595971241593">
        <ele>358.23000000000002</ele>
        <time>2024-09-19T12:29:35Z</time>
      </trkpt>
      <trkpt lat="50.765711031854153" lon="13.098350968211889">
        <ele>357.26999999999998</ele>
        <time>2024-09-19T12:29:36Z</time>
      </trkpt>
      <trkpt lat="50.765711031854153" lon="13.098350968211889">
        <ele>356.31</ele>
        <time>2024-09-19T12:29:37Z</time>
      </trkpt>
      <trkpt lat="50.765697034075856" lon="13.098161034286022">
        <ele>355.33999999999997</ele>
        <time>2024-09-19T12:29:38Z</time>
      </trkpt>
      <trkpt lat="50.76574900187552" lon="13.098022984340787">
        <ele>354.86000000000001</ele>
        <time>2024-09-19T12:29:39Z</time>
      </trkpt>
      <trkpt lat="50.76589903794229" lon="13.097726013511419">
        <ele>353.89999999999998</ele>
        <time>2024-09-19T12:29:40Z</time>
      </trkpt>
      <trkpt lat="50.765996016561985" lon="13.097573965787888">
        <ele>351.5</ele>
        <time>2024-09-19T12:29:42Z</time>
      </trkpt>
      <trkpt lat="50.76641796156764" lon="13.096907017752528">
        <ele>347.64999999999998</ele>
        <time>2024-09-19T12:29:46Z</time>
      </trkpt>
      <trkpt lat="50.76652399264276" lon="13.096741978079081">
        <ele>346.69</ele>
        <time>2024-09-19T12:29:47Z</time>
      </trkpt>
      <trkpt lat="50.766775030642748" lon="13.096516001969576">
        <ele>345.73000000000002</ele>
        <time>2024-09-19T12:29:48Z</time>
      </trkpt>
      <trkpt lat="50.766924982890487" lon="13.096483983099461">
        <ele>344.76999999999998</ele>
        <time>2024-09-19T12:29:49Z</time>
      </trkpt>
      <trkpt lat="50.767080970108509" lon="13.096468979492784">
        <ele>342.85000000000002</ele>
        <time>2024-09-19T12:29:51Z</time>
      </trkpt>
      <trkpt lat="50.768037009984255" lon="13.096387004479766">
        <ele>335.16000000000003</ele>
        <time>2024-09-19T12:29:58Z</time>
      </trkpt>
      <trkpt lat="50.768117979168892" lon="13.096340987831354">
        <ele>334.19999999999999</ele>
        <time>2024-09-19T12:29:59Z</time>
      </trkpt>
      <trkpt lat="50.768190985545516" lon="13.096176031976938">
        <ele>333.23000000000002</ele>
        <time>2024-09-19T12:30:00Z</time>
      </trkpt>
      <trkpt lat="50.768218981102109" lon="13.096083998680115">
        <ele>332.75</ele>
        <time>2024-09-19T12:30:01Z</time>
      </trkpt>
      <trkpt lat="50.768195008859038" lon="13.095990037545562">
        <ele>330.82999999999998</ele>
        <time>2024-09-19T12:30:03Z</time>
      </trkpt>
      <trkpt lat="50.768137006089091" lon="13.095899010077119">
        <ele>329.87</ele>
        <time>2024-09-19T12:30:04Z</time>
      </trkpt>
      <trkpt lat="50.768073974177241" lon="13.095807982608676">
        <ele>328.91000000000003</ele>
        <time>2024-09-19T12:30:05Z</time>
      </trkpt>
      <trkpt lat="50.767974983900785" lon="13.095760038122535">
        <ele>327.94999999999999</ele>
        <time>2024-09-19T12:30:06Z</time>
      </trkpt>
      <trkpt lat="50.767867024987936" lon="13.09570899233222">
        <ele>326.99000000000001</ele>
        <time>2024-09-19T12:30:07Z</time>
      </trkpt>
      <trkpt lat="50.766895981505513" lon="13.095199037343264">
        <ele>316.88999999999999</ele>
        <time>2024-09-19T12:30:16Z</time>
      </trkpt>
      <trkpt lat="50.766805959865451" lon="13.095130976289511">
        <ele>315.93000000000001</ele>
        <time>2024-09-19T12:30:17Z</time>
      </trkpt>
      <trkpt lat="50.766719961538911" lon="13.095065010711551">
        <ele>314.97000000000003</ele>
        <time>2024-09-19T12:30:18Z</time>
      </trkpt>
      <trkpt lat="50.766655001789331" lon="13.09495696797967">
        <ele>314.49000000000001</ele>
        <time>2024-09-19T12:30:19Z</time>
      </trkpt>
      <trkpt lat="50.766606973484159" lon="13.094830987975001">
        <ele>313.52999999999997</ele>
        <time>2024-09-19T12:30:20Z</time>
      </trkpt>
      <trkpt lat="50.766455009579659" lon="13.094443995505571">
        <ele>311.12</ele>
        <time>2024-09-19T12:30:23Z</time>
      </trkpt>
      <trkpt lat="50.766404969617724" lon="13.094317009672523">
        <ele>310.63999999999999</ele>
        <time>2024-09-19T12:30:24Z</time>
      </trkpt>
      <trkpt lat="50.766331041231751" lon="13.094219025224447">
        <ele>310.16000000000003</ele>
        <time>2024-09-19T12:30:25Z</time>
      </trkpt>
      <trkpt lat="50.766247976571321" lon="13.094148030504584">
        <ele>308.72000000000003</ele>
        <time>2024-09-19T12:30:26Z</time>
      </trkpt>
      <trkpt lat="50.766162984073162" lon="13.09407502412796">
        <ele>307.75999999999999</ele>
        <time>2024-09-19T12:30:27Z</time>
      </trkpt>
      <trkpt lat="50.766074974089861" lon="13.094000006094575">
        <ele>306.80000000000001</ele>
        <time>2024-09-19T12:30:28Z</time>
      </trkpt>
      <trkpt lat="50.765988975763321" lon="13.09392599388957">
        <ele>305.83999999999997</ele>
        <time>2024-09-19T12:30:29Z</time>
      </trkpt>
      <trkpt lat="50.765505004674196" lon="13.09355802834034">
        <ele>300.06999999999999</ele>
        <time>2024-09-19T12:30:35Z</time>
      </trkpt>
      <trkpt lat="50.765146007761359" lon="13.093420984223485">
        <ele>298.63</ele>
        <time>2024-09-19T12:30:39Z</time>
      </trkpt>
      <trkpt lat="50.765055986121297" lon="13.093375973403454">
        <ele>298.63</ele>
        <time>2024-09-19T12:30:40Z</time>
      </trkpt>
      <trkpt lat="50.764974011108279" lon="13.093321993947029">
        <ele>298.63</ele>
        <time>2024-09-19T12:30:41Z</time>
      </trkpt>
      <trkpt lat="50.764905028045177" lon="13.093235995620489">
        <ele>298.63</ele>
        <time>2024-09-19T12:30:42Z</time>
      </trkpt>
      <trkpt lat="50.76484702527523" lon="13.093113033100963">
        <ele>298.63</ele>
        <time>2024-09-19T12:30:43Z</time>
      </trkpt>
      <trkpt lat="50.764233972877264" lon="13.091811994090676">
        <ele>299.11000000000001</ele>
        <time>2024-09-19T12:30:52Z</time>
      </trkpt>
      <trkpt lat="50.763886962085962" lon="13.091074973344803">
        <ele>301.50999999999999</ele>
        <time>2024-09-19T12:30:59Z</time>
      </trkpt>
      <trkpt lat="50.763841029256582" lon="13.090966008603573">
        <ele>301.99000000000001</ele>
        <time>2024-09-19T12:31:00Z</time>
      </trkpt>
      <trkpt lat="50.763803981244564" lon="13.090856038033962">
        <ele>302.47000000000003</ele>
        <time>2024-09-19T12:31:01Z</time>
      </trkpt>
      <trkpt lat="50.763757964596152" lon="13.090750006958842">
        <ele>302.94999999999999</ele>
        <time>2024-09-19T12:31:02Z</time>
      </trkpt>
      <trkpt lat="50.763705996796489" lon="13.090653028339148">
        <ele>302.94999999999999</ele>
        <time>2024-09-19T12:31:03Z</time>
      </trkpt>
      <trkpt lat="50.7636449765414" lon="13.090555965900421">
        <ele>303.43000000000001</ele>
        <time>2024-09-19T12:31:04Z</time>
      </trkpt>
      <trkpt lat="50.763569036498666" lon="13.090480025857687">
        <ele>303.43000000000001</ele>
        <time>2024-09-19T12:31:05Z</time>
      </trkpt>
      <trkpt lat="50.762993032112718" lon="13.090076018124819">
        <ele>306.80000000000001</ele>
        <time>2024-09-19T12:31:10Z</time>
      </trkpt>
      <trkpt lat="50.761766005307436" lon="13.088952004909515">
        <ele>318.32999999999998</ele>
        <time>2024-09-19T12:31:19Z</time>
      </trkpt>
      <trkpt lat="50.760267991572618" lon="13.087641997262836">
        <ele>334.68000000000001</ele>
        <time>2024-09-19T12:31:30Z</time>
      </trkpt>
      <trkpt lat="50.759910000488162" lon="13.087171018123627">
        <ele>338.04000000000002</ele>
        <time>2024-09-19T12:31:32Z</time>
      </trkpt>
      <trkpt lat="50.759707996621728" lon="13.086836999282241">
        <ele>342.85000000000002</ele>
        <time>2024-09-19T12:31:35Z</time>
      </trkpt>
      <trkpt lat="50.759511021897197" lon="13.086716970428824">
        <ele>346.20999999999998</ele>
        <time>2024-09-19T12:31:37Z</time>
      </trkpt>
      <trkpt lat="50.759404990822077" lon="13.086674977093935">
        <ele>347.64999999999998</ele>
        <time>2024-09-19T12:31:38Z</time>
      </trkpt>
      <trkpt lat="50.75906896032393" lon="13.086480014026165">
        <ele>351.98000000000002</ele>
        <time>2024-09-19T12:31:41Z</time>
      </trkpt>
      <trkpt lat="50.758177964016795" lon="13.08597601018846">
        <ele>361.11000000000001</ele>
        <time>2024-09-19T12:31:47Z</time>
      </trkpt>
      <trkpt lat="50.758018037304282" lon="13.085939968004823">
        <ele>362.55000000000001</ele>
        <time>2024-09-19T12:31:48Z</time>
      </trkpt>
      <trkpt lat="50.756923025473952" lon="13.085864027962089">
        <ele>370.73000000000002</ele>
        <time>2024-09-19T12:31:54Z</time>
      </trkpt>
      <trkpt lat="50.756781036034226" lon="13.085812982171774">
        <ele>371.69</ele>
        <time>2024-09-19T12:31:55Z</time>
      </trkpt>
      <trkpt lat="50.756638962775469" lon="13.08576101437211">
        <ele>372.64999999999998</ele>
        <time>2024-09-19T12:31:56Z</time>
      </trkpt>
      <trkpt lat="50.756528992205858" lon="13.085642997175455">
        <ele>375.52999999999997</ele>
        <time>2024-09-19T12:31:58Z</time>
      </trkpt>
      <trkpt lat="50.756421033293009" lon="13.085486004129052">
        <ele>376.49000000000001</ele>
        <time>2024-09-19T12:31:59Z</time>
      </trkpt>
      <trkpt lat="50.756086008623242" lon="13.084716964513063">
        <ele>381.30000000000001</ele>
        <time>2024-09-19T12:32:03Z</time>
      </trkpt>
      <trkpt lat="50.755988024175167" lon="13.084566006436944">
        <ele>381.77999999999997</ele>
        <time>2024-09-19T12:32:04Z</time>
      </trkpt>
      <trkpt lat="50.755905965343118" lon="13.084438014775515">
        <ele>382.25999999999999</ele>
        <time>2024-09-19T12:32:05Z</time>
      </trkpt>
      <trkpt lat="50.755808986723423" lon="13.084374982863665">
        <ele>382.25999999999999</ele>
        <time>2024-09-19T12:32:06Z</time>
      </trkpt>
      <trkpt lat="50.755693987011909" lon="13.084316980093718">
        <ele>382.74000000000001</ele>
        <time>2024-09-19T12:32:07Z</time>
      </trkpt>
      <trkpt lat="50.7551349978894" lon="13.084284961223602">
        <ele>384.66000000000003</ele>
        <time>2024-09-19T12:32:10Z</time>
      </trkpt>
      <trkpt lat="50.755030978471041" lon="13.084232993423939">
        <ele>385.63</ele>
        <time>2024-09-19T12:32:11Z</time>
      </trkpt>
      <trkpt lat="50.754941962659359" lon="13.084157975390553">
        <ele>386.58999999999997</ele>
        <time>2024-09-19T12:32:12Z</time>
      </trkpt>
      <trkpt lat="50.754875997081399" lon="13.084053033962846">
        <ele>387.55000000000001</ele>
        <time>2024-09-19T12:32:13Z</time>
      </trkpt>
      <trkpt lat="50.754845989868045" lon="13.083912972360849">
        <ele>388.50999999999999</ele>
        <time>2024-09-19T12:32:14Z</time>
      </trkpt>
      <trkpt lat="50.754822017624974" lon="13.083749022334814">
        <ele>389.47000000000003</ele>
        <time>2024-09-19T12:32:15Z</time>
      </trkpt>
      <trkpt lat="50.754795027896762" lon="13.083561016246676">
        <ele>390.43000000000001</ele>
        <time>2024-09-19T12:32:16Z</time>
      </trkpt>
      <trkpt lat="50.754766026511788" lon="13.083351971581578">
        <ele>391.38999999999999</ele>
        <time>2024-09-19T12:32:17Z</time>
      </trkpt>
      <trkpt lat="50.754644991829991" lon="13.082671025767922">
        <ele>393.80000000000001</ele>
        <time>2024-09-19T12:32:20Z</time>
      </trkpt>
      <trkpt lat="50.754566034302115" lon="13.08247497305274">
        <ele>394.75999999999999</ele>
        <time>2024-09-19T12:32:21Z</time>
      </trkpt>
      <trkpt lat="50.754487998783588" lon="13.08227900415659">
        <ele>395.72000000000003</ele>
        <time>2024-09-19T12:32:22Z</time>
      </trkpt>
      <trkpt lat="50.753788026049733" lon="13.080558031797409">
        <ele>398.60000000000002</ele>
        <time>2024-09-19T12:32:30Z</time>
      </trkpt>
      <trkpt lat="50.752878002822399" lon="13.078336995095015">
        <ele>396.19999999999999</ele>
        <time>2024-09-19T12:32:41Z</time>
      </trkpt>
      <trkpt lat="50.752695025876164" lon="13.077827040106058">
        <ele>394.27999999999997</ele>
        <time>2024-09-19T12:32:45Z</time>
      </trkpt>
      <trkpt lat="50.752630988135934" lon="13.077471982687712">
        <ele>392.83999999999997</ele>
        <time>2024-09-19T12:32:47Z</time>
      </trkpt>
      <trkpt lat="50.752562005072832" lon="13.076945012435317">
        <ele>390.91000000000003</ele>
        <time>2024-09-19T12:32:50Z</time>
      </trkpt>
      <trkpt lat="50.752498973160982" lon="13.075292017310858">
        <ele>385.14999999999998</ele>
        <time>2024-09-19T12:33:00Z</time>
      </trkpt>
      <trkpt lat="50.752652026712894" lon="13.073949990794063">
        <ele>380.81999999999999</ele>
        <time>2024-09-19T12:33:08Z</time>
      </trkpt>
      <trkpt lat="50.75264398008585" lon="13.073826022446156">
        <ele>380.33999999999997</ele>
        <time>2024-09-19T12:33:09Z</time>
      </trkpt>
      <trkpt lat="50.752625958994031" lon="13.073699036613107">
        <ele>379.86000000000001</ele>
        <time>2024-09-19T12:33:10Z</time>
      </trkpt>
      <trkpt lat="50.752608021721244" lon="13.073580013588071">
        <ele>378.42000000000002</ele>
        <time>2024-09-19T12:33:12Z</time>
      </trkpt>
      <trkpt lat="50.752540966495872" lon="13.073319001123309">
        <ele>377.44999999999999</ele>
        <time>2024-09-19T12:33:14Z</time>
      </trkpt>
      <trkpt lat="50.752502996474504" lon="13.07321397587657">
        <ele>375.05000000000001</ele>
        <time>2024-09-19T12:33:21Z</time>
      </trkpt>
      <trkpt lat="50.752497967332602" lon="13.073198972269893">
        <ele>373.61000000000001</ele>
        <time>2024-09-19T12:33:36Z</time>
      </trkpt>
      <trkpt lat="50.752451028674841" lon="13.073181034997106">
        <ele>372.64999999999998</ele>
        <time>2024-09-19T12:33:37Z</time>
      </trkpt>
      <trkpt lat="50.752410041168332" lon="13.073222022503614">
        <ele>371.69</ele>
        <time>2024-09-19T12:33:38Z</time>
      </trkpt>
      <trkpt lat="50.752353966236115" lon="13.073284970596433">
        <ele>370.73000000000002</ele>
        <time>2024-09-19T12:33:39Z</time>
      </trkpt>
      <trkpt lat="50.752293029800057" lon="13.073368035256863">
        <ele>370.24000000000001</ele>
        <time>2024-09-19T12:33:40Z</time>
      </trkpt>
      <trkpt lat="50.752025982365012" lon="13.073819987475872">
        <ele>367.83999999999997</ele>
        <time>2024-09-19T12:33:43Z</time>
      </trkpt>
      <trkpt lat="50.751958005130291" lon="13.073946973308921">
        <ele>367.36000000000001</ele>
        <time>2024-09-19T12:33:44Z</time>
      </trkpt>
      <trkpt lat="50.751386024057865" lon="13.07497501373291">
        <ele>362.06999999999999</ele>
        <time>2024-09-19T12:33:53Z</time>
      </trkpt>
      <trkpt lat="50.751279992982745" lon="13.075052965432405">
        <ele>361.58999999999997</ele>
        <time>2024-09-19T12:33:54Z</time>
      </trkpt>
      <trkpt lat="50.750444987788796" lon="13.075521010905504">
        <ele>355.82999999999998</ele>
        <time>2024-09-19T12:34:05Z</time>
      </trkpt>
      <trkpt lat="50.750359995290637" lon="13.075559986755252">
        <ele>354.86000000000001</ele>
        <time>2024-09-19T12:34:06Z</time>
      </trkpt>
      <trkpt lat="50.750186992809176" lon="13.075628969818354">
        <ele>352.94</ele>
        <time>2024-09-19T12:34:08Z</time>
      </trkpt>
      <trkpt lat="50.749122994020581" lon="13.075320012867451">
        <ele>344.76999999999998</ele>
        <time>2024-09-19T12:34:20Z</time>
      </trkpt>
      <trkpt lat="50.748055977746844" lon="13.074898989871144">
        <ele>338.51999999999998</ele>
        <time>2024-09-19T12:34:31Z</time>
      </trkpt>
      <trkpt lat="50.747661022469401" lon="13.074744008481503">
        <ele>337.56</ele>
        <time>2024-09-19T12:34:37Z</time>
      </trkpt>
      <trkpt lat="50.747520960867405" lon="13.07463102042675">
        <ele>337.07999999999998</ele>
        <time>2024-09-19T12:34:38Z</time>
      </trkpt>
      <trkpt lat="50.7474659755826" lon="13.074561031535268">
        <ele>337.07999999999998</ele>
        <time>2024-09-19T12:34:40Z</time>
      </trkpt>
      <trkpt lat="50.747437980026007" lon="13.074443014338613">
        <ele>337.07999999999998</ele>
        <time>2024-09-19T12:34:41Z</time>
      </trkpt>
      <trkpt lat="50.747437980026007" lon="13.074337989091873">
        <ele>336.60000000000002</ele>
        <time>2024-09-19T12:34:42Z</time>
      </trkpt>
      <trkpt lat="50.747472010552883" lon="13.074132967740297">
        <ele>336.60000000000002</ele>
        <time>2024-09-19T12:34:44Z</time>
      </trkpt>
      <trkpt lat="50.747698992490768" lon="13.073217999190092">
        <ele>335.63999999999999</ele>
        <time>2024-09-19T12:34:52Z</time>
      </trkpt>
      <trkpt lat="50.747716007754207" lon="13.073124038055539">
        <ele>335.16000000000003</ele>
        <time>2024-09-19T12:34:54Z</time>
      </trkpt>
      <trkpt lat="50.747732017189264" lon="13.073035022243857">
        <ele>334.68000000000001</ele>
        <time>2024-09-19T12:34:55Z</time>
      </trkpt>
      <trkpt lat="50.747734028846025" lon="13.072953969240189">
        <ele>334.68000000000001</ele>
        <time>2024-09-19T12:34:56Z</time>
      </trkpt>
      <trkpt lat="50.74772397056222" lon="13.072863025590777">
        <ele>334.68000000000001</ele>
        <time>2024-09-19T12:34:57Z</time>
      </trkpt>
      <trkpt lat="50.747715001925826" lon="13.072768980637193">
        <ele>334.68000000000001</ele>
        <time>2024-09-19T12:34:58Z</time>
      </trkpt>
      <trkpt lat="50.747705027461052" lon="13.072679964825511">
        <ele>335.16000000000003</ele>
        <time>2024-09-19T12:34:59Z</time>
      </trkpt>
      <trkpt lat="50.747696980834007" lon="13.072596983984113">
        <ele>335.16000000000003</ele>
        <time>2024-09-19T12:35:00Z</time>
      </trkpt>
      <trkpt lat="50.747690023854375" lon="13.072529006749392">
        <ele>335.16000000000003</ele>
        <time>2024-09-19T12:35:01Z</time>
      </trkpt>
      <trkpt lat="50.747683988884091" lon="13.072476033121347">
        <ele>335.16000000000003</ele>
        <time>2024-09-19T12:35:02Z</time>
      </trkpt>
      <trkpt lat="50.747725982218981" lon="13.072346029803157">
        <ele>335.16000000000003</ele>
        <time>2024-09-19T12:35:03Z</time>
      </trkpt>
      <trkpt lat="50.74776504188776" lon="13.072320967912674">
        <ele>334.68000000000001</ele>
        <time>2024-09-19T12:35:04Z</time>
      </trkpt>
      <trkpt lat="50.74785397388041" lon="13.072263970971107">
        <ele>334.68000000000001</ele>
        <time>2024-09-19T12:35:05Z</time>
      </trkpt>
      <trkpt lat="50.74800199829042" lon="13.072164980694652">
        <ele>334.19999999999999</ele>
        <time>2024-09-19T12:35:09Z</time>
      </trkpt>
      <trkpt lat="50.74819402769208" lon="13.072019973769784">
        <ele>334.19999999999999</ele>
        <time>2024-09-19T12:35:12Z</time>
      </trkpt>
      <trkpt lat="50.748242978006601" lon="13.071982003748417">
        <ele>333.70999999999998</ele>
        <time>2024-09-19T12:35:13Z</time>
      </trkpt>
      <trkpt lat="50.748394019901752" lon="13.071868009865284">
        <ele>334.19999999999999</ele>
        <time>2024-09-19T12:35:17Z</time>
      </trkpt>
      <trkpt lat="50.748490998521447" lon="13.071793997660279">
        <ele>334.19999999999999</ele>
        <time>2024-09-19T12:35:18Z</time>
      </trkpt>
      <trkpt lat="50.74853802099824" lon="13.071758961305022">
        <ele>334.19999999999999</ele>
        <time>2024-09-19T12:35:19Z</time>
      </trkpt>
      <trkpt lat="50.748580014333129" lon="13.071727026253939">
        <ele>334.68000000000001</ele>
        <time>2024-09-19T12:35:20Z</time>
      </trkpt>
      <trkpt lat="50.748616978526115" lon="13.071699030697346">
        <ele>335.16000000000003</ele>
        <time>2024-09-19T12:35:21Z</time>
      </trkpt>
      <trkpt lat="50.748683027923107" lon="13.071648990735412">
        <ele>335.16000000000003</ele>
        <time>2024-09-19T12:35:22Z</time>
      </trkpt>
      <trkpt lat="50.748695014044642" lon="13.071632981300354">
        <ele>335.16000000000003</ele>
        <time>2024-09-19T12:35:23Z</time>
      </trkpt>
      <trkpt lat="50.748695014044642" lon="13.071632981300354">
        <ele>335.63999999999999</ele>
        <time>2024-09-19T12:35:24Z</time>
      </trkpt>
      <trkpt lat="50.748769026249647" lon="13.071528039872646">
        <ele>335.63999999999999</ele>
        <time>2024-09-19T12:35:25Z</time>
      </trkpt>
      <trkpt lat="50.748973963782191" lon="13.071183962747455">
        <ele>336.12</ele>
        <time>2024-09-19T12:35:30Z</time>
      </trkpt>
      <trkpt lat="50.749015035107732" lon="13.071115985512733">
        <ele>336.12</ele>
        <time>2024-09-19T12:35:31Z</time>
      </trkpt>
      <trkpt lat="50.749182002618909" lon="13.070838041603565">
        <ele>337.07999999999998</ele>
        <time>2024-09-19T12:35:35Z</time>
      </trkpt>
      <trkpt lat="50.749396998435259" lon="13.070464041084051">
        <ele>339</ele>
        <time>2024-09-19T12:35:40Z</time>
      </trkpt>
      <trkpt lat="50.749437985941768" lon="13.070277962833643">
        <ele>340.44</ele>
        <time>2024-09-19T12:35:43Z</time>
      </trkpt>
      <trkpt lat="50.749493977054954" lon="13.069888036698103">
        <ele>341.88999999999999</ele>
        <time>2024-09-19T12:35:47Z</time>
      </trkpt>
      <trkpt lat="50.749503029510379" lon="13.069790974259377">
        <ele>342.37</ele>
        <time>2024-09-19T12:35:48Z</time>
      </trkpt>
      <trkpt lat="50.749480985105038" lon="13.069480005651712">
        <ele>342.85000000000002</ele>
        <time>2024-09-19T12:35:51Z</time>
      </trkpt>
      <trkpt lat="50.749448966234922" lon="13.06938897818327">
        <ele>342.85000000000002</ele>
        <time>2024-09-19T12:35:52Z</time>
      </trkpt>
      <trkpt lat="50.749416025355458" lon="13.069297028705478">
        <ele>342.85000000000002</ele>
        <time>2024-09-19T12:35:53Z</time>
      </trkpt>
      <trkpt lat="50.749360034242272" lon="13.069116985425353">
        <ele>342.85000000000002</ele>
        <time>2024-09-19T12:35:54Z</time>
      </trkpt>
      <trkpt lat="50.749360034242272" lon="13.069116985425353">
        <ele>342.85000000000002</ele>
        <time>2024-09-19T12:35:55Z</time>
      </trkpt>
      <trkpt lat="50.749177979305387" lon="13.068934008479118">
        <ele>342.37</ele>
        <time>2024-09-19T12:36:01Z</time>
      </trkpt>
      <trkpt lat="50.74912098236382" lon="13.068962004035711">
        <ele>342.37</ele>
        <time>2024-09-19T12:36:03Z</time>
      </trkpt>
      <trkpt lat="50.749099021777511" lon="13.068983964622021">
        <ele>341.88999999999999</ele>
        <time>2024-09-19T12:36:04Z</time>
      </trkpt>
      <trkpt lat="50.749064991250634" lon="13.069028975442052">
        <ele>341.41000000000003</ele>
        <time>2024-09-19T12:36:05Z</time>
      </trkpt>
      <trkpt lat="50.748998019844294" lon="13.069118997082114">
        <ele>341.41000000000003</ele>
        <time>2024-09-19T12:36:07Z</time>
      </trkpt>
      <trkpt lat="50.748799033463001" lon="13.069635992869735">
        <ele>340.44</ele>
        <time>2024-09-19T12:36:14Z</time>
      </trkpt>
      <trkpt lat="50.748773971572518" lon="13.069714028388262">
        <ele>340.44</ele>
        <time>2024-09-19T12:36:15Z</time>
      </trkpt>
      <trkpt lat="50.748727032914758" lon="13.069861968979239">
        <ele>339.95999999999998</ele>
        <time>2024-09-19T12:36:17Z</time>
      </trkpt>
      <trkpt lat="50.748653020709753" lon="13.069904968142509">
        <ele>339.95999999999998</ele>
        <time>2024-09-19T12:36:18Z</time>
      </trkpt>
      <trkpt lat="50.748599041253328" lon="13.069931035861373">
        <ele>339.95999999999998</ele>
        <time>2024-09-19T12:36:19Z</time>
      </trkpt>
      <trkpt lat="50.748546989634633" lon="13.069932963699102">
        <ele>339.48000000000002</ele>
        <time>2024-09-19T12:36:20Z</time>
      </trkpt>
      <trkpt lat="50.748499967157841" lon="13.069932963699102">
        <ele>339.48000000000002</ele>
        <time>2024-09-19T12:36:21Z</time>
      </trkpt>
      <trkpt lat="50.748451016843319" lon="13.069932963699102">
        <ele>339</ele>
        <time>2024-09-19T12:36:22Z</time>
      </trkpt>
      <trkpt lat="50.748247001320124" lon="13.069954002276063">
        <ele>338.51999999999998</ele>
        <time>2024-09-19T12:36:25Z</time>
      </trkpt>
      <trkpt lat="50.74819503352046" lon="13.069960959255695">
        <ele>338.51999999999998</ele>
        <time>2024-09-19T12:36:26Z</time>
      </trkpt>
      <trkpt lat="50.74819503352046" lon="13.069960959255695">
        <ele>338.04000000000002</ele>
        <time>2024-09-19T12:36:27Z</time>
      </trkpt>
      <trkpt lat="50.747706033289433" lon="13.070032959803939">
        <ele>337.07999999999998</ele>
        <time>2024-09-19T12:36:37Z</time>
      </trkpt>
      <trkpt lat="50.747674014419317" lon="13.070040000602603">
        <ele>336.60000000000002</ele>
        <time>2024-09-19T12:36:38Z</time>
      </trkpt>
      <trkpt lat="50.747668985277414" lon="13.070041006430984">
        <ele>336.12</ele>
        <time>2024-09-19T12:36:39Z</time>
      </trkpt>
      <trkpt lat="50.747672002762556" lon="13.070009993389249">
        <ele>335.63999999999999</ele>
        <time>2024-09-19T12:36:40Z</time>
      </trkpt>
      <trkpt lat="50.747668985277414" lon="13.069966994225979">
        <ele>335.63999999999999</ele>
        <time>2024-09-19T12:36:41Z</time>
      </trkpt>
      <trkpt lat="50.747661022469401" lon="13.06986297480762">
        <ele>335.63999999999999</ele>
        <time>2024-09-19T12:36:53Z</time>
      </trkpt>
      <trkpt lat="50.747797982767224" lon="13.069780999794602">
        <ele>356.79000000000002</ele>
        <time>2024-09-19T14:15:28Z</time>
      </trkpt>
      <trkpt lat="50.74778800830245" lon="13.069773958995938">
        <ele>356.31</ele>
        <time>2024-09-19T14:16:21Z</time>
      </trkpt>
      <trkpt lat="50.747784990817308" lon="13.069771025329828">
        <ele>356.31</ele>
        <time>2024-09-19T14:17:03Z</time>
      </trkpt>
      <trkpt lat="50.747781973332167" lon="13.069771025329828">
        <ele>355.82999999999998</ele>
        <time>2024-09-19T14:17:59Z</time>
      </trkpt>
      <trkpt lat="50.747779961675406" lon="13.069772031158209">
        <ele>355.82999999999998</ele>
        <time>2024-09-19T14:18:45Z</time>
      </trkpt>
      <trkpt lat="50.747781973332167" lon="13.06977697648108">
        <ele>355.82999999999998</ele>
        <time>2024-09-19T14:19:33Z</time>
      </trkpt>
      <trkpt lat="50.747780967503786" lon="13.069775970652699">
        <ele>355.82999999999998</ele>
        <time>2024-09-19T14:20:17Z</time>
      </trkpt>
      <trkpt lat="50.74776403605938" lon="13.069756021723151">
        <ele>356.31</ele>
        <time>2024-09-19T14:20:34Z</time>
      </trkpt>
      <trkpt lat="50.747667979449034" lon="13.069735988974571">
        <ele>356.31</ele>
        <time>2024-09-19T14:20:49Z</time>
      </trkpt>
      <trkpt lat="50.747664961963892" lon="13.069913014769554">
        <ele>356.79000000000002</ele>
        <time>2024-09-19T14:20:59Z</time>
      </trkpt>
      <trkpt lat="50.747664961963892" lon="13.069913014769554">
        <ele>356.79000000000002</ele>
        <time>2024-09-19T14:21:06Z</time>
      </trkpt>
      <trkpt lat="50.747636966407299" lon="13.070047041401267">
        <ele>356.79000000000002</ele>
        <time>2024-09-19T14:21:07Z</time>
      </trkpt>
      <trkpt lat="50.747597990557551" lon="13.07005500420928">
        <ele>356.79000000000002</ele>
        <time>2024-09-19T14:21:08Z</time>
      </trkpt>
      <trkpt lat="50.747540993615985" lon="13.070065984502435">
        <ele>356.31</ele>
        <time>2024-09-19T14:21:09Z</time>
      </trkpt>
      <trkpt lat="50.747479973360896" lon="13.070078976452351">
        <ele>355.82999999999998</ele>
        <time>2024-09-19T14:21:10Z</time>
      </trkpt>
      <trkpt lat="50.74735701084137" lon="13.070103032514453">
        <ele>355.33999999999997</ele>
        <time>2024-09-19T14:21:12Z</time>
      </trkpt>
      <trkpt lat="50.747298002243042" lon="13.070125998929143">
        <ele>354.86000000000001</ele>
        <time>2024-09-19T14:21:13Z</time>
      </trkpt>
      <trkpt lat="50.746892988681793" lon="13.070262037217617">
        <ele>353.42000000000002</ele>
        <time>2024-09-19T14:21:20Z</time>
      </trkpt>
      <trkpt lat="50.746835991740227" lon="13.070294978097081">
        <ele>353.42000000000002</ele>
        <time>2024-09-19T14:21:21Z</time>
      </trkpt>
      <trkpt lat="50.746771031990647" lon="13.070325991138816">
        <ele>353.42000000000002</ele>
        <time>2024-09-19T14:21:22Z</time>
      </trkpt>
      <trkpt lat="50.746708000078797" lon="13.070348035544157">
        <ele>353.42000000000002</ele>
        <time>2024-09-19T14:21:23Z</time>
      </trkpt>
      <trkpt lat="50.746643962338567" lon="13.070368990302086">
        <ele>352.94</ele>
        <time>2024-09-19T14:21:24Z</time>
      </trkpt>
      <trkpt lat="50.746507002040744" lon="13.070415006950498">
        <ele>352.94</ele>
        <time>2024-09-19T14:21:26Z</time>
      </trkpt>
      <trkpt lat="50.746471965685487" lon="13.070425987243652">
        <ele>352.45999999999998</ele>
        <time>2024-09-19T14:21:27Z</time>
      </trkpt>
      <trkpt lat="50.746365012601018" lon="13.070318028330803">
        <ele>352.45999999999998</ele>
        <time>2024-09-19T14:21:28Z</time>
      </trkpt>
      <trkpt lat="50.74626199901104" lon="13.070215014740825">
        <ele>351.98000000000002</ele>
        <time>2024-09-19T14:21:30Z</time>
      </trkpt>
      <trkpt lat="50.746127972379327" lon="13.070017034187913">
        <ele>352.45999999999998</ele>
        <time>2024-09-19T14:21:33Z</time>
      </trkpt>
      <trkpt lat="50.746076004579663" lon="13.069932963699102">
        <ele>352.45999999999998</ele>
        <time>2024-09-19T14:21:34Z</time>
      </trkpt>
      <trkpt lat="50.745818009600043" lon="13.069599028676748">
        <ele>351.98000000000002</ele>
        <time>2024-09-19T14:21:38Z</time>
      </trkpt>
      <trkpt lat="50.745749026536942" lon="13.069515964016318">
        <ele>352.45999999999998</ele>
        <time>2024-09-19T14:21:39Z</time>
      </trkpt>
      <trkpt lat="50.74568297713995" lon="13.069478999823332">
        <ele>352.45999999999998</ele>
        <time>2024-09-19T14:21:40Z</time>
      </trkpt>
      <trkpt lat="50.745595972985029" lon="13.069472964853048">
        <ele>352.45999999999998</ele>
        <time>2024-09-19T14:21:41Z</time>
      </trkpt>
      <trkpt lat="50.745505029335618" lon="13.069467013701797">
        <ele>351.98000000000002</ele>
        <time>2024-09-19T14:21:42Z</time>
      </trkpt>
      <trkpt lat="50.745411990210414" lon="13.069461984559894">
        <ele>351.5</ele>
        <time>2024-09-19T14:21:43Z</time>
      </trkpt>
      <trkpt lat="50.74449903331697" lon="13.069627024233341">
        <ele>345.25</ele>
        <time>2024-09-19T14:21:53Z</time>
      </trkpt>
      <trkpt lat="50.744403982535005" lon="13.069618977606297">
        <ele>344.76999999999998</ele>
        <time>2024-09-19T14:21:54Z</time>
      </trkpt>
      <trkpt lat="50.744311027228832" lon="13.069578995928168">
        <ele>344.29000000000002</ele>
        <time>2024-09-19T14:21:55Z</time>
      </trkpt>
      <trkpt lat="50.743945995345712" lon="13.069330975413322">
        <ele>342.85000000000002</ele>
        <time>2024-09-19T14:21:59Z</time>
      </trkpt>
      <trkpt lat="50.743876006454229" lon="13.069267021492124">
        <ele>342.37</ele>
        <time>2024-09-19T14:22:00Z</time>
      </trkpt>
      <trkpt lat="50.743824038654566" lon="13.069146992638707">
        <ele>342.85000000000002</ele>
        <time>2024-09-19T14:22:01Z</time>
      </trkpt>
      <trkpt lat="50.743794031441212" lon="13.069016989320517">
        <ele>342.85000000000002</ele>
        <time>2024-09-19T14:22:02Z</time>
      </trkpt>
      <trkpt lat="50.743766035884619" lon="13.06885102763772">
        <ele>342.85000000000002</ele>
        <time>2024-09-19T14:22:03Z</time>
      </trkpt>
      <trkpt lat="50.743736028671265" lon="13.068682970479131">
        <ele>342.85000000000002</ele>
        <time>2024-09-19T14:22:04Z</time>
      </trkpt>
      <trkpt lat="50.743378037586808" lon="13.067211024463177">
        <ele>342.37</ele>
        <time>2024-09-19T14:22:13Z</time>
      </trkpt>
      <trkpt lat="50.742745036259294" lon="13.065665988251567">
        <ele>347.17000000000002</ele>
        <time>2024-09-19T14:22:22Z</time>
      </trkpt>
      <trkpt lat="50.741654969751835" lon="13.063943004235625">
        <ele>352.94</ele>
        <time>2024-09-19T14:22:33Z</time>
      </trkpt>
      <trkpt lat="50.741060022264719" lon="13.063156027346849">
        <ele>353.89999999999998</ele>
        <time>2024-09-19T14:22:39Z</time>
      </trkpt>
      <trkpt lat="50.740116974338889" lon="13.062623022124171">
        <ele>354.38</ele>
        <time>2024-09-19T14:22:48Z</time>
      </trkpt>
      <trkpt lat="50.739177027717233" lon="13.062422024086118">
        <ele>354.38</ele>
        <time>2024-09-19T14:22:55Z</time>
      </trkpt>
      <trkpt lat="50.739016011357307" lon="13.062462005764246">
        <ele>354.38</ele>
        <time>2024-09-19T14:22:56Z</time>
      </trkpt>
      <trkpt lat="50.738114034757018" lon="13.06279300712049">
        <ele>359.19</ele>
        <time>2024-09-19T14:23:01Z</time>
      </trkpt>
      <trkpt lat="50.737773980945349" lon="13.063004985451698">
        <ele>362.55000000000001</ele>
        <time>2024-09-19T14:23:03Z</time>
      </trkpt>
      <trkpt lat="50.737451026216149" lon="13.063236996531487">
        <ele>366.39999999999998</ele>
        <time>2024-09-19T14:23:05Z</time>
      </trkpt>
      <trkpt lat="50.737180961295962" lon="13.063431037589908">
        <ele>369.75999999999999</ele>
        <time>2024-09-19T14:23:07Z</time>
      </trkpt>
      <trkpt lat="50.736913997679949" lon="13.063434977084398">
        <ele>374.08999999999997</ele>
        <time>2024-09-19T14:23:09Z</time>
      </trkpt>
      <trkpt lat="50.736748035997152" lon="13.06343799456954">
        <ele>376.97000000000003</ele>
        <time>2024-09-19T14:23:10Z</time>
      </trkpt>
      <trkpt lat="50.7363570202142" lon="13.063445035368204">
        <ele>381.77999999999997</ele>
        <time>2024-09-19T14:23:12Z</time>
      </trkpt>
      <trkpt lat="50.735982013866305" lon="13.063451992347836">
        <ele>385.14999999999998</ele>
        <time>2024-09-19T14:23:14Z</time>
      </trkpt>
      <trkpt lat="50.735810017213225" lon="13.06343799456954">
        <ele>387.06999999999999</ele>
        <time>2024-09-19T14:23:15Z</time>
      </trkpt>
      <trkpt lat="50.735002001747489" lon="13.063298016786575">
        <ele>392.36000000000001</ele>
        <time>2024-09-19T14:23:20Z</time>
      </trkpt>
      <trkpt lat="50.734859006479383" lon="13.063249988481402">
        <ele>393.31999999999999</ele>
        <time>2024-09-19T14:23:21Z</time>
      </trkpt>
      <trkpt lat="50.734711987897754" lon="13.063175976276398">
        <ele>393.80000000000001</ele>
        <time>2024-09-19T14:23:22Z</time>
      </trkpt>
      <trkpt lat="50.734577039256692" lon="13.063056031242013">
        <ele>394.27999999999997</ele>
        <time>2024-09-19T14:23:23Z</time>
      </trkpt>
      <trkpt lat="50.734442006796598" lon="13.062934996560216">
        <ele>394.75999999999999</ele>
        <time>2024-09-19T14:23:24Z</time>
      </trkpt>
      <trkpt lat="50.733887040987611" lon="13.06242797523737">
        <ele>394.75999999999999</ele>
        <time>2024-09-19T14:23:28Z</time>
      </trkpt>
      <trkpt lat="50.733013981953263" lon="13.061363976448774">
        <ele>394.27999999999997</ele>
        <time>2024-09-19T14:23:35Z</time>
      </trkpt>
      <trkpt lat="50.732222981750965" lon="13.059690026566386">
        <ele>389.94999999999999</ele>
        <time>2024-09-19T14:23:43Z</time>
      </trkpt>
      <trkpt lat="50.732130026444793" lon="13.059452986344695">
        <ele>389.47000000000003</ele>
        <time>2024-09-19T14:23:44Z</time>
      </trkpt>
      <trkpt lat="50.731582017615438" lon="13.058038959279656">
        <ele>384.66000000000003</ele>
        <time>2024-09-19T14:23:50Z</time>
      </trkpt>
      <trkpt lat="50.731497025117278" lon="13.057805020362139">
        <ele>383.69999999999999</ele>
        <time>2024-09-19T14:23:51Z</time>
      </trkpt>
      <trkpt lat="50.731039959937334" lon="13.056703973561525">
        <ele>378.42000000000002</ele>
        <time>2024-09-19T14:23:57Z</time>
      </trkpt>
      <trkpt lat="50.730934012681246" lon="13.056584028527141">
        <ele>377.94</ele>
        <time>2024-09-19T14:23:58Z</time>
      </trkpt>
      <trkpt lat="50.730826975777745" lon="13.056462993845344">
        <ele>377.44999999999999</ele>
        <time>2024-09-19T14:23:59Z</time>
      </trkpt>
      <trkpt lat="50.730720022693276" lon="13.056375989690423">
        <ele>376.49000000000001</ele>
        <time>2024-09-19T14:24:00Z</time>
      </trkpt>
      <trkpt lat="50.730591025203466" lon="13.056326033547521">
        <ele>376.00999999999999</ele>
        <time>2024-09-19T14:24:01Z</time>
      </trkpt>
      <trkpt lat="50.730455992743373" lon="13.056296026334167">
        <ele>375.52999999999997</ele>
        <time>2024-09-19T14:24:02Z</time>
      </trkpt>
      <trkpt lat="50.730323977768421" lon="13.056340031325817">
        <ele>374.56999999999999</ele>
        <time>2024-09-19T14:24:03Z</time>
      </trkpt>
      <trkpt lat="50.730196991935372" lon="13.056397028267384">
        <ele>373.61000000000001</ele>
        <time>2024-09-19T14:24:04Z</time>
      </trkpt>
      <trkpt lat="50.730076963081956" lon="13.056493001058698">
        <ele>372.17000000000002</ele>
        <time>2024-09-19T14:24:05Z</time>
      </trkpt>
      <trkpt lat="50.729971015825868" lon="13.056615041568875">
        <ele>370.73000000000002</ele>
        <time>2024-09-19T14:24:06Z</time>
      </trkpt>
      <trkpt lat="50.729886023327708" lon="13.056758036836982">
        <ele>369.27999999999997</ele>
        <time>2024-09-19T14:24:07Z</time>
      </trkpt>
      <trkpt lat="50.729809999465942" lon="13.056950988247991">
        <ele>368.31999999999999</ele>
        <time>2024-09-19T14:24:08Z</time>
      </trkpt>
      <trkpt lat="50.729735987260938" lon="13.05714201182127">
        <ele>367.36000000000001</ele>
        <time>2024-09-19T14:24:09Z</time>
      </trkpt>
      <trkpt lat="50.729215973988175" lon="13.058525025844574">
        <ele>363.04000000000002</ele>
        <time>2024-09-19T14:24:17Z</time>
      </trkpt>
      <trkpt lat="50.728955967351794" lon="13.059259029105306">
        <ele>360.63</ele>
        <time>2024-09-19T14:24:25Z</time>
      </trkpt>
      <trkpt lat="50.72883602231741" lon="13.059596987441182">
        <ele>358.70999999999998</ele>
        <time>2024-09-19T14:24:34Z</time>
      </trkpt>
      <trkpt lat="50.728831999003887" lon="13.059608973562717">
        <ele>358.70999999999998</ele>
        <time>2024-09-19T14:24:58Z</time>
      </trkpt>
      <trkpt lat="50.72881598956883" lon="13.059651972725987">
        <ele>359.19</ele>
        <time>2024-09-19T14:24:59Z</time>
      </trkpt>
      <trkpt lat="50.728554977104068" lon="13.060168968513608">
        <ele>360.63</ele>
        <time>2024-09-19T14:25:05Z</time>
      </trkpt>
      <trkpt lat="50.728209977969527" lon="13.060574987903237">
        <ele>361.11000000000001</ele>
        <time>2024-09-19T14:25:09Z</time>
      </trkpt>
      <trkpt lat="50.728115011006594" lon="13.060652017593384">
        <ele>361.11000000000001</ele>
        <time>2024-09-19T14:25:10Z</time>
      </trkpt>
      <trkpt lat="50.727997999638319" lon="13.060734998434782">
        <ele>361.11000000000001</ele>
        <time>2024-09-19T14:25:11Z</time>
      </trkpt>
      <trkpt lat="50.727874031290412" lon="13.060822002589703">
        <ele>360.63</ele>
        <time>2024-09-19T14:25:12Z</time>
      </trkpt>
      <trkpt lat="50.727746961638331" lon="13.060878999531269">
        <ele>360.63</ele>
        <time>2024-09-19T14:25:13Z</time>
      </trkpt>
      <trkpt lat="50.727610001340508" lon="13.060919987037778">
        <ele>360.14999999999998</ele>
        <time>2024-09-19T14:25:14Z</time>
      </trkpt>
      <trkpt lat="50.727466000244021" lon="13.060930967330933">
        <ele>359.67000000000002</ele>
        <time>2024-09-19T14:25:15Z</time>
      </trkpt>
      <trkpt lat="50.727331973612309" lon="13.060942031443119">
        <ele>359.19</ele>
        <time>2024-09-19T14:25:16Z</time>
      </trkpt>
      <trkpt lat="50.727197024971247" lon="13.060915041714907">
        <ele>358.70999999999998</ele>
        <time>2024-09-19T14:25:17Z</time>
      </trkpt>
      <trkpt lat="50.727066015824676" lon="13.060888973996043">
        <ele>358.70999999999998</ele>
        <time>2024-09-19T14:25:18Z</time>
      </trkpt>
      <trkpt lat="50.7269680313766" lon="13.06083801202476">
        <ele>358.23000000000002</ele>
        <time>2024-09-19T14:25:19Z</time>
      </trkpt>
      <trkpt lat="50.726863006129861" lon="13.060740027576685">
        <ele>357.26999999999998</ele>
        <time>2024-09-19T14:25:20Z</time>
      </trkpt>
      <trkpt lat="50.726750018075109" lon="13.060633996501565">
        <ele>357.26999999999998</ele>
        <time>2024-09-19T14:25:21Z</time>
      </trkpt>
      <trkpt lat="50.72664700448513" lon="13.060528971254826">
        <ele>357.26999999999998</ele>
        <time>2024-09-19T14:25:22Z</time>
      </trkpt>
      <trkpt lat="50.72593898512423" lon="13.059607967734337">
        <ele>358.23000000000002</ele>
        <time>2024-09-19T14:25:28Z</time>
      </trkpt>
      <trkpt lat="50.72580998763442" lon="13.05944100022316">
        <ele>358.23000000000002</ele>
        <time>2024-09-19T14:25:29Z</time>
      </trkpt>
      <trkpt lat="50.724663008004427" lon="13.058211961761117">
        <ele>361.58999999999997</ele>
        <time>2024-09-19T14:25:38Z</time>
      </trkpt>
      <trkpt lat="50.724526969715953" lon="13.058143984526396">
        <ele>362.06999999999999</ele>
        <time>2024-09-19T14:25:39Z</time>
      </trkpt>
      <trkpt lat="50.724236033856869" lon="13.05804499424994">
        <ele>363.04000000000002</ele>
        <time>2024-09-19T14:25:41Z</time>
      </trkpt>
      <trkpt lat="50.724090021103621" lon="13.05804499424994">
        <ele>363.04000000000002</ele>
        <time>2024-09-19T14:25:42Z</time>
      </trkpt>
      <trkpt lat="50.723948031663895" lon="13.05804499424994">
        <ele>363.51999999999998</ele>
        <time>2024-09-19T14:25:43Z</time>
      </trkpt>
      <trkpt lat="50.723820962011814" lon="13.05810903199017">
        <ele>364</ele>
        <time>2024-09-19T14:25:44Z</time>
      </trkpt>
      <trkpt lat="50.72370202280581" lon="13.058185977861285">
        <ele>364.48000000000002</ele>
        <time>2024-09-19T14:25:45Z</time>
      </trkpt>
      <trkpt lat="50.723578976467252" lon="13.058266025036573">
        <ele>364.95999999999998</ele>
        <time>2024-09-19T14:25:46Z</time>
      </trkpt>
      <trkpt lat="50.723475962877274" lon="13.058407008647919">
        <ele>365.44</ele>
        <time>2024-09-19T14:25:47Z</time>
      </trkpt>
      <trkpt lat="50.723377978429198" lon="13.058559978380799">
        <ele>365.92000000000002</ele>
        <time>2024-09-19T14:25:48Z</time>
      </trkpt>
      <trkpt lat="50.723280999809504" lon="13.058713031932712">
        <ele>366.39999999999998</ele>
        <time>2024-09-19T14:25:49Z</time>
      </trkpt>
      <trkpt lat="50.72318896651268" lon="13.058886034414172">
        <ele>366.88</ele>
        <time>2024-09-19T14:25:50Z</time>
      </trkpt>
      <trkpt lat="50.722783030942082" lon="13.059563962742686">
        <ele>368.31999999999999</ele>
        <time>2024-09-19T14:25:54Z</time>
      </trkpt>
      <trkpt lat="50.722655961290002" lon="13.059709975495934">
        <ele>368.80000000000001</ele>
        <time>2024-09-19T14:25:55Z</time>
      </trkpt>
      <trkpt lat="50.722510032355785" lon="13.059825981035829">
        <ele>369.27999999999997</ele>
        <time>2024-09-19T14:25:56Z</time>
      </trkpt>
      <trkpt lat="50.722342981025577" lon="13.059932012110949">
        <ele>369.75999999999999</ele>
        <time>2024-09-19T14:25:57Z</time>
      </trkpt>
      <trkpt lat="50.722170984372497" lon="13.060040976852179">
        <ele>370.24000000000001</ele>
        <time>2024-09-19T14:25:58Z</time>
      </trkpt>
      <trkpt lat="50.721993036568165" lon="13.060153964906931">
        <ele>371.20999999999998</ele>
        <time>2024-09-19T14:25:59Z</time>
      </trkpt>
      <trkpt lat="50.720941023901105" lon="13.060513967648149">
        <ele>374.08999999999997</ele>
        <time>2024-09-19T14:26:05Z</time>
      </trkpt>
      <trkpt lat="50.7192990090698" lon="13.060693005099893">
        <ele>375.52999999999997</ele>
        <time>2024-09-19T14:26:14Z</time>
      </trkpt>
      <trkpt lat="50.718018002808094" lon="13.061125008389354">
        <ele>374.56999999999999</ele>
        <time>2024-09-19T14:26:21Z</time>
      </trkpt>
      <trkpt lat="50.716343969106674" lon="13.061923971399665">
        <ele>373.13</ele>
        <time>2024-09-19T14:26:28Z</time>
      </trkpt>
      <trkpt lat="50.71500102058053" lon="13.062228988856077">
        <ele>371.69</ele>
        <time>2024-09-19T14:26:34Z</time>
      </trkpt>
      <trkpt lat="50.714787030592561" lon="13.062181966379285">
        <ele>371.20999999999998</ele>
        <time>2024-09-19T14:26:35Z</time>
      </trkpt>
      <trkpt lat="50.714572034776211" lon="13.062135027721524">
        <ele>371.20999999999998</ele>
        <time>2024-09-19T14:26:36Z</time>
      </trkpt>
      <trkpt lat="50.714157968759537" lon="13.061962025240064">
        <ele>371.69</ele>
        <time>2024-09-19T14:26:38Z</time>
      </trkpt>
      <trkpt lat="50.713957976549864" lon="13.061852976679802">
        <ele>371.69</ele>
        <time>2024-09-19T14:26:39Z</time>
      </trkpt>
      <trkpt lat="50.71377701126039" lon="13.061699001118541">
        <ele>371.69</ele>
        <time>2024-09-19T14:26:40Z</time>
      </trkpt>
      <trkpt lat="50.713613983243704" lon="13.061536978930235">
        <ele>371.69</ele>
        <time>2024-09-19T14:26:41Z</time>
      </trkpt>
      <trkpt lat="50.713462019339204" lon="13.061378980055451">
        <ele>371.69</ele>
        <time>2024-09-19T14:26:42Z</time>
      </trkpt>
      <trkpt lat="50.713340984657407" lon="13.061185022816062">
        <ele>371.69</ele>
        <time>2024-09-19T14:26:43Z</time>
      </trkpt>
      <trkpt lat="50.713233025744557" lon="13.060975978150964">
        <ele>371.69</ele>
        <time>2024-09-19T14:26:44Z</time>
      </trkpt>
      <trkpt lat="50.713158007711172" lon="13.060739021748304">
        <ele>371.69</ele>
        <time>2024-09-19T14:26:45Z</time>
      </trkpt>
      <trkpt lat="50.713103022426367" lon="13.060479015111923">
        <ele>371.69</ele>
        <time>2024-09-19T14:26:46Z</time>
      </trkpt>
      <trkpt lat="50.713062034919858" lon="13.060204004868865">
        <ele>371.69</ele>
        <time>2024-09-19T14:26:47Z</time>
      </trkpt>
      <trkpt lat="50.713019035756588" lon="13.059920025989413">
        <ele>371.69</ele>
        <time>2024-09-19T14:26:48Z</time>
      </trkpt>
      <trkpt lat="50.712983999401331" lon="13.059615008533001">
        <ele>372.17000000000002</ele>
        <time>2024-09-19T14:26:49Z</time>
      </trkpt>
      <trkpt lat="50.712791969999671" lon="13.057449962943792">
        <ele>373.13</ele>
        <time>2024-09-19T14:26:56Z</time>
      </trkpt>
      <trkpt lat="50.712746037170291" lon="13.057179981842637">
        <ele>373.13</ele>
        <time>2024-09-19T14:26:57Z</time>
      </trkpt>
      <trkpt lat="50.7126609608531" lon="13.056686036288738">
        <ele>373.13</ele>
        <time>2024-09-19T14:26:59Z</time>
      </trkpt>
      <trkpt lat="50.712484018877149" lon="13.056265013292432">
        <ele>373.13</ele>
        <time>2024-09-19T14:27:01Z</time>
      </trkpt>
      <trkpt lat="50.712398020550609" lon="13.056070972234011">
        <ele>372.64999999999998</ele>
        <time>2024-09-19T14:27:02Z</time>
      </trkpt>
      <trkpt lat="50.712246978655457" lon="13.055944992229342">
        <ele>372.64999999999998</ele>
        <time>2024-09-19T14:27:03Z</time>
      </trkpt>
      <trkpt lat="50.712109012529254" lon="13.055829992517829">
        <ele>372.17000000000002</ele>
        <time>2024-09-19T14:27:04Z</time>
      </trkpt>
      <trkpt lat="50.711966017261147" lon="13.055743994191289">
        <ele>371.69</ele>
        <time>2024-09-19T14:27:05Z</time>
      </trkpt>
      <trkpt lat="50.711817992851138" lon="13.055727984756231">
        <ele>371.69</ele>
        <time>2024-09-19T14:27:06Z</time>
      </trkpt>
      <trkpt lat="50.711644990369678" lon="13.055776013061404">
        <ele>371.20999999999998</ele>
        <time>2024-09-19T14:27:07Z</time>
      </trkpt>
      <trkpt lat="50.711469976231456" lon="13.055824041366577">
        <ele>371.20999999999998</ele>
        <time>2024-09-19T14:27:08Z</time>
      </trkpt>
      <trkpt lat="50.711291022598743" lon="13.055905010551214">
        <ele>370.73000000000002</ele>
        <time>2024-09-19T14:27:09Z</time>
      </trkpt>
      <trkpt lat="50.711109973490238" lon="13.055997965857387">
        <ele>370.73000000000002</ele>
        <time>2024-09-19T14:27:10Z</time>
      </trkpt>
      <trkpt lat="50.710000963881612" lon="13.056574976071715">
        <ele>368.31999999999999</ele>
        <time>2024-09-19T14:27:17Z</time>
      </trkpt>
      <trkpt lat="50.709876995533705" lon="13.056546980515122">
        <ele>368.31999999999999</ele>
        <time>2024-09-19T14:27:18Z</time>
      </trkpt>
      <trkpt lat="50.709744980558753" lon="13.056472968310118">
        <ele>368.31999999999999</ele>
        <time>2024-09-19T14:27:19Z</time>
      </trkpt>
      <trkpt lat="50.70960802026093" lon="13.056396022439003">
        <ele>368.31999999999999</ele>
        <time>2024-09-19T14:27:20Z</time>
      </trkpt>
      <trkpt lat="50.709473993629217" lon="13.056321004405618">
        <ele>368.31999999999999</ele>
        <time>2024-09-19T14:27:21Z</time>
      </trkpt>
      <trkpt lat="50.70937198586762" lon="13.056264007464051">
        <ele>368.31999999999999</ele>
        <time>2024-09-19T14:27:22Z</time>
      </trkpt>
      <trkpt lat="50.709228990599513" lon="13.056292003020644">
        <ele>368.31999999999999</ele>
        <time>2024-09-19T14:27:23Z</time>
      </trkpt>
      <trkpt lat="50.709118014201522" lon="13.056314969435334">
        <ele>367.83999999999997</ele>
        <time>2024-09-19T14:27:24Z</time>
      </trkpt>
      <trkpt lat="50.70900502614677" lon="13.056338019669056">
        <ele>367.36000000000001</ele>
        <time>2024-09-19T14:27:25Z</time>
      </trkpt>
      <trkpt lat="50.708902012556791" lon="13.056385964155197">
        <ele>366.88</ele>
        <time>2024-09-19T14:27:26Z</time>
      </trkpt>
      <trkpt lat="50.708804028108716" lon="13.056474979966879">
        <ele>366.39999999999998</ele>
        <time>2024-09-19T14:27:27Z</time>
      </trkpt>
      <trkpt lat="50.70872800424695" lon="13.056543041020632">
        <ele>365.44</ele>
        <time>2024-09-19T14:27:28Z</time>
      </trkpt>
      <trkpt lat="50.70859800092876" lon="13.056586040183902">
        <ele>364.95999999999998</ele>
        <time>2024-09-19T14:27:29Z</time>
      </trkpt>
      <trkpt lat="50.708411000669003" lon="13.05664898827672">
        <ele>364</ele>
        <time>2024-09-19T14:27:31Z</time>
      </trkpt>
      <trkpt lat="50.708331959322095" lon="13.056674972176552">
        <ele>363.51999999999998</ele>
        <time>2024-09-19T14:27:32Z</time>
      </trkpt>
      <trkpt lat="50.7082349807024" lon="13.056563995778561">
        <ele>363.04000000000002</ele>
        <time>2024-09-19T14:27:33Z</time>
      </trkpt>
      <trkpt lat="50.707871038466692" lon="13.05626199580729">
        <ele>363.04000000000002</ele>
        <time>2024-09-19T14:27:38Z</time>
      </trkpt>
      <trkpt lat="50.707805994898081" lon="13.056178009137511">
        <ele>363.51999999999998</ele>
        <time>2024-09-19T14:27:39Z</time>
      </trkpt>
      <trkpt lat="50.707784034311771" lon="13.05604599416256">
        <ele>363.51999999999998</ele>
        <time>2024-09-19T14:27:40Z</time>
      </trkpt>
      <trkpt lat="50.70776198990643" lon="13.05591800250113">
        <ele>364</ele>
        <time>2024-09-19T14:27:41Z</time>
      </trkpt>
      <trkpt lat="50.707741035148501" lon="13.055792022496462">
        <ele>363.51999999999998</ele>
        <time>2024-09-19T14:27:42Z</time>
      </trkpt>
      <trkpt lat="50.707756038755178" lon="13.055672999471426">
        <ele>363.51999999999998</ele>
        <time>2024-09-19T14:27:43Z</time>
      </trkpt>
      <trkpt lat="50.707772970199585" lon="13.055524975061417">
        <ele>363.51999999999998</ele>
        <time>2024-09-19T14:27:44Z</time>
      </trkpt>
      <trkpt lat="50.707742962986231" lon="13.054890967905521">
        <ele>364.95999999999998</ele>
        <time>2024-09-19T14:27:48Z</time>
      </trkpt>
      <trkpt lat="50.707713039591908" lon="13.054760964587331">
        <ele>365.44</ele>
        <time>2024-09-19T14:27:49Z</time>
      </trkpt>
      <trkpt lat="50.707672974094748" lon="13.054611012339592">
        <ele>365.92000000000002</ele>
        <time>2024-09-19T14:27:50Z</time>
      </trkpt>
      <trkpt lat="50.707621006295085" lon="13.054474974051118">
        <ele>366.39999999999998</ele>
        <time>2024-09-19T14:27:51Z</time>
      </trkpt>
      <trkpt lat="50.707552023231983" lon="13.054330972954631">
        <ele>366.39999999999998</ele>
        <time>2024-09-19T14:27:52Z</time>
      </trkpt>
      <trkpt lat="50.707407016307116" lon="13.054029978811741">
        <ele>367.36000000000001</ele>
        <time>2024-09-19T14:27:54Z</time>
      </trkpt>
      <trkpt lat="50.707321017980576" lon="13.053906010463834">
        <ele>367.83999999999997</ele>
        <time>2024-09-19T14:27:55Z</time>
      </trkpt>
      <trkpt lat="50.706973001360893" lon="13.053377028554678">
        <ele>368.31999999999999</ele>
        <time>2024-09-19T14:27:59Z</time>
      </trkpt>
      <trkpt lat="50.70692203938961" lon="13.053214000537992">
        <ele>368.31999999999999</ele>
        <time>2024-09-19T14:28:00Z</time>
      </trkpt>
      <trkpt lat="50.706865964457393" lon="13.05303898639977">
        <ele>368.31999999999999</ele>
        <time>2024-09-19T14:28:01Z</time>
      </trkpt>
      <trkpt lat="50.706834029406309" lon="13.052863972261548">
        <ele>368.31999999999999</ele>
        <time>2024-09-19T14:28:02Z</time>
      </trkpt>
      <trkpt lat="50.706802010536194" lon="13.052683006972075">
        <ele>368.31999999999999</ele>
        <time>2024-09-19T14:28:03Z</time>
      </trkpt>
      <trkpt lat="50.706770997494459" lon="13.05250003002584">
        <ele>368.31999999999999</ele>
        <time>2024-09-19T14:28:04Z</time>
      </trkpt>
      <trkpt lat="50.706739984452724" lon="13.052299031987786">
        <ele>367.83999999999997</ele>
        <time>2024-09-19T14:28:05Z</time>
      </trkpt>
      <trkpt lat="50.706620961427689" lon="13.051423961296678">
        <ele>365.92000000000002</ele>
        <time>2024-09-19T14:28:09Z</time>
      </trkpt>
      <trkpt lat="50.706595983356237" lon="13.051207037642598">
        <ele>365.92000000000002</ele>
        <time>2024-09-19T14:28:10Z</time>
      </trkpt>
      <trkpt lat="50.706576034426689" lon="13.051009979099035">
        <ele>365.44</ele>
        <time>2024-09-19T14:28:11Z</time>
      </trkpt>
      <trkpt lat="50.706510990858078" lon="13.050216967239976">
        <ele>364.48000000000002</ele>
        <time>2024-09-19T14:28:15Z</time>
      </trkpt>
      <trkpt lat="50.706501016393304" lon="13.049807008355856">
        <ele>365.92000000000002</ele>
        <time>2024-09-19T14:28:17Z</time>
      </trkpt>
      <trkpt lat="50.706507973372936" lon="13.048852980136871">
        <ele>369.27999999999997</ele>
        <time>2024-09-19T14:28:21Z</time>
      </trkpt>
      <trkpt lat="50.706475032493472" lon="13.048622980713844">
        <ele>369.75999999999999</ele>
        <time>2024-09-19T14:28:22Z</time>
      </trkpt>
      <trkpt lat="50.706436978653073" lon="13.048394992947578">
        <ele>370.73000000000002</ele>
        <time>2024-09-19T14:28:23Z</time>
      </trkpt>
      <trkpt lat="50.706390039995313" lon="13.048167005181313">
        <ele>371.20999999999998</ele>
        <time>2024-09-19T14:28:24Z</time>
      </trkpt>
      <trkpt lat="50.706335976719856" lon="13.047930970788002">
        <ele>372.17000000000002</ele>
        <time>2024-09-19T14:28:25Z</time>
      </trkpt>
      <trkpt lat="50.706248972564936" lon="13.047702983021736">
        <ele>372.64999999999998</ele>
        <time>2024-09-19T14:28:26Z</time>
      </trkpt>
      <trkpt lat="50.706160040572286" lon="13.047468038275838">
        <ele>373.61000000000001</ele>
        <time>2024-09-19T14:28:27Z</time>
      </trkpt>
      <trkpt lat="50.706065995618701" lon="13.047220017760992">
        <ele>374.08999999999997</ele>
        <time>2024-09-19T14:28:28Z</time>
      </trkpt>
      <trkpt lat="50.705965999513865" lon="13.04695799946785">
        <ele>374.08999999999997</ele>
        <time>2024-09-19T14:28:29Z</time>
      </trkpt>
      <trkpt lat="50.705769024789333" lon="13.046439997851849">
        <ele>375.05000000000001</ele>
        <time>2024-09-19T14:28:31Z</time>
      </trkpt>
      <trkpt lat="50.705669028684497" lon="13.046175967901945">
        <ele>375.05000000000001</ele>
        <time>2024-09-19T14:28:32Z</time>
      </trkpt>
      <trkpt lat="50.705278012901545" lon="13.04511297494173">
        <ele>376.49000000000001</ele>
        <time>2024-09-19T14:28:36Z</time>
      </trkpt>
      <trkpt lat="50.705211041495204" lon="13.044811980798841">
        <ele>376.97000000000003</ele>
        <time>2024-09-19T14:28:37Z</time>
      </trkpt>
      <trkpt lat="50.70501197129488" lon="13.043917967006564">
        <ele>377.94</ele>
        <time>2024-09-19T14:28:40Z</time>
      </trkpt>
      <trkpt lat="50.704623972997069" lon="13.042264971882105">
        <ele>378.42000000000002</ele>
        <time>2024-09-19T14:28:46Z</time>
      </trkpt>
      <trkpt lat="50.70458197966218" lon="13.042049976065755">
        <ele>378.42000000000002</ele>
        <time>2024-09-19T14:28:47Z</time>
      </trkpt>
      <trkpt lat="50.704549960792065" lon="13.041577991098166">
        <ele>379.38</ele>
        <time>2024-09-19T14:28:49Z</time>
      </trkpt>
      <trkpt lat="50.704535041004419" lon="13.041359977796674">
        <ele>379.38</ele>
        <time>2024-09-19T14:28:50Z</time>
      </trkpt>
      <trkpt lat="50.704485001042485" lon="13.040641983971">
        <ele>382.25999999999999</ele>
        <time>2024-09-19T14:28:54Z</time>
      </trkpt>
      <trkpt lat="50.704448036849499" lon="13.040539976209402">
        <ele>382.74000000000001</ele>
        <time>2024-09-19T14:28:55Z</time>
      </trkpt>
      <trkpt lat="50.704410988837481" lon="13.040446015074849">
        <ele>383.69999999999999</ele>
        <time>2024-09-19T14:28:56Z</time>
      </trkpt>
      <trkpt lat="50.704307975247502" lon="13.04034199565649">
        <ele>384.66000000000003</ele>
        <time>2024-09-19T14:28:57Z</time>
      </trkpt>
      <trkpt lat="50.704220971092582" lon="13.040292039513588">
        <ele>385.63</ele>
        <time>2024-09-19T14:28:58Z</time>
      </trkpt>
      <trkpt lat="50.704095996916294" lon="13.040219033136964">
        <ele>386.58999999999997</ele>
        <time>2024-09-19T14:28:59Z</time>
      </trkpt>
      <trkpt lat="50.703945960849524" lon="13.040171004831791">
        <ele>387.06999999999999</ele>
        <time>2024-09-19T14:29:00Z</time>
      </trkpt>
      <trkpt lat="50.702935019508004" lon="13.03988803178072">
        <ele>392.83999999999997</ele>
        <time>2024-09-19T14:29:06Z</time>
      </trkpt>
      <trkpt lat="50.701038027182221" lon="13.039036011323333">
        <ele>400.05000000000001</ele>
        <time>2024-09-19T14:29:16Z</time>
      </trkpt>
      <trkpt lat="50.70019899867475" lon="13.038737028837204">
        <ele>404.37</ele>
        <time>2024-09-19T14:29:21Z</time>
      </trkpt>
      <trkpt lat="50.700061032548547" lon="13.038742979988456">
        <ele>404.85000000000002</ele>
        <time>2024-09-19T14:29:22Z</time>
      </trkpt>
      <trkpt lat="50.69992097094655" lon="13.03875396028161">
        <ele>405.32999999999998</ele>
        <time>2024-09-19T14:29:23Z</time>
      </trkpt>
      <trkpt lat="50.699789961799979" lon="13.03883702494204">
        <ele>405.32999999999998</ele>
        <time>2024-09-19T14:29:24Z</time>
      </trkpt>
      <trkpt lat="50.69963900372386" lon="13.038940038532019">
        <ele>405.81</ele>
        <time>2024-09-19T14:29:25Z</time>
      </trkpt>
      <trkpt lat="50.699473964050412" lon="13.039032993838191">
        <ele>405.81</ele>
        <time>2024-09-19T14:29:26Z</time>
      </trkpt>
      <trkpt lat="50.699302973225713" lon="13.039112035185099">
        <ele>406.29000000000002</ele>
        <time>2024-09-19T14:29:27Z</time>
      </trkpt>
      <trkpt lat="50.699124019593" lon="13.039194010198116">
        <ele>406.29000000000002</ele>
        <time>2024-09-19T14:29:28Z</time>
      </trkpt>
      <trkpt lat="50.69877902045846" lon="13.039283026009798">
        <ele>406.29000000000002</ele>
        <time>2024-09-19T14:29:30Z</time>
      </trkpt>
      <trkpt lat="50.698628984391689" lon="13.039305992424488">
        <ele>406.29000000000002</ele>
        <time>2024-09-19T14:29:31Z</time>
      </trkpt>
      <trkpt lat="50.698034958913922" lon="13.03939601406455">
        <ele>408.22000000000003</ele>
        <time>2024-09-19T14:29:35Z</time>
      </trkpt>
      <trkpt lat="50.696770967915654" lon="13.039990961551666">
        <ele>412.54000000000002</ele>
        <time>2024-09-19T14:29:42Z</time>
      </trkpt>
      <trkpt lat="50.696627972647548" lon="13.039989033713937">
        <ele>413.5</ele>
        <time>2024-09-19T14:29:43Z</time>
      </trkpt>
      <trkpt lat="50.696485983207822" lon="13.03997796960175">
        <ele>413.98000000000002</ele>
        <time>2024-09-19T14:29:44Z</time>
      </trkpt>
      <trkpt lat="50.696349022909999" lon="13.039885014295578">
        <ele>414.47000000000003</ele>
        <time>2024-09-19T14:29:45Z</time>
      </trkpt>
      <trkpt lat="50.696205021813512" lon="13.03976004011929">
        <ele>414.94999999999999</ele>
        <time>2024-09-19T14:29:46Z</time>
      </trkpt>
      <trkpt lat="50.696079963818192" lon="13.039598017930984">
        <ele>415.91000000000003</ele>
        <time>2024-09-19T14:29:47Z</time>
      </trkpt>
      <trkpt lat="50.695990025997162" lon="13.039411017671227">
        <ele>416.38999999999999</ele>
        <time>2024-09-19T14:29:48Z</time>
      </trkpt>
      <trkpt lat="50.69592003710568" lon="13.039183029904962">
        <ele>417.35000000000002</ele>
        <time>2024-09-19T14:29:49Z</time>
      </trkpt>
      <trkpt lat="50.695843007415533" lon="13.038934003561735">
        <ele>417.82999999999998</ele>
        <time>2024-09-19T14:29:50Z</time>
      </trkpt>
      <trkpt lat="50.695770001038909" lon="13.038696041330695">
        <ele>417.82999999999998</ele>
        <time>2024-09-19T14:29:51Z</time>
      </trkpt>
      <trkpt lat="50.695637986063957" lon="13.038338972255588">
        <ele>418.31</ele>
        <time>2024-09-19T14:29:53Z</time>
      </trkpt>
      <trkpt lat="50.695560034364462" lon="13.038211986422539">
        <ele>418.31</ele>
        <time>2024-09-19T14:29:54Z</time>
      </trkpt>
      <trkpt lat="50.695484010502696" lon="13.038088018074632">
        <ele>418.31</ele>
        <time>2024-09-19T14:29:55Z</time>
      </trkpt>
      <trkpt lat="50.695377979427576" lon="13.037996990606189">
        <ele>418.31</ele>
        <time>2024-09-19T14:29:56Z</time>
      </trkpt>
      <trkpt lat="50.695240013301373" lon="13.037939993664622">
        <ele>418.79000000000002</ele>
        <time>2024-09-19T14:29:57Z</time>
      </trkpt>
      <trkpt lat="50.695081008598208" lon="13.037875033915043">
        <ele>418.79000000000002</ele>
        <time>2024-09-19T14:29:58Z</time>
      </trkpt>
      <trkpt lat="50.694924015551805" lon="13.037872016429901">
        <ele>419.26999999999998</ele>
        <time>2024-09-19T14:29:59Z</time>
      </trkpt>
      <trkpt lat="50.694086998701096" lon="13.037853995338082">
        <ele>420.70999999999998</ele>
        <time>2024-09-19T14:30:04Z</time>
      </trkpt>
      <trkpt lat="50.693937968462706" lon="13.037796998396516">
        <ele>421.19</ele>
        <time>2024-09-19T14:30:05Z</time>
      </trkpt>
      <trkpt lat="50.693779969587922" lon="13.03771804086864">
        <ele>421.19</ele>
        <time>2024-09-19T14:30:06Z</time>
      </trkpt>
      <trkpt lat="50.693632028996944" lon="13.037566998973489">
        <ele>421.68000000000001</ele>
        <time>2024-09-19T14:30:07Z</time>
      </trkpt>
      <trkpt lat="50.693513005971909" lon="13.037390979006886">
        <ele>422.16000000000003</ele>
        <time>2024-09-19T14:30:08Z</time>
      </trkpt>
      <trkpt lat="50.693397000432014" lon="13.037205990403891">
        <ele>422.63999999999999</ele>
        <time>2024-09-19T14:30:09Z</time>
      </trkpt>
      <trkpt lat="50.693278983235359" lon="13.037016978487372">
        <ele>423.12</ele>
        <time>2024-09-19T14:30:10Z</time>
      </trkpt>
      <trkpt lat="50.693184016272426" lon="13.036783961579204">
        <ele>423.60000000000002</ele>
        <time>2024-09-19T14:30:11Z</time>
      </trkpt>
      <trkpt lat="50.693087037652731" lon="13.036544993519783">
        <ele>424.07999999999998</ele>
        <time>2024-09-19T14:30:12Z</time>
      </trkpt>
      <trkpt lat="50.692756958305836" lon="13.035737983882427">
        <ele>424.56</ele>
        <time>2024-09-19T14:30:16Z</time>
      </trkpt>
      <trkpt lat="50.69267900660634" lon="13.035597000271082">
        <ele>424.56</ele>
        <time>2024-09-19T14:30:17Z</time>
      </trkpt>
      <trkpt lat="50.692582027986646" lon="13.035529023036361">
        <ele>425.04000000000002</ele>
        <time>2024-09-19T14:30:18Z</time>
      </trkpt>
      <trkpt lat="50.692473985254765" lon="13.035487029701471">
        <ele>425.04000000000002</ele>
        <time>2024-09-19T14:30:19Z</time>
      </trkpt>
      <trkpt lat="50.692365020513535" lon="13.035454005002975">
        <ele>425.04000000000002</ele>
        <time>2024-09-19T14:30:20Z</time>
      </trkpt>
      <trkpt lat="50.692238034680486" lon="13.035489041358232">
        <ele>425.04000000000002</ele>
        <time>2024-09-19T14:30:21Z</time>
      </trkpt>
      <trkpt lat="50.692100990563631" lon="13.03552801720798">
        <ele>425.51999999999998</ele>
        <time>2024-09-19T14:30:22Z</time>
      </trkpt>
      <trkpt lat="50.691485004499555" lon="13.035643016919494">
        <ele>424.07999999999998</ele>
        <time>2024-09-19T14:30:26Z</time>
      </trkpt>
      <trkpt lat="50.690580010414124" lon="13.035457022488117">
        <ele>417.35000000000002</ele>
        <time>2024-09-19T14:30:32Z</time>
      </trkpt>
      <trkpt lat="50.690367026254535" lon="13.035212019458413">
        <ele>416.87</ele>
        <time>2024-09-19T14:30:34Z</time>
      </trkpt>
      <trkpt lat="50.690258983522654" lon="13.035073969513178">
        <ele>416.38999999999999</ele>
        <time>2024-09-19T14:30:35Z</time>
      </trkpt>
      <trkpt lat="50.690025966614485" lon="13.03477699868381">
        <ele>415.91000000000003</ele>
        <time>2024-09-19T14:30:37Z</time>
      </trkpt>
      <trkpt lat="50.689895963296294" lon="13.034629980102181">
        <ele>415.91000000000003</ele>
        <time>2024-09-19T14:30:38Z</time>
      </trkpt>
      <trkpt lat="50.689486004412174" lon="13.034334015101194">
        <ele>415.43000000000001</ele>
        <time>2024-09-19T14:30:41Z</time>
      </trkpt>
      <trkpt lat="50.688352016732097" lon="13.033897988498211">
        <ele>415.91000000000003</ele>
        <time>2024-09-19T14:30:48Z</time>
      </trkpt>
      <trkpt lat="50.68805898539722" lon="13.033791035413742">
        <ele>415.43000000000001</ele>
        <time>2024-09-19T14:30:50Z</time>
      </trkpt>
      <trkpt lat="50.687926970422268" lon="13.033714005723596">
        <ele>415.43000000000001</ele>
        <time>2024-09-19T14:30:51Z</time>
      </trkpt>
      <trkpt lat="50.687806019559503" lon="13.033629013225436">
        <ele>415.43000000000001</ele>
        <time>2024-09-19T14:30:52Z</time>
      </trkpt>
      <trkpt lat="50.687698982656002" lon="13.03353002294898">
        <ele>415.91000000000003</ele>
        <time>2024-09-19T14:30:53Z</time>
      </trkpt>
      <trkpt lat="50.687603009864688" lon="13.033441007137299">
        <ele>415.91000000000003</ele>
        <time>2024-09-19T14:30:54Z</time>
      </trkpt>
      <trkpt lat="50.687519023194909" lon="13.033325001597404">
        <ele>416.38999999999999</ele>
        <time>2024-09-19T14:30:55Z</time>
      </trkpt>
      <trkpt lat="50.687444005161524" lon="13.033199021592736">
        <ele>416.87</ele>
        <time>2024-09-19T14:30:56Z</time>
      </trkpt>
      <trkpt lat="50.6873709987849" lon="13.033071029931307">
        <ele>417.35000000000002</ele>
        <time>2024-09-19T14:30:57Z</time>
      </trkpt>
      <trkpt lat="50.687323976308107" lon="13.032938009127975">
        <ele>417.35000000000002</ele>
        <time>2024-09-19T14:30:58Z</time>
      </trkpt>
      <trkpt lat="50.687271002680063" lon="13.032744973897934">
        <ele>417.82999999999998</ele>
        <time>2024-09-19T14:30:59Z</time>
      </trkpt>
      <trkpt lat="50.687271002680063" lon="13.032574988901615">
        <ele>417.82999999999998</ele>
        <time>2024-09-19T14:31:00Z</time>
      </trkpt>
      <trkpt lat="50.687316013500094" lon="13.03234800696373">
        <ele>418.31</ele>
        <time>2024-09-19T14:31:01Z</time>
      </trkpt>
      <trkpt lat="50.687386002391577" lon="13.032193025574088">
        <ele>418.31</ele>
        <time>2024-09-19T14:31:02Z</time>
      </trkpt>
      <trkpt lat="50.68745699711144" lon="13.032035026699305">
        <ele>418.31</ele>
        <time>2024-09-19T14:31:03Z</time>
      </trkpt>
      <trkpt lat="50.687507037073374" lon="13.031880967319012">
        <ele>419.26999999999998</ele>
        <time>2024-09-19T14:31:04Z</time>
      </trkpt>
      <trkpt lat="50.687548024579883" lon="13.03170402534306">
        <ele>419.75</ele>
        <time>2024-09-19T14:31:05Z</time>
      </trkpt>
      <trkpt lat="50.687550036236644" lon="13.031528005376458">
        <ele>420.23000000000002</ele>
        <time>2024-09-19T14:31:06Z</time>
      </trkpt>
      <trkpt lat="50.687550036236644" lon="13.031336981803179">
        <ele>421.19</ele>
        <time>2024-09-19T14:31:07Z</time>
      </trkpt>
      <trkpt lat="50.687550036236644" lon="13.031154004856944">
        <ele>421.68000000000001</ele>
        <time>2024-09-19T14:31:08Z</time>
      </trkpt>
      <trkpt lat="50.687550036236644" lon="13.03097203373909">
        <ele>421.68000000000001</ele>
        <time>2024-09-19T14:31:09Z</time>
      </trkpt>
      <trkpt lat="50.687550036236644" lon="13.030789978802204">
        <ele>422.16000000000003</ele>
        <time>2024-09-19T14:31:10Z</time>
      </trkpt>
      <trkpt lat="50.687577025964856" lon="13.029076969251037">
        <ele>429.85000000000002</ele>
        <time>2024-09-19T14:31:20Z</time>
      </trkpt>
      <trkpt lat="50.687603009864688" lon="13.029013015329838">
        <ele>429.85000000000002</ele>
        <time>2024-09-19T14:31:21Z</time>
      </trkpt>
      <trkpt lat="50.687626982107759" lon="13.028957024216652">
        <ele>429.85000000000002</ele>
        <time>2024-09-19T14:31:22Z</time>
      </trkpt>
      <trkpt lat="50.687635028734803" lon="13.028849987313151">
        <ele>430.32999999999998</ele>
        <time>2024-09-19T14:31:23Z</time>
      </trkpt>
      <trkpt lat="50.687593035399914" lon="13.028785027563572">
        <ele>430.81</ele>
        <time>2024-09-19T14:31:24Z</time>
      </trkpt>
      <trkpt lat="50.687537966296077" lon="13.028700035065413">
        <ele>430.81</ele>
        <time>2024-09-19T14:31:25Z</time>
      </trkpt>
      <trkpt lat="50.687476024031639" lon="13.028603978455067">
        <ele>431.29000000000002</ele>
        <time>2024-09-19T14:31:26Z</time>
      </trkpt>
      <trkpt lat="50.687421038746834" lon="13.028518985956907">
        <ele>431.76999999999998</ele>
        <time>2024-09-19T14:31:27Z</time>
      </trkpt>
      <trkpt lat="50.68732799962163" lon="13.028467018157244">
        <ele>432.25</ele>
        <time>2024-09-19T14:31:28Z</time>
      </trkpt>
      <trkpt lat="50.687234038487077" lon="13.028413960710168">
        <ele>432.25</ele>
        <time>2024-09-19T14:31:29Z</time>
      </trkpt>
      <trkpt lat="50.687036979943514" lon="13.028292004019022">
        <ele>433.20999999999998</ele>
        <time>2024-09-19T14:31:31Z</time>
      </trkpt>
      <trkpt lat="50.686943018808961" lon="13.028211034834385">
        <ele>433.69</ele>
        <time>2024-09-19T14:31:32Z</time>
      </trkpt>
      <trkpt lat="50.686846962198615" lon="13.028128976002336">
        <ele>434.17000000000002</ele>
        <time>2024-09-19T14:31:33Z</time>
      </trkpt>
      <trkpt lat="50.686747971922159" lon="13.02803099155426">
        <ele>434.64999999999998</ele>
        <time>2024-09-19T14:31:34Z</time>
      </trkpt>
      <trkpt lat="50.686657028272748" lon="13.027913980185986">
        <ele>434.17000000000002</ele>
        <time>2024-09-19T14:31:35Z</time>
      </trkpt>
      <trkpt lat="50.686566000804305" lon="13.027797974646091">
        <ele>434.17000000000002</ele>
        <time>2024-09-19T14:31:36Z</time>
      </trkpt>
      <trkpt lat="50.686209015548229" lon="13.027401007711887">
        <ele>434.17000000000002</ele>
        <time>2024-09-19T14:31:40Z</time>
      </trkpt>
      <trkpt lat="50.686115976423025" lon="13.027331018820405">
        <ele>433.69</ele>
        <time>2024-09-19T14:31:41Z</time>
      </trkpt>
      <trkpt lat="50.686023021116853" lon="13.027286008000374">
        <ele>433.69</ele>
        <time>2024-09-19T14:31:42Z</time>
      </trkpt>
      <trkpt lat="50.685381973162293" lon="13.027146030217409">
        <ele>436.57999999999998</ele>
        <time>2024-09-19T14:31:49Z</time>
      </trkpt>
      <trkpt lat="50.685253981500864" lon="13.027103031054139">
        <ele>438.5</ele>
        <time>2024-09-19T14:31:54Z</time>
      </trkpt>
      <trkpt lat="50.685253981500864" lon="13.027166984975338">
        <ele>438.98000000000002</ele>
        <time>2024-09-19T14:31:55Z</time>
      </trkpt>
      <trkpt lat="50.685253981500864" lon="13.027247032150626">
        <ele>439.45999999999998</ele>
        <time>2024-09-19T14:31:56Z</time>
      </trkpt>
      <trkpt lat="50.685253981500864" lon="13.02734300494194">
        <ele>439.45999999999998</ele>
        <time>2024-09-19T14:31:57Z</time>
      </trkpt>
      <trkpt lat="50.685253981500864" lon="13.027467979118228">
        <ele>439.94</ele>
        <time>2024-09-19T14:31:58Z</time>
      </trkpt>
      <trkpt lat="50.685292035341263" lon="13.027538973838091">
        <ele>440.42000000000002</ele>
        <time>2024-09-19T14:31:59Z</time>
      </trkpt>
      <trkpt lat="50.685339979827404" lon="13.027628995478153">
        <ele>440.89999999999998</ele>
        <time>2024-09-19T14:32:00Z</time>
      </trkpt>
      <trkpt lat="50.685744993388653" lon="13.028555028140545">
        <ele>445.70999999999998</ele>
        <time>2024-09-19T14:32:07Z</time>
      </trkpt>
      <trkpt lat="50.685778018087149" lon="13.028736999258399">
        <ele>446.19</ele>
        <time>2024-09-19T14:32:08Z</time>
      </trkpt>
      <trkpt lat="50.685810036957264" lon="13.028922993689775">
        <ele>447.14999999999998</ele>
        <time>2024-09-19T14:32:09Z</time>
      </trkpt>
      <trkpt lat="50.685833003371954" lon="13.029056014493108">
        <ele>448.11000000000001</ele>
        <time>2024-09-19T14:32:10Z</time>
      </trkpt>
      <trkpt lat="50.685796961188316" lon="13.029213007539511">
        <ele>448.58999999999997</ele>
        <time>2024-09-19T14:32:11Z</time>
      </trkpt>
      <trkpt lat="50.685768965631723" lon="13.029334964230657">
        <ele>449.06999999999999</ele>
        <time>2024-09-19T14:32:12Z</time>
      </trkpt>
      <trkpt lat="50.685709035024047" lon="13.029378969222307">
        <ele>450.02999999999997</ele>
        <time>2024-09-19T14:32:13Z</time>
      </trkpt>
      <trkpt lat="50.685618007555604" lon="13.02936002612114">
        <ele>451</ele>
        <time>2024-09-19T14:32:14Z</time>
      </trkpt>
      <trkpt lat="50.685538966208696" lon="13.029311997815967">
        <ele>451.95999999999998</ele>
        <time>2024-09-19T14:32:15Z</time>
      </trkpt>
      <trkpt lat="50.685450034216046" lon="13.029256006702781">
        <ele>453.39999999999998</ele>
        <time>2024-09-19T14:32:16Z</time>
      </trkpt>
      <trkpt lat="50.685347020626068" lon="13.029194986447692">
        <ele>454.36000000000001</ele>
        <time>2024-09-19T14:32:17Z</time>
      </trkpt>
      <trkpt lat="50.685235038399696" lon="13.029131032526493">
        <ele>454.83999999999997</ele>
        <time>2024-09-19T14:32:18Z</time>
      </trkpt>
      <trkpt lat="50.685114003717899" lon="13.02906196564436">
        <ele>455.80000000000001</ele>
        <time>2024-09-19T14:32:19Z</time>
      </trkpt>
      <trkpt lat="50.684977965429425" lon="13.029044028371572">
        <ele>457.24000000000001</ele>
        <time>2024-09-19T14:32:20Z</time>
      </trkpt>
      <trkpt lat="50.684832958504558" lon="13.029031036421657">
        <ele>458.20999999999998</ele>
        <time>2024-09-19T14:32:21Z</time>
      </trkpt>
      <trkpt lat="50.684678982943296" lon="13.02901603281498">
        <ele>459.17000000000002</ele>
        <time>2024-09-19T14:32:22Z</time>
      </trkpt>
      <trkpt lat="50.684518972411752" lon="13.029001029208302">
        <ele>460.13</ele>
        <time>2024-09-19T14:32:23Z</time>
      </trkpt>
      <trkpt lat="50.684016980230808" lon="13.029076969251037">
        <ele>464.44999999999999</ele>
        <time>2024-09-19T14:32:26Z</time>
      </trkpt>
      <trkpt lat="50.683849006891251" lon="13.029113011434674">
        <ele>465.42000000000002</ele>
        <time>2024-09-19T14:32:27Z</time>
      </trkpt>
      <trkpt lat="50.683687990531325" lon="13.029218958690763">
        <ele>466.38</ele>
        <time>2024-09-19T14:32:28Z</time>
      </trkpt>
      <trkpt lat="50.683362018316984" lon="13.029471002519131">
        <ele>469.25999999999999</ele>
        <time>2024-09-19T14:32:30Z</time>
      </trkpt>
      <trkpt lat="50.683193039149046" lon="13.029602011665702">
        <ele>470.69999999999999</ele>
        <time>2024-09-19T14:32:31Z</time>
      </trkpt>
      <trkpt lat="50.681937010958791" lon="13.030571965500712">
        <ele>481.27999999999997</ele>
        <time>2024-09-19T14:32:38Z</time>
      </trkpt>
      <trkpt lat="50.681745987385511" lon="13.03065100684762">
        <ele>483.19999999999999</ele>
        <time>2024-09-19T14:32:39Z</time>
      </trkpt>
      <trkpt lat="50.681553035974503" lon="13.030727030709386">
        <ele>484.63999999999999</ele>
        <time>2024-09-19T14:32:40Z</time>
      </trkpt>
      <trkpt lat="50.680992035195231" lon="13.030949989333749">
        <ele>489.93000000000001</ele>
        <time>2024-09-19T14:32:43Z</time>
      </trkpt>
      <trkpt lat="50.680808974429965" lon="13.031059037894011">
        <ele>491.37</ele>
        <time>2024-09-19T14:32:44Z</time>
      </trkpt>
      <trkpt lat="50.68062599748373" lon="13.031207984313369">
        <ele>493.29000000000002</ele>
        <time>2024-09-19T14:32:45Z</time>
      </trkpt>
      <trkpt lat="50.679233008995652" lon="13.032338032498956">
        <ele>508.67000000000002</ele>
        <time>2024-09-19T14:32:52Z</time>
      </trkpt>
      <trkpt lat="50.678220978006721" lon="13.033192986622453">
        <ele>523.58000000000004</ele>
        <time>2024-09-19T14:32:58Z</time>
      </trkpt>
      <trkpt lat="50.678102038800716" lon="13.03335702046752">
        <ele>525.5</ele>
        <time>2024-09-19T14:32:59Z</time>
      </trkpt>
      <trkpt lat="50.677988966926932" lon="13.033521976321936">
        <ele>526.94000000000005</ele>
        <time>2024-09-19T14:33:00Z</time>
      </trkpt>
      <trkpt lat="50.677886959165335" lon="13.033733032643795">
        <ele>528.38</ele>
        <time>2024-09-19T14:33:01Z</time>
      </trkpt>
      <trkpt lat="50.677239038050175" lon="13.035775031894445">
        <ele>532.23000000000002</ele>
        <time>2024-09-19T14:33:08Z</time>
      </trkpt>
      <trkpt lat="50.676976013928652" lon="13.036569971591234">
        <ele>533.19000000000005</ele>
        <time>2024-09-19T14:33:11Z</time>
      </trkpt>
      <trkpt lat="50.676870988681912" lon="13.036780022084713">
        <ele>533.19000000000005</ele>
        <time>2024-09-19T14:33:12Z</time>
      </trkpt>
      <trkpt lat="50.676749031990767" lon="13.036964004859328">
        <ele>533.19000000000005</ele>
        <time>2024-09-19T14:33:13Z</time>
      </trkpt>
      <trkpt lat="50.676616011187434" lon="13.037120997905731">
        <ele>533.19000000000005</ele>
        <time>2024-09-19T14:33:14Z</time>
      </trkpt>
      <trkpt lat="50.676463963463902" lon="13.037232980132103">
        <ele>532.71000000000004</ele>
        <time>2024-09-19T14:33:15Z</time>
      </trkpt>
      <trkpt lat="50.676309987902641" lon="13.037345968186855">
        <ele>532.71000000000004</ele>
        <time>2024-09-19T14:33:16Z</time>
      </trkpt>
      <trkpt lat="50.676149977371097" lon="13.037405982613564">
        <ele>532.23000000000002</ele>
        <time>2024-09-19T14:33:17Z</time>
      </trkpt>
      <trkpt lat="50.675980998203158" lon="13.037443030625582">
        <ele>532.23000000000002</ele>
        <time>2024-09-19T14:33:18Z</time>
      </trkpt>
      <trkpt lat="50.67581101320684" lon="13.037479994818568">
        <ele>531.75</ele>
        <time>2024-09-19T14:33:19Z</time>
      </trkpt>
      <trkpt lat="50.674364967271686" lon="13.037779983133078">
        <ele>526.94000000000005</ele>
        <time>2024-09-19T14:33:28Z</time>
      </trkpt>
      <trkpt lat="50.674207974225283" lon="13.037770008668303">
        <ele>525.98000000000002</ele>
        <time>2024-09-19T14:33:29Z</time>
      </trkpt>
      <trkpt lat="50.67405198700726" lon="13.03774100728333">
        <ele>525.01999999999998</ele>
        <time>2024-09-19T14:33:30Z</time>
      </trkpt>
      <trkpt lat="50.673894993960857" lon="13.037694990634918">
        <ele>524.05999999999995</ele>
        <time>2024-09-19T14:33:31Z</time>
      </trkpt>
      <trkpt lat="50.673000980168581" lon="13.037316966801882">
        <ele>517.33000000000004</ele>
        <time>2024-09-19T14:33:38Z</time>
      </trkpt>
      <trkpt lat="50.672892015427351" lon="13.037330964580178">
        <ele>516.37</ele>
        <time>2024-09-19T14:33:39Z</time>
      </trkpt>
      <trkpt lat="50.672829989343882" lon="13.037338005378842">
        <ele>515.39999999999998</ele>
        <time>2024-09-19T14:33:40Z</time>
      </trkpt>
      <trkpt lat="50.672776009887457" lon="13.037445964291692">
        <ele>514.91999999999996</ele>
        <time>2024-09-19T14:33:41Z</time>
      </trkpt>
      <trkpt lat="50.672700991854072" lon="13.037596000358462">
        <ele>513.48000000000002</ele>
        <time>2024-09-19T14:33:42Z</time>
      </trkpt>
      <trkpt lat="50.67267601378262" lon="13.037728015333414">
        <ele>513</ele>
        <time>2024-09-19T14:33:43Z</time>
      </trkpt>
      <trkpt lat="50.672636032104492" lon="13.037943011149764">
        <ele>512.03999999999996</ele>
        <time>2024-09-19T14:33:44Z</time>
      </trkpt>
      <trkpt lat="50.672595966607332" lon="13.038152977824211">
        <ele>511.07999999999998</ele>
        <time>2024-09-19T14:33:45Z</time>
      </trkpt>
      <trkpt lat="50.672560008242726" lon="13.038346013054252">
        <ele>510.12</ele>
        <time>2024-09-19T14:33:46Z</time>
      </trkpt>
      <trkpt lat="50.672492031008005" lon="13.038657987490296">
        <ele>507.70999999999998</ele>
        <time>2024-09-19T14:33:48Z</time>
      </trkpt>
      <trkpt lat="50.672421958297491" lon="13.038767036050558">
        <ele>506.75</ele>
        <time>2024-09-19T14:33:49Z</time>
      </trkpt>
      <trkpt lat="50.672340989112854" lon="13.03881598636508">
        <ele>505.31</ele>
        <time>2024-09-19T14:33:50Z</time>
      </trkpt>
      <trkpt lat="50.672253984957933" lon="13.038781033828855">
        <ele>503.87</ele>
        <time>2024-09-19T14:33:51Z</time>
      </trkpt>
      <trkpt lat="50.6721399910748" lon="13.038727976381779">
        <ele>502.91000000000003</ele>
        <time>2024-09-19T14:33:52Z</time>
      </trkpt>
      <trkpt lat="50.672004036605358" lon="13.03866502828896">
        <ele>501.45999999999998</ele>
        <time>2024-09-19T14:33:53Z</time>
      </trkpt>
      <trkpt lat="50.670920005068183" lon="13.038350036367774">
        <ele>491.37</ele>
        <time>2024-09-19T14:34:00Z</time>
      </trkpt>
      <trkpt lat="50.670752031728625" lon="13.038331009447575">
        <ele>490.41000000000003</ele>
        <time>2024-09-19T14:34:01Z</time>
      </trkpt>
      <trkpt lat="50.670582968741655" lon="13.038339978083968">
        <ele>489.44999999999999</ele>
        <time>2024-09-19T14:34:02Z</time>
      </trkpt>
      <trkpt lat="50.670148031786084" lon="13.038390018045902">
        <ele>487.52999999999997</ele>
        <time>2024-09-19T14:34:05Z</time>
      </trkpt>
      <trkpt lat="50.670049041509628" lon="13.03845196031034">
        <ele>487.52999999999997</ele>
        <time>2024-09-19T14:34:06Z</time>
      </trkpt>
      <trkpt lat="50.669943010434508" lon="13.038520021364093">
        <ele>488.00999999999999</ele>
        <time>2024-09-19T14:34:07Z</time>
      </trkpt>
      <trkpt lat="50.669874027371407" lon="13.038606019690633">
        <ele>488.49000000000001</ele>
        <time>2024-09-19T14:34:08Z</time>
      </trkpt>
      <trkpt lat="50.669804038479924" lon="13.038726970553398">
        <ele>488.97000000000003</ele>
        <time>2024-09-19T14:34:09Z</time>
      </trkpt>
      <trkpt lat="50.669740000739694" lon="13.03883995860815">
        <ele>489.93000000000001</ele>
        <time>2024-09-19T14:34:10Z</time>
      </trkpt>
      <trkpt lat="50.669717034325004" lon="13.038978008553386">
        <ele>490.41000000000003</ele>
        <time>2024-09-19T14:34:11Z</time>
      </trkpt>
      <trkpt lat="50.669686021283269" lon="13.039165008813143">
        <ele>490.88999999999999</ele>
        <time>2024-09-19T14:34:12Z</time>
      </trkpt>
      <trkpt lat="50.669681997969747" lon="13.039368018507957">
        <ele>491.37</ele>
        <time>2024-09-19T14:34:13Z</time>
      </trkpt>
      <trkpt lat="50.669691972434521" lon="13.039606986567378">
        <ele>491.37</ele>
        <time>2024-09-19T14:34:14Z</time>
      </trkpt>
      <trkpt lat="50.669703036546707" lon="13.039850983768702">
        <ele>491.85000000000002</ele>
        <time>2024-09-19T14:34:15Z</time>
      </trkpt>
      <trkpt lat="50.669714016839862" lon="13.040095986798406">
        <ele>491.85000000000002</ele>
        <time>2024-09-19T14:34:16Z</time>
      </trkpt>
      <trkpt lat="50.669724997133017" lon="13.040338978171349">
        <ele>492.32999999999998</ele>
        <time>2024-09-19T14:34:17Z</time>
      </trkpt>
      <trkpt lat="50.669857012107968" lon="13.041730038821697">
        <ele>490.88999999999999</ele>
        <time>2024-09-19T14:34:23Z</time>
      </trkpt>
      <trkpt lat="50.669952984899282" lon="13.042107978835702">
        <ele>491.37</ele>
        <time>2024-09-19T14:34:25Z</time>
      </trkpt>
      <trkpt lat="50.670020040124655" lon="13.042292967438698">
        <ele>491.85000000000002</ele>
        <time>2024-09-19T14:34:26Z</time>
      </trkpt>
      <trkpt lat="50.670082988217473" lon="13.0424689874053">
        <ele>491.85000000000002</ele>
        <time>2024-09-19T14:34:27Z</time>
      </trkpt>
      <trkpt lat="50.670154988765717" lon="13.042610976845026">
        <ele>492.32999999999998</ele>
        <time>2024-09-19T14:34:28Z</time>
      </trkpt>
      <trkpt lat="50.670249033719301" lon="13.042757995426655">
        <ele>491.85000000000002</ele>
        <time>2024-09-19T14:34:29Z</time>
      </trkpt>
      <trkpt lat="50.670354980975389" lon="13.042922029271722">
        <ele>491.37</ele>
        <time>2024-09-19T14:34:30Z</time>
      </trkpt>
      <trkpt lat="50.670969039201736" lon="13.043943028897047">
        <ele>487.05000000000001</ele>
        <time>2024-09-19T14:34:36Z</time>
      </trkpt>
      <trkpt lat="50.670983958989382" lon="13.043989967554808">
        <ele>487.05000000000001</ele>
        <time>2024-09-19T14:34:37Z</time>
      </trkpt>
      <trkpt lat="50.670983958989382" lon="13.044220972806215">
        <ele>486.56</ele>
        <time>2024-09-19T14:34:38Z</time>
      </trkpt>
      <trkpt lat="50.670983958989382" lon="13.044290961697698">
        <ele>486.56</ele>
        <time>2024-09-19T14:34:39Z</time>
      </trkpt>
      <trkpt lat="50.670940037816763" lon="13.044376960024238">
        <ele>486.07999999999998</ele>
        <time>2024-09-19T14:34:40Z</time>
      </trkpt>
      <trkpt lat="50.670877005904913" lon="13.044499000534415">
        <ele>485.60000000000002</ele>
        <time>2024-09-19T14:34:41Z</time>
      </trkpt>
      <trkpt lat="50.670802993699908" lon="13.044644007459283">
        <ele>485.12</ele>
        <time>2024-09-19T14:34:42Z</time>
      </trkpt>
      <trkpt lat="50.670722024515271" lon="13.044801000505686">
        <ele>485.12</ele>
        <time>2024-09-19T14:34:43Z</time>
      </trkpt>
      <trkpt lat="50.670636026188731" lon="13.044969979673624">
        <ele>484.63999999999999</ele>
        <time>2024-09-19T14:34:44Z</time>
      </trkpt>
      <trkpt lat="50.670538041740656" lon="13.045165026560426">
        <ele>483.68000000000001</ele>
        <time>2024-09-19T14:34:45Z</time>
      </trkpt>
      <trkpt lat="50.670439973473549" lon="13.04536996409297">
        <ele>483.19999999999999</ele>
        <time>2024-09-19T14:34:46Z</time>
      </trkpt>
      <trkpt lat="50.669907974079251" lon="13.046484002843499">
        <ele>479.83999999999997</ele>
        <time>2024-09-19T14:34:51Z</time>
      </trkpt>
      <trkpt lat="50.668962998315692" lon="13.047622013837099">
        <ele>474.55000000000001</ele>
        <time>2024-09-19T14:34:58Z</time>
      </trkpt>
      <trkpt lat="50.66885001026094" lon="13.047870034351945">
        <ele>473.58999999999997</ele>
        <time>2024-09-19T14:34:59Z</time>
      </trkpt>
      <trkpt lat="50.668762000277638" lon="13.048117971047759">
        <ele>472.63</ele>
        <time>2024-09-19T14:35:00Z</time>
      </trkpt>
      <trkpt lat="50.668193036690354" lon="13.049494028091431">
        <ele>467.33999999999997</ele>
        <time>2024-09-19T14:35:06Z</time>
      </trkpt>
      <trkpt lat="50.66807895898819" lon="13.049633000046015">
        <ele>466.86000000000001</ele>
        <time>2024-09-19T14:35:07Z</time>
      </trkpt>
      <trkpt lat="50.66792800091207" lon="13.049765015020967">
        <ele>465.42000000000002</ele>
        <time>2024-09-19T14:35:08Z</time>
      </trkpt>
      <trkpt lat="50.66689602099359" lon="13.050856003537774">
        <ele>463.97000000000003</ele>
        <time>2024-09-19T14:35:16Z</time>
      </trkpt>
      <trkpt lat="50.666827959939837" lon="13.051034035161138">
        <ele>464.44999999999999</ele>
        <time>2024-09-19T14:35:17Z</time>
      </trkpt>
      <trkpt lat="50.666801976040006" lon="13.051199996843934">
        <ele>465.42000000000002</ele>
        <time>2024-09-19T14:35:18Z</time>
      </trkpt>
      <trkpt lat="50.666779009625316" lon="13.051371993497014">
        <ele>465.89999999999998</ele>
        <time>2024-09-19T14:35:19Z</time>
      </trkpt>
      <trkpt lat="50.666800970211625" lon="13.051566034555435">
        <ele>465.89999999999998</ele>
        <time>2024-09-19T14:35:20Z</time>
      </trkpt>
      <trkpt lat="50.666822008788586" lon="13.051737025380135">
        <ele>465.42000000000002</ele>
        <time>2024-09-19T14:35:21Z</time>
      </trkpt>
      <trkpt lat="50.666889986023307" lon="13.051929976791143">
        <ele>464.93000000000001</ele>
        <time>2024-09-19T14:35:22Z</time>
      </trkpt>
      <trkpt lat="50.66696198657155" lon="13.052121000364423">
        <ele>464.93000000000001</ele>
        <time>2024-09-19T14:35:23Z</time>
      </trkpt>
      <trkpt lat="50.667075980454683" lon="13.052311018109322">
        <ele>464.93000000000001</ele>
        <time>2024-09-19T14:35:24Z</time>
      </trkpt>
      <trkpt lat="50.667401030659676" lon="13.052851986140013">
        <ele>463.97000000000003</ele>
        <time>2024-09-19T14:35:27Z</time>
      </trkpt>
      <trkpt lat="50.667458027601242" lon="13.053112998604774">
        <ele>463.49000000000001</ele>
        <time>2024-09-19T14:35:28Z</time>
      </trkpt>
      <trkpt lat="50.667507983744144" lon="13.053346015512943">
        <ele>463.00999999999999</ele>
        <time>2024-09-19T14:35:29Z</time>
      </trkpt>
      <trkpt lat="50.667495997622609" lon="13.053514994680882">
        <ele>462.52999999999997</ele>
        <time>2024-09-19T14:35:30Z</time>
      </trkpt>
      <trkpt lat="50.667480994015932" lon="13.053723033517599">
        <ele>462.05000000000001</ele>
        <time>2024-09-19T14:35:31Z</time>
      </trkpt>
      <trkpt lat="50.667463978752494" lon="13.053938029333949">
        <ele>461.08999999999997</ele>
        <time>2024-09-19T14:35:32Z</time>
      </trkpt>
      <trkpt lat="50.667374040931463" lon="13.055074028670788">
        <ele>456.27999999999997</ele>
        <time>2024-09-19T14:35:39Z</time>
      </trkpt>
      <trkpt lat="50.667359959334135" lon="13.055249964818358">
        <ele>445.70999999999998</ele>
        <time>2024-09-19T14:35:45Z</time>
      </trkpt>
      <trkpt lat="50.667209001258016" lon="13.055277038365602">
        <ele>444.75</ele>
        <time>2024-09-19T14:35:49Z</time>
      </trkpt>
      <trkpt lat="50.667158961296082" lon="13.055277038365602">
        <ele>443.31</ele>
        <time>2024-09-19T14:35:50Z</time>
      </trkpt>
      <trkpt lat="50.667057959362864" lon="13.055277038365602">
        <ele>442.33999999999997</ele>
        <time>2024-09-19T14:35:51Z</time>
      </trkpt>
      <trkpt lat="50.666785966604948" lon="13.055348033085465">
        <ele>438.5</ele>
        <time>2024-09-19T14:35:54Z</time>
      </trkpt>
      <trkpt lat="50.666400985792279" lon="13.055562023073435">
        <ele>434.64999999999998</ele>
        <time>2024-09-19T14:35:57Z</time>
      </trkpt>
      <trkpt lat="50.666268970817327" lon="13.0556829739362">
        <ele>433.69</ele>
        <time>2024-09-19T14:35:58Z</time>
      </trkpt>
      <trkpt lat="50.666137039661407" lon="13.055836027488112">
        <ele>433.20999999999998</ele>
        <time>2024-09-19T14:35:59Z</time>
      </trkpt>
      <trkpt lat="50.665087960660458" lon="13.057284001260996">
        <ele>430.32999999999998</ele>
        <time>2024-09-19T14:36:06Z</time>
      </trkpt>
      <trkpt lat="50.664969021454453" lon="13.057569991797209">
        <ele>429.85000000000002</ele>
        <time>2024-09-19T14:36:07Z</time>
      </trkpt>
      <trkpt lat="50.664877993986011" lon="13.05787299759686">
        <ele>429.37</ele>
        <time>2024-09-19T14:36:08Z</time>
      </trkpt>
      <trkpt lat="50.664788978174329" lon="13.058168962597847">
        <ele>429.85000000000002</ele>
        <time>2024-09-19T14:36:09Z</time>
      </trkpt>
      <trkpt lat="50.66470499150455" lon="13.058447996154428">
        <ele>429.85000000000002</ele>
        <time>2024-09-19T14:36:10Z</time>
      </trkpt>
      <trkpt lat="50.664367033168674" lon="13.059646021574736">
        <ele>430.32999999999998</ele>
        <time>2024-09-19T14:36:15Z</time>
      </trkpt>
      <trkpt lat="50.664296960458159" lon="13.05984903126955">
        <ele>430.81</ele>
        <time>2024-09-19T14:36:16Z</time>
      </trkpt>
      <trkpt lat="50.664185984060168" lon="13.059962019324303">
        <ele>430.81</ele>
        <time>2024-09-19T14:36:17Z</time>
      </trkpt>
      <trkpt lat="50.664055980741978" lon="13.060079030692577">
        <ele>430.32999999999998</ele>
        <time>2024-09-19T14:36:18Z</time>
      </trkpt>
      <trkpt lat="50.663928994908929" lon="13.060194030404091">
        <ele>430.32999999999998</ele>
        <time>2024-09-19T14:36:19Z</time>
      </trkpt>
      <trkpt lat="50.663793040439487" lon="13.060266030952334">
        <ele>430.81</ele>
        <time>2024-09-19T14:36:20Z</time>
      </trkpt>
      <trkpt lat="50.663643004372716" lon="13.060291009023786">
        <ele>431.76999999999998</ele>
        <time>2024-09-19T14:36:21Z</time>
      </trkpt>
      <trkpt lat="50.663499003276229" lon="13.060262007638812">
        <ele>432.73000000000002</ele>
        <time>2024-09-19T14:36:22Z</time>
      </trkpt>
      <trkpt lat="50.663347961381078" lon="13.060208028182387">
        <ele>433.20999999999998</ele>
        <time>2024-09-19T14:36:23Z</time>
      </trkpt>
      <trkpt lat="50.663237990811467" lon="13.060168968513608">
        <ele>434.17000000000002</ele>
        <time>2024-09-19T14:36:24Z</time>
      </trkpt>
      <trkpt lat="50.663082003593445" lon="13.0599569901824">
        <ele>434.64999999999998</ele>
        <time>2024-09-19T14:36:25Z</time>
      </trkpt>
      <trkpt lat="50.662954011932015" lon="13.059781976044178">
        <ele>435.61000000000001</ele>
        <time>2024-09-19T14:36:26Z</time>
      </trkpt>
      <trkpt lat="50.662818979471922" lon="13.059598999097943">
        <ele>436.10000000000002</ele>
        <time>2024-09-19T14:36:27Z</time>
      </trkpt>
      <trkpt lat="50.662073995918036" lon="13.058628961443901">
        <ele>438.5</ele>
        <time>2024-09-19T14:36:32Z</time>
      </trkpt>
      <trkpt lat="50.661888001486659" lon="13.0584960244596">
        <ele>438.98000000000002</ele>
        <time>2024-09-19T14:36:33Z</time>
      </trkpt>
      <trkpt lat="50.661699995398521" lon="13.058361997827888">
        <ele>439.45999999999998</ele>
        <time>2024-09-19T14:36:34Z</time>
      </trkpt>
      <trkpt lat="50.66077396273613" lon="13.057697983458638">
        <ele>441.86000000000001</ele>
        <time>2024-09-19T14:36:39Z</time>
      </trkpt>
      <trkpt lat="50.66062199883163" lon="13.057521963492036">
        <ele>441.86000000000001</ele>
        <time>2024-09-19T14:36:40Z</time>
      </trkpt>
      <trkpt lat="50.660471962764859" lon="13.05733404122293">
        <ele>441.86000000000001</ele>
        <time>2024-09-19T14:36:41Z</time>
      </trkpt>
      <trkpt lat="50.659881960600615" lon="13.056704979389906">
        <ele>442.33999999999997</ele>
        <time>2024-09-19T14:36:45Z</time>
      </trkpt>
      <trkpt lat="50.659721028059721" lon="13.056600959971547">
        <ele>442.33999999999997</ele>
        <time>2024-09-19T14:36:46Z</time>
      </trkpt>
      <trkpt lat="50.659540984779596" lon="13.056600959971547">
        <ele>442.33999999999997</ele>
        <time>2024-09-19T14:36:47Z</time>
      </trkpt>
      <trkpt lat="50.659368988126516" lon="13.056618981063366">
        <ele>440.89999999999998</ele>
        <time>2024-09-19T14:36:48Z</time>
      </trkpt>
      <trkpt lat="50.659208977594972" lon="13.056666003540158">
        <ele>439.45999999999998</ele>
        <time>2024-09-19T14:36:49Z</time>
      </trkpt>
      <trkpt lat="50.659047961235046" lon="13.056768011301756">
        <ele>438.01999999999998</ele>
        <time>2024-09-19T14:36:50Z</time>
      </trkpt>
      <trkpt lat="50.658878982067108" lon="13.056874964386225">
        <ele>437.54000000000002</ele>
        <time>2024-09-19T14:36:51Z</time>
      </trkpt>
      <trkpt lat="50.658761970698833" lon="13.057050984352827">
        <ele>437.06</ele>
        <time>2024-09-19T14:36:52Z</time>
      </trkpt>
      <trkpt lat="50.658668009564281" lon="13.05720797739923">
        <ele>437.54000000000002</ele>
        <time>2024-09-19T14:36:53Z</time>
      </trkpt>
      <trkpt lat="50.658569019287825" lon="13.057477958500385">
        <ele>438.01999999999998</ele>
        <time>2024-09-19T14:36:54Z</time>
      </trkpt>
      <trkpt lat="50.658482015132904" lon="13.057714998722076">
        <ele>438.5</ele>
        <time>2024-09-19T14:36:55Z</time>
      </trkpt>
      <trkpt lat="50.657623037695885" lon="13.060397962108254">
        <ele>430.32999999999998</ele>
        <time>2024-09-19T14:37:06Z</time>
      </trkpt>
      <trkpt lat="50.657524969428778" lon="13.060671966522932">
        <ele>429.85000000000002</ele>
        <time>2024-09-19T14:37:07Z</time>
      </trkpt>
      <trkpt lat="50.65739999525249" lon="13.060885034501553">
        <ele>429.37</ele>
        <time>2024-09-19T14:37:08Z</time>
      </trkpt>
      <trkpt lat="50.657262029126287" lon="13.061088966205716">
        <ele>429.37</ele>
        <time>2024-09-19T14:37:09Z</time>
      </trkpt>
      <trkpt lat="50.657105036079884" lon="13.061230033636093">
        <ele>429.85000000000002</ele>
        <time>2024-09-19T14:37:10Z</time>
      </trkpt>
      <trkpt lat="50.65694997087121" lon="13.061306979507208">
        <ele>429.85000000000002</ele>
        <time>2024-09-19T14:37:11Z</time>
      </trkpt>
      <trkpt lat="50.656794989481568" lon="13.061371017247438">
        <ele>430.81</ele>
        <time>2024-09-19T14:37:12Z</time>
      </trkpt>
      <trkpt lat="50.656639002263546" lon="13.061371017247438">
        <ele>431.29000000000002</ele>
        <time>2024-09-19T14:37:13Z</time>
      </trkpt>
      <trkpt lat="50.656470023095608" lon="13.061356013640761">
        <ele>431.76999999999998</ele>
        <time>2024-09-19T14:37:14Z</time>
      </trkpt>
      <trkpt lat="50.656313030049205" lon="13.061307985335588">
        <ele>431.76999999999998</ele>
        <time>2024-09-19T14:37:15Z</time>
      </trkpt>
      <trkpt lat="50.656008012592793" lon="13.061119979247451">
        <ele>433.20999999999998</ele>
        <time>2024-09-19T14:37:17Z</time>
      </trkpt>
      <trkpt lat="50.655863005667925" lon="13.060986958444118">
        <ele>433.69</ele>
        <time>2024-09-19T14:37:18Z</time>
      </trkpt>
      <trkpt lat="50.65572596155107" lon="13.060861984267831">
        <ele>434.17000000000002</ele>
        <time>2024-09-19T14:37:19Z</time>
      </trkpt>
      <trkpt lat="50.654581999406219" lon="13.05989395827055">
        <ele>438.5</ele>
        <time>2024-09-19T14:37:28Z</time>
      </trkpt>
      <trkpt lat="50.654448978602886" lon="13.059841990470886">
        <ele>438.5</ele>
        <time>2024-09-19T14:37:29Z</time>
      </trkpt>
      <trkpt lat="50.654321992769837" lon="13.05982899852097">
        <ele>438.01999999999998</ele>
        <time>2024-09-19T14:37:30Z</time>
      </trkpt>
      <trkpt lat="50.654187966138124" lon="13.059825981035829">
        <ele>438.01999999999998</ele>
        <time>2024-09-19T14:37:31Z</time>
      </trkpt>
      <trkpt lat="50.654075983911753" lon="13.059825981035829">
        <ele>438.01999999999998</ele>
        <time>2024-09-19T14:37:32Z</time>
      </trkpt>
      <trkpt lat="50.653817988932133" lon="13.059976017102599">
        <ele>436.57999999999998</ele>
        <time>2024-09-19T14:37:34Z</time>
      </trkpt>
      <trkpt lat="50.653716986998916" lon="13.06006696075201">
        <ele>435.13</ele>
        <time>2024-09-19T14:37:35Z</time>
      </trkpt>
      <trkpt lat="50.653615985065699" lon="13.060157988220453">
        <ele>434.64999999999998</ele>
        <time>2024-09-19T14:37:36Z</time>
      </trkpt>
      <trkpt lat="50.653549013659358" lon="13.06027801707387">
        <ele>434.17000000000002</ele>
        <time>2024-09-19T14:37:37Z</time>
      </trkpt>
      <trkpt lat="50.653482964262366" lon="13.060410032048821">
        <ele>433.69</ele>
        <time>2024-09-19T14:37:38Z</time>
      </trkpt>
      <trkpt lat="50.653432002291083" lon="13.060512961819768">
        <ele>433.20999999999998</ele>
        <time>2024-09-19T14:37:39Z</time>
      </trkpt>
      <trkpt lat="50.65336000174284" lon="13.060662997886539">
        <ele>432.73000000000002</ele>
        <time>2024-09-19T14:37:40Z</time>
      </trkpt>
      <trkpt lat="50.65280101262033" lon="13.061824981123209">
        <ele>428.88999999999999</ele>
        <time>2024-09-19T14:37:48Z</time>
      </trkpt>
      <trkpt lat="50.652696993201971" lon="13.06191198527813">
        <ele>428.39999999999998</ele>
        <time>2024-09-19T14:37:49Z</time>
      </trkpt>
      <trkpt lat="50.652592973783612" lon="13.06199798360467">
        <ele>427.92000000000002</ele>
        <time>2024-09-19T14:37:50Z</time>
      </trkpt>
      <trkpt lat="50.652474034577608" lon="13.062036037445068">
        <ele>427.92000000000002</ele>
        <time>2024-09-19T14:37:51Z</time>
      </trkpt>
      <trkpt lat="50.652357023209333" lon="13.062060009688139">
        <ele>427.92000000000002</ele>
        <time>2024-09-19T14:37:52Z</time>
      </trkpt>
      <trkpt lat="50.652241017669439" lon="13.06208498775959">
        <ele>427.92000000000002</ele>
        <time>2024-09-19T14:37:53Z</time>
      </trkpt>
      <trkpt lat="50.652011018246412" lon="13.062039976939559">
        <ele>429.37</ele>
        <time>2024-09-19T14:37:55Z</time>
      </trkpt>
      <trkpt lat="50.651902975514531" lon="13.06199898943305">
        <ele>430.32999999999998</ele>
        <time>2024-09-19T14:37:56Z</time>
      </trkpt>
      <trkpt lat="50.651780012995005" lon="13.061950039118528">
        <ele>431.29000000000002</ele>
        <time>2024-09-19T14:37:57Z</time>
      </trkpt>
      <trkpt lat="50.651690997183323" lon="13.061892036348581">
        <ele>431.76999999999998</ele>
        <time>2024-09-19T14:37:58Z</time>
      </trkpt>
      <trkpt lat="50.651584966108203" lon="13.061822969466448">
        <ele>432.73000000000002</ele>
        <time>2024-09-19T14:37:59Z</time>
      </trkpt>
      <trkpt lat="50.651171989738941" lon="13.061530021950603">
        <ele>434.64999999999998</ele>
        <time>2024-09-19T14:38:03Z</time>
      </trkpt>
      <trkpt lat="50.651080040261149" lon="13.061430025845766">
        <ele>434.64999999999998</ele>
        <time>2024-09-19T14:38:04Z</time>
      </trkpt>
      <trkpt lat="50.650993036106229" lon="13.061269009485841">
        <ele>435.13</ele>
        <time>2024-09-19T14:38:05Z</time>
      </trkpt>
      <trkpt lat="50.650961017236114" lon="13.061097012832761">
        <ele>436.57999999999998</ele>
        <time>2024-09-19T14:38:06Z</time>
      </trkpt>
      <trkpt lat="50.650927992537618" lon="13.060915041714907">
        <ele>435.61000000000001</ele>
        <time>2024-09-19T14:38:07Z</time>
      </trkpt>
      <trkpt lat="50.650912988930941" lon="13.060722006484866">
        <ele>435.13</ele>
        <time>2024-09-19T14:38:08Z</time>
      </trkpt>
      <trkpt lat="50.650903014466166" lon="13.060540035367012">
        <ele>435.13</ele>
        <time>2024-09-19T14:38:09Z</time>
      </trkpt>
      <trkpt lat="50.650893040001392" lon="13.060358986258507">
        <ele>434.64999999999998</ele>
        <time>2024-09-19T14:38:10Z</time>
      </trkpt>
      <trkpt lat="50.650883987545967" lon="13.060179026797414">
        <ele>434.64999999999998</ele>
        <time>2024-09-19T14:38:11Z</time>
      </trkpt>
      <trkpt lat="50.650864038616419" lon="13.060019016265869">
        <ele>435.13</ele>
        <time>2024-09-19T14:38:12Z</time>
      </trkpt>
      <trkpt lat="50.65082598477602" lon="13.059857999905944">
        <ele>436.57999999999998</ele>
        <time>2024-09-19T14:38:13Z</time>
      </trkpt>
      <trkpt lat="50.650765970349312" lon="13.05974300019443">
        <ele>437.06</ele>
        <time>2024-09-19T14:38:14Z</time>
      </trkpt>
      <trkpt lat="50.650679972022772" lon="13.059632023796439">
        <ele>438.01999999999998</ele>
        <time>2024-09-19T14:38:15Z</time>
      </trkpt>
      <trkpt lat="50.650586010888219" lon="13.059602016583085">
        <ele>438.5</ele>
        <time>2024-09-19T14:38:16Z</time>
      </trkpt>
      <trkpt lat="50.650480985641479" lon="13.059596987441182">
        <ele>439.45999999999998</ele>
        <time>2024-09-19T14:38:17Z</time>
      </trkpt>
      <trkpt lat="50.65037596039474" lon="13.059663958847523">
        <ele>440.42000000000002</ele>
        <time>2024-09-19T14:38:18Z</time>
      </trkpt>
      <trkpt lat="50.650269007310271" lon="13.059731014072895">
        <ele>441.86000000000001</ele>
        <time>2024-09-19T14:38:19Z</time>
      </trkpt>
      <trkpt lat="50.649828035384417" lon="13.059953972697258">
        <ele>446.19</ele>
        <time>2024-09-19T14:38:23Z</time>
      </trkpt>
      <trkpt lat="50.6497270334512" lon="13.059924971312284">
        <ele>447.63</ele>
        <time>2024-09-19T14:38:24Z</time>
      </trkpt>
      <trkpt lat="50.649607004597783" lon="13.059880966320634">
        <ele>449.06999999999999</ele>
        <time>2024-09-19T14:38:25Z</time>
      </trkpt>
      <trkpt lat="50.649520000442863" lon="13.059715004637837">
        <ele>450.51999999999998</ele>
        <time>2024-09-19T14:38:26Z</time>
      </trkpt>
      <trkpt lat="50.649466020986438" lon="13.059531021863222">
        <ele>451.95999999999998</ele>
        <time>2024-09-19T14:38:27Z</time>
      </trkpt>
      <trkpt lat="50.649411035701632" lon="13.059339998289943">
        <ele>452.92000000000002</ele>
        <time>2024-09-19T14:38:28Z</time>
      </trkpt>
      <trkpt lat="50.649198973551393" lon="13.058591997250915">
        <ele>456.75999999999999</ele>
        <time>2024-09-19T14:38:32Z</time>
      </trkpt>
      <trkpt lat="50.649122027680278" lon="13.058438021689653">
        <ele>457.24000000000001</ele>
        <time>2024-09-19T14:38:33Z</time>
      </trkpt>
      <trkpt lat="50.649037035182118" lon="13.058296032249928">
        <ele>457.72000000000003</ele>
        <time>2024-09-19T14:38:34Z</time>
      </trkpt>
      <trkpt lat="50.64893301576376" lon="13.058163011446595">
        <ele>458.20999999999998</ele>
        <time>2024-09-19T14:38:35Z</time>
      </trkpt>
      <trkpt lat="50.648830002173781" lon="13.058034013956785">
        <ele>459.17000000000002</ele>
        <time>2024-09-19T14:38:36Z</time>
      </trkpt>
      <trkpt lat="50.648399004712701" lon="13.057545013725758">
        <ele>462.05000000000001</ele>
        <time>2024-09-19T14:38:40Z</time>
      </trkpt>
      <trkpt lat="50.648042019456625" lon="13.057055007666349">
        <ele>465.89999999999998</ele>
        <time>2024-09-19T14:38:45Z</time>
      </trkpt>
      <trkpt lat="50.647955015301704" lon="13.056914024055004">
        <ele>466.86000000000001</ele>
        <time>2024-09-19T14:38:50Z</time>
      </trkpt>
      <trkpt lat="50.647906986996531" lon="13.056930033490062">
        <ele>466.86000000000001</ele>
        <time>2024-09-19T14:38:51Z</time>
      </trkpt>
      <trkpt lat="50.647865999490023" lon="13.056987030431628">
        <ele>466.86000000000001</ele>
        <time>2024-09-19T14:38:52Z</time>
      </trkpt>
      <trkpt lat="50.64781797118485" lon="13.057051990181208">
        <ele>467.33999999999997</ele>
        <time>2024-09-19T14:38:53Z</time>
      </trkpt>
      <trkpt lat="50.647767009213567" lon="13.05712197907269">
        <ele>467.81999999999999</ele>
        <time>2024-09-19T14:38:54Z</time>
      </trkpt>
      <trkpt lat="50.647686962038279" lon="13.057181993499398">
        <ele>467.81999999999999</ele>
        <time>2024-09-19T14:38:55Z</time>
      </trkpt>
      <trkpt lat="50.647608004510403" lon="13.057242007926106">
        <ele>468.30000000000001</ele>
        <time>2024-09-19T14:38:56Z</time>
      </trkpt>
      <trkpt lat="50.647519994527102" lon="13.0572509765625">
        <ele>468.77999999999997</ele>
        <time>2024-09-19T14:38:57Z</time>
      </trkpt>
      <trkpt lat="50.647428967058659" lon="13.057241002097726">
        <ele>469.25999999999999</ele>
        <time>2024-09-19T14:38:58Z</time>
      </trkpt>
      <trkpt lat="50.647331988438964" lon="13.057175958529115">
        <ele>469.74000000000001</ele>
        <time>2024-09-19T14:38:59Z</time>
      </trkpt>
      <trkpt lat="50.647268034517765" lon="13.057049978524446">
        <ele>469.74000000000001</ele>
        <time>2024-09-19T14:39:00Z</time>
      </trkpt>
      <trkpt lat="50.647198967635632" lon="13.056915029883385">
        <ele>469.25999999999999</ele>
        <time>2024-09-19T14:39:01Z</time>
      </trkpt>
      <trkpt lat="50.647128978744149" lon="13.05677798576653">
        <ele>469.25999999999999</ele>
        <time>2024-09-19T14:39:02Z</time>
      </trkpt>
      <trkpt lat="50.646457001566887" lon="13.055276032537222">
        <ele>469.25999999999999</ele>
        <time>2024-09-19T14:39:11Z</time>
      </trkpt>
      <trkpt lat="50.646231025457382" lon="13.054722994565964">
        <ele>468.30000000000001</ele>
        <time>2024-09-19T14:39:14Z</time>
      </trkpt>
      <trkpt lat="50.646151984110475" lon="13.05458502843976">
        <ele>468.30000000000001</ele>
        <time>2024-09-19T14:39:15Z</time>
      </trkpt>
      <trkpt lat="50.646075960248709" lon="13.054475979879498">
        <ele>467.81999999999999</ele>
        <time>2024-09-19T14:39:16Z</time>
      </trkpt>
      <trkpt lat="50.645986022427678" lon="13.054440021514893">
        <ele>467.33999999999997</ele>
        <time>2024-09-19T14:39:17Z</time>
      </trkpt>
      <trkpt lat="50.645900024101138" lon="13.054457036778331">
        <ele>466.86000000000001</ele>
        <time>2024-09-19T14:39:18Z</time>
      </trkpt>
      <trkpt lat="50.645831963047385" lon="13.054554015398026">
        <ele>465.89999999999998</ele>
        <time>2024-09-19T14:39:19Z</time>
      </trkpt>
      <trkpt lat="50.645753005519509" lon="13.054707990959287">
        <ele>465.89999999999998</ele>
        <time>2024-09-19T14:39:20Z</time>
      </trkpt>
      <trkpt lat="50.645662983879447" lon="13.05488602258265">
        <ele>464.93000000000001</ele>
        <time>2024-09-19T14:39:21Z</time>
      </trkpt>
      <trkpt lat="50.645562987774611" lon="13.05508098565042">
        <ele>464.44999999999999</ele>
        <time>2024-09-19T14:39:22Z</time>
      </trkpt>
      <trkpt lat="50.645457040518522" lon="13.055290030315518">
        <ele>464.44999999999999</ele>
        <time>2024-09-19T14:39:23Z</time>
      </trkpt>
      <trkpt lat="50.645210025832057" lon="13.055735025554895">
        <ele>464.44999999999999</ele>
        <time>2024-09-19T14:39:25Z</time>
      </trkpt>
      <trkpt lat="50.644493037834764" lon="13.056699028238654">
        <ele>465.89999999999998</ele>
        <time>2024-09-19T14:39:30Z</time>
      </trkpt>
      <trkpt lat="50.644349958747625" lon="13.056816039606929">
        <ele>466.38</ele>
        <time>2024-09-19T14:39:31Z</time>
      </trkpt>
      <trkpt lat="50.644212998449802" lon="13.05692701600492">
        <ele>467.33999999999997</ele>
        <time>2024-09-19T14:39:32Z</time>
      </trkpt>
      <trkpt lat="50.644070003181696" lon="13.056982001289725">
        <ele>467.81999999999999</ele>
        <time>2024-09-19T14:39:33Z</time>
      </trkpt>
      <trkpt lat="50.643926002085209" lon="13.057021982967854">
        <ele>468.77999999999997</ele>
        <time>2024-09-19T14:39:34Z</time>
      </trkpt>
      <trkpt lat="50.643785018473864" lon="13.057060958817601">
        <ele>469.74000000000001</ele>
        <time>2024-09-19T14:39:35Z</time>
      </trkpt>
      <trkpt lat="50.642607025802135" lon="13.057290958240628">
        <ele>479.83999999999997</ele>
        <time>2024-09-19T14:39:42Z</time>
      </trkpt>
      <trkpt lat="50.640622023493052" lon="13.057548031210899">
        <ele>495.69999999999999</ele>
        <time>2024-09-19T14:39:51Z</time>
      </trkpt>
      <trkpt lat="50.640221033245325" lon="13.057483993470669">
        <ele>499.54000000000002</ele>
        <time>2024-09-19T14:39:53Z</time>
      </trkpt>
      <trkpt lat="50.639559030532837" lon="13.057310990989208">
        <ele>505.79000000000002</ele>
        <time>2024-09-19T14:39:57Z</time>
      </trkpt>
      <trkpt lat="50.639432966709137" lon="13.057220969349146">
        <ele>506.75</ele>
        <time>2024-09-19T14:39:58Z</time>
      </trkpt>
      <trkpt lat="50.639318972826004" lon="13.057106975466013">
        <ele>507.70999999999998</ele>
        <time>2024-09-19T14:39:59Z</time>
      </trkpt>
      <trkpt lat="50.639235991984606" lon="13.056955011561513">
        <ele>508.19</ele>
        <time>2024-09-19T14:40:00Z</time>
      </trkpt>
      <trkpt lat="50.639173965901136" lon="13.056769017130136">
        <ele>508.67000000000002</ele>
        <time>2024-09-19T14:40:01Z</time>
      </trkpt>
      <trkpt lat="50.639098025858402" lon="13.056543041020632">
        <ele>509.63999999999999</ele>
        <time>2024-09-19T14:40:02Z</time>
      </trkpt>
      <trkpt lat="50.639070030301809" lon="13.056337013840675">
        <ele>510.60000000000002</ele>
        <time>2024-09-19T14:40:03Z</time>
      </trkpt>
      <trkpt lat="50.639035999774933" lon="13.05608999915421">
        <ele>511.56</ele>
        <time>2024-09-19T14:40:04Z</time>
      </trkpt>
      <trkpt lat="50.638723019510508" lon="13.054074989631772">
        <ele>515.39999999999998</ele>
        <time>2024-09-19T14:40:12Z</time>
      </trkpt>
      <trkpt lat="50.638399980962276" lon="13.052661968395114">
        <ele>513.48000000000002</ele>
        <time>2024-09-19T14:40:18Z</time>
      </trkpt>
      <trkpt lat="50.638319011777639" lon="13.052475973963737">
        <ele>512.51999999999998</ele>
        <time>2024-09-19T14:40:19Z</time>
      </trkpt>
      <trkpt lat="50.638237036764622" lon="13.052291991189122">
        <ele>511.56</ele>
        <time>2024-09-19T14:40:20Z</time>
      </trkpt>
      <trkpt lat="50.638122959062457" lon="13.052187971770763">
        <ele>511.07999999999998</ele>
        <time>2024-09-19T14:40:21Z</time>
      </trkpt>
      <trkpt lat="50.638011982664466" lon="13.052086969837546">
        <ele>510.60000000000002</ele>
        <time>2024-09-19T14:40:22Z</time>
      </trkpt>
      <trkpt lat="50.637876028195024" lon="13.052088981494308">
        <ele>510.12</ele>
        <time>2024-09-19T14:40:23Z</time>
      </trkpt>
      <trkpt lat="50.637766979634762" lon="13.052097028121352">
        <ele>510.12</ele>
        <time>2024-09-19T14:40:24Z</time>
      </trkpt>
      <trkpt lat="50.637668995186687" lon="13.052123012021184">
        <ele>510.12</ele>
        <time>2024-09-19T14:40:25Z</time>
      </trkpt>
      <trkpt lat="50.637586014345288" lon="13.052174979820848">
        <ele>509.63999999999999</ele>
        <time>2024-09-19T14:40:26Z</time>
      </trkpt>
      <trkpt lat="50.63746003434062" lon="13.052254021167755">
        <ele>509.63999999999999</ele>
        <time>2024-09-19T14:40:28Z</time>
      </trkpt>
      <trkpt lat="50.637418963015079" lon="13.052278999239206">
        <ele>509.63999999999999</ele>
        <time>2024-09-19T14:40:29Z</time>
      </trkpt>
      <trkpt lat="50.637337993830442" lon="13.05233096703887">
        <ele>510.12</ele>
        <time>2024-09-19T14:40:33Z</time>
      </trkpt>
      <trkpt lat="50.637337993830442" lon="13.05233096703887">
        <ele>510.12</ele>
        <time>2024-09-19T14:40:43Z</time>
      </trkpt>
      <trkpt lat="50.637331958860159" lon="13.052334990352392">
        <ele>509.63999999999999</ele>
        <time>2024-09-19T14:41:18Z</time>
      </trkpt>
      <trkpt lat="50.637318966910243" lon="13.052343958988786">
        <ele>509.63999999999999</ele>
        <time>2024-09-19T14:41:19Z</time>
      </trkpt>
      <trkpt lat="50.637277979403734" lon="13.052346976473927">
        <ele>525.98000000000002</ele>
        <time>2024-09-19T14:42:48Z</time>
      </trkpt>
      <trkpt lat="50.637316033244133" lon="13.052233988419175">
        <ele>509.63999999999999</ele>
        <time>2024-09-19T14:43:31Z</time>
      </trkpt>
      <trkpt lat="50.637323996052146" lon="13.052300959825516">
        <ele>505.31</ele>
        <time>2024-09-19T14:44:11Z</time>
      </trkpt>
      <trkpt lat="50.63733296468854" lon="13.052283022552729">
        <ele>504.35000000000002</ele>
        <time>2024-09-19T14:44:44Z</time>
      </trkpt>
      <trkpt lat="50.63733296468854" lon="13.05228604003787">
        <ele>503.87</ele>
        <time>2024-09-19T14:45:22Z</time>
      </trkpt>
      <trkpt lat="50.63733296468854" lon="13.052334990352392">
        <ele>503.87</ele>
        <time>2024-09-19T14:45:41Z</time>
      </trkpt>
      <trkpt lat="50.637304969131947" lon="13.052354017272592">
        <ele>503.38999999999999</ele>
        <time>2024-09-19T14:45:42Z</time>
      </trkpt>
      <trkpt lat="50.637259036302567" lon="13.052386036142707">
        <ele>502.91000000000003</ele>
        <time>2024-09-19T14:45:43Z</time>
      </trkpt>
      <trkpt lat="50.637189969420433" lon="13.052433980628848">
        <ele>502.43000000000001</ele>
        <time>2024-09-19T14:45:44Z</time>
      </trkpt>
      <trkpt lat="50.637098019942641" lon="13.052497012540698">
        <ele>501.94999999999999</ele>
        <time>2024-09-19T14:45:45Z</time>
      </trkpt>
      <trkpt lat="50.636857962235808" lon="13.052613018080592">
        <ele>500.5</ele>
        <time>2024-09-19T14:45:47Z</time>
      </trkpt>
      <trkpt lat="50.6358050275594" lon="13.053010990843177">
        <ele>497.62</ele>
        <time>2024-09-19T14:45:53Z</time>
      </trkpt>
      <trkpt lat="50.634224032983184" lon="13.053471995517612">
        <ele>497.62</ele>
        <time>2024-09-19T14:46:00Z</time>
      </trkpt>
      <trkpt lat="50.632637003436685" lon="13.053187010809779">
        <ele>498.10000000000002</ele>
        <time>2024-09-19T14:46:07Z</time>
      </trkpt>
      <trkpt lat="50.632452014833689" lon="13.053083997219801">
        <ele>498.57999999999998</ele>
        <time>2024-09-19T14:46:08Z</time>
      </trkpt>
      <trkpt lat="50.632274989038706" lon="13.052986012771726">
        <ele>499.06</ele>
        <time>2024-09-19T14:46:09Z</time>
      </trkpt>
      <trkpt lat="50.632108021527529" lon="13.052819967269897">
        <ele>499.06</ele>
        <time>2024-09-19T14:46:10Z</time>
      </trkpt>
      <trkpt lat="50.631976006552577" lon="13.052626010030508">
        <ele>499.06</ele>
        <time>2024-09-19T14:46:11Z</time>
      </trkpt>
      <trkpt lat="50.631847009062767" lon="13.05243699811399">
        <ele>498.57999999999998</ele>
        <time>2024-09-19T14:46:12Z</time>
      </trkpt>
      <trkpt lat="50.631724968552589" lon="13.052257038652897">
        <ele>498.10000000000002</ele>
        <time>2024-09-19T14:46:13Z</time>
      </trkpt>
      <trkpt lat="50.631610974669456" lon="13.052089987322688">
        <ele>497.13999999999999</ele>
        <time>2024-09-19T14:46:14Z</time>
      </trkpt>
      <trkpt lat="50.631507961079478" lon="13.051992002874613">
        <ele>496.66000000000003</ele>
        <time>2024-09-19T14:46:15Z</time>
      </trkpt>
      <trkpt lat="50.631371000781655" lon="13.051982028409839">
        <ele>495.69999999999999</ele>
        <time>2024-09-19T14:46:16Z</time>
      </trkpt>
      <trkpt lat="50.631222976371646" lon="13.051972975954413">
        <ele>494.74000000000001</ele>
        <time>2024-09-19T14:46:17Z</time>
      </trkpt>
      <trkpt lat="50.631090961396694" lon="13.052071966230869">
        <ele>493.76999999999998</ele>
        <time>2024-09-19T14:46:18Z</time>
      </trkpt>
      <trkpt lat="50.630935980007052" lon="13.052200963720679">
        <ele>492.81</ele>
        <time>2024-09-19T14:46:19Z</time>
      </trkpt>
      <trkpt lat="50.630789967253804" lon="13.052376983687282">
        <ele>491.37</ele>
        <time>2024-09-19T14:46:20Z</time>
      </trkpt>
      <trkpt lat="50.630643032491207" lon="13.052585022523999">
        <ele>490.41000000000003</ele>
        <time>2024-09-19T14:46:21Z</time>
      </trkpt>
      <trkpt lat="50.630494002252817" lon="13.052808986976743">
        <ele>488.97000000000003</ele>
        <time>2024-09-19T14:46:22Z</time>
      </trkpt>
      <trkpt lat="50.630300967022777" lon="13.052941001951694">
        <ele>488.49000000000001</ele>
        <time>2024-09-19T14:46:23Z</time>
      </trkpt>
      <trkpt lat="50.630102986469865" lon="13.053076034411788">
        <ele>487.52999999999997</ele>
        <time>2024-09-19T14:46:24Z</time>
      </trkpt>
      <trkpt lat="50.62989997677505" lon="13.053206959739327">
        <ele>486.56</ele>
        <time>2024-09-19T14:46:25Z</time>
      </trkpt>
      <trkpt lat="50.628376984968781" lon="13.053997037932277">
        <ele>484.63999999999999</ele>
        <time>2024-09-19T14:46:32Z</time>
      </trkpt>
      <trkpt lat="50.628196019679308" lon="13.053999971598387">
        <ele>484.63999999999999</ele>
        <time>2024-09-19T14:46:33Z</time>
      </trkpt>
      <trkpt lat="50.628017988055944" lon="13.05398304015398">
        <ele>484.16000000000003</ele>
        <time>2024-09-19T14:46:34Z</time>
      </trkpt>
      <trkpt lat="50.626751985400915" lon="13.053467972204089">
        <ele>482.24000000000001</ele>
        <time>2024-09-19T14:46:40Z</time>
      </trkpt>
      <trkpt lat="50.625310968607664" lon="13.052814016118646">
        <ele>479.83999999999997</ele>
        <time>2024-09-19T14:46:47Z</time>
      </trkpt>
      <trkpt lat="50.625135032460093" lon="13.052684012800455">
        <ele>479.83999999999997</ele>
        <time>2024-09-19T14:46:48Z</time>
      </trkpt>
      <trkpt lat="50.624978961423039" lon="13.052551997825503">
        <ele>479.83999999999997</ele>
        <time>2024-09-19T14:46:49Z</time>
      </trkpt>
      <trkpt lat="50.624835966154933" lon="13.052345970645547">
        <ele>479.35000000000002</ele>
        <time>2024-09-19T14:46:50Z</time>
      </trkpt>
      <trkpt lat="50.624703029170632" lon="13.052155030891299">
        <ele>479.35000000000002</ele>
        <time>2024-09-19T14:46:51Z</time>
      </trkpt>
      <trkpt lat="50.624585011973977" lon="13.051920002326369">
        <ele>478.87</ele>
        <time>2024-09-19T14:46:52Z</time>
      </trkpt>
      <trkpt lat="50.624491972848773" lon="13.051668964326382">
        <ele>477.91000000000003</ele>
        <time>2024-09-19T14:46:53Z</time>
      </trkpt>
      <trkpt lat="50.624446962028742" lon="13.051353972405195">
        <ele>477.43000000000001</ele>
        <time>2024-09-19T14:46:54Z</time>
      </trkpt>
      <trkpt lat="50.624406980350614" lon="13.051044009625912">
        <ele>476.47000000000003</ele>
        <time>2024-09-19T14:46:55Z</time>
      </trkpt>
      <trkpt lat="50.624396000057459" lon="13.05069699883461">
        <ele>475.02999999999997</ele>
        <time>2024-09-19T14:46:56Z</time>
      </trkpt>
      <trkpt lat="50.624389965087175" lon="13.050339007750154">
        <ele>474.55000000000001</ele>
        <time>2024-09-19T14:46:57Z</time>
      </trkpt>
      <trkpt lat="50.624362975358963" lon="13.048532037064433">
        <ele>465.89999999999998</ele>
        <time>2024-09-19T14:47:03Z</time>
      </trkpt>
      <trkpt lat="50.624318970367312" lon="13.047984028235078">
        <ele>462.05000000000001</ele>
        <time>2024-09-19T14:47:06Z</time>
      </trkpt>
      <trkpt lat="50.624271025881171" lon="13.047853019088507">
        <ele>462.05000000000001</ele>
        <time>2024-09-19T14:47:07Z</time>
      </trkpt>
      <trkpt lat="50.624206988140941" lon="13.047787975519896">
        <ele>461.08999999999997</ele>
        <time>2024-09-19T14:47:08Z</time>
      </trkpt>
      <trkpt lat="50.624120989814401" lon="13.047807002440095">
        <ele>460.13</ele>
        <time>2024-09-19T14:47:09Z</time>
      </trkpt>
      <trkpt lat="50.624014036729932" lon="13.047830974683166">
        <ele>458.69</ele>
        <time>2024-09-19T14:47:10Z</time>
      </trkpt>
      <trkpt lat="50.623911023139954" lon="13.047951003536582">
        <ele>457.72000000000003</ele>
        <time>2024-09-19T14:47:11Z</time>
      </trkpt>
      <trkpt lat="50.623790994286537" lon="13.048091987147927">
        <ele>456.75999999999999</ele>
        <time>2024-09-19T14:47:12Z</time>
      </trkpt>
      <trkpt lat="50.622954983264208" lon="13.049079040065408">
        <ele>445.70999999999998</ele>
        <time>2024-09-19T14:47:19Z</time>
      </trkpt>
      <trkpt lat="50.621810015290976" lon="13.050442021340132">
        <ele>432.73000000000002</ele>
        <time>2024-09-19T14:47:31Z</time>
      </trkpt>
      <trkpt lat="50.62171395868063" lon="13.05046197026968">
        <ele>431.29000000000002</ele>
        <time>2024-09-19T14:47:32Z</time>
      </trkpt>
      <trkpt lat="50.621624020859599" lon="13.050435986369848">
        <ele>430.32999999999998</ele>
        <time>2024-09-19T14:47:33Z</time>
      </trkpt>
      <trkpt lat="50.621547996997833" lon="13.050347976386547">
        <ele>428.88999999999999</ele>
        <time>2024-09-19T14:47:34Z</time>
      </trkpt>
      <trkpt lat="50.621486976742744" lon="13.050231970846653">
        <ele>427.92000000000002</ele>
        <time>2024-09-19T14:47:35Z</time>
      </trkpt>
      <trkpt lat="50.62143299728632" lon="13.050106996670365">
        <ele>426.48000000000002</ele>
        <time>2024-09-19T14:47:36Z</time>
      </trkpt>
      <trkpt lat="50.621377006173134" lon="13.049972970038652">
        <ele>425.51999999999998</ele>
        <time>2024-09-19T14:47:37Z</time>
      </trkpt>
      <trkpt lat="50.620882976800203" lon="13.048728005960584">
        <ele>420.70999999999998</ele>
        <time>2024-09-19T14:47:46Z</time>
      </trkpt>
      <trkpt lat="50.620708968490362" lon="13.048306982964277">
        <ele>418.31</ele>
        <time>2024-09-19T14:47:49Z</time>
      </trkpt>
      <trkpt lat="50.620548035949469" lon="13.047873973846436">
        <ele>416.38999999999999</ele>
        <time>2024-09-19T14:47:52Z</time>
      </trkpt>
      <trkpt lat="50.620507970452309" lon="13.047712035477161">
        <ele>415.91000000000003</ele>
        <time>2024-09-19T14:47:53Z</time>
      </trkpt>
      <trkpt lat="50.620473017916083" lon="13.047536015510559">
        <ele>414.94999999999999</ele>
        <time>2024-09-19T14:47:54Z</time>
      </trkpt>
      <trkpt lat="50.620473017916083" lon="13.047401988878846">
        <ele>414.47000000000003</ele>
        <time>2024-09-19T14:47:55Z</time>
      </trkpt>
      <trkpt lat="50.620507970452309" lon="13.04721599444747">
        <ele>413.98000000000002</ele>
        <time>2024-09-19T14:47:56Z</time>
      </trkpt>
      <trkpt lat="50.620534960180521" lon="13.047075010836124">
        <ele>413.01999999999998</ele>
        <time>2024-09-19T14:47:57Z</time>
      </trkpt>
      <trkpt lat="50.620561027899384" lon="13.04693796671927">
        <ele>413.01999999999998</ele>
        <time>2024-09-19T14:47:58Z</time>
      </trkpt>
      <trkpt lat="50.620588017627597" lon="13.046797988936305">
        <ele>413.01999999999998</ele>
        <time>2024-09-19T14:47:59Z</time>
      </trkpt>
      <trkpt lat="50.620614001527429" lon="13.046660022810102">
        <ele>413.01999999999998</ele>
        <time>2024-09-19T14:48:00Z</time>
      </trkpt>
      <trkpt lat="50.620645014569163" lon="13.046501018106937">
        <ele>413.01999999999998</ele>
        <time>2024-09-19T14:48:01Z</time>
      </trkpt>
      <trkpt lat="50.620635962113738" lon="13.046355005353689">
        <ele>413.01999999999998</ele>
        <time>2024-09-19T14:48:02Z</time>
      </trkpt>
      <trkpt lat="50.620603021234274" lon="13.046211004257202">
        <ele>413.01999999999998</ele>
        <time>2024-09-19T14:48:03Z</time>
      </trkpt>
      <trkpt lat="50.620534960180521" lon="13.04605602286756">
        <ele>413.01999999999998</ele>
        <time>2024-09-19T14:48:04Z</time>
      </trkpt>
      <trkpt lat="50.620456002652645" lon="13.045950997620821">
        <ele>413.01999999999998</ele>
        <time>2024-09-19T14:48:05Z</time>
      </trkpt>
      <trkpt lat="50.620135981589556" lon="13.04549996741116">
        <ele>414.94999999999999</ele>
        <time>2024-09-19T14:48:09Z</time>
      </trkpt>
      <trkpt lat="50.620063981041312" lon="13.045378010720015">
        <ele>415.43000000000001</ele>
        <time>2024-09-19T14:48:10Z</time>
      </trkpt>
      <trkpt lat="50.620045959949493" lon="13.045222023501992">
        <ele>415.91000000000003</ele>
        <time>2024-09-19T14:48:11Z</time>
      </trkpt>
      <trkpt lat="50.620021987706423" lon="13.045020019635558">
        <ele>416.38999999999999</ele>
        <time>2024-09-19T14:48:12Z</time>
      </trkpt>
      <trkpt lat="50.620045037940145" lon="13.044882975518703">
        <ele>416.87</ele>
        <time>2024-09-19T14:48:13Z</time>
      </trkpt>
      <trkpt lat="50.620075967162848" lon="13.044699998572469">
        <ele>417.35000000000002</ele>
        <time>2024-09-19T14:48:14Z</time>
      </trkpt>
      <trkpt lat="50.620216028764844" lon="13.043741025030613">
        <ele>420.70999999999998</ele>
        <time>2024-09-19T14:48:19Z</time>
      </trkpt>
      <trkpt lat="50.620216028764844" lon="13.043550001457334">
        <ele>421.68000000000001</ele>
        <time>2024-09-19T14:48:20Z</time>
      </trkpt>
      <trkpt lat="50.620210999622941" lon="13.043365012854338">
        <ele>422.16000000000003</ele>
        <time>2024-09-19T14:48:21Z</time>
      </trkpt>
      <trkpt lat="50.620191972702742" lon="13.043183041736484">
        <ele>422.63999999999999</ele>
        <time>2024-09-19T14:48:22Z</time>
      </trkpt>
      <trkpt lat="50.620173029601574" lon="13.043002998456359">
        <ele>423.12</ele>
        <time>2024-09-19T14:48:23Z</time>
      </trkpt>
      <trkpt lat="50.620117038488388" lon="13.042893027886748">
        <ele>423.60000000000002</ele>
        <time>2024-09-19T14:48:24Z</time>
      </trkpt>
      <trkpt lat="50.620027016848326" lon="13.042818009853363">
        <ele>423.60000000000002</ele>
        <time>2024-09-19T14:48:25Z</time>
      </trkpt>
      <trkpt lat="50.619938001036644" lon="13.042796971276402">
        <ele>423.60000000000002</ele>
        <time>2024-09-19T14:48:26Z</time>
      </trkpt>
      <trkpt lat="50.619856026023626" lon="13.042778028175235">
        <ele>423.12</ele>
        <time>2024-09-19T14:48:27Z</time>
      </trkpt>
      <trkpt lat="50.619774973019958" lon="13.042796971276402">
        <ele>422.63999999999999</ele>
        <time>2024-09-19T14:48:28Z</time>
      </trkpt>
      <trkpt lat="50.619719987735152" lon="13.042847011238337">
        <ele>422.63999999999999</ele>
        <time>2024-09-19T14:48:29Z</time>
      </trkpt>
      <trkpt lat="50.619663996621966" lon="13.04289797320962">
        <ele>422.63999999999999</ele>
        <time>2024-09-19T14:48:30Z</time>
      </trkpt>
      <trkpt lat="50.619610017165542" lon="13.042947007343173">
        <ele>422.16000000000003</ele>
        <time>2024-09-19T14:48:31Z</time>
      </trkpt>
      <trkpt lat="50.619562994688749" lon="13.043045997619629">
        <ele>422.16000000000003</ele>
        <time>2024-09-19T14:48:32Z</time>
      </trkpt>
      <trkpt lat="50.619548996910453" lon="13.043140964582562">
        <ele>422.16000000000003</ele>
        <time>2024-09-19T14:48:33Z</time>
      </trkpt>
      <trkpt lat="50.619534999132156" lon="13.043239032849669">
        <ele>422.16000000000003</ele>
        <time>2024-09-19T14:48:34Z</time>
      </trkpt>
      <trkpt lat="50.619519995525479" lon="13.043341040611267">
        <ele>422.16000000000003</ele>
        <time>2024-09-19T14:48:35Z</time>
      </trkpt>
      <trkpt lat="50.619503986090422" lon="13.043452017009258">
        <ele>422.16000000000003</ele>
        <time>2024-09-19T14:48:36Z</time>
      </trkpt>
      <trkpt lat="50.619485964998603" lon="13.043571040034294">
        <ele>422.16000000000003</ele>
        <time>2024-09-19T14:48:37Z</time>
      </trkpt>
      <trkpt lat="50.619427040219307" lon="13.043878991156816">
        <ele>422.63999999999999</ele>
        <time>2024-09-19T14:48:40Z</time>
      </trkpt>
      <trkpt lat="50.619373982772231" lon="13.043935988098383">
        <ele>422.63999999999999</ele>
        <time>2024-09-19T14:48:41Z</time>
      </trkpt>
      <trkpt lat="50.619314974173903" lon="13.044000025838614">
        <ele>422.63999999999999</ele>
        <time>2024-09-19T14:48:42Z</time>
      </trkpt>
      <trkpt lat="50.619250014424324" lon="13.044070014730096">
        <ele>423.12</ele>
        <time>2024-09-19T14:48:43Z</time>
      </trkpt>
      <trkpt lat="50.619179019704461" lon="13.044149978086352">
        <ele>423.12</ele>
        <time>2024-09-19T14:48:44Z</time>
      </trkpt>
      <trkpt lat="50.619115987792611" lon="13.044235976412892">
        <ele>423.60000000000002</ele>
        <time>2024-09-19T14:48:45Z</time>
      </trkpt>
      <trkpt lat="50.619053961709142" lon="13.044322980567813">
        <ele>423.60000000000002</ele>
        <time>2024-09-19T14:48:46Z</time>
      </trkpt>
      <trkpt lat="50.618991013616323" lon="13.044409984722733">
        <ele>424.07999999999998</ele>
        <time>2024-09-19T14:48:47Z</time>
      </trkpt>
      <trkpt lat="50.618927981704473" lon="13.044497994706035">
        <ele>424.07999999999998</ele>
        <time>2024-09-19T14:48:48Z</time>
      </trkpt>
      <trkpt lat="50.618750033900142" lon="13.044845005497336">
        <ele>424.56</ele>
        <time>2024-09-19T14:48:51Z</time>
      </trkpt>
      <trkpt lat="50.618620030581951" lon="13.04511196911335">
        <ele>425.04000000000002</ele>
        <time>2024-09-19T14:48:53Z</time>
      </trkpt>
      <trkpt lat="50.618553981184959" lon="13.045245995745063">
        <ele>425.51999999999998</ele>
        <time>2024-09-19T14:48:54Z</time>
      </trkpt>
      <trkpt lat="50.618484998121858" lon="13.045385973528028">
        <ele>425.51999999999998</ele>
        <time>2024-09-19T14:48:55Z</time>
      </trkpt>
      <trkpt lat="50.618288023397326" lon="13.045845972374082">
        <ele>427.44</ele>
        <time>2024-09-19T14:48:58Z</time>
      </trkpt>
      <trkpt lat="50.618017958477139" lon="13.046652982011437">
        <ele>433.20999999999998</ele>
        <time>2024-09-19T14:49:03Z</time>
      </trkpt>
      <trkpt lat="50.617963979020715" lon="13.046826990321279">
        <ele>434.17000000000002</ele>
        <time>2024-09-19T14:49:04Z</time>
      </trkpt>
      <trkpt lat="50.61790999956429" lon="13.046999992802739">
        <ele>435.61000000000001</ele>
        <time>2024-09-19T14:49:05Z</time>
      </trkpt>
      <trkpt lat="50.617300970479846" lon="13.049061018973589">
        <ele>446.67000000000002</ele>
        <time>2024-09-19T14:49:17Z</time>
      </trkpt>
      <trkpt lat="50.617185970768332" lon="13.049592012539506">
        <ele>449.06999999999999</ele>
        <time>2024-09-19T14:49:20Z</time>
      </trkpt>
      <trkpt lat="50.617177002131939" lon="13.049787981435657">
        <ele>449.55000000000001</ele>
        <time>2024-09-19T14:49:21Z</time>
      </trkpt>
      <trkpt lat="50.617146994918585" lon="13.050428023561835">
        <ele>450.51999999999998</ele>
        <time>2024-09-19T14:49:24Z</time>
      </trkpt>
      <trkpt lat="50.617204997688532" lon="13.050756007432938">
        <ele>451.48000000000002</ele>
        <time>2024-09-19T14:49:26Z</time>
      </trkpt>
      <trkpt lat="50.617261994630098" lon="13.050904031842947">
        <ele>451.95999999999998</ele>
        <time>2024-09-19T14:49:27Z</time>
      </trkpt>
      <trkpt lat="50.617328966036439" lon="13.051052978262305">
        <ele>452.44</ele>
        <time>2024-09-19T14:49:28Z</time>
      </trkpt>
      <trkpt lat="50.617404989898205" lon="13.051222041249275">
        <ele>453.39999999999998</ele>
        <time>2024-09-19T14:49:29Z</time>
      </trkpt>
      <trkpt lat="50.617484031245112" lon="13.051332011818886">
        <ele>454.36000000000001</ele>
        <time>2024-09-19T14:49:30Z</time>
      </trkpt>
      <trkpt lat="50.617827018722892" lon="13.051840038970113">
        <ele>459.17000000000002</ele>
        <time>2024-09-19T14:49:34Z</time>
      </trkpt>
      <trkpt lat="50.617879992350936" lon="13.051998037844896">
        <ele>460.13</ele>
        <time>2024-09-19T14:49:35Z</time>
      </trkpt>
      <trkpt lat="50.617891978472471" lon="13.052175985649228">
        <ele>461.56999999999999</ele>
        <time>2024-09-19T14:49:36Z</time>
      </trkpt>
      <trkpt lat="50.617888960987329" lon="13.052315041422844">
        <ele>462.52999999999997</ele>
        <time>2024-09-19T14:49:37Z</time>
      </trkpt>
      <trkpt lat="50.617855014279485" lon="13.052465999498963">
        <ele>463.49000000000001</ele>
        <time>2024-09-19T14:49:38Z</time>
      </trkpt>
      <trkpt lat="50.617790976539254" lon="13.052583010867238">
        <ele>464.44999999999999</ele>
        <time>2024-09-19T14:49:39Z</time>
      </trkpt>
      <trkpt lat="50.617710007354617" lon="13.05271502584219">
        <ele>465.42000000000002</ele>
        <time>2024-09-19T14:49:40Z</time>
      </trkpt>
      <trkpt lat="50.617615962401032" lon="13.052793983370066">
        <ele>465.89999999999998</ele>
        <time>2024-09-19T14:49:41Z</time>
      </trkpt>
      <trkpt lat="50.617534993216395" lon="13.052861960604787">
        <ele>466.86000000000001</ele>
        <time>2024-09-19T14:49:42Z</time>
      </trkpt>
      <trkpt lat="50.6174570415169" lon="13.052919963374734">
        <ele>467.33999999999997</ele>
        <time>2024-09-19T14:49:43Z</time>
      </trkpt>
      <trkpt lat="50.617385962978005" lon="13.052941001951694">
        <ele>467.33999999999997</ele>
        <time>2024-09-19T14:49:44Z</time>
      </trkpt>
      <trkpt lat="50.617319997400045" lon="13.052961034700274">
        <ele>467.81999999999999</ele>
        <time>2024-09-19T14:49:45Z</time>
      </trkpt>
      <trkpt lat="50.617212038487196" lon="13.052914012223482">
        <ele>468.30000000000001</ele>
        <time>2024-09-19T14:49:46Z</time>
      </trkpt>
      <trkpt lat="50.617164010182023" lon="13.052836982533336">
        <ele>468.30000000000001</ele>
        <time>2024-09-19T14:49:47Z</time>
      </trkpt>
      <trkpt lat="50.617091003805399" lon="13.052843017503619">
        <ele>468.30000000000001</ele>
        <time>2024-09-19T14:49:48Z</time>
      </trkpt>
      <trkpt lat="50.617040041834116" lon="13.052874030545354">
        <ele>468.30000000000001</ele>
        <time>2024-09-19T14:49:49Z</time>
      </trkpt>
      <trkpt lat="50.61687701381743" lon="13.052844023332">
        <ele>468.30000000000001</ele>
        <time>2024-09-19T14:49:50Z</time>
      </trkpt>
      <trkpt lat="50.616780035197735" lon="13.052765987813473">
        <ele>468.77999999999997</ele>
        <time>2024-09-19T14:49:51Z</time>
      </trkpt>
      <trkpt lat="50.616682972759008" lon="13.052687030285597">
        <ele>469.25999999999999</ele>
        <time>2024-09-19T14:49:52Z</time>
      </trkpt>
      <trkpt lat="50.616609966382384" lon="13.052532970905304">
        <ele>469.74000000000001</ele>
        <time>2024-09-19T14:49:53Z</time>
      </trkpt>
      <trkpt lat="50.616548024117947" lon="13.052390981465578">
        <ele>470.69999999999999</ele>
        <time>2024-09-19T14:49:54Z</time>
      </trkpt>
      <trkpt lat="50.616482980549335" lon="13.05224496871233">
        <ele>471.18000000000001</ele>
        <time>2024-09-19T14:49:55Z</time>
      </trkpt>
      <trkpt lat="50.616423971951008" lon="13.052099039778113">
        <ele>471.66000000000003</ele>
        <time>2024-09-19T14:49:56Z</time>
      </trkpt>
      <trkpt lat="50.616030022501945" lon="13.050802024081349">
        <ele>475.50999999999999</ele>
        <time>2024-09-19T14:50:03Z</time>
      </trkpt>
      <trkpt lat="50.615701032802463" lon="13.049496961757541">
        <ele>479.83999999999997</ele>
        <time>2024-09-19T14:50:08Z</time>
      </trkpt>
      <trkpt lat="50.615640012547374" lon="13.049198985099792">
        <ele>481.27999999999997</ele>
        <time>2024-09-19T14:50:09Z</time>
      </trkpt>
      <trkpt lat="50.615621991455555" lon="13.047133013606071">
        <ele>490.88999999999999</ele>
        <time>2024-09-19T14:50:15Z</time>
      </trkpt>
      <trkpt lat="50.615871017798781" lon="13.044794965535402">
        <ele>501.94999999999999</ele>
        <time>2024-09-19T14:50:22Z</time>
      </trkpt>
      <trkpt lat="50.61586900614202" lon="13.044462036341429">
        <ele>503.38999999999999</ele>
        <time>2024-09-19T14:50:23Z</time>
      </trkpt>
      <trkpt lat="50.615844028070569" lon="13.044132040813565">
        <ele>504.82999999999998</ele>
        <time>2024-09-19T14:50:24Z</time>
      </trkpt>
      <trkpt lat="50.615817038342357" lon="13.043754016980529">
        <ele>506.75</ele>
        <time>2024-09-19T14:50:25Z</time>
      </trkpt>
      <trkpt lat="50.615741014480591" lon="13.04347800090909">
        <ele>507.70999999999998</ele>
        <time>2024-09-19T14:50:26Z</time>
      </trkpt>
      <trkpt lat="50.615636995062232" lon="13.043168960139155">
        <ele>509.16000000000003</ele>
        <time>2024-09-19T14:50:27Z</time>
      </trkpt>
      <trkpt lat="50.615515960380435" lon="13.042898979038">
        <ele>510.12</ele>
        <time>2024-09-19T14:50:28Z</time>
      </trkpt>
      <trkpt lat="50.615362990647554" lon="13.042668979614973">
        <ele>510.60000000000002</ele>
        <time>2024-09-19T14:50:29Z</time>
      </trkpt>
      <trkpt lat="50.615205997601151" lon="13.042451972141862">
        <ele>511.07999999999998</ele>
        <time>2024-09-19T14:50:30Z</time>
      </trkpt>
      <trkpt lat="50.615032995119691" lon="13.042248040437698">
        <ele>512.03999999999996</ele>
        <time>2024-09-19T14:50:31Z</time>
      </trkpt>
      <trkpt lat="50.614853035658598" lon="13.042084006592631">
        <ele>513</ele>
        <time>2024-09-19T14:50:32Z</time>
      </trkpt>
      <trkpt lat="50.613090991973877" lon="13.040424976497889">
        <ele>525.5</ele>
        <time>2024-09-19T14:50:42Z</time>
      </trkpt>
      <trkpt lat="50.612895023077726" lon="13.040320035070181">
        <ele>526.46000000000004</ele>
        <time>2024-09-19T14:50:43Z</time>
      </trkpt>
      <trkpt lat="50.612708022817969" lon="13.040274018421769">
        <ele>527.89999999999998</ele>
        <time>2024-09-19T14:50:44Z</time>
      </trkpt>
      <trkpt lat="50.612518005073071" lon="13.040277035906911">
        <ele>529.82000000000005</ele>
        <time>2024-09-19T14:50:45Z</time>
      </trkpt>
      <trkpt lat="50.612341985106468" lon="13.040311988443136">
        <ele>531.26999999999998</ele>
        <time>2024-09-19T14:50:46Z</time>
      </trkpt>
      <trkpt lat="50.612167976796627" lon="13.040364040061831">
        <ele>533.19000000000005</ele>
        <time>2024-09-19T14:50:47Z</time>
      </trkpt>
      <trkpt lat="50.610685972496867" lon="13.040823033079505">
        <ele>539.91999999999996</ele>
        <time>2024-09-19T14:50:54Z</time>
      </trkpt>
      <trkpt lat="50.60895100235939" lon="13.041371963918209">
        <ele>538.48000000000002</ele>
        <time>2024-09-19T14:51:02Z</time>
      </trkpt>
      <trkpt lat="50.60850097797811" lon="13.041495010256767">
        <ele>537.50999999999999</ele>
        <time>2024-09-19T14:51:05Z</time>
      </trkpt>
      <trkpt lat="50.608352031558752" lon="13.041516970843077">
        <ele>536.54999999999995</ele>
        <time>2024-09-19T14:51:06Z</time>
      </trkpt>
      <trkpt lat="50.608206018805504" lon="13.041539015248418">
        <ele>536.07000000000005</ele>
        <time>2024-09-19T14:51:07Z</time>
      </trkpt>
      <trkpt lat="50.60802798718214" lon="13.04156600497663">
        <ele>536.07000000000005</ele>
        <time>2024-09-19T14:51:08Z</time>
      </trkpt>
      <trkpt lat="50.607884991914034" lon="13.041506996378303">
        <ele>535.59000000000003</ele>
        <time>2024-09-19T14:51:09Z</time>
      </trkpt>
      <trkpt lat="50.607744008302689" lon="13.041448993608356">
        <ele>535.59000000000003</ele>
        <time>2024-09-19T14:51:10Z</time>
      </trkpt>
      <trkpt lat="50.607601013034582" lon="13.041390990838408">
        <ele>535.11000000000001</ele>
        <time>2024-09-19T14:51:11Z</time>
      </trkpt>
      <trkpt lat="50.607222989201546" lon="13.040987988933921">
        <ele>535.11000000000001</ele>
        <time>2024-09-19T14:51:14Z</time>
      </trkpt>
      <trkpt lat="50.606197966262698" lon="13.039573961868882">
        <ele>540.39999999999998</ele>
        <time>2024-09-19T14:51:24Z</time>
      </trkpt>
      <trkpt lat="50.605201022699475" lon="13.038164963945746">
        <ele>545.69000000000005</ele>
        <time>2024-09-19T14:51:32Z</time>
      </trkpt>
      <trkpt lat="50.604385966435075" lon="13.036973979324102">
        <ele>550.49000000000001</ele>
        <time>2024-09-19T14:51:37Z</time>
      </trkpt>
      <trkpt lat="50.604001991450787" lon="13.03636503405869">
        <ele>554.82000000000005</ele>
        <time>2024-09-19T14:51:42Z</time>
      </trkpt>
      <trkpt lat="50.603636037558317" lon="13.03563698194921">
        <ele>558.65999999999997</ele>
        <time>2024-09-19T14:51:50Z</time>
      </trkpt>
      <trkpt lat="50.60321400873363" lon="13.034521015360951">
        <ele>559.62</ele>
        <time>2024-09-19T14:52:00Z</time>
      </trkpt>
      <trkpt lat="50.602837996557355" lon="13.033561035990715">
        <ele>563.47000000000003</ele>
        <time>2024-09-19T14:52:10Z</time>
      </trkpt>
      <trkpt lat="50.602384032681584" lon="13.032378014177084">
        <ele>566.83000000000004</ele>
        <time>2024-09-19T14:52:19Z</time>
      </trkpt>
      <trkpt lat="50.60162496753037" lon="13.030431987717748">
        <ele>572.12</ele>
        <time>2024-09-19T14:52:30Z</time>
      </trkpt>
      <trkpt lat="50.600966988131404" lon="13.028774969279766">
        <ele>576.45000000000005</ele>
        <time>2024-09-19T14:52:39Z</time>
      </trkpt>
      <trkpt lat="50.600136006250978" lon="13.027117028832436">
        <ele>574.03999999999996</ele>
        <time>2024-09-19T14:52:49Z</time>
      </trkpt>
      <trkpt lat="50.599313993006945" lon="13.025478031486273">
        <ele>572.12</ele>
        <time>2024-09-19T14:53:00Z</time>
      </trkpt>
      <trkpt lat="50.599191030487418" lon="13.025244008749723">
        <ele>572.60000000000002</ele>
        <time>2024-09-19T14:53:03Z</time>
      </trkpt>
      <trkpt lat="50.598994977772236" lon="13.024869002401829">
        <ele>572.60000000000002</ele>
        <time>2024-09-19T14:53:10Z</time>
      </trkpt>
      <trkpt lat="50.598468007519841" lon="13.023840039968491">
        <ele>573.08000000000004</ele>
        <time>2024-09-19T14:53:17Z</time>
      </trkpt>
      <trkpt lat="50.597504004836082" lon="13.022067015990615">
        <ele>574.03999999999996</ele>
        <time>2024-09-19T14:53:27Z</time>
      </trkpt>
      <trkpt lat="50.596543019637465" lon="13.020344031974673">
        <ele>577.88999999999999</ele>
        <time>2024-09-19T14:53:39Z</time>
      </trkpt>
      <trkpt lat="50.596039015799761" lon="13.019482037052512">
        <ele>581.73000000000002</ele>
        <time>2024-09-19T14:53:45Z</time>
      </trkpt>
      <trkpt lat="50.59522395953536" lon="13.018135987222195">
        <ele>586.05999999999995</ele>
        <time>2024-09-19T14:53:55Z</time>
      </trkpt>
      <trkpt lat="50.594318965449929" lon="13.017165027558804">
        <ele>589.42999999999995</ele>
        <time>2024-09-19T14:54:05Z</time>
      </trkpt>
      <trkpt lat="50.594221986830235" lon="13.017076011747122">
        <ele>589.42999999999995</ele>
        <time>2024-09-19T14:54:07Z</time>
      </trkpt>
      <trkpt lat="50.594175970181823" lon="13.017040975391865">
        <ele>589.42999999999995</ele>
        <time>2024-09-19T14:54:08Z</time>
      </trkpt>
      <trkpt lat="50.594071028754115" lon="13.016961012035608">
        <ele>588.95000000000005</ele>
        <time>2024-09-19T14:54:12Z</time>
      </trkpt>
      <trkpt lat="50.593785038217902" lon="13.016744004562497">
        <ele>588.46000000000004</ele>
        <time>2024-09-19T14:54:20Z</time>
      </trkpt>
      <trkpt lat="50.592902004718781" lon="13.016071021556854">
        <ele>590.87</ele>
        <time>2024-09-19T14:54:29Z</time>
      </trkpt>
      <trkpt lat="50.591466017067432" lon="13.014985984191298">
        <ele>594.23000000000002</ele>
        <time>2024-09-19T14:54:42Z</time>
      </trkpt>
      <trkpt lat="50.590281989425421" lon="13.014088030904531">
        <ele>598.55999999999995</ele>
        <time>2024-09-19T14:54:55Z</time>
      </trkpt>
      <trkpt lat="50.58991301804781" lon="13.013804974034429">
        <ele>598.08000000000004</ele>
        <time>2024-09-19T14:55:03Z</time>
      </trkpt>
      <trkpt lat="50.58991301804781" lon="13.013804974034429">
        <ele>598.08000000000004</ele>
        <time>2024-09-19T14:55:16Z</time>
      </trkpt>
      <trkpt lat="50.589697016403079" lon="13.013640018180013">
        <ele>596.63999999999999</ele>
        <time>2024-09-19T14:55:26Z</time>
      </trkpt>
      <trkpt lat="50.589499035850167" lon="13.01348595879972">
        <ele>597.12</ele>
        <time>2024-09-19T14:55:30Z</time>
      </trkpt>
      <trkpt lat="50.589457964524627" lon="13.013558965176344">
        <ele>597.60000000000002</ele>
        <time>2024-09-19T14:55:31Z</time>
      </trkpt>
      <trkpt lat="50.589432986453176" lon="13.013629959896207">
        <ele>598.08000000000004</ele>
        <time>2024-09-19T14:55:32Z</time>
      </trkpt>
      <trkpt lat="50.58939803391695" lon="13.013726016506553">
        <ele>598.55999999999995</ele>
        <time>2024-09-19T14:55:33Z</time>
      </trkpt>
      <trkpt lat="50.58935696259141" lon="13.013839004561305">
        <ele>598.55999999999995</ele>
        <time>2024-09-19T14:55:34Z</time>
      </trkpt>
      <trkpt lat="50.589313041418791" lon="13.013959033414721">
        <ele>599.03999999999996</ele>
        <time>2024-09-19T14:55:35Z</time>
      </trkpt>
      <trkpt lat="50.589007018133998" lon="13.014820022508502">
        <ele>600.96000000000004</ele>
        <time>2024-09-19T14:55:41Z</time>
      </trkpt>
      <trkpt lat="50.588943986222148" lon="13.014960000291467">
        <ele>601.44000000000005</ele>
        <time>2024-09-19T14:55:42Z</time>
      </trkpt>
      <trkpt lat="50.588876008987427" lon="13.015104001387954">
        <ele>601.91999999999996</ele>
        <time>2024-09-19T14:55:43Z</time>
      </trkpt>
      <trkpt lat="50.588791016489267" lon="13.01522403024137">
        <ele>602.39999999999998</ele>
        <time>2024-09-19T14:55:44Z</time>
      </trkpt>
      <trkpt lat="50.588694959878922" lon="13.015326038002968">
        <ele>602.88</ele>
        <time>2024-09-19T14:55:45Z</time>
      </trkpt>
      <trkpt lat="50.588597981259227" lon="13.015383034944534">
        <ele>603.36000000000001</ele>
        <time>2024-09-19T14:55:46Z</time>
      </trkpt>
      <trkpt lat="50.588502008467913" lon="13.015440031886101">
        <ele>603.85000000000002</ele>
        <time>2024-09-19T14:55:47Z</time>
      </trkpt>
      <trkpt lat="50.588407963514328" lon="13.015495017170906">
        <ele>604.33000000000004</ele>
        <time>2024-09-19T14:55:48Z</time>
      </trkpt>
      <trkpt lat="50.588306039571762" lon="13.015515971928835">
        <ele>604.80999999999995</ele>
        <time>2024-09-19T14:55:49Z</time>
      </trkpt>
      <trkpt lat="50.58810998685658" lon="13.015515971928835">
        <ele>605.28999999999996</ele>
        <time>2024-09-19T14:55:51Z</time>
      </trkpt>
      <trkpt lat="50.58800496160984" lon="13.015502979978919">
        <ele>605.76999999999998</ele>
        <time>2024-09-19T14:55:52Z</time>
      </trkpt>
      <trkpt lat="50.586794028058648" lon="13.0149220302701">
        <ele>611.53999999999996</ele>
        <time>2024-09-19T14:56:03Z</time>
      </trkpt>
      <trkpt lat="50.586316008120775" lon="13.014851035550237">
        <ele>613.94000000000005</ele>
        <time>2024-09-19T14:56:07Z</time>
      </trkpt>
      <trkpt lat="50.586080979555845" lon="13.014854975044727">
        <ele>615.38</ele>
        <time>2024-09-19T14:56:09Z</time>
      </trkpt>
      <trkpt lat="50.584640968590975" lon="13.014885988086462">
        <ele>624.99000000000001</ele>
        <time>2024-09-19T14:56:21Z</time>
      </trkpt>
      <trkpt lat="50.58344503864646" lon="13.014568984508514">
        <ele>635.57000000000005</ele>
        <time>2024-09-19T14:56:31Z</time>
      </trkpt>
      <trkpt lat="50.582859981805086" lon="13.014561021700501">
        <ele>640.38</ele>
        <time>2024-09-19T14:56:36Z</time>
      </trkpt>
      <trkpt lat="50.581530025228858" lon="13.014749027788639">
        <ele>649.99000000000001</ele>
        <time>2024-09-19T14:56:47Z</time>
      </trkpt>
      <trkpt lat="50.580581026151776" lon="13.014636961743236">
        <ele>657.67999999999995</ele>
        <time>2024-09-19T14:56:55Z</time>
      </trkpt>
      <trkpt lat="50.579604031518102" lon="13.014242006465793">
        <ele>663.92999999999995</ele>
        <time>2024-09-19T14:57:04Z</time>
      </trkpt>
      <trkpt lat="50.578574985265732" lon="13.014005972072482">
        <ele>665.37</ele>
        <time>2024-09-19T14:57:13Z</time>
      </trkpt>
      <trkpt lat="50.5771519895643" lon="13.01440604031086">
        <ele>666.80999999999995</ele>
        <time>2024-09-19T14:57:25Z</time>
      </trkpt>
      <trkpt lat="50.576787041500211" lon="13.014406962320209">
        <ele>666.80999999999995</ele>
        <time>2024-09-19T14:57:28Z</time>
      </trkpt>
      <trkpt lat="50.576671035960317" lon="13.014363963156939">
        <ele>666.80999999999995</ele>
        <time>2024-09-19T14:57:29Z</time>
      </trkpt>
      <trkpt lat="50.576554024592042" lon="13.014320963993669">
        <ele>667.28999999999996</ele>
        <time>2024-09-19T14:57:30Z</time>
      </trkpt>
      <trkpt lat="50.576419997960329" lon="13.014271007850766">
        <ele>667.28999999999996</ele>
        <time>2024-09-19T14:57:31Z</time>
      </trkpt>
      <trkpt lat="50.576320001855493" lon="13.014207975938916">
        <ele>667.76999999999998</ele>
        <time>2024-09-19T14:57:32Z</time>
      </trkpt>
      <trkpt lat="50.576105006039143" lon="13.014024998992682">
        <ele>667.76999999999998</ele>
        <time>2024-09-19T14:57:34Z</time>
      </trkpt>
      <trkpt lat="50.576010039076209" lon="13.013907987624407">
        <ele>668.25</ele>
        <time>2024-09-19T14:57:35Z</time>
      </trkpt>
      <trkpt lat="50.575919011607766" lon="13.013779995962977">
        <ele>668.73000000000002</ele>
        <time>2024-09-19T14:57:36Z</time>
      </trkpt>
      <trkpt lat="50.574576985090971" lon="13.011622997000813">
        <ele>669.70000000000005</ele>
        <time>2024-09-19T14:57:52Z</time>
      </trkpt>
      <trkpt lat="50.573617005720735" lon="13.010195977985859">
        <ele>664.88999999999999</ele>
        <time>2024-09-19T14:58:03Z</time>
      </trkpt>
      <trkpt lat="50.573505023494363" lon="13.010134035721421">
        <ele>663.92999999999995</ele>
        <time>2024-09-19T14:58:04Z</time>
      </trkpt>
      <trkpt lat="50.573060028254986" lon="13.009892972186208">
        <ele>660.55999999999995</ele>
        <time>2024-09-19T14:58:08Z</time>
      </trkpt>
      <trkpt lat="50.572942011058331" lon="13.009878974407911">
        <ele>659.60000000000002</ele>
        <time>2024-09-19T14:58:09Z</time>
      </trkpt>
      <trkpt lat="50.572823993861675" lon="13.009864976629615">
        <ele>659.12</ele>
        <time>2024-09-19T14:58:10Z</time>
      </trkpt>
      <trkpt lat="50.572586031630635" lon="13.009890038520098">
        <ele>657.67999999999995</ele>
        <time>2024-09-19T14:58:12Z</time>
      </trkpt>
      <trkpt lat="50.572472037747502" lon="13.009927002713084">
        <ele>657.67999999999995</ele>
        <time>2024-09-19T14:58:13Z</time>
      </trkpt>
      <trkpt lat="50.572356032207608" lon="13.009963966906071">
        <ele>657.67999999999995</ele>
        <time>2024-09-19T14:58:14Z</time>
      </trkpt>
      <trkpt lat="50.572240026667714" lon="13.010001014918089">
        <ele>657.20000000000005</ele>
        <time>2024-09-19T14:58:15Z</time>
      </trkpt>
      <trkpt lat="50.572121003642678" lon="13.010069997981191">
        <ele>657.20000000000005</ele>
        <time>2024-09-19T14:58:16Z</time>
      </trkpt>
      <trkpt lat="50.572000974789262" lon="13.010182986035943">
        <ele>657.20000000000005</ele>
        <time>2024-09-19T14:58:17Z</time>
      </trkpt>
      <trkpt lat="50.571870971471071" lon="13.010306032374501">
        <ele>657.20000000000005</ele>
        <time>2024-09-19T14:58:18Z</time>
      </trkpt>
      <trkpt lat="50.571748008951545" lon="13.010459002107382">
        <ele>657.20000000000005</ele>
        <time>2024-09-19T14:58:19Z</time>
      </trkpt>
      <trkpt lat="50.571629991754889" lon="13.010643990710378">
        <ele>657.20000000000005</ele>
        <time>2024-09-19T14:58:20Z</time>
      </trkpt>
      <trkpt lat="50.571507029235363" lon="13.010838031768799">
        <ele>656.72000000000003</ele>
        <time>2024-09-19T14:58:21Z</time>
      </trkpt>
      <trkpt lat="50.571420025080442" lon="13.011080017313361">
        <ele>656.24000000000001</ele>
        <time>2024-09-19T14:58:22Z</time>
      </trkpt>
      <trkpt lat="50.571326985955238" lon="13.011337006464601">
        <ele>656.24000000000001</ele>
        <time>2024-09-19T14:58:23Z</time>
      </trkpt>
      <trkpt lat="50.57087897323072" lon="13.012654976919293">
        <ele>655.27999999999997</ele>
        <time>2024-09-19T14:58:28Z</time>
      </trkpt>
      <trkpt lat="50.570753999054432" lon="13.01284097135067">
        <ele>655.27999999999997</ele>
        <time>2024-09-19T14:58:29Z</time>
      </trkpt>
      <trkpt lat="50.570605974644423" lon="13.012998970225453">
        <ele>654.79999999999995</ele>
        <time>2024-09-19T14:58:30Z</time>
      </trkpt>
      <trkpt lat="50.570445964112878" lon="13.013117993250489">
        <ele>654.79999999999995</ele>
        <time>2024-09-19T14:58:31Z</time>
      </trkpt>
      <trkpt lat="50.570262987166643" lon="13.01318597048521">
        <ele>655.27999999999997</ele>
        <time>2024-09-19T14:58:32Z</time>
      </trkpt>
      <trkpt lat="50.570072969421744" lon="13.013232992962003">
        <ele>655.27999999999997</ele>
        <time>2024-09-19T14:58:33Z</time>
      </trkpt>
      <trkpt lat="50.569888986647129" lon="13.013190999627113">
        <ele>655.27999999999997</ele>
        <time>2024-09-19T14:58:34Z</time>
      </trkpt>
      <trkpt lat="50.569709027186036" lon="13.013150012120605">
        <ele>655.27999999999997</ele>
        <time>2024-09-19T14:58:35Z</time>
      </trkpt>
      <trkpt lat="50.569537030532956" lon="13.013081029057503">
        <ele>655.75999999999999</ele>
        <time>2024-09-19T14:58:36Z</time>
      </trkpt>
      <trkpt lat="50.569379031658173" lon="13.012999976053834">
        <ele>656.24000000000001</ele>
        <time>2024-09-19T14:58:37Z</time>
      </trkpt>
      <trkpt lat="50.568145969882607" lon="13.012717003002763">
        <ele>657.67999999999995</ele>
        <time>2024-09-19T14:58:45Z</time>
      </trkpt>
      <trkpt lat="50.566512001678348" lon="13.012421038001776">
        <ele>658.15999999999997</ele>
        <time>2024-09-19T14:58:55Z</time>
      </trkpt>
      <trkpt lat="50.564824976027012" lon="13.011904964223504">
        <ele>659.60000000000002</ele>
        <time>2024-09-19T14:59:06Z</time>
      </trkpt>
      <trkpt lat="50.563539024442434" lon="13.012128006666899">
        <ele>663.92999999999995</ele>
        <time>2024-09-19T14:59:16Z</time>
      </trkpt>
      <trkpt lat="50.561842024326324" lon="13.012945996597409">
        <ele>672.10000000000002</ele>
        <time>2024-09-19T14:59:29Z</time>
      </trkpt>
      <trkpt lat="50.56058700196445" lon="13.013535998761654">
        <ele>676.41999999999996</ele>
        <time>2024-09-19T14:59:36Z</time>
      </trkpt>
      <trkpt lat="50.558027001097798" lon="13.014779035001993">
        <ele>679.30999999999995</ele>
        <time>2024-09-19T14:59:48Z</time>
      </trkpt>
      <trkpt lat="50.555715020745993" lon="13.015889972448349">
        <ele>690.84000000000003</ele>
        <time>2024-09-19T14:59:59Z</time>
      </trkpt>
      <trkpt lat="50.553399017080665" lon="13.016978027299047">
        <ele>706.23000000000002</ele>
        <time>2024-09-19T15:00:10Z</time>
      </trkpt>
      <trkpt lat="50.552024971693754" lon="13.017378011718392">
        <ele>709.59000000000003</ele>
        <time>2024-09-19T15:00:18Z</time>
      </trkpt>
      <trkpt lat="50.550351021811366" lon="13.017785036936402">
        <ele>703.34000000000003</ele>
        <time>2024-09-19T15:00:29Z</time>
      </trkpt>
      <trkpt lat="50.549623975530267" lon="13.017960973083973">
        <ele>700.94000000000005</ele>
        <time>2024-09-19T15:00:35Z</time>
      </trkpt>
      <trkpt lat="50.549553986638784" lon="13.017974970862269">
        <ele>700.94000000000005</ele>
        <time>2024-09-19T15:00:36Z</time>
      </trkpt>
      <trkpt lat="50.549381989985704" lon="13.01780398003757">
        <ele>700.46000000000004</ele>
        <time>2024-09-19T15:00:37Z</time>
      </trkpt>
      <trkpt lat="50.549363968893886" lon="13.017657967284322">
        <ele>700.46000000000004</ele>
        <time>2024-09-19T15:00:38Z</time>
      </trkpt>
      <trkpt lat="50.549339996650815" lon="13.017482031136751">
        <ele>699.98000000000002</ele>
        <time>2024-09-19T15:00:39Z</time>
      </trkpt>
      <trkpt lat="50.549312001094222" lon="13.017278015613556">
        <ele>699.98000000000002</ele>
        <time>2024-09-19T15:00:40Z</time>
      </trkpt>
      <trkpt lat="50.549287023022771" lon="13.017064025625587">
        <ele>699.5</ele>
        <time>2024-09-19T15:00:41Z</time>
      </trkpt>
      <trkpt lat="50.549165988340974" lon="13.015768015757203">
        <ele>698.04999999999995</ele>
        <time>2024-09-19T15:00:47Z</time>
      </trkpt>
      <trkpt lat="50.549159031361341" lon="13.015540027990937">
        <ele>697.57000000000005</ele>
        <time>2024-09-19T15:00:48Z</time>
      </trkpt>
      <trkpt lat="50.549185015261173" lon="13.015338024124503">
        <ele>697.09000000000003</ele>
        <time>2024-09-19T15:00:49Z</time>
      </trkpt>
      <trkpt lat="50.549213010817766" lon="13.015125961974263">
        <ele>696.61000000000001</ele>
        <time>2024-09-19T15:00:50Z</time>
      </trkpt>
      <trkpt lat="50.549256009981036" lon="13.014929993078113">
        <ele>695.64999999999998</ele>
        <time>2024-09-19T15:00:51Z</time>
      </trkpt>
      <trkpt lat="50.549852969124913" lon="13.012397987768054">
        <ele>683.63</ele>
        <time>2024-09-19T15:01:05Z</time>
      </trkpt>
      <trkpt lat="50.550191011279821" lon="13.011354021728039">
        <ele>678.35000000000002</ele>
        <time>2024-09-19T15:01:11Z</time>
      </trkpt>
      <trkpt lat="50.550265023484826" lon="13.011199962347746">
        <ele>677.87</ele>
        <time>2024-09-19T15:01:12Z</time>
      </trkpt>
      <trkpt lat="50.55051002651453" lon="13.010635022073984">
        <ele>674.01999999999998</ele>
        <time>2024-09-19T15:01:16Z</time>
      </trkpt>
      <trkpt lat="50.550831975415349" lon="13.008970962837338">
        <ele>665.85000000000002</ele>
        <time>2024-09-19T15:01:26Z</time>
      </trkpt>
      <trkpt lat="50.550855025649071" lon="13.008597968146205">
        <ele>663.92999999999995</ele>
        <time>2024-09-19T15:01:28Z</time>
      </trkpt>
      <trkpt lat="50.550858965143561" lon="13.00843401812017">
        <ele>663.45000000000005</ele>
        <time>2024-09-19T15:01:29Z</time>
      </trkpt>
      <trkpt lat="50.550822000950575" lon="13.00826202146709">
        <ele>662.97000000000003</ele>
        <time>2024-09-19T15:01:30Z</time>
      </trkpt>
      <trkpt lat="50.550784030929208" lon="13.008089018985629">
        <ele>662.00999999999999</ele>
        <time>2024-09-19T15:01:31Z</time>
      </trkpt>
      <trkpt lat="50.550744971260428" lon="13.007912999019027">
        <ele>661.51999999999998</ele>
        <time>2024-09-19T15:01:32Z</time>
      </trkpt>
      <trkpt lat="50.550494017079473" lon="13.006423031911254">
        <ele>653.83000000000004</ele>
        <time>2024-09-19T15:01:40Z</time>
      </trkpt>
      <trkpt lat="50.550482030957937" lon="13.006226979196072">
        <ele>652.87</ele>
        <time>2024-09-19T15:01:41Z</time>
      </trkpt>
      <trkpt lat="50.55048999376595" lon="13.006020030006766">
        <ele>651.90999999999997</ele>
        <time>2024-09-19T15:01:42Z</time>
      </trkpt>
      <trkpt lat="50.550507009029388" lon="13.005821965634823">
        <ele>650.95000000000005</ele>
        <time>2024-09-19T15:01:43Z</time>
      </trkpt>
      <trkpt lat="50.550523018464446" lon="13.005637982860208">
        <ele>649.99000000000001</ele>
        <time>2024-09-19T15:01:44Z</time>
      </trkpt>
      <trkpt lat="50.550627959892154" lon="13.004360999912024">
        <ele>642.77999999999997</ele>
        <time>2024-09-19T15:01:52Z</time>
      </trkpt>
      <trkpt lat="50.550642963498831" lon="13.004150027409196">
        <ele>640.86000000000001</ele>
        <time>2024-09-19T15:01:54Z</time>
      </trkpt>
      <trkpt lat="50.55066199041903" lon="13.004017006605864">
        <ele>639.88999999999999</ele>
        <time>2024-09-19T15:01:55Z</time>
      </trkpt>
      <trkpt lat="50.550702977925539" lon="13.003874011337757">
        <ele>638.92999999999995</ele>
        <time>2024-09-19T15:01:56Z</time>
      </trkpt>
      <trkpt lat="50.550971031188965" lon="13.00323598086834">
        <ele>634.61000000000001</ele>
        <time>2024-09-19T15:02:00Z</time>
      </trkpt>
      <trkpt lat="50.551959006115794" lon="13.001920022070408">
        <ele>622.11000000000001</ele>
        <time>2024-09-19T15:02:11Z</time>
      </trkpt>
      <trkpt lat="50.553318969905376" lon="13.000737000256777">
        <ele>606.73000000000002</ele>
        <time>2024-09-19T15:02:25Z</time>
      </trkpt>
      <trkpt lat="50.553416032344103" lon="13.000652007758617">
        <ele>606.25</ele>
        <time>2024-09-19T15:02:26Z</time>
      </trkpt>
      <trkpt lat="50.554049033671618" lon="13.000101987272501">
        <ele>601.44000000000005</ele>
        <time>2024-09-19T15:02:33Z</time>
      </trkpt>
      <trkpt lat="50.554132014513016" lon="13.000028980895877">
        <ele>600.48000000000002</ele>
        <time>2024-09-19T15:02:34Z</time>
      </trkpt>
      <trkpt lat="50.55459201335907" lon="12.999614998698235">
        <ele>595.19000000000005</ele>
        <time>2024-09-19T15:02:42Z</time>
      </trkpt>
      <trkpt lat="50.554623026400805" lon="12.999580968171358">
        <ele>594.23000000000002</ele>
        <time>2024-09-19T15:02:43Z</time>
      </trkpt>
      <trkpt lat="50.554753029718995" lon="12.999436967074871">
        <ele>587.5</ele>
        <time>2024-09-19T15:02:52Z</time>
      </trkpt>
      <trkpt lat="50.554942963644862" lon="12.99921702593565">
        <ele>583.17999999999995</ele>
        <time>2024-09-19T15:03:00Z</time>
      </trkpt>
      <trkpt lat="50.55515200830996" lon="12.998914020135999">
        <ele>579.80999999999995</ele>
        <time>2024-09-19T15:03:09Z</time>
      </trkpt>
      <trkpt lat="50.555106997489929" lon="12.998860962688923">
        <ele>579.33000000000004</ele>
        <time>2024-09-19T15:03:10Z</time>
      </trkpt>
      <trkpt lat="50.555062992498279" lon="12.998817041516304">
        <ele>579.33000000000004</ele>
        <time>2024-09-19T15:03:11Z</time>
      </trkpt>
      <trkpt lat="50.555013036355376" lon="12.998769013211131">
        <ele>578.85000000000002</ele>
        <time>2024-09-19T15:03:12Z</time>
      </trkpt>
      <trkpt lat="50.554960984736681" lon="12.998717967420816">
        <ele>578.37</ele>
        <time>2024-09-19T15:03:13Z</time>
      </trkpt>
      <trkpt lat="50.554897030815482" lon="12.998656025156379">
        <ele>578.37</ele>
        <time>2024-09-19T15:03:14Z</time>
      </trkpt>
      <trkpt lat="50.554272998124361" lon="12.998050013557076">
        <ele>580.28999999999996</ele>
        <time>2024-09-19T15:03:20Z</time>
      </trkpt>
      <trkpt lat="50.553296003490686" lon="12.997109983116388">
        <ele>583.17999999999995</ele>
        <time>2024-09-19T15:03:28Z</time>
      </trkpt>
      <trkpt lat="50.553188966587186" lon="12.997000012546778">
        <ele>583.17999999999995</ele>
        <time>2024-09-19T15:03:29Z</time>
      </trkpt>
      <trkpt lat="50.553092993795872" lon="12.996899010613561">
        <ele>583.17999999999995</ele>
        <time>2024-09-19T15:03:30Z</time>
      </trkpt>
      <trkpt lat="50.553004983812571" lon="12.996808988973498">
        <ele>583.17999999999995</ele>
        <time>2024-09-19T15:03:31Z</time>
      </trkpt>
      <trkpt lat="50.55242202244699" lon="12.996201971545815">
        <ele>579.33000000000004</ele>
        <time>2024-09-19T15:03:39Z</time>
      </trkpt>
      <trkpt lat="50.55182003416121" lon="12.99582595936954">
        <ele>578.85000000000002</ele>
        <time>2024-09-19T15:03:44Z</time>
      </trkpt>
      <trkpt lat="50.551682990044355" lon="12.995760999619961">
        <ele>578.85000000000002</ele>
        <time>2024-09-19T15:03:45Z</time>
      </trkpt>
      <trkpt lat="50.550456969067454" lon="12.99537199549377">
        <ele>578.37</ele>
        <time>2024-09-19T15:03:53Z</time>
      </trkpt>
      <trkpt lat="50.549750039353967" lon="12.995145013555884">
        <ele>576.92999999999995</ele>
        <time>2024-09-19T15:03:58Z</time>
      </trkpt>
      <trkpt lat="50.549620036035776" lon="12.995169991627336">
        <ele>576.45000000000005</ele>
        <time>2024-09-19T15:03:59Z</time>
      </trkpt>
      <trkpt lat="50.549495983868837" lon="12.995225982740521">
        <ele>575.97000000000003</ele>
        <time>2024-09-19T15:04:00Z</time>
      </trkpt>
      <trkpt lat="50.54937100969255" lon="12.995334025472403">
        <ele>575.49000000000001</ele>
        <time>2024-09-19T15:04:01Z</time>
      </trkpt>
      <trkpt lat="50.549247963353992" lon="12.995453970506787">
        <ele>574.52999999999997</ele>
        <time>2024-09-19T15:04:02Z</time>
      </trkpt>
      <trkpt lat="50.547991013154387" lon="12.996592987328768">
        <ele>566.83000000000004</ele>
        <time>2024-09-19T15:04:11Z</time>
      </trkpt>
      <trkpt lat="50.547253992408514" lon="12.996935974806547">
        <ele>562.99000000000001</ele>
        <time>2024-09-19T15:04:16Z</time>
      </trkpt>
      <trkpt lat="50.546313961967826" lon="12.997059021145105">
        <ele>563.47000000000003</ele>
        <time>2024-09-19T15:04:23Z</time>
      </trkpt>
      <trkpt lat="50.546180019155145" lon="12.997035970911384">
        <ele>563.95000000000005</ele>
        <time>2024-09-19T15:04:24Z</time>
      </trkpt>
      <trkpt lat="50.54496799595654" lon="12.99668300896883">
        <ele>565.87</ele>
        <time>2024-09-19T15:04:33Z</time>
      </trkpt>
      <trkpt lat="50.544054033234715" lon="12.996579995378852">
        <ele>566.35000000000002</ele>
        <time>2024-09-19T15:04:41Z</time>
      </trkpt>
      <trkpt lat="50.54367802105844" lon="12.99666197039187">
        <ele>567.32000000000005</ele>
        <time>2024-09-19T15:04:47Z</time>
      </trkpt>
      <trkpt lat="50.54361398331821" lon="12.996675968170166">
        <ele>567.79999999999995</ele>
        <time>2024-09-19T15:04:48Z</time>
      </trkpt>
      <trkpt lat="50.543539971113205" lon="12.996692983433604">
        <ele>567.79999999999995</ele>
        <time>2024-09-19T15:04:49Z</time>
      </trkpt>
      <trkpt lat="50.543079972267151" lon="12.996746962890029">
        <ele>572.12</ele>
        <time>2024-09-19T15:04:54Z</time>
      </trkpt>
      <trkpt lat="50.542971007525921" lon="12.996713016182184">
        <ele>573.08000000000004</ele>
        <time>2024-09-19T15:04:55Z</time>
      </trkpt>
      <trkpt lat="50.542870005592704" lon="12.996643027290702">
        <ele>574.03999999999996</ele>
        <time>2024-09-19T15:04:56Z</time>
      </trkpt>
      <trkpt lat="50.542651992291212" lon="12.996529033407569">
        <ele>575.00999999999999</ele>
        <time>2024-09-19T15:04:58Z</time>
      </trkpt>
      <trkpt lat="50.542534980922937" lon="12.996501959860325">
        <ele>575.97000000000003</ele>
        <time>2024-09-19T15:04:59Z</time>
      </trkpt>
      <trkpt lat="50.542418975383043" lon="12.996474970132113">
        <ele>576.45000000000005</ele>
        <time>2024-09-19T15:05:00Z</time>
      </trkpt>
      <trkpt lat="50.541168982163072" lon="12.996283024549484">
        <ele>580.76999999999998</ele>
        <time>2024-09-19T15:05:11Z</time>
      </trkpt>
      <trkpt lat="50.540141025558114" lon="12.996137011796236">
        <ele>585.58000000000004</ele>
        <time>2024-09-19T15:05:20Z</time>
      </trkpt>
      <trkpt lat="50.540045974776149" lon="12.996074985712767">
        <ele>586.05999999999995</ele>
        <time>2024-09-19T15:05:21Z</time>
      </trkpt>
      <trkpt lat="50.539940027520061" lon="12.996007008478045">
        <ele>586.05999999999995</ele>
        <time>2024-09-19T15:05:22Z</time>
      </trkpt>
      <trkpt lat="50.539830978959799" lon="12.995936013758183">
        <ele>586.53999999999996</ele>
        <time>2024-09-19T15:05:23Z</time>
      </trkpt>
      <trkpt lat="50.539737017825246" lon="12.995816990733147">
        <ele>585.58000000000004</ele>
        <time>2024-09-19T15:05:24Z</time>
      </trkpt>
      <trkpt lat="50.539653031155467" lon="12.995698973536491">
        <ele>584.62</ele>
        <time>2024-09-19T15:05:25Z</time>
      </trkpt>
      <trkpt lat="50.539568038657308" lon="12.995579028502107">
        <ele>583.65999999999997</ele>
        <time>2024-09-19T15:05:26Z</time>
      </trkpt>
      <trkpt lat="50.539483968168497" lon="12.995460005477071">
        <ele>582.70000000000005</ele>
        <time>2024-09-19T15:05:27Z</time>
      </trkpt>
      <trkpt lat="50.539400987327099" lon="12.995343999937177">
        <ele>582.22000000000003</ele>
        <time>2024-09-19T15:05:28Z</time>
      </trkpt>
      <trkpt lat="50.539326975122094" lon="12.995249032974243">
        <ele>581.25</ele>
        <time>2024-09-19T15:05:29Z</time>
      </trkpt>
      <trkpt lat="50.539228990674019" lon="12.995175020769238">
        <ele>580.76999999999998</ele>
        <time>2024-09-19T15:05:30Z</time>
      </trkpt>
      <trkpt lat="50.539012989029288" lon="12.995009981095791">
        <ele>580.28999999999996</ele>
        <time>2024-09-19T15:05:32Z</time>
      </trkpt>
      <trkpt lat="50.538010010495782" lon="12.994661964476109">
        <ele>582.22000000000003</ele>
        <time>2024-09-19T15:05:41Z</time>
      </trkpt>
      <trkpt lat="50.537808006629348" lon="12.994603961706161">
        <ele>582.70000000000005</ele>
        <time>2024-09-19T15:05:43Z</time>
      </trkpt>
      <trkpt lat="50.53770499303937" lon="12.994594993069768">
        <ele>583.17999999999995</ele>
        <time>2024-09-19T15:05:44Z</time>
      </trkpt>
      <trkpt lat="50.537484968081117" lon="12.994607985019684">
        <ele>584.13999999999999</ele>
        <time>2024-09-19T15:05:46Z</time>
      </trkpt>
      <trkpt lat="50.537368040531874" lon="12.994622988626361">
        <ele>584.13999999999999</ele>
        <time>2024-09-19T15:05:47Z</time>
      </trkpt>
      <trkpt lat="50.536375036463141" lon="12.994959019124508">
        <ele>585.58000000000004</ele>
        <time>2024-09-19T15:05:56Z</time>
      </trkpt>
      <trkpt lat="50.53572703152895" lon="12.995150964707136">
        <ele>587.5</ele>
        <time>2024-09-19T15:06:04Z</time>
      </trkpt>
      <trkpt lat="50.534752970561385" lon="12.995238974690437">
        <ele>588.46000000000004</ele>
        <time>2024-09-19T15:06:13Z</time>
      </trkpt>
      <trkpt lat="50.534415012225509" lon="12.995165968313813">
        <ele>588.95000000000005</ele>
        <time>2024-09-19T15:06:16Z</time>
      </trkpt>
      <trkpt lat="50.534299006685615" lon="12.995138978585601">
        <ele>588.95000000000005</ele>
        <time>2024-09-19T15:06:17Z</time>
      </trkpt>
      <trkpt lat="50.533375991508365" lon="12.994818035513163">
        <ele>588.95000000000005</ele>
        <time>2024-09-19T15:06:25Z</time>
      </trkpt>
      <trkpt lat="50.532795963808894" lon="12.994602033868432">
        <ele>589.90999999999997</ele>
        <time>2024-09-19T15:06:30Z</time>
      </trkpt>
      <trkpt lat="50.53233596496284" lon="12.994530033320189">
        <ele>590.38999999999999</ele>
        <time>2024-09-19T15:06:34Z</time>
      </trkpt>
      <trkpt lat="50.532221971079707" lon="12.994545036926866">
        <ele>590.38999999999999</ele>
        <time>2024-09-19T15:06:35Z</time>
      </trkpt>
      <trkpt lat="50.531327035278082" lon="12.994804037734866">
        <ele>593.26999999999998</ele>
        <time>2024-09-19T15:06:44Z</time>
      </trkpt>
      <trkpt lat="50.531268026679754" lon="12.994850976392627">
        <ele>593.75</ele>
        <time>2024-09-19T15:06:45Z</time>
      </trkpt>
      <trkpt lat="50.531239025294781" lon="12.994949966669083">
        <ele>594.71000000000004</ele>
        <time>2024-09-19T15:06:46Z</time>
      </trkpt>
      <trkpt lat="50.531207006424665" lon="12.995063038542867">
        <ele>595.19000000000005</ele>
        <time>2024-09-19T15:06:47Z</time>
      </trkpt>
      <trkpt lat="50.531171970069408" lon="12.995186001062393">
        <ele>595.19000000000005</ele>
        <time>2024-09-19T15:06:48Z</time>
      </trkpt>
      <trkpt lat="50.53108798339963" lon="12.995318016037345">
        <ele>595.66999999999996</ele>
        <time>2024-09-19T15:06:49Z</time>
      </trkpt>
      <trkpt lat="50.53100198507309" lon="12.995374007150531">
        <ele>595.66999999999996</ele>
        <time>2024-09-19T15:06:50Z</time>
      </trkpt>
      <trkpt lat="50.530906012281775" lon="12.995436033234">
        <ele>595.19000000000005</ele>
        <time>2024-09-19T15:06:51Z</time>
      </trkpt>
      <trkpt lat="50.530802998691797" lon="12.995503004640341">
        <ele>595.19000000000005</ele>
        <time>2024-09-19T15:06:52Z</time>
      </trkpt>
      <trkpt lat="50.530696967616677" lon="12.995560001581907">
        <ele>594.71000000000004</ele>
        <time>2024-09-19T15:06:53Z</time>
      </trkpt>
      <trkpt lat="50.53059495985508" lon="12.995560001581907">
        <ele>594.23000000000002</ele>
        <time>2024-09-19T15:06:54Z</time>
      </trkpt>
      <trkpt lat="50.53050703369081" lon="12.995560001581907">
        <ele>594.23000000000002</ele>
        <time>2024-09-19T15:06:55Z</time>
      </trkpt>
      <trkpt lat="50.530436960980296" lon="12.995560001581907">
        <ele>593.75</ele>
        <time>2024-09-19T15:06:56Z</time>
      </trkpt>
      <trkpt lat="50.529873026534915" lon="12.995492024347186">
        <ele>593.75</ele>
        <time>2024-09-19T15:07:03Z</time>
      </trkpt>
      <trkpt lat="50.528429998084903" lon="12.995237968862057">
        <ele>596.14999999999998</ele>
        <time>2024-09-19T15:07:15Z</time>
      </trkpt>
      <trkpt lat="50.528072007000446" lon="12.995231011882424">
        <ele>596.63999999999999</ele>
        <time>2024-09-19T15:07:18Z</time>
      </trkpt>
      <trkpt lat="50.527948038652539" lon="12.995237968862057">
        <ele>597.12</ele>
        <time>2024-09-19T15:07:19Z</time>
      </trkpt>
      <trkpt lat="50.527838990092278" lon="12.995278034359217">
        <ele>597.12</ele>
        <time>2024-09-19T15:07:20Z</time>
      </trkpt>
      <trkpt lat="50.527609996497631" lon="12.99539596773684">
        <ele>597.60000000000002</ele>
        <time>2024-09-19T15:07:22Z</time>
      </trkpt>
      <trkpt lat="50.527502037584782" lon="12.995472997426987">
        <ele>598.08000000000004</ele>
        <time>2024-09-19T15:07:23Z</time>
      </trkpt>
      <trkpt lat="50.52651297301054" lon="12.996051013469696">
        <ele>602.88</ele>
        <time>2024-09-19T15:07:32Z</time>
      </trkpt>
      <trkpt lat="50.526391016319394" lon="12.996044978499413">
        <ele>603.85000000000002</ele>
        <time>2024-09-19T15:07:33Z</time>
      </trkpt>
      <trkpt lat="50.52494103088975" lon="12.995721017941833">
        <ele>612.01999999999998</ele>
        <time>2024-09-19T15:07:45Z</time>
      </trkpt>
      <trkpt lat="50.524500980973244" lon="12.995739039033651">
        <ele>612.5</ele>
        <time>2024-09-19T15:07:51Z</time>
      </trkpt>
      <trkpt lat="50.524252960458398" lon="12.995768040418625">
        <ele>612.5</ele>
        <time>2024-09-19T15:07:55Z</time>
      </trkpt>
      <trkpt lat="50.523978034034371" lon="12.995854038745165">
        <ele>612.98000000000002</ele>
        <time>2024-09-19T15:07:58Z</time>
      </trkpt>
      <trkpt lat="50.522788977250457" lon="12.996312025934458">
        <ele>611.05999999999995</ele>
        <time>2024-09-19T15:08:07Z</time>
      </trkpt>
      <trkpt lat="50.522530982270837" lon="12.996397018432617">
        <ele>610.09000000000003</ele>
        <time>2024-09-19T15:08:09Z</time>
      </trkpt>
      <trkpt lat="50.522406008094549" lon="12.996397018432617">
        <ele>610.09000000000003</ele>
        <time>2024-09-19T15:08:10Z</time>
      </trkpt>
      <trkpt lat="50.521151991561055" lon="12.996287969872355">
        <ele>614.89999999999998</ele>
        <time>2024-09-19T15:08:20Z</time>
      </trkpt>
      <trkpt lat="50.520893996581435" lon="12.99625301733613">
        <ele>618.25999999999999</ele>
        <time>2024-09-19T15:08:23Z</time>
      </trkpt>
      <trkpt lat="50.520832976326346" lon="12.996243964880705">
        <ele>619.71000000000004</ele>
        <time>2024-09-19T15:08:24Z</time>
      </trkpt>
      <trkpt lat="50.520781008526683" lon="12.996237007901073">
        <ele>620.19000000000005</ele>
        <time>2024-09-19T15:08:25Z</time>
      </trkpt>
      <trkpt lat="50.520739015191793" lon="12.996230972930789">
        <ele>621.63</ele>
        <time>2024-09-19T15:08:26Z</time>
      </trkpt>
      <trkpt lat="50.520698027685285" lon="12.996286964043975">
        <ele>622.59000000000003</ele>
        <time>2024-09-19T15:08:27Z</time>
      </trkpt>
      <trkpt lat="50.520703978836536" lon="12.996376985684037">
        <ele>623.54999999999995</ele>
        <time>2024-09-19T15:08:28Z</time>
      </trkpt>
      <trkpt lat="50.520711019635201" lon="12.99651101231575">
        <ele>624.50999999999999</ele>
        <time>2024-09-19T15:08:29Z</time>
      </trkpt>
      <trkpt lat="50.520720994099975" lon="12.996674040332437">
        <ele>625.47000000000003</ele>
        <time>2024-09-19T15:08:30Z</time>
      </trkpt>
      <trkpt lat="50.520730968564749" lon="12.996856011450291">
        <ele>626.44000000000005</ele>
        <time>2024-09-19T15:08:31Z</time>
      </trkpt>
      <trkpt lat="50.520743038505316" lon="12.997053992003202">
        <ele>626.91999999999996</ele>
        <time>2024-09-19T15:08:32Z</time>
      </trkpt>
      <trkpt lat="50.520788971334696" lon="12.997487001121044">
        <ele>628.36000000000001</ele>
        <time>2024-09-19T15:08:34Z</time>
      </trkpt>
      <trkpt lat="50.520920986309648" lon="12.998138023540378">
        <ele>630.27999999999997</ele>
        <time>2024-09-19T15:08:37Z</time>
      </trkpt>
      <trkpt lat="50.520964991301298" lon="12.998352013528347">
        <ele>631.72000000000003</ele>
        <time>2024-09-19T15:08:38Z</time>
      </trkpt>
      <trkpt lat="50.521001033484936" lon="12.998583018779755">
        <ele>633.16999999999996</ele>
        <time>2024-09-19T15:08:39Z</time>
      </trkpt>
      <trkpt lat="50.521016037091613" lon="12.998825004324317">
        <ele>634.13</ele>
        <time>2024-09-19T15:08:40Z</time>
      </trkpt>
      <trkpt lat="50.521031962707639" lon="12.999072019010782">
        <ele>635.57000000000005</ele>
        <time>2024-09-19T15:08:41Z</time>
      </trkpt>
      <trkpt lat="50.521045960485935" lon="13.000596016645432">
        <ele>645.17999999999995</ele>
        <time>2024-09-19T15:08:47Z</time>
      </trkpt>
      <trkpt lat="50.521018970757723" lon="13.00083096139133">
        <ele>647.10000000000002</ele>
        <time>2024-09-19T15:08:48Z</time>
      </trkpt>
      <trkpt lat="50.520948981866241" lon="13.001035982742906">
        <ele>648.54999999999995</ele>
        <time>2024-09-19T15:08:49Z</time>
      </trkpt>
      <trkpt lat="50.520877987146378" lon="13.001245027408004">
        <ele>650.47000000000003</ele>
        <time>2024-09-19T15:08:50Z</time>
      </trkpt>
      <trkpt lat="50.520803974941373" lon="13.001461029052734">
        <ele>652.38999999999999</ele>
        <time>2024-09-19T15:08:51Z</time>
      </trkpt>
      <trkpt lat="50.520037030801177" lon="13.003710983321071">
        <ele>669.70000000000005</ele>
        <time>2024-09-19T15:09:00Z</time>
      </trkpt>
      <trkpt lat="50.519292969256639" lon="13.006113991141319">
        <ele>679.78999999999996</ele>
        <time>2024-09-19T15:09:09Z</time>
      </trkpt>
      <trkpt lat="50.51920797675848" lon="13.007578980177641">
        <ele>682.66999999999996</ele>
        <time>2024-09-19T15:09:15Z</time>
      </trkpt>
      <trkpt lat="50.519507965072989" lon="13.009697003290057">
        <ele>684.12</ele>
        <time>2024-09-19T15:09:26Z</time>
      </trkpt>
      <trkpt lat="50.519545013085008" lon="13.00987402908504">
        <ele>684.12</ele>
        <time>2024-09-19T15:09:27Z</time>
      </trkpt>
      <trkpt lat="50.519605027511716" lon="13.010056000202894">
        <ele>684.12</ele>
        <time>2024-09-19T15:09:28Z</time>
      </trkpt>
      <trkpt lat="50.519698988646269" lon="13.010244006291032">
        <ele>684.12</ele>
        <time>2024-09-19T15:09:29Z</time>
      </trkpt>
      <trkpt lat="50.519813988357782" lon="13.010434024035931">
        <ele>684.60000000000002</ele>
        <time>2024-09-19T15:09:30Z</time>
      </trkpt>
      <trkpt lat="50.519933011382818" lon="13.010630998760462">
        <ele>685.08000000000004</ele>
        <time>2024-09-19T15:09:31Z</time>
      </trkpt>
      <trkpt lat="50.520048011094332" lon="13.010821016505361">
        <ele>685.55999999999995</ele>
        <time>2024-09-19T15:09:32Z</time>
      </trkpt>
      <trkpt lat="50.520255966112018" lon="13.011165009811521">
        <ele>687</ele>
        <time>2024-09-19T15:09:34Z</time>
      </trkpt>
      <trkpt lat="50.520325032994151" lon="13.011374976485968">
        <ele>687.96000000000004</ele>
        <time>2024-09-19T15:09:35Z</time>
      </trkpt>
      <trkpt lat="50.520390998572111" lon="13.011595001444221">
        <ele>688.91999999999996</ele>
        <time>2024-09-19T15:09:36Z</time>
      </trkpt>
      <trkpt lat="50.520480014383793" lon="13.011846961453557">
        <ele>689.88</ele>
        <time>2024-09-19T15:09:37Z</time>
      </trkpt>
      <trkpt lat="50.520515972748399" lon="13.012081990018487">
        <ele>691.33000000000004</ele>
        <time>2024-09-19T15:09:38Z</time>
      </trkpt>
      <trkpt lat="50.520682018250227" lon="13.014167994260788">
        <ele>701.89999999999998</ele>
        <time>2024-09-19T15:09:45Z</time>
      </trkpt>
      <trkpt lat="50.520601971074939" lon="13.016711985692382">
        <ele>712.95000000000005</ele>
        <time>2024-09-19T15:09:53Z</time>
      </trkpt>
      <trkpt lat="50.520575987175107" lon="13.017038963735104">
        <ele>714.39999999999998</ele>
        <time>2024-09-19T15:09:54Z</time>
      </trkpt>
      <trkpt lat="50.520245991647243" lon="13.019955027848482">
        <ele>725.45000000000005</ele>
        <time>2024-09-19T15:10:03Z</time>
      </trkpt>
      <trkpt lat="50.520210033282638" lon="13.02227103151381">
        <ele>732.17999999999995</ele>
        <time>2024-09-19T15:10:08Z</time>
      </trkpt>
      <trkpt lat="50.520313968881965" lon="13.025334030389786">
        <ele>743.24000000000001</ele>
        <time>2024-09-19T15:10:15Z</time>
      </trkpt>
      <trkpt lat="50.520432991907001" lon="13.026387970894575">
        <ele>746.12</ele>
        <time>2024-09-19T15:10:18Z</time>
      </trkpt>
      <trkpt lat="50.520492000505328" lon="13.026727018877864">
        <ele>747.08000000000004</ele>
        <time>2024-09-19T15:10:19Z</time>
      </trkpt>
      <trkpt lat="50.520584033802152" lon="13.027039999142289">
        <ele>747.55999999999995</ele>
        <time>2024-09-19T15:10:20Z</time>
      </trkpt>
      <trkpt lat="50.520679000765085" lon="13.027340993285179">
        <ele>748.03999999999996</ele>
        <time>2024-09-19T15:10:21Z</time>
      </trkpt>
      <trkpt lat="50.520772039890289" lon="13.027634024620056">
        <ele>748.51999999999998</ele>
        <time>2024-09-19T15:10:22Z</time>
      </trkpt>
      <trkpt lat="50.520930038765073" lon="13.028212962672114">
        <ele>749</ele>
        <time>2024-09-19T15:10:24Z</time>
      </trkpt>
      <trkpt lat="50.520963985472918" lon="13.02850398235023">
        <ele>749</ele>
        <time>2024-09-19T15:10:25Z</time>
      </trkpt>
      <trkpt lat="50.520988963544369" lon="13.028786033391953">
        <ele>748.51999999999998</ele>
        <time>2024-09-19T15:10:26Z</time>
      </trkpt>
      <trkpt lat="50.521065993234515" lon="13.030308019369841">
        <ele>749.49000000000001</ele>
        <time>2024-09-19T15:10:33Z</time>
      </trkpt>
      <trkpt lat="50.521071022376418" lon="13.030443973839283">
        <ele>749.97000000000003</ele>
        <time>2024-09-19T15:10:34Z</time>
      </trkpt>
      <trkpt lat="50.52107403986156" lon="13.030558973550797">
        <ele>750.45000000000005</ele>
        <time>2024-09-19T15:10:35Z</time>
      </trkpt>
      <trkpt lat="50.52107697352767" lon="13.03065100684762">
        <ele>750.92999999999995</ele>
        <time>2024-09-19T15:10:36Z</time>
      </trkpt>
      <trkpt lat="50.52098804153502" lon="13.030806994065642">
        <ele>751.40999999999997</ele>
        <time>2024-09-19T15:10:37Z</time>
      </trkpt>
      <trkpt lat="50.520901037380099" lon="13.030818980187178">
        <ele>751.40999999999997</ele>
        <time>2024-09-19T15:10:38Z</time>
      </trkpt>
      <trkpt lat="50.520781008526683" lon="13.030837001278996">
        <ele>751.88999999999999</ele>
        <time>2024-09-19T15:10:39Z</time>
      </trkpt>
      <trkpt lat="50.520647987723351" lon="13.030875977128744">
        <ele>751.88999999999999</ele>
        <time>2024-09-19T15:10:40Z</time>
      </trkpt>
      <trkpt lat="50.520374989137053" lon="13.030983014032245">
        <ele>752.85000000000002</ele>
        <time>2024-09-19T15:10:42Z</time>
      </trkpt>
      <trkpt lat="50.519419033080339" lon="13.031530017033219">
        <ele>755.73000000000002</ele>
        <time>2024-09-19T15:10:47Z</time>
      </trkpt>
      <trkpt lat="50.517633017152548" lon="13.032526960596442">
        <ele>762.46000000000004</ele>
        <time>2024-09-19T15:10:54Z</time>
      </trkpt>
      <trkpt lat="50.517347026616335" lon="13.032597033306956">
        <ele>762.94000000000005</ele>
        <time>2024-09-19T15:10:55Z</time>
      </trkpt>
      <trkpt lat="50.517055001109838" lon="13.032609019428492">
        <ele>764.38999999999999</ele>
        <time>2024-09-19T15:10:56Z</time>
      </trkpt>
      <trkpt lat="50.516765993088484" lon="13.032592004165053">
        <ele>765.35000000000002</ele>
        <time>2024-09-19T15:10:57Z</time>
      </trkpt>
      <trkpt lat="50.516484025865793" lon="13.032508017495275">
        <ele>766.30999999999995</ele>
        <time>2024-09-19T15:10:58Z</time>
      </trkpt>
      <trkpt lat="50.516210021451116" lon="13.032405003905296">
        <ele>766.78999999999996</ele>
        <time>2024-09-19T15:10:59Z</time>
      </trkpt>
      <trkpt lat="50.515952026471496" lon="13.032238958403468">
        <ele>767.75</ele>
        <time>2024-09-19T15:11:00Z</time>
      </trkpt>
      <trkpt lat="50.515701994299889" lon="13.032067967578769">
        <ele>768.23000000000002</ele>
        <time>2024-09-19T15:11:01Z</time>
      </trkpt>
      <trkpt lat="50.515466965734959" lon="13.031842997297645">
        <ele>769.19000000000005</ele>
        <time>2024-09-19T15:11:02Z</time>
      </trkpt>
      <trkpt lat="50.515233026817441" lon="13.031619032844901">
        <ele>769.66999999999996</ele>
        <time>2024-09-19T15:11:03Z</time>
      </trkpt>
      <trkpt lat="50.515034962445498" lon="13.031305968761444">
        <ele>770.14999999999998</ele>
        <time>2024-09-19T15:11:04Z</time>
      </trkpt>
      <trkpt lat="50.514836981892586" lon="13.030987037345767">
        <ele>770.14999999999998</ele>
        <time>2024-09-19T15:11:05Z</time>
      </trkpt>
      <trkpt lat="50.514671020209789" lon="13.030613958835602">
        <ele>770.63</ele>
        <time>2024-09-19T15:11:06Z</time>
      </trkpt>
      <trkpt lat="50.514514027163386" lon="13.030239036306739">
        <ele>770.63</ele>
        <time>2024-09-19T15:11:07Z</time>
      </trkpt>
      <trkpt lat="50.514368014410138" lon="13.029866041615605">
        <ele>770.14999999999998</ele>
        <time>2024-09-19T15:11:08Z</time>
      </trkpt>
      <trkpt lat="50.514078000560403" lon="13.029118962585926">
        <ele>769.66999999999996</ele>
        <time>2024-09-19T15:11:10Z</time>
      </trkpt>
      <trkpt lat="50.513932993635535" lon="13.028752002865076">
        <ele>769.19000000000005</ele>
        <time>2024-09-19T15:11:11Z</time>
      </trkpt>
      <trkpt lat="50.513742975890636" lon="13.028412032872438">
        <ele>768.71000000000004</ele>
        <time>2024-09-19T15:11:12Z</time>
      </trkpt>
      <trkpt lat="50.513532003387809" lon="13.02813702262938">
        <ele>768.23000000000002</ele>
        <time>2024-09-19T15:11:13Z</time>
      </trkpt>
      <trkpt lat="50.513312984257936" lon="13.027850026264787">
        <ele>767.26999999999998</ele>
        <time>2024-09-19T15:11:14Z</time>
      </trkpt>
      <trkpt lat="50.51308399066329" lon="13.027585996314883">
        <ele>766.78999999999996</ele>
        <time>2024-09-19T15:11:15Z</time>
      </trkpt>
      <trkpt lat="50.512839993461967" lon="13.027353985235095">
        <ele>765.83000000000004</ele>
        <time>2024-09-19T15:11:16Z</time>
      </trkpt>
      <trkpt lat="50.512586021795869" lon="13.027160027995706">
        <ele>764.87</ele>
        <time>2024-09-19T15:11:17Z</time>
      </trkpt>
      <trkpt lat="50.512315034866333" lon="13.027047961950302">
        <ele>764.38999999999999</ele>
        <time>2024-09-19T15:11:18Z</time>
      </trkpt>
      <trkpt lat="50.512045975774527" lon="13.026942014694214">
        <ele>763.41999999999996</ele>
        <time>2024-09-19T15:11:19Z</time>
      </trkpt>
      <trkpt lat="50.511787980794907" lon="13.026840006932616">
        <ele>762.94000000000005</ele>
        <time>2024-09-19T15:11:20Z</time>
      </trkpt>
      <trkpt lat="50.511534009128809" lon="13.026807988062501">
        <ele>761.98000000000002</ele>
        <time>2024-09-19T15:11:21Z</time>
      </trkpt>
      <trkpt lat="50.511286994442344" lon="13.026788039132953">
        <ele>761.5</ele>
        <time>2024-09-19T15:11:22Z</time>
      </trkpt>
      <trkpt lat="50.511050960049033" lon="13.026770018041134">
        <ele>761.01999999999998</ele>
        <time>2024-09-19T15:11:23Z</time>
      </trkpt>
      <trkpt lat="50.509826028719544" lon="13.026715032756329">
        <ele>759.10000000000002</ele>
        <time>2024-09-19T15:11:29Z</time>
      </trkpt>
      <trkpt lat="50.509638022631407" lon="13.026729030534625">
        <ele>759.58000000000004</ele>
        <time>2024-09-19T15:11:30Z</time>
      </trkpt>
      <trkpt lat="50.508176973089576" lon="13.026835983619094">
        <ele>761.01999999999998</ele>
        <time>2024-09-19T15:11:39Z</time>
      </trkpt>
      <trkpt lat="50.506793037056923" lon="13.02695500664413">
        <ele>760.53999999999996</ele>
        <time>2024-09-19T15:11:49Z</time>
      </trkpt>
      <trkpt lat="50.505747981369495" lon="13.027036981657147">
        <ele>758.62</ele>
        <time>2024-09-19T15:11:58Z</time>
      </trkpt>
      <trkpt lat="50.504408972337842" lon="13.027060031890869">
        <ele>758.62</ele>
        <time>2024-09-19T15:12:09Z</time>
      </trkpt>
      <trkpt lat="50.503302980214357" lon="13.027038993313909">
        <ele>753.33000000000004</ele>
        <time>2024-09-19T15:12:18Z</time>
      </trkpt>
      <trkpt lat="50.502143008634448" lon="13.027334036305547">
        <ele>749</ele>
        <time>2024-09-19T15:12:28Z</time>
      </trkpt>
      <trkpt lat="50.502034965902567" lon="13.027417017146945">
        <ele>749</ele>
        <time>2024-09-19T15:12:29Z</time>
      </trkpt>
      <trkpt lat="50.50193396396935" lon="13.027496980503201">
        <ele>748.51999999999998</ele>
        <time>2024-09-19T15:12:30Z</time>
      </trkpt>
      <trkpt lat="50.501833967864513" lon="13.027618015184999">
        <ele>748.03999999999996</ele>
        <time>2024-09-19T15:12:31Z</time>
      </trkpt>
      <trkpt lat="50.501750987023115" lon="13.027732009068131">
        <ele>747.55999999999995</ele>
        <time>2024-09-19T15:12:32Z</time>
      </trkpt>
      <trkpt lat="50.501659959554672" lon="13.027856983244419">
        <ele>747.08000000000004</ele>
        <time>2024-09-19T15:12:33Z</time>
      </trkpt>
      <trkpt lat="50.501570021733642" lon="13.027982963249087">
        <ele>746.12</ele>
        <time>2024-09-19T15:12:34Z</time>
      </trkpt>
      <trkpt lat="50.501477988436818" lon="13.028108021244407">
        <ele>745.15999999999997</ele>
        <time>2024-09-19T15:12:35Z</time>
      </trkpt>
      <trkpt lat="50.501389978453517" lon="13.028230983763933">
        <ele>744.20000000000005</ele>
        <time>2024-09-19T15:12:36Z</time>
      </trkpt>
      <trkpt lat="50.501297023147345" lon="13.02835101261735">
        <ele>743.24000000000001</ele>
        <time>2024-09-19T15:12:37Z</time>
      </trkpt>
      <trkpt lat="50.500914976000786" lon="13.02880397066474">
        <ele>740.35000000000002</ele>
        <time>2024-09-19T15:12:41Z</time>
      </trkpt>
      <trkpt lat="50.500797964632511" lon="13.02888996899128">
        <ele>739.38999999999999</ele>
        <time>2024-09-19T15:12:42Z</time>
      </trkpt>
      <trkpt lat="50.500681959092617" lon="13.028916036710143">
        <ele>738.90999999999997</ele>
        <time>2024-09-19T15:12:43Z</time>
      </trkpt>
      <trkpt lat="50.500562014058232" lon="13.028914025053382">
        <ele>737.95000000000005</ele>
        <time>2024-09-19T15:12:44Z</time>
      </trkpt>
      <trkpt lat="50.500443996861577" lon="13.028892986476421">
        <ele>736.99000000000001</ele>
        <time>2024-09-19T15:12:45Z</time>
      </trkpt>
      <trkpt lat="50.500322040170431" lon="13.028873959556222">
        <ele>736.02999999999997</ele>
        <time>2024-09-19T15:12:46Z</time>
      </trkpt>
      <trkpt lat="50.499968994408846" lon="13.028752002865076">
        <ele>734.58000000000004</ele>
        <time>2024-09-19T15:12:49Z</time>
      </trkpt>
      <trkpt lat="50.499871009960771" lon="13.028667010366917">
        <ele>734.10000000000002</ele>
        <time>2024-09-19T15:12:50Z</time>
      </trkpt>
      <trkpt lat="50.499782999977469" lon="13.028557961806655">
        <ele>733.62</ele>
        <time>2024-09-19T15:12:51Z</time>
      </trkpt>
      <trkpt lat="50.499724997207522" lon="13.028396023437381">
        <ele>733.62</ele>
        <time>2024-09-19T15:12:52Z</time>
      </trkpt>
      <trkpt lat="50.499680992215872" lon="13.028197959065437">
        <ele>733.13999999999999</ele>
        <time>2024-09-19T15:12:53Z</time>
      </trkpt>
      <trkpt lat="50.499650985002518" lon="13.02801095880568">
        <ele>732.65999999999997</ele>
        <time>2024-09-19T15:12:54Z</time>
      </trkpt>
      <trkpt lat="50.499628018587828" lon="13.027820019051433">
        <ele>732.17999999999995</ele>
        <time>2024-09-19T15:12:55Z</time>
      </trkpt>
      <trkpt lat="50.499603962525725" lon="13.02762296050787">
        <ele>731.70000000000005</ele>
        <time>2024-09-19T15:12:56Z</time>
      </trkpt>
      <trkpt lat="50.499558029696345" lon="13.027242003008723">
        <ele>730.25999999999999</ele>
        <time>2024-09-19T15:12:58Z</time>
      </trkpt>
      <trkpt lat="50.499533973634243" lon="13.027044022455812">
        <ele>729.29999999999995</ele>
        <time>2024-09-19T15:12:59Z</time>
      </trkpt>
      <trkpt lat="50.499473037198186" lon="13.026544963940978">
        <ele>725.92999999999995</ele>
        <time>2024-09-19T15:13:02Z</time>
      </trkpt>
      <trkpt lat="50.499407993629575" lon="13.026401968672872">
        <ele>724.97000000000003</ele>
        <time>2024-09-19T15:13:03Z</time>
      </trkpt>
      <trkpt lat="50.499355020001531" lon="13.026302978396416">
        <ele>724.00999999999999</ele>
        <time>2024-09-19T15:13:04Z</time>
      </trkpt>
      <trkpt lat="50.499258963391185" lon="13.026244975626469">
        <ele>723.04999999999995</ele>
        <time>2024-09-19T15:13:05Z</time>
      </trkpt>
      <trkpt lat="50.499197021126747" lon="13.026285041123629">
        <ele>722.57000000000005</ele>
        <time>2024-09-19T15:13:06Z</time>
      </trkpt>
      <trkpt lat="50.499126026406884" lon="13.026339020580053">
        <ele>721.61000000000001</ele>
        <time>2024-09-19T15:13:07Z</time>
      </trkpt>
      <trkpt lat="50.49907498061657" lon="13.026441028341651">
        <ele>721.13</ele>
        <time>2024-09-19T15:13:08Z</time>
      </trkpt>
      <trkpt lat="50.499022006988525" lon="13.026562985032797">
        <ele>720.15999999999997</ele>
        <time>2024-09-19T15:13:09Z</time>
      </trkpt>
      <trkpt lat="50.499013038352132" lon="13.026717966422439">
        <ele>719.67999999999995</ele>
        <time>2024-09-19T15:13:10Z</time>
      </trkpt>
      <trkpt lat="50.499002980068326" lon="13.026879988610744">
        <ele>719.20000000000005</ele>
        <time>2024-09-19T15:13:11Z</time>
      </trkpt>
      <trkpt lat="50.498984958976507" lon="13.027207972481847">
        <ele>718.24000000000001</ele>
        <time>2024-09-19T15:13:13Z</time>
      </trkpt>
      <trkpt lat="50.498980013653636" lon="13.027295982465148">
        <ele>718.24000000000001</ele>
        <time>2024-09-19T15:13:14Z</time>
      </trkpt>
      <trkpt lat="50.49890398979187" lon="13.027511984109879">
        <ele>717.75999999999999</ele>
        <time>2024-09-19T15:13:15Z</time>
      </trkpt>
      <trkpt lat="50.498857973143458" lon="13.027645004913211">
        <ele>717.75999999999999</ele>
        <time>2024-09-19T15:13:16Z</time>
      </trkpt>
      <trkpt lat="50.498813968151808" lon="13.02777299657464">
        <ele>717.27999999999997</ele>
        <time>2024-09-19T15:13:17Z</time>
      </trkpt>
      <trkpt lat="50.498735010623932" lon="13.027856983244419">
        <ele>716.79999999999995</ele>
        <time>2024-09-19T15:13:18Z</time>
      </trkpt>
      <trkpt lat="50.498650018125772" lon="13.027933007106185">
        <ele>716.79999999999995</ele>
        <time>2024-09-19T15:13:19Z</time>
      </trkpt>
      <trkpt lat="50.498551027849317" lon="13.028002995997667">
        <ele>716.32000000000005</ele>
        <time>2024-09-19T15:13:20Z</time>
      </trkpt>
      <trkpt lat="50.498452037572861" lon="13.027995033189654">
        <ele>715.84000000000003</ele>
        <time>2024-09-19T15:13:21Z</time>
      </trkpt>
      <trkpt lat="50.498350029811263" lon="13.02798698656261">
        <ele>715.36000000000001</ele>
        <time>2024-09-19T15:13:22Z</time>
      </trkpt>
      <trkpt lat="50.498241987079382" lon="13.027966031804681">
        <ele>714.88</ele>
        <time>2024-09-19T15:13:23Z</time>
      </trkpt>
      <trkpt lat="50.49720598384738" lon="13.02759999409318">
        <ele>713.44000000000005</ele>
        <time>2024-09-19T15:13:32Z</time>
      </trkpt>
      <trkpt lat="50.496715977787971" lon="13.027565041556954">
        <ele>714.88</ele>
        <time>2024-09-19T15:13:36Z</time>
      </trkpt>
      <trkpt lat="50.496588991954923" lon="13.027562024071813">
        <ele>715.36000000000001</ele>
        <time>2024-09-19T15:13:37Z</time>
      </trkpt>
      <trkpt lat="50.496471980586648" lon="13.02755800075829">
        <ele>715.84000000000003</ele>
        <time>2024-09-19T15:13:38Z</time>
      </trkpt>
      <trkpt lat="50.496359998360276" lon="13.027554983273149">
        <ele>715.84000000000003</ele>
        <time>2024-09-19T15:13:39Z</time>
      </trkpt>
      <trkpt lat="50.496244998648763" lon="13.027564035728574">
        <ele>715.36000000000001</ele>
        <time>2024-09-19T15:13:40Z</time>
      </trkpt>
      <trkpt lat="50.495253000408411" lon="13.027651961892843">
        <ele>714.88</ele>
        <time>2024-09-19T15:13:48Z</time>
      </trkpt>
      <trkpt lat="50.494190007448196" lon="13.027312997728586">
        <ele>709.59000000000003</ele>
        <time>2024-09-19T15:13:57Z</time>
      </trkpt>
      <trkpt lat="50.493607968091965" lon="13.027121974155307">
        <ele>709.11000000000001</ele>
        <time>2024-09-19T15:14:02Z</time>
      </trkpt>
      <trkpt lat="50.493503026664257" lon="13.02704201079905">
        <ele>708.63</ele>
        <time>2024-09-19T15:14:03Z</time>
      </trkpt>
      <trkpt lat="50.493090972304344" lon="13.026643032208085">
        <ele>708.14999999999998</ele>
        <time>2024-09-19T15:14:07Z</time>
      </trkpt>
      <trkpt lat="50.492987958714366" lon="13.026541024446487">
        <ele>708.14999999999998</ele>
        <time>2024-09-19T15:14:08Z</time>
      </trkpt>
      <trkpt lat="50.492583028972149" lon="13.026133999228477">
        <ele>707.66999999999996</ele>
        <time>2024-09-19T15:14:12Z</time>
      </trkpt>
      <trkpt lat="50.491854976862669" lon="13.025169996544719">
        <ele>705.75</ele>
        <time>2024-09-19T15:14:20Z</time>
      </trkpt>
      <trkpt lat="50.491764033213258" lon="13.025048961862922">
        <ele>705.75</ele>
        <time>2024-09-19T15:14:21Z</time>
      </trkpt>
      <trkpt lat="50.491660013794899" lon="13.024962963536382">
        <ele>705.75</ele>
        <time>2024-09-19T15:14:22Z</time>
      </trkpt>
      <trkpt lat="50.491547025740147" lon="13.024900015443563">
        <ele>705.75</ele>
        <time>2024-09-19T15:14:23Z</time>
      </trkpt>
      <trkpt lat="50.491433031857014" lon="13.024835977703333">
        <ele>705.75</ele>
        <time>2024-09-19T15:14:24Z</time>
      </trkpt>
      <trkpt lat="50.49030901864171" lon="13.024175986647606">
        <ele>706.23000000000002</ele>
        <time>2024-09-19T15:14:34Z</time>
      </trkpt>
      <trkpt lat="50.490225031971931" lon="13.02411999553442">
        <ele>706.23000000000002</ele>
        <time>2024-09-19T15:14:35Z</time>
      </trkpt>
      <trkpt lat="50.490100979804993" lon="13.023983035236597">
        <ele>706.71000000000004</ele>
        <time>2024-09-19T15:14:36Z</time>
      </trkpt>
      <trkpt lat="50.49000701867044" lon="13.023868035525084">
        <ele>706.71000000000004</ele>
        <time>2024-09-19T15:14:37Z</time>
      </trkpt>
      <trkpt lat="50.48992202617228" lon="13.023739038035274">
        <ele>707.19000000000005</ele>
        <time>2024-09-19T15:14:38Z</time>
      </trkpt>
      <trkpt lat="50.488917035982013" lon="13.022358035668731">
        <ele>710.54999999999995</ele>
        <time>2024-09-19T15:14:49Z</time>
      </trkpt>
      <trkpt lat="50.488809999078512" lon="13.022272037342191">
        <ele>711.50999999999999</ele>
        <time>2024-09-19T15:14:50Z</time>
      </trkpt>
      <trkpt lat="50.488694999366999" lon="13.022217974066734">
        <ele>711.99000000000001</ele>
        <time>2024-09-19T15:14:51Z</time>
      </trkpt>
      <trkpt lat="50.488228965550661" lon="13.022060981020331">
        <ele>714.88</ele>
        <time>2024-09-19T15:14:55Z</time>
      </trkpt>
      <trkpt lat="50.488110026344657" lon="13.022071039304137">
        <ele>715.84000000000003</ele>
        <time>2024-09-19T15:14:56Z</time>
      </trkpt>
      <trkpt lat="50.487267980352044" lon="13.02212200127542">
        <ele>720.64999999999998</ele>
        <time>2024-09-19T15:15:03Z</time>
      </trkpt>
      <trkpt lat="50.487152980640531" lon="13.022116972133517">
        <ele>721.13</ele>
        <time>2024-09-19T15:15:04Z</time>
      </trkpt>
      <trkpt lat="50.485859988257289" lon="13.021973976865411">
        <ele>722.57000000000005</ele>
        <time>2024-09-19T15:15:14Z</time>
      </trkpt>
      <trkpt lat="50.485711041837931" lon="13.021956961601973">
        <ele>722.57000000000005</ele>
        <time>2024-09-19T15:15:15Z</time>
      </trkpt>
      <trkpt lat="50.485557988286018" lon="13.021981017664075">
        <ele>722.57000000000005</ele>
        <time>2024-09-19T15:15:16Z</time>
      </trkpt>
      <trkpt lat="50.485406024381518" lon="13.022016976028681">
        <ele>722.57000000000005</ele>
        <time>2024-09-19T15:15:17Z</time>
      </trkpt>
      <trkpt lat="50.485252970829606" lon="13.022053018212318">
        <ele>722.09000000000003</ele>
        <time>2024-09-19T15:15:18Z</time>
      </trkpt>
      <trkpt lat="50.485090026631951" lon="13.022090988233685">
        <ele>722.09000000000003</ele>
        <time>2024-09-19T15:15:19Z</time>
      </trkpt>
      <trkpt lat="50.484761958941817" lon="13.022132981568575">
        <ele>721.61000000000001</ele>
        <time>2024-09-19T15:15:21Z</time>
      </trkpt>
      <trkpt lat="50.484574036672711" lon="13.022142034024">
        <ele>721.61000000000001</ele>
        <time>2024-09-19T15:15:22Z</time>
      </trkpt>
      <trkpt lat="50.484384018927813" lon="13.022148991003633">
        <ele>721.61000000000001</ele>
        <time>2024-09-19T15:15:23Z</time>
      </trkpt>
      <trkpt lat="50.482844011858106" lon="13.022188972681761">
        <ele>719.20000000000005</ele>
        <time>2024-09-19T15:15:32Z</time>
      </trkpt>
      <trkpt lat="50.482641002163291" lon="13.022104986011982">
        <ele>719.67999999999995</ele>
        <time>2024-09-19T15:15:33Z</time>
      </trkpt>
      <trkpt lat="50.481026982888579" lon="13.021565023809671">
        <ele>724.49000000000001</ele>
        <time>2024-09-19T15:15:42Z</time>
      </trkpt>
      <trkpt lat="50.479702977463603" lon="13.020907966420054">
        <ele>727.86000000000001</ele>
        <time>2024-09-19T15:15:50Z</time>
      </trkpt>
      <trkpt lat="50.479397960007191" lon="13.020670004189014">
        <ele>728.34000000000003</ele>
        <time>2024-09-19T15:15:52Z</time>
      </trkpt>
      <trkpt lat="50.478131035342813" lon="13.019697032868862">
        <ele>728.34000000000003</ele>
        <time>2024-09-19T15:16:00Z</time>
      </trkpt>
      <trkpt lat="50.476929992437363" lon="13.018849035724998">
        <ele>730.25999999999999</ele>
        <time>2024-09-19T15:16:09Z</time>
      </trkpt>
      <trkpt lat="50.475937994197011" lon="13.018315024673939">
        <ele>731.70000000000005</ele>
        <time>2024-09-19T15:16:18Z</time>
      </trkpt>
      <trkpt lat="50.4757019598037" lon="13.018252998590469">
        <ele>731.70000000000005</ele>
        <time>2024-09-19T15:16:20Z</time>
      </trkpt>
      <trkpt lat="50.475580003112555" lon="13.018260039389133">
        <ele>731.70000000000005</ele>
        <time>2024-09-19T15:16:21Z</time>
      </trkpt>
      <trkpt lat="50.475460980087519" lon="13.018289962783456">
        <ele>731.70000000000005</ele>
        <time>2024-09-19T15:16:22Z</time>
      </trkpt>
      <trkpt lat="50.475342040881515" lon="13.018338996917009">
        <ele>731.70000000000005</ele>
        <time>2024-09-19T15:16:23Z</time>
      </trkpt>
      <trkpt lat="50.47522896900773" lon="13.018407979980111">
        <ele>731.22000000000003</ele>
        <time>2024-09-19T15:16:24Z</time>
      </trkpt>
      <trkpt lat="50.474781040102243" lon="13.018681984394789">
        <ele>731.22000000000003</ele>
        <time>2024-09-19T15:16:28Z</time>
      </trkpt>
      <trkpt lat="50.474662017077208" lon="13.018753984943032">
        <ele>731.70000000000005</ele>
        <time>2024-09-19T15:16:29Z</time>
      </trkpt>
      <trkpt lat="50.474549029022455" lon="13.018822968006134">
        <ele>732.17999999999995</ele>
        <time>2024-09-19T15:16:30Z</time>
      </trkpt>
      <trkpt lat="50.474426988512278" lon="13.018849035724998">
        <ele>732.65999999999997</ele>
        <time>2024-09-19T15:16:31Z</time>
      </trkpt>
      <trkpt lat="50.474306959658861" lon="13.018859010189772">
        <ele>732.65999999999997</ele>
        <time>2024-09-19T15:16:32Z</time>
      </trkpt>
      <trkpt lat="50.473112035542727" lon="13.019066965207458">
        <ele>734.58000000000004</ele>
        <time>2024-09-19T15:16:42Z</time>
      </trkpt>
      <trkpt lat="50.47228398732841" lon="13.019074006006122">
        <ele>736.02999999999997</ele>
        <time>2024-09-19T15:16:49Z</time>
      </trkpt>
      <trkpt lat="50.472162030637264" lon="13.019065037369728">
        <ele>736.50999999999999</ele>
        <time>2024-09-19T15:16:50Z</time>
      </trkpt>
      <trkpt lat="50.471918033435941" lon="13.019069982692599">
        <ele>736.50999999999999</ele>
        <time>2024-09-19T15:16:52Z</time>
      </trkpt>
      <trkpt lat="50.470952019095421" lon="13.019128991290927">
        <ele>738.90999999999997</ele>
        <time>2024-09-19T15:17:00Z</time>
      </trkpt>
      <trkpt lat="50.470590004697442" lon="13.019110970199108">
        <ele>739.38999999999999</ele>
        <time>2024-09-19T15:17:03Z</time>
      </trkpt>
      <trkpt lat="50.470468970015645" lon="13.019105019047856">
        <ele>739.38999999999999</ele>
        <time>2024-09-19T15:17:04Z</time>
      </trkpt>
      <trkpt lat="50.469264993444085" lon="13.018967974931002">
        <ele>739.87</ele>
        <time>2024-09-19T15:17:14Z</time>
      </trkpt>
      <trkpt lat="50.46914697624743" lon="13.018926987424493">
        <ele>739.38999999999999</ele>
        <time>2024-09-19T15:17:15Z</time>
      </trkpt>
      <trkpt lat="50.469030970707536" lon="13.01887602545321">
        <ele>739.38999999999999</ele>
        <time>2024-09-19T15:17:16Z</time>
      </trkpt>
      <trkpt lat="50.467753987759352" lon="13.018300021067262">
        <ele>742.27999999999997</ele>
        <time>2024-09-19T15:17:27Z</time>
      </trkpt>
      <trkpt lat="50.466929040849209" lon="13.018069015815854">
        <ele>744.67999999999995</ele>
        <time>2024-09-19T15:17:34Z</time>
      </trkpt>
      <trkpt lat="50.465736966580153" lon="13.018069015815854">
        <ele>750.45000000000005</ele>
        <time>2024-09-19T15:17:44Z</time>
      </trkpt>
      <trkpt lat="50.465617021545768" lon="13.018077984452248">
        <ele>750.92999999999995</ele>
        <time>2024-09-19T15:17:45Z</time>
      </trkpt>
      <trkpt lat="50.464538019150496" lon="13.018295997753739">
        <ele>757.65999999999997</ele>
        <time>2024-09-19T15:17:54Z</time>
      </trkpt>
      <trkpt lat="50.463864030316472" lon="13.018451984971762">
        <ele>760.53999999999996</ele>
        <time>2024-09-19T15:17:59Z</time>
      </trkpt>
      <trkpt lat="50.462496019899845" lon="13.01870402880013">
        <ele>766.30999999999995</ele>
        <time>2024-09-19T15:18:06Z</time>
      </trkpt>
      <trkpt lat="50.462107015773654" lon="13.018784997984767">
        <ele>767.26999999999998</ele>
        <time>2024-09-19T15:18:08Z</time>
      </trkpt>
      <trkpt lat="50.461909035220742" lon="13.018746022135019">
        <ele>768.23000000000002</ele>
        <time>2024-09-19T15:18:09Z</time>
      </trkpt>
      <trkpt lat="50.461708959192038" lon="13.01870696246624">
        <ele>768.71000000000004</ele>
        <time>2024-09-19T15:18:10Z</time>
      </trkpt>
      <trkpt lat="50.460280012339354" lon="13.018639991059899">
        <ele>772.55999999999995</ele>
        <time>2024-09-19T15:18:17Z</time>
      </trkpt>
      <trkpt lat="50.45909196138382" lon="13.019308028742671">
        <ele>772.55999999999995</ele>
        <time>2024-09-19T15:18:23Z</time>
      </trkpt>
      <trkpt lat="50.456560039892793" lon="13.021188005805016">
        <ele>775.91999999999996</ele>
        <time>2024-09-19T15:18:35Z</time>
      </trkpt>
      <trkpt lat="50.456332974135876" lon="13.021289007738233">
        <ele>775.91999999999996</ele>
        <time>2024-09-19T15:18:36Z</time>
      </trkpt>
      <trkpt lat="50.455182977020741" lon="13.021782031282783">
        <ele>777.36000000000001</ele>
        <time>2024-09-19T15:18:41Z</time>
      </trkpt>
      <trkpt lat="50.454155020415783" lon="13.022616030648351">
        <ele>778.32000000000005</ele>
        <time>2024-09-19T15:18:46Z</time>
      </trkpt>
      <trkpt lat="50.453683035448194" lon="13.022833038121462">
        <ele>778.80999999999995</ele>
        <time>2024-09-19T15:18:49Z</time>
      </trkpt>
      <trkpt lat="50.45348497107625" lon="13.022775035351515">
        <ele>778.80999999999995</ele>
        <time>2024-09-19T15:18:50Z</time>
      </trkpt>
      <trkpt lat="50.453299982473254" lon="13.022715020924807">
        <ele>778.80999999999995</ele>
        <time>2024-09-19T15:18:51Z</time>
      </trkpt>
      <trkpt lat="50.452892035245895" lon="13.022468006238341">
        <ele>779.28999999999996</ele>
        <time>2024-09-19T15:18:53Z</time>
      </trkpt>
      <trkpt lat="50.451558977365494" lon="13.021781025454402">
        <ele>779.76999999999998</ele>
        <time>2024-09-19T15:18:59Z</time>
      </trkpt>
      <trkpt lat="50.45135403983295" lon="13.021660996600986">
        <ele>780.25</ele>
        <time>2024-09-19T15:19:00Z</time>
      </trkpt>
      <trkpt lat="50.450074039399624" lon="13.020717026665807">
        <ele>781.69000000000005</ele>
        <time>2024-09-19T15:19:07Z</time>
      </trkpt>
      <trkpt lat="50.44922998175025" lon="13.020120989531279">
        <ele>781.69000000000005</ele>
        <time>2024-09-19T15:19:14Z</time>
      </trkpt>
      <trkpt lat="50.448998976498842" lon="13.019965002313256">
        <ele>782.16999999999996</ele>
        <time>2024-09-19T15:19:16Z</time>
      </trkpt>
      <trkpt lat="50.44888598844409" lon="13.01988797262311">
        <ele>782.16999999999996</ele>
        <time>2024-09-19T15:19:17Z</time>
      </trkpt>
      <trkpt lat="50.448662023991346" lon="13.01973701454699">
        <ele>783.61000000000001</ele>
        <time>2024-09-19T15:19:19Z</time>
      </trkpt>
      <trkpt lat="50.448544006794691" lon="13.019656967371702">
        <ele>784.57000000000005</ele>
        <time>2024-09-19T15:19:20Z</time>
      </trkpt>
      <trkpt lat="50.447399038821459" lon="13.019011979922652">
        <ele>789.86000000000001</ele>
        <time>2024-09-19T15:19:30Z</time>
      </trkpt>
      <trkpt lat="50.446823034435511" lon="13.018760019913316">
        <ele>789.38</ele>
        <time>2024-09-19T15:19:35Z</time>
      </trkpt>
      <trkpt lat="50.446604015305638" lon="13.018649965524673">
        <ele>788.89999999999998</ele>
        <time>2024-09-19T15:19:37Z</time>
      </trkpt>
      <trkpt lat="50.44568301178515" lon="13.017745977267623">
        <ele>789.38</ele>
        <time>2024-09-19T15:19:46Z</time>
      </trkpt>
      <trkpt lat="50.445423005148768" lon="13.017302993685007">
        <ele>789.86000000000001</ele>
        <time>2024-09-19T15:19:49Z</time>
      </trkpt>
      <trkpt lat="50.444979015737772" lon="13.015935989096761">
        <ele>793.71000000000004</ele>
        <time>2024-09-19T15:19:57Z</time>
      </trkpt>
      <trkpt lat="50.444663017988205" lon="13.014935022220016">
        <ele>797.07000000000005</ele>
        <time>2024-09-19T15:20:03Z</time>
      </trkpt>
      <trkpt lat="50.444601997733116" lon="13.014776017516851">
        <ele>798.02999999999997</ele>
        <time>2024-09-19T15:20:04Z</time>
      </trkpt>
      <trkpt lat="50.44390101917088" lon="13.013246990740299">
        <ele>805.72000000000003</ele>
        <time>2024-09-19T15:20:14Z</time>
      </trkpt>
      <trkpt lat="50.443835975602269" lon="13.01309703849256">
        <ele>806.67999999999995</ele>
        <time>2024-09-19T15:20:15Z</time>
      </trkpt>
      <trkpt lat="50.442993007600307" lon="13.011271962895989">
        <ele>807.15999999999997</ele>
        <time>2024-09-19T15:20:27Z</time>
      </trkpt>
      <trkpt lat="50.442787986248732" lon="13.010805007070303">
        <ele>806.67999999999995</ele>
        <time>2024-09-19T15:20:30Z</time>
      </trkpt>
      <trkpt lat="50.44272000901401" lon="13.010649019852281">
        <ele>807.15999999999997</ele>
        <time>2024-09-19T15:20:31Z</time>
      </trkpt>
      <trkpt lat="50.442228997126222" lon="13.00957596860826">
        <ele>807.63999999999999</ele>
        <time>2024-09-19T15:20:38Z</time>
      </trkpt>
      <trkpt lat="50.442150039598346" lon="13.009430039674044">
        <ele>808.13</ele>
        <time>2024-09-19T15:20:39Z</time>
      </trkpt>
      <trkpt lat="50.442070998251438" lon="13.009282015264034">
        <ele>808.13</ele>
        <time>2024-09-19T15:20:40Z</time>
      </trkpt>
      <trkpt lat="50.441983994096518" lon="13.009150000289083">
        <ele>808.13</ele>
        <time>2024-09-19T15:20:41Z</time>
      </trkpt>
      <trkpt lat="50.441888021305203" lon="13.009032988920808">
        <ele>808.61000000000001</ele>
        <time>2024-09-19T15:20:42Z</time>
      </trkpt>
      <trkpt lat="50.440880013629794" lon="13.007991034537554">
        <ele>811.97000000000003</ele>
        <time>2024-09-19T15:20:52Z</time>
      </trkpt>
      <trkpt lat="50.43988399207592" lon="13.006982021033764">
        <ele>814.85000000000002</ele>
        <time>2024-09-19T15:21:02Z</time>
      </trkpt>
      <trkpt lat="50.4392150323838" lon="13.00617802888155">
        <ele>818.70000000000005</ele>
        <time>2024-09-19T15:21:09Z</time>
      </trkpt>
      <trkpt lat="50.43913003988564" lon="13.006044002249837">
        <ele>819.17999999999995</ele>
        <time>2024-09-19T15:21:10Z</time>
      </trkpt>
      <trkpt lat="50.43882803991437" lon="13.005263982340693">
        <ele>821.10000000000002</ele>
        <time>2024-09-19T15:21:15Z</time>
      </trkpt>
      <trkpt lat="50.438742963597178" lon="13.004699964076281">
        <ele>822.05999999999995</ele>
        <time>2024-09-19T15:21:18Z</time>
      </trkpt>
      <trkpt lat="50.438583036884665" lon="13.003703020513058">
        <ele>824.47000000000003</ele>
        <time>2024-09-19T15:21:23Z</time>
      </trkpt>
      <trkpt lat="50.438517993316054" lon="13.003495987504721">
        <ele>824.95000000000005</ele>
        <time>2024-09-19T15:21:24Z</time>
      </trkpt>
      <trkpt lat="50.438442975282669" lon="13.003270011395216">
        <ele>825.42999999999995</ele>
        <time>2024-09-19T15:21:25Z</time>
      </trkpt>
      <trkpt lat="50.4383360221982" lon="13.003040011972189">
        <ele>825.90999999999997</ele>
        <time>2024-09-19T15:21:26Z</time>
      </trkpt>
      <trkpt lat="50.438216999173164" lon="13.002801965922117">
        <ele>826.87</ele>
        <time>2024-09-19T15:21:27Z</time>
      </trkpt>
      <trkpt lat="50.438088001683354" lon="13.002543970942497">
        <ele>827.35000000000002</ele>
        <time>2024-09-19T15:21:28Z</time>
      </trkpt>
      <trkpt lat="50.436930041760206" lon="13.00031497143209">
        <ele>831.67999999999995</ele>
        <time>2024-09-19T15:21:36Z</time>
      </trkpt>
      <trkpt lat="50.43601599521935" lon="12.998155038803816">
        <ele>836.48000000000002</ele>
        <time>2024-09-19T15:21:44Z</time>
      </trkpt>
      <trkpt lat="50.435902001336217" lon="12.997935013845563">
        <ele>836.48000000000002</ele>
        <time>2024-09-19T15:21:45Z</time>
      </trkpt>
      <trkpt lat="50.435748025774956" lon="12.997736027464271">
        <ele>836.48000000000002</ele>
        <time>2024-09-19T15:21:46Z</time>
      </trkpt>
      <trkpt lat="50.435584997758269" lon="12.997526982799172">
        <ele>836</ele>
        <time>2024-09-19T15:21:47Z</time>
      </trkpt>
      <trkpt lat="50.435056015849113" lon="12.996848970651627">
        <ele>835.51999999999998</ele>
        <time>2024-09-19T15:21:50Z</time>
      </trkpt>
      <trkpt lat="50.433580968528986" lon="12.994521986693144">
        <ele>841.28999999999996</ele>
        <time>2024-09-19T15:21:59Z</time>
      </trkpt>
      <trkpt lat="50.432013971731067" lon="12.992437994107604">
        <ele>850.41999999999996</ele>
        <time>2024-09-19T15:22:08Z</time>
      </trkpt>
      <trkpt lat="50.431154994294047" lon="12.991257989779115">
        <ele>855.71000000000004</ele>
        <time>2024-09-19T15:22:15Z</time>
      </trkpt>
      <trkpt lat="50.430583013221622" lon="12.990178987383842">
        <ele>853.30999999999995</ele>
        <time>2024-09-19T15:22:22Z</time>
      </trkpt>
      <trkpt lat="50.429573999717832" lon="12.989069977775216">
        <ele>845.62</ele>
        <time>2024-09-19T15:22:32Z</time>
      </trkpt>
      <trkpt lat="50.429380964487791" lon="12.98890401609242">
        <ele>845.13999999999999</ele>
        <time>2024-09-19T15:22:34Z</time>
      </trkpt>
      <trkpt lat="50.429284991696477" lon="12.988822963088751">
        <ele>845.13999999999999</ele>
        <time>2024-09-19T15:22:35Z</time>
      </trkpt>
      <trkpt lat="50.42920402251184" lon="12.988817011937499">
        <ele>845.62</ele>
        <time>2024-09-19T15:22:36Z</time>
      </trkpt>
      <trkpt lat="50.429116012528539" lon="12.988811982795596">
        <ele>845.62</ele>
        <time>2024-09-19T15:22:37Z</time>
      </trkpt>
      <trkpt lat="50.429038982838392" lon="12.988807037472725">
        <ele>845.62</ele>
        <time>2024-09-19T15:22:38Z</time>
      </trkpt>
      <trkpt lat="50.428973017260432" lon="12.988802008330822">
        <ele>846.10000000000002</ele>
        <time>2024-09-19T15:22:39Z</time>
      </trkpt>
      <trkpt lat="50.428096018731594" lon="12.988575026392937">
        <ele>851.87</ele>
        <time>2024-09-19T15:22:50Z</time>
      </trkpt>
      <trkpt lat="50.427411971613765" lon="12.988308984786272">
        <ele>855.23000000000002</ele>
        <time>2024-09-19T15:22:57Z</time>
      </trkpt>
      <trkpt lat="50.427208039909601" lon="12.98813397064805">
        <ele>856.66999999999996</ele>
        <time>2024-09-19T15:22:59Z</time>
      </trkpt>
      <trkpt lat="50.427105026319623" lon="12.988027017563581">
        <ele>857.14999999999998</ele>
        <time>2024-09-19T15:23:00Z</time>
      </trkpt>
      <trkpt lat="50.426682997494936" lon="12.987648993730545">
        <ele>859.08000000000004</ele>
        <time>2024-09-19T15:23:04Z</time>
      </trkpt>
      <trkpt lat="50.426574032753706" lon="12.987585039809346">
        <ele>859.55999999999995</ele>
        <time>2024-09-19T15:23:05Z</time>
      </trkpt>
      <trkpt lat="50.426452998071909" lon="12.987513961270452">
        <ele>860.03999999999996</ele>
        <time>2024-09-19T15:23:06Z</time>
      </trkpt>
      <trkpt lat="50.42634797282517" lon="12.987476997077465">
        <ele>860.51999999999998</ele>
        <time>2024-09-19T15:23:07Z</time>
      </trkpt>
      <trkpt lat="50.426231967285275" lon="12.987436009570956">
        <ele>861</ele>
        <time>2024-09-19T15:23:08Z</time>
      </trkpt>
      <trkpt lat="50.425885962322354" lon="12.987314974889159">
        <ele>862.91999999999996</ele>
        <time>2024-09-19T15:23:11Z</time>
      </trkpt>
      <trkpt lat="50.425655962899327" lon="12.987231994047761">
        <ele>863.88</ele>
        <time>2024-09-19T15:23:13Z</time>
      </trkpt>
      <trkpt lat="50.424528010189533" lon="12.986124996095896">
        <ele>868.21000000000004</ele>
        <time>2024-09-19T15:23:24Z</time>
      </trkpt>
      <trkpt lat="50.423805993050337" lon="12.985339025035501">
        <ele>868.69000000000005</ele>
        <time>2024-09-19T15:23:31Z</time>
      </trkpt>
      <trkpt lat="50.423472980037332" lon="12.985138026997447">
        <ele>868.69000000000005</ele>
        <time>2024-09-19T15:23:34Z</time>
      </trkpt>
      <trkpt lat="50.422918014228344" lon="12.984848013147712">
        <ele>868.21000000000004</ele>
        <time>2024-09-19T15:23:39Z</time>
      </trkpt>
      <trkpt lat="50.422806032001972" lon="12.984789004549384">
        <ele>868.69000000000005</ele>
        <time>2024-09-19T15:23:40Z</time>
      </trkpt>
      <trkpt lat="50.422711987048388" lon="12.984667969867587">
        <ele>869.16999999999996</ele>
        <time>2024-09-19T15:23:41Z</time>
      </trkpt>
      <trkpt lat="50.422620037570596" lon="12.984547019004822">
        <ele>869.64999999999998</ele>
        <time>2024-09-19T15:23:42Z</time>
      </trkpt>
      <trkpt lat="50.422528004273772" lon="12.984426990151405">
        <ele>870.13</ele>
        <time>2024-09-19T15:23:43Z</time>
      </trkpt>
      <trkpt lat="50.421943031251431" lon="12.983788959681988">
        <ele>873.5</ele>
        <time>2024-09-19T15:23:49Z</time>
      </trkpt>
      <trkpt lat="50.421293014660478" lon="12.98331898637116">
        <ele>875.41999999999996</ele>
        <time>2024-09-19T15:23:55Z</time>
      </trkpt>
      <trkpt lat="50.421088999137282" lon="12.983099967241287">
        <ele>875.89999999999998</ele>
        <time>2024-09-19T15:23:57Z</time>
      </trkpt>
      <trkpt lat="50.420985985547304" lon="12.982986979186535">
        <ele>875.89999999999998</ele>
        <time>2024-09-19T15:23:58Z</time>
      </trkpt>
      <trkpt lat="50.420178975909948" lon="12.981737991794944">
        <ele>871.57000000000005</ele>
        <time>2024-09-19T15:24:07Z</time>
      </trkpt>
      <trkpt lat="50.419749990105629" lon="12.980840038508177">
        <ele>866.28999999999996</ele>
        <time>2024-09-19T15:24:13Z</time>
      </trkpt>
      <trkpt lat="50.419029984623194" lon="12.979404972866178">
        <ele>860.51999999999998</ele>
        <time>2024-09-19T15:24:23Z</time>
      </trkpt>
      <trkpt lat="50.418493961915374" lon="12.977830013260245">
        <ele>861.48000000000002</ele>
        <time>2024-09-19T15:24:32Z</time>
      </trkpt>
      <trkpt lat="50.417976966127753" lon="12.975645018741488">
        <ele>864.36000000000001</ele>
        <time>2024-09-19T15:24:41Z</time>
      </trkpt>
      <trkpt lat="50.417211027815938" lon="12.972710011526942">
        <ele>872.52999999999997</ele>
        <time>2024-09-19T15:24:52Z</time>
      </trkpt>
      <trkpt lat="50.416733007878065" lon="12.970497021451592">
        <ele>877.34000000000003</ele>
        <time>2024-09-19T15:25:00Z</time>
      </trkpt>
      <trkpt lat="50.416371999308467" lon="12.968481006100774">
        <ele>880.22000000000003</ele>
        <time>2024-09-19T15:25:08Z</time>
      </trkpt>
      <trkpt lat="50.41558301076293" lon="12.966358959674835">
        <ele>884.54999999999995</ele>
        <time>2024-09-19T15:25:17Z</time>
      </trkpt>
      <trkpt lat="50.415314035490155" lon="12.964450987055898">
        <ele>890.79999999999995</ele>
        <time>2024-09-19T15:25:24Z</time>
      </trkpt>
      <trkpt lat="50.415292996913195" lon="12.961672972887754">
        <ele>900.40999999999997</ele>
        <time>2024-09-19T15:25:33Z</time>
      </trkpt>
      <trkpt lat="50.415320992469788" lon="12.959316987544298">
        <ele>910.02999999999997</ele>
        <time>2024-09-19T15:25:40Z</time>
      </trkpt>
      <trkpt lat="50.415306994691491" lon="12.958979029208422">
        <ele>911.95000000000005</ele>
        <time>2024-09-19T15:25:41Z</time>
      </trkpt>
      <trkpt lat="50.414934000000358" lon="12.956775007769465">
        <ele>923.96000000000004</ele>
        <time>2024-09-19T15:25:48Z</time>
      </trkpt>
      <trkpt lat="50.414843978360295" lon="12.956099007278681">
        <ele>928.76999999999998</ele>
        <time>2024-09-19T15:25:51Z</time>
      </trkpt>
      <trkpt lat="50.41487499140203" lon="12.955912007018924">
        <ele>929.73000000000002</ele>
        <time>2024-09-19T15:25:52Z</time>
      </trkpt>
      <trkpt lat="50.414932994171977" lon="12.955739004537463">
        <ele>930.69000000000005</ele>
        <time>2024-09-19T15:25:53Z</time>
      </trkpt>
      <trkpt lat="50.415018992498517" lon="12.955676978453994">
        <ele>931.64999999999998</ele>
        <time>2024-09-19T15:25:54Z</time>
      </trkpt>
      <trkpt lat="50.415129968896508" lon="12.955658035352826">
        <ele>932.62</ele>
        <time>2024-09-19T15:25:55Z</time>
      </trkpt>
      <trkpt lat="50.415259972214699" lon="12.955726012587547">
        <ele>933.10000000000002</ele>
        <time>2024-09-19T15:25:56Z</time>
      </trkpt>
      <trkpt lat="50.415334990248084" lon="12.955869007855654">
        <ele>933.58000000000004</ele>
        <time>2024-09-19T15:25:57Z</time>
      </trkpt>
      <trkpt lat="50.415426017716527" lon="12.956048967316747">
        <ele>934.53999999999996</ele>
        <time>2024-09-19T15:25:58Z</time>
      </trkpt>
      <trkpt lat="50.415473962202668" lon="12.956278966739774">
        <ele>935.01999999999998</ele>
        <time>2024-09-19T15:25:59Z</time>
      </trkpt>
      <trkpt lat="50.415527019649744" lon="12.956536039710045">
        <ele>935.98000000000002</ele>
        <time>2024-09-19T15:26:00Z</time>
      </trkpt>
      <trkpt lat="50.41558301076293" lon="12.956809038296342">
        <ele>936.94000000000005</ele>
        <time>2024-09-19T15:26:01Z</time>
      </trkpt>
      <trkpt lat="50.415895991027355" lon="12.958309985697269">
        <ele>943.66999999999996</ele>
        <time>2024-09-19T15:26:06Z</time>
      </trkpt>
      <trkpt lat="50.416710041463375" lon="12.960764961317182">
        <ele>960.49000000000001</ele>
        <time>2024-09-19T15:26:14Z</time>
      </trkpt>
      <trkpt lat="50.416997959837317" lon="12.962020989507437">
        <ele>970.11000000000001</ele>
        <time>2024-09-19T15:26:19Z</time>
      </trkpt>
      <trkpt lat="50.417064009234309" lon="12.962096007540822">
        <ele>971.54999999999995</ele>
        <time>2024-09-19T15:26:20Z</time>
      </trkpt>
      <trkpt lat="50.417153025045991" lon="12.962149986997247">
        <ele>972.50999999999999</ele>
        <time>2024-09-19T15:26:21Z</time>
      </trkpt>
      <trkpt lat="50.417226031422615" lon="12.962193991988897">
        <ele>973.47000000000003</ele>
        <time>2024-09-19T15:26:22Z</time>
      </trkpt>
      <trkpt lat="50.417312029749155" lon="12.962150992825627">
        <ele>974.42999999999995</ele>
        <time>2024-09-19T15:26:23Z</time>
      </trkpt>
      <trkpt lat="50.417400039732456" lon="12.962032975628972">
        <ele>974.90999999999997</ele>
        <time>2024-09-19T15:26:24Z</time>
      </trkpt>
      <trkpt lat="50.417445972561836" lon="12.961927028372884">
        <ele>975.88</ele>
        <time>2024-09-19T15:26:25Z</time>
      </trkpt>
      <trkpt lat="50.417464999482036" lon="12.961750002577901">
        <ele>976.84000000000003</ele>
        <time>2024-09-19T15:26:26Z</time>
      </trkpt>
      <trkpt lat="50.417483020573854" lon="12.961570965126157">
        <ele>977.32000000000005</ele>
        <time>2024-09-19T15:26:27Z</time>
      </trkpt>
      <trkpt lat="50.417454019188881" lon="12.961351023986936">
        <ele>978.27999999999997</ele>
        <time>2024-09-19T15:26:28Z</time>
      </trkpt>
      <trkpt lat="50.417420994490385" lon="12.961107026785612">
        <ele>979.24000000000001</ele>
        <time>2024-09-19T15:26:29Z</time>
      </trkpt>
      <trkpt lat="50.417233994230628" lon="12.958994032815099">
        <ele>986.92999999999995</ele>
        <time>2024-09-19T15:26:36Z</time>
      </trkpt>
      <trkpt lat="50.416965018957853" lon="12.956350967288017">
        <ele>996.05999999999995</ele>
        <time>2024-09-19T15:26:43Z</time>
      </trkpt>
      <trkpt lat="50.416874997317791" lon="12.953314036130905">
        <ele>1009.52</ele>
        <time>2024-09-19T15:26:51Z</time>
      </trkpt>
      <trkpt lat="50.41642396710813" lon="12.949750972911716">
        <ele>1028.27</ele>
        <time>2024-09-19T15:27:01Z</time>
      </trkpt>
      <trkpt lat="50.415779985487461" lon="12.94625798240304">
        <ele>1048.45</ele>
        <time>2024-09-19T15:27:11Z</time>
      </trkpt>
      <trkpt lat="50.414903992787004" lon="12.943837037310004">
        <ele>1059.99</ele>
        <time>2024-09-19T15:27:18Z</time>
      </trkpt>
      <trkpt lat="50.414235033094883" lon="12.942054960876703">
        <ele>1069.5999999999999</ele>
        <time>2024-09-19T15:27:24Z</time>
      </trkpt>
      <trkpt lat="50.413593985140324" lon="12.940232986584306">
        <ele>1080.1800000000001</ele>
        <time>2024-09-19T15:27:32Z</time>
      </trkpt>
      <trkpt lat="50.41268496774137" lon="12.937992000952363">
        <ele>1083.54</ele>
        <time>2024-09-19T15:27:44Z</time>
      </trkpt>
      <trkpt lat="50.412263022735715" lon="12.937357993796468">
        <ele>1082.5799999999999</ele>
        <time>2024-09-19T15:27:48Z</time>
      </trkpt>
      <trkpt lat="50.412194961681962" lon="12.937176022678614">
        <ele>1082.5799999999999</ele>
        <time>2024-09-19T15:27:49Z</time>
      </trkpt>
      <trkpt lat="50.412162020802498" lon="12.936973012983799">
        <ele>1082.0999999999999</ele>
        <time>2024-09-19T15:27:50Z</time>
      </trkpt>
      <trkpt lat="50.412162020802498" lon="12.936831023544073">
        <ele>1082.0999999999999</ele>
        <time>2024-09-19T15:27:51Z</time>
      </trkpt>
      <trkpt lat="50.412229998037219" lon="12.936626002192497">
        <ele>1082.0999999999999</ele>
        <time>2024-09-19T15:27:52Z</time>
      </trkpt>
      <trkpt lat="50.412290012463927" lon="12.936447970569134">
        <ele>1082.0999999999999</ele>
        <time>2024-09-19T15:27:53Z</time>
      </trkpt>
      <trkpt lat="50.412356983870268" lon="12.936277985572815">
        <ele>1082.0999999999999</ele>
        <time>2024-09-19T15:27:54Z</time>
      </trkpt>
      <trkpt lat="50.412580026313663" lon="12.935851011425257">
        <ele>1084.02</ele>
        <time>2024-09-19T15:27:57Z</time>
      </trkpt>
      <trkpt lat="50.412652026861906" lon="12.935716984793544">
        <ele>1084.99</ele>
        <time>2024-09-19T15:27:58Z</time>
      </trkpt>
      <trkpt lat="50.412771971896291" lon="12.935640038922429">
        <ele>1085.47</ele>
        <time>2024-09-19T15:27:59Z</time>
      </trkpt>
      <trkpt lat="50.41289996355772" lon="12.935597961768508">
        <ele>1086.4300000000001</ele>
        <time>2024-09-19T15:28:00Z</time>
      </trkpt>
      <trkpt lat="50.413037007674575" lon="12.935562003403902">
        <ele>1086.9100000000001</ele>
        <time>2024-09-19T15:28:01Z</time>
      </trkpt>
      <trkpt lat="50.413186037912965" lon="12.935553034767509">
        <ele>1088.3499999999999</ele>
        <time>2024-09-19T15:28:02Z</time>
      </trkpt>
      <trkpt lat="50.413346970453858" lon="12.935544988140464">
        <ele>1088.8299999999999</ele>
        <time>2024-09-19T15:28:03Z</time>
      </trkpt>
      <trkpt lat="50.413505975157022" lon="12.935610031709075">
        <ele>1089.79</ele>
        <time>2024-09-19T15:28:04Z</time>
      </trkpt>
      <trkpt lat="50.413673026487231" lon="12.935677003115416">
        <ele>1090.75</ele>
        <time>2024-09-19T15:28:05Z</time>
      </trkpt>
      <trkpt lat="50.414912961423397" lon="12.936178995296359">
        <ele>1097.96</ele>
        <time>2024-09-19T15:28:12Z</time>
      </trkpt>
      <trkpt lat="50.417037019506097" lon="12.936771009117365">
        <ele>1116.71</ele>
        <time>2024-09-19T15:28:23Z</time>
      </trkpt>
      <trkpt lat="50.418113004416227" lon="12.93708398938179">
        <ele>1119.1099999999999</ele>
        <time>2024-09-19T15:28:29Z</time>
      </trkpt>
      <trkpt lat="50.418191961944103" lon="12.937174011021852">
        <ele>1119.1099999999999</ele>
        <time>2024-09-19T15:28:30Z</time>
      </trkpt>
      <trkpt lat="50.418271003291011" lon="12.937406022101641">
        <ele>1118.6300000000001</ele>
        <time>2024-09-19T15:28:31Z</time>
      </trkpt>
      <trkpt lat="50.418336968868971" lon="12.937602996826172">
        <ele>1118.6300000000001</ele>
        <time>2024-09-19T15:28:32Z</time>
      </trkpt>
      <trkpt lat="50.418409975245595" lon="12.937816986814141">
        <ele>1118.6300000000001</ele>
        <time>2024-09-19T15:28:33Z</time>
      </trkpt>
      <trkpt lat="50.419004000723362" lon="12.939793020486832">
        <ele>1123.4400000000001</ele>
        <time>2024-09-19T15:28:42Z</time>
      </trkpt>
      <trkpt lat="50.419761976227164" lon="12.94163703918457">
        <ele>1135.45</ele>
        <time>2024-09-19T15:28:50Z</time>
      </trkpt>
      <trkpt lat="50.421025967225432" lon="12.944630971178412">
        <ele>1154.6800000000001</ele>
        <time>2024-09-19T15:29:01Z</time>
      </trkpt>
      <trkpt lat="50.421239035204053" lon="12.945134975016117">
        <ele>1158.53</ele>
        <time>2024-09-19T15:29:03Z</time>
      </trkpt>
      <trkpt lat="50.421377001330256" lon="12.945329016074538">
        <ele>1160.45</ele>
        <time>2024-09-19T15:29:04Z</time>
      </trkpt>
      <trkpt lat="50.422605033963919" lon="12.947044959291816">
        <ele>1174.3900000000001</ele>
        <time>2024-09-19T15:29:12Z</time>
      </trkpt>
      <trkpt lat="50.423672972247005" lon="12.948819994926453">
        <ele>1187.3699999999999</ele>
        <time>2024-09-19T15:29:20Z</time>
      </trkpt>
      <trkpt lat="50.424458021298051" lon="12.950540967285633">
        <ele>1194.5799999999999</ele>
        <time>2024-09-19T15:29:28Z</time>
      </trkpt>
      <trkpt lat="50.424643009901047" lon="12.951023010537028">
        <ele>1194.5799999999999</ele>
        <time>2024-09-19T15:29:31Z</time>
      </trkpt>
      <trkpt lat="50.424717022106051" lon="12.951209004968405">
        <ele>1194.5799999999999</ele>
        <time>2024-09-19T15:29:32Z</time>
      </trkpt>
      <trkpt lat="50.424835961312056" lon="12.951298020780087">
        <ele>1194.0899999999999</ele>
        <time>2024-09-19T15:29:33Z</time>
      </trkpt>
      <trkpt lat="50.424966970458627" lon="12.951393993571401">
        <ele>1193.6099999999999</ele>
        <time>2024-09-19T15:29:34Z</time>
      </trkpt>
      <trkpt lat="50.425103008747101" lon="12.951496001332998">
        <ele>1193.1300000000001</ele>
        <time>2024-09-19T15:29:35Z</time>
      </trkpt>
      <trkpt lat="50.426681991666555" lon="12.952669970691204">
        <ele>1194.0899999999999</ele>
        <time>2024-09-19T15:29:46Z</time>
      </trkpt>
      <trkpt lat="50.427812961861491" lon="12.953548980876803">
        <ele>1207.55</ele>
        <time>2024-09-19T15:29:57Z</time>
      </trkpt>
      <trkpt lat="50.428219987079501" lon="12.953874031081796">
        <ele>1213.8</ele>
        <time>2024-09-19T15:30:03Z</time>
      </trkpt>
      <trkpt lat="50.428319983184338" lon="12.953953994438052">
        <ele>1215.24</ele>
        <time>2024-09-19T15:30:05Z</time>
      </trkpt>
      <trkpt lat="50.428579989820719" lon="12.954275021329522">
        <ele>1220.53</ele>
        <time>2024-09-19T15:30:14Z</time>
      </trkpt>
      <trkpt lat="50.428607985377312" lon="12.954324977472425">
        <ele>1221.01</ele>
        <time>2024-09-19T15:30:16Z</time>
      </trkpt>
      <trkpt lat="50.428556017577648" lon="12.954233027994633">
        <ele>1221.01</ele>
        <time>2024-09-19T15:30:17Z</time>
      </trkpt>
      <trkpt lat="50.428556017577648" lon="12.954233027994633">
        <ele>1221.01</ele>
        <time>2024-09-19T15:30:18Z</time>
      </trkpt>
      <trkpt lat="50.428556017577648" lon="12.954233027994633">
        <ele>1221.01</ele>
        <time>2024-09-19T15:30:19Z</time>
      </trkpt>
      <trkpt lat="50.428556017577648" lon="12.954233027994633">
        <ele>1221.01</ele>
        <time>2024-09-19T15:30:20Z</time>
      </trkpt>
      <trkpt lat="50.428556017577648" lon="12.954233027994633">
        <ele>1220.53</ele>
        <time>2024-09-19T15:30:37Z</time>
      </trkpt>
      <trkpt lat="50.428657019510865" lon="12.954432014375925">
        <ele>1175.3499999999999</ele>
        <time>2024-09-19T15:35:54Z</time>
      </trkpt>
      <trkpt lat="50.428729020059109" lon="12.954268986359239">
        <ele>1209.48</ele>
        <time>2024-09-19T15:36:47Z</time>
      </trkpt>
      <trkpt lat="50.428732959553599" lon="12.954299999400973">
        <ele>1214.28</ele>
        <time>2024-09-19T15:37:44Z</time>
      </trkpt>
      <trkpt lat="50.42873396538198" lon="12.954296981915832">
        <ele>1214.28</ele>
        <time>2024-09-19T15:38:36Z</time>
      </trkpt>
      <trkpt lat="50.428732959553599" lon="12.954292958602309">
        <ele>1213.8</ele>
        <time>2024-09-19T15:39:28Z</time>
      </trkpt>
      <trkpt lat="50.42873203754425" lon="12.954288013279438">
        <ele>1212.8399999999999</ele>
        <time>2024-09-19T15:40:18Z</time>
      </trkpt>
      <trkpt lat="50.428732959553599" lon="12.954287007451057">
        <ele>1212.8399999999999</ele>
        <time>2024-09-19T15:41:04Z</time>
      </trkpt>
      <trkpt lat="50.428641010075808" lon="12.954382980242372">
        <ele>1213.8</ele>
        <time>2024-09-19T15:41:46Z</time>
      </trkpt>
      <trkpt lat="50.428556017577648" lon="12.954082991927862">
        <ele>1213.8</ele>
        <time>2024-09-19T15:41:50Z</time>
      </trkpt>
      <trkpt lat="50.428546965122223" lon="12.954074023291469">
        <ele>1213.8</ele>
        <time>2024-09-19T15:41:51Z</time>
      </trkpt>
      <trkpt lat="50.428470019251108" lon="12.953996993601322">
        <ele>1213.3199999999999</ele>
        <time>2024-09-19T15:41:52Z</time>
      </trkpt>
      <trkpt lat="50.428315959870815" lon="12.95395097695291">
        <ele>1210.4400000000001</ele>
        <time>2024-09-19T15:42:04Z</time>
      </trkpt>
      <trkpt lat="50.428256029263139" lon="12.953903032466769">
        <ele>1209.96</ele>
        <time>2024-09-19T15:42:06Z</time>
      </trkpt>
      <trkpt lat="50.428203977644444" lon="12.95386103913188">
        <ele>1209.48</ele>
        <time>2024-09-19T15:42:07Z</time>
      </trkpt>
      <trkpt lat="50.428128037601709" lon="12.953800018876791">
        <ele>1209.48</ele>
        <time>2024-09-19T15:42:08Z</time>
      </trkpt>
      <trkpt lat="50.427420018240809" lon="12.953233988955617">
        <ele>1204.1900000000001</ele>
        <time>2024-09-19T15:42:14Z</time>
      </trkpt>
      <trkpt lat="50.426314026117325" lon="12.952395966276526">
        <ele>1196.02</ele>
        <time>2024-09-19T15:42:20Z</time>
      </trkpt>
      <trkpt lat="50.42480100877583" lon="12.951272036880255">
        <ele>1184.48</ele>
        <time>2024-09-19T15:42:28Z</time>
      </trkpt>
      <trkpt lat="50.424673017114401" lon="12.951098028570414">
        <ele>1184</ele>
        <time>2024-09-19T15:42:29Z</time>
      </trkpt>
      <trkpt lat="50.424592969939113" lon="12.950893007218838">
        <ele>1183.52</ele>
        <time>2024-09-19T15:42:30Z</time>
      </trkpt>
      <trkpt lat="50.424507977440953" lon="12.950671976432204">
        <ele>1183.04</ele>
        <time>2024-09-19T15:42:31Z</time>
      </trkpt>
      <trkpt lat="50.424418039619923" lon="12.950437031686306">
        <ele>1182.5599999999999</ele>
        <time>2024-09-19T15:42:32Z</time>
      </trkpt>
      <trkpt lat="50.423570964485407" lon="12.948624026030302">
        <ele>1180.6400000000001</ele>
        <time>2024-09-19T15:42:39Z</time>
      </trkpt>
      <trkpt lat="50.422537978738546" lon="12.946950998157263">
        <ele>1171.98</ele>
        <time>2024-09-19T15:42:46Z</time>
      </trkpt>
      <trkpt lat="50.421435004100204" lon="12.945408979430795">
        <ele>1161.8900000000001</ele>
        <time>2024-09-19T15:42:53Z</time>
      </trkpt>
      <trkpt lat="50.421272981911898" lon="12.94518300332129">
        <ele>1160.9300000000001</ele>
        <time>2024-09-19T15:42:54Z</time>
      </trkpt>
      <trkpt lat="50.420401012524962" lon="12.943149972707033">
        <ele>1152.76</ele>
        <time>2024-09-19T15:43:01Z</time>
      </trkpt>
      <trkpt lat="50.419308012351394" lon="12.940554013475776">
        <ele>1140.26</ele>
        <time>2024-09-19T15:43:10Z</time>
      </trkpt>
      <trkpt lat="50.418501002714038" lon="12.938083028420806">
        <ele>1123.9200000000001</ele>
        <time>2024-09-19T15:43:19Z</time>
      </trkpt>
      <trkpt lat="50.418261028826237" lon="12.937378026545048">
        <ele>1119.5899999999999</ele>
        <time>2024-09-19T15:43:22Z</time>
      </trkpt>
      <trkpt lat="50.418191961944103" lon="12.937174011021852">
        <ele>1118.1500000000001</ele>
        <time>2024-09-19T15:43:23Z</time>
      </trkpt>
      <trkpt lat="50.418099006637931" lon="12.937068985775113">
        <ele>1117.6700000000001</ele>
        <time>2024-09-19T15:43:24Z</time>
      </trkpt>
      <trkpt lat="50.417971014976501" lon="12.936986004933715">
        <ele>1117.1900000000001</ele>
        <time>2024-09-19T15:43:25Z</time>
      </trkpt>
      <trkpt lat="50.417833970859647" lon="12.93695499189198">
        <ele>1116.71</ele>
        <time>2024-09-19T15:43:26Z</time>
      </trkpt>
      <trkpt lat="50.417675971984863" lon="12.936918027698994">
        <ele>1116.71</ele>
        <time>2024-09-19T15:43:27Z</time>
      </trkpt>
      <trkpt lat="50.416281977668405" lon="12.936597000807524">
        <ele>1118.6300000000001</ele>
        <time>2024-09-19T15:43:34Z</time>
      </trkpt>
      <trkpt lat="50.414494033902884" lon="12.936010016128421">
        <ele>1108.0599999999999</ele>
        <time>2024-09-19T15:43:43Z</time>
      </trkpt>
      <trkpt lat="50.413508992642164" lon="12.935611037537456">
        <ele>1097</ele>
        <time>2024-09-19T15:43:50Z</time>
      </trkpt>
      <trkpt lat="50.413417965173721" lon="12.935573989525437">
        <ele>1095.5599999999999</ele>
        <time>2024-09-19T15:43:51Z</time>
      </trkpt>
      <trkpt lat="50.413342025130987" lon="12.935542976483703">
        <ele>1094.5999999999999</ele>
        <time>2024-09-19T15:43:52Z</time>
      </trkpt>
      <trkpt lat="50.413303971290588" lon="12.93542998842895">
        <ele>1093.1600000000001</ele>
        <time>2024-09-19T15:43:53Z</time>
      </trkpt>
      <trkpt lat="50.413274969905615" lon="12.935339966788888">
        <ele>1092.2</ele>
        <time>2024-09-19T15:43:54Z</time>
      </trkpt>
      <trkpt lat="50.413244962692261" lon="12.935251034796238">
        <ele>1091.23</ele>
        <time>2024-09-19T15:43:55Z</time>
      </trkpt>
      <trkpt lat="50.413216967135668" lon="12.935168975964189">
        <ele>1090.27</ele>
        <time>2024-09-19T15:43:56Z</time>
      </trkpt>
      <trkpt lat="50.413192994892597" lon="12.935095969587564">
        <ele>1088.8299999999999</ele>
        <time>2024-09-19T15:43:57Z</time>
      </trkpt>
      <trkpt lat="50.413172040134668" lon="12.935033021494746">
        <ele>1087.8699999999999</ele>
        <time>2024-09-19T15:43:58Z</time>
      </trkpt>
      <trkpt lat="50.413156030699611" lon="12.934983987361193">
        <ele>1086.9100000000001</ele>
        <time>2024-09-19T15:43:59Z</time>
      </trkpt>
      <trkpt lat="50.413141027092934" lon="12.934940988197923">
        <ele>1085.95</ele>
        <time>2024-09-19T15:44:00Z</time>
      </trkpt>
      <trkpt lat="50.413192994892597" lon="12.934815008193254">
        <ele>1083.54</ele>
        <time>2024-09-19T15:44:04Z</time>
      </trkpt>
      <trkpt lat="50.41321998462081" lon="12.934780977666378">
        <ele>1082.5799999999999</ele>
        <time>2024-09-19T15:44:05Z</time>
      </trkpt>
      <trkpt lat="50.413267007097602" lon="12.934720041230321">
        <ele>1081.6199999999999</ele>
        <time>2024-09-19T15:44:06Z</time>
      </trkpt>
      <trkpt lat="50.41332601569593" lon="12.934640999883413">
        <ele>1080.6600000000001</ele>
        <time>2024-09-19T15:44:07Z</time>
      </trkpt>
      <trkpt lat="50.41339198127389" lon="12.93454997241497">
        <ele>1080.1800000000001</ele>
        <time>2024-09-19T15:44:08Z</time>
      </trkpt>
      <trkpt lat="50.413982989266515" lon="12.933742040768266">
        <ele>1078.74</ele>
        <time>2024-09-19T15:44:14Z</time>
      </trkpt>
      <trkpt lat="50.414765020832419" lon="12.932687010616064">
        <ele>1079.22</ele>
        <time>2024-09-19T15:44:20Z</time>
      </trkpt>
      <trkpt lat="50.414903992787004" lon="12.932502022013068">
        <ele>1080.1800000000001</ele>
        <time>2024-09-19T15:44:21Z</time>
      </trkpt>
      <trkpt lat="50.416281977668405" lon="12.930688010528684">
        <ele>1085.47</ele>
        <time>2024-09-19T15:44:30Z</time>
      </trkpt>
      <trkpt lat="50.416788998991251" lon="12.930138995870948">
        <ele>1085.47</ele>
        <time>2024-09-19T15:44:33Z</time>
      </trkpt>
      <trkpt lat="50.416992008686066" lon="12.930046962574124">
        <ele>1085.47</ele>
        <time>2024-09-19T15:44:34Z</time>
      </trkpt>
      <trkpt lat="50.4171940125525" lon="12.929968005046248">
        <ele>1084.99</ele>
        <time>2024-09-19T15:44:35Z</time>
      </trkpt>
      <trkpt lat="50.417398028075695" lon="12.929888041689992">
        <ele>1084.99</ele>
        <time>2024-09-19T15:44:36Z</time>
      </trkpt>
      <trkpt lat="50.417611012235284" lon="12.929805982857943">
        <ele>1084.5</ele>
        <time>2024-09-19T15:44:37Z</time>
      </trkpt>
      <trkpt lat="50.419663991779089" lon="12.929146997630596">
        <ele>1080.1800000000001</ele>
        <time>2024-09-19T15:44:46Z</time>
      </trkpt>
      <trkpt lat="50.419868007302284" lon="12.9291139729321">
        <ele>1079.22</ele>
        <time>2024-09-19T15:44:47Z</time>
      </trkpt>
      <trkpt lat="50.4200519900769" lon="12.929135011509061">
        <ele>1078.26</ele>
        <time>2024-09-19T15:44:48Z</time>
      </trkpt>
      <trkpt lat="50.420205965638161" lon="12.929186979308724">
        <ele>1076.8099999999999</ele>
        <time>2024-09-19T15:44:49Z</time>
      </trkpt>
      <trkpt lat="50.420354995876551" lon="12.929329974576831">
        <ele>1075.8499999999999</ele>
        <time>2024-09-19T15:44:50Z</time>
      </trkpt>
      <trkpt lat="50.420521041378379" lon="12.929487973451614">
        <ele>1074.8900000000001</ele>
        <time>2024-09-19T15:44:51Z</time>
      </trkpt>
      <trkpt lat="50.421554027125239" lon="12.930475026369095">
        <ele>1069.1199999999999</ele>
        <time>2024-09-19T15:44:57Z</time>
      </trkpt>
      <trkpt lat="50.421702973544598" lon="12.930656997486949">
        <ele>1068.1600000000001</ele>
        <time>2024-09-19T15:44:58Z</time>
      </trkpt>
      <trkpt lat="50.421840017661452" lon="12.930841986089945">
        <ele>1067.2</ele>
        <time>2024-09-19T15:44:59Z</time>
      </trkpt>
      <trkpt lat="50.422396995127201" lon="12.931530978530645">
        <ele>1060.95</ele>
        <time>2024-09-19T15:45:04Z</time>
      </trkpt>
      <trkpt lat="50.422506965696812" lon="12.931530978530645">
        <ele>1059.03</ele>
        <time>2024-09-19T15:45:05Z</time>
      </trkpt>
      <trkpt lat="50.422591958194971" lon="12.931486973538995">
        <ele>1058.0699999999999</ele>
        <time>2024-09-19T15:45:06Z</time>
      </trkpt>
      <trkpt lat="50.422689020633698" lon="12.931402986869216">
        <ele>1056.6300000000001</ele>
        <time>2024-09-19T15:45:07Z</time>
      </trkpt>
      <trkpt lat="50.422801002860069" lon="12.931263009086251">
        <ele>1055.6700000000001</ele>
        <time>2024-09-19T15:45:08Z</time>
      </trkpt>
      <trkpt lat="50.423265025019646" lon="12.930613998323679">
        <ele>1050.3800000000001</ele>
        <time>2024-09-19T15:45:12Z</time>
      </trkpt>
      <trkpt lat="50.423364015296102" lon="12.930391961708665">
        <ele>1049.4200000000001</ele>
        <time>2024-09-19T15:45:13Z</time>
      </trkpt>
      <trkpt lat="50.423463005572557" lon="12.930144025012851">
        <ele>1048.45</ele>
        <time>2024-09-19T15:45:14Z</time>
      </trkpt>
      <trkpt lat="50.424090977758169" lon="12.927852999418974">
        <ele>1041.25</ele>
        <time>2024-09-19T15:45:21Z</time>
      </trkpt>
      <trkpt lat="50.425169980153441" lon="12.923996988683939">
        <ele>1043.1700000000001</ele>
        <time>2024-09-19T15:45:32Z</time>
      </trkpt>
      <trkpt lat="50.426155021414161" lon="12.92047600261867">
        <ele>1044.6099999999999</ele>
        <time>2024-09-19T15:45:41Z</time>
      </trkpt>
      <trkpt lat="50.426900004968047" lon="12.91781097650528">
        <ele>1047.97</ele>
        <time>2024-09-19T15:45:48Z</time>
      </trkpt>
      <trkpt lat="50.427639959380031" lon="12.915161037817597">
        <ele>1048.9400000000001</ele>
        <time>2024-09-19T15:45:55Z</time>
      </trkpt>
      <trkpt lat="50.428378991782665" lon="12.912518978118896">
        <ele>1039.8</ele>
        <time>2024-09-19T15:46:03Z</time>
      </trkpt>
      <trkpt lat="50.429050968959928" lon="12.910115970298648">
        <ele>1023.9400000000001</ele>
        <time>2024-09-19T15:46:11Z</time>
      </trkpt>
      <trkpt lat="50.429880023002625" lon="12.907151961699128">
        <ele>999.42999999999995</ele>
        <time>2024-09-19T15:46:19Z</time>
      </trkpt>
      <trkpt lat="50.430548982694745" lon="12.904803017154336">
        <ele>977.32000000000005</ele>
        <time>2024-09-19T15:46:26Z</time>
      </trkpt>
      <trkpt lat="50.430748974904418" lon="12.904247967526317">
        <ele>970.11000000000001</ele>
        <time>2024-09-19T15:46:29Z</time>
      </trkpt>
      <trkpt lat="50.430809995159507" lon="12.904126010835171">
        <ele>968.17999999999995</ele>
        <time>2024-09-19T15:46:30Z</time>
      </trkpt>
      <trkpt lat="50.430871015414596" lon="12.904065996408463">
        <ele>965.77999999999997</ele>
        <time>2024-09-19T15:46:31Z</time>
      </trkpt>
      <trkpt lat="50.430961037054658" lon="12.904022997245193">
        <ele>963.86000000000001</ele>
        <time>2024-09-19T15:46:32Z</time>
      </trkpt>
      <trkpt lat="50.43107301928103" lon="12.904078988358378">
        <ele>961.94000000000005</ele>
        <time>2024-09-19T15:46:33Z</time>
      </trkpt>
      <trkpt lat="50.431191958487034" lon="12.904186025261879">
        <ele>960.00999999999999</ele>
        <time>2024-09-19T15:46:34Z</time>
      </trkpt>
      <trkpt lat="50.431303018704057" lon="12.904328014701605">
        <ele>958.09000000000003</ele>
        <time>2024-09-19T15:46:35Z</time>
      </trkpt>
      <trkpt lat="50.431407038122416" lon="12.904461035504937">
        <ele>956.64999999999998</ele>
        <time>2024-09-19T15:46:36Z</time>
      </trkpt>
      <trkpt lat="50.431493036448956" lon="12.904570000246167">
        <ele>954.73000000000002</ele>
        <time>2024-09-19T15:46:37Z</time>
      </trkpt>
      <trkpt lat="50.431570988148451" lon="12.904615011066198">
        <ele>953.27999999999997</ele>
        <time>2024-09-19T15:46:38Z</time>
      </trkpt>
      <trkpt lat="50.431638965383172" lon="12.904601013287902">
        <ele>952.32000000000005</ele>
        <time>2024-09-19T15:46:39Z</time>
      </trkpt>
      <trkpt lat="50.431717000901699" lon="12.904509985819459">
        <ele>951.36000000000001</ele>
        <time>2024-09-19T15:46:40Z</time>
      </trkpt>
      <trkpt lat="50.43174197897315" lon="12.904332960024476">
        <ele>949.91999999999996</ele>
        <time>2024-09-19T15:46:41Z</time>
      </trkpt>
      <trkpt lat="50.431772992014885" lon="12.904117964208126">
        <ele>948.96000000000004</ele>
        <time>2024-09-19T15:46:42Z</time>
      </trkpt>
      <trkpt lat="50.431795958429575" lon="12.903864998370409">
        <ele>948</ele>
        <time>2024-09-19T15:46:43Z</time>
      </trkpt>
      <trkpt lat="50.431777015328407" lon="12.903584958985448">
        <ele>947.03999999999996</ele>
        <time>2024-09-19T15:46:44Z</time>
      </trkpt>
      <trkpt lat="50.431726975366473" lon="12.903334004804492">
        <ele>945.59000000000003</ele>
        <time>2024-09-19T15:46:45Z</time>
      </trkpt>
      <trkpt lat="50.431681964546442" lon="12.903109034523368">
        <ele>944.14999999999998</ele>
        <time>2024-09-19T15:46:46Z</time>
      </trkpt>
      <trkpt lat="50.431690011173487" lon="12.902937037870288">
        <ele>943.19000000000005</ele>
        <time>2024-09-19T15:46:47Z</time>
      </trkpt>
      <trkpt lat="50.431730998679996" lon="12.902755988761783">
        <ele>941.75</ele>
        <time>2024-09-19T15:46:48Z</time>
      </trkpt>
      <trkpt lat="50.431823031976819" lon="12.902618022635579">
        <ele>940.30999999999995</ele>
        <time>2024-09-19T15:46:49Z</time>
      </trkpt>
      <trkpt lat="50.431936020031571" lon="12.902448959648609">
        <ele>939.35000000000002</ele>
        <time>2024-09-19T15:46:50Z</time>
      </trkpt>
      <trkpt lat="50.432057976722717" lon="12.902265982702374">
        <ele>938.38</ele>
        <time>2024-09-19T15:46:51Z</time>
      </trkpt>
      <trkpt lat="50.432186974212527" lon="12.902058027684689">
        <ele>937.41999999999996</ele>
        <time>2024-09-19T15:46:52Z</time>
      </trkpt>
      <trkpt lat="50.43230096809566" lon="12.901831967756152">
        <ele>936.94000000000005</ele>
        <time>2024-09-19T15:46:53Z</time>
      </trkpt>
      <trkpt lat="50.432520993053913" lon="12.901304997503757">
        <ele>935.98000000000002</ele>
        <time>2024-09-19T15:46:55Z</time>
      </trkpt>
      <trkpt lat="50.432609003037214" lon="12.900984976440668">
        <ele>935.5</ele>
        <time>2024-09-19T15:46:56Z</time>
      </trkpt>
      <trkpt lat="50.432674968615174" lon="12.900656992569566">
        <ele>935.5</ele>
        <time>2024-09-19T15:46:57Z</time>
      </trkpt>
      <trkpt lat="50.433240998536348" lon="12.897913008928299">
        <ele>931.64999999999998</ele>
        <time>2024-09-19T15:47:05Z</time>
      </trkpt>
      <trkpt lat="50.433323979377747" lon="12.897640010342002">
        <ele>930.69000000000005</ele>
        <time>2024-09-19T15:47:06Z</time>
      </trkpt>
      <trkpt lat="50.433421963825822" lon="12.897403975948691">
        <ele>929.73000000000002</ele>
        <time>2024-09-19T15:47:07Z</time>
      </trkpt>
      <trkpt lat="50.433518020436168" lon="12.89718696847558">
        <ele>928.76999999999998</ele>
        <time>2024-09-19T15:47:08Z</time>
      </trkpt>
      <trkpt lat="50.433840975165367" lon="12.896474003791809">
        <ele>927.33000000000004</ele>
        <time>2024-09-19T15:47:12Z</time>
      </trkpt>
      <trkpt lat="50.43390903621912" lon="12.896324973553419">
        <ele>926.85000000000002</ele>
        <time>2024-09-19T15:47:13Z</time>
      </trkpt>
      <trkpt lat="50.434665000066161" lon="12.894670972600579">
        <ele>926.37</ele>
        <time>2024-09-19T15:47:24Z</time>
      </trkpt>
      <trkpt lat="50.435508973896503" lon="12.892896020784974">
        <ele>920.12</ele>
        <time>2024-09-19T15:47:36Z</time>
      </trkpt>
      <trkpt lat="50.43631799519062" lon="12.891130959615111">
        <ele>908.58000000000004</ele>
        <time>2024-09-19T15:47:48Z</time>
      </trkpt>
      <trkpt lat="50.436956025660038" lon="12.889231033623219">
        <ele>908.10000000000002</ele>
        <time>2024-09-19T15:48:00Z</time>
      </trkpt>
      <trkpt lat="50.4376470297575" lon="12.887091971933842">
        <ele>914.35000000000002</ele>
        <time>2024-09-19T15:48:13Z</time>
      </trkpt>
      <trkpt lat="50.438281958922744" lon="12.885146029293537">
        <ele>913.38999999999999</ele>
        <time>2024-09-19T15:48:25Z</time>
      </trkpt>
      <trkpt lat="50.438757967203856" lon="12.883681962266564">
        <ele>909.05999999999995</ele>
        <time>2024-09-19T15:48:34Z</time>
      </trkpt>
      <trkpt lat="50.438815969973803" lon="12.883502002805471">
        <ele>908.58000000000004</ele>
        <time>2024-09-19T15:48:35Z</time>
      </trkpt>
      <trkpt lat="50.439428016543388" lon="12.881621019914746">
        <ele>898.49000000000001</ele>
        <time>2024-09-19T15:48:44Z</time>
      </trkpt>
      <trkpt lat="50.44009898789227" lon="12.879729978740215">
        <ele>885.50999999999999</ele>
        <time>2024-09-19T15:48:53Z</time>
      </trkpt>
      <trkpt lat="50.440943967550993" lon="12.877894006669521">
        <ele>873.5</ele>
        <time>2024-09-19T15:49:01Z</time>
      </trkpt>
      <trkpt lat="50.441378988325596" lon="12.877307021990418">
        <ele>868.69000000000005</ele>
        <time>2024-09-19T15:49:04Z</time>
      </trkpt>
      <trkpt lat="50.442609032616019" lon="12.87559200078249">
        <ele>854.75</ele>
        <time>2024-09-19T15:49:12Z</time>
      </trkpt>
      <trkpt lat="50.443799011409283" lon="12.872929992154241">
        <ele>836</ele>
        <time>2024-09-19T15:49:22Z</time>
      </trkpt>
      <trkpt lat="50.444891005754471" lon="12.870721025392413">
        <ele>815.34000000000003</ele>
        <time>2024-09-19T15:49:31Z</time>
      </trkpt>
      <trkpt lat="50.445025032386184" lon="12.870560009032488">
        <ele>812.92999999999995</ele>
        <time>2024-09-19T15:49:32Z</time>
      </trkpt>
      <trkpt lat="50.445188982412219" lon="12.870464958250523">
        <ele>810.52999999999997</ele>
        <time>2024-09-19T15:49:33Z</time>
      </trkpt>
      <trkpt lat="50.445379000157118" lon="12.870362028479576">
        <ele>808.13</ele>
        <time>2024-09-19T15:49:34Z</time>
      </trkpt>
      <trkpt lat="50.445582009851933" lon="12.870257003232837">
        <ele>805.72000000000003</ele>
        <time>2024-09-19T15:49:35Z</time>
      </trkpt>
      <trkpt lat="50.446861004456878" lon="12.869788035750389">
        <ele>793.22000000000003</ele>
        <time>2024-09-19T15:49:41Z</time>
      </trkpt>
      <trkpt lat="50.44705999083817" lon="12.869715029373765">
        <ele>790.82000000000005</ele>
        <time>2024-09-19T15:49:42Z</time>
      </trkpt>
      <trkpt lat="50.447240034118295" lon="12.869648979976773">
        <ele>788.89999999999998</ele>
        <time>2024-09-19T15:49:43Z</time>
      </trkpt>
      <trkpt lat="50.447745965793729" lon="12.869560969993472">
        <ele>782.64999999999998</ele>
        <time>2024-09-19T15:49:46Z</time>
      </trkpt>
      <trkpt lat="50.447857026010752" lon="12.869649985805154">
        <ele>780.73000000000002</ele>
        <time>2024-09-19T15:49:47Z</time>
      </trkpt>
      <trkpt lat="50.447979988530278" lon="12.869763979688287">
        <ele>778.32000000000005</ele>
        <time>2024-09-19T15:49:48Z</time>
      </trkpt>
      <trkpt lat="50.448089959099889" lon="12.869869004935026">
        <ele>776.39999999999998</ele>
        <time>2024-09-19T15:49:49Z</time>
      </trkpt>
      <trkpt lat="50.448195990175009" lon="12.869975036010146">
        <ele>774.96000000000004</ele>
        <time>2024-09-19T15:49:50Z</time>
      </trkpt>
      <trkpt lat="50.448487009853125" lon="12.87026597186923">
        <ele>769.66999999999996</ele>
        <time>2024-09-19T15:49:53Z</time>
      </trkpt>
      <trkpt lat="50.448570996522903" lon="12.870349958539009">
        <ele>767.26999999999998</ele>
        <time>2024-09-19T15:49:54Z</time>
      </trkpt>
      <trkpt lat="50.448658000677824" lon="12.870468981564045">
        <ele>764.87</ele>
        <time>2024-09-19T15:49:55Z</time>
      </trkpt>
      <trkpt lat="50.448747016489506" lon="12.870592027902603">
        <ele>762.46000000000004</ele>
        <time>2024-09-19T15:49:56Z</time>
      </trkpt>
      <trkpt lat="50.448854975402355" lon="12.870740974321961">
        <ele>760.05999999999995</ele>
        <time>2024-09-19T15:49:57Z</time>
      </trkpt>
      <trkpt lat="50.448920018970966" lon="12.870862009003758">
        <ele>758.13999999999999</ele>
        <time>2024-09-19T15:49:58Z</time>
      </trkpt>
      <trkpt lat="50.449065025895834" lon="12.871128972619772">
        <ele>753.33000000000004</ele>
        <time>2024-09-19T15:50:00Z</time>
      </trkpt>
      <trkpt lat="50.449134008958936" lon="12.871255958452821">
        <ele>751.40999999999997</ele>
        <time>2024-09-19T15:50:01Z</time>
      </trkpt>
      <trkpt lat="50.449227970093489" lon="12.871286971494555">
        <ele>749.97000000000003</ele>
        <time>2024-09-19T15:50:02Z</time>
      </trkpt>
      <trkpt lat="50.449332995340228" lon="12.871322007849813">
        <ele>748.03999999999996</ele>
        <time>2024-09-19T15:50:03Z</time>
      </trkpt>
      <trkpt lat="50.449446989223361" lon="12.871310021728277">
        <ele>746.12</ele>
        <time>2024-09-19T15:50:04Z</time>
      </trkpt>
      <trkpt lat="50.449553020298481" lon="12.871249001473188">
        <ele>744.67999999999995</ele>
        <time>2024-09-19T15:50:05Z</time>
      </trkpt>
      <trkpt lat="50.449690986424685" lon="12.871169960126281">
        <ele>743.24000000000001</ele>
        <time>2024-09-19T15:50:06Z</time>
      </trkpt>
      <trkpt lat="50.449756029993296" lon="12.871046997606754">
        <ele>741.78999999999996</ele>
        <time>2024-09-19T15:50:07Z</time>
      </trkpt>
      <trkpt lat="50.449828030541539" lon="12.87091095931828">
        <ele>740.35000000000002</ele>
        <time>2024-09-19T15:50:08Z</time>
      </trkpt>
      <trkpt lat="50.450122989714146" lon="12.87035197019577">
        <ele>735.07000000000005</ele>
        <time>2024-09-19T15:50:12Z</time>
      </trkpt>
      <trkpt lat="50.450194990262389" lon="12.870215009897947">
        <ele>734.10000000000002</ele>
        <time>2024-09-19T15:50:13Z</time>
      </trkpt>
      <trkpt lat="50.450270008295774" lon="12.870073020458221">
        <ele>733.13999999999999</ele>
        <time>2024-09-19T15:50:14Z</time>
      </trkpt>
      <trkpt lat="50.45034502632916" lon="12.869949974119663">
        <ele>732.17999999999995</ele>
        <time>2024-09-19T15:50:15Z</time>
      </trkpt>
      <trkpt lat="50.450442004948854" lon="12.869824999943376">
        <ele>732.17999999999995</ele>
        <time>2024-09-19T15:50:16Z</time>
      </trkpt>
      <trkpt lat="50.45053998939693" lon="12.869699019938707">
        <ele>732.17999999999995</ele>
        <time>2024-09-19T15:50:17Z</time>
      </trkpt>
      <trkpt lat="50.450731012970209" lon="12.869461979717016">
        <ele>732.17999999999995</ele>
        <time>2024-09-19T15:50:19Z</time>
      </trkpt>
      <trkpt lat="50.450826985761523" lon="12.869344968348742">
        <ele>732.65999999999997</ele>
        <time>2024-09-19T15:50:20Z</time>
      </trkpt>
      <trkpt lat="50.450921030715108" lon="12.869230974465609">
        <ele>733.13999999999999</ele>
        <time>2024-09-19T15:50:21Z</time>
      </trkpt>
      <trkpt lat="50.451684035360813" lon="12.867870004847646">
        <ele>735.54999999999995</ele>
        <time>2024-09-19T15:50:30Z</time>
      </trkpt>
      <trkpt lat="50.452341008931398" lon="12.866167975589633">
        <ele>733.13999999999999</ele>
        <time>2024-09-19T15:50:37Z</time>
      </trkpt>
      <trkpt lat="50.452420972287655" lon="12.865893971174955">
        <ele>732.65999999999997</ele>
        <time>2024-09-19T15:50:38Z</time>
      </trkpt>
      <trkpt lat="50.452656000852585" lon="12.86502099595964">
        <ele>731.22000000000003</ele>
        <time>2024-09-19T15:50:41Z</time>
      </trkpt>
      <trkpt lat="50.452950960025191" lon="12.862797025591135">
        <ele>726.40999999999997</ele>
        <time>2024-09-19T15:50:48Z</time>
      </trkpt>
      <trkpt lat="50.453347004950047" lon="12.860977984964848">
        <ele>721.61000000000001</ele>
        <time>2024-09-19T15:50:54Z</time>
      </trkpt>
      <trkpt lat="50.453449012711644" lon="12.860697023570538">
        <ele>720.64999999999998</ele>
        <time>2024-09-19T15:50:55Z</time>
      </trkpt>
      <trkpt lat="50.453693009912968" lon="12.860178016126156">
        <ele>719.20000000000005</ele>
        <time>2024-09-19T15:50:57Z</time>
      </trkpt>
      <trkpt lat="50.454494990408421" lon="12.858644966036081">
        <ele>713.91999999999996</ele>
        <time>2024-09-19T15:51:03Z</time>
      </trkpt>
      <trkpt lat="50.454768994823098" lon="12.858182033523917">
        <ele>712.47000000000003</ele>
        <time>2024-09-19T15:51:05Z</time>
      </trkpt>
      <trkpt lat="50.455463016405702" lon="12.857047962024808">
        <ele>708.63</ele>
        <time>2024-09-19T15:51:10Z</time>
      </trkpt>
      <trkpt lat="50.455601988360286" lon="12.856822991743684">
        <ele>708.14999999999998</ele>
        <time>2024-09-19T15:51:11Z</time>
      </trkpt>
      <trkpt lat="50.456600021570921" lon="12.85473003052175">
        <ele>706.71000000000004</ele>
        <time>2024-09-19T15:51:19Z</time>
      </trkpt>
      <trkpt lat="50.456849969923496" lon="12.854194007813931">
        <ele>707.19000000000005</ele>
        <time>2024-09-19T15:51:21Z</time>
      </trkpt>
      <trkpt lat="50.457245009019971" lon="12.853274010121822">
        <ele>707.19000000000005</ele>
        <time>2024-09-19T15:51:25Z</time>
      </trkpt>
      <trkpt lat="50.457281973212957" lon="12.852997994050384">
        <ele>707.19000000000005</ele>
        <time>2024-09-19T15:51:26Z</time>
      </trkpt>
      <trkpt lat="50.457322038710117" lon="12.852694988250732">
        <ele>706.71000000000004</ele>
        <time>2024-09-19T15:51:27Z</time>
      </trkpt>
      <trkpt lat="50.457449024543166" lon="12.851753029972315">
        <ele>705.75</ele>
        <time>2024-09-19T15:51:30Z</time>
      </trkpt>
      <trkpt lat="50.457488000392914" lon="12.851454969495535">
        <ele>705.25999999999999</ele>
        <time>2024-09-19T15:51:31Z</time>
      </trkpt>
      <trkpt lat="50.45752395875752" lon="12.851156992837787">
        <ele>704.77999999999997</ele>
        <time>2024-09-19T15:51:32Z</time>
      </trkpt>
      <trkpt lat="50.457591013982892" lon="12.850596997886896">
        <ele>703.82000000000005</ele>
        <time>2024-09-19T15:51:34Z</time>
      </trkpt>
      <trkpt lat="50.457624960690737" lon="12.850316958501935">
        <ele>702.86000000000001</ele>
        <time>2024-09-19T15:51:35Z</time>
      </trkpt>
      <trkpt lat="50.457850014790893" lon="12.848410997539759">
        <ele>695.64999999999998</ele>
        <time>2024-09-19T15:51:41Z</time>
      </trkpt>
      <trkpt lat="50.458128964528441" lon="12.846205970272422">
        <ele>684.60000000000002</ele>
        <time>2024-09-19T15:51:48Z</time>
      </trkpt>
      <trkpt lat="50.458606984466314" lon="12.843754012137651">
        <ele>669.70000000000005</ele>
        <time>2024-09-19T15:51:56Z</time>
      </trkpt>
      <trkpt lat="50.458816029131413" lon="12.842250969260931">
        <ele>661.03999999999996</ele>
        <time>2024-09-19T15:52:01Z</time>
      </trkpt>
      <trkpt lat="50.458933962509036" lon="12.841402972117066">
        <ele>656.24000000000001</ele>
        <time>2024-09-19T15:52:04Z</time>
      </trkpt>
      <trkpt lat="50.459160022437572" lon="12.840010989457369">
        <ele>649.99000000000001</ele>
        <time>2024-09-19T15:52:11Z</time>
      </trkpt>
      <trkpt lat="50.45924199745059" lon="12.839473960921168">
        <ele>650.47000000000003</ele>
        <time>2024-09-19T15:52:14Z</time>
      </trkpt>
      <trkpt lat="50.459250966086984" lon="12.839288972318172">
        <ele>651.42999999999995</ele>
        <time>2024-09-19T15:52:15Z</time>
      </trkpt>
      <trkpt lat="50.459381975233555" lon="12.836548006162047">
        <ele>656.72000000000003</ele>
        <time>2024-09-19T15:52:30Z</time>
      </trkpt>
      <trkpt lat="50.459377029910684" lon="12.836003014817834">
        <ele>656.72000000000003</ele>
        <time>2024-09-19T15:52:33Z</time>
      </trkpt>
      <trkpt lat="50.459356997162104" lon="12.83545701764524">
        <ele>656.72000000000003</ele>
        <time>2024-09-19T15:52:36Z</time>
      </trkpt>
      <trkpt lat="50.459350040182471" lon="12.835274962708354">
        <ele>656.72000000000003</ele>
        <time>2024-09-19T15:52:37Z</time>
      </trkpt>
      <trkpt lat="50.459076035767794" lon="12.833399008959532">
        <ele>654.79999999999995</ele>
        <time>2024-09-19T15:52:47Z</time>
      </trkpt>
      <trkpt lat="50.458516962826252" lon="12.831393973901868">
        <ele>650.95000000000005</ele>
        <time>2024-09-19T15:52:56Z</time>
      </trkpt>
      <trkpt lat="50.457938024774194" lon="12.829984975978732">
        <ele>648.54999999999995</ele>
        <time>2024-09-19T15:53:03Z</time>
      </trkpt>
      <trkpt lat="50.457475008442998" lon="12.828735988587141">
        <ele>645.17999999999995</ele>
        <time>2024-09-19T15:53:10Z</time>
      </trkpt>
      <trkpt lat="50.457423962652683" lon="12.828550999984145">
        <ele>644.70000000000005</ele>
        <time>2024-09-19T15:53:11Z</time>
      </trkpt>
      <trkpt lat="50.4573730006814" lon="12.82836701720953">
        <ele>643.74000000000001</ele>
        <time>2024-09-19T15:53:12Z</time>
      </trkpt>
      <trkpt lat="50.457270992919803" lon="12.827993016690016">
        <ele>642.29999999999995</ele>
        <time>2024-09-19T15:53:14Z</time>
      </trkpt>
      <trkpt lat="50.457296976819634" lon="12.827756982296705">
        <ele>641.82000000000005</ele>
        <time>2024-09-19T15:53:15Z</time>
      </trkpt>
      <trkpt lat="50.457332013174891" lon="12.827514996752143">
        <ele>641.82000000000005</ele>
        <time>2024-09-19T15:53:16Z</time>
      </trkpt>
      <trkpt lat="50.457391021773219" lon="12.827270999550819">
        <ele>641.34000000000003</ele>
        <time>2024-09-19T15:53:17Z</time>
      </trkpt>
      <trkpt lat="50.457482971251011" lon="12.827030019834638">
        <ele>641.34000000000003</ele>
        <time>2024-09-19T15:53:18Z</time>
      </trkpt>
      <trkpt lat="50.457593025639653" lon="12.826815024018288">
        <ele>640.86000000000001</ele>
        <time>2024-09-19T15:53:19Z</time>
      </trkpt>
      <trkpt lat="50.457710037007928" lon="12.826629029586911">
        <ele>640.86000000000001</ele>
        <time>2024-09-19T15:53:20Z</time>
      </trkpt>
      <trkpt lat="50.45782595872879" lon="12.826446974650025">
        <ele>640.86000000000001</ele>
        <time>2024-09-19T15:53:21Z</time>
      </trkpt>
      <trkpt lat="50.458291992545128" lon="12.825289014726877">
        <ele>641.34000000000003</ele>
        <time>2024-09-19T15:53:25Z</time>
      </trkpt>
      <trkpt lat="50.459200004115701" lon="12.822598004713655">
        <ele>637.97000000000003</ele>
        <time>2024-09-19T15:53:33Z</time>
      </trkpt>
      <trkpt lat="50.460007013753057" lon="12.820303961634636">
        <ele>635.09000000000003</ele>
        <time>2024-09-19T15:53:40Z</time>
      </trkpt>
      <trkpt lat="50.460807988420129" lon="12.81783901154995">
        <ele>630.75999999999999</ele>
        <time>2024-09-19T15:53:49Z</time>
      </trkpt>
      <trkpt lat="50.461339987814426" lon="12.816172018647194">
        <ele>631.24000000000001</ele>
        <time>2024-09-19T15:53:57Z</time>
      </trkpt>
      <trkpt lat="50.461857989430428" lon="12.814565040171146">
        <ele>634.61000000000001</ele>
        <time>2024-09-19T15:54:07Z</time>
      </trkpt>
      <trkpt lat="50.462525021284819" lon="12.812671987339854">
        <ele>639.88999999999999</ele>
        <time>2024-09-19T15:54:19Z</time>
      </trkpt>
      <trkpt lat="50.463248966261744" lon="12.81147999688983">
        <ele>641.82000000000005</ele>
        <time>2024-09-19T15:54:28Z</time>
      </trkpt>
      <trkpt lat="50.46403200365603" lon="12.810370987281203">
        <ele>639.40999999999997</ele>
        <time>2024-09-19T15:54:37Z</time>
      </trkpt>
      <trkpt lat="50.464959964156151" lon="12.809342024847865">
        <ele>634.61000000000001</ele>
        <time>2024-09-19T15:54:47Z</time>
      </trkpt>
      <trkpt lat="50.466018011793494" lon="12.808220023289323">
        <ele>631.72000000000003</ele>
        <time>2024-09-19T15:54:58Z</time>
      </trkpt>
      <trkpt lat="50.466497037559748" lon="12.807701015844941">
        <ele>631.24000000000001</ele>
        <time>2024-09-19T15:55:03Z</time>
      </trkpt>
      <trkpt lat="50.466920994222164" lon="12.807414019480348">
        <ele>631.24000000000001</ele>
        <time>2024-09-19T15:55:07Z</time>
      </trkpt>
      <trkpt lat="50.467477971687913" lon="12.807207992300391">
        <ele>630.75999999999999</ele>
        <time>2024-09-19T15:55:14Z</time>
      </trkpt>
      <trkpt lat="50.467992033809423" lon="12.807015962898731">
        <ele>629.32000000000005</ele>
        <time>2024-09-19T15:55:24Z</time>
      </trkpt>
      <trkpt lat="50.468499977141619" lon="12.806828962638974">
        <ele>629.32000000000005</ele>
        <time>2024-09-19T15:55:32Z</time>
      </trkpt>
      <trkpt lat="50.468573989346623" lon="12.806799961254001">
        <ele>628.84000000000003</ele>
        <time>2024-09-19T15:55:33Z</time>
      </trkpt>
      <trkpt lat="50.468640038743615" lon="12.806773977354169">
        <ele>629.32000000000005</ele>
        <time>2024-09-19T15:55:34Z</time>
      </trkpt>
      <trkpt lat="50.468724025413394" lon="12.806583037599921">
        <ele>629.32000000000005</ele>
        <time>2024-09-19T15:55:35Z</time>
      </trkpt>
      <trkpt lat="50.468733999878168" lon="12.806524029001594">
        <ele>629.32000000000005</ele>
        <time>2024-09-19T15:55:36Z</time>
      </trkpt>
      <trkpt lat="50.468759983778" lon="12.80636896379292">
        <ele>629.32000000000005</ele>
        <time>2024-09-19T15:55:37Z</time>
      </trkpt>
      <trkpt lat="50.468827961012721" lon="12.806220017373562">
        <ele>629.79999999999995</ele>
        <time>2024-09-19T15:55:38Z</time>
      </trkpt>
      <trkpt lat="50.468907002359629" lon="12.806084984913468">
        <ele>629.79999999999995</ele>
        <time>2024-09-19T15:55:39Z</time>
      </trkpt>
      <trkpt lat="50.468990989029408" lon="12.805939977988601">
        <ele>630.75999999999999</ele>
        <time>2024-09-19T15:55:40Z</time>
      </trkpt>
      <trkpt lat="50.469857007265091" lon="12.804439030587673">
        <ele>643.74000000000001</ele>
        <time>2024-09-19T15:55:50Z</time>
      </trkpt>
      <trkpt lat="50.470294961705804" lon="12.803678037598729">
        <ele>652.38999999999999</ele>
        <time>2024-09-19T15:55:55Z</time>
      </trkpt>
      <trkpt lat="50.470376014709473" lon="12.803516015410423">
        <ele>653.83000000000004</ele>
        <time>2024-09-19T15:55:56Z</time>
      </trkpt>
      <trkpt lat="50.47045698389411" lon="12.803351981565356">
        <ele>655.27999999999997</ele>
        <time>2024-09-19T15:55:57Z</time>
      </trkpt>
      <trkpt lat="50.470760995522141" lon="12.802700037136674">
        <ele>659.12</ele>
        <time>2024-09-19T15:56:01Z</time>
      </trkpt>
      <trkpt lat="50.470897033810616" lon="12.80209201388061">
        <ele>662.00999999999999</ele>
        <time>2024-09-19T15:56:04Z</time>
      </trkpt>
      <trkpt lat="50.471233986318111" lon="12.800442036241293">
        <ele>668.25</ele>
        <time>2024-09-19T15:56:10Z</time>
      </trkpt>
      <trkpt lat="50.47187402844429" lon="12.797586992383003">
        <ele>680.26999999999998</ele>
        <time>2024-09-19T15:56:18Z</time>
      </trkpt>
      <trkpt lat="50.472585987299681" lon="12.794856000691652">
        <ele>696.13</ele>
        <time>2024-09-19T15:56:26Z</time>
      </trkpt>
      <trkpt lat="50.472858985885978" lon="12.793785966932774">
        <ele>701.89999999999998</ele>
        <time>2024-09-19T15:56:29Z</time>
      </trkpt>
      <trkpt lat="50.473481006920338" lon="12.790820030495524">
        <ele>715.36000000000001</ele>
        <time>2024-09-19T15:56:37Z</time>
      </trkpt>
      <trkpt lat="50.474153989925981" lon="12.787913018837571">
        <ele>724.49000000000001</ele>
        <time>2024-09-19T15:56:45Z</time>
      </trkpt>
      <trkpt lat="50.475202985107899" lon="12.785336002707481">
        <ele>731.70000000000005</ele>
        <time>2024-09-19T15:56:53Z</time>
      </trkpt>
      <trkpt lat="50.47621401026845" lon="12.783343037590384">
        <ele>741.30999999999995</ele>
        <time>2024-09-19T15:57:00Z</time>
      </trkpt>
      <trkpt lat="50.476348036900163" lon="12.783123012632132">
        <ele>742.27999999999997</ele>
        <time>2024-09-19T15:57:01Z</time>
      </trkpt>
      <trkpt lat="50.47647200524807" lon="12.782893013209105">
        <ele>744.20000000000005</ele>
        <time>2024-09-19T15:57:02Z</time>
      </trkpt>
      <trkpt lat="50.476646013557911" lon="12.782351039350033">
        <ele>747.08000000000004</ele>
        <time>2024-09-19T15:57:04Z</time>
      </trkpt>
      <trkpt lat="50.476952036842704" lon="12.780971964821219">
        <ele>752.85000000000002</ele>
        <time>2024-09-19T15:57:09Z</time>
      </trkpt>
      <trkpt lat="50.476969974115491" lon="12.780702989548445">
        <ele>753.80999999999995</ele>
        <time>2024-09-19T15:57:10Z</time>
      </trkpt>
      <trkpt lat="50.476978020742536" lon="12.780422028154135">
        <ele>754.76999999999998</ele>
        <time>2024-09-19T15:57:11Z</time>
      </trkpt>
      <trkpt lat="50.476984977722168" lon="12.780165961012244">
        <ele>756.21000000000004</ele>
        <time>2024-09-19T15:57:12Z</time>
      </trkpt>
      <trkpt lat="50.476933009922504" lon="12.779950965195894">
        <ele>757.17999999999995</ele>
        <time>2024-09-19T15:57:13Z</time>
      </trkpt>
      <trkpt lat="50.476869978010654" lon="12.779719037935138">
        <ele>758.13999999999999</ele>
        <time>2024-09-19T15:57:14Z</time>
      </trkpt>
      <trkpt lat="50.476794959977269" lon="12.779475040733814">
        <ele>759.58000000000004</ele>
        <time>2024-09-19T15:57:15Z</time>
      </trkpt>
      <trkpt lat="50.476609971374273" lon="12.778954021632671">
        <ele>761.5</ele>
        <time>2024-09-19T15:57:17Z</time>
      </trkpt>
      <trkpt lat="50.476563032716513" lon="12.778641963377595">
        <ele>761.98000000000002</ele>
        <time>2024-09-19T15:57:18Z</time>
      </trkpt>
      <trkpt lat="50.476527996361256" lon="12.778330994769931">
        <ele>762.46000000000004</ele>
        <time>2024-09-19T15:57:19Z</time>
      </trkpt>
      <trkpt lat="50.47621401026845" lon="12.776000993326306">
        <ele>760.53999999999996</ele>
        <time>2024-09-19T15:57:26Z</time>
      </trkpt>
      <trkpt lat="50.475844033062458" lon="12.773856986314058">
        <ele>749</ele>
        <time>2024-09-19T15:57:33Z</time>
      </trkpt>
      <trkpt lat="50.475860964506865" lon="12.77269902639091">
        <ele>738.90999999999997</ele>
        <time>2024-09-19T15:57:40Z</time>
      </trkpt>
      <trkpt lat="50.475888038054109" lon="12.772342963144183">
        <ele>736.02999999999997</ele>
        <time>2024-09-19T15:57:42Z</time>
      </trkpt>
      <trkpt lat="50.475882003083825" lon="12.772159986197948">
        <ele>734.58000000000004</ele>
        <time>2024-09-19T15:57:43Z</time>
      </trkpt>
      <trkpt lat="50.475869011133909" lon="12.77196703478694">
        <ele>732.65999999999997</ele>
        <time>2024-09-19T15:57:44Z</time>
      </trkpt>
      <trkpt lat="50.475794998928905" lon="12.771254992112517">
        <ele>726.40999999999997</ele>
        <time>2024-09-19T15:57:48Z</time>
      </trkpt>
      <trkpt lat="50.475751999765635" lon="12.771123982965946">
        <ele>724.97000000000003</ele>
        <time>2024-09-19T15:57:49Z</time>
      </trkpt>
      <trkpt lat="50.47569902613759" lon="12.77100102044642">
        <ele>723.04999999999995</ele>
        <time>2024-09-19T15:57:50Z</time>
      </trkpt>
      <trkpt lat="50.475624008104205" lon="12.770912004634738">
        <ele>721.61000000000001</ele>
        <time>2024-09-19T15:57:51Z</time>
      </trkpt>
      <trkpt lat="50.475538009777665" lon="12.770846039056778">
        <ele>720.15999999999997</ele>
        <time>2024-09-19T15:57:52Z</time>
      </trkpt>
      <trkpt lat="50.475449999794364" lon="12.770776972174644">
        <ele>718.72000000000003</ele>
        <time>2024-09-19T15:57:53Z</time>
      </trkpt>
      <trkpt lat="50.475288983434439" lon="12.77059500105679">
        <ele>715.84000000000003</ele>
        <time>2024-09-19T15:57:55Z</time>
      </trkpt>
      <trkpt lat="50.475200973451138" lon="12.770492993295193">
        <ele>714.88</ele>
        <time>2024-09-19T15:57:56Z</time>
      </trkpt>
      <trkpt lat="50.475108018144965" lon="12.770394003018737">
        <ele>713.44000000000005</ele>
        <time>2024-09-19T15:57:57Z</time>
      </trkpt>
      <trkpt lat="50.475014979019761" lon="12.770300963893533">
        <ele>712.47000000000003</ele>
        <time>2024-09-19T15:57:58Z</time>
      </trkpt>
      <trkpt lat="50.47492403537035" lon="12.770210020244122">
        <ele>711.02999999999997</ele>
        <time>2024-09-19T15:57:59Z</time>
      </trkpt>
      <trkpt lat="50.474837031215429" lon="12.770123016089201">
        <ele>710.07000000000005</ele>
        <time>2024-09-19T15:58:00Z</time>
      </trkpt>
      <trkpt lat="50.474747009575367" lon="12.77003601193428">
        <ele>709.11000000000001</ele>
        <time>2024-09-19T15:58:01Z</time>
      </trkpt>
      <trkpt lat="50.474662017077208" lon="12.769988989457488">
        <ele>708.63</ele>
        <time>2024-09-19T15:58:02Z</time>
      </trkpt>
      <trkpt lat="50.474561015143991" lon="12.769932998344302">
        <ele>707.66999999999996</ele>
        <time>2024-09-19T15:58:03Z</time>
      </trkpt>
      <trkpt lat="50.474534025415778" lon="12.769852029159665">
        <ele>706.71000000000004</ele>
        <time>2024-09-19T15:58:04Z</time>
      </trkpt>
      <trkpt lat="50.474495971575379" lon="12.769720014184713">
        <ele>705.75</ele>
        <time>2024-09-19T15:58:05Z</time>
      </trkpt>
      <trkpt lat="50.474490020424128" lon="12.769576013088226">
        <ele>704.77999999999997</ele>
        <time>2024-09-19T15:58:06Z</time>
      </trkpt>
      <trkpt lat="50.474483985453844" lon="12.769422959536314">
        <ele>703.82000000000005</ele>
        <time>2024-09-19T15:58:07Z</time>
      </trkpt>
      <trkpt lat="50.474478034302592" lon="12.76926496066153">
        <ele>703.34000000000003</ele>
        <time>2024-09-19T15:58:08Z</time>
      </trkpt>
      <trkpt lat="50.474494965746999" lon="12.769103022292256">
        <ele>701.89999999999998</ele>
        <time>2024-09-19T15:58:09Z</time>
      </trkpt>
      <trkpt lat="50.474527990445495" lon="12.768948040902615">
        <ele>700.94000000000005</ele>
        <time>2024-09-19T15:58:10Z</time>
      </trkpt>
      <trkpt lat="50.474564032629132" lon="12.768786018714309">
        <ele>699.5</ele>
        <time>2024-09-19T15:58:11Z</time>
      </trkpt>
      <trkpt lat="50.474620023742318" lon="12.768636988475919">
        <ele>698.52999999999997</ele>
        <time>2024-09-19T15:58:12Z</time>
      </trkpt>
      <trkpt lat="50.474690012633801" lon="12.768451999872923">
        <ele>697.57000000000005</ele>
        <time>2024-09-19T15:58:13Z</time>
      </trkpt>
      <trkpt lat="50.474756984040141" lon="12.768350997939706">
        <ele>696.13</ele>
        <time>2024-09-19T15:58:14Z</time>
      </trkpt>
      <trkpt lat="50.474909031763673" lon="12.768114041537046">
        <ele>694.69000000000005</ele>
        <time>2024-09-19T15:58:16Z</time>
      </trkpt>
      <trkpt lat="50.474952030926943" lon="12.767956964671612">
        <ele>694.21000000000004</ele>
        <time>2024-09-19T15:58:17Z</time>
      </trkpt>
      <trkpt lat="50.474996035918593" lon="12.767799971625209">
        <ele>693.25</ele>
        <time>2024-09-19T15:58:18Z</time>
      </trkpt>
      <trkpt lat="50.475014979019761" lon="12.767640966922045">
        <ele>692.28999999999996</ele>
        <time>2024-09-19T15:58:19Z</time>
      </trkpt>
      <trkpt lat="50.475021013990045" lon="12.767466958612204">
        <ele>691.33000000000004</ele>
        <time>2024-09-19T15:58:20Z</time>
      </trkpt>
      <trkpt lat="50.475026965141296" lon="12.767289010807872">
        <ele>690.36000000000001</ele>
        <time>2024-09-19T15:58:21Z</time>
      </trkpt>
      <trkpt lat="50.47503400593996" lon="12.76711399666965">
        <ele>689.39999999999998</ele>
        <time>2024-09-19T15:58:22Z</time>
      </trkpt>
      <trkpt lat="50.475045992061496" lon="12.766761034727097">
        <ele>687</ele>
        <time>2024-09-19T15:58:24Z</time>
      </trkpt>
      <trkpt lat="50.475052027031779" lon="12.766578979790211">
        <ele>685.55999999999995</ele>
        <time>2024-09-19T15:58:25Z</time>
      </trkpt>
      <trkpt lat="50.475112041458488" lon="12.765859980136156">
        <ele>679.30999999999995</ele>
        <time>2024-09-19T15:58:29Z</time>
      </trkpt>
      <trkpt lat="50.475127967074513" lon="12.765683960169554">
        <ele>678.35000000000002</ele>
        <time>2024-09-19T15:58:30Z</time>
      </trkpt>
      <trkpt lat="50.47516199760139" lon="12.765297973528504">
        <ele>675.94000000000005</ele>
        <time>2024-09-19T15:58:32Z</time>
      </trkpt>
      <trkpt lat="50.47516199760139" lon="12.765134023502469">
        <ele>674.98000000000002</ele>
        <time>2024-09-19T15:58:33Z</time>
      </trkpt>
      <trkpt lat="50.475122015923262" lon="12.764240009710193">
        <ele>671.13999999999999</ele>
        <time>2024-09-19T15:58:38Z</time>
      </trkpt>
      <trkpt lat="50.475038029253483" lon="12.763526039198041">
        <ele>669.22000000000003</ele>
        <time>2024-09-19T15:58:42Z</time>
      </trkpt>
      <trkpt lat="50.474803000688553" lon="12.762904018163681">
        <ele>665.85000000000002</ele>
        <time>2024-09-19T15:58:46Z</time>
      </trkpt>
      <trkpt lat="50.474731000140309" lon="12.762772003188729">
        <ele>664.40999999999997</ele>
        <time>2024-09-19T15:58:47Z</time>
      </trkpt>
      <trkpt lat="50.474657993763685" lon="12.762649040669203">
        <ele>662.97000000000003</ele>
        <time>2024-09-19T15:58:48Z</time>
      </trkpt>
      <trkpt lat="50.474562020972371" lon="12.762551978230476">
        <ele>662.00999999999999</ele>
        <time>2024-09-19T15:58:49Z</time>
      </trkpt>
      <trkpt lat="50.474466970190406" lon="12.762458017095923">
        <ele>660.55999999999995</ele>
        <time>2024-09-19T15:58:50Z</time>
      </trkpt>
      <trkpt lat="50.473803039640188" lon="12.761710016056895">
        <ele>653.35000000000002</ele>
        <time>2024-09-19T15:58:57Z</time>
      </trkpt>
      <trkpt lat="50.473607992753386" lon="12.761501977220178">
        <ele>650.95000000000005</ele>
        <time>2024-09-19T15:58:59Z</time>
      </trkpt>
      <trkpt lat="50.473506990820169" lon="12.761416984722018">
        <ele>649.50999999999999</ele>
        <time>2024-09-19T15:59:00Z</time>
      </trkpt>
      <trkpt lat="50.47340196557343" lon="12.761327968910336">
        <ele>648.54999999999995</ele>
        <time>2024-09-19T15:59:01Z</time>
      </trkpt>
      <trkpt lat="50.473299035802484" lon="12.761342972517014">
        <ele>647.10000000000002</ele>
        <time>2024-09-19T15:59:02Z</time>
      </trkpt>
      <trkpt lat="50.473189987242222" lon="12.761357976123691">
        <ele>646.13999999999999</ele>
        <time>2024-09-19T15:59:03Z</time>
      </trkpt>
      <trkpt lat="50.473084961995482" lon="12.761383038014174">
        <ele>645.17999999999995</ele>
        <time>2024-09-19T15:59:04Z</time>
      </trkpt>
      <trkpt lat="50.472985971719027" lon="12.761454032734036">
        <ele>644.70000000000005</ele>
        <time>2024-09-19T15:59:05Z</time>
      </trkpt>
      <trkpt lat="50.472880024462938" lon="12.76152896694839">
        <ele>643.74000000000001</ele>
        <time>2024-09-19T15:59:06Z</time>
      </trkpt>
      <trkpt lat="50.471947034820914" lon="12.762183006852865">
        <ele>636.04999999999995</ele>
        <time>2024-09-19T15:59:15Z</time>
      </trkpt>
      <trkpt lat="50.471835974603891" lon="12.762230029329658">
        <ele>635.09000000000003</ele>
        <time>2024-09-19T15:59:16Z</time>
      </trkpt>
      <trkpt lat="50.471726004034281" lon="12.762208990752697">
        <ele>634.13</ele>
        <time>2024-09-19T15:59:17Z</time>
      </trkpt>
      <trkpt lat="50.471652997657657" lon="12.762145958840847">
        <ele>633.16999999999996</ele>
        <time>2024-09-19T15:59:18Z</time>
      </trkpt>
      <trkpt lat="50.471608992666006" lon="12.761981002986431">
        <ele>632.67999999999995</ele>
        <time>2024-09-19T15:59:19Z</time>
      </trkpt>
      <trkpt lat="50.471620978787541" lon="12.761821998283267">
        <ele>631.72000000000003</ele>
        <time>2024-09-19T15:59:20Z</time>
      </trkpt>
      <trkpt lat="50.471655009314418" lon="12.761686965823174">
        <ele>630.75999999999999</ele>
        <time>2024-09-19T15:59:21Z</time>
      </trkpt>
      <trkpt lat="50.471728015691042" lon="12.761556962504983">
        <ele>630.27999999999997</ele>
        <time>2024-09-19T15:59:22Z</time>
      </trkpt>
      <trkpt lat="50.471804961562157" lon="12.761445986106992">
        <ele>629.32000000000005</ele>
        <time>2024-09-19T15:59:23Z</time>
      </trkpt>
      <trkpt lat="50.471882997080684" lon="12.761332998052239">
        <ele>628.84000000000003</ele>
        <time>2024-09-19T15:59:24Z</time>
      </trkpt>
      <trkpt lat="50.472195977345109" lon="12.760879034176469">
        <ele>625.96000000000004</ele>
        <time>2024-09-19T15:59:28Z</time>
      </trkpt>
      <trkpt lat="50.472285998985171" lon="12.760749030858278">
        <ele>625.47000000000003</ele>
        <time>2024-09-19T15:59:29Z</time>
      </trkpt>
      <trkpt lat="50.472893016412854" lon="12.759029986336827">
        <ele>616.34000000000003</ele>
        <time>2024-09-19T15:59:40Z</time>
      </trkpt>
      <trkpt lat="50.473037017509341" lon="12.758538974449039">
        <ele>613.94000000000005</ele>
        <time>2024-09-19T15:59:43Z</time>
      </trkpt>
      <trkpt lat="50.473068030551076" lon="12.758363960310817">
        <ele>612.98000000000002</ele>
        <time>2024-09-19T15:59:44Z</time>
      </trkpt>
      <trkpt lat="50.473098959773779" lon="12.758187018334866">
        <ele>612.01999999999998</ele>
        <time>2024-09-19T15:59:45Z</time>
      </trkpt>
      <trkpt lat="50.473101977258921" lon="12.75800596922636">
        <ele>611.05999999999995</ele>
        <time>2024-09-19T15:59:46Z</time>
      </trkpt>
      <trkpt lat="50.473101977258921" lon="12.757825003936887">
        <ele>610.57000000000005</ele>
        <time>2024-09-19T15:59:47Z</time>
      </trkpt>
      <trkpt lat="50.473101977258921" lon="12.757641021162271">
        <ele>609.61000000000001</ele>
        <time>2024-09-19T15:59:48Z</time>
      </trkpt>
      <trkpt lat="50.472995024174452" lon="12.755666999146342">
        <ele>600.96000000000004</ele>
        <time>2024-09-19T15:59:59Z</time>
      </trkpt>
      <trkpt lat="50.473160985857248" lon="12.753867991268635">
        <ele>599.03999999999996</ele>
        <time>2024-09-19T16:00:09Z</time>
      </trkpt>
      <trkpt lat="50.473327031359076" lon="12.752227988094091">
        <ele>593.75</ele>
        <time>2024-09-19T16:00:18Z</time>
      </trkpt>
      <trkpt lat="50.473480001091957" lon="12.750802980735898">
        <ele>587.5</ele>
        <time>2024-09-19T16:00:26Z</time>
      </trkpt>
      <trkpt lat="50.473499028012156" lon="12.750618997961283">
        <ele>586.53999999999996</ele>
        <time>2024-09-19T16:00:27Z</time>
      </trkpt>
      <trkpt lat="50.473643029108644" lon="12.74992698803544">
        <ele>583.65999999999997</ele>
        <time>2024-09-19T16:00:31Z</time>
      </trkpt>
      <trkpt lat="50.473712012171745" lon="12.749778041616082">
        <ele>583.17999999999995</ele>
        <time>2024-09-19T16:00:32Z</time>
      </trkpt>
      <trkpt lat="50.473789041861892" lon="12.749640997499228">
        <ele>582.22000000000003</ele>
        <time>2024-09-19T16:00:33Z</time>
      </trkpt>
      <trkpt lat="50.473852995783091" lon="12.749527003616095">
        <ele>581.73000000000002</ele>
        <time>2024-09-19T16:00:34Z</time>
      </trkpt>
      <trkpt lat="50.473891971632838" lon="12.749332962557673">
        <ele>580.76999999999998</ele>
        <time>2024-09-19T16:00:35Z</time>
      </trkpt>
      <trkpt lat="50.473924996331334" lon="12.749162977561355">
        <ele>580.28999999999996</ele>
        <time>2024-09-19T16:00:36Z</time>
      </trkpt>
      <trkpt lat="50.473932959139347" lon="12.748993998393416">
        <ele>579.80999999999995</ele>
        <time>2024-09-19T16:00:37Z</time>
      </trkpt>
      <trkpt lat="50.473923990502954" lon="12.74882803671062">
        <ele>579.33000000000004</ele>
        <time>2024-09-19T16:00:38Z</time>
      </trkpt>
      <trkpt lat="50.473887026309967" lon="12.747487016022205">
        <ele>577.40999999999997</ele>
        <time>2024-09-19T16:00:46Z</time>
      </trkpt>
      <trkpt lat="50.473892977461219" lon="12.747333040460944">
        <ele>576.92999999999995</ele>
        <time>2024-09-19T16:00:48Z</time>
      </trkpt>
      <trkpt lat="50.473835980519652" lon="12.747213011607528">
        <ele>576.92999999999995</ele>
        <time>2024-09-19T16:00:49Z</time>
      </trkpt>
      <trkpt lat="50.473774960264564" lon="12.747172024101019">
        <ele>576.92999999999995</ele>
        <time>2024-09-19T16:00:50Z</time>
      </trkpt>
      <trkpt lat="50.473696002736688" lon="12.747112009674311">
        <ele>576.92999999999995</ele>
        <time>2024-09-19T16:00:51Z</time>
      </trkpt>
      <trkpt lat="50.473632970824838" lon="12.747011007741094">
        <ele>576.92999999999995</ele>
        <time>2024-09-19T16:00:52Z</time>
      </trkpt>
      <trkpt lat="50.473561976104975" lon="12.7468950022012">
        <ele>576.92999999999995</ele>
        <time>2024-09-19T16:00:53Z</time>
      </trkpt>
      <trkpt lat="50.473512019962072" lon="12.746742032468319">
        <ele>576.92999999999995</ele>
        <time>2024-09-19T16:00:54Z</time>
      </trkpt>
      <trkpt lat="50.473477989435196" lon="12.746557965874672">
        <ele>577.40999999999997</ele>
        <time>2024-09-19T16:00:55Z</time>
      </trkpt>
      <trkpt lat="50.473424009978771" lon="12.746265018358827">
        <ele>576.92999999999995</ele>
        <time>2024-09-19T16:00:56Z</time>
      </trkpt>
      <trkpt lat="50.473405988886952" lon="12.745860004797578">
        <ele>576.92999999999995</ele>
        <time>2024-09-19T16:00:58Z</time>
      </trkpt>
      <trkpt lat="50.473428033292294" lon="12.745601003989577">
        <ele>576.92999999999995</ele>
        <time>2024-09-19T16:00:59Z</time>
      </trkpt>
      <trkpt lat="50.473482012748718" lon="12.745363963767886">
        <ele>576.92999999999995</ele>
        <time>2024-09-19T16:01:00Z</time>
      </trkpt>
      <trkpt lat="50.473545966669917" lon="12.745139999315143">
        <ele>576.92999999999995</ele>
        <time>2024-09-19T16:01:01Z</time>
      </trkpt>
      <trkpt lat="50.473607992753386" lon="12.744923997670412">
        <ele>576.92999999999995</ele>
        <time>2024-09-19T16:01:02Z</time>
      </trkpt>
      <trkpt lat="50.474445009604096" lon="12.742055961862206">
        <ele>579.33000000000004</ele>
        <time>2024-09-19T16:01:15Z</time>
      </trkpt>
      <trkpt lat="50.475181024521589" lon="12.739967023953795">
        <ele>580.28999999999996</ele>
        <time>2024-09-19T16:01:22Z</time>
      </trkpt>
      <trkpt lat="50.475595006719232" lon="12.738579986616969">
        <ele>581.25</ele>
        <time>2024-09-19T16:01:26Z</time>
      </trkpt>
      <trkpt lat="50.475654015317559" lon="12.738203974440694">
        <ele>581.25</ele>
        <time>2024-09-19T16:01:27Z</time>
      </trkpt>
      <trkpt lat="50.475714029744267" lon="12.737825028598309">
        <ele>581.25</ele>
        <time>2024-09-19T16:01:28Z</time>
      </trkpt>
      <trkpt lat="50.475756023079157" lon="12.737035034224391">
        <ele>581.25</ele>
        <time>2024-09-19T16:01:30Z</time>
      </trkpt>
      <trkpt lat="50.475761974230409" lon="12.735507013276219">
        <ele>581.73000000000002</ele>
        <time>2024-09-19T16:01:34Z</time>
      </trkpt>
      <trkpt lat="50.475805979222059" lon="12.735151033848524">
        <ele>581.73000000000002</ele>
        <time>2024-09-19T16:01:35Z</time>
      </trkpt>
      <trkpt lat="50.475885020568967" lon="12.734808968380094">
        <ele>581.73000000000002</ele>
        <time>2024-09-19T16:01:36Z</time>
      </trkpt>
      <trkpt lat="50.475965989753604" lon="12.734452988952398">
        <ele>581.73000000000002</ele>
        <time>2024-09-19T16:01:37Z</time>
      </trkpt>
      <trkpt lat="50.476056011393666" lon="12.734102038666606">
        <ele>581.73000000000002</ele>
        <time>2024-09-19T16:01:38Z</time>
      </trkpt>
      <trkpt lat="50.476529002189636" lon="12.732362039387226">
        <ele>582.22000000000003</ele>
        <time>2024-09-19T16:01:44Z</time>
      </trkpt>
      <trkpt lat="50.476917000487447" lon="12.730367984622717">
        <ele>581.73000000000002</ele>
        <time>2024-09-19T16:01:52Z</time>
      </trkpt>
      <trkpt lat="50.47694499604404" lon="12.728770980611444">
        <ele>584.62</ele>
        <time>2024-09-19T16:01:58Z</time>
      </trkpt>
      <trkpt lat="50.476911971345544" lon="12.728513991460204">
        <ele>585.58000000000004</ele>
        <time>2024-09-19T16:01:59Z</time>
      </trkpt>
      <trkpt lat="50.47683603130281" lon="12.728288015350699">
        <ele>586.53999999999996</ele>
        <time>2024-09-19T16:02:00Z</time>
      </trkpt>
      <trkpt lat="50.476740980520844" lon="12.728072013705969">
        <ele>587.5</ele>
        <time>2024-09-19T16:02:01Z</time>
      </trkpt>
      <trkpt lat="50.47664500772953" lon="12.727851988747716">
        <ele>588.46000000000004</ele>
        <time>2024-09-19T16:02:02Z</time>
      </trkpt>
      <trkpt lat="50.475457962602377" lon="12.725429031997919">
        <ele>595.19000000000005</ele>
        <time>2024-09-19T16:02:13Z</time>
      </trkpt>
      <trkpt lat="50.474881958216429" lon="12.72429596632719">
        <ele>597.60000000000002</ele>
        <time>2024-09-19T16:02:18Z</time>
      </trkpt>
      <trkpt lat="50.474764024838805" lon="12.724069990217686">
        <ele>598.08000000000004</ele>
        <time>2024-09-19T16:02:19Z</time>
      </trkpt>
      <trkpt lat="50.474158013239503" lon="12.722648000344634">
        <ele>600</ele>
        <time>2024-09-19T16:02:25Z</time>
      </trkpt>
      <trkpt lat="50.474097998812795" lon="12.722371984273195">
        <ele>600</ele>
        <time>2024-09-19T16:02:26Z</time>
      </trkpt>
      <trkpt lat="50.473912004381418" lon="12.721147974953055">
        <ele>600.96000000000004</ele>
        <time>2024-09-19T16:02:30Z</time>
      </trkpt>
      <trkpt lat="50.473822988569736" lon="12.720838012173772">
        <ele>600.96000000000004</ele>
        <time>2024-09-19T16:02:31Z</time>
      </trkpt>
      <trkpt lat="50.473255030810833" lon="12.719402024522424">
        <ele>602.39999999999998</ele>
        <time>2024-09-19T16:02:37Z</time>
      </trkpt>
      <trkpt lat="50.473111029714346" lon="12.719055013731122">
        <ele>602.39999999999998</ele>
        <time>2024-09-19T16:02:39Z</time>
      </trkpt>
      <trkpt lat="50.472833001986146" lon="12.718582022935152">
        <ele>602.88</ele>
        <time>2024-09-19T16:02:43Z</time>
      </trkpt>
      <trkpt lat="50.472570983693004" lon="12.718280022963881">
        <ele>603.36000000000001</ele>
        <time>2024-09-19T16:02:46Z</time>
      </trkpt>
      <trkpt lat="50.472459001466632" lon="12.718245992437005">
        <ele>603.36000000000001</ele>
        <time>2024-09-19T16:02:47Z</time>
      </trkpt>
      <trkpt lat="50.472357999533415" lon="12.718220008537173">
        <ele>603.36000000000001</ele>
        <time>2024-09-19T16:02:48Z</time>
      </trkpt>
      <trkpt lat="50.472245011478662" lon="12.718220008537173">
        <ele>603.85000000000002</ele>
        <time>2024-09-19T16:02:49Z</time>
      </trkpt>
      <trkpt lat="50.472145015373826" lon="12.71823501214385">
        <ele>604.33000000000004</ele>
        <time>2024-09-19T16:02:50Z</time>
      </trkpt>
      <trkpt lat="50.472034038975835" lon="12.718283040449023">
        <ele>604.33000000000004</ele>
        <time>2024-09-19T16:02:51Z</time>
      </trkpt>
      <trkpt lat="50.471923984587193" lon="12.718330984935164">
        <ele>604.80999999999995</ele>
        <time>2024-09-19T16:02:52Z</time>
      </trkpt>
      <trkpt lat="50.471823988482356" lon="12.718381024897099">
        <ele>604.80999999999995</ele>
        <time>2024-09-19T16:02:53Z</time>
      </trkpt>
      <trkpt lat="50.471738995984197" lon="12.718466017395258">
        <ele>604.80999999999995</ele>
        <time>2024-09-19T16:02:54Z</time>
      </trkpt>
      <trkpt lat="50.471648974344134" lon="12.71855603903532">
        <ele>604.80999999999995</ele>
        <time>2024-09-19T16:02:55Z</time>
      </trkpt>
      <trkpt lat="50.471558030694723" lon="12.718658968806267">
        <ele>604.80999999999995</ele>
        <time>2024-09-19T16:02:56Z</time>
      </trkpt>
      <trkpt lat="50.471476977691054" lon="12.718789977952838">
        <ele>604.80999999999995</ele>
        <time>2024-09-19T16:02:57Z</time>
      </trkpt>
      <trkpt lat="50.471392991021276" lon="12.718925010412931">
        <ele>604.80999999999995</ele>
        <time>2024-09-19T16:02:58Z</time>
      </trkpt>
      <trkpt lat="50.470957970246673" lon="12.719639986753464">
        <ele>604.80999999999995</ele>
        <time>2024-09-19T16:03:03Z</time>
      </trkpt>
      <trkpt lat="50.470863003283739" lon="12.71980301477015">
        <ele>605.28999999999996</ele>
        <time>2024-09-19T16:03:04Z</time>
      </trkpt>
      <trkpt lat="50.469998996704817" lon="12.721235984936357">
        <ele>608.16999999999996</ele>
        <time>2024-09-19T16:03:12Z</time>
      </trkpt>
      <trkpt lat="50.469780983403325" lon="12.721572015434504">
        <ele>608.16999999999996</ele>
        <time>2024-09-19T16:03:14Z</time>
      </trkpt>
      <trkpt lat="50.469647040590644" lon="12.721738982945681">
        <ele>608.64999999999998</ele>
        <time>2024-09-19T16:03:15Z</time>
      </trkpt>
      <trkpt lat="50.469476971775293" lon="12.721879966557026">
        <ele>608.64999999999998</ele>
        <time>2024-09-19T16:03:16Z</time>
      </trkpt>
      <trkpt lat="50.469260970130563" lon="12.722061015665531">
        <ele>609.13</ele>
        <time>2024-09-19T16:03:17Z</time>
      </trkpt>
      <trkpt lat="50.46908101066947" lon="12.722160005941987">
        <ele>609.13</ele>
        <time>2024-09-19T16:03:18Z</time>
      </trkpt>
      <trkpt lat="50.468859979882836" lon="12.722281040623784">
        <ele>609.61000000000001</ele>
        <time>2024-09-19T16:03:19Z</time>
      </trkpt>
      <trkpt lat="50.468617994338274" lon="12.722334014251828">
        <ele>609.61000000000001</ele>
        <time>2024-09-19T16:03:20Z</time>
      </trkpt>
      <trkpt lat="50.468367040157318" lon="12.722344994544983">
        <ele>609.61000000000001</ele>
        <time>2024-09-19T16:03:21Z</time>
      </trkpt>
      <trkpt lat="50.468107033520937" lon="12.722300989553332">
        <ele>609.61000000000001</ele>
        <time>2024-09-19T16:03:22Z</time>
      </trkpt>
      <trkpt lat="50.467831017449498" lon="12.722254972904921">
        <ele>610.09000000000003</ele>
        <time>2024-09-19T16:03:23Z</time>
      </trkpt>
      <trkpt lat="50.465909969061613" lon="12.721901005133986">
        <ele>612.01999999999998</ele>
        <time>2024-09-19T16:03:30Z</time>
      </trkpt>
      <trkpt lat="50.464301984757185" lon="12.721400018781424">
        <ele>613.94000000000005</ele>
        <time>2024-09-19T16:03:36Z</time>
      </trkpt>
      <trkpt lat="50.464073996990919" lon="12.721251994371414">
        <ele>614.41999999999996</ele>
        <time>2024-09-19T16:03:37Z</time>
      </trkpt>
      <trkpt lat="50.462986025959253" lon="12.720333002507687">
        <ele>615.38</ele>
        <time>2024-09-19T16:03:42Z</time>
      </trkpt>
      <trkpt lat="50.462744040414691" lon="12.720266031101346">
        <ele>615.38</ele>
        <time>2024-09-19T16:03:43Z</time>
      </trkpt>
      <trkpt lat="50.460988031700253" lon="12.719838973134756">
        <ele>616.34000000000003</ele>
        <time>2024-09-19T16:03:50Z</time>
      </trkpt>
      <trkpt lat="50.460342960432172" lon="12.71961098536849">
        <ele>617.77999999999997</ele>
        <time>2024-09-19T16:03:53Z</time>
      </trkpt>
      <trkpt lat="50.460128970444202" lon="12.719616014510393">
        <ele>618.75</ele>
        <time>2024-09-19T16:03:54Z</time>
      </trkpt>
      <trkpt lat="50.459917997941375" lon="12.719646021723747">
        <ele>619.23000000000002</ele>
        <time>2024-09-19T16:03:55Z</time>
      </trkpt>
      <trkpt lat="50.459708031266928" lon="12.719737971201539">
        <ele>620.19000000000005</ele>
        <time>2024-09-19T16:03:56Z</time>
      </trkpt>
      <trkpt lat="50.459496974945068" lon="12.719866968691349">
        <ele>620.66999999999996</ele>
        <time>2024-09-19T16:03:57Z</time>
      </trkpt>
      <trkpt lat="50.45928499661386" lon="12.720020022243261">
        <ele>621.14999999999998</ele>
        <time>2024-09-19T16:03:58Z</time>
      </trkpt>
      <trkpt lat="50.459082992747426" lon="12.72023200057447">
        <ele>622.11000000000001</ele>
        <time>2024-09-19T16:03:59Z</time>
      </trkpt>
      <trkpt lat="50.458895992487669" lon="12.720488989725709">
        <ele>623.07000000000005</ele>
        <time>2024-09-19T16:04:00Z</time>
      </trkpt>
      <trkpt lat="50.457812966778874" lon="12.722073001787066">
        <ele>626.91999999999996</ele>
        <time>2024-09-19T16:04:06Z</time>
      </trkpt>
      <trkpt lat="50.45735296793282" lon="12.722616987302899">
        <ele>628.36000000000001</ele>
        <time>2024-09-19T16:04:09Z</time>
      </trkpt>
      <trkpt lat="50.456349989399314" lon="12.723355013877153">
        <ele>630.27999999999997</ele>
        <time>2024-09-19T16:04:16Z</time>
      </trkpt>
      <trkpt lat="50.455964002758265" lon="12.723546959459782">
        <ele>630.75999999999999</ele>
        <time>2024-09-19T16:04:19Z</time>
      </trkpt>
      <trkpt lat="50.455814972519875" lon="12.723556011915207">
        <ele>631.24000000000001</ele>
        <time>2024-09-19T16:04:20Z</time>
      </trkpt>
      <trkpt lat="50.455654039978981" lon="12.723532039672136">
        <ele>631.72000000000003</ele>
        <time>2024-09-19T16:04:21Z</time>
      </trkpt>
      <trkpt lat="50.455489000305533" lon="12.723454004153609">
        <ele>632.20000000000005</ele>
        <time>2024-09-19T16:04:22Z</time>
      </trkpt>
      <trkpt lat="50.455313986167312" lon="12.723372029140592">
        <ele>632.67999999999995</ele>
        <time>2024-09-19T16:04:23Z</time>
      </trkpt>
      <trkpt lat="50.455135032534599" lon="12.723287958651781">
        <ele>633.16999999999996</ele>
        <time>2024-09-19T16:04:24Z</time>
      </trkpt>
      <trkpt lat="50.454959012567997" lon="12.723229033872485">
        <ele>633.64999999999998</ele>
        <time>2024-09-19T16:04:25Z</time>
      </trkpt>
      <trkpt lat="50.454780980944633" lon="12.723199026659131">
        <ele>634.13</ele>
        <time>2024-09-19T16:04:26Z</time>
      </trkpt>
      <trkpt lat="50.454603033140302" lon="12.723169019445777">
        <ele>635.09000000000003</ele>
        <time>2024-09-19T16:04:27Z</time>
      </trkpt>
      <trkpt lat="50.454430030658841" lon="12.723187962546945">
        <ele>635.57000000000005</ele>
        <time>2024-09-19T16:04:28Z</time>
      </trkpt>
      <trkpt lat="50.454253004863858" lon="12.723253006115556">
        <ele>636.04999999999995</ele>
        <time>2024-09-19T16:04:29Z</time>
      </trkpt>
      <trkpt lat="50.454069022089243" lon="12.723332969471812">
        <ele>636.52999999999997</ele>
        <time>2024-09-19T16:04:30Z</time>
      </trkpt>
      <trkpt lat="50.453883027657866" lon="12.72345500998199">
        <ele>637.00999999999999</ele>
        <time>2024-09-19T16:04:31Z</time>
      </trkpt>
      <trkpt lat="50.452782986685634" lon="12.724059009924531">
        <ele>639.88999999999999</ele>
        <time>2024-09-19T16:04:36Z</time>
      </trkpt>
      <trkpt lat="50.452532032504678" lon="12.72410100325942">
        <ele>640.38</ele>
        <time>2024-09-19T16:04:37Z</time>
      </trkpt>
      <trkpt lat="50.451037036255002" lon="12.724429992958903">
        <ele>643.74000000000001</ele>
        <time>2024-09-19T16:04:43Z</time>
      </trkpt>
      <trkpt lat="50.449533993378282" lon="12.725383015349507">
        <ele>647.59000000000003</ele>
        <time>2024-09-19T16:04:50Z</time>
      </trkpt>
      <trkpt lat="50.449213972315192" lon="12.725608991459012">
        <ele>648.54999999999995</ele>
        <time>2024-09-19T16:04:52Z</time>
      </trkpt>
      <trkpt lat="50.449077012017369" lon="12.725772019475698">
        <ele>649.02999999999997</ele>
        <time>2024-09-19T16:04:53Z</time>
      </trkpt>
      <trkpt lat="50.448975004255772" lon="12.725964970886707">
        <ele>649.50999999999999</ele>
        <time>2024-09-19T16:04:54Z</time>
      </trkpt>
      <trkpt lat="50.448136981576681" lon="12.727749980986118">
        <ele>654.79999999999995</ele>
        <time>2024-09-19T16:05:03Z</time>
      </trkpt>
      <trkpt lat="50.447784019634128" lon="12.728413995355368">
        <ele>657.20000000000005</ele>
        <time>2024-09-19T16:05:07Z</time>
      </trkpt>
      <trkpt lat="50.447716964408755" lon="12.728520026430488">
        <ele>657.67999999999995</ele>
        <time>2024-09-19T16:05:08Z</time>
      </trkpt>
      <trkpt lat="50.447610011324286" lon="12.728583980351686">
        <ele>658.15999999999997</ele>
        <time>2024-09-19T16:05:09Z</time>
      </trkpt>
      <trkpt lat="50.44746701605618" lon="12.728583980351686">
        <ele>658.63999999999999</ele>
        <time>2024-09-19T16:05:10Z</time>
      </trkpt>
      <trkpt lat="50.447347993031144" lon="12.728581968694925">
        <ele>658.63999999999999</ele>
        <time>2024-09-19T16:05:11Z</time>
      </trkpt>
      <trkpt lat="50.447217989712954" lon="12.728525977581739">
        <ele>658.63999999999999</ele>
        <time>2024-09-19T16:05:12Z</time>
      </trkpt>
      <trkpt lat="50.447101984173059" lon="12.728477027267218">
        <ele>658.15999999999997</ele>
        <time>2024-09-19T16:05:13Z</time>
      </trkpt>
      <trkpt lat="50.446291035041213" lon="12.727978974580765">
        <ele>655.75999999999999</ele>
        <time>2024-09-19T16:05:20Z</time>
      </trkpt>
      <trkpt lat="50.445540016517043" lon="12.727539008483291">
        <ele>653.35000000000002</ele>
        <time>2024-09-19T16:05:26Z</time>
      </trkpt>
      <trkpt lat="50.445416970178485" lon="12.72751696407795">
        <ele>652.87</ele>
        <time>2024-09-19T16:05:27Z</time>
      </trkpt>
      <trkpt lat="50.445291996002197" lon="12.727500032633543">
        <ele>652.87</ele>
        <time>2024-09-19T16:05:28Z</time>
      </trkpt>
      <trkpt lat="50.445174984633923" lon="12.727484023198485">
        <ele>652.87</ele>
        <time>2024-09-19T16:05:29Z</time>
      </trkpt>
      <trkpt lat="50.445056967437267" lon="12.727468013763428">
        <ele>652.87</ele>
        <time>2024-09-19T16:05:30Z</time>
      </trkpt>
      <trkpt lat="50.444965017959476" lon="12.727511012926698">
        <ele>652.87</ele>
        <time>2024-09-19T16:05:31Z</time>
      </trkpt>
      <trkpt lat="50.444809030741453" lon="12.727586030960083">
        <ele>654.30999999999995</ele>
        <time>2024-09-19T16:05:33Z</time>
      </trkpt>
      <trkpt lat="50.444753039628267" lon="12.727612014859915">
        <ele>655.27999999999997</ele>
        <time>2024-09-19T16:05:34Z</time>
      </trkpt>
      <trkpt lat="50.444634016603231" lon="12.727484023198485">
        <ele>656.72000000000003</ele>
        <time>2024-09-19T16:05:35Z</time>
      </trkpt>
      <trkpt lat="50.444628987461329" lon="12.727419985458255">
        <ele>657.20000000000005</ele>
        <time>2024-09-19T16:05:36Z</time>
      </trkpt>
      <trkpt lat="50.444657988846302" lon="12.727313032373786">
        <ele>658.15999999999997</ele>
        <time>2024-09-19T16:05:37Z</time>
      </trkpt>
      <trkpt lat="50.444692019373178" lon="12.727211024612188">
        <ele>659.12</ele>
        <time>2024-09-19T16:05:38Z</time>
      </trkpt>
      <trkpt lat="50.444775000214577" lon="12.727083032950759">
        <ele>660.08000000000004</ele>
        <time>2024-09-19T16:05:39Z</time>
      </trkpt>
      <trkpt lat="50.44486896134913" lon="12.726940037682652">
        <ele>660.55999999999995</ele>
        <time>2024-09-19T16:05:40Z</time>
      </trkpt>
      <trkpt lat="50.444969041272998" lon="12.72678597830236">
        <ele>661.51999999999998</ele>
        <time>2024-09-19T16:05:41Z</time>
      </trkpt>
      <trkpt lat="50.445097032934427" lon="12.726686988025904">
        <ele>662.00999999999999</ele>
        <time>2024-09-19T16:05:42Z</time>
      </trkpt>
      <trkpt lat="50.445230975747108" lon="12.726638037711382">
        <ele>662.97000000000003</ele>
        <time>2024-09-19T16:05:43Z</time>
      </trkpt>
      <trkpt lat="50.445379000157118" lon="12.726630996912718">
        <ele>663.92999999999995</ele>
        <time>2024-09-19T16:05:44Z</time>
      </trkpt>
      <trkpt lat="50.445529958233237" lon="12.726667039096355">
        <ele>664.88999999999999</ele>
        <time>2024-09-19T16:05:45Z</time>
      </trkpt>
      <trkpt lat="50.445669014006853" lon="12.726724036037922">
        <ele>665.85000000000002</ele>
        <time>2024-09-19T16:05:46Z</time>
      </trkpt>
      <trkpt lat="50.445788959041238" lon="12.726772986352444">
        <ele>667.28999999999996</ele>
        <time>2024-09-19T16:05:47Z</time>
      </trkpt>
      <trkpt lat="50.446072015911341" lon="12.726888991892338">
        <ele>670.17999999999995</ele>
        <time>2024-09-19T16:05:50Z</time>
      </trkpt>
      <trkpt lat="50.446134964004159" lon="12.72691497579217">
        <ele>671.13999999999999</ele>
        <time>2024-09-19T16:05:51Z</time>
      </trkpt>
      <trkpt lat="50.446289023384452" lon="12.726974990218878">
        <ele>674.98000000000002</ele>
        <time>2024-09-19T16:05:59Z</time>
      </trkpt>
      <trkpt lat="50.446289023384452" lon="12.726974990218878">
        <ele>675.94000000000005</ele>
        <time>2024-09-19T16:06:42Z</time>
      </trkpt>
      <trkpt lat="50.44632900506258" lon="12.726975996047258">
        <ele>676.90999999999997</ele>
        <time>2024-09-19T16:07:02Z</time>
      </trkpt>
      <trkpt lat="50.446835020557046" lon="12.726994017139077">
        <ele>685.08000000000004</ele>
        <time>2024-09-19T16:07:07Z</time>
      </trkpt>
      <trkpt lat="50.447442037984729" lon="12.726917993277311">
        <ele>688.44000000000005</ele>
        <time>2024-09-19T16:07:11Z</time>
      </trkpt>
      <trkpt lat="50.447576986625791" lon="12.726843981072307">
        <ele>689.39999999999998</ele>
        <time>2024-09-19T16:07:12Z</time>
      </trkpt>
      <trkpt lat="50.44770497828722" lon="12.726727975532413">
        <ele>690.36000000000001</ele>
        <time>2024-09-19T16:07:13Z</time>
      </trkpt>
      <trkpt lat="50.447789970785379" lon="12.726560002192855">
        <ele>691.33000000000004</ele>
        <time>2024-09-19T16:07:14Z</time>
      </trkpt>
      <trkpt lat="50.44785400852561" lon="12.726378031075001">
        <ele>692.28999999999996</ele>
        <time>2024-09-19T16:07:15Z</time>
      </trkpt>
      <trkpt lat="50.447888039052486" lon="12.726131016388535">
        <ele>693.25</ele>
        <time>2024-09-19T16:07:16Z</time>
      </trkpt>
      <trkpt lat="50.447931960225105" lon="12.725816024467349">
        <ele>693.73000000000002</ele>
        <time>2024-09-19T16:07:17Z</time>
      </trkpt>
      <trkpt lat="50.447931960225105" lon="12.725568003952503">
        <ele>694.21000000000004</ele>
        <time>2024-09-19T16:07:18Z</time>
      </trkpt>
      <trkpt lat="50.447931960225105" lon="12.725246977061033">
        <ele>695.16999999999996</ele>
        <time>2024-09-19T16:07:19Z</time>
      </trkpt>
      <trkpt lat="50.447915028780699" lon="12.723362976685166">
        <ele>703.82000000000005</ele>
        <time>2024-09-19T16:07:25Z</time>
      </trkpt>
      <trkpt lat="50.447859959676862" lon="12.723161978647113">
        <ele>705.25999999999999</ele>
        <time>2024-09-19T16:07:26Z</time>
      </trkpt>
      <trkpt lat="50.447739008814096" lon="12.72291898727417">
        <ele>706.23000000000002</ele>
        <time>2024-09-19T16:07:27Z</time>
      </trkpt>
      <trkpt lat="50.447009028866887" lon="12.721978034824133">
        <ele>711.02999999999997</ele>
        <time>2024-09-19T16:07:32Z</time>
      </trkpt>
      <trkpt lat="50.445255031809211" lon="12.719552982598543">
        <ele>724.00999999999999</ele>
        <time>2024-09-19T16:07:41Z</time>
      </trkpt>
      <trkpt lat="50.444005038589239" lon="12.717648027464747">
        <ele>732.17999999999995</ele>
        <time>2024-09-19T16:07:48Z</time>
      </trkpt>
      <trkpt lat="50.443870006129146" lon="12.717342004179955">
        <ele>733.13999999999999</ele>
        <time>2024-09-19T16:07:49Z</time>
      </trkpt>
      <trkpt lat="50.443349992856383" lon="12.716239029541612">
        <ele>738.42999999999995</ele>
        <time>2024-09-19T16:07:53Z</time>
      </trkpt>
      <trkpt lat="50.443195011466742" lon="12.716101985424757">
        <ele>739.38999999999999</ele>
        <time>2024-09-19T16:07:54Z</time>
      </trkpt>
      <trkpt lat="50.443015974014997" lon="12.715999977663159">
        <ele>740.83000000000004</ele>
        <time>2024-09-19T16:07:55Z</time>
      </trkpt>
      <trkpt lat="50.442826962098479" lon="12.715896964073181">
        <ele>741.78999999999996</ele>
        <time>2024-09-19T16:07:56Z</time>
      </trkpt>
      <trkpt lat="50.442615989595652" lon="12.715833010151982">
        <ele>743.24000000000001</ele>
        <time>2024-09-19T16:07:57Z</time>
      </trkpt>
      <trkpt lat="50.44170998968184" lon="12.715559005737305">
        <ele>749.97000000000003</ele>
        <time>2024-09-19T16:08:02Z</time>
      </trkpt>
      <trkpt lat="50.441579986363649" lon="12.715618014335632">
        <ele>750.92999999999995</ele>
        <time>2024-09-19T16:08:03Z</time>
      </trkpt>
      <trkpt lat="50.44145199470222" lon="12.715688003227115">
        <ele>752.85000000000002</ele>
        <time>2024-09-19T16:08:04Z</time>
      </trkpt>
      <trkpt lat="50.440832991153002" lon="12.716255960986018">
        <ele>760.05999999999995</ele>
        <time>2024-09-19T16:08:08Z</time>
      </trkpt>
      <trkpt lat="50.440652025863528" lon="12.716325027868152">
        <ele>761.98000000000002</ele>
        <time>2024-09-19T16:08:09Z</time>
      </trkpt>
      <trkpt lat="50.440468965098262" lon="12.716395016759634">
        <ele>763.89999999999998</ele>
        <time>2024-09-19T16:08:10Z</time>
      </trkpt>
      <trkpt lat="50.43945299461484" lon="12.716877982020378">
        <ele>778.32000000000005</ele>
        <time>2024-09-19T16:08:17Z</time>
      </trkpt>
      <trkpt lat="50.439103972166777" lon="12.717178976163268">
        <ele>783.61000000000001</ele>
        <time>2024-09-19T16:08:20Z</time>
      </trkpt>
      <trkpt lat="50.438454961404204" lon="12.717564962804317">
        <ele>790.82000000000005</ele>
        <time>2024-09-19T16:08:24Z</time>
      </trkpt>
      <trkpt lat="50.437762029469013" lon="12.717705024406314">
        <ele>797.54999999999995</ele>
        <time>2024-09-19T16:08:28Z</time>
      </trkpt>
      <trkpt lat="50.437587015330791" lon="12.717670993879437">
        <ele>799.47000000000003</ele>
        <time>2024-09-19T16:08:29Z</time>
      </trkpt>
      <trkpt lat="50.437407977879047" lon="12.717593964189291">
        <ele>800.44000000000005</ele>
        <time>2024-09-19T16:08:30Z</time>
      </trkpt>
      <trkpt lat="50.437250984832644" lon="12.717494973912835">
        <ele>801.88</ele>
        <time>2024-09-19T16:08:31Z</time>
      </trkpt>
      <trkpt lat="50.437113018706441" lon="12.717406963929534">
        <ele>802.84000000000003</ele>
        <time>2024-09-19T16:08:32Z</time>
      </trkpt>
      <trkpt lat="50.436996007338166" lon="12.71724502556026">
        <ele>804.27999999999997</ele>
        <time>2024-09-19T16:08:33Z</time>
      </trkpt>
      <trkpt lat="50.436929035931826" lon="12.71703103557229">
        <ele>805.72000000000003</ele>
        <time>2024-09-19T16:08:34Z</time>
      </trkpt>
      <trkpt lat="50.436884025111794" lon="12.716798018664122">
        <ele>807.15999999999997</ele>
        <time>2024-09-19T16:08:35Z</time>
      </trkpt>
      <trkpt lat="50.436893999576569" lon="12.716562990099192">
        <ele>808.61000000000001</ele>
        <time>2024-09-19T16:08:36Z</time>
      </trkpt>
      <trkpt lat="50.436913026496768" lon="12.716306000947952">
        <ele>809.57000000000005</ele>
        <time>2024-09-19T16:08:37Z</time>
      </trkpt>
      <trkpt lat="50.436954014003277" lon="12.716017998754978">
        <ele>810.52999999999997</ele>
        <time>2024-09-19T16:08:38Z</time>
      </trkpt>
      <trkpt lat="50.43715400621295" lon="12.71449601277709">
        <ele>815.82000000000005</ele>
        <time>2024-09-19T16:08:43Z</time>
      </trkpt>
      <trkpt lat="50.437128022313118" lon="12.714200969785452">
        <ele>817.25999999999999</ele>
        <time>2024-09-19T16:08:44Z</time>
      </trkpt>
      <trkpt lat="50.437084017321467" lon="12.713921014219522">
        <ele>818.22000000000003</ele>
        <time>2024-09-19T16:08:45Z</time>
      </trkpt>
      <trkpt lat="50.436752010136843" lon="12.712065009400249">
        <ele>829.26999999999998</ele>
        <time>2024-09-19T16:08:53Z</time>
      </trkpt>
      <trkpt lat="50.436714962124825" lon="12.711864011362195">
        <ele>830.24000000000001</ele>
        <time>2024-09-19T16:08:54Z</time>
      </trkpt>
      <trkpt lat="50.436671962961555" lon="12.711672987788916">
        <ele>831.20000000000005</ele>
        <time>2024-09-19T16:08:55Z</time>
      </trkpt>
      <trkpt lat="50.436072992160916" lon="12.710008006542921">
        <ele>840.80999999999995</ele>
        <time>2024-09-19T16:09:04Z</time>
      </trkpt>
      <trkpt lat="50.435986993834376" lon="12.709644986316562">
        <ele>843.21000000000004</ele>
        <time>2024-09-19T16:09:06Z</time>
      </trkpt>
      <trkpt lat="50.435970984399319" lon="12.709451029077172">
        <ele>844.17999999999995</ele>
        <time>2024-09-19T16:09:07Z</time>
      </trkpt>
      <trkpt lat="50.435962015762925" lon="12.709265034645796">
        <ele>845.62</ele>
        <time>2024-09-19T16:09:08Z</time>
      </trkpt>
      <trkpt lat="50.4359529633075" lon="12.709085997194052">
        <ele>846.58000000000004</ele>
        <time>2024-09-19T16:09:09Z</time>
      </trkpt>
      <trkpt lat="50.435942988842726" lon="12.708908971399069">
        <ele>847.53999999999996</ele>
        <time>2024-09-19T16:09:10Z</time>
      </trkpt>
      <trkpt lat="50.435894038528204" lon="12.707497039809823">
        <ele>852.35000000000002</ele>
        <time>2024-09-19T16:09:18Z</time>
      </trkpt>
      <trkpt lat="50.435918010771275" lon="12.707283971831203">
        <ele>853.30999999999995</ele>
        <time>2024-09-19T16:09:19Z</time>
      </trkpt>
      <trkpt lat="50.435975007712841" lon="12.70714701153338">
        <ele>853.30999999999995</ele>
        <time>2024-09-19T16:09:20Z</time>
      </trkpt>
      <trkpt lat="50.436053965240717" lon="12.707009967416525">
        <ele>854.26999999999998</ele>
        <time>2024-09-19T16:09:21Z</time>
      </trkpt>
      <trkpt lat="50.436147004365921" lon="12.706894967705011">
        <ele>854.75</ele>
        <time>2024-09-19T16:09:22Z</time>
      </trkpt>
      <trkpt lat="50.436248006299138" lon="12.706792959943414">
        <ele>855.23000000000002</ele>
        <time>2024-09-19T16:09:23Z</time>
      </trkpt>
      <trkpt lat="50.436351019889116" lon="12.706691036000848">
        <ele>856.19000000000005</ele>
        <time>2024-09-19T16:09:24Z</time>
      </trkpt>
      <trkpt lat="50.43743203394115" lon="12.70560197532177">
        <ele>861</ele>
        <time>2024-09-19T16:09:35Z</time>
      </trkpt>
      <trkpt lat="50.438431994989514" lon="12.70454803481698">
        <ele>867.25</ele>
        <time>2024-09-19T16:09:45Z</time>
      </trkpt>
      <trkpt lat="50.438521010801196" lon="12.704430017620325">
        <ele>867.73000000000002</ele>
        <time>2024-09-19T16:09:46Z</time>
      </trkpt>
      <trkpt lat="50.438598040491343" lon="12.704288028180599">
        <ele>868.69000000000005</ele>
        <time>2024-09-19T16:09:47Z</time>
      </trkpt>
      <trkpt lat="50.43865998275578" lon="12.704138997942209">
        <ele>869.64999999999998</ele>
        <time>2024-09-19T16:09:48Z</time>
      </trkpt>
      <trkpt lat="50.438707005232573" lon="12.70396800711751">
        <ele>870.61000000000001</ele>
        <time>2024-09-19T16:09:49Z</time>
      </trkpt>
      <trkpt lat="50.438756039366126" lon="12.703790981322527">
        <ele>871.57000000000005</ele>
        <time>2024-09-19T16:09:50Z</time>
      </trkpt>
      <trkpt lat="50.43880800716579" lon="12.703602975234389">
        <ele>872.52999999999997</ele>
        <time>2024-09-19T16:09:51Z</time>
      </trkpt>
      <trkpt lat="50.439230035990477" lon="12.701641023159027">
        <ele>882.14999999999998</ele>
        <time>2024-09-19T16:10:00Z</time>
      </trkpt>
      <trkpt lat="50.439716018736362" lon="12.698930986225605">
        <ele>888.88</ele>
        <time>2024-09-19T16:10:12Z</time>
      </trkpt>
      <trkpt lat="50.440079038962722" lon="12.696744985878468">
        <ele>889.36000000000001</ele>
        <time>2024-09-19T16:10:22Z</time>
      </trkpt>
      <trkpt lat="50.440337033942342" lon="12.694841036573052">
        <ele>882.14999999999998</ele>
        <time>2024-09-19T16:10:32Z</time>
      </trkpt>
      <trkpt lat="50.440361006185412" lon="12.694654958322644">
        <ele>881.66999999999996</ele>
        <time>2024-09-19T16:10:33Z</time>
      </trkpt>
      <trkpt lat="50.440701982006431" lon="12.692238036543131">
        <ele>872.52999999999997</ele>
        <time>2024-09-19T16:10:46Z</time>
      </trkpt>
      <trkpt lat="50.440970035269856" lon="12.690297961235046">
        <ele>862.91999999999996</ele>
        <time>2024-09-19T16:10:55Z</time>
      </trkpt>
      <trkpt lat="50.441239010542631" lon="12.688484033569694">
        <ele>856.19000000000005</ele>
        <time>2024-09-19T16:11:04Z</time>
      </trkpt>
      <trkpt lat="50.441536987200379" lon="12.686367016285658">
        <ele>844.65999999999997</ele>
        <time>2024-09-19T16:11:15Z</time>
      </trkpt>
      <trkpt lat="50.441655004397035" lon="12.685571992769837">
        <ele>840.80999999999995</ele>
        <time>2024-09-19T16:11:19Z</time>
      </trkpt>
      <trkpt lat="50.441684005782008" lon="12.685375018045306">
        <ele>839.85000000000002</ele>
        <time>2024-09-19T16:11:20Z</time>
      </trkpt>
      <trkpt lat="50.441714012995362" lon="12.685174020007253">
        <ele>839.37</ele>
        <time>2024-09-19T16:11:21Z</time>
      </trkpt>
      <trkpt lat="50.441744020208716" lon="12.684971010312438">
        <ele>838.88999999999999</ele>
        <time>2024-09-19T16:11:22Z</time>
      </trkpt>
      <trkpt lat="50.441775033250451" lon="12.684764983132482">
        <ele>837.92999999999995</ele>
        <time>2024-09-19T16:11:23Z</time>
      </trkpt>
      <trkpt lat="50.442156996577978" lon="12.682162988930941">
        <ele>828.78999999999996</ele>
        <time>2024-09-19T16:11:35Z</time>
      </trkpt>
      <trkpt lat="50.442555975168943" lon="12.680380996316671">
        <ele>822.05999999999995</ele>
        <time>2024-09-19T16:11:44Z</time>
      </trkpt>
      <trkpt lat="50.442749010398984" lon="12.67941003665328">
        <ele>819.65999999999997</ele>
        <time>2024-09-19T16:11:49Z</time>
      </trkpt>
      <trkpt lat="50.442757979035378" lon="12.67919403500855">
        <ele>819.65999999999997</ele>
        <time>2024-09-19T16:11:50Z</time>
      </trkpt>
      <trkpt lat="50.44273903593421" lon="12.678984990343451">
        <ele>819.17999999999995</ele>
        <time>2024-09-19T16:11:51Z</time>
      </trkpt>
      <trkpt lat="50.442467965185642" lon="12.677167961373925">
        <ele>818.22000000000003</ele>
        <time>2024-09-19T16:11:59Z</time>
      </trkpt>
      <trkpt lat="50.442388001829386" lon="12.676491960883141">
        <ele>819.17999999999995</ele>
        <time>2024-09-19T16:12:02Z</time>
      </trkpt>
      <trkpt lat="50.442357994616032" lon="12.675816966220737">
        <ele>820.13999999999999</ele>
        <time>2024-09-19T16:12:05Z</time>
      </trkpt>
      <trkpt lat="50.442138975486159" lon="12.673778990283608">
        <ele>824.95000000000005</ele>
        <time>2024-09-19T16:12:14Z</time>
      </trkpt>
      <trkpt lat="50.441619968041778" lon="12.671088986098766">
        <ele>834.55999999999995</ele>
        <time>2024-09-19T16:12:26Z</time>
      </trkpt>
      <trkpt lat="50.44134302996099" lon="12.669679988175631">
        <ele>835.51999999999998</ele>
        <time>2024-09-19T16:12:32Z</time>
      </trkpt>
      <trkpt lat="50.441288966685534" lon="12.669415036216378">
        <ele>835.51999999999998</ele>
        <time>2024-09-19T16:12:33Z</time>
      </trkpt>
      <trkpt lat="50.440783035010099" lon="12.66694899648428">
        <ele>836.96000000000004</ele>
        <time>2024-09-19T16:12:41Z</time>
      </trkpt>
      <trkpt lat="50.440536020323634" lon="12.665954986587167">
        <ele>837.92999999999995</ele>
        <time>2024-09-19T16:12:44Z</time>
      </trkpt>
      <trkpt lat="50.439648041501641" lon="12.663711989298463">
        <ele>841.28999999999996</ele>
        <time>2024-09-19T16:12:51Z</time>
      </trkpt>
      <trkpt lat="50.438538026064634" lon="12.660815035924315">
        <ele>849.46000000000004</ele>
        <time>2024-09-19T16:13:00Z</time>
      </trkpt>
      <trkpt lat="50.438452027738094" lon="12.660491997376084">
        <ele>850.89999999999998</ele>
        <time>2024-09-19T16:13:01Z</time>
      </trkpt>
      <trkpt lat="50.438411040231586" lon="12.660143980756402">
        <ele>851.87</ele>
        <time>2024-09-19T16:13:02Z</time>
      </trkpt>
      <trkpt lat="50.438370974734426" lon="12.65977400355041">
        <ele>852.83000000000004</ele>
        <time>2024-09-19T16:13:03Z</time>
      </trkpt>
      <trkpt lat="50.438330993056297" lon="12.659389022737741">
        <ele>854.26999999999998</ele>
        <time>2024-09-19T16:13:04Z</time>
      </trkpt>
      <trkpt lat="50.438083978369832" lon="12.656567003577948">
        <ele>862.91999999999996</ele>
        <time>2024-09-19T16:13:12Z</time>
      </trkpt>
      <trkpt lat="50.437891026958823" lon="12.654367005452514">
        <ele>864.36000000000001</ele>
        <time>2024-09-19T16:13:20Z</time>
      </trkpt>
      <trkpt lat="50.437754988670349" lon="12.653307029977441">
        <ele>862.91999999999996</ele>
        <time>2024-09-19T16:13:24Z</time>
      </trkpt>
      <trkpt lat="50.437680976465344" lon="12.653121035546064">
        <ele>862.44000000000005</ele>
        <time>2024-09-19T16:13:25Z</time>
      </trkpt>
      <trkpt lat="50.437573017552495" lon="12.652930011972785">
        <ele>861.96000000000004</ele>
        <time>2024-09-19T16:13:26Z</time>
      </trkpt>
      <trkpt lat="50.43745500035584" lon="12.652723984792829">
        <ele>861.48000000000002</ele>
        <time>2024-09-19T16:13:27Z</time>
      </trkpt>
      <trkpt lat="50.437304964289069" lon="12.652536984533072">
        <ele>861</ele>
        <time>2024-09-19T16:13:28Z</time>
      </trkpt>
      <trkpt lat="50.436964994296432" lon="12.652173964306712">
        <ele>859.55999999999995</ele>
        <time>2024-09-19T16:13:30Z</time>
      </trkpt>
      <trkpt lat="50.436773970723152" lon="12.652014037594199">
        <ele>858.59000000000003</ele>
        <time>2024-09-19T16:13:31Z</time>
      </trkpt>
      <trkpt lat="50.436373986303806" lon="12.651724023744464">
        <ele>856.19000000000005</ele>
        <time>2024-09-19T16:13:33Z</time>
      </trkpt>
      <trkpt lat="50.435969978570938" lon="12.651473991572857">
        <ele>853.30999999999995</ele>
        <time>2024-09-19T16:13:35Z</time>
      </trkpt>
      <trkpt lat="50.4357819724828" lon="12.65133099630475">
        <ele>852.35000000000002</ele>
        <time>2024-09-19T16:13:36Z</time>
      </trkpt>
      <trkpt lat="50.435617016628385" lon="12.6511350274086">
        <ele>850.89999999999998</ele>
        <time>2024-09-19T16:13:37Z</time>
      </trkpt>
      <trkpt lat="50.435472009703517" lon="12.650917014107108">
        <ele>849.94000000000005</ele>
        <time>2024-09-19T16:13:38Z</time>
      </trkpt>
      <trkpt lat="50.435327002778649" lon="12.650701012462378">
        <ele>848.98000000000002</ele>
        <time>2024-09-19T16:13:39Z</time>
      </trkpt>
      <trkpt lat="50.435179984197021" lon="12.650479981675744">
        <ele>848.01999999999998</ele>
        <time>2024-09-19T16:13:40Z</time>
      </trkpt>
      <trkpt lat="50.435017039999366" lon="12.650313014164567">
        <ele>847.05999999999995</ele>
        <time>2024-09-19T16:13:41Z</time>
      </trkpt>
      <trkpt lat="50.434838002547622" lon="12.650175970047712">
        <ele>845.62</ele>
        <time>2024-09-19T16:13:42Z</time>
      </trkpt>
      <trkpt lat="50.434658965095878" lon="12.650043033063412">
        <ele>844.65999999999997</ele>
        <time>2024-09-19T16:13:43Z</time>
      </trkpt>
      <trkpt lat="50.434460984542966" lon="12.64995401725173">
        <ele>843.69000000000005</ele>
        <time>2024-09-19T16:13:44Z</time>
      </trkpt>
      <trkpt lat="50.434257974848151" lon="12.64993398450315">
        <ele>842.25</ele>
        <time>2024-09-19T16:13:45Z</time>
      </trkpt>
      <trkpt lat="50.434053037315607" lon="12.649924010038376">
        <ele>840.80999999999995</ele>
        <time>2024-09-19T16:13:46Z</time>
      </trkpt>
      <trkpt lat="50.433856984600425" lon="12.649961980059743">
        <ele>839.85000000000002</ele>
        <time>2024-09-19T16:13:47Z</time>
      </trkpt>
      <trkpt lat="50.43365397490561" lon="12.650044038891792">
        <ele>838.40999999999997</ele>
        <time>2024-09-19T16:13:48Z</time>
      </trkpt>
      <trkpt lat="50.433449037373066" lon="12.65012601390481">
        <ele>836.96000000000004</ele>
        <time>2024-09-19T16:13:49Z</time>
      </trkpt>
      <trkpt lat="50.433254996314645" lon="12.650202959775925">
        <ele>835.51999999999998</ele>
        <time>2024-09-19T16:13:50Z</time>
      </trkpt>
      <trkpt lat="50.433064978569746" lon="12.650248976424336">
        <ele>834.08000000000004</ele>
        <time>2024-09-19T16:13:51Z</time>
      </trkpt>
      <trkpt lat="50.432861968874931" lon="12.650287030264735">
        <ele>833.12</ele>
        <time>2024-09-19T16:13:52Z</time>
      </trkpt>
      <trkpt lat="50.432636998593807" lon="12.650252999737859">
        <ele>831.67999999999995</ele>
        <time>2024-09-19T16:13:53Z</time>
      </trkpt>
      <trkpt lat="50.432416973635554" lon="12.650157026946545">
        <ele>830.72000000000003</ele>
        <time>2024-09-19T16:13:54Z</time>
      </trkpt>
      <trkpt lat="50.432197032496333" lon="12.650060970336199">
        <ele>829.75999999999999</ele>
        <time>2024-09-19T16:13:55Z</time>
      </trkpt>
      <trkpt lat="50.431980025023222" lon="12.649966003373265">
        <ele>828.30999999999995</ele>
        <time>2024-09-19T16:13:56Z</time>
      </trkpt>
      <trkpt lat="50.43098702095449" lon="12.649534000083804">
        <ele>821.58000000000004</ele>
        <time>2024-09-19T16:14:01Z</time>
      </trkpt>
      <trkpt lat="50.430843019858003" lon="12.649376001209021">
        <ele>820.13999999999999</ele>
        <time>2024-09-19T16:14:02Z</time>
      </trkpt>
      <trkpt lat="50.430744029581547" lon="12.649233005940914">
        <ele>819.17999999999995</ele>
        <time>2024-09-19T16:14:03Z</time>
      </trkpt>
      <trkpt lat="50.430731037631631" lon="12.649023961275816">
        <ele>817.74000000000001</ele>
        <time>2024-09-19T16:14:04Z</time>
      </trkpt>
      <trkpt lat="50.430722991004586" lon="12.648890018463135">
        <ele>816.77999999999997</ele>
        <time>2024-09-19T16:14:05Z</time>
      </trkpt>
      <trkpt lat="50.430789962410927" lon="12.648688014596701">
        <ele>815.34000000000003</ele>
        <time>2024-09-19T16:14:06Z</time>
      </trkpt>
      <trkpt lat="50.430855005979538" lon="12.648550970479846">
        <ele>813.88999999999999</ele>
        <time>2024-09-19T16:14:07Z</time>
      </trkpt>
      <trkpt lat="50.430986015126109" lon="12.648461032658815">
        <ele>812.92999999999995</ele>
        <time>2024-09-19T16:14:08Z</time>
      </trkpt>
      <trkpt lat="50.431131022050977" lon="12.64836598187685">
        <ele>811.97000000000003</ele>
        <time>2024-09-19T16:14:09Z</time>
      </trkpt>
      <trkpt lat="50.431297989562154" lon="12.648296998813748">
        <ele>811.00999999999999</ele>
        <time>2024-09-19T16:14:10Z</time>
      </trkpt>
      <trkpt lat="50.431839963421226" lon="12.648040009662509">
        <ele>807.15999999999997</ele>
        <time>2024-09-19T16:14:13Z</time>
      </trkpt>
      <trkpt lat="50.432014977559447" lon="12.647915035486221">
        <ele>806.20000000000005</ele>
        <time>2024-09-19T16:14:14Z</time>
      </trkpt>
      <trkpt lat="50.432181023061275" lon="12.647754019126296">
        <ele>804.75999999999999</ele>
        <time>2024-09-19T16:14:15Z</time>
      </trkpt>
      <trkpt lat="50.43234103359282" lon="12.647558972239494">
        <ele>803.32000000000005</ele>
        <time>2024-09-19T16:14:16Z</time>
      </trkpt>
      <trkpt lat="50.432485034689307" lon="12.647320004180074">
        <ele>802.36000000000001</ele>
        <time>2024-09-19T16:14:17Z</time>
      </trkpt>
      <trkpt lat="50.433592032641172" lon="12.645720988512039">
        <ele>791.77999999999997</ele>
        <time>2024-09-19T16:14:24Z</time>
      </trkpt>
      <trkpt lat="50.434330981224775" lon="12.644936023280025">
        <ele>783.61000000000001</ele>
        <time>2024-09-19T16:14:30Z</time>
      </trkpt>
      <trkpt lat="50.434574978426099" lon="12.644807025790215">
        <ele>781.21000000000004</ele>
        <time>2024-09-19T16:14:32Z</time>
      </trkpt>
      <trkpt lat="50.434699030593038" lon="12.644746005535126">
        <ele>780.25</ele>
        <time>2024-09-19T16:14:33Z</time>
      </trkpt>
      <trkpt lat="50.434822998940945" lon="12.644683979451656">
        <ele>779.76999999999998</ele>
        <time>2024-09-19T16:14:34Z</time>
      </trkpt>
      <trkpt lat="50.436024963855743" lon="12.644244013354182">
        <ele>774.96000000000004</ele>
        <time>2024-09-19T16:14:42Z</time>
      </trkpt>
      <trkpt lat="50.436392007395625" lon="12.644049972295761">
        <ele>774</ele>
        <time>2024-09-19T16:14:44Z</time>
      </trkpt>
      <trkpt lat="50.436573978513479" lon="12.643908988684416">
        <ele>773.03999999999996</ele>
        <time>2024-09-19T16:14:45Z</time>
      </trkpt>
      <trkpt lat="50.436743963509798" lon="12.643741015344858">
        <ele>772.55999999999995</ele>
        <time>2024-09-19T16:14:46Z</time>
      </trkpt>
      <trkpt lat="50.436880001798272" lon="12.643486959859729">
        <ele>772.55999999999995</ele>
        <time>2024-09-19T16:14:47Z</time>
      </trkpt>
      <trkpt lat="50.437020985409617" lon="12.643223013728857">
        <ele>772.08000000000004</ele>
        <time>2024-09-19T16:14:48Z</time>
      </trkpt>
      <trkpt lat="50.437165992334485" lon="12.642952026799321">
        <ele>771.60000000000002</ele>
        <time>2024-09-19T16:14:49Z</time>
      </trkpt>
      <trkpt lat="50.438639027997851" lon="12.640203014016151">
        <ele>767.26999999999998</ele>
        <time>2024-09-19T16:14:58Z</time>
      </trkpt>
      <trkpt lat="50.439809979870915" lon="12.638118015602231">
        <ele>762.46000000000004</ele>
        <time>2024-09-19T16:15:05Z</time>
      </trkpt>
      <trkpt lat="50.439988011494279" lon="12.637918023392558">
        <ele>761.98000000000002</ele>
        <time>2024-09-19T16:15:06Z</time>
      </trkpt>
      <trkpt lat="50.440179035067558" lon="12.637750972062349">
        <ele>761.5</ele>
        <time>2024-09-19T16:15:07Z</time>
      </trkpt>
      <trkpt lat="50.440392019227147" lon="12.637602025642991">
        <ele>761.01999999999998</ele>
        <time>2024-09-19T16:15:08Z</time>
      </trkpt>
      <trkpt lat="50.440617995336652" lon="12.63745098374784">
        <ele>760.53999999999996</ele>
        <time>2024-09-19T16:15:09Z</time>
      </trkpt>
      <trkpt lat="50.442616995424032" lon="12.636105017736554">
        <ele>756.69000000000005</ele>
        <time>2024-09-19T16:15:17Z</time>
      </trkpt>
      <trkpt lat="50.445323009043932" lon="12.634181035682559">
        <ele>751.88999999999999</ele>
        <time>2024-09-19T16:15:28Z</time>
      </trkpt>
      <trkpt lat="50.446866033598781" lon="12.632976975291967">
        <ele>746.60000000000002</ele>
        <time>2024-09-19T16:15:35Z</time>
      </trkpt>
      <trkpt lat="50.448032040148973" lon="12.632188992574811">
        <ele>738.42999999999995</ele>
        <time>2024-09-19T16:15:42Z</time>
      </trkpt>
      <trkpt lat="50.448985984548926" lon="12.63152003288269">
        <ele>732.65999999999997</ele>
        <time>2024-09-19T16:15:50Z</time>
      </trkpt>
      <trkpt lat="50.449303993955255" lon="12.631290033459663">
        <ele>732.17999999999995</ele>
        <time>2024-09-19T16:15:54Z</time>
      </trkpt>
      <trkpt lat="50.449371971189976" lon="12.63124099932611">
        <ele>732.65999999999997</ele>
        <time>2024-09-19T16:15:55Z</time>
      </trkpt>
      <trkpt lat="50.449428968131542" lon="12.631201017647982">
        <ele>732.65999999999997</ele>
        <time>2024-09-19T16:15:56Z</time>
      </trkpt>
      <trkpt lat="50.449469033628702" lon="12.631172016263008">
        <ele>732.65999999999997</ele>
        <time>2024-09-19T16:15:57Z</time>
      </trkpt>
      <trkpt lat="50.449450006708503" lon="12.631103033199906">
        <ele>732.65999999999997</ele>
        <time>2024-09-19T16:15:58Z</time>
      </trkpt>
      <trkpt lat="50.44940298423171" lon="12.630993984639645">
        <ele>732.65999999999997</ele>
        <time>2024-09-19T16:15:59Z</time>
      </trkpt>
      <trkpt lat="50.449346993118525" lon="12.630861969664693">
        <ele>732.65999999999997</ele>
        <time>2024-09-19T16:16:00Z</time>
      </trkpt>
      <trkpt lat="50.449283961206675" lon="12.630716040730476">
        <ele>732.17999999999995</ele>
        <time>2024-09-19T16:16:01Z</time>
      </trkpt>
      <trkpt lat="50.449200980365276" lon="12.630616966634989">
        <ele>732.17999999999995</ele>
        <time>2024-09-19T16:16:02Z</time>
      </trkpt>
      <trkpt lat="50.449107019230723" lon="12.630504984408617">
        <ele>732.17999999999995</ele>
        <time>2024-09-19T16:16:03Z</time>
      </trkpt>
      <trkpt lat="50.449010962620378" lon="12.630390990525484">
        <ele>732.17999999999995</ele>
        <time>2024-09-19T16:16:04Z</time>
      </trkpt>
      <trkpt lat="50.447830958291888" lon="12.629033038392663">
        <ele>737.47000000000003</ele>
        <time>2024-09-19T16:16:16Z</time>
      </trkpt>
      <trkpt lat="50.447748983278871" lon="12.628916027024388">
        <ele>737.95000000000005</ele>
        <time>2024-09-19T16:16:17Z</time>
      </trkpt>
      <trkpt lat="50.447687041014433" lon="12.628772025927901">
        <ele>738.42999999999995</ele>
        <time>2024-09-19T16:16:18Z</time>
      </trkpt>
      <trkpt lat="50.447136014699936" lon="12.626994978636503">
        <ele>742.27999999999997</ele>
        <time>2024-09-19T16:16:27Z</time>
      </trkpt>
      <trkpt lat="50.447068959474564" lon="12.626778976991773">
        <ele>742.27999999999997</ele>
        <time>2024-09-19T16:16:28Z</time>
      </trkpt>
      <trkpt lat="50.446707028895617" lon="12.625994011759758">
        <ele>743.24000000000001</ele>
        <time>2024-09-19T16:16:32Z</time>
      </trkpt>
      <trkpt lat="50.445660967379808" lon="12.62462499551475">
        <ele>746.12</ele>
        <time>2024-09-19T16:16:40Z</time>
      </trkpt>
      <trkpt lat="50.444211987778544" lon="12.623430993407965">
        <ele>749.97000000000003</ele>
        <time>2024-09-19T16:16:48Z</time>
      </trkpt>
      <trkpt lat="50.443444959819317" lon="12.622786005958915">
        <ele>752.85000000000002</ele>
        <time>2024-09-19T16:16:52Z</time>
      </trkpt>
      <trkpt lat="50.442095976322889" lon="12.621153965592384">
        <ele>759.10000000000002</ele>
        <time>2024-09-19T16:17:00Z</time>
      </trkpt>
      <trkpt lat="50.441928002983332" lon="12.620995966717601">
        <ele>760.05999999999995</ele>
        <time>2024-09-19T16:17:01Z</time>
      </trkpt>
      <trkpt lat="50.441735973581672" lon="12.620892031118274">
        <ele>761.5</ele>
        <time>2024-09-19T16:17:02Z</time>
      </trkpt>
      <trkpt lat="50.440294034779072" lon="12.620415017008781">
        <ele>769.66999999999996</ele>
        <time>2024-09-19T16:17:09Z</time>
      </trkpt>
      <trkpt lat="50.439444025978446" lon="12.620314015075564">
        <ele>773.51999999999998</ele>
        <time>2024-09-19T16:17:13Z</time>
      </trkpt>
      <trkpt lat="50.439302958548069" lon="12.620251988992095">
        <ele>774.48000000000002</ele>
        <time>2024-09-19T16:17:14Z</time>
      </trkpt>
      <trkpt lat="50.439191982150078" lon="12.620180994272232">
        <ele>775.44000000000005</ele>
        <time>2024-09-19T16:17:15Z</time>
      </trkpt>
      <trkpt lat="50.439112018793821" lon="12.620043028146029">
        <ele>775.91999999999996</ele>
        <time>2024-09-19T16:17:16Z</time>
      </trkpt>
      <trkpt lat="50.439076982438564" lon="12.619860973209143">
        <ele>776.88</ele>
        <time>2024-09-19T16:17:17Z</time>
      </trkpt>
      <trkpt lat="50.439050998538733" lon="12.61963902041316">
        <ele>777.36000000000001</ele>
        <time>2024-09-19T16:17:18Z</time>
      </trkpt>
      <trkpt lat="50.439026020467281" lon="12.619404997676611">
        <ele>778.32000000000005</ele>
        <time>2024-09-19T16:17:19Z</time>
      </trkpt>
      <trkpt lat="50.439015040174127" lon="12.619140967726707">
        <ele>779.28999999999996</ele>
        <time>2024-09-19T16:17:20Z</time>
      </trkpt>
      <trkpt lat="50.439044963568449" lon="12.617249004542828">
        <ele>786.98000000000002</ele>
        <time>2024-09-19T16:17:26Z</time>
      </trkpt>
      <trkpt lat="50.439234981313348" lon="12.615785021334887">
        <ele>793.71000000000004</ele>
        <time>2024-09-19T16:17:30Z</time>
      </trkpt>
      <trkpt lat="50.439288038760424" lon="12.615409009158611">
        <ele>795.63</ele>
        <time>2024-09-19T16:17:31Z</time>
      </trkpt>
      <trkpt lat="50.439514014869928" lon="12.614032030105591">
        <ele>802.84000000000003</ele>
        <time>2024-09-19T16:17:35Z</time>
      </trkpt>
      <trkpt lat="50.439610993489623" lon="12.613761965185404">
        <ele>804.75999999999999</ele>
        <time>2024-09-19T16:17:36Z</time>
      </trkpt>
      <trkpt lat="50.439786007627845" lon="12.61317296884954">
        <ele>808.13</ele>
        <time>2024-09-19T16:17:38Z</time>
      </trkpt>
      <trkpt lat="50.439837975427508" lon="12.612852025777102">
        <ele>810.04999999999995</ele>
        <time>2024-09-19T16:17:39Z</time>
      </trkpt>
      <trkpt lat="50.439875023439527" lon="12.612518006935716">
        <ele>811.97000000000003</ele>
        <time>2024-09-19T16:17:40Z</time>
      </trkpt>
      <trkpt lat="50.440002009272575" lon="12.610555971041322">
        <ele>823.02999999999997</ele>
        <time>2024-09-19T16:17:46Z</time>
      </trkpt>
      <trkpt lat="50.440003015100956" lon="12.610231004655361">
        <ele>824.47000000000003</ele>
        <time>2024-09-19T16:17:47Z</time>
      </trkpt>
      <trkpt lat="50.439792964607477" lon="12.60752197355032">
        <ele>839.85000000000002</ele>
        <time>2024-09-19T16:17:55Z</time>
      </trkpt>
      <trkpt lat="50.439672013744712" lon="12.606799034401774">
        <ele>844.65999999999997</ele>
        <time>2024-09-19T16:17:58Z</time>
      </trkpt>
      <trkpt lat="50.439587021246552" lon="12.606664001941681">
        <ele>846.58000000000004</ele>
        <time>2024-09-19T16:17:59Z</time>
      </trkpt>
      <trkpt lat="50.439480990171432" lon="12.60659602470696">
        <ele>848.01999999999998</ele>
        <time>2024-09-19T16:18:00Z</time>
      </trkpt>
      <trkpt lat="50.439348975196481" lon="12.6065110322088">
        <ele>849.46000000000004</ele>
        <time>2024-09-19T16:18:01Z</time>
      </trkpt>
      <trkpt lat="50.439206985756755" lon="12.606472978368402">
        <ele>851.38</ele>
        <time>2024-09-19T16:18:02Z</time>
      </trkpt>
      <trkpt lat="50.439038006588817" lon="12.60642696171999">
        <ele>852.83000000000004</ele>
        <time>2024-09-19T16:18:03Z</time>
      </trkpt>
      <trkpt lat="50.438415985554457" lon="12.606296958401799">
        <ele>859.08000000000004</ele>
        <time>2024-09-19T16:18:07Z</time>
      </trkpt>
      <trkpt lat="50.438280031085014" lon="12.606329983100295">
        <ele>861</ele>
        <time>2024-09-19T16:18:08Z</time>
      </trkpt>
      <trkpt lat="50.438156984746456" lon="12.606436014175415">
        <ele>862.44000000000005</ele>
        <time>2024-09-19T16:18:09Z</time>
      </trkpt>
      <trkpt lat="50.438027987256646" lon="12.606545984745026">
        <ele>864.36000000000001</ele>
        <time>2024-09-19T16:18:10Z</time>
      </trkpt>
      <trkpt lat="50.437896978110075" lon="12.606659978628159">
        <ele>865.79999999999995</ele>
        <time>2024-09-19T16:18:11Z</time>
      </trkpt>
      <trkpt lat="50.436742035672069" lon="12.607660023495555">
        <ele>875.41999999999996</ele>
        <time>2024-09-19T16:18:19Z</time>
      </trkpt>
      <trkpt lat="50.436414973810315" lon="12.607931010425091">
        <ele>877.82000000000005</ele>
        <time>2024-09-19T16:18:22Z</time>
      </trkpt>
      <trkpt lat="50.4363380279392" lon="12.607993958517909">
        <ele>878.77999999999997</ele>
        <time>2024-09-19T16:18:23Z</time>
      </trkpt>
      <trkpt lat="50.436205007135868" lon="12.607965040951967">
        <ele>879.74000000000001</ele>
        <time>2024-09-19T16:18:24Z</time>
      </trkpt>
      <trkpt lat="50.436183968558908" lon="12.607893962413073">
        <ele>880.22000000000003</ele>
        <time>2024-09-19T16:18:25Z</time>
      </trkpt>
      <trkpt lat="50.436163013800979" lon="12.607819028198719">
        <ele>881.66999999999996</ele>
        <time>2024-09-19T16:18:26Z</time>
      </trkpt>
      <trkpt lat="50.436138035729527" lon="12.607733029872179">
        <ele>882.63</ele>
        <time>2024-09-19T16:18:27Z</time>
      </trkpt>
      <trkpt lat="50.436106016859412" lon="12.607622975483537">
        <ele>883.11000000000001</ele>
        <time>2024-09-19T16:18:28Z</time>
      </trkpt>
      <trkpt lat="50.436067963019013" lon="12.607491966336966">
        <ele>884.07000000000005</ele>
        <time>2024-09-19T16:18:29Z</time>
      </trkpt>
      <trkpt lat="50.435765041038394" lon="12.606442971155047">
        <ele>887.42999999999995</ele>
        <time>2024-09-19T16:18:34Z</time>
      </trkpt>
      <trkpt lat="50.435249973088503" lon="12.604580009356141">
        <ele>887.90999999999997</ele>
        <time>2024-09-19T16:18:42Z</time>
      </trkpt>
      <trkpt lat="50.434571038931608" lon="12.602135008201003">
        <ele>881.19000000000005</ele>
        <time>2024-09-19T16:18:55Z</time>
      </trkpt>
      <trkpt lat="50.433861007913947" lon="12.600133996456861">
        <ele>872.04999999999995</ele>
        <time>2024-09-19T16:19:07Z</time>
      </trkpt>
      <trkpt lat="50.433272011578083" lon="12.598471026867628">
        <ele>863.39999999999998</ele>
        <time>2024-09-19T16:19:17Z</time>
      </trkpt>
      <trkpt lat="50.433229012414813" lon="12.598287966102362">
        <ele>862.44000000000005</ele>
        <time>2024-09-19T16:19:18Z</time>
      </trkpt>
      <trkpt lat="50.433213002979755" lon="12.598091997206211">
        <ele>861.48000000000002</ele>
        <time>2024-09-19T16:19:19Z</time>
      </trkpt>
      <trkpt lat="50.433229012414813" lon="12.597912959754467">
        <ele>861</ele>
        <time>2024-09-19T16:19:20Z</time>
      </trkpt>
      <trkpt lat="50.433245021849871" lon="12.597734006121755">
        <ele>860.03999999999996</ele>
        <time>2024-09-19T16:19:21Z</time>
      </trkpt>
      <trkpt lat="50.433278968557715" lon="12.597363023087382">
        <ele>858.59000000000003</ele>
        <time>2024-09-19T16:19:23Z</time>
      </trkpt>
      <trkpt lat="50.433328002691269" lon="12.596234986558557">
        <ele>856.66999999999996</ele>
        <time>2024-09-19T16:19:29Z</time>
      </trkpt>
      <trkpt lat="50.43326698243618" lon="12.594146970659494">
        <ele>851.87</ele>
        <time>2024-09-19T16:19:40Z</time>
      </trkpt>
      <trkpt lat="50.433235969394445" lon="12.592969983816147">
        <ele>846.10000000000002</ele>
        <time>2024-09-19T16:19:46Z</time>
      </trkpt>
      <trkpt lat="50.433261031284928" lon="12.592770997434855">
        <ele>845.13999999999999</ele>
        <time>2024-09-19T16:19:47Z</time>
      </trkpt>
      <trkpt lat="50.43330998159945" lon="12.592579973861575">
        <ele>844.17999999999995</ele>
        <time>2024-09-19T16:19:48Z</time>
      </trkpt>
      <trkpt lat="50.433381982147694" lon="12.592428009957075">
        <ele>843.21000000000004</ele>
        <time>2024-09-19T16:19:49Z</time>
      </trkpt>
      <trkpt lat="50.433453982695937" lon="12.592276968061924">
        <ele>842.25</ele>
        <time>2024-09-19T16:19:50Z</time>
      </trkpt>
      <trkpt lat="50.433531012386084" lon="12.592122992500663">
        <ele>841.28999999999996</ele>
        <time>2024-09-19T16:19:51Z</time>
      </trkpt>
      <trkpt lat="50.434322012588382" lon="12.590687004849315">
        <ele>833.12</ele>
        <time>2024-09-19T16:20:01Z</time>
      </trkpt>
      <trkpt lat="50.434395018965006" lon="12.590541997924447">
        <ele>832.63999999999999</ele>
        <time>2024-09-19T16:20:02Z</time>
      </trkpt>
      <trkpt lat="50.435112006962299" lon="12.588801998645067">
        <ele>826.38999999999999</ele>
        <time>2024-09-19T16:20:13Z</time>
      </trkpt>
      <trkpt lat="50.435345023870468" lon="12.587951989844441">
        <ele>823.99000000000001</ele>
        <time>2024-09-19T16:20:18Z</time>
      </trkpt>
      <trkpt lat="50.435377964749932" lon="12.587770018726587">
        <ele>823.50999999999999</ele>
        <time>2024-09-19T16:20:19Z</time>
      </trkpt>
      <trkpt lat="50.435397997498512" lon="12.587593998759985">
        <ele>823.02999999999997</ele>
        <time>2024-09-19T16:20:20Z</time>
      </trkpt>
      <trkpt lat="50.435388023033738" lon="12.587408004328609">
        <ele>822.54999999999995</ele>
        <time>2024-09-19T16:20:21Z</time>
      </trkpt>
      <trkpt lat="50.435378970578313" lon="12.587223015725613">
        <ele>822.05999999999995</ele>
        <time>2024-09-19T16:20:22Z</time>
      </trkpt>
      <trkpt lat="50.435359021648765" lon="12.586839962750673">
        <ele>822.05999999999995</ele>
        <time>2024-09-19T16:20:24Z</time>
      </trkpt>
      <trkpt lat="50.435257013887167" lon="12.58610000833869">
        <ele>821.10000000000002</ele>
        <time>2024-09-19T16:20:28Z</time>
      </trkpt>
      <trkpt lat="50.435270005837083" lon="12.585905967280269">
        <ele>821.10000000000002</ele>
        <time>2024-09-19T16:20:29Z</time>
      </trkpt>
      <trkpt lat="50.435302024707198" lon="12.585726007819176">
        <ele>820.62</ele>
        <time>2024-09-19T16:20:30Z</time>
      </trkpt>
      <trkpt lat="50.435712989419699" lon="12.583996988832951">
        <ele>818.70000000000005</ele>
        <time>2024-09-19T16:20:40Z</time>
      </trkpt>
      <trkpt lat="50.435803011059761" lon="12.58386698551476">
        <ele>818.70000000000005</ele>
        <time>2024-09-19T16:20:41Z</time>
      </trkpt>
      <trkpt lat="50.435895966365933" lon="12.583732958883047">
        <ele>818.22000000000003</ele>
        <time>2024-09-19T16:20:42Z</time>
      </trkpt>
      <trkpt lat="50.435987999662757" lon="12.583600021898746">
        <ele>817.74000000000001</ele>
        <time>2024-09-19T16:20:43Z</time>
      </trkpt>
      <trkpt lat="50.43608296662569" lon="12.583462977781892">
        <ele>817.25999999999999</ele>
        <time>2024-09-19T16:20:44Z</time>
      </trkpt>
      <trkpt lat="50.436179023236036" lon="12.583324005827308">
        <ele>817.25999999999999</ele>
        <time>2024-09-19T16:20:45Z</time>
      </trkpt>
      <trkpt lat="50.436267033219337" lon="12.583190985023975">
        <ele>817.25999999999999</ele>
        <time>2024-09-19T16:20:46Z</time>
      </trkpt>
      <trkpt lat="50.437056021764874" lon="12.58143799379468">
        <ele>813.40999999999997</ele>
        <time>2024-09-19T16:20:57Z</time>
      </trkpt>
      <trkpt lat="50.437234975397587" lon="12.580885961651802">
        <ele>812.45000000000005</ele>
        <time>2024-09-19T16:21:00Z</time>
      </trkpt>
      <trkpt lat="50.437277974560857" lon="12.580690998584032">
        <ele>811.97000000000003</ele>
        <time>2024-09-19T16:21:01Z</time>
      </trkpt>
      <trkpt lat="50.437319967895746" lon="12.580498969182372">
        <ele>811.00999999999999</ele>
        <time>2024-09-19T16:21:02Z</time>
      </trkpt>
      <trkpt lat="50.437505040317774" lon="12.579754991456866">
        <ele>809.09000000000003</ele>
        <time>2024-09-19T16:21:06Z</time>
      </trkpt>
      <trkpt lat="50.438307020813227" lon="12.577891023829579">
        <ele>804.75999999999999</ele>
        <time>2024-09-19T16:21:16Z</time>
      </trkpt>
      <trkpt lat="50.438520004972816" lon="12.577557004988194">
        <ele>803.79999999999995</ele>
        <time>2024-09-19T16:21:18Z</time>
      </trkpt>
      <trkpt lat="50.439348975196481" lon="12.576492000371218">
        <ele>799.95000000000005</ele>
        <time>2024-09-19T16:21:24Z</time>
      </trkpt>
      <trkpt lat="50.440272996202111" lon="12.575901998206973">
        <ele>797.54999999999995</ele>
        <time>2024-09-19T16:21:29Z</time>
      </trkpt>
      <trkpt lat="50.440432000905275" lon="12.575773000717163">
        <ele>796.59000000000003</ele>
        <time>2024-09-19T16:21:30Z</time>
      </trkpt>
      <trkpt lat="50.440570972859859" lon="12.575634028762579">
        <ele>796.11000000000001</ele>
        <time>2024-09-19T16:21:31Z</time>
      </trkpt>
      <trkpt lat="50.440680021420121" lon="12.575453985482454">
        <ele>795.63</ele>
        <time>2024-09-19T16:21:32Z</time>
      </trkpt>
      <trkpt lat="50.440784962847829" lon="12.575236978009343">
        <ele>795.14999999999998</ele>
        <time>2024-09-19T16:21:33Z</time>
      </trkpt>
      <trkpt lat="50.440899040549994" lon="12.575000021606684">
        <ele>794.66999999999996</ele>
        <time>2024-09-19T16:21:34Z</time>
      </trkpt>
      <trkpt lat="50.44158099219203" lon="12.573579959571362">
        <ele>791.77999999999997</ele>
        <time>2024-09-19T16:21:40Z</time>
      </trkpt>
      <trkpt lat="50.441695991903543" lon="12.573332022875547">
        <ele>791.29999999999995</ele>
        <time>2024-09-19T16:21:41Z</time>
      </trkpt>
      <trkpt lat="50.441778972744942" lon="12.573049971833825">
        <ele>790.82000000000005</ele>
        <time>2024-09-19T16:21:42Z</time>
      </trkpt>
      <trkpt lat="50.442093964666128" lon="12.571977004408836">
        <ele>788.89999999999998</ele>
        <time>2024-09-19T16:21:46Z</time>
      </trkpt>
      <trkpt lat="50.442210976034403" lon="12.571764020249248">
        <ele>788.41999999999996</ele>
        <time>2024-09-19T16:21:47Z</time>
      </trkpt>
      <trkpt lat="50.442353971302509" lon="12.57155598141253">
        <ele>787.94000000000005</ele>
        <time>2024-09-19T16:21:48Z</time>
      </trkpt>
      <trkpt lat="50.442500989884138" lon="12.571342997252941">
        <ele>787.46000000000004</ele>
        <time>2024-09-19T16:21:49Z</time>
      </trkpt>
      <trkpt lat="50.44265697710216" lon="12.571117021143436">
        <ele>786.98000000000002</ele>
        <time>2024-09-19T16:21:50Z</time>
      </trkpt>
      <trkpt lat="50.442831991240382" lon="12.570905964821577">
        <ele>786.5</ele>
        <time>2024-09-19T16:21:51Z</time>
      </trkpt>
      <trkpt lat="50.44355702586472" lon="12.570075988769531">
        <ele>783.61000000000001</ele>
        <time>2024-09-19T16:21:55Z</time>
      </trkpt>
      <trkpt lat="50.443727010861039" lon="12.569997031241655">
        <ele>782.64999999999998</ele>
        <time>2024-09-19T16:21:56Z</time>
      </trkpt>
      <trkpt lat="50.443889033049345" lon="12.569936010986567">
        <ele>782.16999999999996</ele>
        <time>2024-09-19T16:21:57Z</time>
      </trkpt>
      <trkpt lat="50.444212993606925" lon="12.569813970476389">
        <ele>780.73000000000002</ele>
        <time>2024-09-19T16:21:59Z</time>
      </trkpt>
      <trkpt lat="50.44439697638154" lon="12.569727972149849">
        <ele>780.25</ele>
        <time>2024-09-19T16:22:00Z</time>
      </trkpt>
      <trkpt lat="50.44456897303462" lon="12.569563016295433">
        <ele>779.28999999999996</ele>
        <time>2024-09-19T16:22:01Z</time>
      </trkpt>
      <trkpt lat="50.444753039628267" lon="12.569386996328831">
        <ele>778.32000000000005</ele>
        <time>2024-09-19T16:22:02Z</time>
      </trkpt>
      <trkpt lat="50.444935010746121" lon="12.569180969148874">
        <ele>777.36000000000001</ele>
        <time>2024-09-19T16:22:03Z</time>
      </trkpt>
      <trkpt lat="50.445101978257298" lon="12.568917023018003">
        <ele>776.39999999999998</ele>
        <time>2024-09-19T16:22:04Z</time>
      </trkpt>
      <trkpt lat="50.445262994617224" lon="12.5686339661479">
        <ele>775.44000000000005</ele>
        <time>2024-09-19T16:22:05Z</time>
      </trkpt>
      <trkpt lat="50.44542501680553" lon="12.568340012803674">
        <ele>774.48000000000002</ele>
        <time>2024-09-19T16:22:06Z</time>
      </trkpt>
      <trkpt lat="50.445734979584813" lon="12.567754033952951">
        <ele>772.08000000000004</ele>
        <time>2024-09-19T16:22:08Z</time>
      </trkpt>
      <trkpt lat="50.445825001224875" lon="12.56743099540472">
        <ele>771.11000000000001</ele>
        <time>2024-09-19T16:22:09Z</time>
      </trkpt>
      <trkpt lat="50.446322970092297" lon="12.565805995836854">
        <ele>764.38999999999999</ele>
        <time>2024-09-19T16:22:15Z</time>
      </trkpt>
      <trkpt lat="50.446467977017164" lon="12.565641961991787">
        <ele>763.41999999999996</ele>
        <time>2024-09-19T16:22:16Z</time>
      </trkpt>
      <trkpt lat="50.446618013083935" lon="12.565473988652229">
        <ele>762.46000000000004</ele>
        <time>2024-09-19T16:22:17Z</time>
      </trkpt>
      <trkpt lat="50.446772994473577" lon="12.565331999212503">
        <ele>761.01999999999998</ele>
        <time>2024-09-19T16:22:18Z</time>
      </trkpt>
      <trkpt lat="50.446939961984754" lon="12.5651940330863">
        <ele>760.05999999999995</ele>
        <time>2024-09-19T16:22:19Z</time>
      </trkpt>
      <trkpt lat="50.447115981951356" lon="12.565048020333052">
        <ele>759.10000000000002</ele>
        <time>2024-09-19T16:22:20Z</time>
      </trkpt>
      <trkpt lat="50.447666002437472" lon="12.564589027315378">
        <ele>755.73000000000002</ele>
        <time>2024-09-19T16:22:23Z</time>
      </trkpt>
      <trkpt lat="50.448923036456108" lon="12.563040973618627">
        <ele>746.12</ele>
        <time>2024-09-19T16:22:30Z</time>
      </trkpt>
      <trkpt lat="50.449065025895834" lon="12.562759006395936">
        <ele>744.20000000000005</ele>
        <time>2024-09-19T16:22:31Z</time>
      </trkpt>
      <trkpt lat="50.449198968708515" lon="12.562479972839355">
        <ele>742.75999999999999</ele>
        <time>2024-09-19T16:22:32Z</time>
      </trkpt>
      <trkpt lat="50.449819983914495" lon="12.561159990727901">
        <ele>737.47000000000003</ele>
        <time>2024-09-19T16:22:37Z</time>
      </trkpt>
      <trkpt lat="50.450037997215986" lon="12.560679959133267">
        <ele>735.07000000000005</ele>
        <time>2024-09-19T16:22:39Z</time>
      </trkpt>
      <trkpt lat="50.450146961957216" lon="12.560438979417086">
        <ele>733.62</ele>
        <time>2024-09-19T16:22:40Z</time>
      </trkpt>
      <trkpt lat="50.45024000108242" lon="12.560180984437466">
        <ele>732.17999999999995</ele>
        <time>2024-09-19T16:22:41Z</time>
      </trkpt>
      <trkpt lat="50.450966963544488" lon="12.557749981060624">
        <ele>721.61000000000001</ele>
        <time>2024-09-19T16:22:49Z</time>
      </trkpt>
      <trkpt lat="50.45163500122726" lon="12.555575966835022">
        <ele>713.91999999999996</ele>
        <time>2024-09-19T16:22:56Z</time>
      </trkpt>
      <trkpt lat="50.452707968652248" lon="12.553564980626106">
        <ele>706.71000000000004</ele>
        <time>2024-09-19T16:23:03Z</time>
      </trkpt>
      <trkpt lat="50.453281039372087" lon="12.55249603651464">
        <ele>701.89999999999998</ele>
        <time>2024-09-19T16:23:07Z</time>
      </trkpt>
      <trkpt lat="50.45337600633502" lon="12.552269976586103">
        <ele>700.94000000000005</ele>
        <time>2024-09-19T16:23:08Z</time>
      </trkpt>
      <trkpt lat="50.453440966084599" lon="12.552002007141709">
        <ele>699.98000000000002</ele>
        <time>2024-09-19T16:23:09Z</time>
      </trkpt>
      <trkpt lat="50.453509027138352" lon="12.551723979413509">
        <ele>699.01999999999998</ele>
        <time>2024-09-19T16:23:10Z</time>
      </trkpt>
      <trkpt lat="50.453580021858215" lon="12.551432037726045">
        <ele>698.04999999999995</ele>
        <time>2024-09-19T16:23:11Z</time>
      </trkpt>
      <trkpt lat="50.453655961900949" lon="12.551119979470968">
        <ele>697.09000000000003</ele>
        <time>2024-09-19T16:23:12Z</time>
      </trkpt>
      <trkpt lat="50.453733997419477" lon="12.55080197006464">
        <ele>695.64999999999998</ele>
        <time>2024-09-19T16:23:13Z</time>
      </trkpt>
      <trkpt lat="50.454607978463173" lon="12.54820198751986">
        <ele>685.55999999999995</ele>
        <time>2024-09-19T16:23:21Z</time>
      </trkpt>
      <trkpt lat="50.454719960689545" lon="12.547875009477139">
        <ele>684.12</ele>
        <time>2024-09-19T16:23:22Z</time>
      </trkpt>
      <trkpt lat="50.454833032563329" lon="12.547548031434417">
        <ele>683.14999999999998</ele>
        <time>2024-09-19T16:23:23Z</time>
      </trkpt>
      <trkpt lat="50.454948032274842" lon="12.547215018421412">
        <ele>681.71000000000004</ele>
        <time>2024-09-19T16:23:24Z</time>
      </trkpt>
      <trkpt lat="50.455944975838065" lon="12.544326027855277">
        <ele>673.53999999999996</ele>
        <time>2024-09-19T16:23:33Z</time>
      </trkpt>
      <trkpt lat="50.45679003931582" lon="12.541891001164913">
        <ele>668.25</ele>
        <time>2024-09-19T16:23:41Z</time>
      </trkpt>
      <trkpt lat="50.457016015425324" lon="12.5413269829005">
        <ele>666.80999999999995</ele>
        <time>2024-09-19T16:23:43Z</time>
      </trkpt>
      <trkpt lat="50.458248993381858" lon="12.539029000326991">
        <ele>660.08000000000004</ele>
        <time>2024-09-19T16:23:51Z</time>
      </trkpt>
      <trkpt lat="50.458632968366146" lon="12.538331039249897">
        <ele>657.67999999999995</ele>
        <time>2024-09-19T16:23:54Z</time>
      </trkpt>
      <trkpt lat="50.458770012483001" lon="12.538198018446565">
        <ele>657.20000000000005</ele>
        <time>2024-09-19T16:23:55Z</time>
      </trkpt>
      <trkpt lat="50.45891803689301" lon="12.53806097432971">
        <ele>656.72000000000003</ele>
        <time>2024-09-19T16:23:56Z</time>
      </trkpt>
      <trkpt lat="50.459414999932051" lon="12.537784958258271">
        <ele>655.27999999999997</ele>
        <time>2024-09-19T16:23:59Z</time>
      </trkpt>
      <trkpt lat="50.459566963836551" lon="12.537655038759112">
        <ele>654.79999999999995</ele>
        <time>2024-09-19T16:24:00Z</time>
      </trkpt>
      <trkpt lat="50.459691016003489" lon="12.537502991035581">
        <ele>653.83000000000004</ele>
        <time>2024-09-19T16:24:01Z</time>
      </trkpt>
      <trkpt lat="50.459776008501649" lon="12.537275003269315">
        <ele>653.35000000000002</ele>
        <time>2024-09-19T16:24:02Z</time>
      </trkpt>
      <trkpt lat="50.459857983514667" lon="12.537057995796204">
        <ele>652.87</ele>
        <time>2024-09-19T16:24:03Z</time>
      </trkpt>
      <trkpt lat="50.459949010983109" lon="12.536807041615248">
        <ele>652.87</ele>
        <time>2024-09-19T16:24:04Z</time>
      </trkpt>
      <trkpt lat="50.459984969347715" lon="12.536505041643977">
        <ele>652.38999999999999</ele>
        <time>2024-09-19T16:24:05Z</time>
      </trkpt>
      <trkpt lat="50.46005898155272" lon="12.535877991467714">
        <ele>651.90999999999997</ele>
        <time>2024-09-19T16:24:07Z</time>
      </trkpt>
      <trkpt lat="50.460126036778092" lon="12.535579008981586">
        <ele>651.42999999999995</ele>
        <time>2024-09-19T16:24:08Z</time>
      </trkpt>
      <trkpt lat="50.460521997883916" lon="12.533930959179997">
        <ele>649.50999999999999</ele>
        <time>2024-09-19T16:24:13Z</time>
      </trkpt>
      <trkpt lat="50.460586035624146" lon="12.533618984743953">
        <ele>649.02999999999997</ele>
        <time>2024-09-19T16:24:14Z</time>
      </trkpt>
      <trkpt lat="50.460656024515629" lon="12.533275997266173">
        <ele>649.02999999999997</ele>
        <time>2024-09-19T16:24:15Z</time>
      </trkpt>
      <trkpt lat="50.461063971742988" lon="12.532160030677915">
        <ele>648.07000000000005</ele>
        <time>2024-09-19T16:24:19Z</time>
      </trkpt>
      <trkpt lat="50.461186012253165" lon="12.53157002851367">
        <ele>647.10000000000002</ele>
        <time>2024-09-19T16:24:21Z</time>
      </trkpt>
      <trkpt lat="50.461226999759674" lon="12.531251013278961">
        <ele>646.62</ele>
        <time>2024-09-19T16:24:22Z</time>
      </trkpt>
      <trkpt lat="50.461286008358002" lon="12.530622035264969">
        <ele>645.17999999999995</ele>
        <time>2024-09-19T16:24:24Z</time>
      </trkpt>
      <trkpt lat="50.461294976994395" lon="12.530319029465318">
        <ele>644.70000000000005</ele>
        <time>2024-09-19T16:24:25Z</time>
      </trkpt>
      <trkpt lat="50.46128299087286" lon="12.530031027272344">
        <ele>644.70000000000005</ele>
        <time>2024-09-19T16:24:26Z</time>
      </trkpt>
      <trkpt lat="50.461242003366351" lon="12.52976699732244">
        <ele>644.22000000000003</ele>
        <time>2024-09-19T16:24:27Z</time>
      </trkpt>
      <trkpt lat="50.461176037788391" lon="12.52952802926302">
        <ele>643.74000000000001</ele>
        <time>2024-09-19T16:24:28Z</time>
      </trkpt>
      <trkpt lat="50.461093978956342" lon="12.529324013739824">
        <ele>643.74000000000001</ele>
        <time>2024-09-19T16:24:29Z</time>
      </trkpt>
      <trkpt lat="50.460986020043492" lon="12.52914497628808">
        <ele>643.25999999999999</ele>
        <time>2024-09-19T16:24:30Z</time>
      </trkpt>
      <trkpt lat="50.460857022553682" lon="12.528969962149858">
        <ele>643.25999999999999</ele>
        <time>2024-09-19T16:24:31Z</time>
      </trkpt>
      <trkpt lat="50.460726013407111" lon="12.528794026002288">
        <ele>643.25999999999999</ele>
        <time>2024-09-19T16:24:32Z</time>
      </trkpt>
      <trkpt lat="50.460602967068553" lon="12.528614988550544">
        <ele>642.77999999999997</ele>
        <time>2024-09-19T16:24:33Z</time>
      </trkpt>
      <trkpt lat="50.460512023419142" lon="12.528394041582942">
        <ele>642.77999999999997</ele>
        <time>2024-09-19T16:24:34Z</time>
      </trkpt>
      <trkpt lat="50.460419990122318" lon="12.528166975826025">
        <ele>642.77999999999997</ele>
        <time>2024-09-19T16:24:35Z</time>
      </trkpt>
      <trkpt lat="50.460344972088933" lon="12.527933958917856">
        <ele>642.29999999999995</ele>
        <time>2024-09-19T16:24:36Z</time>
      </trkpt>
      <trkpt lat="50.460303984582424" lon="12.527694990858436">
        <ele>642.29999999999995</ele>
        <time>2024-09-19T16:24:37Z</time>
      </trkpt>
      <trkpt lat="50.460290992632508" lon="12.527546966448426">
        <ele>641.34000000000003</ele>
        <time>2024-09-19T16:24:38Z</time>
      </trkpt>
      <trkpt lat="50.460345977917314" lon="12.527311015874147">
        <ele>640.86000000000001</ele>
        <time>2024-09-19T16:24:39Z</time>
      </trkpt>
      <trkpt lat="50.460411021485925" lon="12.527141030877829">
        <ele>639.88999999999999</ele>
        <time>2024-09-19T16:24:40Z</time>
      </trkpt>
      <trkpt lat="50.460501965135336" lon="12.52693198621273">
        <ele>639.40999999999997</ele>
        <time>2024-09-19T16:24:41Z</time>
      </trkpt>
      <trkpt lat="50.460599027574062" lon="12.526711039245129">
        <ele>638.45000000000005</ele>
        <time>2024-09-19T16:24:42Z</time>
      </trkpt>
      <trkpt lat="50.460692988708615" lon="12.526493025943637">
        <ele>637.97000000000003</ele>
        <time>2024-09-19T16:24:43Z</time>
      </trkpt>
      <trkpt lat="50.460812011733651" lon="12.526339972391725">
        <ele>637.00999999999999</ele>
        <time>2024-09-19T16:24:44Z</time>
      </trkpt>
      <trkpt lat="50.460948972031474" lon="12.526203012093902">
        <ele>636.52999999999997</ele>
        <time>2024-09-19T16:24:45Z</time>
      </trkpt>
      <trkpt lat="50.461098002269864" lon="12.526098992675543">
        <ele>635.57000000000005</ele>
        <time>2024-09-19T16:24:46Z</time>
      </trkpt>
      <trkpt lat="50.461278967559338" lon="12.526002014055848">
        <ele>635.09000000000003</ele>
        <time>2024-09-19T16:24:47Z</time>
      </trkpt>
      <trkpt lat="50.461415005847812" lon="12.526002014055848">
        <ele>634.61000000000001</ele>
        <time>2024-09-19T16:24:48Z</time>
      </trkpt>
      <trkpt lat="50.461584990844131" lon="12.526002014055848">
        <ele>634.13</ele>
        <time>2024-09-19T16:24:49Z</time>
      </trkpt>
      <trkpt lat="50.461956979706883" lon="12.526002014055848">
        <ele>633.16999999999996</ele>
        <time>2024-09-19T16:24:51Z</time>
      </trkpt>
      <trkpt lat="50.462154960259795" lon="12.525979969650507">
        <ele>632.67999999999995</ele>
        <time>2024-09-19T16:24:52Z</time>
      </trkpt>
      <trkpt lat="50.462362999096513" lon="12.525934036821127">
        <ele>632.20000000000005</ele>
        <time>2024-09-19T16:24:53Z</time>
      </trkpt>
      <trkpt lat="50.463489023968577" lon="12.525550983846188">
        <ele>630.27999999999997</ele>
        <time>2024-09-19T16:24:58Z</time>
      </trkpt>
      <trkpt lat="50.46523598022759" lon="12.525200033560395">
        <ele>627.88</ele>
        <time>2024-09-19T16:25:05Z</time>
      </trkpt>
      <trkpt lat="50.467058038339019" lon="12.524878000840545">
        <ele>623.07000000000005</ele>
        <time>2024-09-19T16:25:12Z</time>
      </trkpt>
      <trkpt lat="50.468529984354973" lon="12.524709021672606">
        <ele>618.25999999999999</ele>
        <time>2024-09-19T16:25:18Z</time>
      </trkpt>
      <trkpt lat="50.46873802319169" lon="12.524654036387801">
        <ele>617.77999999999997</ele>
        <time>2024-09-19T16:25:19Z</time>
      </trkpt>
      <trkpt lat="50.468928040936589" lon="12.524551022797823">
        <ele>616.82000000000005</ele>
        <time>2024-09-19T16:25:20Z</time>
      </trkpt>
      <trkpt lat="50.469106994569302" lon="12.524405010044575">
        <ele>616.34000000000003</ele>
        <time>2024-09-19T16:25:21Z</time>
      </trkpt>
      <trkpt lat="50.470299990847707" lon="12.523434972390532">
        <ele>614.41999999999996</ele>
        <time>2024-09-19T16:25:27Z</time>
      </trkpt>
      <trkpt lat="50.470482967793941" lon="12.523288037627935">
        <ele>613.94000000000005</ele>
        <time>2024-09-19T16:25:28Z</time>
      </trkpt>
      <trkpt lat="50.47067197971046" lon="12.523205978795886">
        <ele>613.46000000000004</ele>
        <time>2024-09-19T16:25:29Z</time>
      </trkpt>
      <trkpt lat="50.470870966091752" lon="12.523173037916422">
        <ele>612.98000000000002</ele>
        <time>2024-09-19T16:25:30Z</time>
      </trkpt>
      <trkpt lat="50.471081016585231" lon="12.523188963532448">
        <ele>612.98000000000002</ele>
        <time>2024-09-19T16:25:31Z</time>
      </trkpt>
      <trkpt lat="50.471301963552833" lon="12.523204972967505">
        <ele>612.5</ele>
        <time>2024-09-19T16:25:32Z</time>
      </trkpt>
      <trkpt lat="50.471933959051967" lon="12.523253001272678">
        <ele>611.53999999999996</ele>
        <time>2024-09-19T16:25:35Z</time>
      </trkpt>
      <trkpt lat="50.472108973190188" lon="12.523188041523099">
        <ele>611.05999999999995</ele>
        <time>2024-09-19T16:25:36Z</time>
      </trkpt>
      <trkpt lat="50.472285998985171" lon="12.523104976862669">
        <ele>611.05999999999995</ele>
        <time>2024-09-19T16:25:37Z</time>
      </trkpt>
      <trkpt lat="50.472392030060291" lon="12.522986959666014">
        <ele>611.05999999999995</ele>
        <time>2024-09-19T16:25:38Z</time>
      </trkpt>
      <trkpt lat="50.472493031993508" lon="12.522817980498075">
        <ele>611.05999999999995</ele>
        <time>2024-09-19T16:25:39Z</time>
      </trkpt>
      <trkpt lat="50.472574001178145" lon="12.522602984681726">
        <ele>611.05999999999995</ele>
        <time>2024-09-19T16:25:40Z</time>
      </trkpt>
      <trkpt lat="50.472652958706021" lon="12.52237600274384">
        <ele>611.05999999999995</ele>
        <time>2024-09-19T16:25:41Z</time>
      </trkpt>
      <trkpt lat="50.472671985626221" lon="12.522090012207627">
        <ele>611.05999999999995</ele>
        <time>2024-09-19T16:25:42Z</time>
      </trkpt>
      <trkpt lat="50.472693024203181" lon="12.521786000579596">
        <ele>611.05999999999995</ele>
        <time>2024-09-19T16:25:43Z</time>
      </trkpt>
      <trkpt lat="50.47271397896111" lon="12.521481988951564">
        <ele>611.53999999999996</ele>
        <time>2024-09-19T16:25:44Z</time>
      </trkpt>
      <trkpt lat="50.47273401170969" lon="12.521195998415351">
        <ele>611.53999999999996</ele>
        <time>2024-09-19T16:25:45Z</time>
      </trkpt>
      <trkpt lat="50.472753038629889" lon="12.52093699760735">
        <ele>611.53999999999996</ele>
        <time>2024-09-19T16:25:46Z</time>
      </trkpt>
      <trkpt lat="50.472769970074296" lon="12.520705992355943">
        <ele>612.01999999999998</ele>
        <time>2024-09-19T16:25:47Z</time>
      </trkpt>
      <trkpt lat="50.472784973680973" lon="12.520493008196354">
        <ele>612.01999999999998</ele>
        <time>2024-09-19T16:25:48Z</time>
      </trkpt>
      <trkpt lat="50.472922017797828" lon="12.518828026950359">
        <ele>612.98000000000002</ele>
        <time>2024-09-19T16:25:57Z</time>
      </trkpt>
      <trkpt lat="50.472953030839562" lon="12.518645972013474">
        <ele>612.98000000000002</ele>
        <time>2024-09-19T16:25:58Z</time>
      </trkpt>
      <trkpt lat="50.473092002794147" lon="12.518122019246221">
        <ele>612.98000000000002</ele>
        <time>2024-09-19T16:26:01Z</time>
      </trkpt>
      <trkpt lat="50.473385034129024" lon="12.517515001818538">
        <ele>613.46000000000004</ele>
        <time>2024-09-19T16:26:05Z</time>
      </trkpt>
      <trkpt lat="50.474057011306286" lon="12.51590802334249">
        <ele>612.5</ele>
        <time>2024-09-19T16:26:15Z</time>
      </trkpt>
      <trkpt lat="50.474164970219135" lon="12.515570987015963">
        <ele>611.53999999999996</ele>
        <time>2024-09-19T16:26:17Z</time>
      </trkpt>
      <trkpt lat="50.474314000457525" lon="12.515019038692117">
        <ele>609.13</ele>
        <time>2024-09-19T16:26:21Z</time>
      </trkpt>
      <trkpt lat="50.474327998235822" lon="12.514930022880435">
        <ele>608.64999999999998</ele>
        <time>2024-09-19T16:26:22Z</time>
      </trkpt>
      <trkpt lat="50.474355993792415" lon="12.514700023457408">
        <ele>605.76999999999998</ele>
        <time>2024-09-19T16:26:26Z</time>
      </trkpt>
      <trkpt lat="50.474327998235822" lon="12.514716032892466">
        <ele>605.28999999999996</ele>
        <time>2024-09-19T16:26:27Z</time>
      </trkpt>
      <trkpt lat="50.474280975759029" lon="12.514742016792297">
        <ele>604.80999999999995</ele>
        <time>2024-09-19T16:26:28Z</time>
      </trkpt>
      <trkpt lat="50.474005965515971" lon="12.514890041202307">
        <ele>603.36000000000001</ele>
        <time>2024-09-19T16:26:32Z</time>
      </trkpt>
      <trkpt lat="50.47352802939713" lon="12.514822985976934">
        <ele>603.36000000000001</ele>
        <time>2024-09-19T16:26:37Z</time>
      </trkpt>
      <trkpt lat="50.473304986953735" lon="12.514649983495474">
        <ele>603.85000000000002</ele>
        <time>2024-09-19T16:26:39Z</time>
      </trkpt>
      <trkpt lat="50.473199961706996" lon="12.514528026804328">
        <ele>603.85000000000002</ele>
        <time>2024-09-19T16:26:40Z</time>
      </trkpt>
      <trkpt lat="50.473084039986134" lon="12.514386959373951">
        <ele>604.80999999999995</ele>
        <time>2024-09-19T16:26:41Z</time>
      </trkpt>
      <trkpt lat="50.472072008997202" lon="12.512934040278196">
        <ele>609.13</ele>
        <time>2024-09-19T16:26:49Z</time>
      </trkpt>
      <trkpt lat="50.471921972930431" lon="12.512848963961005">
        <ele>609.61000000000001</ele>
        <time>2024-09-19T16:26:50Z</time>
      </trkpt>
      <trkpt lat="50.471759028732777" lon="12.512848963961005">
        <ele>610.09000000000003</ele>
        <time>2024-09-19T16:26:51Z</time>
      </trkpt>
      <trkpt lat="50.471577979624271" lon="12.512848963961005">
        <ele>610.57000000000005</ele>
        <time>2024-09-19T16:26:52Z</time>
      </trkpt>
      <trkpt lat="50.471388967707753" lon="12.512848963961005">
        <ele>611.05999999999995</ele>
        <time>2024-09-19T16:26:53Z</time>
      </trkpt>
      <trkpt lat="50.471013961359859" lon="12.512792972847819">
        <ele>611.53999999999996</ele>
        <time>2024-09-19T16:26:55Z</time>
      </trkpt>
      <trkpt lat="50.470861997455359" lon="12.512667998671532">
        <ele>612.01999999999998</ele>
        <time>2024-09-19T16:26:56Z</time>
      </trkpt>
      <trkpt lat="50.470729982480407" lon="12.512506982311606">
        <ele>612.5</ele>
        <time>2024-09-19T16:26:57Z</time>
      </trkpt>
      <trkpt lat="50.470595033839345" lon="12.512301038950682">
        <ele>613.46000000000004</ele>
        <time>2024-09-19T16:26:58Z</time>
      </trkpt>
      <trkpt lat="50.470460001379251" lon="12.512090988457203">
        <ele>614.41999999999996</ele>
        <time>2024-09-19T16:26:59Z</time>
      </trkpt>
      <trkpt lat="50.470350030809641" lon="12.51182503066957">
        <ele>614.89999999999998</ele>
        <time>2024-09-19T16:27:00Z</time>
      </trkpt>
      <trkpt lat="50.470049036666751" lon="12.510979967191815">
        <ele>617.29999999999995</ele>
        <time>2024-09-19T16:27:03Z</time>
      </trkpt>
      <trkpt lat="50.469968989491463" lon="12.510660029947758">
        <ele>618.25999999999999</ele>
        <time>2024-09-19T16:27:04Z</time>
      </trkpt>
      <trkpt lat="50.469906041398644" lon="12.510332968086004">
        <ele>618.75</ele>
        <time>2024-09-19T16:27:05Z</time>
      </trkpt>
      <trkpt lat="50.469843009486794" lon="12.510000038892031">
        <ele>619.23000000000002</ele>
        <time>2024-09-19T16:27:06Z</time>
      </trkpt>
      <trkpt lat="50.469780983403325" lon="12.509679012000561">
        <ele>620.19000000000005</ele>
        <time>2024-09-19T16:27:07Z</time>
      </trkpt>
      <trkpt lat="50.46957696788013" lon="12.50892698764801">
        <ele>622.59000000000003</ele>
        <time>2024-09-19T16:27:10Z</time>
      </trkpt>
      <trkpt lat="50.46951200813055" lon="12.508769994601607">
        <ele>623.07000000000005</ele>
        <time>2024-09-19T16:27:11Z</time>
      </trkpt>
      <trkpt lat="50.469431960955262" lon="12.508577965199947">
        <ele>623.54999999999995</ele>
        <time>2024-09-19T16:27:12Z</time>
      </trkpt>
      <trkpt lat="50.469312015920877" lon="12.508458020165563">
        <ele>624.02999999999997</ele>
        <time>2024-09-19T16:27:14Z</time>
      </trkpt>
      <trkpt lat="50.469244960695505" lon="12.50839096494019">
        <ele>624.50999999999999</ele>
        <time>2024-09-19T16:27:15Z</time>
      </trkpt>
      <trkpt lat="50.469001969322562" lon="12.508213017135859">
        <ele>625.96000000000004</ele>
        <time>2024-09-19T16:27:19Z</time>
      </trkpt>
      <trkpt lat="50.468759983778" lon="12.508128024637699">
        <ele>626.91999999999996</ele>
        <time>2024-09-19T16:27:23Z</time>
      </trkpt>
      <trkpt lat="50.468640960752964" lon="12.508128024637699">
        <ele>627.88</ele>
        <time>2024-09-19T16:27:25Z</time>
      </trkpt>
      <trkpt lat="50.468582035973668" lon="12.508128024637699">
        <ele>627.88</ele>
        <time>2024-09-19T16:27:26Z</time>
      </trkpt>
      <trkpt lat="50.468525039032102" lon="12.508128024637699">
        <ele>627.88</ele>
        <time>2024-09-19T16:27:27Z</time>
      </trkpt>
      <trkpt lat="50.468424037098885" lon="12.508128024637699">
        <ele>628.36000000000001</ele>
        <time>2024-09-19T16:27:29Z</time>
      </trkpt>
      <trkpt lat="50.46830803155899" lon="12.508154008537531">
        <ele>627.88</ele>
        <time>2024-09-19T16:27:31Z</time>
      </trkpt>
      <trkpt lat="50.468252040445805" lon="12.508167000487447">
        <ele>627.88</ele>
        <time>2024-09-19T16:27:32Z</time>
      </trkpt>
      <trkpt lat="50.468194037675858" lon="12.508180998265743">
        <ele>627.88</ele>
        <time>2024-09-19T16:27:33Z</time>
      </trkpt>
      <trkpt lat="50.46813502907753" lon="12.508193990215659">
        <ele>628.36000000000001</ele>
        <time>2024-09-19T16:27:34Z</time>
      </trkpt>
      <trkpt lat="50.468076020479202" lon="12.508207987993956">
        <ele>628.36000000000001</ele>
        <time>2024-09-19T16:27:35Z</time>
      </trkpt>
      <trkpt lat="50.467622978612781" lon="12.508418038487434">
        <ele>628.84000000000003</ele>
        <time>2024-09-19T16:27:46Z</time>
      </trkpt>
      <trkpt lat="50.467491969466209" lon="12.508505964651704">
        <ele>628.36000000000001</ele>
        <time>2024-09-19T16:27:57Z</time>
      </trkpt>
      <trkpt lat="50.467491969466209" lon="12.508505964651704">
        <ele>628.36000000000001</ele>
        <time>2024-09-19T16:28:37Z</time>
      </trkpt>
      <trkpt lat="50.467491969466209" lon="12.508505964651704">
        <ele>628.36000000000001</ele>
        <time>2024-09-19T16:29:16Z</time>
      </trkpt>
      <trkpt lat="50.467491969466209" lon="12.508505964651704">
        <ele>627.88</ele>
        <time>2024-09-19T16:30:00Z</time>
      </trkpt>
      <trkpt lat="50.467491969466209" lon="12.508505964651704">
        <ele>627.88</ele>
        <time>2024-09-19T16:30:32Z</time>
      </trkpt>
      <trkpt lat="50.467478977516294" lon="12.508514011278749">
        <ele>627.88</ele>
        <time>2024-09-19T16:30:33Z</time>
      </trkpt>
      <trkpt lat="50.467568999156356" lon="12.508455002680421">
        <ele>623.54999999999995</ele>
        <time>2024-09-19T16:30:36Z</time>
      </trkpt>
      <trkpt lat="50.467630019411445" lon="12.508414015173912">
        <ele>622.11000000000001</ele>
        <time>2024-09-19T16:30:37Z</time>
      </trkpt>
      <trkpt lat="50.467693973332644" lon="12.508371016010642">
        <ele>621.63</ele>
        <time>2024-09-19T16:30:38Z</time>
      </trkpt>
      <trkpt lat="50.467919027432799" lon="12.508245036005974">
        <ele>620.19000000000005</ele>
        <time>2024-09-19T16:30:41Z</time>
      </trkpt>
      <trkpt lat="50.468004019930959" lon="12.508225003257394">
        <ele>619.71000000000004</ele>
        <time>2024-09-19T16:30:42Z</time>
      </trkpt>
      <trkpt lat="50.46884598210454" lon="12.508149985224009">
        <ele>615.86000000000001</ele>
        <time>2024-09-19T16:30:51Z</time>
      </trkpt>
      <trkpt lat="50.468948995694518" lon="12.508191978558898">
        <ele>615.38</ele>
        <time>2024-09-19T16:30:52Z</time>
      </trkpt>
      <trkpt lat="50.469053015112877" lon="12.508232966065407">
        <ele>614.89999999999998</ele>
        <time>2024-09-19T16:30:53Z</time>
      </trkpt>
      <trkpt lat="50.469149993732572" lon="12.508295997977257">
        <ele>614.41999999999996</ele>
        <time>2024-09-19T16:30:54Z</time>
      </trkpt>
      <trkpt lat="50.469240015372634" lon="12.508386019617319">
        <ele>614.41999999999996</ele>
        <time>2024-09-19T16:30:55Z</time>
      </trkpt>
      <trkpt lat="50.469334982335567" lon="12.508480986580253">
        <ele>613.94000000000005</ele>
        <time>2024-09-19T16:30:56Z</time>
      </trkpt>
      <trkpt lat="50.469431960955262" lon="12.508577965199947">
        <ele>613.94000000000005</ele>
        <time>2024-09-19T16:30:57Z</time>
      </trkpt>
      <trkpt lat="50.469493987038732" lon="12.508725989609957">
        <ele>613.46000000000004</ele>
        <time>2024-09-19T16:30:58Z</time>
      </trkpt>
      <trkpt lat="50.469560036435723" lon="12.508886000141501">
        <ele>613.46000000000004</ele>
        <time>2024-09-19T16:30:59Z</time>
      </trkpt>
      <trkpt lat="50.469627007842064" lon="12.509050033986568">
        <ele>612.98000000000002</ele>
        <time>2024-09-19T16:31:00Z</time>
      </trkpt>
      <trkpt lat="50.469694985076785" lon="12.509225970134139">
        <ele>612.5</ele>
        <time>2024-09-19T16:31:01Z</time>
      </trkpt>
      <trkpt lat="50.469733960926533" lon="12.509430991485715">
        <ele>612.01999999999998</ele>
        <time>2024-09-19T16:31:02Z</time>
      </trkpt>
      <trkpt lat="50.469857007265091" lon="12.510074973106384">
        <ele>610.57000000000005</ele>
        <time>2024-09-19T16:31:05Z</time>
      </trkpt>
      <trkpt lat="50.469900006428361" lon="12.51029902137816">
        <ele>610.09000000000003</ele>
        <time>2024-09-19T16:31:06Z</time>
      </trkpt>
      <trkpt lat="50.470039984211326" lon="12.510943002998829">
        <ele>608.64999999999998</ele>
        <time>2024-09-19T16:31:09Z</time>
      </trkpt>
      <trkpt lat="50.470089018344879" lon="12.511140983551741">
        <ele>608.64999999999998</ele>
        <time>2024-09-19T16:31:10Z</time>
      </trkpt>
      <trkpt lat="50.470145009458065" lon="12.511324966326356">
        <ele>608.16999999999996</ele>
        <time>2024-09-19T16:31:11Z</time>
      </trkpt>
      <trkpt lat="50.470213992521167" lon="12.511492017656565">
        <ele>607.69000000000005</ele>
        <time>2024-09-19T16:31:12Z</time>
      </trkpt>
      <trkpt lat="50.470283981412649" lon="12.511663008481264">
        <ele>607.69000000000005</ele>
        <time>2024-09-19T16:31:13Z</time>
      </trkpt>
      <trkpt lat="50.470428988337517" lon="12.512015970423818">
        <ele>607.21000000000004</ele>
        <time>2024-09-19T16:31:15Z</time>
      </trkpt>
      <trkpt lat="50.470708021894097" lon="12.512474041432142">
        <ele>605.28999999999996</ele>
        <time>2024-09-19T16:31:18Z</time>
      </trkpt>
      <trkpt lat="50.470808017998934" lon="12.512614019215107">
        <ele>604.80999999999995</ele>
        <time>2024-09-19T16:31:19Z</time>
      </trkpt>
      <trkpt lat="50.470916982740164" lon="12.512722983956337">
        <ele>604.80999999999995</ele>
        <time>2024-09-19T16:31:20Z</time>
      </trkpt>
      <trkpt lat="50.471039023250341" lon="12.512799007818103">
        <ele>604.33000000000004</ele>
        <time>2024-09-19T16:31:21Z</time>
      </trkpt>
      <trkpt lat="50.471162991598248" lon="12.512831026688218">
        <ele>604.33000000000004</ele>
        <time>2024-09-19T16:31:22Z</time>
      </trkpt>
      <trkpt lat="50.471290983259678" lon="12.512848963961005">
        <ele>603.85000000000002</ele>
        <time>2024-09-19T16:31:23Z</time>
      </trkpt>
      <trkpt lat="50.471421992406249" lon="12.512848963961005">
        <ele>602.88</ele>
        <time>2024-09-19T16:31:24Z</time>
      </trkpt>
      <trkpt lat="50.471558030694723" lon="12.512848963961005">
        <ele>601.91999999999996</ele>
        <time>2024-09-19T16:31:25Z</time>
      </trkpt>
      <trkpt lat="50.47170496545732" lon="12.512848963961005">
        <ele>601.44000000000005</ele>
        <time>2024-09-19T16:31:26Z</time>
      </trkpt>
      <trkpt lat="50.471986010670662" lon="12.512885006144643">
        <ele>600.48000000000002</ele>
        <time>2024-09-19T16:31:28Z</time>
      </trkpt>
      <trkpt lat="50.472072008997202" lon="12.512934040278196">
        <ele>600</ele>
        <time>2024-09-19T16:31:29Z</time>
      </trkpt>
      <trkpt lat="50.472206035628915" lon="12.513113999739289">
        <ele>599.51999999999998</ele>
        <time>2024-09-19T16:31:30Z</time>
      </trkpt>
      <trkpt lat="50.472313994541764" lon="12.513258000835776">
        <ele>599.03999999999996</ele>
        <time>2024-09-19T16:31:31Z</time>
      </trkpt>
      <trkpt lat="50.472417008131742" lon="12.513403007760644">
        <ele>598.55999999999995</ele>
        <time>2024-09-19T16:31:32Z</time>
      </trkpt>
      <trkpt lat="50.473247990012169" lon="12.514583012089133">
        <ele>592.78999999999996</ele>
        <time>2024-09-19T16:31:40Z</time>
      </trkpt>
      <trkpt lat="50.473355026915669" lon="12.51470698043704">
        <ele>591.83000000000004</ele>
        <time>2024-09-19T16:31:41Z</time>
      </trkpt>
      <trkpt lat="50.473482012748718" lon="12.514795996248722">
        <ele>590.87</ele>
        <time>2024-09-19T16:31:42Z</time>
      </trkpt>
      <trkpt lat="50.473592989146709" lon="12.514860033988953">
        <ele>590.38999999999999</ele>
        <time>2024-09-19T16:31:43Z</time>
      </trkpt>
      <trkpt lat="50.473705977201462" lon="12.514905966818333">
        <ele>589.42999999999995</ele>
        <time>2024-09-19T16:31:44Z</time>
      </trkpt>
      <trkpt lat="50.473788036033511" lon="12.514930022880435">
        <ele>588.95000000000005</ele>
        <time>2024-09-19T16:31:45Z</time>
      </trkpt>
      <trkpt lat="50.473912004381418" lon="12.514907978475094">
        <ele>587.98000000000002</ele>
        <time>2024-09-19T16:31:46Z</time>
      </trkpt>
      <trkpt lat="50.474004037678242" lon="12.514890963211656">
        <ele>587.5</ele>
        <time>2024-09-19T16:31:47Z</time>
      </trkpt>
      <trkpt lat="50.474081989377737" lon="12.51485500484705">
        <ele>586.53999999999996</ele>
        <time>2024-09-19T16:31:48Z</time>
      </trkpt>
      <trkpt lat="50.474151978269219" lon="12.514815023168921">
        <ele>585.58000000000004</ele>
        <time>2024-09-19T16:31:49Z</time>
      </trkpt>
      <trkpt lat="50.474215010181069" lon="12.514779986813664">
        <ele>584.62</ele>
        <time>2024-09-19T16:31:50Z</time>
      </trkpt>
      <trkpt lat="50.474265972152352" lon="12.514750985428691">
        <ele>583.65999999999997</ele>
        <time>2024-09-19T16:31:51Z</time>
      </trkpt>
      <trkpt lat="50.474349958822131" lon="12.514703962951899">
        <ele>582.22000000000003</ele>
        <time>2024-09-19T16:31:53Z</time>
      </trkpt>
      <trkpt lat="50.474359011277556" lon="12.514746962115169">
        <ele>581.25</ele>
        <time>2024-09-19T16:31:54Z</time>
      </trkpt>
      <trkpt lat="50.474365968257189" lon="12.514702035114169">
        <ele>580.76999999999998</ele>
        <time>2024-09-19T16:31:55Z</time>
      </trkpt>
      <trkpt lat="50.47436797991395" lon="12.514693988487124">
        <ele>579.80999999999995</ele>
        <time>2024-09-19T16:31:56Z</time>
      </trkpt>
      <trkpt lat="50.47436797991395" lon="12.514693988487124">
        <ele>578.85000000000002</ele>
        <time>2024-09-19T16:31:57Z</time>
      </trkpt>
      <trkpt lat="50.474355993792415" lon="12.514701029285789">
        <ele>577.88999999999999</ele>
        <time>2024-09-19T16:31:58Z</time>
      </trkpt>
      <trkpt lat="50.474292961880565" lon="12.514735981822014">
        <ele>577.40999999999997</ele>
        <time>2024-09-19T16:31:59Z</time>
      </trkpt>
      <trkpt lat="50.474212998524308" lon="12.514780992642045">
        <ele>576.45000000000005</ele>
        <time>2024-09-19T16:32:00Z</time>
      </trkpt>
      <trkpt lat="50.474117025732994" lon="12.51483497209847">
        <ele>576.45000000000005</ele>
        <time>2024-09-19T16:32:01Z</time>
      </trkpt>
      <trkpt lat="50.473991967737675" lon="12.514892974868417">
        <ele>575.97000000000003</ele>
        <time>2024-09-19T16:32:02Z</time>
      </trkpt>
      <trkpt lat="50.473862970247865" lon="12.514916025102139">
        <ele>575.97000000000003</ele>
        <time>2024-09-19T16:32:03Z</time>
      </trkpt>
      <trkpt lat="50.473703965544701" lon="12.514905966818333">
        <ele>575.97000000000003</ele>
        <time>2024-09-19T16:32:04Z</time>
      </trkpt>
      <trkpt lat="50.473544038832188" lon="12.51483203843236">
        <ele>575.97000000000003</ele>
        <time>2024-09-19T16:32:05Z</time>
      </trkpt>
      <trkpt lat="50.473374975845218" lon="12.514731036499143">
        <ele>576.45000000000005</ele>
        <time>2024-09-19T16:32:06Z</time>
      </trkpt>
      <trkpt lat="50.473245978355408" lon="12.514581000432372">
        <ele>576.92999999999995</ele>
        <time>2024-09-19T16:32:07Z</time>
      </trkpt>
      <trkpt lat="50.47310097143054" lon="12.514413027092814">
        <ele>577.40999999999997</ele>
        <time>2024-09-19T16:32:08Z</time>
      </trkpt>
      <trkpt lat="50.472982032224536" lon="12.514219991862774">
        <ele>577.88999999999999</ele>
        <time>2024-09-19T16:32:09Z</time>
      </trkpt>
      <trkpt lat="50.472157001495361" lon="12.51304903998971">
        <ele>581.73000000000002</ele>
        <time>2024-09-19T16:32:15Z</time>
      </trkpt>
      <trkpt lat="50.472029009833932" lon="12.512909984216094">
        <ele>582.70000000000005</ele>
        <time>2024-09-19T16:32:16Z</time>
      </trkpt>
      <trkpt lat="50.471878973767161" lon="12.512848963961005">
        <ele>584.13999999999999</ele>
        <time>2024-09-19T16:32:17Z</time>
      </trkpt>
      <trkpt lat="50.471718963235617" lon="12.512848963961005">
        <ele>585.10000000000002</ele>
        <time>2024-09-19T16:32:18Z</time>
      </trkpt>
      <trkpt lat="50.47155199572444" lon="12.512848963961005">
        <ele>586.05999999999995</ele>
        <time>2024-09-19T16:32:19Z</time>
      </trkpt>
      <trkpt lat="50.471372036263347" lon="12.512848963961005">
        <ele>586.53999999999996</ele>
        <time>2024-09-19T16:32:20Z</time>
      </trkpt>
      <trkpt lat="50.471200039610267" lon="12.512839995324612">
        <ele>587.5</ele>
        <time>2024-09-19T16:32:21Z</time>
      </trkpt>
      <trkpt lat="50.47103701159358" lon="12.512799007818103">
        <ele>588.46000000000004</ele>
        <time>2024-09-19T16:32:22Z</time>
      </trkpt>
      <trkpt lat="50.470889993011951" lon="12.512697000056505">
        <ele>589.42999999999995</ele>
        <time>2024-09-19T16:32:23Z</time>
      </trkpt>
      <trkpt lat="50.470783961936831" lon="12.512590968981385">
        <ele>590.38999999999999</ele>
        <time>2024-09-19T16:32:24Z</time>
      </trkpt>
      <trkpt lat="50.470624035224319" lon="12.512345965951681">
        <ele>591.35000000000002</ele>
        <time>2024-09-19T16:32:25Z</time>
      </trkpt>
      <trkpt lat="50.470462013036013" lon="12.512098029255867">
        <ele>592.30999999999995</ele>
        <time>2024-09-19T16:32:26Z</time>
      </trkpt>
      <trkpt lat="50.470366962254047" lon="12.511866018176079">
        <ele>593.75</ele>
        <time>2024-09-19T16:32:27Z</time>
      </trkpt>
      <trkpt lat="50.470255985856056" lon="12.511594025418162">
        <ele>594.23000000000002</ele>
        <time>2024-09-19T16:32:28Z</time>
      </trkpt>
      <trkpt lat="50.470064962282777" lon="12.511041993275285">
        <ele>595.66999999999996</ele>
        <time>2024-09-19T16:32:30Z</time>
      </trkpt>
      <trkpt lat="50.469990028068423" lon="12.510743010789156">
        <ele>596.14999999999998</ele>
        <time>2024-09-19T16:32:31Z</time>
      </trkpt>
      <trkpt lat="50.469924984499812" lon="12.510432964190841">
        <ele>597.12</ele>
        <time>2024-09-19T16:32:32Z</time>
      </trkpt>
      <trkpt lat="50.469671012833714" lon="12.509155981242657">
        <ele>600</ele>
        <time>2024-09-19T16:32:36Z</time>
      </trkpt>
      <trkpt lat="50.469566993415356" lon="12.50890402123332">
        <ele>600.96000000000004</ele>
        <time>2024-09-19T16:32:37Z</time>
      </trkpt>
      <trkpt lat="50.46946900896728" lon="12.508666981011629">
        <ele>601.91999999999996</ele>
        <time>2024-09-19T16:32:38Z</time>
      </trkpt>
      <trkpt lat="50.469326013699174" lon="12.508472017943859">
        <ele>603.36000000000001</ele>
        <time>2024-09-19T16:32:39Z</time>
      </trkpt>
      <trkpt lat="50.469175977632403" lon="12.508321981877089">
        <ele>603.85000000000002</ele>
        <time>2024-09-19T16:32:40Z</time>
      </trkpt>
      <trkpt lat="50.469000041484833" lon="12.508212011307478">
        <ele>604.33000000000004</ele>
        <time>2024-09-19T16:32:41Z</time>
      </trkpt>
      <trkpt lat="50.468810023739934" lon="12.508135987445712">
        <ele>604.80999999999995</ele>
        <time>2024-09-19T16:32:42Z</time>
      </trkpt>
      <trkpt lat="50.468599973246455" lon="12.508128024637699">
        <ele>604.80999999999995</ele>
        <time>2024-09-19T16:32:43Z</time>
      </trkpt>
      <trkpt lat="50.468384977430105" lon="12.508136993274093">
        <ele>605.28999999999996</ele>
        <time>2024-09-19T16:32:44Z</time>
      </trkpt>
      <trkpt lat="50.46817903406918" lon="12.508184015750885">
        <ele>605.28999999999996</ele>
        <time>2024-09-19T16:32:45Z</time>
      </trkpt>
      <trkpt lat="50.46779103577137" lon="12.508305972442031">
        <ele>605.28999999999996</ele>
        <time>2024-09-19T16:32:47Z</time>
      </trkpt>
      <trkpt lat="50.467611998319626" lon="12.508426001295447">
        <ele>605.28999999999996</ele>
        <time>2024-09-19T16:32:48Z</time>
      </trkpt>
      <trkpt lat="50.467432960867882" lon="12.50855902209878">
        <ele>605.28999999999996</ele>
        <time>2024-09-19T16:32:49Z</time>
      </trkpt>
      <trkpt lat="50.467106988653541" lon="12.508870996534824">
        <ele>605.76999999999998</ele>
        <time>2024-09-19T16:32:51Z</time>
      </trkpt>
      <trkpt lat="50.466970028355718" lon="12.509003011509776">
        <ele>605.28999999999996</ele>
        <time>2024-09-19T16:32:52Z</time>
      </trkpt>
      <trkpt lat="50.466809011995792" lon="12.508996976539493">
        <ele>605.28999999999996</ele>
        <time>2024-09-19T16:32:53Z</time>
      </trkpt>
      <trkpt lat="50.466664005070925" lon="12.508985996246338">
        <ele>605.28999999999996</ele>
        <time>2024-09-19T16:32:54Z</time>
      </trkpt>
      <trkpt lat="50.466517992317677" lon="12.508889017626643">
        <ele>605.28999999999996</ele>
        <time>2024-09-19T16:32:55Z</time>
      </trkpt>
      <trkpt lat="50.466390000656247" lon="12.508787009865046">
        <ele>605.28999999999996</ele>
        <time>2024-09-19T16:32:56Z</time>
      </trkpt>
      <trkpt lat="50.466269971802831" lon="12.508597997948527">
        <ele>604.80999999999995</ele>
        <time>2024-09-19T16:32:57Z</time>
      </trkpt>
      <trkpt lat="50.466149020940065" lon="12.508406974375248">
        <ele>604.80999999999995</ele>
        <time>2024-09-19T16:32:58Z</time>
      </trkpt>
      <trkpt lat="50.466049024835229" lon="12.508163983002305">
        <ele>604.80999999999995</ele>
        <time>2024-09-19T16:32:59Z</time>
      </trkpt>
      <trkpt lat="50.465731015428901" lon="12.507072994485497">
        <ele>603.85000000000002</ele>
        <time>2024-09-19T16:33:03Z</time>
      </trkpt>
      <trkpt lat="50.465725986286998" lon="12.506779041141272">
        <ele>603.85000000000002</ele>
        <time>2024-09-19T16:33:04Z</time>
      </trkpt>
      <trkpt lat="50.465734032914042" lon="12.506471006199718">
        <ele>603.85000000000002</ele>
        <time>2024-09-19T16:33:05Z</time>
      </trkpt>
      <trkpt lat="50.465741995722055" lon="12.50619700178504">
        <ele>603.36000000000001</ele>
        <time>2024-09-19T16:33:06Z</time>
      </trkpt>
      <trkpt lat="50.465833023190498" lon="12.505901036784053">
        <ele>602.88</ele>
        <time>2024-09-19T16:33:07Z</time>
      </trkpt>
      <trkpt lat="50.465920027345419" lon="12.505622003227472">
        <ele>602.88</ele>
        <time>2024-09-19T16:33:08Z</time>
      </trkpt>
      <trkpt lat="50.466021029278636" lon="12.505295025184751">
        <ele>602.88</ele>
        <time>2024-09-19T16:33:09Z</time>
      </trkpt>
      <trkpt lat="50.466126976534724" lon="12.505169967189431">
        <ele>602.39999999999998</ele>
        <time>2024-09-19T16:33:10Z</time>
      </trkpt>
      <trkpt lat="50.46626896597445" lon="12.505010962486267">
        <ele>602.39999999999998</ele>
        <time>2024-09-19T16:33:11Z</time>
      </trkpt>
      <trkpt lat="50.466446997597814" lon="12.504930999130011">
        <ele>601.91999999999996</ele>
        <time>2024-09-19T16:33:12Z</time>
      </trkpt>
      <trkpt lat="50.466633997857571" lon="12.504846006631851">
        <ele>601.91999999999996</ele>
        <time>2024-09-19T16:33:13Z</time>
      </trkpt>
      <trkpt lat="50.466831978410482" lon="12.504756990820169">
        <ele>601.44000000000005</ele>
        <time>2024-09-19T16:33:14Z</time>
      </trkpt>
      <trkpt lat="50.468064034357667" lon="12.504017958417535">
        <ele>600.48000000000002</ele>
        <time>2024-09-19T16:33:20Z</time>
      </trkpt>
      <trkpt lat="50.468449015170336" lon="12.503671031445265">
        <ele>600</ele>
        <time>2024-09-19T16:33:22Z</time>
      </trkpt>
      <trkpt lat="50.46863199211657" lon="12.503474978730083">
        <ele>600</ele>
        <time>2024-09-19T16:33:23Z</time>
      </trkpt>
      <trkpt lat="50.468807006254792" lon="12.503225030377507">
        <ele>600</ele>
        <time>2024-09-19T16:33:24Z</time>
      </trkpt>
      <trkpt lat="50.468982020393014" lon="12.5029749982059">
        <ele>600</ele>
        <time>2024-09-19T16:33:25Z</time>
      </trkpt>
      <trkpt lat="50.469156028702855" lon="12.502725971862674">
        <ele>599.51999999999998</ele>
        <time>2024-09-19T16:33:26Z</time>
      </trkpt>
      <trkpt lat="50.469754999503493" lon="12.501714024692774">
        <ele>599.51999999999998</ele>
        <time>2024-09-19T16:33:30Z</time>
      </trkpt>
      <trkpt lat="50.469857007265091" lon="12.501487964764237">
        <ele>599.51999999999998</ele>
        <time>2024-09-19T16:33:31Z</time>
      </trkpt>
      <trkpt lat="50.469905035570264" lon="12.501218989491463">
        <ele>599.51999999999998</ele>
        <time>2024-09-19T16:33:32Z</time>
      </trkpt>
      <trkpt lat="50.469905035570264" lon="12.500966023653746">
        <ele>600</ele>
        <time>2024-09-19T16:33:33Z</time>
      </trkpt>
      <trkpt lat="50.469862036406994" lon="12.500724960118532">
        <ele>600.48000000000002</ele>
        <time>2024-09-19T16:33:34Z</time>
      </trkpt>
      <trkpt lat="50.469767991453409" lon="12.500442992895842">
        <ele>600.96000000000004</ele>
        <time>2024-09-19T16:33:35Z</time>
      </trkpt>
      <trkpt lat="50.469675958156586" lon="12.500167982652783">
        <ele>601.44000000000005</ele>
        <time>2024-09-19T16:33:36Z</time>
      </trkpt>
      <trkpt lat="50.469570010900497" lon="12.49988098628819">
        <ele>601.91999999999996</ele>
        <time>2024-09-19T16:33:37Z</time>
      </trkpt>
      <trkpt lat="50.468539958819747" lon="12.4977339617908">
        <ele>604.33000000000004</ele>
        <time>2024-09-19T16:33:45Z</time>
      </trkpt>
      <trkpt lat="50.468175010755658" lon="12.496887976303697">
        <ele>604.80999999999995</ele>
        <time>2024-09-19T16:33:48Z</time>
      </trkpt>
      <trkpt lat="50.468107033520937" lon="12.496611038222909">
        <ele>604.80999999999995</ele>
        <time>2024-09-19T16:33:49Z</time>
      </trkpt>
      <trkpt lat="50.468068979680538" lon="12.496330998837948">
        <ele>604.80999999999995</ele>
        <time>2024-09-19T16:33:50Z</time>
      </trkpt>
      <trkpt lat="50.468025980517268" lon="12.496059006080031">
        <ele>605.28999999999996</ele>
        <time>2024-09-19T16:33:51Z</time>
      </trkpt>
      <trkpt lat="50.467984993010759" lon="12.495802016928792">
        <ele>605.28999999999996</ele>
        <time>2024-09-19T16:33:52Z</time>
      </trkpt>
      <trkpt lat="50.46794299967587" lon="12.49556003138423">
        <ele>605.28999999999996</ele>
        <time>2024-09-19T16:33:53Z</time>
      </trkpt>
      <trkpt lat="50.467890026047826" lon="12.495334977284074">
        <ele>605.28999999999996</ele>
        <time>2024-09-19T16:33:54Z</time>
      </trkpt>
      <trkpt lat="50.467804027721286" lon="12.495114030316472">
        <ele>604.80999999999995</ele>
        <time>2024-09-19T16:33:55Z</time>
      </trkpt>
      <trkpt lat="50.467695984989405" lon="12.494905991479754">
        <ele>604.80999999999995</ele>
        <time>2024-09-19T16:33:56Z</time>
      </trkpt>
      <trkpt lat="50.467561958357692" lon="12.494701975956559">
        <ele>604.80999999999995</ele>
        <time>2024-09-19T16:33:57Z</time>
      </trkpt>
      <trkpt lat="50.467409994453192" lon="12.494584964588284">
        <ele>604.80999999999995</ele>
        <time>2024-09-19T16:33:58Z</time>
      </trkpt>
      <trkpt lat="50.467258030548692" lon="12.494468037039042">
        <ele>604.80999999999995</ele>
        <time>2024-09-19T16:33:59Z</time>
      </trkpt>
      <trkpt lat="50.467107994481921" lon="12.494352031499147">
        <ele>604.80999999999995</ele>
        <time>2024-09-19T16:34:00Z</time>
      </trkpt>
      <trkpt lat="50.466813035309315" lon="12.494094958528876">
        <ele>604.80999999999995</ele>
        <time>2024-09-19T16:34:02Z</time>
      </trkpt>
      <trkpt lat="50.466682026162744" lon="12.49390703625977">
        <ele>604.33000000000004</ele>
        <time>2024-09-19T16:34:03Z</time>
      </trkpt>
      <trkpt lat="50.466407015919685" lon="12.493511997163296">
        <ele>604.33000000000004</ele>
        <time>2024-09-19T16:34:05Z</time>
      </trkpt>
      <trkpt lat="50.466235019266605" lon="12.493348969146609">
        <ele>604.80999999999995</ele>
        <time>2024-09-19T16:34:06Z</time>
      </trkpt>
      <trkpt lat="50.464728958904743" lon="12.492154967039824">
        <ele>609.13</ele>
        <time>2024-09-19T16:34:14Z</time>
      </trkpt>
      <trkpt lat="50.463658003136516" lon="12.491310993209481">
        <ele>610.57000000000005</ele>
        <time>2024-09-19T16:34:21Z</time>
      </trkpt>
      <trkpt lat="50.462270965799689" lon="12.490531979128718">
        <ele>612.98000000000002</ele>
        <time>2024-09-19T16:34:32Z</time>
      </trkpt>
      <trkpt lat="50.461191041395068" lon="12.490188991650939">
        <ele>613.94000000000005</ele>
        <time>2024-09-19T16:34:41Z</time>
      </trkpt>
      <trkpt lat="50.460170041769743" lon="12.490209024399519">
        <ele>613.94000000000005</ele>
        <time>2024-09-19T16:34:49Z</time>
      </trkpt>
      <trkpt lat="50.460043977946043" lon="12.490180023014545">
        <ele>613.94000000000005</ele>
        <time>2024-09-19T16:34:50Z</time>
      </trkpt>
      <trkpt lat="50.459921015426517" lon="12.490129983052611">
        <ele>614.41999999999996</ele>
        <time>2024-09-19T16:34:51Z</time>
      </trkpt>
      <trkpt lat="50.458989031612873" lon="12.489686999469995">
        <ele>614.41999999999996</ele>
        <time>2024-09-19T16:34:59Z</time>
      </trkpt>
      <trkpt lat="50.458878977224231" lon="12.489621033892035">
        <ele>614.41999999999996</ele>
        <time>2024-09-19T16:35:00Z</time>
      </trkpt>
      <trkpt lat="50.458761965855956" lon="12.489513996988535">
        <ele>614.89999999999998</ele>
        <time>2024-09-19T16:35:01Z</time>
      </trkpt>
      <trkpt lat="50.458676973357797" lon="12.489351974800229">
        <ele>614.89999999999998</ele>
        <time>2024-09-19T16:35:02Z</time>
      </trkpt>
      <trkpt lat="50.458588041365147" lon="12.48918198980391">
        <ele>614.89999999999998</ele>
        <time>2024-09-19T16:35:03Z</time>
      </trkpt>
      <trkpt lat="50.457907011732459" lon="12.487619016319513">
        <ele>617.29999999999995</ele>
        <time>2024-09-19T16:35:10Z</time>
      </trkpt>
      <trkpt lat="50.45747802592814" lon="12.486498020589352">
        <ele>618.75</ele>
        <time>2024-09-19T16:35:14Z</time>
      </trkpt>
      <trkpt lat="50.456992965191603" lon="12.484015971422195">
        <ele>621.14999999999998</ele>
        <time>2024-09-19T16:35:21Z</time>
      </trkpt>
      <trkpt lat="50.45679397881031" lon="12.482850970700383">
        <ele>622.59000000000003</ele>
        <time>2024-09-19T16:35:24Z</time>
      </trkpt>
      <trkpt lat="50.456689037382603" lon="12.482522986829281">
        <ele>623.07000000000005</ele>
        <time>2024-09-19T16:35:25Z</time>
      </trkpt>
      <trkpt lat="50.456565991044044" lon="12.482192991301417">
        <ele>623.54999999999995</ele>
        <time>2024-09-19T16:35:26Z</time>
      </trkpt>
      <trkpt lat="50.456430958583951" lon="12.481903983280063">
        <ele>624.02999999999997</ele>
        <time>2024-09-19T16:35:27Z</time>
      </trkpt>
      <trkpt lat="50.456301039084792" lon="12.481637019664049">
        <ele>624.02999999999997</ele>
        <time>2024-09-19T16:35:28Z</time>
      </trkpt>
      <trkpt lat="50.456156032159925" lon="12.48142596334219">
        <ele>624.02999999999997</ele>
        <time>2024-09-19T16:35:29Z</time>
      </trkpt>
      <trkpt lat="50.456010019406676" lon="12.481242986395955">
        <ele>624.50999999999999</ele>
        <time>2024-09-19T16:35:30Z</time>
      </trkpt>
      <trkpt lat="50.45587096363306" lon="12.481069983914495">
        <ele>624.50999999999999</ele>
        <time>2024-09-19T16:35:31Z</time>
      </trkpt>
      <trkpt lat="50.455726962536573" lon="12.480933023616672">
        <ele>624.99000000000001</ele>
        <time>2024-09-19T16:35:32Z</time>
      </trkpt>
      <trkpt lat="50.454690037295222" lon="12.48032902367413">
        <ele>626.44000000000005</ele>
        <time>2024-09-19T16:35:39Z</time>
      </trkpt>
      <trkpt lat="50.453166961669922" lon="12.479954017326236">
        <ele>624.50999999999999</ele>
        <time>2024-09-19T16:35:49Z</time>
      </trkpt>
      <trkpt lat="50.452163983136415" lon="12.479132004082203">
        <ele>624.99000000000001</ele>
        <time>2024-09-19T16:35:57Z</time>
      </trkpt>
      <trkpt lat="50.450738975778222" lon="12.477553021162748">
        <ele>625.96000000000004</ele>
        <time>2024-09-19T16:36:09Z</time>
      </trkpt>
      <trkpt lat="50.450649037957191" lon="12.477393010631204">
        <ele>626.44000000000005</ele>
        <time>2024-09-19T16:36:10Z</time>
      </trkpt>
      <trkpt lat="50.450425995513797" lon="12.47689001262188">
        <ele>626.91999999999996</ele>
        <time>2024-09-19T16:36:13Z</time>
      </trkpt>
      <trkpt lat="50.450246036052704" lon="12.476081997156143">
        <ele>626.91999999999996</ele>
        <time>2024-09-19T16:36:18Z</time>
      </trkpt>
      <trkpt lat="50.450230026617646" lon="12.475898014381528">
        <ele>626.91999999999996</ele>
        <time>2024-09-19T16:36:19Z</time>
      </trkpt>
      <trkpt lat="50.450236983597279" lon="12.475706990808249">
        <ele>626.91999999999996</ele>
        <time>2024-09-19T16:36:20Z</time>
      </trkpt>
      <trkpt lat="50.450244024395943" lon="12.475518984720111">
        <ele>627.39999999999998</ele>
        <time>2024-09-19T16:36:21Z</time>
      </trkpt>
      <trkpt lat="50.450255004689097" lon="12.475330978631973">
        <ele>627.39999999999998</ele>
        <time>2024-09-19T16:36:22Z</time>
      </trkpt>
      <trkpt lat="50.450607966631651" lon="12.473150007426739">
        <ele>629.79999999999995</ele>
        <time>2024-09-19T16:36:34Z</time>
      </trkpt>
      <trkpt lat="50.450648032128811" lon="12.471260977908969">
        <ele>634.13</ele>
        <time>2024-09-19T16:36:44Z</time>
      </trkpt>
      <trkpt lat="50.450635962188244" lon="12.470700982958078">
        <ele>636.04999999999995</ele>
        <time>2024-09-19T16:36:47Z</time>
      </trkpt>
      <trkpt lat="50.450579971075058" lon="12.470524962991476">
        <ele>636.52999999999997</ele>
        <time>2024-09-19T16:36:48Z</time>
      </trkpt>
      <trkpt lat="50.450522974133492" lon="12.47035900130868">
        <ele>637.00999999999999</ele>
        <time>2024-09-19T16:36:49Z</time>
      </trkpt>
      <trkpt lat="50.450462959706783" lon="12.470189016312361">
        <ele>637.49000000000001</ele>
        <time>2024-09-19T16:36:50Z</time>
      </trkpt>
      <trkpt lat="50.450372016057372" lon="12.470064964145422">
        <ele>637.97000000000003</ele>
        <time>2024-09-19T16:36:51Z</time>
      </trkpt>
      <trkpt lat="50.450278976932168" lon="12.469938984140754">
        <ele>637.97000000000003</ele>
        <time>2024-09-19T16:36:52Z</time>
      </trkpt>
      <trkpt lat="50.450112009420991" lon="12.469656011089683">
        <ele>638.45000000000005</ele>
        <time>2024-09-19T16:36:54Z</time>
      </trkpt>
      <trkpt lat="50.449562994763255" lon="12.468643980100751">
        <ele>637.97000000000003</ele>
        <time>2024-09-19T16:37:01Z</time>
      </trkpt>
      <trkpt lat="50.449412036687136" lon="12.468366958200932">
        <ele>638.45000000000005</ele>
        <time>2024-09-19T16:37:03Z</time>
      </trkpt>
      <trkpt lat="50.449329977855086" lon="12.468250030651689">
        <ele>638.45000000000005</ele>
        <time>2024-09-19T16:37:04Z</time>
      </trkpt>
      <trkpt lat="50.449262000620365" lon="12.468151962384582">
        <ele>638.45000000000005</ele>
        <time>2024-09-19T16:37:05Z</time>
      </trkpt>
      <trkpt lat="50.449199974536896" lon="12.468081973493099">
        <ele>638.92999999999995</ele>
        <time>2024-09-19T16:37:06Z</time>
      </trkpt>
      <trkpt lat="50.449224030598998" lon="12.467849962413311">
        <ele>638.92999999999995</ele>
        <time>2024-09-19T16:37:07Z</time>
      </trkpt>
      <trkpt lat="50.449280021712184" lon="12.467804029583931">
        <ele>639.40999999999997</ele>
        <time>2024-09-19T16:37:08Z</time>
      </trkpt>
      <trkpt lat="50.449355039745569" lon="12.467743009328842">
        <ele>639.40999999999997</ele>
        <time>2024-09-19T16:37:09Z</time>
      </trkpt>
      <trkpt lat="50.449441960081458" lon="12.467672014608979">
        <ele>639.88999999999999</ele>
        <time>2024-09-19T16:37:10Z</time>
      </trkpt>
      <trkpt lat="50.449538016691804" lon="12.467592973262072">
        <ele>639.88999999999999</ele>
        <time>2024-09-19T16:37:11Z</time>
      </trkpt>
      <trkpt lat="50.450744004920125" lon="12.466684961691499">
        <ele>641.34000000000003</ele>
        <time>2024-09-19T16:37:22Z</time>
      </trkpt>
      <trkpt lat="50.451816972345114" lon="12.465855991467834">
        <ele>640.38</ele>
        <time>2024-09-19T16:37:32Z</time>
      </trkpt>
      <trkpt lat="50.452029034495354" lon="12.465678965672851">
        <ele>640.86000000000001</ele>
        <time>2024-09-19T16:37:34Z</time>
      </trkpt>
      <trkpt lat="50.452932016924024" lon="12.464581020176411">
        <ele>641.82000000000005</ele>
        <time>2024-09-19T16:37:42Z</time>
      </trkpt>
      <trkpt lat="50.453684963285923" lon="12.463469998911023">
        <ele>643.74000000000001</ele>
        <time>2024-09-19T16:37:48Z</time>
      </trkpt>
      <trkpt lat="50.453798035159707" lon="12.463235976174474">
        <ele>644.22000000000003</ele>
        <time>2024-09-19T16:37:49Z</time>
      </trkpt>
      <trkpt lat="50.453896019607782" lon="12.462986027821898">
        <ele>644.70000000000005</ele>
        <time>2024-09-19T16:37:50Z</time>
      </trkpt>
      <trkpt lat="50.453974977135658" lon="12.462706994265318">
        <ele>645.17999999999995</ele>
        <time>2024-09-19T16:37:51Z</time>
      </trkpt>
      <trkpt lat="50.454030968248844" lon="12.462413962930441">
        <ele>646.13999999999999</ele>
        <time>2024-09-19T16:37:52Z</time>
      </trkpt>
      <trkpt lat="50.454059969633818" lon="12.46210902929306">
        <ele>647.10000000000002</ele>
        <time>2024-09-19T16:37:53Z</time>
      </trkpt>
      <trkpt lat="50.454087965190411" lon="12.461780039593577">
        <ele>648.54999999999995</ele>
        <time>2024-09-19T16:37:54Z</time>
      </trkpt>
      <trkpt lat="50.454058041796088" lon="12.461458006873727">
        <ele>649.50999999999999</ele>
        <time>2024-09-19T16:37:55Z</time>
      </trkpt>
      <trkpt lat="50.453999033197761" lon="12.461133962497115">
        <ele>650.95000000000005</ele>
        <time>2024-09-19T16:37:56Z</time>
      </trkpt>
      <trkpt lat="50.453928038477898" lon="12.460812013596296">
        <ele>652.38999999999999</ele>
        <time>2024-09-19T16:37:57Z</time>
      </trkpt>
      <trkpt lat="50.453814966604114" lon="12.460517976433039">
        <ele>653.35000000000002</ele>
        <time>2024-09-19T16:37:58Z</time>
      </trkpt>
      <trkpt lat="50.453695021569729" lon="12.460226034745574">
        <ele>654.79999999999995</ele>
        <time>2024-09-19T16:37:59Z</time>
      </trkpt>
      <trkpt lat="50.453573986887932" lon="12.459929985925555">
        <ele>655.75999999999999</ele>
        <time>2024-09-19T16:38:00Z</time>
      </trkpt>
      <trkpt lat="50.453325966373086" lon="12.459324980154634">
        <ele>658.63999999999999</ele>
        <time>2024-09-19T16:38:02Z</time>
      </trkpt>
      <trkpt lat="50.453172996640205" lon="12.458697007969022">
        <ele>661.51999999999998</ele>
        <time>2024-09-19T16:38:04Z</time>
      </trkpt>
      <trkpt lat="50.453123962506652" lon="12.458357037976384">
        <ele>662.97000000000003</ele>
        <time>2024-09-19T16:38:05Z</time>
      </trkpt>
      <trkpt lat="50.453111976385117" lon="12.458040034398437">
        <ele>664.40999999999997</ele>
        <time>2024-09-19T16:38:06Z</time>
      </trkpt>
      <trkpt lat="50.453137038275599" lon="12.457711966708302">
        <ele>665.37</ele>
        <time>2024-09-19T16:38:07Z</time>
      </trkpt>
      <trkpt lat="50.453194035217166" lon="12.457374008372426">
        <ele>666.80999999999995</ele>
        <time>2024-09-19T16:38:08Z</time>
      </trkpt>
      <trkpt lat="50.453265029937029" lon="12.457058010622859">
        <ele>668.25</ele>
        <time>2024-09-19T16:38:09Z</time>
      </trkpt>
      <trkpt lat="50.453382041305304" lon="12.456747964024544">
        <ele>669.70000000000005</ele>
        <time>2024-09-19T16:38:10Z</time>
      </trkpt>
      <trkpt lat="50.453506009653211" lon="12.456463985145092">
        <ele>670.65999999999997</ele>
        <time>2024-09-19T16:38:11Z</time>
      </trkpt>
      <trkpt lat="50.453669037669897" lon="12.456213030964136">
        <ele>672.10000000000002</ele>
        <time>2024-09-19T16:38:12Z</time>
      </trkpt>
      <trkpt lat="50.453853020444512" lon="12.455999962985516">
        <ele>673.05999999999995</ele>
        <time>2024-09-19T16:38:13Z</time>
      </trkpt>
      <trkpt lat="50.45406399294734" lon="12.455816986039281">
        <ele>674.5</ele>
        <time>2024-09-19T16:38:14Z</time>
      </trkpt>
      <trkpt lat="50.454274965450168" lon="12.455633003264666">
        <ele>675.94000000000005</ele>
        <time>2024-09-19T16:38:15Z</time>
      </trkpt>
      <trkpt lat="50.456807976588607" lon="12.453555967658758">
        <ele>687.96000000000004</ele>
        <time>2024-09-19T16:38:26Z</time>
      </trkpt>
      <trkpt lat="50.458384025841951" lon="12.452086033299565">
        <ele>693.73000000000002</ele>
        <time>2024-09-19T16:38:33Z</time>
      </trkpt>
      <trkpt lat="50.458561973646283" lon="12.451776992529631">
        <ele>694.69000000000005</ele>
        <time>2024-09-19T16:38:34Z</time>
      </trkpt>
      <trkpt lat="50.458731036633253" lon="12.451457977294922">
        <ele>695.16999999999996</ele>
        <time>2024-09-19T16:38:35Z</time>
      </trkpt>
      <trkpt lat="50.458878977224231" lon="12.45110702700913">
        <ele>696.13</ele>
        <time>2024-09-19T16:38:36Z</time>
      </trkpt>
      <trkpt lat="50.45900596305728" lon="12.450737971812487">
        <ele>696.61000000000001</ele>
        <time>2024-09-19T16:38:37Z</time>
      </trkpt>
      <trkpt lat="50.459119034931064" lon="12.450360031798482">
        <ele>697.09000000000003</ele>
        <time>2024-09-19T16:38:38Z</time>
      </trkpt>
      <trkpt lat="50.459206039085984" lon="12.44996901601553">
        <ele>698.04999999999995</ele>
        <time>2024-09-19T16:38:39Z</time>
      </trkpt>
      <trkpt lat="50.459257001057267" lon="12.449556961655617">
        <ele>698.52999999999997</ele>
        <time>2024-09-19T16:38:40Z</time>
      </trkpt>
      <trkpt lat="50.459302011877298" lon="12.449139039963484">
        <ele>699.5</ele>
        <time>2024-09-19T16:38:41Z</time>
      </trkpt>
      <trkpt lat="50.460075996816158" lon="12.446492034941912">
        <ele>702.38</ele>
        <time>2024-09-19T16:38:48Z</time>
      </trkpt>
      <trkpt lat="50.460952995344996" lon="12.444459004327655">
        <ele>704.29999999999995</ele>
        <time>2024-09-19T16:38:54Z</time>
      </trkpt>
      <trkpt lat="50.462522003799677" lon="12.442011991515756">
        <ele>703.34000000000003</ele>
        <time>2024-09-19T16:39:02Z</time>
      </trkpt>
      <trkpt lat="50.464682020246983" lon="12.438901970162988">
        <ele>697.09000000000003</ele>
        <time>2024-09-19T16:39:12Z</time>
      </trkpt>
      <trkpt lat="50.467681987211108" lon="12.434612028300762">
        <ele>685.55999999999995</ele>
        <time>2024-09-19T16:39:26Z</time>
      </trkpt>
      <trkpt lat="50.469274967908859" lon="12.432963978499174">
        <ele>680.75</ele>
        <time>2024-09-19T16:39:33Z</time>
      </trkpt>
      <trkpt lat="50.470380038022995" lon="12.432472966611385">
        <ele>679.78999999999996</ele>
        <time>2024-09-19T16:39:39Z</time>
      </trkpt>
      <trkpt lat="50.472287004813552" lon="12.432327037677169">
        <ele>680.26999999999998</ele>
        <time>2024-09-19T16:39:47Z</time>
      </trkpt>
      <trkpt lat="50.474442997947335" lon="12.432228969410062">
        <ele>677.38999999999999</ele>
        <time>2024-09-19T16:39:55Z</time>
      </trkpt>
      <trkpt lat="50.475961966440082" lon="12.432646974921227">
        <ele>676.41999999999996</ele>
        <time>2024-09-19T16:40:02Z</time>
      </trkpt>
      <trkpt lat="50.477714035660028" lon="12.433500001206994">
        <ele>675.46000000000004</ele>
        <time>2024-09-19T16:40:11Z</time>
      </trkpt>
      <trkpt lat="50.479008033871651" lon="12.433858998119831">
        <ele>674.01999999999998</ele>
        <time>2024-09-19T16:40:17Z</time>
      </trkpt>
      <trkpt lat="50.480662034824491" lon="12.433821028098464">
        <ele>667.28999999999996</ele>
        <time>2024-09-19T16:40:24Z</time>
      </trkpt>
      <trkpt lat="50.481108035892248" lon="12.433912977576256">
        <ele>664.40999999999997</ele>
        <time>2024-09-19T16:40:26Z</time>
      </trkpt>
      <trkpt lat="50.481320014223456" lon="12.433995958417654">
        <ele>662.97000000000003</ele>
        <time>2024-09-19T16:40:27Z</time>
      </trkpt>
      <trkpt lat="50.481525035575032" lon="12.434108024463058">
        <ele>661.51999999999998</ele>
        <time>2024-09-19T16:40:28Z</time>
      </trkpt>
      <trkpt lat="50.482091987505555" lon="12.434421004727483">
        <ele>656.72000000000003</ele>
        <time>2024-09-19T16:40:31Z</time>
      </trkpt>
      <trkpt lat="50.48231896944344" lon="12.434442965313792">
        <ele>654.79999999999995</ele>
        <time>2024-09-19T16:40:32Z</time>
      </trkpt>
      <trkpt lat="50.482516027987003" lon="12.434462998062372">
        <ele>652.38999999999999</ele>
        <time>2024-09-19T16:40:33Z</time>
      </trkpt>
      <trkpt lat="50.482708979398012" lon="12.434453023597598">
        <ele>649.99000000000001</ele>
        <time>2024-09-19T16:40:34Z</time>
      </trkpt>
      <trkpt lat="50.482886005192995" lon="12.434441959485412">
        <ele>648.07000000000005</ele>
        <time>2024-09-19T16:40:35Z</time>
      </trkpt>
      <trkpt lat="50.483085997402668" lon="12.434349004179239">
        <ele>646.13999999999999</ele>
        <time>2024-09-19T16:40:36Z</time>
      </trkpt>
      <trkpt lat="50.483268974348903" lon="12.43426401168108">
        <ele>643.74000000000001</ele>
        <time>2024-09-19T16:40:37Z</time>
      </trkpt>
      <trkpt lat="50.483439965173602" lon="12.434184970334172">
        <ele>641.82000000000005</ele>
        <time>2024-09-19T16:40:38Z</time>
      </trkpt>
      <trkpt lat="50.48457495868206" lon="12.433630004525185">
        <ele>631.24000000000001</ele>
        <time>2024-09-19T16:40:46Z</time>
      </trkpt>
      <trkpt lat="50.485967025160789" lon="12.432850990444422">
        <ele>624.02999999999997</ele>
        <time>2024-09-19T16:40:58Z</time>
      </trkpt>
      <trkpt lat="50.486942008137703" lon="12.431803001090884">
        <ele>618.75</ele>
        <time>2024-09-19T16:41:08Z</time>
      </trkpt>
      <trkpt lat="50.487122973427176" lon="12.431559003889561">
        <ele>618.25999999999999</ele>
        <time>2024-09-19T16:41:10Z</time>
      </trkpt>
      <trkpt lat="50.487215006724" lon="12.431434029713273">
        <ele>617.77999999999997</ele>
        <time>2024-09-19T16:41:11Z</time>
      </trkpt>
      <trkpt lat="50.488270036876202" lon="12.430557031184435">
        <ele>612.98000000000002</ele>
        <time>2024-09-19T16:41:21Z</time>
      </trkpt>
      <trkpt lat="50.489387009292841" lon="12.430271962657571">
        <ele>608.64999999999998</ele>
        <time>2024-09-19T16:41:29Z</time>
      </trkpt>
      <trkpt lat="50.49043801613152" lon="12.429672991856933">
        <ele>604.33000000000004</ele>
        <time>2024-09-19T16:41:35Z</time>
      </trkpt>
      <trkpt lat="50.49151299521327" lon="12.428403971716762">
        <ele>598.55999999999995</ele>
        <time>2024-09-19T16:41:41Z</time>
      </trkpt>
      <trkpt lat="50.493097007274628" lon="12.425411967560649">
        <ele>587.98000000000002</ele>
        <time>2024-09-19T16:41:51Z</time>
      </trkpt>
      <trkpt lat="50.494162011891603" lon="12.423416990786791">
        <ele>582.22000000000003</ele>
        <time>2024-09-19T16:41:59Z</time>
      </trkpt>
      <trkpt lat="50.49520798958838" lon="12.421796014532447">
        <ele>576.92999999999995</ele>
        <time>2024-09-19T16:42:07Z</time>
      </trkpt>
      <trkpt lat="50.496171992272139" lon="12.420525988563895">
        <ele>571.15999999999997</ele>
        <time>2024-09-19T16:42:16Z</time>
      </trkpt>
      <trkpt lat="50.497383009642363" lon="12.419339027255774">
        <ele>564.42999999999995</ele>
        <time>2024-09-19T16:42:28Z</time>
      </trkpt>
      <trkpt lat="50.49866502173245" lon="12.418305035680532">
        <ele>560.11000000000001</ele>
        <time>2024-09-19T16:42:40Z</time>
      </trkpt>
      <trkpt lat="50.500202011317015" lon="12.41718496195972">
        <ele>554.82000000000005</ele>
        <time>2024-09-19T16:42:54Z</time>
      </trkpt>
      <trkpt lat="50.500531001016498" lon="12.416944988071918">
        <ele>553.38</ele>
        <time>2024-09-19T16:42:57Z</time>
      </trkpt>
      <trkpt lat="50.501915020868182" lon="12.415819969028234">
        <ele>545.69000000000005</ele>
        <time>2024-09-19T16:43:10Z</time>
      </trkpt>
      <trkpt lat="50.50317901186645" lon="12.414403008297086">
        <ele>535.11000000000001</ele>
        <time>2024-09-19T16:43:23Z</time>
      </trkpt>
      <trkpt lat="50.504346024245024" lon="12.413085037842393">
        <ele>525.98000000000002</ele>
        <time>2024-09-19T16:43:35Z</time>
      </trkpt>
      <trkpt lat="50.504568982869387" lon="12.412969032302499">
        <ele>524.05999999999995</ele>
        <time>2024-09-19T16:43:37Z</time>
      </trkpt>
      <trkpt lat="50.504679037258029" lon="12.412921003997326">
        <ele>523.09000000000003</ele>
        <time>2024-09-19T16:43:38Z</time>
      </trkpt>
      <trkpt lat="50.504791019484401" lon="12.412902982905507">
        <ele>522.13</ele>
        <time>2024-09-19T16:43:39Z</time>
      </trkpt>
      <trkpt lat="50.504911970347166" lon="12.412911029532552">
        <ele>521.16999999999996</ele>
        <time>2024-09-19T16:43:40Z</time>
      </trkpt>
      <trkpt lat="50.505039039999247" lon="12.412918992340565">
        <ele>520.21000000000004</ele>
        <time>2024-09-19T16:43:41Z</time>
      </trkpt>
      <trkpt lat="50.506146037951112" lon="12.412939025089145">
        <ele>512.51999999999998</ele>
        <time>2024-09-19T16:43:50Z</time>
      </trkpt>
      <trkpt lat="50.506382994353771" lon="12.412855960428715">
        <ele>510.60000000000002</ele>
        <time>2024-09-19T16:43:52Z</time>
      </trkpt>
      <trkpt lat="50.506476033478975" lon="12.412753030657768">
        <ele>509.63999999999999</ele>
        <time>2024-09-19T16:43:53Z</time>
      </trkpt>
      <trkpt lat="50.506574017927051" lon="12.412645993754268">
        <ele>508.67000000000002</ele>
        <time>2024-09-19T16:43:54Z</time>
      </trkpt>
      <trkpt lat="50.506656998768449" lon="12.412520013749599">
        <ele>507.70999999999998</ele>
        <time>2024-09-19T16:43:55Z</time>
      </trkpt>
      <trkpt lat="50.506739979609847" lon="12.412381041795015">
        <ele>506.75</ele>
        <time>2024-09-19T16:43:56Z</time>
      </trkpt>
      <trkpt lat="50.506823966279626" lon="12.412241986021399">
        <ele>505.79000000000002</ele>
        <time>2024-09-19T16:43:57Z</time>
      </trkpt>
      <trkpt lat="50.506962016224861" lon="12.411927999928594">
        <ele>504.35000000000002</ele>
        <time>2024-09-19T16:43:59Z</time>
      </trkpt>
      <trkpt lat="50.507245995104313" lon="12.41110104136169">
        <ele>500.01999999999998</ele>
        <time>2024-09-19T16:44:04Z</time>
      </trkpt>
      <trkpt lat="50.507338028401136" lon="12.409214023500681">
        <ele>492.81</ele>
        <time>2024-09-19T16:44:14Z</time>
      </trkpt>
      <trkpt lat="50.507439030334353" lon="12.406577998772264">
        <ele>482.24000000000001</ele>
        <time>2024-09-19T16:44:28Z</time>
      </trkpt>
      <trkpt lat="50.507436012849212" lon="12.405466977506876">
        <ele>478.38999999999999</ele>
        <time>2024-09-19T16:44:34Z</time>
      </trkpt>
      <trkpt lat="50.50741002894938" lon="12.405291963368654">
        <ele>477.91000000000003</ele>
        <time>2024-09-19T16:44:35Z</time>
      </trkpt>
      <trkpt lat="50.507101994007826" lon="12.404093015938997">
        <ele>473.11000000000001</ele>
        <time>2024-09-19T16:44:42Z</time>
      </trkpt>
      <trkpt lat="50.506555996835232" lon="12.402420993894339">
        <ele>463.49000000000001</ele>
        <time>2024-09-19T16:44:52Z</time>
      </trkpt>
      <trkpt lat="50.506270006299019" lon="12.40156402811408">
        <ele>459.64999999999998</ele>
        <time>2024-09-19T16:44:57Z</time>
      </trkpt>
      <trkpt lat="50.506192976608872" lon="12.401422960683703">
        <ele>459.17000000000002</ele>
        <time>2024-09-19T16:44:58Z</time>
      </trkpt>
      <trkpt lat="50.506041012704372" lon="12.401166977360845">
        <ele>457.72000000000003</ele>
        <time>2024-09-19T16:45:00Z</time>
      </trkpt>
      <trkpt lat="50.505959037691355" lon="12.401035968214273">
        <ele>456.75999999999999</ele>
        <time>2024-09-19T16:45:01Z</time>
      </trkpt>
      <trkpt lat="50.505877984687686" lon="12.400904959067702">
        <ele>456.27999999999997</ele>
        <time>2024-09-19T16:45:02Z</time>
      </trkpt>
      <trkpt lat="50.505795003846288" lon="12.400771016255021">
        <ele>455.31999999999999</ele>
        <time>2024-09-19T16:45:03Z</time>
      </trkpt>
      <trkpt lat="50.505707999691367" lon="12.400637995451689">
        <ele>454.83999999999997</ele>
        <time>2024-09-19T16:45:04Z</time>
      </trkpt>
      <trkpt lat="50.505600040778518" lon="12.400544034317136">
        <ele>454.36000000000001</ele>
        <time>2024-09-19T16:45:05Z</time>
      </trkpt>
      <trkpt lat="50.505493003875017" lon="12.400448983535171">
        <ele>454.36000000000001</ele>
        <time>2024-09-19T16:45:06Z</time>
      </trkpt>
      <trkpt lat="50.504987994208932" lon="12.400001976639032">
        <ele>457.72000000000003</ele>
        <time>2024-09-19T16:45:11Z</time>
      </trkpt>
      <trkpt lat="50.504563031718135" lon="12.399324970319867">
        <ele>461.56999999999999</ele>
        <time>2024-09-19T16:45:17Z</time>
      </trkpt>
      <trkpt lat="50.504536963999271" lon="12.399267973378301">
        <ele>462.05000000000001</ele>
        <time>2024-09-19T16:45:18Z</time>
      </trkpt>
      <trkpt lat="50.504522966220975" lon="12.399236960336566">
        <ele>463.00999999999999</ele>
        <time>2024-09-19T16:45:25Z</time>
      </trkpt>
      <trkpt lat="50.504522966220975" lon="12.399236960336566">
        <ele>464.44999999999999</ele>
        <time>2024-09-19T16:46:04Z</time>
      </trkpt>
      <trkpt lat="50.504538975656033" lon="12.39905197173357">
        <ele>464.93000000000001</ele>
        <time>2024-09-19T16:46:20Z</time>
      </trkpt>
      <trkpt lat="50.504576023668051" lon="12.399039985612035">
        <ele>465.42000000000002</ele>
        <time>2024-09-19T16:46:21Z</time>
      </trkpt>
      <trkpt lat="50.504637965932488" lon="12.399020958691835">
        <ele>465.42000000000002</ele>
        <time>2024-09-19T16:46:22Z</time>
      </trkpt>
      <trkpt lat="50.504719018936157" lon="12.398994974792004">
        <ele>465.42000000000002</ele>
        <time>2024-09-19T16:46:23Z</time>
      </trkpt>
      <trkpt lat="50.504817003384233" lon="12.398963961750269">
        <ele>465.42000000000002</ele>
        <time>2024-09-19T16:46:24Z</time>
      </trkpt>
      <trkpt lat="50.504927979782224" lon="12.398929009214044">
        <ele>465.42000000000002</ele>
        <time>2024-09-19T16:46:25Z</time>
      </trkpt>
      <trkpt lat="50.506076971068978" lon="12.398564983159304">
        <ele>463.00999999999999</ele>
        <time>2024-09-19T16:46:33Z</time>
      </trkpt>
      <trkpt lat="50.507072992622852" lon="12.398402960970998">
        <ele>457.72000000000003</ele>
        <time>2024-09-19T16:46:41Z</time>
      </trkpt>
      <trkpt lat="50.507323024794459" lon="12.398376977071166">
        <ele>456.75999999999999</ele>
        <time>2024-09-19T16:46:43Z</time>
      </trkpt>
      <trkpt lat="50.507454033941031" lon="12.398336995393038">
        <ele>455.80000000000001</ele>
        <time>2024-09-19T16:46:44Z</time>
      </trkpt>
      <trkpt lat="50.507578002288938" lon="12.398285027593374">
        <ele>455.31999999999999</ele>
        <time>2024-09-19T16:46:45Z</time>
      </trkpt>
      <trkpt lat="50.508279986679554" lon="12.397875990718603">
        <ele>453.88</ele>
        <time>2024-09-19T16:46:51Z</time>
      </trkpt>
      <trkpt lat="50.508398003876209" lon="12.397841960191727">
        <ele>453.39999999999998</ele>
        <time>2024-09-19T16:46:52Z</time>
      </trkpt>
      <trkpt lat="50.508497999981046" lon="12.397813964635134">
        <ele>453.39999999999998</ele>
        <time>2024-09-19T16:46:53Z</time>
      </trkpt>
      <trkpt lat="50.508803017437458" lon="12.397801978513598">
        <ele>451.48000000000002</ele>
        <time>2024-09-19T16:46:59Z</time>
      </trkpt>
      <trkpt lat="50.50915396772325" lon="12.397828968241811">
        <ele>450.02999999999997</ele>
        <time>2024-09-19T16:47:05Z</time>
      </trkpt>
      <trkpt lat="50.509539032354951" lon="12.397941034287214">
        <ele>449.55000000000001</ele>
        <time>2024-09-19T16:47:09Z</time>
      </trkpt>
      <trkpt lat="50.509642967954278" lon="12.398004988208413">
        <ele>449.55000000000001</ele>
        <time>2024-09-19T16:47:10Z</time>
      </trkpt>
      <trkpt lat="50.509757967665792" lon="12.398074977099895">
        <ele>449.06999999999999</ele>
        <time>2024-09-19T16:47:11Z</time>
      </trkpt>
      <trkpt lat="50.511225974187255" lon="12.399078961461782">
        <ele>450.02999999999997</ele>
        <time>2024-09-19T16:47:24Z</time>
      </trkpt>
      <trkpt lat="50.51198503933847" lon="12.399534014984965">
        <ele>452.44</ele>
        <time>2024-09-19T16:47:31Z</time>
      </trkpt>
      <trkpt lat="50.512055028229952" lon="12.399607021361589">
        <ele>452.92000000000002</ele>
        <time>2024-09-19T16:47:32Z</time>
      </trkpt>
      <trkpt lat="50.512104984372854" lon="12.399658989161253">
        <ele>453.39999999999998</ele>
        <time>2024-09-19T16:47:33Z</time>
      </trkpt>
      <trkpt lat="50.512187965214252" lon="12.399745993316174">
        <ele>454.83999999999997</ele>
        <time>2024-09-19T16:47:40Z</time>
      </trkpt>
      <trkpt lat="50.512283015996218" lon="12.399844983592629">
        <ele>455.80000000000001</ele>
        <time>2024-09-19T16:48:17Z</time>
      </trkpt>
      <trkpt lat="50.512391980737448" lon="12.399959983304143">
        <ele>456.75999999999999</ele>
        <time>2024-09-19T16:48:19Z</time>
      </trkpt>
      <trkpt lat="50.512453000992537" lon="12.399942968040705">
        <ele>456.75999999999999</ele>
        <time>2024-09-19T16:48:20Z</time>
      </trkpt>
      <trkpt lat="50.512519972398877" lon="12.399878008291125">
        <ele>457.24000000000001</ele>
        <time>2024-09-19T16:48:21Z</time>
      </trkpt>
      <trkpt lat="50.512603959068656" lon="12.399797961115837">
        <ele>457.24000000000001</ele>
        <time>2024-09-19T16:48:22Z</time>
      </trkpt>
      <trkpt lat="50.512692974880338" lon="12.399712968617678">
        <ele>457.72000000000003</ele>
        <time>2024-09-19T16:48:23Z</time>
      </trkpt>
      <trkpt lat="50.512790037319064" lon="12.399621019139886">
        <ele>457.72000000000003</ele>
        <time>2024-09-19T16:48:24Z</time>
      </trkpt>
      <trkpt lat="50.513739036396146" lon="12.398576969280839">
        <ele>462.52999999999997</ele>
        <time>2024-09-19T16:48:34Z</time>
      </trkpt>
      <trkpt lat="50.513832997530699" lon="12.39844998344779">
        <ele>463.97000000000003</ele>
        <time>2024-09-19T16:48:35Z</time>
      </trkpt>
      <trkpt lat="50.513916984200478" lon="12.398295002058148">
        <ele>464.44999999999999</ele>
        <time>2024-09-19T16:48:36Z</time>
      </trkpt>
      <trkpt lat="50.513965012505651" lon="12.398117976263165">
        <ele>465.42000000000002</ele>
        <time>2024-09-19T16:48:37Z</time>
      </trkpt>
      <trkpt lat="50.51400700584054" lon="12.397930976003408">
        <ele>466.38</ele>
        <time>2024-09-19T16:48:38Z</time>
      </trkpt>
      <trkpt lat="50.514027960598469" lon="12.397743975743651">
        <ele>467.33999999999997</ele>
        <time>2024-09-19T16:48:39Z</time>
      </trkpt>
      <trkpt lat="50.514051010832191" lon="12.397562004625797">
        <ele>468.30000000000001</ele>
        <time>2024-09-19T16:48:40Z</time>
      </trkpt>
      <trkpt lat="50.514101972803473" lon="12.397194961085916">
        <ele>469.25999999999999</ele>
        <time>2024-09-19T16:48:42Z</time>
      </trkpt>
      <trkpt lat="50.514123011380434" lon="12.397019024938345">
        <ele>470.69999999999999</ele>
        <time>2024-09-19T16:48:43Z</time>
      </trkpt>
      <trkpt lat="50.514217978343368" lon="12.395727960392833">
        <ele>479.35000000000002</ele>
        <time>2024-09-19T16:48:50Z</time>
      </trkpt>
      <trkpt lat="50.514239016920328" lon="12.395324958488345">
        <ele>482.72000000000003</ele>
        <time>2024-09-19T16:48:53Z</time>
      </trkpt>
      <trkpt lat="50.514247985556722" lon="12.395200990140438">
        <ele>483.68000000000001</ele>
        <time>2024-09-19T16:48:54Z</time>
      </trkpt>
      <trkpt lat="50.514286961406469" lon="12.39471098408103">
        <ele>490.41000000000003</ele>
        <time>2024-09-19T16:49:01Z</time>
      </trkpt>
      <trkpt lat="50.514291990548372" lon="12.394663039594889">
        <ele>491.85000000000002</ele>
        <time>2024-09-19T16:49:03Z</time>
      </trkpt>
      <trkpt lat="50.514296013861895" lon="12.394623979926109">
        <ele>492.81</ele>
        <time>2024-09-19T16:49:04Z</time>
      </trkpt>
      <trkpt lat="50.514302970841527" lon="12.394563965499401">
        <ele>493.76999999999998</ele>
        <time>2024-09-19T16:49:05Z</time>
      </trkpt>
      <trkpt lat="50.514321997761726" lon="12.394078988581896">
        <ele>497.62</ele>
        <time>2024-09-19T16:49:10Z</time>
      </trkpt>
      <trkpt lat="50.514355022460222" lon="12.393725020810962">
        <ele>500.5</ele>
        <time>2024-09-19T16:49:13Z</time>
      </trkpt>
      <trkpt lat="50.514400033280253" lon="12.393574984744191">
        <ele>501.45999999999998</ele>
        <time>2024-09-19T16:49:14Z</time>
      </trkpt>
      <trkpt lat="50.514533976092935" lon="12.393300980329514">
        <ele>502.91000000000003</ele>
        <time>2024-09-19T16:49:16Z</time>
      </trkpt>
      <trkpt lat="50.515181981027126" lon="12.391997007653117">
        <ele>510.60000000000002</ele>
        <time>2024-09-19T16:49:24Z</time>
      </trkpt>
      <trkpt lat="50.515196984633803" lon="12.391797015443444">
        <ele>511.07999999999998</ele>
        <time>2024-09-19T16:49:25Z</time>
      </trkpt>
      <trkpt lat="50.51521198824048" lon="12.391601968556643">
        <ele>511.56</ele>
        <time>2024-09-19T16:49:26Z</time>
      </trkpt>
      <trkpt lat="50.5152109824121" lon="12.391410022974014">
        <ele>512.51999999999998</ele>
        <time>2024-09-19T16:49:27Z</time>
      </trkpt>
      <trkpt lat="50.515166977420449" lon="12.391227968037128">
        <ele>513.48000000000002</ele>
        <time>2024-09-19T16:49:28Z</time>
      </trkpt>
      <trkpt lat="50.515123978257179" lon="12.391044991090894">
        <ele>514.44000000000005</ele>
        <time>2024-09-19T16:49:29Z</time>
      </trkpt>
      <trkpt lat="50.515050971880555" lon="12.390891015529633">
        <ele>515.39999999999998</ele>
        <time>2024-09-19T16:49:30Z</time>
      </trkpt>
      <trkpt lat="50.514967991039157" lon="12.390737039968371">
        <ele>515.88</ele>
        <time>2024-09-19T16:49:31Z</time>
      </trkpt>
      <trkpt lat="50.514841005206108" lon="12.390380976721644">
        <ele>516.85000000000002</ele>
        <time>2024-09-19T16:49:33Z</time>
      </trkpt>
      <trkpt lat="50.514818960800767" lon="12.390209985896945">
        <ele>517.80999999999995</ele>
        <time>2024-09-19T16:49:34Z</time>
      </trkpt>
      <trkpt lat="50.514826001599431" lon="12.390037989243865">
        <ele>518.28999999999996</ele>
        <time>2024-09-19T16:49:35Z</time>
      </trkpt>
      <trkpt lat="50.514832036569715" lon="12.389861969277263">
        <ele>519.25</ele>
        <time>2024-09-19T16:49:36Z</time>
      </trkpt>
      <trkpt lat="50.514849973842502" lon="12.389715034514666">
        <ele>520.21000000000004</ele>
        <time>2024-09-19T16:49:37Z</time>
      </trkpt>
      <trkpt lat="50.514915017411113" lon="12.389569021761417">
        <ele>521.16999999999996</ele>
        <time>2024-09-19T16:49:38Z</time>
      </trkpt>
      <trkpt lat="50.514980982989073" lon="12.389418985694647">
        <ele>522.13</ele>
        <time>2024-09-19T16:49:39Z</time>
      </trkpt>
      <trkpt lat="50.515049966052175" lon="12.389261992648244">
        <ele>523.09000000000003</ele>
        <time>2024-09-19T16:49:40Z</time>
      </trkpt>
      <trkpt lat="50.515853958204389" lon="12.387619977816939">
        <ele>531.75</ele>
        <time>2024-09-19T16:49:51Z</time>
      </trkpt>
      <trkpt lat="50.516517972573638" lon="12.386248027905822">
        <ele>537.50999999999999</ele>
        <time>2024-09-19T16:50:01Z</time>
      </trkpt>
      <trkpt lat="50.516552003100514" lon="12.386170998215675">
        <ele>537.99000000000001</ele>
        <time>2024-09-19T16:50:02Z</time>
      </trkpt>
      <trkpt lat="50.516581004485488" lon="12.386106960475445">
        <ele>538.48000000000002</ele>
        <time>2024-09-19T16:50:03Z</time>
      </trkpt>
      <trkpt lat="50.516644958406687" lon="12.385961031541228">
        <ele>540.39999999999998</ele>
        <time>2024-09-19T16:50:11Z</time>
      </trkpt>
      <trkpt lat="50.516807986423373" lon="12.38560002297163">
        <ele>541.84000000000003</ele>
        <time>2024-09-19T16:50:23Z</time>
      </trkpt>
      <trkpt lat="50.517351971939206" lon="12.384325973689556">
        <ele>545.69000000000005</ele>
        <time>2024-09-19T16:50:31Z</time>
      </trkpt>
      <trkpt lat="50.518193012103438" lon="12.382771968841553">
        <ele>553.38</ele>
        <time>2024-09-19T16:50:42Z</time>
      </trkpt>
      <trkpt lat="50.518294014036655" lon="12.38270197995007">
        <ele>553.86000000000001</ele>
        <time>2024-09-19T16:50:43Z</time>
      </trkpt>
      <trkpt lat="50.518412031233311" lon="12.382671972736716">
        <ele>554.34000000000003</ele>
        <time>2024-09-19T16:50:44Z</time>
      </trkpt>
      <trkpt lat="50.519626988098025" lon="12.382500981912017">
        <ele>554.34000000000003</ele>
        <time>2024-09-19T16:50:54Z</time>
      </trkpt>
      <trkpt lat="50.520899025723338" lon="12.382298978045583">
        <ele>554.34000000000003</ele>
        <time>2024-09-19T16:51:02Z</time>
      </trkpt>
      <trkpt lat="50.522857960313559" lon="12.382105020806193">
        <ele>548.57000000000005</ele>
        <time>2024-09-19T16:51:12Z</time>
      </trkpt>
      <trkpt lat="50.524380030110478" lon="12.381663965061307">
        <ele>543.27999999999997</ele>
        <time>2024-09-19T16:51:20Z</time>
      </trkpt>
      <trkpt lat="50.525416033342481" lon="12.380475997924805">
        <ele>543.75999999999999</ele>
        <time>2024-09-19T16:51:26Z</time>
      </trkpt>
      <trkpt lat="50.526626966893673" lon="12.378269964829087">
        <ele>546.16999999999996</ele>
        <time>2024-09-19T16:51:35Z</time>
      </trkpt>
      <trkpt lat="50.527953989803791" lon="12.376445978879929">
        <ele>546.16999999999996</ele>
        <time>2024-09-19T16:51:43Z</time>
      </trkpt>
      <trkpt lat="50.529409004375339" lon="12.375231022015214">
        <ele>545.20000000000005</ele>
        <time>2024-09-19T16:51:49Z</time>
      </trkpt>
      <trkpt lat="50.53143197670579" lon="12.374597014859319">
        <ele>541.36000000000001</ele>
        <time>2024-09-19T16:51:56Z</time>
      </trkpt>
      <trkpt lat="50.533503983169794" lon="12.374592991545796">
        <ele>535.59000000000003</ele>
        <time>2024-09-19T16:52:03Z</time>
      </trkpt>
      <trkpt lat="50.533762983977795" lon="12.374531971290708">
        <ele>534.63</ele>
        <time>2024-09-19T16:52:04Z</time>
      </trkpt>
      <trkpt lat="50.534056015312672" lon="12.374445972964168">
        <ele>533.66999999999996</ele>
        <time>2024-09-19T16:52:05Z</time>
      </trkpt>
      <trkpt lat="50.534327002242208" lon="12.374305995181203">
        <ele>532.71000000000004</ele>
        <time>2024-09-19T16:52:06Z</time>
      </trkpt>
      <trkpt lat="50.534597989171743" lon="12.374142967164516">
        <ele>531.75</ele>
        <time>2024-09-19T16:52:07Z</time>
      </trkpt>
      <trkpt lat="50.534854978322983" lon="12.373927971348166">
        <ele>531.26999999999998</ele>
        <time>2024-09-19T16:52:08Z</time>
      </trkpt>
      <trkpt lat="50.535111967474222" lon="12.373694032430649">
        <ele>529.82000000000005</ele>
        <time>2024-09-19T16:52:09Z</time>
      </trkpt>
      <trkpt lat="50.535348001867533" lon="12.373407036066055">
        <ele>528.86000000000001</ele>
        <time>2024-09-19T16:52:10Z</time>
      </trkpt>
      <trkpt lat="50.535583030432463" lon="12.373105036094785">
        <ele>527.89999999999998</ele>
        <time>2024-09-19T16:52:11Z</time>
      </trkpt>
      <trkpt lat="50.535806994885206" lon="12.372783003374934">
        <ele>526.94000000000005</ele>
        <time>2024-09-19T16:52:12Z</time>
      </trkpt>
      <trkpt lat="50.535996006801724" lon="12.372403973713517">
        <ele>525.98000000000002</ele>
        <time>2024-09-19T16:52:13Z</time>
      </trkpt>
      <trkpt lat="50.536187030375004" lon="12.372023016214371">
        <ele>525.01999999999998</ele>
        <time>2024-09-19T16:52:14Z</time>
      </trkpt>
      <trkpt lat="50.536353997886181" lon="12.371611967682838">
        <ele>524.05999999999995</ele>
        <time>2024-09-19T16:52:15Z</time>
      </trkpt>
      <trkpt lat="50.537745980545878" lon="12.368460958823562">
        <ele>517.33000000000004</ele>
        <time>2024-09-19T16:52:23Z</time>
      </trkpt>
      <trkpt lat="50.539465025067329" lon="12.365631982684135">
        <ele>511.07999999999998</ele>
        <time>2024-09-19T16:52:32Z</time>
      </trkpt>
      <trkpt lat="50.541247017681599" lon="12.362889004871249">
        <ele>508.67000000000002</ele>
        <time>2024-09-19T16:52:41Z</time>
      </trkpt>
      <trkpt lat="50.542064001783729" lon="12.360458001494408">
        <ele>508.19</ele>
        <time>2024-09-19T16:52:47Z</time>
      </trkpt>
      <trkpt lat="50.542434984818101" lon="12.357487035915256">
        <ele>506.75</ele>
        <time>2024-09-19T16:52:54Z</time>
      </trkpt>
      <trkpt lat="50.542266005650163" lon="12.354817986488342">
        <ele>502.43000000000001</ele>
        <time>2024-09-19T16:53:00Z</time>
      </trkpt>
      <trkpt lat="50.541768036782742" lon="12.352589992806315">
        <ele>499.06</ele>
        <time>2024-09-19T16:53:06Z</time>
      </trkpt>
      <trkpt lat="50.54116697050631" lon="12.350698029622436">
        <ele>498.10000000000002</ele>
        <time>2024-09-19T16:53:13Z</time>
      </trkpt>
      <trkpt lat="50.540856001898646" lon="12.348744040355086">
        <ele>497.13999999999999</ele>
        <time>2024-09-19T16:53:21Z</time>
      </trkpt>
      <trkpt lat="50.54099103435874" lon="12.346832966431975">
        <ele>493.76999999999998</ele>
        <time>2024-09-19T16:53:27Z</time>
      </trkpt>
      <trkpt lat="50.541151966899633" lon="12.346192002296448">
        <ele>491.85000000000002</ele>
        <time>2024-09-19T16:53:29Z</time>
      </trkpt>
      <trkpt lat="50.54125196300447" lon="12.345896037295461">
        <ele>490.88999999999999</ele>
        <time>2024-09-19T16:53:30Z</time>
      </trkpt>
      <trkpt lat="50.542179001495242" lon="12.344152014702559">
        <ele>486.56</ele>
        <time>2024-09-19T16:53:37Z</time>
      </trkpt>
      <trkpt lat="50.543695036321878" lon="12.34209400601685">
        <ele>487.52999999999997</ele>
        <time>2024-09-19T16:53:47Z</time>
      </trkpt>
      <trkpt lat="50.544981993734837" lon="12.340158959850669">
        <ele>492.32999999999998</ele>
        <time>2024-09-19T16:53:57Z</time>
      </trkpt>
      <trkpt lat="50.545918000862002" lon="12.33807697892189">
        <ele>495.22000000000003</ele>
        <time>2024-09-19T16:54:06Z</time>
      </trkpt>
      <trkpt lat="50.54653599858284" lon="12.336092982441187">
        <ele>495.22000000000003</ele>
        <time>2024-09-19T16:54:13Z</time>
      </trkpt>
      <trkpt lat="50.546913016587496" lon="12.333274986594915">
        <ele>493.29000000000002</ele>
        <time>2024-09-19T16:54:21Z</time>
      </trkpt>
      <trkpt lat="50.546892983838916" lon="12.330370992422104">
        <ele>487.05000000000001</ele>
        <time>2024-09-19T16:54:29Z</time>
      </trkpt>
      <trkpt lat="50.546494005247951" lon="12.326444992795587">
        <ele>469.74000000000001</ele>
        <time>2024-09-19T16:54:39Z</time>
      </trkpt>
      <trkpt lat="50.54604004137218" lon="12.321376036852598">
        <ele>450.51999999999998</ele>
        <time>2024-09-19T16:54:51Z</time>
      </trkpt>
      <trkpt lat="50.545951025560498" lon="12.318551000207663">
        <ele>439.94</ele>
        <time>2024-09-19T16:54:58Z</time>
      </trkpt>
      <trkpt lat="50.546045992523432" lon="12.315760999917984">
        <ele>437.06</ele>
        <time>2024-09-19T16:55:07Z</time>
      </trkpt>
      <trkpt lat="50.546344975009561" lon="12.313168980181217">
        <ele>440.89999999999998</ele>
        <time>2024-09-19T16:55:17Z</time>
      </trkpt>
      <trkpt lat="50.546813020482659" lon="12.310816012322903">
        <ele>444.75</ele>
        <time>2024-09-19T16:55:25Z</time>
      </trkpt>
      <trkpt lat="50.547333033755422" lon="12.308792034164071">
        <ele>450.02999999999997</ele>
        <time>2024-09-19T16:55:31Z</time>
      </trkpt>
      <trkpt lat="50.548484958708286" lon="12.305704979225993">
        <ele>456.27999999999997</ele>
        <time>2024-09-19T16:55:39Z</time>
      </trkpt>
      <trkpt lat="50.549914995208383" lon="12.302942974492908">
        <ele>460.61000000000001</ele>
        <time>2024-09-19T16:55:47Z</time>
      </trkpt>
      <trkpt lat="50.550966002047062" lon="12.301037013530731">
        <ele>467.33999999999997</ele>
        <time>2024-09-19T16:55:53Z</time>
      </trkpt>
      <trkpt lat="50.551426000893116" lon="12.299516033381224">
        <ele>474.55000000000001</ele>
        <time>2024-09-19T16:55:58Z</time>
      </trkpt>
      <trkpt lat="50.55154100060463" lon="12.297631027176976">
        <ele>477.91000000000003</ele>
        <time>2024-09-19T16:56:04Z</time>
      </trkpt>
      <trkpt lat="50.551289040595293" lon="12.295279987156391">
        <ele>476.47000000000003</ele>
        <time>2024-09-19T16:56:10Z</time>
      </trkpt>
      <trkpt lat="50.550928032025695" lon="12.292388984933496">
        <ele>476.94999999999999</ele>
        <time>2024-09-19T16:56:17Z</time>
      </trkpt>
      <trkpt lat="50.551022998988628" lon="12.289525978267193">
        <ele>478.38999999999999</ele>
        <time>2024-09-19T16:56:24Z</time>
      </trkpt>
      <trkpt lat="50.55152197368443" lon="12.28687696158886">
        <ele>479.83999999999997</ele>
        <time>2024-09-19T16:56:31Z</time>
      </trkpt>
      <trkpt lat="50.552047016099095" lon="12.284702025353909">
        <ele>480.80000000000001</ele>
        <time>2024-09-19T16:56:39Z</time>
      </trkpt>
      <trkpt lat="50.552415987476707" lon="12.28317903354764">
        <ele>478.87</ele>
        <time>2024-09-19T16:56:47Z</time>
      </trkpt>
      <trkpt lat="50.552626037970185" lon="12.281500976532698">
        <ele>474.55000000000001</ele>
        <time>2024-09-19T16:56:56Z</time>
      </trkpt>
      <trkpt lat="50.553132975474" lon="12.278796974569559">
        <ele>470.22000000000003</ele>
        <time>2024-09-19T16:57:11Z</time>
      </trkpt>
      <trkpt lat="50.553709985688329" lon="12.276924960315228">
        <ele>464.93000000000001</ele>
        <time>2024-09-19T16:57:22Z</time>
      </trkpt>
      <trkpt lat="50.55403696373105" lon="12.275943020358682">
        <ele>464.44999999999999</ele>
        <time>2024-09-19T16:57:28Z</time>
      </trkpt>
      <trkpt lat="50.554385986179113" lon="12.274471996352077">
        <ele>466.86000000000001</ele>
        <time>2024-09-19T16:57:35Z</time>
      </trkpt>
      <trkpt lat="50.554515989497304" lon="12.273988025262952">
        <ele>467.33999999999997</ele>
        <time>2024-09-19T16:57:37Z</time>
      </trkpt>
      <trkpt lat="50.554591007530689" lon="12.27379197254777">
        <ele>467.81999999999999</ele>
        <time>2024-09-19T16:57:38Z</time>
      </trkpt>
      <trkpt lat="50.554665019735694" lon="12.273621987551451">
        <ele>468.30000000000001</ele>
        <time>2024-09-19T16:57:39Z</time>
      </trkpt>
      <trkpt lat="50.554753029718995" lon="12.273483015596867">
        <ele>468.77999999999997</ele>
        <time>2024-09-19T16:57:40Z</time>
      </trkpt>
      <trkpt lat="50.554841961711645" lon="12.27336198091507">
        <ele>469.25999999999999</ele>
        <time>2024-09-19T16:57:41Z</time>
      </trkpt>
      <trkpt lat="50.554921003058553" lon="12.273268019780517">
        <ele>469.74000000000001</ele>
        <time>2024-09-19T16:57:42Z</time>
      </trkpt>
      <trkpt lat="50.555113032460213" lon="12.273295009508729">
        <ele>470.69999999999999</ele>
        <time>2024-09-19T16:57:43Z</time>
      </trkpt>
      <trkpt lat="50.555113032460213" lon="12.273295009508729">
        <ele>471.18000000000001</ele>
        <time>2024-09-19T16:57:44Z</time>
      </trkpt>
      <trkpt lat="50.555272037163377" lon="12.273421995341778">
        <ele>471.66000000000003</ele>
        <time>2024-09-19T16:57:45Z</time>
      </trkpt>
      <trkpt lat="50.555340014398098" lon="12.273587035015225">
        <ele>472.13999999999999</ele>
        <time>2024-09-19T16:57:46Z</time>
      </trkpt>
      <trkpt lat="50.555415032431483" lon="12.273772023618221">
        <ele>472.13999999999999</ele>
        <time>2024-09-19T16:57:47Z</time>
      </trkpt>
      <trkpt lat="50.556122967973351" lon="12.275070967152715">
        <ele>472.63</ele>
        <time>2024-09-19T16:57:53Z</time>
      </trkpt>
      <trkpt lat="50.557111026719213" lon="12.276078974828124">
        <ele>470.69999999999999</ele>
        <time>2024-09-19T16:57:59Z</time>
      </trkpt>
      <trkpt lat="50.557283023372293" lon="12.276168996468186">
        <ele>470.22000000000003</ele>
        <time>2024-09-19T16:58:00Z</time>
      </trkpt>
      <trkpt lat="50.558093972504139" lon="12.276367982849479">
        <ele>467.81999999999999</ele>
        <time>2024-09-19T16:58:06Z</time>
      </trkpt>
      <trkpt lat="50.559044983237982" lon="12.276158016175032">
        <ele>460.61000000000001</ele>
        <time>2024-09-19T16:58:14Z</time>
      </trkpt>
      <trkpt lat="50.559161994606256" lon="12.276151981204748">
        <ele>459.17000000000002</ele>
        <time>2024-09-19T16:58:15Z</time>
      </trkpt>
      <trkpt lat="50.560477031394839" lon="12.276384998112917">
        <ele>448.11000000000001</ele>
        <time>2024-09-19T16:58:26Z</time>
      </trkpt>
      <trkpt lat="50.560580966994166" lon="12.276406036689878">
        <ele>447.63</ele>
        <time>2024-09-19T16:58:27Z</time>
      </trkpt>
      <trkpt lat="50.561526026576757" lon="12.276556994765997">
        <ele>445.23000000000002</ele>
        <time>2024-09-19T16:58:35Z</time>
      </trkpt>
      <trkpt lat="50.562698990106583" lon="12.276160027831793">
        <ele>448.11000000000001</ele>
        <time>2024-09-19T16:58:45Z</time>
      </trkpt>
      <trkpt lat="50.564085021615028" lon="12.275002989917994">
        <ele>453.39999999999998</ele>
        <time>2024-09-19T16:58:54Z</time>
      </trkpt>
      <trkpt lat="50.565397962927818" lon="12.273931028321385">
        <ele>457.72000000000003</ele>
        <time>2024-09-19T16:59:00Z</time>
      </trkpt>
      <trkpt lat="50.565606001764536" lon="12.273809993639588">
        <ele>458.69</ele>
        <time>2024-09-19T16:59:01Z</time>
      </trkpt>
      <trkpt lat="50.565843963995576" lon="12.273831032216549">
        <ele>459.17000000000002</ele>
        <time>2024-09-19T16:59:02Z</time>
      </trkpt>
      <trkpt lat="50.566087039187551" lon="12.273851986974478">
        <ele>459.64999999999998</ele>
        <time>2024-09-19T16:59:03Z</time>
      </trkpt>
      <trkpt lat="50.566340005025268" lon="12.273876965045929">
        <ele>460.13</ele>
        <time>2024-09-19T16:59:04Z</time>
      </trkpt>
      <trkpt lat="50.566591965034604" lon="12.274013003334403">
        <ele>460.13</ele>
        <time>2024-09-19T16:59:05Z</time>
      </trkpt>
      <trkpt lat="50.566849960014224" lon="12.274151975288987">
        <ele>460.13</ele>
        <time>2024-09-19T16:59:06Z</time>
      </trkpt>
      <trkpt lat="50.567816980183125" lon="12.274526981636882">
        <ele>459.17000000000002</ele>
        <time>2024-09-19T16:59:10Z</time>
      </trkpt>
      <trkpt lat="50.568053014576435" lon="12.274554977193475">
        <ele>458.69</ele>
        <time>2024-09-19T16:59:11Z</time>
      </trkpt>
      <trkpt lat="50.569669967517257" lon="12.274354984983802">
        <ele>457.72000000000003</ele>
        <time>2024-09-19T16:59:17Z</time>
      </trkpt>
      <trkpt lat="50.570777971297503" lon="12.274465039372444">
        <ele>459.17000000000002</ele>
        <time>2024-09-19T16:59:21Z</time>
      </trkpt>
      <trkpt lat="50.571037977933884" lon="12.274405024945736">
        <ele>459.64999999999998</ele>
        <time>2024-09-19T16:59:22Z</time>
      </trkpt>
      <trkpt lat="50.573250968009233" lon="12.274077963083982">
        <ele>462.05000000000001</ele>
        <time>2024-09-19T16:59:30Z</time>
      </trkpt>
      <trkpt lat="50.576223023235798" lon="12.274067988619208">
        <ele>459.64999999999998</ele>
        <time>2024-09-19T16:59:40Z</time>
      </trkpt>
      <trkpt lat="50.577253997325897" lon="12.274159016087651">
        <ele>462.52999999999997</ele>
        <time>2024-09-19T16:59:44Z</time>
      </trkpt>
      <trkpt lat="50.577477039769292" lon="12.274234034121037">
        <ele>463.00999999999999</ele>
        <time>2024-09-19T16:59:45Z</time>
      </trkpt>
      <trkpt lat="50.579228019341826" lon="12.275285040959716">
        <ele>468.77999999999997</ele>
        <time>2024-09-19T16:59:54Z</time>
      </trkpt>
      <trkpt lat="50.579794971272349" lon="12.275521997362375">
        <ele>467.81999999999999</ele>
        <time>2024-09-19T16:59:57Z</time>
      </trkpt>
      <trkpt lat="50.579999992623925" lon="12.275518979877234">
        <ele>467.33999999999997</ele>
        <time>2024-09-19T16:59:58Z</time>
      </trkpt>
      <trkpt lat="50.580213982611895" lon="12.27551001124084">
        <ele>466.86000000000001</ele>
        <time>2024-09-19T16:59:59Z</time>
      </trkpt>
      <trkpt lat="50.58170897886157" lon="12.275008019059896">
        <ele>459.17000000000002</ele>
        <time>2024-09-19T17:00:06Z</time>
      </trkpt>
      <trkpt lat="50.582583965733647" lon="12.274580039083958">
        <ele>453.39999999999998</ele>
        <time>2024-09-19T17:00:12Z</time>
      </trkpt>
      <trkpt lat="50.582696031779051" lon="12.274531004950404">
        <ele>452.92000000000002</ele>
        <time>2024-09-19T17:00:13Z</time>
      </trkpt>
      <trkpt lat="50.582809019833803" lon="12.274503009393811">
        <ele>451.95999999999998</ele>
        <time>2024-09-19T17:00:14Z</time>
      </trkpt>
      <trkpt lat="50.582923013716936" lon="12.27452396415174">
        <ele>451.95999999999998</ele>
        <time>2024-09-19T17:00:15Z</time>
      </trkpt>
      <trkpt lat="50.583043964579701" lon="12.274563023820519">
        <ele>451.95999999999998</ele>
        <time>2024-09-19T17:00:16Z</time>
      </trkpt>
      <trkpt lat="50.583157958462834" lon="12.274636030197144">
        <ele>451.48000000000002</ele>
        <time>2024-09-19T17:00:17Z</time>
      </trkpt>
      <trkpt lat="50.58450099080801" lon="12.275518979877234">
        <ele>450.02999999999997</ele>
        <time>2024-09-19T17:00:29Z</time>
      </trkpt>
      <trkpt lat="50.585736986249685" lon="12.276278967037797">
        <ele>447.63</ele>
        <time>2024-09-19T17:00:40Z</time>
      </trkpt>
      <trkpt lat="50.586922019720078" lon="12.27673796005547">
        <ele>441.86000000000001</ele>
        <time>2024-09-19T17:00:50Z</time>
      </trkpt>
      <trkpt lat="50.587276993319392" lon="12.276785988360643">
        <ele>439.45999999999998</ele>
        <time>2024-09-19T17:00:53Z</time>
      </trkpt>
      <trkpt lat="50.587392998859286" lon="12.276775008067489">
        <ele>438.98000000000002</ele>
        <time>2024-09-19T17:00:54Z</time>
      </trkpt>
      <trkpt lat="50.587499029934406" lon="12.276724968105555">
        <ele>438.5</ele>
        <time>2024-09-19T17:00:55Z</time>
      </trkpt>
      <trkpt lat="50.587607994675636" lon="12.276653973385692">
        <ele>438.01999999999998</ele>
        <time>2024-09-19T17:00:56Z</time>
      </trkpt>
      <trkpt lat="50.587717965245247" lon="12.276582978665829">
        <ele>437.06</ele>
        <time>2024-09-19T17:00:57Z</time>
      </trkpt>
      <trkpt lat="50.587857021018863" lon="12.276492035016418">
        <ele>436.10000000000002</ele>
        <time>2024-09-19T17:00:58Z</time>
      </trkpt>
      <trkpt lat="50.587918041273952" lon="12.276406036689878">
        <ele>435.13</ele>
        <time>2024-09-19T17:00:59Z</time>
      </trkpt>
      <trkpt lat="50.588766960427165" lon="12.275198958814144">
        <ele>429.37</ele>
        <time>2024-09-19T17:01:07Z</time>
      </trkpt>
      <trkpt lat="50.589178008958697" lon="12.274639969691634">
        <ele>427.92000000000002</ele>
        <time>2024-09-19T17:01:10Z</time>
      </trkpt>
      <trkpt lat="50.589345982298255" lon="12.274470990523696">
        <ele>427.44</ele>
        <time>2024-09-19T17:01:11Z</time>
      </trkpt>
      <trkpt lat="50.58952895924449" lon="12.274338975548744">
        <ele>426.95999999999998</ele>
        <time>2024-09-19T17:01:12Z</time>
      </trkpt>
      <trkpt lat="50.590890012681484" lon="12.273444039747119">
        <ele>428.39999999999998</ele>
        <time>2024-09-19T17:01:19Z</time>
      </trkpt>
      <trkpt lat="50.591716971248388" lon="12.272855965420604">
        <ele>429.37</ele>
        <time>2024-09-19T17:01:25Z</time>
      </trkpt>
      <trkpt lat="50.591905983164907" lon="12.272620014846325">
        <ele>429.85000000000002</ele>
        <time>2024-09-19T17:01:27Z</time>
      </trkpt>
      <trkpt lat="50.591985024511814" lon="12.272495962679386">
        <ele>429.85000000000002</ele>
        <time>2024-09-19T17:01:28Z</time>
      </trkpt>
      <trkpt lat="50.592059036716819" lon="12.272378029301763">
        <ele>429.85000000000002</ele>
        <time>2024-09-19T17:01:29Z</time>
      </trkpt>
      <trkpt lat="50.592133970931172" lon="12.272259006276727">
        <ele>429.85000000000002</ele>
        <time>2024-09-19T17:01:30Z</time>
      </trkpt>
      <trkpt lat="50.592200020328164" lon="12.27209597826004">
        <ele>429.85000000000002</ele>
        <time>2024-09-19T17:01:31Z</time>
      </trkpt>
      <trkpt lat="50.592250982299447" lon="12.271918030455709">
        <ele>429.85000000000002</ele>
        <time>2024-09-19T17:01:32Z</time>
      </trkpt>
      <trkpt lat="50.592302028089762" lon="12.271734969690442">
        <ele>429.85000000000002</ele>
        <time>2024-09-19T17:01:33Z</time>
      </trkpt>
      <trkpt lat="50.592341003939509" lon="12.271550986915827">
        <ele>429.85000000000002</ele>
        <time>2024-09-19T17:01:34Z</time>
      </trkpt>
      <trkpt lat="50.592825980857015" lon="12.269605966284871">
        <ele>424.07999999999998</ele>
        <time>2024-09-19T17:01:45Z</time>
      </trkpt>
      <trkpt lat="50.593553027138114" lon="12.268118010833859">
        <ele>417.82999999999998</ele>
        <time>2024-09-19T17:01:55Z</time>
      </trkpt>
      <trkpt lat="50.594096006825566" lon="12.26738702505827">
        <ele>413.5</ele>
        <time>2024-09-19T17:02:01Z</time>
      </trkpt>
      <trkpt lat="50.594193991273642" lon="12.267284011468291">
        <ele>412.54000000000002</ele>
        <time>2024-09-19T17:02:02Z</time>
      </trkpt>
      <trkpt lat="50.594303039833903" lon="12.267198013141751">
        <ele>412.06</ele>
        <time>2024-09-19T17:02:03Z</time>
      </trkpt>
      <trkpt lat="50.595009969547391" lon="12.26691504009068">
        <ele>409.66000000000003</ele>
        <time>2024-09-19T17:02:09Z</time>
      </trkpt>
      <trkpt lat="50.596234984695911" lon="12.267070021480322">
        <ele>406.29000000000002</ele>
        <time>2024-09-19T17:02:19Z</time>
      </trkpt>
      <trkpt lat="50.596348978579044" lon="12.267030039802194">
        <ele>405.32999999999998</ele>
        <time>2024-09-19T17:02:20Z</time>
      </trkpt>
      <trkpt lat="50.596458027139306" lon="12.266985028982162">
        <ele>404.37</ele>
        <time>2024-09-19T17:02:21Z</time>
      </trkpt>
      <trkpt lat="50.596538996323943" lon="12.266905987635255">
        <ele>403.41000000000003</ele>
        <time>2024-09-19T17:02:22Z</time>
      </trkpt>
      <trkpt lat="50.596606973558664" lon="12.2667879704386">
        <ele>402.44999999999999</ele>
        <time>2024-09-19T17:02:23Z</time>
      </trkpt>
      <trkpt lat="50.596673022955656" lon="12.266673976555467">
        <ele>401.49000000000001</ele>
        <time>2024-09-19T17:02:24Z</time>
      </trkpt>
      <trkpt lat="50.596741000190377" lon="12.266555037349463">
        <ele>400.52999999999997</ele>
        <time>2024-09-19T17:02:25Z</time>
      </trkpt>
      <trkpt lat="50.596780981868505" lon="12.266411958262324">
        <ele>399.56999999999999</ele>
        <time>2024-09-19T17:02:26Z</time>
      </trkpt>
      <trkpt lat="50.597162023186684" lon="12.26500203832984">
        <ele>394.75999999999999</ele>
        <time>2024-09-19T17:02:34Z</time>
      </trkpt>
      <trkpt lat="50.597786977887154" lon="12.262582015246153">
        <ele>384.66000000000003</ele>
        <time>2024-09-19T17:02:45Z</time>
      </trkpt>
      <trkpt lat="50.598388966172934" lon="12.260100971907377">
        <ele>374.08999999999997</ele>
        <time>2024-09-19T17:02:56Z</time>
      </trkpt>
      <trkpt lat="50.598913002759218" lon="12.258195010945201">
        <ele>366.39999999999998</ele>
        <time>2024-09-19T17:03:04Z</time>
      </trkpt>
      <trkpt lat="50.599701991304755" lon="12.256287038326263">
        <ele>360.14999999999998</ele>
        <time>2024-09-19T17:03:12Z</time>
      </trkpt>
      <trkpt lat="50.600024024024606" lon="12.255760990083218">
        <ele>357.75</ele>
        <time>2024-09-19T17:03:15Z</time>
      </trkpt>
      <trkpt lat="50.600156038999557" lon="12.255621012300253">
        <ele>356.79000000000002</ele>
        <time>2024-09-19T17:03:16Z</time>
      </trkpt>
      <trkpt lat="50.600296016782522" lon="12.255470976233482">
        <ele>355.82999999999998</ele>
        <time>2024-09-19T17:03:17Z</time>
      </trkpt>
      <trkpt lat="50.60145397670567" lon="12.254330031573772">
        <ele>349.10000000000002</ele>
        <time>2024-09-19T17:03:23Z</time>
      </trkpt>
      <trkpt lat="50.60166503302753" lon="12.254104977473617">
        <ele>348.13</ele>
        <time>2024-09-19T17:03:24Z</time>
      </trkpt>
      <trkpt lat="50.60186100192368" lon="12.253877995535731">
        <ele>347.17000000000002</ele>
        <time>2024-09-19T17:03:25Z</time>
      </trkpt>
      <trkpt lat="50.602989960461855" lon="12.252690028399229">
        <ele>340.92000000000002</ele>
        <time>2024-09-19T17:03:31Z</time>
      </trkpt>
      <trkpt lat="50.604226039722562" lon="12.251767013221979">
        <ele>335.16000000000003</ele>
        <time>2024-09-19T17:03:37Z</time>
      </trkpt>
      <trkpt lat="50.604381021112204" lon="12.251601973548532">
        <ele>334.19999999999999</ele>
        <time>2024-09-19T17:03:38Z</time>
      </trkpt>
      <trkpt lat="50.604498032480478" lon="12.251404998824">
        <ele>333.70999999999998</ele>
        <time>2024-09-19T17:03:39Z</time>
      </trkpt>
      <trkpt lat="50.604597022756934" lon="12.251226967200637">
        <ele>333.23000000000002</ele>
        <time>2024-09-19T17:03:40Z</time>
      </trkpt>
      <trkpt lat="50.604689978063107" lon="12.25105999968946">
        <ele>332.75</ele>
        <time>2024-09-19T17:03:41Z</time>
      </trkpt>
      <trkpt lat="50.604857029393315" lon="12.250788006931543">
        <ele>331.79000000000002</ele>
        <time>2024-09-19T17:03:43Z</time>
      </trkpt>
      <trkpt lat="50.604940010234714" lon="12.250658003613353">
        <ele>331.31</ele>
        <time>2024-09-19T17:03:44Z</time>
      </trkpt>
      <trkpt lat="50.605192976072431" lon="12.250277968123555">
        <ele>329.38999999999999</ele>
        <time>2024-09-19T17:03:47Z</time>
      </trkpt>
      <trkpt lat="50.606009038165212" lon="12.249221010133624">
        <ele>327.94999999999999</ele>
        <time>2024-09-19T17:03:56Z</time>
      </trkpt>
      <trkpt lat="50.606311038136482" lon="12.248919010162354">
        <ele>326.99000000000001</ele>
        <time>2024-09-19T17:03:59Z</time>
      </trkpt>
      <trkpt lat="50.606401981785893" lon="12.248872993513942">
        <ele>326.99000000000001</ele>
        <time>2024-09-19T17:04:00Z</time>
      </trkpt>
      <trkpt lat="50.606517987325788" lon="12.248815996572375">
        <ele>326.5</ele>
        <time>2024-09-19T17:04:01Z</time>
      </trkpt>
      <trkpt lat="50.606753015890718" lon="12.24869797937572">
        <ele>326.99000000000001</ele>
        <time>2024-09-19T17:04:03Z</time>
      </trkpt>
      <trkpt lat="50.606870027258992" lon="12.248639976605773">
        <ele>326.99000000000001</ele>
        <time>2024-09-19T17:04:04Z</time>
      </trkpt>
      <trkpt lat="50.606998018920422" lon="12.248576022684574">
        <ele>326.99000000000001</ele>
        <time>2024-09-19T17:04:05Z</time>
      </trkpt>
      <trkpt lat="50.60712500475347" lon="12.248567976057529">
        <ele>327.47000000000003</ele>
        <time>2024-09-19T17:04:06Z</time>
      </trkpt>
      <trkpt lat="50.607257019728422" lon="12.248560013249516">
        <ele>327.94999999999999</ele>
        <time>2024-09-19T17:04:07Z</time>
      </trkpt>
      <trkpt lat="50.607654992491007" lon="12.248628996312618">
        <ele>329.38999999999999</ele>
        <time>2024-09-19T17:04:10Z</time>
      </trkpt>
      <trkpt lat="50.608640033751726" lon="12.249050019308925">
        <ele>333.70999999999998</ele>
        <time>2024-09-19T17:04:18Z</time>
      </trkpt>
      <trkpt lat="50.609479984268546" lon="12.249302985146642">
        <ele>336.12</ele>
        <time>2024-09-19T17:04:25Z</time>
      </trkpt>
      <trkpt lat="50.609848033636808" lon="12.249253029003739">
        <ele>337.07999999999998</ele>
        <time>2024-09-19T17:04:28Z</time>
      </trkpt>
      <trkpt lat="50.610984032973647" lon="12.248866036534309">
        <ele>340.92000000000002</ele>
        <time>2024-09-19T17:04:38Z</time>
      </trkpt>
      <trkpt lat="50.611226018518209" lon="12.248809961602092">
        <ele>341.41000000000003</ele>
        <time>2024-09-19T17:04:40Z</time>
      </trkpt>
      <trkpt lat="50.611350992694497" lon="12.248806022107601">
        <ele>341.88999999999999</ele>
        <time>2024-09-19T17:04:41Z</time>
      </trkpt>
      <trkpt lat="50.611952980980277" lon="12.248779032379389">
        <ele>340.92000000000002</ele>
        <time>2024-09-19T17:04:46Z</time>
      </trkpt>
      <trkpt lat="50.612062029540539" lon="12.248717006295919">
        <ele>340.44</ele>
        <time>2024-09-19T17:04:47Z</time>
      </trkpt>
      <trkpt lat="50.612409962341189" lon="12.248565964400768">
        <ele>340.44</ele>
        <time>2024-09-19T17:04:50Z</time>
      </trkpt>
      <trkpt lat="50.612610038369894" lon="12.248481977730989">
        <ele>340.44</ele>
        <time>2024-09-19T17:04:52Z</time>
      </trkpt>
      <trkpt lat="50.61271196231246" lon="12.248473009094596">
        <ele>340.92000000000002</ele>
        <time>2024-09-19T17:04:53Z</time>
      </trkpt>
      <trkpt lat="50.612808018922806" lon="12.248478960245848">
        <ele>341.41000000000003</ele>
        <time>2024-09-19T17:04:54Z</time>
      </trkpt>
      <trkpt lat="50.612888988107443" lon="12.248483989387751">
        <ele>341.41000000000003</ele>
        <time>2024-09-19T17:04:55Z</time>
      </trkpt>
      <trkpt lat="50.612984038889408" lon="12.248639976605773">
        <ele>341.41000000000003</ele>
        <time>2024-09-19T17:04:56Z</time>
      </trkpt>
      <trkpt lat="50.613013040274382" lon="12.24865498021245">
        <ele>341.41000000000003</ele>
        <time>2024-09-19T17:04:57Z</time>
      </trkpt>
      <trkpt lat="50.613064002245665" lon="12.248679958283901">
        <ele>341.41000000000003</ele>
        <time>2024-09-19T17:04:58Z</time>
      </trkpt>
      <trkpt lat="50.613099960610271" lon="12.24869797937572">
        <ele>341.41000000000003</ele>
        <time>2024-09-19T17:04:59Z</time>
      </trkpt>
      <trkpt lat="50.613117981702089" lon="12.248680964112282">
        <ele>341.41000000000003</ele>
        <time>2024-09-19T17:05:00Z</time>
      </trkpt>
      <trkpt lat="50.613132985308766" lon="12.248604018241167">
        <ele>341.41000000000003</ele>
        <time>2024-09-19T17:05:01Z</time>
      </trkpt>
      <trkpt lat="50.613147988915443" lon="12.248526988551021">
        <ele>341.41000000000003</ele>
        <time>2024-09-19T17:05:02Z</time>
      </trkpt>
      <trkpt lat="50.613095015287399" lon="12.24846001714468">
        <ele>341.41000000000003</ele>
        <time>2024-09-19T17:05:03Z</time>
      </trkpt>
      <trkpt lat="50.61303399503231" lon="12.248429004102945">
        <ele>341.41000000000003</ele>
        <time>2024-09-19T17:05:04Z</time>
      </trkpt>
      <trkpt lat="50.612999964505434" lon="12.248277040198445">
        <ele>341.41000000000003</ele>
        <time>2024-09-19T17:05:05Z</time>
      </trkpt>
      <trkpt lat="50.612979009747505" lon="12.248164974153042">
        <ele>341.41000000000003</ele>
        <time>2024-09-19T17:05:06Z</time>
      </trkpt>
      <trkpt lat="50.612956965342164" lon="12.248045029118657">
        <ele>341.88999999999999</ele>
        <time>2024-09-19T17:05:07Z</time>
      </trkpt>
      <trkpt lat="50.612933998927474" lon="12.247919971123338">
        <ele>341.88999999999999</ele>
        <time>2024-09-19T17:05:08Z</time>
      </trkpt>
      <trkpt lat="50.612910026684403" lon="12.247789967805147">
        <ele>342.37</ele>
        <time>2024-09-19T17:05:09Z</time>
      </trkpt>
      <trkpt lat="50.612757978960872" lon="12.246998967602849">
        <ele>346.20999999999998</ele>
        <time>2024-09-19T17:05:15Z</time>
      </trkpt>
      <trkpt lat="50.612716991454363" lon="12.246884973719716">
        <ele>346.69</ele>
        <time>2024-09-19T17:05:16Z</time>
      </trkpt>
      <trkpt lat="50.612683966755867" lon="12.246795035898685">
        <ele>347.64999999999998</ele>
        <time>2024-09-19T17:05:17Z</time>
      </trkpt>
      <trkpt lat="50.612593023106456" lon="12.246723035350442">
        <ele>348.13</ele>
        <time>2024-09-19T17:05:18Z</time>
      </trkpt>
      <trkpt lat="50.612510964274406" lon="12.246658997610211">
        <ele>348.62</ele>
        <time>2024-09-19T17:05:19Z</time>
      </trkpt>
      <trkpt lat="50.611912999302149" lon="12.246089028194547">
        <ele>352.45999999999998</ele>
        <time>2024-09-19T17:05:26Z</time>
      </trkpt>
      <trkpt lat="50.611388962715864" lon="12.2454749699682">
        <ele>361.11000000000001</ele>
        <time>2024-09-19T17:05:33Z</time>
      </trkpt>
      <trkpt lat="50.611127028241754" lon="12.245070040225983">
        <ele>364.48000000000002</ele>
        <time>2024-09-19T17:05:37Z</time>
      </trkpt>
      <trkpt lat="50.611066007986665" lon="12.244968032464385">
        <ele>364.95999999999998</ele>
        <time>2024-09-19T17:05:38Z</time>
      </trkpt>
      <trkpt lat="50.610888982191682" lon="12.244644993916154">
        <ele>365.44</ele>
        <time>2024-09-19T17:05:41Z</time>
      </trkpt>
      <trkpt lat="50.610839026048779" lon="12.244477020576596">
        <ele>365.92000000000002</ele>
        <time>2024-09-19T17:05:42Z</time>
      </trkpt>
      <trkpt lat="50.61079996638" lon="12.244381969794631">
        <ele>365.92000000000002</ele>
        <time>2024-09-19T17:05:43Z</time>
      </trkpt>
      <trkpt lat="50.610752021893859" lon="12.244260013103485">
        <ele>366.39999999999998</ele>
        <time>2024-09-19T17:05:44Z</time>
      </trkpt>
      <trkpt lat="50.610710028558969" lon="12.244155993685126">
        <ele>366.39999999999998</ele>
        <time>2024-09-19T17:05:45Z</time>
      </trkpt>
      <trkpt lat="50.610620006918907" lon="12.244110982865095">
        <ele>366.39999999999998</ele>
        <time>2024-09-19T17:05:46Z</time>
      </trkpt>
      <trkpt lat="50.610540965572" lon="12.244071001186967">
        <ele>366.88</ele>
        <time>2024-09-19T17:05:47Z</time>
      </trkpt>
      <trkpt lat="50.610471982508898" lon="12.24403697066009">
        <ele>366.88</ele>
        <time>2024-09-19T17:05:48Z</time>
      </trkpt>
      <trkpt lat="50.61040903441608" lon="12.244005035609007">
        <ele>367.36000000000001</ele>
        <time>2024-09-19T17:05:49Z</time>
      </trkpt>
      <trkpt lat="50.610365029424429" lon="12.243905961513519">
        <ele>367.83999999999997</ele>
        <time>2024-09-19T17:05:50Z</time>
      </trkpt>
      <trkpt lat="50.610323958098888" lon="12.243812000378966">
        <ele>367.83999999999997</ele>
        <time>2024-09-19T17:05:51Z</time>
      </trkpt>
      <trkpt lat="50.610313983634114" lon="12.243660958483815">
        <ele>368.31999999999999</ele>
        <time>2024-09-19T17:05:52Z</time>
      </trkpt>
      <trkpt lat="50.610301997512579" lon="12.243469012901187">
        <ele>368.31999999999999</ele>
        <time>2024-09-19T17:05:53Z</time>
      </trkpt>
      <trkpt lat="50.610312977805734" lon="12.243330040946603">
        <ele>368.80000000000001</ele>
        <time>2024-09-19T17:05:54Z</time>
      </trkpt>
      <trkpt lat="50.610327981412411" lon="12.243143962696195">
        <ele>369.27999999999997</ele>
        <time>2024-09-19T17:05:55Z</time>
      </trkpt>
      <trkpt lat="50.610430995002389" lon="12.241793973371387">
        <ele>374.08999999999997</ele>
        <time>2024-09-19T17:06:03Z</time>
      </trkpt>
      <trkpt lat="50.610430995002389" lon="12.241647038608789">
        <ele>374.56999999999999</ele>
        <time>2024-09-19T17:06:04Z</time>
      </trkpt>
      <trkpt lat="50.610436024144292" lon="12.241514017805457">
        <ele>374.56999999999999</ele>
        <time>2024-09-19T17:06:05Z</time>
      </trkpt>
      <trkpt lat="50.610466031357646" lon="12.241373034194112">
        <ele>374.56999999999999</ele>
        <time>2024-09-19T17:06:06Z</time>
      </trkpt>
      <trkpt lat="50.61049796640873" lon="12.241224003955722">
        <ele>374.08999999999997</ele>
        <time>2024-09-19T17:06:07Z</time>
      </trkpt>
      <trkpt lat="50.610704999417067" lon="12.240379024296999">
        <ele>372.64999999999998</ele>
        <time>2024-09-19T17:06:12Z</time>
      </trkpt>
      <trkpt lat="50.610770964995027" lon="12.24021096713841">
        <ele>372.17000000000002</ele>
        <time>2024-09-19T17:06:13Z</time>
      </trkpt>
      <trkpt lat="50.610836008563638" lon="12.240043999627233">
        <ele>371.69</ele>
        <time>2024-09-19T17:06:14Z</time>
      </trkpt>
      <trkpt lat="50.611533969640732" lon="12.23883499391377">
        <ele>363.04000000000002</ele>
        <time>2024-09-19T17:06:23Z</time>
      </trkpt>
      <trkpt lat="50.611627008765936" lon="12.238713959231973">
        <ele>361.58999999999997</ele>
        <time>2024-09-19T17:06:24Z</time>
      </trkpt>
      <trkpt lat="50.612529991194606" lon="12.237467989325523">
        <ele>352.94</ele>
        <time>2024-09-19T17:06:34Z</time>
      </trkpt>
      <trkpt lat="50.612613977864385" lon="12.237329017370939">
        <ele>351.98000000000002</ele>
        <time>2024-09-19T17:06:35Z</time>
      </trkpt>
      <trkpt lat="50.61301002278924" lon="12.2366230096668">
        <ele>349.57999999999998</ele>
        <time>2024-09-19T17:06:40Z</time>
      </trkpt>
      <trkpt lat="50.613089986145496" lon="12.236480014398694">
        <ele>349.10000000000002</ele>
        <time>2024-09-19T17:06:41Z</time>
      </trkpt>
      <trkpt lat="50.613925997167826" lon="12.235112003982067">
        <ele>345.73000000000002</ele>
        <time>2024-09-19T17:06:51Z</time>
      </trkpt>
      <trkpt lat="50.614011995494366" lon="12.234977977350354">
        <ele>345.73000000000002</ele>
        <time>2024-09-19T17:06:52Z</time>
      </trkpt>
      <trkpt lat="50.614121966063976" lon="12.234873035922647">
        <ele>345.25</ele>
        <time>2024-09-19T17:06:53Z</time>
      </trkpt>
      <trkpt lat="50.614233026280999" lon="12.234814027324319">
        <ele>344.76999999999998</ele>
        <time>2024-09-19T17:06:54Z</time>
      </trkpt>
      <trkpt lat="50.614341991022229" lon="12.234757030382752">
        <ele>344.29000000000002</ele>
        <time>2024-09-19T17:06:55Z</time>
      </trkpt>
      <trkpt lat="50.614786986261606" lon="12.234520995989442">
        <ele>343.32999999999998</ele>
        <time>2024-09-19T17:06:59Z</time>
      </trkpt>
      <trkpt lat="50.614878013730049" lon="12.234440026804805">
        <ele>342.85000000000002</ele>
        <time>2024-09-19T17:07:00Z</time>
      </trkpt>
      <trkpt lat="50.614985972642899" lon="12.234338019043207">
        <ele>342.85000000000002</ele>
        <time>2024-09-19T17:07:01Z</time>
      </trkpt>
      <trkpt lat="50.615065013989806" lon="12.234178008511662">
        <ele>342.85000000000002</ele>
        <time>2024-09-19T17:07:02Z</time>
      </trkpt>
      <trkpt lat="50.615119999274611" lon="12.23400198854506">
        <ele>342.85000000000002</ele>
        <time>2024-09-19T17:07:03Z</time>
      </trkpt>
      <trkpt lat="50.615173978731036" lon="12.233825968578458">
        <ele>343.32999999999998</ele>
        <time>2024-09-19T17:07:04Z</time>
      </trkpt>
      <trkpt lat="50.615694997832179" lon="12.23215201869607">
        <ele>340.44</ele>
        <time>2024-09-19T17:07:13Z</time>
      </trkpt>
      <trkpt lat="50.61595399864018" lon="12.231323970481753">
        <ele>337.07999999999998</ele>
        <time>2024-09-19T17:07:17Z</time>
      </trkpt>
      <trkpt lat="50.6160600297153" lon="12.231152979657054">
        <ele>336.60000000000002</ele>
        <time>2024-09-19T17:07:18Z</time>
      </trkpt>
      <trkpt lat="50.616172011941671" lon="12.231000009924173">
        <ele>336.12</ele>
        <time>2024-09-19T17:07:19Z</time>
      </trkpt>
      <trkpt lat="50.616820016875863" lon="12.230076994746923">
        <ele>333.70999999999998</ele>
        <time>2024-09-19T17:07:25Z</time>
      </trkpt>
      <trkpt lat="50.616894029080868" lon="12.229908015578985">
        <ele>333.70999999999998</ele>
        <time>2024-09-19T17:07:26Z</time>
      </trkpt>
      <trkpt lat="50.617146994918585" lon="12.229135036468506">
        <ele>332.26999999999998</ele>
        <time>2024-09-19T17:07:30Z</time>
      </trkpt>
      <trkpt lat="50.617926008999348" lon="12.227568961679935">
        <ele>328.91000000000003</ele>
        <time>2024-09-19T17:07:38Z</time>
      </trkpt>
      <trkpt lat="50.618867967277765" lon="12.226019985973835">
        <ele>324.57999999999998</ele>
        <time>2024-09-19T17:07:46Z</time>
      </trkpt>
      <trkpt lat="50.618977015838027" lon="12.225843966007233">
        <ele>323.62</ele>
        <time>2024-09-19T17:07:47Z</time>
      </trkpt>
      <trkpt lat="50.619085980579257" lon="12.225667024031281">
        <ele>322.66000000000003</ele>
        <time>2024-09-19T17:07:48Z</time>
      </trkpt>
      <trkpt lat="50.619406001642346" lon="12.225150028243661">
        <ele>321.69999999999999</ele>
        <time>2024-09-19T17:07:51Z</time>
      </trkpt>
      <trkpt lat="50.619528964161873" lon="12.224951041862369">
        <ele>321.69999999999999</ele>
        <time>2024-09-19T17:07:52Z</time>
      </trkpt>
      <trkpt lat="50.619611022993922" lon="12.224763035774231">
        <ele>321.69999999999999</ele>
        <time>2024-09-19T17:07:53Z</time>
      </trkpt>
      <trkpt lat="50.619700960814953" lon="12.224559020251036">
        <ele>321.69999999999999</ele>
        <time>2024-09-19T17:07:54Z</time>
      </trkpt>
      <trkpt lat="50.619788970798254" lon="12.224358022212982">
        <ele>321.22000000000003</ele>
        <time>2024-09-19T17:07:55Z</time>
      </trkpt>
      <trkpt lat="50.620547030121088" lon="12.222937038168311">
        <ele>318.81</ele>
        <time>2024-09-19T17:08:03Z</time>
      </trkpt>
      <trkpt lat="50.620662029832602" lon="12.222814997658134">
        <ele>318.32999999999998</ele>
        <time>2024-09-19T17:08:04Z</time>
      </trkpt>
      <trkpt lat="50.620919018983841" lon="12.222660016268492">
        <ele>317.85000000000002</ele>
        <time>2024-09-19T17:08:06Z</time>
      </trkpt>
      <trkpt lat="50.621057990938425" lon="12.222622968256474">
        <ele>317.37</ele>
        <time>2024-09-19T17:08:07Z</time>
      </trkpt>
      <trkpt lat="50.62123803421855" lon="12.222621962428093">
        <ele>317.37</ele>
        <time>2024-09-19T17:08:08Z</time>
      </trkpt>
      <trkpt lat="50.621402990072966" lon="12.222710978239775">
        <ele>316.88999999999999</ele>
        <time>2024-09-19T17:08:09Z</time>
      </trkpt>
      <trkpt lat="50.621572975069284" lon="12.222804017364979">
        <ele>316.41000000000003</ele>
        <time>2024-09-19T17:08:10Z</time>
      </trkpt>
      <trkpt lat="50.622083013877273" lon="12.22304399125278">
        <ele>315.44999999999999</ele>
        <time>2024-09-19T17:08:13Z</time>
      </trkpt>
      <trkpt lat="50.622263979166746" lon="12.22310702316463">
        <ele>314.49000000000001</ele>
        <time>2024-09-19T17:08:14Z</time>
      </trkpt>
      <trkpt lat="50.622432958334684" lon="12.223143987357616">
        <ele>314.00999999999999</ele>
        <time>2024-09-19T17:08:15Z</time>
      </trkpt>
      <trkpt lat="50.623002005741" lon="12.223092019557953">
        <ele>312.08999999999997</ele>
        <time>2024-09-19T17:08:18Z</time>
      </trkpt>
      <trkpt lat="50.623181965202093" lon="12.223033010959625">
        <ele>311.60000000000002</ele>
        <time>2024-09-19T17:08:19Z</time>
      </trkpt>
      <trkpt lat="50.623359996825457" lon="12.222932009026408">
        <ele>311.12</ele>
        <time>2024-09-19T17:08:20Z</time>
      </trkpt>
      <trkpt lat="50.624675033614039" lon="12.222190964967012">
        <ele>306.80000000000001</ele>
        <time>2024-09-19T17:08:27Z</time>
      </trkpt>
      <trkpt lat="50.624824985861778" lon="12.222070014104247">
        <ele>305.83999999999997</ele>
        <time>2024-09-19T17:08:28Z</time>
      </trkpt>
      <trkpt lat="50.624951971694827" lon="12.221920983865857">
        <ele>305.36000000000001</ele>
        <time>2024-09-19T17:08:29Z</time>
      </trkpt>
      <trkpt lat="50.625072000548244" lon="12.221744963899255">
        <ele>304.88</ele>
        <time>2024-09-19T17:08:30Z</time>
      </trkpt>
      <trkpt lat="50.625181971117854" lon="12.221534997224808">
        <ele>304.38999999999999</ele>
        <time>2024-09-19T17:08:31Z</time>
      </trkpt>
      <trkpt lat="50.625296970829368" lon="12.221315978094935">
        <ele>303.43000000000001</ele>
        <time>2024-09-19T17:08:32Z</time>
      </trkpt>
      <trkpt lat="50.625520013272762" lon="12.220892021432519">
        <ele>301.50999999999999</ele>
        <time>2024-09-19T17:08:34Z</time>
      </trkpt>
      <trkpt lat="50.625624032691121" lon="12.220694040879607">
        <ele>301.02999999999997</ele>
        <time>2024-09-19T17:08:35Z</time>
      </trkpt>
      <trkpt lat="50.625739032402635" lon="12.220526989549398">
        <ele>300.55000000000001</ele>
        <time>2024-09-19T17:08:36Z</time>
      </trkpt>
      <trkpt lat="50.625875992700458" lon="12.220404027029872">
        <ele>299.58999999999997</ele>
        <time>2024-09-19T17:08:37Z</time>
      </trkpt>
      <trkpt lat="50.626029968261719" lon="12.22033403813839">
        <ele>299.11000000000001</ele>
        <time>2024-09-19T17:08:38Z</time>
      </trkpt>
      <trkpt lat="50.626197019591928" lon="12.220287015661597">
        <ele>298.14999999999998</ele>
        <time>2024-09-19T17:08:39Z</time>
      </trkpt>
      <trkpt lat="50.626371027901769" lon="12.220263965427876">
        <ele>297.18000000000001</ele>
        <time>2024-09-19T17:08:40Z</time>
      </trkpt>
      <trkpt lat="50.626543024554849" lon="12.220242004841566">
        <ele>296.22000000000003</ele>
        <time>2024-09-19T17:08:41Z</time>
      </trkpt>
      <trkpt lat="50.626709992066026" lon="12.220253990963101">
        <ele>295.74000000000001</ele>
        <time>2024-09-19T17:08:42Z</time>
      </trkpt>
      <trkpt lat="50.62689003534615" lon="12.220307970419526">
        <ele>294.77999999999997</ele>
        <time>2024-09-19T17:08:43Z</time>
      </trkpt>
      <trkpt lat="50.62706102617085" lon="12.220359016209841">
        <ele>293.81999999999999</ele>
        <time>2024-09-19T17:08:44Z</time>
      </trkpt>
      <trkpt lat="50.627269987016916" lon="12.22050603479147">
        <ele>292.86000000000001</ele>
        <time>2024-09-19T17:08:45Z</time>
      </trkpt>
      <trkpt lat="50.627477020025253" lon="12.220651963725686">
        <ele>291.89999999999998</ele>
        <time>2024-09-19T17:08:46Z</time>
      </trkpt>
      <trkpt lat="50.627695033326745" lon="12.220805017277598">
        <ele>291.42000000000002</ele>
        <time>2024-09-19T17:08:47Z</time>
      </trkpt>
      <trkpt lat="50.629311986267567" lon="12.221890976652503">
        <ele>285.17000000000002</ele>
        <time>2024-09-19T17:08:55Z</time>
      </trkpt>
      <trkpt lat="50.629463028162718" lon="12.221944034099579">
        <ele>284.69</ele>
        <time>2024-09-19T17:08:56Z</time>
      </trkpt>
      <trkpt lat="50.629719011485577" lon="12.221963983029127">
        <ele>283.25</ele>
        <time>2024-09-19T17:08:58Z</time>
      </trkpt>
      <trkpt lat="50.62985697761178" lon="12.221936993300915">
        <ele>282.27999999999997</ele>
        <time>2024-09-19T17:08:59Z</time>
      </trkpt>
      <trkpt lat="50.6299820356071" lon="12.221876978874207">
        <ele>281.80000000000001</ele>
        <time>2024-09-19T17:09:00Z</time>
      </trkpt>
      <trkpt lat="50.630733976140618" lon="12.221330981701612">
        <ele>278.92000000000002</ele>
        <time>2024-09-19T17:09:06Z</time>
      </trkpt>
      <trkpt lat="50.630819974467158" lon="12.221268033608794">
        <ele>278.44</ele>
        <time>2024-09-19T17:09:07Z</time>
      </trkpt>
      <trkpt lat="50.630887029692531" lon="12.221220005303621">
        <ele>277.95999999999998</ele>
        <time>2024-09-19T17:09:08Z</time>
      </trkpt>
      <trkpt lat="50.630932962521911" lon="12.221185974776745">
        <ele>277.48000000000002</ele>
        <time>2024-09-19T17:09:09Z</time>
      </trkpt>
      <trkpt lat="50.630967998877168" lon="12.221160996705294">
        <ele>277</ele>
        <time>2024-09-19T17:09:10Z</time>
      </trkpt>
      <trkpt lat="50.630992976948619" lon="12.221142975613475">
        <ele>276.04000000000002</ele>
        <time>2024-09-19T17:09:11Z</time>
      </trkpt>
      <trkpt lat="50.630998006090522" lon="12.221139036118984">
        <ele>275.56</ele>
        <time>2024-09-19T17:09:18Z</time>
      </trkpt>
      <trkpt lat="50.630999011918902" lon="12.221064018085599">
        <ele>275.56</ele>
        <time>2024-09-19T17:09:19Z</time>
      </trkpt>
      <trkpt lat="50.630986019968987" lon="12.220968967303634">
        <ele>275.06999999999999</ele>
        <time>2024-09-19T17:09:20Z</time>
      </trkpt>
      <trkpt lat="50.630885018035769" lon="12.219831040129066">
        <ele>271.70999999999998</ele>
        <time>2024-09-19T17:09:26Z</time>
      </trkpt>
      <trkpt lat="50.630771024152637" lon="12.218358004465699">
        <ele>270.26999999999998</ele>
        <time>2024-09-19T17:09:32Z</time>
      </trkpt>
      <trkpt lat="50.630783010274172" lon="12.218207968398929">
        <ele>270.26999999999998</ele>
        <time>2024-09-19T17:09:33Z</time>
      </trkpt>
      <trkpt lat="50.630807988345623" lon="12.217888031154871">
        <ele>268.82999999999998</ele>
        <time>2024-09-19T17:09:39Z</time>
      </trkpt>
      <trkpt lat="50.630815029144287" lon="12.217788035050035">
        <ele>268.35000000000002</ele>
        <time>2024-09-19T17:09:55Z</time>
      </trkpt>
      <trkpt lat="50.630821986123919" lon="12.217700025066733">
        <ele>267.86000000000001</ele>
        <time>2024-09-19T17:09:56Z</time>
      </trkpt>
      <trkpt lat="50.630831960588694" lon="12.217576978728175">
        <ele>267.38</ele>
        <time>2024-09-19T17:09:57Z</time>
      </trkpt>
      <trkpt lat="50.630836989730597" lon="12.217504978179932">
        <ele>266.89999999999998</ele>
        <time>2024-09-19T17:09:58Z</time>
      </trkpt>
      <trkpt lat="50.630900021642447" lon="12.217343039810658">
        <ele>265.94</ele>
        <time>2024-09-19T17:09:59Z</time>
      </trkpt>
      <trkpt lat="50.630954001098871" lon="12.217204989865422">
        <ele>265.45999999999998</ele>
        <time>2024-09-19T17:10:00Z</time>
      </trkpt>
      <trkpt lat="50.630987025797367" lon="12.217118991538882">
        <ele>264.98000000000002</ele>
        <time>2024-09-19T17:10:01Z</time>
      </trkpt>
      <trkpt lat="50.631288019940257" lon="12.216539969667792">
        <ele>263.06</ele>
        <time>2024-09-19T17:10:05Z</time>
      </trkpt>
      <trkpt lat="50.631343005225062" lon="12.216483978554606">
        <ele>263.06</ele>
        <time>2024-09-19T17:10:06Z</time>
      </trkpt>
      <trkpt lat="50.631437972187996" lon="12.216389011591673">
        <ele>262.57999999999998</ele>
        <time>2024-09-19T17:10:07Z</time>
      </trkpt>
      <trkpt lat="50.631527993828058" lon="12.216348024085164">
        <ele>262.10000000000002</ele>
        <time>2024-09-19T17:10:08Z</time>
      </trkpt>
      <trkpt lat="50.631645005196333" lon="12.216314999386668">
        <ele>261.62</ele>
        <time>2024-09-19T17:10:09Z</time>
      </trkpt>
      <trkpt lat="50.631762016564608" lon="12.216282980516553">
        <ele>261.62</ele>
        <time>2024-09-19T17:10:10Z</time>
      </trkpt>
      <trkpt lat="50.631881039589643" lon="12.216351041570306">
        <ele>262.10000000000002</ele>
        <time>2024-09-19T17:10:11Z</time>
      </trkpt>
      <trkpt lat="50.631998972967267" lon="12.216456988826394">
        <ele>262.57999999999998</ele>
        <time>2024-09-19T17:10:12Z</time>
      </trkpt>
      <trkpt lat="50.632119001820683" lon="12.216577017679811">
        <ele>262.57999999999998</ele>
        <time>2024-09-19T17:10:13Z</time>
      </trkpt>
      <trkpt lat="50.632496019825339" lon="12.21676804125309">
        <ele>263.06</ele>
        <time>2024-09-19T17:10:16Z</time>
      </trkpt>
      <trkpt lat="50.632617976516485" lon="12.216796958819032">
        <ele>262.57999999999998</ele>
        <time>2024-09-19T17:10:17Z</time>
      </trkpt>
      <trkpt lat="50.632701963186264" lon="12.216729987412691">
        <ele>262.57999999999998</ele>
        <time>2024-09-19T17:10:18Z</time>
      </trkpt>
      <trkpt lat="50.632832972332835" lon="12.216624962165952">
        <ele>262.10000000000002</ele>
        <time>2024-09-19T17:10:19Z</time>
      </trkpt>
      <trkpt lat="50.63288401812315" lon="12.216507028788328">
        <ele>262.10000000000002</ele>
        <time>2024-09-19T17:10:20Z</time>
      </trkpt>
      <trkpt lat="50.632960963994265" lon="12.216324973851442">
        <ele>262.10000000000002</ele>
        <time>2024-09-19T17:10:21Z</time>
      </trkpt>
      <trkpt lat="50.633007986471057" lon="12.216136967763305">
        <ele>262.10000000000002</ele>
        <time>2024-09-19T17:10:22Z</time>
      </trkpt>
      <trkpt lat="50.63305702060461" lon="12.215938987210393">
        <ele>261.62</ele>
        <time>2024-09-19T17:10:23Z</time>
      </trkpt>
      <trkpt lat="50.633106976747513" lon="12.215734971687198">
        <ele>261.62</ele>
        <time>2024-09-19T17:10:24Z</time>
      </trkpt>
      <trkpt lat="50.633157016709447" lon="12.215531039983034">
        <ele>261.62</ele>
        <time>2024-09-19T17:10:25Z</time>
      </trkpt>
      <trkpt lat="50.633693961426616" lon="12.213274966925383">
        <ele>268.35000000000002</ele>
        <time>2024-09-19T17:10:35Z</time>
      </trkpt>
      <trkpt lat="50.633967965841293" lon="12.211883990094066">
        <ele>269.79000000000002</ele>
        <time>2024-09-19T17:10:40Z</time>
      </trkpt>
      <trkpt lat="50.634018005803227" lon="12.21159003674984">
        <ele>270.26999999999998</ele>
        <time>2024-09-19T17:10:41Z</time>
      </trkpt>
      <trkpt lat="50.634127976372838" lon="12.210995005443692">
        <ele>270.75</ele>
        <time>2024-09-19T17:10:43Z</time>
      </trkpt>
      <trkpt lat="50.634282035753131" lon="12.210435010492802">
        <ele>270.75</ele>
        <time>2024-09-19T17:10:45Z</time>
      </trkpt>
      <trkpt lat="50.634393012151122" lon="12.210185984149575">
        <ele>270.75</ele>
        <time>2024-09-19T17:10:46Z</time>
      </trkpt>
      <trkpt lat="50.634503988549113" lon="12.209935029968619">
        <ele>271.23000000000002</ele>
        <time>2024-09-19T17:10:47Z</time>
      </trkpt>
      <trkpt lat="50.635594977065921" lon="12.207992020994425">
        <ele>275.06999999999999</ele>
        <time>2024-09-19T17:10:55Z</time>
      </trkpt>
      <trkpt lat="50.635930001735687" lon="12.207615002989769">
        <ele>276.51999999999998</ele>
        <time>2024-09-19T17:10:57Z</time>
      </trkpt>
      <trkpt lat="50.636125970631838" lon="12.207482988014817">
        <ele>277.48000000000002</ele>
        <time>2024-09-19T17:10:58Z</time>
      </trkpt>
      <trkpt lat="50.636327974498272" lon="12.207346027716994">
        <ele>278.44</ele>
        <time>2024-09-19T17:10:59Z</time>
      </trkpt>
      <trkpt lat="50.637407982721925" lon="12.206833977252245">
        <ele>278.92000000000002</ele>
        <time>2024-09-19T17:11:04Z</time>
      </trkpt>
      <trkpt lat="50.637629013508558" lon="12.20679902471602">
        <ele>278.92000000000002</ele>
        <time>2024-09-19T17:11:05Z</time>
      </trkpt>
      <trkpt lat="50.637861024588346" lon="12.206787960603833">
        <ele>278.92000000000002</ele>
        <time>2024-09-19T17:11:06Z</time>
      </trkpt>
      <trkpt lat="50.638070991262794" lon="12.206876976415515">
        <ele>278.92000000000002</ele>
        <time>2024-09-19T17:11:07Z</time>
      </trkpt>
      <trkpt lat="50.638280035927892" lon="12.206964986398816">
        <ele>278.92000000000002</ele>
        <time>2024-09-19T17:11:08Z</time>
      </trkpt>
      <trkpt lat="50.638484973460436" lon="12.207051990553737">
        <ele>278.92000000000002</ele>
        <time>2024-09-19T17:11:09Z</time>
      </trkpt>
      <trkpt lat="50.638684965670109" lon="12.207135977223516">
        <ele>278.92000000000002</ele>
        <time>2024-09-19T17:11:10Z</time>
      </trkpt>
      <trkpt lat="50.639785006642342" lon="12.207720028236508">
        <ele>278.44</ele>
        <time>2024-09-19T17:11:17Z</time>
      </trkpt>
      <trkpt lat="50.639925990253687" lon="12.207711981609464">
        <ele>278.44</ele>
        <time>2024-09-19T17:11:18Z</time>
      </trkpt>
      <trkpt lat="50.640046019107103" lon="12.207705024629831">
        <ele>278.44</ele>
        <time>2024-09-19T17:11:19Z</time>
      </trkpt>
      <trkpt lat="50.640150038525462" lon="12.207698989659548">
        <ele>277.95999999999998</ele>
        <time>2024-09-19T17:11:20Z</time>
      </trkpt>
      <trkpt lat="50.640220027416945" lon="12.207602011039853">
        <ele>277.95999999999998</ele>
        <time>2024-09-19T17:11:21Z</time>
      </trkpt>
      <trkpt lat="50.640302002429962" lon="12.207489022985101">
        <ele>277.48000000000002</ele>
        <time>2024-09-19T17:11:22Z</time>
      </trkpt>
      <trkpt lat="50.640339972451329" lon="12.207309985533357">
        <ele>277</ele>
        <time>2024-09-19T17:11:23Z</time>
      </trkpt>
      <trkpt lat="50.640364028513432" lon="12.207119967788458">
        <ele>276.51999999999998</ele>
        <time>2024-09-19T17:11:24Z</time>
      </trkpt>
      <trkpt lat="50.640368973836303" lon="12.206879993900657">
        <ele>276.04000000000002</ele>
        <time>2024-09-19T17:11:25Z</time>
      </trkpt>
      <trkpt lat="50.640372997149825" lon="12.206639014184475">
        <ele>275.56</ele>
        <time>2024-09-19T17:11:26Z</time>
      </trkpt>
      <trkpt lat="50.640378026291728" lon="12.206383030861616">
        <ele>275.06999999999999</ele>
        <time>2024-09-19T17:11:27Z</time>
      </trkpt>
      <trkpt lat="50.640381965786219" lon="12.206115983426571">
        <ele>274.11000000000001</ele>
        <time>2024-09-19T17:11:28Z</time>
      </trkpt>
      <trkpt lat="50.640408033505082" lon="12.205565040931106">
        <ele>272.67000000000002</ele>
        <time>2024-09-19T17:11:30Z</time>
      </trkpt>
      <trkpt lat="50.640423959121108" lon="12.205283995717764">
        <ele>272.19</ele>
        <time>2024-09-19T17:11:31Z</time>
      </trkpt>
      <trkpt lat="50.640440974384546" lon="12.204993981868029">
        <ele>271.23000000000002</ele>
        <time>2024-09-19T17:11:32Z</time>
      </trkpt>
      <trkpt lat="50.640485985204577" lon="12.204708997160196">
        <ele>270.26999999999998</ele>
        <time>2024-09-19T17:11:33Z</time>
      </trkpt>
      <trkpt lat="50.64055697992444" lon="12.204441027715802">
        <ele>269.31</ele>
        <time>2024-09-19T17:11:34Z</time>
      </trkpt>
      <trkpt lat="50.640654964372516" lon="12.204200970008969">
        <ele>268.35000000000002</ele>
        <time>2024-09-19T17:11:35Z</time>
      </trkpt>
      <trkpt lat="50.640752026811242" lon="12.203963007777929">
        <ele>267.86000000000001</ele>
        <time>2024-09-19T17:11:36Z</time>
      </trkpt>
      <trkpt lat="50.640853028744459" lon="12.203716998919845">
        <ele>266.89999999999998</ele>
        <time>2024-09-19T17:11:37Z</time>
      </trkpt>
      <trkpt lat="50.640960987657309" lon="12.203479036688805">
        <ele>265.94</ele>
        <time>2024-09-19T17:11:38Z</time>
      </trkpt>
      <trkpt lat="50.641276985406876" lon="12.202847963199019">
        <ele>264.5</ele>
        <time>2024-09-19T17:11:41Z</time>
      </trkpt>
      <trkpt lat="50.641547972336411" lon="12.202304983511567">
        <ele>263.54000000000002</ele>
        <time>2024-09-19T17:11:44Z</time>
      </trkpt>
      <trkpt lat="50.641631036996841" lon="12.202141033485532">
        <ele>262.57999999999998</ele>
        <time>2024-09-19T17:11:45Z</time>
      </trkpt>
      <trkpt lat="50.641818037256598" lon="12.201653961092234">
        <ele>260.64999999999998</ele>
        <time>2024-09-19T17:11:48Z</time>
      </trkpt>
      <trkpt lat="50.641875034198165" lon="12.201480036601424">
        <ele>259.69</ele>
        <time>2024-09-19T17:11:49Z</time>
      </trkpt>
      <trkpt lat="50.641931025311351" lon="12.201304016634822">
        <ele>259.69</ele>
        <time>2024-09-19T17:11:50Z</time>
      </trkpt>
      <trkpt lat="50.64197201281786" lon="12.201095977798104">
        <ele>259.20999999999998</ele>
        <time>2024-09-19T17:11:51Z</time>
      </trkpt>
      <trkpt lat="50.641997996717691" lon="12.200895985588431">
        <ele>258.73000000000002</ele>
        <time>2024-09-19T17:11:52Z</time>
      </trkpt>
      <trkpt lat="50.64216697588563" lon="12.199630988761783">
        <ele>257.29000000000002</ele>
        <time>2024-09-19T17:11:58Z</time>
      </trkpt>
      <trkpt lat="50.642207963392138" lon="12.199485981836915">
        <ele>256.81</ele>
        <time>2024-09-19T17:11:59Z</time>
      </trkpt>
      <trkpt lat="50.642264038324356" lon="12.199319014325738">
        <ele>256.32999999999998</ele>
        <time>2024-09-19T17:12:00Z</time>
      </trkpt>
      <trkpt lat="50.642346013337374" lon="12.19923703931272">
        <ele>255.84999999999999</ele>
        <time>2024-09-19T17:12:01Z</time>
      </trkpt>
      <trkpt lat="50.642448021098971" lon="12.199176019057631">
        <ele>255.84999999999999</ele>
        <time>2024-09-19T17:12:02Z</time>
      </trkpt>
      <trkpt lat="50.642565032467246" lon="12.199165960773826">
        <ele>256.32999999999998</ele>
        <time>2024-09-19T17:12:03Z</time>
      </trkpt>
      <trkpt lat="50.642685983330011" lon="12.199148023501039">
        <ele>256.32999999999998</ele>
        <time>2024-09-19T17:12:04Z</time>
      </trkpt>
      <trkpt lat="50.642811041325331" lon="12.199119022116065">
        <ele>256.32999999999998</ele>
        <time>2024-09-19T17:12:05Z</time>
      </trkpt>
      <trkpt lat="50.642920006066561" lon="12.199092032387853">
        <ele>256.32999999999998</ele>
        <time>2024-09-19T17:12:06Z</time>
      </trkpt>
      <trkpt lat="50.643011033535004" lon="12.19900100491941">
        <ele>256.81</ele>
        <time>2024-09-19T17:12:07Z</time>
      </trkpt>
      <trkpt lat="50.643080016598105" lon="12.198911989107728">
        <ele>256.81</ele>
        <time>2024-09-19T17:12:08Z</time>
      </trkpt>
      <trkpt lat="50.643136007711291" lon="12.198822973296046">
        <ele>256.81</ele>
        <time>2024-09-19T17:12:09Z</time>
      </trkpt>
      <trkpt lat="50.643186969682574" lon="12.198740998283029">
        <ele>256.81</ele>
        <time>2024-09-19T17:12:10Z</time>
      </trkpt>
      <trkpt lat="50.643233992159367" lon="12.198664974421263">
        <ele>257.29000000000002</ele>
        <time>2024-09-19T17:12:11Z</time>
      </trkpt>
      <trkpt lat="50.643366007134318" lon="12.198675032705069">
        <ele>257.29000000000002</ele>
        <time>2024-09-19T17:12:12Z</time>
      </trkpt>
      <trkpt lat="50.643457034602761" lon="12.198707973584533">
        <ele>257.29000000000002</ele>
        <time>2024-09-19T17:12:13Z</time>
      </trkpt>
      <trkpt lat="50.643560970202088" lon="12.198707973584533">
        <ele>257.76999999999998</ele>
        <time>2024-09-19T17:12:14Z</time>
      </trkpt>
      <trkpt lat="50.643683010712266" lon="12.198707973584533">
        <ele>257.76999999999998</ele>
        <time>2024-09-19T17:12:15Z</time>
      </trkpt>
      <trkpt lat="50.644205035641789" lon="12.198734041303396">
        <ele>256.81</ele>
        <time>2024-09-19T17:12:19Z</time>
      </trkpt>
      <trkpt lat="50.644339984282851" lon="12.198814004659653">
        <ele>256.81</ele>
        <time>2024-09-19T17:12:20Z</time>
      </trkpt>
      <trkpt lat="50.644482979550958" lon="12.198900002986193">
        <ele>256.81</ele>
        <time>2024-09-19T17:12:21Z</time>
      </trkpt>
      <trkpt lat="50.645347991958261" lon="12.199830980971456">
        <ele>257.76999999999998</ele>
        <time>2024-09-19T17:12:28Z</time>
      </trkpt>
      <trkpt lat="50.646052993834019" lon="12.200883999466896">
        <ele>263.06</ele>
        <time>2024-09-19T17:12:35Z</time>
      </trkpt>
      <trkpt lat="50.646160030737519" lon="12.20100000500679">
        <ele>264.01999999999998</ele>
        <time>2024-09-19T17:12:36Z</time>
      </trkpt>
      <trkpt lat="50.646386006847024" lon="12.201169990003109">
        <ele>266.42000000000002</ele>
        <time>2024-09-19T17:12:38Z</time>
      </trkpt>
      <trkpt lat="50.646513998508453" lon="12.201242996379733">
        <ele>266.89999999999998</ele>
        <time>2024-09-19T17:12:39Z</time>
      </trkpt>
      <trkpt lat="50.647730967029929" lon="12.201912961900234">
        <ele>273.14999999999998</ele>
        <time>2024-09-19T17:12:48Z</time>
      </trkpt>
      <trkpt lat="50.647869016975164" lon="12.201934000477195">
        <ele>273.63</ele>
        <time>2024-09-19T17:12:49Z</time>
      </trkpt>
      <trkpt lat="50.64844099804759" lon="12.202060986310244">
        <ele>276.51999999999998</ele>
        <time>2024-09-19T17:12:53Z</time>
      </trkpt>
      <trkpt lat="50.648904014378786" lon="12.202205993235111">
        <ele>278.92000000000002</ele>
        <time>2024-09-19T17:12:56Z</time>
      </trkpt>
      <trkpt lat="50.649064024910331" lon="12.202205993235111">
        <ele>279.39999999999998</ele>
        <time>2024-09-19T17:12:57Z</time>
      </trkpt>
      <trkpt lat="50.650807963684201" lon="12.202173974364996">
        <ele>283.25</ele>
        <time>2024-09-19T17:13:08Z</time>
      </trkpt>
      <trkpt lat="50.652411002665758" lon="12.202019998803735">
        <ele>282.27999999999997</ele>
        <time>2024-09-19T17:13:19Z</time>
      </trkpt>
      <trkpt lat="50.654012029990554" lon="12.202057968825102">
        <ele>277.48000000000002</ele>
        <time>2024-09-19T17:13:30Z</time>
      </trkpt>
      <trkpt lat="50.654243035241961" lon="12.202069032937288">
        <ele>276.51999999999998</ele>
        <time>2024-09-19T17:13:32Z</time>
      </trkpt>
      <trkpt lat="50.654418971389532" lon="12.202076995745301">
        <ele>275.06999999999999</ele>
        <time>2024-09-19T17:13:35Z</time>
      </trkpt>
      <trkpt lat="50.654445039108396" lon="12.202041959390044">
        <ele>274.11000000000001</ele>
        <time>2024-09-19T17:13:36Z</time>
      </trkpt>
      <trkpt lat="50.654485020786524" lon="12.201985968276858">
        <ele>274.11000000000001</ele>
        <time>2024-09-19T17:13:37Z</time>
      </trkpt>
      <trkpt lat="50.654518967494369" lon="12.201869040727615">
        <ele>273.63</ele>
        <time>2024-09-19T17:13:38Z</time>
      </trkpt>
      <trkpt lat="50.654557021334767" lon="12.201738031581044">
        <ele>272.67000000000002</ele>
        <time>2024-09-19T17:13:39Z</time>
      </trkpt>
      <trkpt lat="50.654635978862643" lon="12.201466038823128">
        <ele>270.75</ele>
        <time>2024-09-19T17:13:41Z</time>
      </trkpt>
      <trkpt lat="50.654691969975829" lon="12.201308961957693">
        <ele>269.79000000000002</ele>
        <time>2024-09-19T17:13:42Z</time>
      </trkpt>
      <trkpt lat="50.654760031029582" lon="12.201232016086578">
        <ele>268.35000000000002</ele>
        <time>2024-09-19T17:13:43Z</time>
      </trkpt>
      <trkpt lat="50.654943007975817" lon="12.201025988906622">
        <ele>263.06</ele>
        <time>2024-09-19T17:13:49Z</time>
      </trkpt>
      <trkpt lat="50.654967986047268" lon="12.200997993350029">
        <ele>260.64999999999998</ele>
        <time>2024-09-19T17:14:02Z</time>
      </trkpt>
      <trkpt lat="50.655074017122388" lon="12.201058007776737">
        <ele>260.64999999999998</ele>
        <time>2024-09-19T17:14:03Z</time>
      </trkpt>
      <trkpt lat="50.655104024335742" lon="12.201121961697936">
        <ele>260.17000000000002</ele>
        <time>2024-09-19T17:14:04Z</time>
      </trkpt>
      <trkpt lat="50.655139982700348" lon="12.201201003044844">
        <ele>259.69</ele>
        <time>2024-09-19T17:14:05Z</time>
      </trkpt>
      <trkpt lat="50.655179964378476" lon="12.201285995543003">
        <ele>259.20999999999998</ele>
        <time>2024-09-19T17:14:06Z</time>
      </trkpt>
      <trkpt lat="50.655262023210526" lon="12.201463021337986">
        <ele>258.73000000000002</ele>
        <time>2024-09-19T17:14:08Z</time>
      </trkpt>
      <trkpt lat="50.655296975746751" lon="12.201539967209101">
        <ele>258.25</ele>
        <time>2024-09-19T17:14:09Z</time>
      </trkpt>
      <trkpt lat="50.655456986278296" lon="12.201947998255491">
        <ele>254.88999999999999</ele>
        <time>2024-09-19T17:14:19Z</time>
      </trkpt>
      <trkpt lat="50.655480958521366" lon="12.20203198492527">
        <ele>254.88999999999999</ele>
        <time>2024-09-19T17:14:59Z</time>
      </trkpt>
      <trkpt lat="50.655498979613185" lon="12.202090993523598">
        <ele>254.88999999999999</ele>
        <time>2024-09-19T17:15:00Z</time>
      </trkpt>
      <trkpt lat="50.655512977391481" lon="12.202141033485532">
        <ele>254.41</ele>
        <time>2024-09-19T17:15:01Z</time>
      </trkpt>
      <trkpt lat="50.655600987374783" lon="12.202141033485532">
        <ele>253.93000000000001</ele>
        <time>2024-09-19T17:15:02Z</time>
      </trkpt>
      <trkpt lat="50.655649015679955" lon="12.202141033485532">
        <ele>253.93000000000001</ele>
        <time>2024-09-19T17:15:03Z</time>
      </trkpt>
      <trkpt lat="50.655693020671606" lon="12.202141033485532">
        <ele>253.44</ele>
        <time>2024-09-19T17:15:04Z</time>
      </trkpt>
      <trkpt lat="50.655736019834876" lon="12.202141033485532">
        <ele>252.96000000000001</ele>
        <time>2024-09-19T17:15:05Z</time>
      </trkpt>
      <trkpt lat="50.655896030366421" lon="12.202114965766668">
        <ele>251.52000000000001</ele>
        <time>2024-09-19T17:15:08Z</time>
      </trkpt>
      <trkpt lat="50.655950009822845" lon="12.202104991301894">
        <ele>251.03999999999999</ele>
        <time>2024-09-19T17:15:09Z</time>
      </trkpt>
      <trkpt lat="50.656184032559395" lon="12.201979011297226">
        <ele>249.12</ele>
        <time>2024-09-19T17:15:14Z</time>
      </trkpt>
      <trkpt lat="50.656215967610478" lon="12.201924026012421">
        <ele>249.12</ele>
        <time>2024-09-19T17:15:15Z</time>
      </trkpt>
      <trkpt lat="50.656240023672581" lon="12.201856970787048">
        <ele>249.12</ele>
        <time>2024-09-19T17:15:16Z</time>
      </trkpt>
      <trkpt lat="50.656265001744032" lon="12.201785976067185">
        <ele>248.63999999999999</ele>
        <time>2024-09-19T17:15:17Z</time>
      </trkpt>
      <trkpt lat="50.656290985643864" lon="12.201711963862181">
        <ele>248.63999999999999</ele>
        <time>2024-09-19T17:15:18Z</time>
      </trkpt>
      <trkpt lat="50.656693987548351" lon="12.200638996437192">
        <ele>247.19999999999999</ele>
        <time>2024-09-19T17:15:30Z</time>
      </trkpt>
      <trkpt lat="50.656941002234817" lon="12.199973976239562">
        <ele>245.27000000000001</ele>
        <time>2024-09-19T17:15:39Z</time>
      </trkpt>
      <trkpt lat="50.656973021104932" lon="12.199887977913022">
        <ele>245.27000000000001</ele>
        <time>2024-09-19T17:15:40Z</time>
      </trkpt>
      <trkpt lat="50.657001016661525" lon="12.199756968766451">
        <ele>244.78999999999999</ele>
        <time>2024-09-19T17:15:42Z</time>
      </trkpt>
      <trkpt lat="50.657031023874879" lon="12.199620008468628">
        <ele>243.83000000000001</ele>
        <time>2024-09-19T17:15:47Z</time>
      </trkpt>
      <trkpt lat="50.657260017469525" lon="12.199914967641234">
        <ele>240.94999999999999</ele>
        <time>2024-09-19T17:15:56Z</time>
      </trkpt>
    </trkseg>
  </trk>

</gpx>